<?xml version='1.0' encoding='UTF-8'?><gpx version="1.1" creator="JPX - https://github.com/jenetics/jpx" xmlns="http://www.topografix.com/GPX/1/1"><trk><trkseg><trkpt lat="46.017327304041025" lon="11.890579741459238"><ele>268.0</ele><time>2026-04-07T10:17:31.982Z</time></trkpt><trkpt lat="46.01736701036803" lon="11.890454947792458"><ele>268.0</ele><time>2026-04-07T10:19:45Z</time></trkpt><trkpt lat="46.017355934427336" lon="11.890555933051878"><ele>268.0</ele><time>2026-04-07T10:19:49Z</time></trkpt><trkpt lat="46.01747824067764" lon="11.890452267493387"><ele>268.0</ele><time>2026-04-07T10:20:00Z</time></trkpt><trkpt lat="46.01757265836796" lon="11.89036240790544"><ele>268.0</ele><time>2026-04-07T10:20:03Z</time></trkpt><trkpt lat="46.01746997296788" lon="11.890399249188679"><ele>268.0</ele><time>2026-04-07T10:20:09Z</time></trkpt><trkpt lat="46.01729711391082" lon="11.890521184489906"><ele>268.0</ele><time>2026-04-07T10:20:10Z</time></trkpt><trkpt lat="46.01720683632527" lon="11.890439957339183"><ele>268.0</ele><time>2026-04-07T10:20:12Z</time></trkpt><trkpt lat="46.01711303135078" lon="11.890361172881141"><ele>268.0</ele><time>2026-04-07T10:20:14Z</time></trkpt><trkpt lat="46.017053057953795" lon="11.890326322078543"><ele>268.0</ele><time>2026-04-07T10:20:15Z</time></trkpt><trkpt lat="46.0169951529752" lon="11.89028546268548"><ele>268.0</ele><time>2026-04-07T10:20:17Z</time></trkpt><trkpt lat="46.01705415256762" lon="11.890229698360258"><ele>268.0</ele><time>2026-04-07T10:20:22Z</time></trkpt><trkpt lat="46.017099541980265" lon="11.89030912813155"><ele>268.0</ele><time>2026-04-07T10:20:40Z</time></trkpt><trkpt lat="46.01716581642943" lon="11.890270638877137"><ele>268.0</ele><time>2026-04-07T10:20:45Z</time></trkpt><trkpt lat="46.01723446155957" lon="11.890301144015163"><ele>268.0</ele><time>2026-04-07T10:20:58Z</time></trkpt><trkpt lat="46.017307465414014" lon="11.890269436643454"><ele>268.0</ele><time>2026-04-07T10:21:03.001Z</time></trkpt><trkpt lat="46.01726784647566" lon="11.890475798490787"><ele>268.0</ele><time>2026-04-07T10:21:38.247Z</time></trkpt><trkpt lat="46.01721237186792" lon="11.890246353678759"><ele>268.0</ele><time>2026-04-07T10:22:01.001Z</time></trkpt><trkpt lat="46.01714929375512" lon="11.890266668532574"><ele>268.0</ele><time>2026-04-07T10:22:02.001Z</time></trkpt><trkpt lat="46.01709145307715" lon="11.890227323747261"><ele>268.0</ele><time>2026-04-07T10:22:08.997Z</time></trkpt><trkpt lat="46.01701135899546" lon="11.890229157166"><ele>268.0</ele><time>2026-04-07T10:23:15Z</time></trkpt><trkpt lat="46.01703126064532" lon="11.89011860499933"><ele>268.16666666666663</ele><time>2026-04-07T10:23:18Z</time></trkpt><trkpt lat="46.017041415726645" lon="11.890014023833233"><ele>268.3333333333333</ele><time>2026-04-07T10:23:21Z</time></trkpt><trkpt lat="46.01705804950958" lon="11.889925519547068"><ele>268.5</ele><time>2026-04-07T10:23:25.001Z</time></trkpt><trkpt lat="46.01707793363323" lon="11.889796933879134"><ele>268.6666666666667</ele><time>2026-04-07T10:23:29.001Z</time></trkpt><trkpt lat="46.01714995049258" lon="11.889726923929393"><ele>268.83333333333337</ele><time>2026-04-07T10:23:31.001Z</time></trkpt><trkpt lat="46.01721318900543" lon="11.889713988408808"><ele>269.0</ele><time>2026-04-07T10:23:32.001Z</time></trkpt><trkpt lat="46.017292332707775" lon="11.889705203660286"><ele>269.0</ele><time>2026-04-07T10:23:33.001Z</time></trkpt><trkpt lat="46.01736333318417" lon="11.88969190282656"><ele>269.0</ele><time>2026-04-07T10:23:34.001Z</time></trkpt><trkpt lat="46.01746664478038" lon="11.889668675125858"><ele>269.0</ele><time>2026-04-07T10:23:36.001Z</time></trkpt><trkpt lat="46.01756295131255" lon="11.889666761494366"><ele>269.0</ele><time>2026-04-07T10:23:38.001Z</time></trkpt><trkpt lat="46.017629853557224" lon="11.889638391038472"><ele>269.0</ele><time>2026-04-07T10:23:44.001Z</time></trkpt><trkpt lat="46.01766163974266" lon="11.889521431857872"><ele>269.0</ele><time>2026-04-07T10:23:47.001Z</time></trkpt><trkpt lat="46.017631248483774" lon="11.889374938382828"><ele>269.2</ele><time>2026-04-07T10:23:49.001Z</time></trkpt><trkpt lat="46.0176200662404" lon="11.889193125084061"><ele>269.4</ele><time>2026-04-07T10:23:51.001Z</time></trkpt><trkpt lat="46.01761264457052" lon="11.88908996183773"><ele>269.6</ele><time>2026-04-07T10:23:52.001Z</time></trkpt><trkpt lat="46.01759592171671" lon="11.888908739483327"><ele>269.8</ele><time>2026-04-07T10:23:54.001Z</time></trkpt><trkpt lat="46.01758582911926" lon="11.888819145622982"><ele>270.0</ele><time>2026-04-07T10:23:55.001Z</time></trkpt><trkpt lat="46.017574884465766" lon="11.888703020769661"><ele>270.0</ele><time>2026-04-07T10:23:57.001Z</time></trkpt><trkpt lat="46.017586701248995" lon="11.888613087085442"><ele>270.0</ele><time>2026-04-07T10:24:04.001Z</time></trkpt><trkpt lat="46.0176975784928" lon="11.888564691684536"><ele>270.0</ele><time>2026-04-07T10:24:06.001Z</time></trkpt><trkpt lat="46.017786370032894" lon="11.888542837776042"><ele>270.0</ele><time>2026-04-07T10:24:07.001Z</time></trkpt><trkpt lat="46.01788144574167" lon="11.88849838212517"><ele>270.0</ele><time>2026-04-07T10:24:08.001Z</time></trkpt><trkpt lat="46.01795345066224" lon="11.888468157317591"><ele>270.0</ele><time>2026-04-07T10:24:09.001Z</time></trkpt><trkpt lat="46.01802080779998" lon="11.888441646404573"><ele>269.5</ele><time>2026-04-07T10:24:10.002Z</time></trkpt><trkpt lat="46.01809272829198" lon="11.888415646711511"><ele>269.0</ele><time>2026-04-07T10:24:11.002Z</time></trkpt><trkpt lat="46.01817842844965" lon="11.888395286358364"><ele>268.5</ele><time>2026-04-07T10:24:12.002Z</time></trkpt><trkpt lat="46.018255170300144" lon="11.888392957208366"><ele>268.0</ele><time>2026-04-07T10:24:13.002Z</time></trkpt><trkpt lat="46.01832891034479" lon="11.888396803540363"><ele>267.5</ele><time>2026-04-07T10:24:13.999Z</time></trkpt><trkpt lat="46.01840366008431" lon="11.888403678730574"><ele>267.0</ele><time>2026-04-07T10:24:14.999Z</time></trkpt><trkpt lat="46.0184716661069" lon="11.888392273013107"><ele>267.0</ele><time>2026-04-07T10:24:15.999Z</time></trkpt><trkpt lat="46.01856454338921" lon="11.888277339796812"><ele>267.0</ele><time>2026-04-07T10:24:17.999Z</time></trkpt><trkpt lat="46.01856799125865" lon="11.888112407513267"><ele>267.0</ele><time>2026-04-07T10:24:19.999Z</time></trkpt><trkpt lat="46.0184700322223" lon="11.888007450433099"><ele>267.0</ele><time>2026-04-07T10:24:21.999Z</time></trkpt><trkpt lat="46.01840399293309" lon="11.888017609835854"><ele>267.0</ele><time>2026-04-07T10:24:22.999Z</time></trkpt><trkpt lat="46.01833430294177" lon="11.88803571299161"><ele>267.0</ele><time>2026-04-07T10:24:23.999Z</time></trkpt><trkpt lat="46.01827179892345" lon="11.888155338310781"><ele>267.0</ele><time>2026-04-07T10:24:25Z</time></trkpt><trkpt lat="46.018192354956426" lon="11.888253557327902"><ele>267.0</ele><time>2026-04-07T10:24:26Z</time></trkpt><trkpt lat="46.01808962561248" lon="11.888340874013796"><ele>267.0</ele><time>2026-04-07T10:24:27Z</time></trkpt><trkpt lat="46.01796846966573" lon="11.88840222016172"><ele>267.5</ele><time>2026-04-07T10:24:28Z</time></trkpt><trkpt lat="46.01786364363986" lon="11.888435915178299"><ele>268.0</ele><time>2026-04-07T10:24:29Z</time></trkpt><trkpt lat="46.01777686394945" lon="11.888468880074242"><ele>268.5</ele><time>2026-04-07T10:24:30Z</time></trkpt><trkpt lat="46.017700171924446" lon="11.888500746857684"><ele>269.0</ele><time>2026-04-07T10:24:31Z</time></trkpt><trkpt lat="46.017634578616274" lon="11.888529400932349"><ele>269.5</ele><time>2026-04-07T10:24:32Z</time></trkpt><trkpt lat="46.01754350217878" lon="11.888566198604277"><ele>270.0</ele><time>2026-04-07T10:24:34Z</time></trkpt><trkpt lat="46.01755992720064" lon="11.888775763119726"><ele>270.0</ele><time>2026-04-07T10:24:35Z</time></trkpt><trkpt lat="46.017570507241054" lon="11.888917923643755"><ele>270.0</ele><time>2026-04-07T10:24:36Z</time></trkpt><trkpt lat="46.017590613140236" lon="11.889085946634694"><ele>270.0</ele><time>2026-04-07T10:24:37Z</time></trkpt><trkpt lat="46.01761169949143" lon="11.88925214673062"><ele>270.0</ele><time>2026-04-07T10:24:38Z</time></trkpt><trkpt lat="46.0176210325255" lon="11.889375767700866"><ele>270.0</ele><time>2026-04-07T10:24:39Z</time></trkpt><trkpt lat="46.01763424737732" lon="11.88952206781529"><ele>270.2</ele><time>2026-04-07T10:24:41Z</time></trkpt><trkpt lat="46.017618084833394" lon="11.889616734686093"><ele>270.4</ele><time>2026-04-07T10:24:43Z</time></trkpt><trkpt lat="46.0174611919289" lon="11.889630737844456"><ele>270.6</ele><time>2026-04-07T10:24:45Z</time></trkpt><trkpt lat="46.017384618327185" lon="11.88964424786682"><ele>270.8</ele><time>2026-04-07T10:24:46Z</time></trkpt><trkpt lat="46.017306345672374" lon="11.889658057685551"><ele>271.0</ele><time>2026-04-07T10:24:47Z</time></trkpt><trkpt lat="46.01724046924061" lon="11.889693631934659"><ele>270.3333333333333</ele><time>2026-04-07T10:24:48Z</time></trkpt><trkpt lat="46.01716473967259" lon="11.889706639963997"><ele>269.6666666666667</ele><time>2026-04-07T10:24:50Z</time></trkpt><trkpt lat="46.01703500465346" lon="11.889746692508101"><ele>269.0</ele><time>2026-04-07T10:24:52Z</time></trkpt><trkpt lat="46.01730110088632" lon="11.889776361672157"><ele>269.0</ele><time>2026-04-07T10:24:56Z</time></trkpt><trkpt lat="46.01734676323432" lon="11.889856458969044"><ele>269.0</ele><time>2026-04-07T10:24:58.001Z</time></trkpt><trkpt lat="46.01735847407641" lon="11.889998970327254"><ele>269.0</ele><time>2026-04-07T10:25:00.001Z</time></trkpt><trkpt lat="46.01738074609208" lon="11.890142148324998"><ele>269.0</ele><time>2026-04-07T10:25:02.001Z</time></trkpt><trkpt lat="46.01739778617999" lon="11.890272522308175"><ele>269.0</ele><time>2026-04-07T10:25:04.001Z</time></trkpt><trkpt lat="46.01736207522671" lon="11.890385217817917"><ele>268.8</ele><time>2026-04-07T10:25:07.001Z</time></trkpt><trkpt lat="46.01732650302594" lon="11.890469877375686"><ele>268.59999999999997</ele><time>2026-04-07T10:25:12.001Z</time></trkpt><trkpt lat="46.01728137471178" lon="11.890569615979382"><ele>268.4</ele><time>2026-04-07T10:27:49.002Z</time></trkpt><trkpt lat="46.01714521771337" lon="11.890488789811005"><ele>268.2</ele><time>2026-04-07T10:27:52.002Z</time></trkpt><trkpt lat="46.01709162750755" lon="11.89043394875354"><ele>268.0</ele><time>2026-04-07T10:27:53.002Z</time></trkpt><trkpt lat="46.01701440635388" lon="11.890327614190008"><ele>268.0</ele><time>2026-04-07T10:27:55.002Z</time></trkpt><trkpt lat="46.01699973636329" lon="11.890214537301443"><ele>268.0</ele><time>2026-04-07T10:27:57.002Z</time></trkpt><trkpt lat="46.01701716954977" lon="11.890083007887375"><ele>268.0</ele><time>2026-04-07T10:27:59.002Z</time></trkpt><trkpt lat="46.01703198627868" lon="11.889983758387805"><ele>268.0</ele><time>2026-04-07T10:28:00.002Z</time></trkpt><trkpt lat="46.01704559956764" lon="11.889876698447015"><ele>268.0</ele><time>2026-04-07T10:28:01.002Z</time></trkpt><trkpt lat="46.01708839629775" lon="11.88973085437463"><ele>268.0</ele><time>2026-04-07T10:28:03.002Z</time></trkpt><trkpt lat="46.01716684232364" lon="11.88973436586211"><ele>268.16666666666663</ele><time>2026-04-07T10:28:04.002Z</time></trkpt><trkpt lat="46.0172428250583" lon="11.889697144140209"><ele>268.3333333333333</ele><time>2026-04-07T10:28:05.002Z</time></trkpt><trkpt lat="46.01732649257785" lon="11.889688500537854"><ele>268.5</ele><time>2026-04-07T10:28:06.002Z</time></trkpt><trkpt lat="46.017411986588264" lon="11.889673502055059"><ele>268.6666666666667</ele><time>2026-04-07T10:28:07.002Z</time></trkpt><trkpt lat="46.017489094021784" lon="11.889657265151833"><ele>268.83333333333337</ele><time>2026-04-07T10:28:08.003Z</time></trkpt><trkpt lat="46.017551901726044" lon="11.889644938405489"><ele>269.0</ele><time>2026-04-07T10:28:09.003Z</time></trkpt><trkpt lat="46.01761618388523" lon="11.889633709613133"><ele>269.1666666666667</ele><time>2026-04-07T10:28:12.003Z</time></trkpt><trkpt lat="46.01766637826925" lon="11.88948022162942"><ele>269.33333333333337</ele><time>2026-04-07T10:28:24.003Z</time></trkpt><trkpt lat="46.01764109858874" lon="11.889329188691983"><ele>269.5</ele><time>2026-04-07T10:28:26.002Z</time></trkpt><trkpt lat="46.01763330469218" lon="11.889229806266467"><ele>269.6666666666667</ele><time>2026-04-07T10:28:27.002Z</time></trkpt><trkpt lat="46.017622913553566" lon="11.88912096440419"><ele>269.8333333333333</ele><time>2026-04-07T10:28:28.002Z</time></trkpt><trkpt lat="46.017613941175824" lon="11.889031024859413"><ele>270.0</ele><time>2026-04-07T10:28:29.002Z</time></trkpt><trkpt lat="46.017602717845975" lon="11.888936022774176"><ele>270.0</ele><time>2026-04-07T10:28:30.002Z</time></trkpt><trkpt lat="46.01758812622284" lon="11.888842590120012"><ele>270.0</ele><time>2026-04-07T10:28:31.002Z</time></trkpt><trkpt lat="46.01757023981719" lon="11.888697730175817"><ele>270.0</ele><time>2026-04-07T10:28:33.002Z</time></trkpt><trkpt lat="46.017582847392084" lon="11.88859261788715"><ele>270.0</ele><time>2026-04-07T10:28:39.002Z</time></trkpt><trkpt lat="46.017651513733966" lon="11.88855777725407"><ele>270.0</ele><time>2026-04-07T10:28:40.002Z</time></trkpt><trkpt lat="46.01773189410522" lon="11.888542167956691"><ele>270.0</ele><time>2026-04-07T10:28:41.002Z</time></trkpt><trkpt lat="46.01781234657403" lon="11.888512704243073"><ele>270.0</ele><time>2026-04-07T10:28:42.002Z</time></trkpt><trkpt lat="46.01788366755991" lon="11.888477444185073"><ele>270.0</ele><time>2026-04-07T10:28:43.002Z</time></trkpt><trkpt lat="46.01796364638151" lon="11.888436695346401"><ele>270.0</ele><time>2026-04-07T10:28:44.002Z</time></trkpt><trkpt lat="46.018046237970786" lon="11.888404717240139"><ele>270.0</ele><time>2026-04-07T10:28:45.002Z</time></trkpt><trkpt lat="46.01812133313461" lon="11.88838322411524"><ele>270.0</ele><time>2026-04-07T10:28:46.002Z</time></trkpt><trkpt lat="46.01823385685381" lon="11.888372487538476"><ele>270.0</ele><time>2026-04-07T10:28:48.002Z</time></trkpt><trkpt lat="46.01831310601439" lon="11.88838663767206"><ele>270.1666666666667</ele><time>2026-04-07T10:28:51.002Z</time></trkpt><trkpt lat="46.01838639835136" lon="11.88839168565304"><ele>270.3333333333333</ele><time>2026-04-07T10:28:53.002Z</time></trkpt><trkpt lat="46.01851685333507" lon="11.888406824874053"><ele>270.5</ele><time>2026-04-07T10:28:55.001Z</time></trkpt><trkpt lat="46.01858146498016" lon="11.888445690988025"><ele>270.66666666666663</ele><time>2026-04-07T10:28:56.001Z</time></trkpt><trkpt lat="46.01863094748809" lon="11.888506316649972"><ele>270.8333333333333</ele><time>2026-04-07T10:28:57.001Z</time></trkpt><trkpt lat="46.01867965156982" lon="11.888566165524766"><ele>271.0</ele><time>2026-04-07T10:28:58.001Z</time></trkpt><trkpt lat="46.018700563490945" lon="11.888696345129638"><ele>271.0</ele><time>2026-04-07T10:28:59.001Z</time></trkpt><trkpt lat="46.01872607048773" lon="11.888832141683974"><ele>271.0</ele><time>2026-04-07T10:29:00.001Z</time></trkpt><trkpt lat="46.018736613233166" lon="11.888952710736802"><ele>271.0</ele><time>2026-04-07T10:29:01.001Z</time></trkpt><trkpt lat="46.01874597443024" lon="11.8890861728277"><ele>271.0</ele><time>2026-04-07T10:29:02.001Z</time></trkpt><trkpt lat="46.01875728488758" lon="11.889232950031621"><ele>271.0</ele><time>2026-04-07T10:29:03.001Z</time></trkpt><trkpt lat="46.01877152758788" lon="11.889375334875007"><ele>271.0</ele><time>2026-04-07T10:29:04.001Z</time></trkpt><trkpt lat="46.01878198888463" lon="11.889507699105954"><ele>271.0</ele><time>2026-04-07T10:29:05.001Z</time></trkpt><trkpt lat="46.01879069986348" lon="11.889635525805492"><ele>271.0</ele><time>2026-04-07T10:29:06.001Z</time></trkpt><trkpt lat="46.01880173358111" lon="11.889759212635363"><ele>271.0</ele><time>2026-04-07T10:29:07.001Z</time></trkpt><trkpt lat="46.01881387111192" lon="11.889885994966024"><ele>271.0</ele><time>2026-04-07T10:29:08.001Z</time></trkpt><trkpt lat="46.01883072825518" lon="11.890050995683616"><ele>271.0</ele><time>2026-04-07T10:29:09.001Z</time></trkpt><trkpt lat="46.01884734899303" lon="11.890256854972657"><ele>271.0</ele><time>2026-04-07T10:29:10.001Z</time></trkpt><trkpt lat="46.01886134962127" lon="11.890428800879747"><ele>271.0</ele><time>2026-04-07T10:29:11.001Z</time></trkpt><trkpt lat="46.018880520553346" lon="11.890585132000373"><ele>271.0</ele><time>2026-04-07T10:29:12.001Z</time></trkpt><trkpt lat="46.01890190055277" lon="11.890760897990116"><ele>271.25</ele><time>2026-04-07T10:29:13.001Z</time></trkpt><trkpt lat="46.01892012177132" lon="11.890957605033693"><ele>271.5</ele><time>2026-04-07T10:29:14.002Z</time></trkpt><trkpt lat="46.01893919566558" lon="11.891150747908917"><ele>271.75</ele><time>2026-04-07T10:29:15.002Z</time></trkpt><trkpt lat="46.018961271218146" lon="11.89133801601447"><ele>272.0</ele><time>2026-04-07T10:29:16.002Z</time></trkpt><trkpt lat="46.018971678839954" lon="11.89155320124416"><ele>272.0</ele><time>2026-04-07T10:29:17.002Z</time></trkpt><trkpt lat="46.019007217334874" lon="11.891749961818821"><ele>272.0</ele><time>2026-04-07T10:29:18.002Z</time></trkpt><trkpt lat="46.01902095901437" lon="11.891929016632654"><ele>272.0</ele><time>2026-04-07T10:29:19.002Z</time></trkpt><trkpt lat="46.01903306936229" lon="11.892085817093513"><ele>272.0</ele><time>2026-04-07T10:29:20.002Z</time></trkpt><trkpt lat="46.01904580670227" lon="11.892219686173455"><ele>272.0</ele><time>2026-04-07T10:29:21.002Z</time></trkpt><trkpt lat="46.019058458184375" lon="11.892338239598006"><ele>272.0</ele><time>2026-04-07T10:29:22.002Z</time></trkpt><trkpt lat="46.019069975192124" lon="11.892455920538078"><ele>272.0</ele><time>2026-04-07T10:29:23.002Z</time></trkpt><trkpt lat="46.01908157857531" lon="11.89256938974696"><ele>272.0</ele><time>2026-04-07T10:29:24.002Z</time></trkpt><trkpt lat="46.01910011354481" lon="11.892678768175264"><ele>272.0</ele><time>2026-04-07T10:29:25.002Z</time></trkpt><trkpt lat="46.01911603435731" lon="11.892792341452372"><ele>272.0</ele><time>2026-04-07T10:29:26.002Z</time></trkpt><trkpt lat="46.019134891434355" lon="11.89290843563312"><ele>272.2</ele><time>2026-04-07T10:29:27.002Z</time></trkpt><trkpt lat="46.019152461064905" lon="11.893026407500063"><ele>272.4</ele><time>2026-04-07T10:29:28.002Z</time></trkpt><trkpt lat="46.01917412740674" lon="11.8931564580861"><ele>272.6</ele><time>2026-04-07T10:29:29.002Z</time></trkpt><trkpt lat="46.01918056896057" lon="11.893317641833764"><ele>272.8</ele><time>2026-04-07T10:29:30.002Z</time></trkpt><trkpt lat="46.01920858288391" lon="11.893516710983684"><ele>273.0</ele><time>2026-04-07T10:29:31.002Z</time></trkpt><trkpt lat="46.01923574423522" lon="11.893701498234089"><ele>273.0</ele><time>2026-04-07T10:29:32.002Z</time></trkpt><trkpt lat="46.01927844217512" lon="11.89388505434104"><ele>273.0</ele><time>2026-04-07T10:29:33.002Z</time></trkpt><trkpt lat="46.01930388934897" lon="11.89406280932277"><ele>273.0</ele><time>2026-04-07T10:29:34.002Z</time></trkpt><trkpt lat="46.01932485140644" lon="11.894204535551275"><ele>273.0</ele><time>2026-04-07T10:29:35.002Z</time></trkpt><trkpt lat="46.01934162126807" lon="11.89432818889353"><ele>273.0</ele><time>2026-04-07T10:29:36.002Z</time></trkpt><trkpt lat="46.019360498765316" lon="11.89445290224705"><ele>273.0</ele><time>2026-04-07T10:29:37.002Z</time></trkpt><trkpt lat="46.019381554633654" lon="11.894585797234598"><ele>273.0</ele><time>2026-04-07T10:29:38.002Z</time></trkpt><trkpt lat="46.01940306167728" lon="11.89471161600598"><ele>273.0</ele><time>2026-04-07T10:29:39.002Z</time></trkpt><trkpt lat="46.019421214525174" lon="11.89481743856874"><ele>273.0</ele><time>2026-04-07T10:29:40.002Z</time></trkpt><trkpt lat="46.01943253912478" lon="11.894918454176729"><ele>273.0</ele><time>2026-04-07T10:29:41.002Z</time></trkpt><trkpt lat="46.01944024119392" lon="11.89502203326552"><ele>273.0</ele><time>2026-04-07T10:29:42.002Z</time></trkpt><trkpt lat="46.01944029931261" lon="11.895130479008477"><ele>273.1666666666667</ele><time>2026-04-07T10:29:43.002Z</time></trkpt><trkpt lat="46.01943045828492" lon="11.895245731950459"><ele>273.3333333333333</ele><time>2026-04-07T10:29:44.002Z</time></trkpt><trkpt lat="46.01941915359779" lon="11.895353289760633"><ele>273.5</ele><time>2026-04-07T10:29:45.002Z</time></trkpt><trkpt lat="46.01941862575075" lon="11.895457213450165"><ele>273.66666666666663</ele><time>2026-04-07T10:29:46.002Z</time></trkpt><trkpt lat="46.01943436029992" lon="11.895546824038558"><ele>273.8333333333333</ele><time>2026-04-07T10:29:47.002Z</time></trkpt><trkpt lat="46.01951232690529" lon="11.895687613320527"><ele>274.0</ele><time>2026-04-07T10:29:49.002Z</time></trkpt><trkpt lat="46.01958673224012" lon="11.895741883695127"><ele>274.0</ele><time>2026-04-07T10:29:50.002Z</time></trkpt><trkpt lat="46.01969247324024" lon="11.895796240558667"><ele>274.0</ele><time>2026-04-07T10:29:51.002Z</time></trkpt><trkpt lat="46.01977357358112" lon="11.895844485772102"><ele>274.0</ele><time>2026-04-07T10:29:52.002Z</time></trkpt><trkpt lat="46.01981588059235" lon="11.895920629766815"><ele>274.0</ele><time>2026-04-07T10:29:53.002Z</time></trkpt><trkpt lat="46.01985318327392" lon="11.896022420389933"><ele>274.0</ele><time>2026-04-07T10:29:54.002Z</time></trkpt><trkpt lat="46.019902080543844" lon="11.896177696588094"><ele>274.0</ele><time>2026-04-07T10:29:55.002Z</time></trkpt><trkpt lat="46.019953699966045" lon="11.896349629810816"><ele>274.0</ele><time>2026-04-07T10:29:56.002Z</time></trkpt><trkpt lat="46.019994453827074" lon="11.8964666399141"><ele>274.0</ele><time>2026-04-07T10:29:57.002Z</time></trkpt><trkpt lat="46.020032455531506" lon="11.89657041403282"><ele>274.0</ele><time>2026-04-07T10:29:58.002Z</time></trkpt><trkpt lat="46.02006953900817" lon="11.896675634054501"><ele>274.0</ele><time>2026-04-07T10:29:59.002Z</time></trkpt><trkpt lat="46.02010686594477" lon="11.896803379199305"><ele>274.2</ele><time>2026-04-07T10:30:00.002Z</time></trkpt><trkpt lat="46.02013976229385" lon="11.896942965469883"><ele>274.4</ele><time>2026-04-07T10:30:01.002Z</time></trkpt><trkpt lat="46.02018063816191" lon="11.897079943692402"><ele>274.6</ele><time>2026-04-07T10:30:02.002Z</time></trkpt><trkpt lat="46.02022625256477" lon="11.897211275006955"><ele>274.8</ele><time>2026-04-07T10:30:03.002Z</time></trkpt><trkpt lat="46.02026558254888" lon="11.897339055102755"><ele>275.0</ele><time>2026-04-07T10:30:04.002Z</time></trkpt><trkpt lat="46.020300707909236" lon="11.89746837081745"><ele>274.6</ele><time>2026-04-07T10:30:05.002Z</time></trkpt><trkpt lat="46.02033190240634" lon="11.897594638574862"><ele>274.2</ele><time>2026-04-07T10:30:06.002Z</time></trkpt><trkpt lat="46.02036011868169" lon="11.897722777036563"><ele>273.8</ele><time>2026-04-07T10:30:07.002Z</time></trkpt><trkpt lat="46.020389615429096" lon="11.897852054644705"><ele>273.4</ele><time>2026-04-07T10:30:08.002Z</time></trkpt><trkpt lat="46.02041715054433" lon="11.897979224880235"><ele>273.0</ele><time>2026-04-07T10:30:09.002Z</time></trkpt><trkpt lat="46.0204421388357" lon="11.898106560217894"><ele>273.0</ele><time>2026-04-07T10:30:10.002Z</time></trkpt><trkpt lat="46.020463669527224" lon="11.898236233738634"><ele>273.0</ele><time>2026-04-07T10:30:11.002Z</time></trkpt><trkpt lat="46.020486056779006" lon="11.898363782538224"><ele>273.0</ele><time>2026-04-07T10:30:12.002Z</time></trkpt><trkpt lat="46.020508258798166" lon="11.898493041196854"><ele>273.0</ele><time>2026-04-07T10:30:13.002Z</time></trkpt><trkpt lat="46.02052948729832" lon="11.898620435779106"><ele>273.0</ele><time>2026-04-07T10:30:14.002Z</time></trkpt><trkpt lat="46.02054874141897" lon="11.898742842420207"><ele>272.8333333333333</ele><time>2026-04-07T10:30:15.002Z</time></trkpt><trkpt lat="46.02056436447564" lon="11.898844747096614"><ele>272.6666666666667</ele><time>2026-04-07T10:30:16.002Z</time></trkpt><trkpt lat="46.02057936252514" lon="11.898935484909769"><ele>272.5</ele><time>2026-04-07T10:30:17.002Z</time></trkpt><trkpt lat="46.02060328413133" lon="11.899093549342064"><ele>272.33333333333337</ele><time>2026-04-07T10:30:19.002Z</time></trkpt><trkpt lat="46.02062017923578" lon="11.899206326254832"><ele>272.1666666666667</ele><time>2026-04-07T10:30:21.002Z</time></trkpt><trkpt lat="46.02063949880729" lon="11.899328304021438"><ele>272.0</ele><time>2026-04-07T10:30:23.002Z</time></trkpt><trkpt lat="46.02065742520929" lon="11.899453039967442"><ele>272.33333333333337</ele><time>2026-04-07T10:30:25.002Z</time></trkpt><trkpt lat="46.02066873933393" lon="11.899600020689135"><ele>272.6666666666667</ele><time>2026-04-07T10:30:27.002Z</time></trkpt><trkpt lat="46.0206712576882" lon="11.899696159356184"><ele>273.0</ele><time>2026-04-07T10:30:28.002Z</time></trkpt><trkpt lat="46.020682017570884" lon="11.89979404059074"><ele>273.3333333333333</ele><time>2026-04-07T10:30:29.002Z</time></trkpt><trkpt lat="46.020707093176576" lon="11.899889235304498"><ele>273.66666666666663</ele><time>2026-04-07T10:30:30.002Z</time></trkpt><trkpt lat="46.02074703119729" lon="11.900013691698557"><ele>274.0</ele><time>2026-04-07T10:30:31.002Z</time></trkpt><trkpt lat="46.02079872656027" lon="11.900193249336933"><ele>274.0</ele><time>2026-04-07T10:30:32.002Z</time></trkpt><trkpt lat="46.02085607468371" lon="11.900352798190795"><ele>274.0</ele><time>2026-04-07T10:30:33.002Z</time></trkpt><trkpt lat="46.02091194071653" lon="11.900526972692218"><ele>274.0</ele><time>2026-04-07T10:30:34.002Z</time></trkpt><trkpt lat="46.02099486893437" lon="11.900739678591545"><ele>274.0</ele><time>2026-04-07T10:30:35.002Z</time></trkpt><trkpt lat="46.02108284094244" lon="11.900986665854084"><ele>274.0</ele><time>2026-04-07T10:30:36.002Z</time></trkpt><trkpt lat="46.0211575290748" lon="11.901177118425958"><ele>274.0</ele><time>2026-04-07T10:30:37.002Z</time></trkpt><trkpt lat="46.02122055170289" lon="11.901349827660734"><ele>274.0</ele><time>2026-04-07T10:30:38.002Z</time></trkpt><trkpt lat="46.02127343062696" lon="11.90153589918932"><ele>274.0</ele><time>2026-04-07T10:30:39.002Z</time></trkpt><trkpt lat="46.02131916230228" lon="11.901724218824016"><ele>273.75</ele><time>2026-04-07T10:30:40.002Z</time></trkpt><trkpt lat="46.02134641281068" lon="11.90190673991634"><ele>273.5</ele><time>2026-04-07T10:30:41.002Z</time></trkpt><trkpt lat="46.02136737145165" lon="11.902086511761823"><ele>273.25</ele><time>2026-04-07T10:30:42.002Z</time></trkpt><trkpt lat="46.02137640937565" lon="11.902258452170335"><ele>273.0</ele><time>2026-04-07T10:30:43.001Z</time></trkpt><trkpt lat="46.0213841254628" lon="11.902421924278245"><ele>273.0</ele><time>2026-04-07T10:30:44.001Z</time></trkpt><trkpt lat="46.021398092683995" lon="11.902574394631731"><ele>273.0</ele><time>2026-04-07T10:30:45.001Z</time></trkpt><trkpt lat="46.02141290025268" lon="11.902720307778727"><ele>273.0</ele><time>2026-04-07T10:30:46.001Z</time></trkpt><trkpt lat="46.02142056860443" lon="11.902859227327186"><ele>273.0</ele><time>2026-04-07T10:30:47.001Z</time></trkpt><trkpt lat="46.02142788357872" lon="11.903009166929845"><ele>273.0</ele><time>2026-04-07T10:30:48.001Z</time></trkpt><trkpt lat="46.02143186640033" lon="11.903205882097469"><ele>272.8</ele><time>2026-04-07T10:30:49.001Z</time></trkpt><trkpt lat="46.02144439951076" lon="11.90335553902228"><ele>272.6</ele><time>2026-04-07T10:30:50.001Z</time></trkpt><trkpt lat="46.021455171448856" lon="11.903499685083624"><ele>272.4</ele><time>2026-04-07T10:30:51.001Z</time></trkpt><trkpt lat="46.02146432896059" lon="11.903646816535884"><ele>272.2</ele><time>2026-04-07T10:30:52.001Z</time></trkpt><trkpt lat="46.0214715305746" lon="11.90378074534745"><ele>272.0</ele><time>2026-04-07T10:30:53.001Z</time></trkpt><trkpt lat="46.02147529101886" lon="11.90390575451983"><ele>272.0</ele><time>2026-04-07T10:30:54.001Z</time></trkpt><trkpt lat="46.02147731530956" lon="11.904016888880163"><ele>272.0</ele><time>2026-04-07T10:30:55.001Z</time></trkpt><trkpt lat="46.0214797414263" lon="11.9041225968475"><ele>272.0</ele><time>2026-04-07T10:30:56.001Z</time></trkpt><trkpt lat="46.02148272096219" lon="11.904224289878721"><ele>272.0</ele><time>2026-04-07T10:30:57.001Z</time></trkpt><trkpt lat="46.02148528705843" lon="11.904330406054113"><ele>272.0</ele><time>2026-04-07T10:30:58.001Z</time></trkpt><trkpt lat="46.02149029362522" lon="11.904450957760131"><ele>272.0</ele><time>2026-04-07T10:30:59.001Z</time></trkpt><trkpt lat="46.02149537464726" lon="11.904576940272419"><ele>272.1666666666667</ele><time>2026-04-07T10:31:00.001Z</time></trkpt><trkpt lat="46.021500734049845" lon="11.904679464360163"><ele>272.33333333333337</ele><time>2026-04-07T10:31:01.001Z</time></trkpt><trkpt lat="46.02150684812673" lon="11.90476985350369"><ele>272.5</ele><time>2026-04-07T10:31:02.001Z</time></trkpt><trkpt lat="46.021505508734975" lon="11.904873107050776"><ele>272.6666666666667</ele><time>2026-04-07T10:31:03.001Z</time></trkpt><trkpt lat="46.02150143372081" lon="11.904987550702216"><ele>272.8333333333333</ele><time>2026-04-07T10:31:04.001Z</time></trkpt><trkpt lat="46.021504845923296" lon="11.905099946564127"><ele>273.0</ele><time>2026-04-07T10:31:05.001Z</time></trkpt><trkpt lat="46.02151464214661" lon="11.905229024433497"><ele>273.0</ele><time>2026-04-07T10:31:06.001Z</time></trkpt><trkpt lat="46.021532099130525" lon="11.905370873018681"><ele>273.0</ele><time>2026-04-07T10:31:07.001Z</time></trkpt><trkpt lat="46.021542435640875" lon="11.905520614354694"><ele>273.0</ele><time>2026-04-07T10:31:08.001Z</time></trkpt><trkpt lat="46.021555634253545" lon="11.905670281770515"><ele>273.0</ele><time>2026-04-07T10:31:09.001Z</time></trkpt><trkpt lat="46.021569384765925" lon="11.905823784904197"><ele>273.0</ele><time>2026-04-07T10:31:10.001Z</time></trkpt><trkpt lat="46.02158641120202" lon="11.905996422246883"><ele>273.0</ele><time>2026-04-07T10:31:11.001Z</time></trkpt><trkpt lat="46.02160954646285" lon="11.906214682213227"><ele>273.0</ele><time>2026-04-07T10:31:12.001Z</time></trkpt><trkpt lat="46.02163311579916" lon="11.906439431569858"><ele>273.0</ele><time>2026-04-07T10:31:13.001Z</time></trkpt><trkpt lat="46.021660702982125" lon="11.906709020679349"><ele>272.6666666666667</ele><time>2026-04-07T10:31:14.001Z</time></trkpt><trkpt lat="46.021690591838855" lon="11.90695369543494"><ele>272.33333333333337</ele><time>2026-04-07T10:31:15.001Z</time></trkpt><trkpt lat="46.02172721548647" lon="11.907209165669336"><ele>272.0</ele><time>2026-04-07T10:31:16.001Z</time></trkpt><trkpt lat="46.02177141050733" lon="11.907463804664122"><ele>272.33333333333337</ele><time>2026-04-07T10:31:17.001Z</time></trkpt><trkpt lat="46.021819709217596" lon="11.907707796844255"><ele>272.6666666666667</ele><time>2026-04-07T10:31:18.001Z</time></trkpt><trkpt lat="46.02186657190534" lon="11.907945227008815"><ele>273.0</ele><time>2026-04-07T10:31:19.001Z</time></trkpt><trkpt lat="46.021920397683225" lon="11.908177471649376"><ele>273.0</ele><time>2026-04-07T10:31:20.001Z</time></trkpt><trkpt lat="46.02197279098079" lon="11.90839670444158"><ele>273.0</ele><time>2026-04-07T10:31:21.001Z</time></trkpt><trkpt lat="46.022020006087594" lon="11.908601204160467"><ele>273.0</ele><time>2026-04-07T10:31:22.001Z</time></trkpt><trkpt lat="46.02206383376095" lon="11.908790158355824"><ele>273.0</ele><time>2026-04-07T10:31:23.001Z</time></trkpt><trkpt lat="46.022101742397766" lon="11.908964740645718"><ele>273.25</ele><time>2026-04-07T10:31:24.001Z</time></trkpt><trkpt lat="46.02213950731605" lon="11.909139793637765"><ele>273.5</ele><time>2026-04-07T10:31:25.001Z</time></trkpt><trkpt lat="46.02218380452442" lon="11.909329431827976"><ele>273.75</ele><time>2026-04-07T10:31:26.001Z</time></trkpt><trkpt lat="46.02223537048499" lon="11.909529597979983"><ele>274.0</ele><time>2026-04-07T10:31:27.001Z</time></trkpt><trkpt lat="46.02228996256349" lon="11.90975823214395"><ele>274.3333333333333</ele><time>2026-04-07T10:31:28.001Z</time></trkpt><trkpt lat="46.02234359914774" lon="11.910001893415048"><ele>274.6666666666667</ele><time>2026-04-07T10:31:29.001Z</time></trkpt><trkpt lat="46.022395102404204" lon="11.91023715045905"><ele>275.0</ele><time>2026-04-07T10:31:30.001Z</time></trkpt><trkpt lat="46.022444604400036" lon="11.910478885825507"><ele>275.6666666666667</ele><time>2026-04-07T10:31:31.001Z</time></trkpt><trkpt lat="46.02248202914099" lon="11.910723644374471"><ele>276.3333333333333</ele><time>2026-04-07T10:31:32.001Z</time></trkpt><trkpt lat="46.02251134714616" lon="11.910949260906872"><ele>277.0</ele><time>2026-04-07T10:31:33.001Z</time></trkpt><trkpt lat="46.022532928543306" lon="11.911157810995629"><ele>277.0</ele><time>2026-04-07T10:31:34.001Z</time></trkpt><trkpt lat="46.02254858964984" lon="11.911334976615596"><ele>277.0</ele><time>2026-04-07T10:31:35.001Z</time></trkpt><trkpt lat="46.02256247021692" lon="11.911497982539373"><ele>277.0</ele><time>2026-04-07T10:31:36.001Z</time></trkpt><trkpt lat="46.022573054041224" lon="11.9116448530275"><ele>277.0</ele><time>2026-04-07T10:31:37.001Z</time></trkpt><trkpt lat="46.02258159914422" lon="11.91176250743376"><ele>277.0</ele><time>2026-04-07T10:31:38.001Z</time></trkpt><trkpt lat="46.02259007473425" lon="11.911904057970826"><ele>277.0</ele><time>2026-04-07T10:31:40.001Z</time></trkpt><trkpt lat="46.022594062725226" lon="11.912035482393494"><ele>277.0</ele><time>2026-04-07T10:31:42.001Z</time></trkpt><trkpt lat="46.02259063317923" lon="11.912175005876394"><ele>277.0</ele><time>2026-04-07T10:31:44.001Z</time></trkpt><trkpt lat="46.02256374337079" lon="11.912273169031709"><ele>277.0</ele><time>2026-04-07T10:31:45.001Z</time></trkpt><trkpt lat="46.02254643105599" lon="11.912361091182868"><ele>277.0</ele><time>2026-04-07T10:31:46.001Z</time></trkpt><trkpt lat="46.022548034608135" lon="11.912451788078432"><ele>277.0</ele><time>2026-04-07T10:31:47.001Z</time></trkpt><trkpt lat="46.022567184336985" lon="11.91256434762884"><ele>276.6</ele><time>2026-04-07T10:31:48.001Z</time></trkpt><trkpt lat="46.02253555083192" lon="11.912681335721572"><ele>276.2</ele><time>2026-04-07T10:31:49.001Z</time></trkpt><trkpt lat="46.02262312132297" lon="11.912778306060968"><ele>275.8</ele><time>2026-04-07T10:31:50.001Z</time></trkpt><trkpt lat="46.02264766638467" lon="11.912917602981729"><ele>275.4</ele><time>2026-04-07T10:31:51.001Z</time></trkpt><trkpt lat="46.02266538564983" lon="11.913112356374398"><ele>275.0</ele><time>2026-04-07T10:31:52.001Z</time></trkpt><trkpt lat="46.02268111074454" lon="11.913319373364017"><ele>275.0</ele><time>2026-04-07T10:31:53.001Z</time></trkpt><trkpt lat="46.02268784669929" lon="11.913498245395996"><ele>275.0</ele><time>2026-04-07T10:31:54.001Z</time></trkpt><trkpt lat="46.022694051860256" lon="11.913633580886858"><ele>275.0</ele><time>2026-04-07T10:31:55.001Z</time></trkpt><trkpt lat="46.02269084006575" lon="11.913743660328239"><ele>275.0</ele><time>2026-04-07T10:31:56.001Z</time></trkpt><trkpt lat="46.022686295666816" lon="11.913869676572764"><ele>275.0</ele><time>2026-04-07T10:31:57.001Z</time></trkpt><trkpt lat="46.02268842114365" lon="11.914016158483859"><ele>275.0</ele><time>2026-04-07T10:31:58.001Z</time></trkpt><trkpt lat="46.02268867472948" lon="11.914161480292814"><ele>275.0</ele><time>2026-04-07T10:31:59.001Z</time></trkpt><trkpt lat="46.02269433867132" lon="11.914338724617606"><ele>275.0</ele><time>2026-04-07T10:32:00.001Z</time></trkpt><trkpt lat="46.02271070865845" lon="11.91456104125589"><ele>275.0</ele><time>2026-04-07T10:32:01.001Z</time></trkpt><trkpt lat="46.02272977835009" lon="11.91485733187965"><ele>276.5</ele><time>2026-04-07T10:32:02.001Z</time></trkpt><trkpt lat="46.022746228114656" lon="11.915180371062608"><ele>278.0</ele><time>2026-04-07T10:32:03.001Z</time></trkpt><trkpt lat="46.02276178534072" lon="11.915526796171607"><ele>280.5</ele><time>2026-04-07T10:32:04.001Z</time></trkpt><trkpt lat="46.02277679436215" lon="11.915920584633897"><ele>283.0</ele><time>2026-04-07T10:32:05.001Z</time></trkpt><trkpt lat="46.02279205352035" lon="11.916288299513669"><ele>283.0</ele><time>2026-04-07T10:32:06.001Z</time></trkpt><trkpt lat="46.022808694544366" lon="11.916598220707602"><ele>283.0</ele><time>2026-04-07T10:32:07.001Z</time></trkpt><trkpt lat="46.02281917213968" lon="11.91688288711149"><ele>283.0</ele><time>2026-04-07T10:32:08.001Z</time></trkpt><trkpt lat="46.02283067559918" lon="11.917140291988192"><ele>284.0</ele><time>2026-04-07T10:32:09.001Z</time></trkpt><trkpt lat="46.022841891263134" lon="11.91737779620495"><ele>285.0</ele><time>2026-04-07T10:32:10.002Z</time></trkpt><trkpt lat="46.02285326920035" lon="11.917596279931429"><ele>286.0</ele><time>2026-04-07T10:32:11.002Z</time></trkpt><trkpt lat="46.0228637929366" lon="11.917818966982004"><ele>286.3333333333333</ele><time>2026-04-07T10:32:12.002Z</time></trkpt><trkpt lat="46.022875290947795" lon="11.91804506382294"><ele>286.6666666666667</ele><time>2026-04-07T10:32:13.002Z</time></trkpt><trkpt lat="46.02288462307019" lon="11.918266265269143"><ele>287.0</ele><time>2026-04-07T10:32:14.002Z</time></trkpt><trkpt lat="46.02287901087136" lon="11.918488846535524"><ele>288.0</ele><time>2026-04-07T10:32:15.002Z</time></trkpt><trkpt lat="46.02290504515463" lon="11.918696858414206"><ele>289.0</ele><time>2026-04-07T10:32:16.002Z</time></trkpt><trkpt lat="46.022913754194" lon="11.9188967030198"><ele>290.0</ele><time>2026-04-07T10:32:17.002Z</time></trkpt><trkpt lat="46.02291993855333" lon="11.919091736071817"><ele>291.0</ele><time>2026-04-07T10:32:18.002Z</time></trkpt><trkpt lat="46.02292924570878" lon="11.919301236019015"><ele>291.75</ele><time>2026-04-07T10:32:19.002Z</time></trkpt><trkpt lat="46.02293897697352" lon="11.919513615614834"><ele>292.5</ele><time>2026-04-07T10:32:20.002Z</time></trkpt><trkpt lat="46.02294325853995" lon="11.919700886565018"><ele>293.25</ele><time>2026-04-07T10:32:21.002Z</time></trkpt><trkpt lat="46.02295232628057" lon="11.919861373536113"><ele>294.0</ele><time>2026-04-07T10:32:22.002Z</time></trkpt><trkpt lat="46.02295664288331" lon="11.919981500985806"><ele>293.8333333333333</ele><time>2026-04-07T10:32:23.002Z</time></trkpt><trkpt lat="46.022960962172505" lon="11.920073370109275"><ele>293.6666666666667</ele><time>2026-04-07T10:32:24.002Z</time></trkpt><trkpt lat="46.02296789719256" lon="11.920218264096386"><ele>293.5</ele><time>2026-04-07T10:32:26.002Z</time></trkpt><trkpt lat="46.02297440460873" lon="11.920384495699405"><ele>293.33333333333337</ele><time>2026-04-07T10:32:28.002Z</time></trkpt><trkpt lat="46.02298426788465" lon="11.920475631114131"><ele>293.1666666666667</ele><time>2026-04-07T10:32:29.002Z</time></trkpt><trkpt lat="46.02299027936291" lon="11.920611659627872"><ele>293.0</ele><time>2026-04-07T10:32:31.002Z</time></trkpt><trkpt lat="46.02299777510699" lon="11.920744874961258"><ele>292.6666666666667</ele><time>2026-04-07T10:32:33.002Z</time></trkpt><trkpt lat="46.02295846039879" lon="11.920899990771805"><ele>292.33333333333337</ele><time>2026-04-07T10:32:35.002Z</time></trkpt><trkpt lat="46.022917125767385" lon="11.920986010020671"><ele>292.0</ele><time>2026-04-07T10:32:36.002Z</time></trkpt><trkpt lat="46.0228656656644" lon="11.921081682836036"><ele>291.6666666666667</ele><time>2026-04-07T10:32:37.002Z</time></trkpt><trkpt lat="46.02282700173231" lon="11.92116967757644"><ele>291.3333333333333</ele><time>2026-04-07T10:32:38Z</time></trkpt><trkpt lat="46.022808839225966" lon="11.921265220142867"><ele>291.0</ele><time>2026-04-07T10:32:39Z</time></trkpt><trkpt lat="46.02281141318289" lon="11.921365785975757"><ele>291.0</ele><time>2026-04-07T10:32:40Z</time></trkpt><trkpt lat="46.02283465701589" lon="11.921469536808027"><ele>291.0</ele><time>2026-04-07T10:32:41Z</time></trkpt><trkpt lat="46.02288884034202" lon="11.92158796863129"><ele>291.0</ele><time>2026-04-07T10:32:42Z</time></trkpt><trkpt lat="46.02295135234147" lon="11.921698666045616"><ele>291.0</ele><time>2026-04-07T10:32:43Z</time></trkpt><trkpt lat="46.02301069067558" lon="11.921792960276765"><ele>291.0</ele><time>2026-04-07T10:32:44Z</time></trkpt><trkpt lat="46.023075210364844" lon="11.92189191182305"><ele>291.5</ele><time>2026-04-07T10:32:45Z</time></trkpt><trkpt lat="46.0231355561921" lon="11.922003673327566"><ele>292.0</ele><time>2026-04-07T10:32:46Z</time></trkpt><trkpt lat="46.023198807187946" lon="11.92214693910414"><ele>292.5</ele><time>2026-04-07T10:32:47Z</time></trkpt><trkpt lat="46.02327344261296" lon="11.922334367761971"><ele>293.0</ele><time>2026-04-07T10:32:48Z</time></trkpt><trkpt lat="46.023332749291775" lon="11.922504855790672"><ele>293.4</ele><time>2026-04-07T10:32:49Z</time></trkpt><trkpt lat="46.023384490921444" lon="11.922656928616892"><ele>293.8</ele><time>2026-04-07T10:32:50Z</time></trkpt><trkpt lat="46.023426748836485" lon="11.92277805924289"><ele>294.2</ele><time>2026-04-07T10:32:51Z</time></trkpt><trkpt lat="46.02346480922316" lon="11.922880723723823"><ele>294.6</ele><time>2026-04-07T10:32:52Z</time></trkpt><trkpt lat="46.02350553287489" lon="11.92298706363759"><ele>295.0</ele><time>2026-04-07T10:32:53Z</time></trkpt><trkpt lat="46.02356274140953" lon="11.923108159742759"><ele>295.0</ele><time>2026-04-07T10:32:54Z</time></trkpt><trkpt lat="46.023644727354366" lon="11.923250747298756"><ele>295.0</ele><time>2026-04-07T10:32:55Z</time></trkpt><trkpt lat="46.02373179265058" lon="11.923428035795117"><ele>295.0</ele><time>2026-04-07T10:32:56Z</time></trkpt><trkpt lat="46.02380742976551" lon="11.923604220265686"><ele>295.0</ele><time>2026-04-07T10:32:57Z</time></trkpt><trkpt lat="46.02388405447792" lon="11.923773455783337"><ele>295.5</ele><time>2026-04-07T10:32:58Z</time></trkpt><trkpt lat="46.02397240590297" lon="11.923946898416064"><ele>296.0</ele><time>2026-04-07T10:32:59Z</time></trkpt><trkpt lat="46.02406125211365" lon="11.924119208737181"><ele>296.5</ele><time>2026-04-07T10:33:00Z</time></trkpt><trkpt lat="46.024142883109675" lon="11.924267986506788"><ele>297.0</ele><time>2026-04-07T10:33:01Z</time></trkpt><trkpt lat="46.02422240567481" lon="11.924405777191867"><ele>297.0</ele><time>2026-04-07T10:33:02Z</time></trkpt><trkpt lat="46.024303142151986" lon="11.924539778200055"><ele>297.0</ele><time>2026-04-07T10:33:03Z</time></trkpt><trkpt lat="46.02438603833257" lon="11.924677359929841"><ele>297.0</ele><time>2026-04-07T10:33:04Z</time></trkpt><trkpt lat="46.02446981315816" lon="11.92482174053918"><ele>297.0</ele><time>2026-04-07T10:33:05Z</time></trkpt><trkpt lat="46.0245614050122" lon="11.924963177638706"><ele>298.0</ele><time>2026-04-07T10:33:06Z</time></trkpt><trkpt lat="46.02466071845618" lon="11.925130225740235"><ele>299.0</ele><time>2026-04-07T10:33:07Z</time></trkpt><trkpt lat="46.02476496323406" lon="11.925324296700072"><ele>300.0</ele><time>2026-04-07T10:33:08Z</time></trkpt><trkpt lat="46.02485950664027" lon="11.92553221089518"><ele>300.0</ele><time>2026-04-07T10:33:09Z</time></trkpt><trkpt lat="46.02494380391817" lon="11.925736525925187"><ele>300.0</ele><time>2026-04-07T10:33:10Z</time></trkpt><trkpt lat="46.025017304401786" lon="11.925918900896757"><ele>300.0</ele><time>2026-04-07T10:33:11Z</time></trkpt><trkpt lat="46.025083544070334" lon="11.926085739176711"><ele>300.0</ele><time>2026-04-07T10:33:12Z</time></trkpt><trkpt lat="46.025143677523104" lon="11.926241177465954"><ele>299.8</ele><time>2026-04-07T10:33:13Z</time></trkpt><trkpt lat="46.02519864173982" lon="11.926389863004736"><ele>299.6</ele><time>2026-04-07T10:33:14Z</time></trkpt><trkpt lat="46.02524597345591" lon="11.926520629612805"><ele>299.4</ele><time>2026-04-07T10:33:15Z</time></trkpt><trkpt lat="46.02529149408986" lon="11.926634187781488"><ele>299.2</ele><time>2026-04-07T10:33:16Z</time></trkpt><trkpt lat="46.02534354062322" lon="11.926754234443386"><ele>299.0</ele><time>2026-04-07T10:33:17Z</time></trkpt><trkpt lat="46.02539220820637" lon="11.926933385624281"><ele>300.33333333333337</ele><time>2026-04-07T10:33:18Z</time></trkpt><trkpt lat="46.02545564933661" lon="11.927139706241306"><ele>301.6666666666667</ele><time>2026-04-07T10:33:19Z</time></trkpt><trkpt lat="46.02554827353745" lon="11.927378903287094"><ele>303.0</ele><time>2026-04-07T10:33:20Z</time></trkpt><trkpt lat="46.02561475836253" lon="11.92761923932467"><ele>302.3333333333333</ele><time>2026-04-07T10:33:21Z</time></trkpt><trkpt lat="46.02569844507916" lon="11.927900798607784"><ele>301.66666666666663</ele><time>2026-04-07T10:33:22Z</time></trkpt><trkpt lat="46.02579360753254" lon="11.928199657256938"><ele>301.0</ele><time>2026-04-07T10:33:23Z</time></trkpt><trkpt lat="46.02589001229152" lon="11.928491645138077"><ele>301.0</ele><time>2026-04-07T10:33:24Z</time></trkpt><trkpt lat="46.02599101931271" lon="11.928818219042506"><ele>301.0</ele><time>2026-04-07T10:33:25Z</time></trkpt><trkpt lat="46.02607908355246" lon="11.92912806422446"><ele>303.3333333333333</ele><time>2026-04-07T10:33:26Z</time></trkpt><trkpt lat="46.0261603761003" lon="11.929422984661807"><ele>305.6666666666667</ele><time>2026-04-07T10:33:27Z</time></trkpt><trkpt lat="46.02623541853279" lon="11.929716950734885"><ele>308.0</ele><time>2026-04-07T10:33:28Z</time></trkpt><trkpt lat="46.026309004838" lon="11.930026707432296"><ele>310.5</ele><time>2026-04-07T10:33:29Z</time></trkpt><trkpt lat="46.02637701687439" lon="11.930356142059647"><ele>313.0</ele><time>2026-04-07T10:33:30Z</time></trkpt><trkpt lat="46.02644063567779" lon="11.930697844052675"><ele>315.5</ele><time>2026-04-07T10:33:31Z</time></trkpt><trkpt lat="46.02649293350883" lon="11.931033725908406"><ele>318.0</ele><time>2026-04-07T10:33:32Z</time></trkpt><trkpt lat="46.026537206495" lon="11.931380363063742"><ele>318.5</ele><time>2026-04-07T10:33:33Z</time></trkpt><trkpt lat="46.02657205968559" lon="11.931740932415114"><ele>319.0</ele><time>2026-04-07T10:33:34Z</time></trkpt><trkpt lat="46.02659993189208" lon="11.932111778339836"><ele>319.0</ele><time>2026-04-07T10:33:35.001Z</time></trkpt><trkpt lat="46.02662354631644" lon="11.932496113414226"><ele>319.0</ele><time>2026-04-07T10:33:36.001Z</time></trkpt><trkpt lat="46.02664183278945" lon="11.932880218810071"><ele>312.5</ele><time>2026-04-07T10:33:37.001Z</time></trkpt><trkpt lat="46.0266605815627" lon="11.933236000616036"><ele>306.0</ele><time>2026-04-07T10:33:38.001Z</time></trkpt><trkpt lat="46.026681865235794" lon="11.933575381091938"><ele>306.0</ele><time>2026-04-07T10:33:39.001Z</time></trkpt><trkpt lat="46.026706197228684" lon="11.93391047798282"><ele>306.0</ele><time>2026-04-07T10:33:40.001Z</time></trkpt><trkpt lat="46.02673357421869" lon="11.934239708040609"><ele>307.0</ele><time>2026-04-07T10:33:41.001Z</time></trkpt><trkpt lat="46.026768769157655" lon="11.934565949901742"><ele>308.0</ele><time>2026-04-07T10:33:42.001Z</time></trkpt><trkpt lat="46.026811674692986" lon="11.934887919218138"><ele>308.0</ele><time>2026-04-07T10:33:43.001Z</time></trkpt><trkpt lat="46.026864541728656" lon="11.935210690780274"><ele>308.0</ele><time>2026-04-07T10:33:44.001Z</time></trkpt><trkpt lat="46.02692597730485" lon="11.935548091192665"><ele>311.5</ele><time>2026-04-07T10:33:45.001Z</time></trkpt><trkpt lat="46.02699220571271" lon="11.935901318563797"><ele>315.0</ele><time>2026-04-07T10:33:46.001Z</time></trkpt><trkpt lat="46.02705674676465" lon="11.936240488630487"><ele>315.0</ele><time>2026-04-07T10:33:47.001Z</time></trkpt><trkpt lat="46.0271192724575" lon="11.936564688756489"><ele>315.0</ele><time>2026-04-07T10:33:48.001Z</time></trkpt><trkpt lat="46.02717939396485" lon="11.93686715875009"><ele>315.3333333333333</ele><time>2026-04-07T10:33:49.001Z</time></trkpt><trkpt lat="46.02723327843585" lon="11.937155854826372"><ele>315.66666666666663</ele><time>2026-04-07T10:33:50.001Z</time></trkpt><trkpt lat="46.02728546839169" lon="11.93743161508684"><ele>316.0</ele><time>2026-04-07T10:33:51.001Z</time></trkpt><trkpt lat="46.02733783477441" lon="11.937705778615625"><ele>314.66666666666663</ele><time>2026-04-07T10:33:52.001Z</time></trkpt><trkpt lat="46.027389884726155" lon="11.937979023438086"><ele>313.3333333333333</ele><time>2026-04-07T10:33:53.001Z</time></trkpt><trkpt lat="46.027439939317894" lon="11.938237915685736"><ele>312.0</ele><time>2026-04-07T10:33:54.001Z</time></trkpt><trkpt lat="46.027489556515626" lon="11.938480003996474"><ele>309.6666666666667</ele><time>2026-04-07T10:33:55.001Z</time></trkpt><trkpt lat="46.0275395034536" lon="11.938709320831098"><ele>307.33333333333337</ele><time>2026-04-07T10:33:56.001Z</time></trkpt><trkpt lat="46.027591698991024" lon="11.938924913227535"><ele>305.0</ele><time>2026-04-07T10:33:57.001Z</time></trkpt><trkpt lat="46.02765031043983" lon="11.939140425998664"><ele>305.0</ele><time>2026-04-07T10:33:58.001Z</time></trkpt><trkpt lat="46.027714623413786" lon="11.939370028889654"><ele>305.0</ele><time>2026-04-07T10:33:59.001Z</time></trkpt><trkpt lat="46.027778508027346" lon="11.939586197509703"><ele>305.0</ele><time>2026-04-07T10:34:00.001Z</time></trkpt><trkpt lat="46.02783631583003" lon="11.939786915291862"><ele>305.0</ele><time>2026-04-07T10:34:01.001Z</time></trkpt><trkpt lat="46.02789063169002" lon="11.93997892737854"><ele>305.0</ele><time>2026-04-07T10:34:02.001Z</time></trkpt><trkpt lat="46.02794489859205" lon="11.940176425782376"><ele>305.0</ele><time>2026-04-07T10:34:03.001Z</time></trkpt><trkpt lat="46.02800223216171" lon="11.940380749652451"><ele>305.0</ele><time>2026-04-07T10:34:04.001Z</time></trkpt><trkpt lat="46.028063311408246" lon="11.940588600164777"><ele>306.6666666666667</ele><time>2026-04-07T10:34:05.001Z</time></trkpt><trkpt lat="46.02812844882047" lon="11.940798628354633"><ele>308.3333333333333</ele><time>2026-04-07T10:34:06.001Z</time></trkpt><trkpt lat="46.02818936636264" lon="11.94100605199454"><ele>310.0</ele><time>2026-04-07T10:34:07.001Z</time></trkpt><trkpt lat="46.02824716454895" lon="11.941206516728506"><ele>310.25</ele><time>2026-04-07T10:34:08.001Z</time></trkpt><trkpt lat="46.02830491998307" lon="11.941404857382398"><ele>310.5</ele><time>2026-04-07T10:34:09.001Z</time></trkpt><trkpt lat="46.02835982948524" lon="11.941598438795072"><ele>310.75</ele><time>2026-04-07T10:34:10.001Z</time></trkpt><trkpt lat="46.028415757822366" lon="11.941792110961421"><ele>311.0</ele><time>2026-04-07T10:34:11.001Z</time></trkpt><trkpt lat="46.028469843106365" lon="11.941988169076913"><ele>312.0</ele><time>2026-04-07T10:34:12.001Z</time></trkpt><trkpt lat="46.02852141301311" lon="11.942172948999477"><ele>313.0</ele><time>2026-04-07T10:34:13.001Z</time></trkpt><trkpt lat="46.028568129026795" lon="11.942337302862695"><ele>314.0</ele><time>2026-04-07T10:34:14.001Z</time></trkpt><trkpt lat="46.028612817956954" lon="11.942492505366449"><ele>315.0</ele><time>2026-04-07T10:34:15.001Z</time></trkpt><trkpt lat="46.028658505733986" lon="11.94265115672527"><ele>315.0</ele><time>2026-04-07T10:34:16.001Z</time></trkpt><trkpt lat="46.028706021371164" lon="11.942818852941592"><ele>315.0</ele><time>2026-04-07T10:34:17.001Z</time></trkpt><trkpt lat="46.02875620419448" lon="11.942984266285944"><ele>315.0</ele><time>2026-04-07T10:34:18.001Z</time></trkpt><trkpt lat="46.02880116712268" lon="11.94313788874733"><ele>315.0</ele><time>2026-04-07T10:34:19.001Z</time></trkpt><trkpt lat="46.02884438465958" lon="11.94328832756146"><ele>315.5</ele><time>2026-04-07T10:34:20.001Z</time></trkpt><trkpt lat="46.02889003503999" lon="11.94344552500474"><ele>316.0</ele><time>2026-04-07T10:34:21.001Z</time></trkpt><trkpt lat="46.02893606907413" lon="11.943609289806256"><ele>316.5</ele><time>2026-04-07T10:34:22.001Z</time></trkpt><trkpt lat="46.02898287894414" lon="11.9437828483057"><ele>317.0</ele><time>2026-04-07T10:34:23.001Z</time></trkpt><trkpt lat="46.02903325955294" lon="11.943959451408617"><ele>317.0</ele><time>2026-04-07T10:34:24.001Z</time></trkpt><trkpt lat="46.029083711506715" lon="11.944141470312706"><ele>317.0</ele><time>2026-04-07T10:34:25.001Z</time></trkpt><trkpt lat="46.029136165075066" lon="11.944327412590408"><ele>317.0</ele><time>2026-04-07T10:34:26.001Z</time></trkpt><trkpt lat="46.02918421181087" lon="11.944518100614712"><ele>317.0</ele><time>2026-04-07T10:34:27.001Z</time></trkpt><trkpt lat="46.02923263277728" lon="11.944720367000713"><ele>316.33333333333337</ele><time>2026-04-07T10:34:28.001Z</time></trkpt><trkpt lat="46.02928609155004" lon="11.944951398275443"><ele>315.6666666666667</ele><time>2026-04-07T10:34:29.001Z</time></trkpt><trkpt lat="46.029341296436876" lon="11.945200077210222"><ele>315.0</ele><time>2026-04-07T10:34:30.001Z</time></trkpt><trkpt lat="46.02939260492383" lon="11.945447931330353"><ele>314.6666666666667</ele><time>2026-04-07T10:34:31.001Z</time></trkpt><trkpt lat="46.02944489156702" lon="11.945706167837532"><ele>314.33333333333337</ele><time>2026-04-07T10:34:32.001Z</time></trkpt><trkpt lat="46.02950498169001" lon="11.946002765133631"><ele>314.0</ele><time>2026-04-07T10:34:33.001Z</time></trkpt><trkpt lat="46.02956732580368" lon="11.946321345055685"><ele>314.0</ele><time>2026-04-07T10:34:34.001Z</time></trkpt><trkpt lat="46.02961605139085" lon="11.946613926147716"><ele>314.0</ele><time>2026-04-07T10:34:35.001Z</time></trkpt><trkpt lat="46.02965582730677" lon="11.946854832427828"><ele>314.0</ele><time>2026-04-07T10:34:36.001Z</time></trkpt><trkpt lat="46.029692779384995" lon="11.947070003093534"><ele>313.75</ele><time>2026-04-07T10:34:37.001Z</time></trkpt><trkpt lat="46.02972875058444" lon="11.947278328572954"><ele>313.5</ele><time>2026-04-07T10:34:38.001Z</time></trkpt><trkpt lat="46.02976491840012" lon="11.94747769451501"><ele>313.25</ele><time>2026-04-07T10:34:39.001Z</time></trkpt><trkpt lat="46.02980013128885" lon="11.947669224964818"><ele>313.0</ele><time>2026-04-07T10:34:40.001Z</time></trkpt><trkpt lat="46.02983455585255" lon="11.947855642754439"><ele>312.75</ele><time>2026-04-07T10:34:41.001Z</time></trkpt><trkpt lat="46.02987114777181" lon="11.948047167610339"><ele>312.5</ele><time>2026-04-07T10:34:42.001Z</time></trkpt><trkpt lat="46.02990605661016" lon="11.948241459158567"><ele>312.25</ele><time>2026-04-07T10:34:43.001Z</time></trkpt><trkpt lat="46.02994169663963" lon="11.948434791720093"><ele>312.0</ele><time>2026-04-07T10:34:44Z</time></trkpt><trkpt lat="46.02997649331945" lon="11.948617073059866"><ele>312.0</ele><time>2026-04-07T10:34:45Z</time></trkpt><trkpt lat="46.03000916202763" lon="11.948793591989993"><ele>312.0</ele><time>2026-04-07T10:34:46Z</time></trkpt><trkpt lat="46.03004231671723" lon="11.948975997964451"><ele>312.0</ele><time>2026-04-07T10:34:47Z</time></trkpt><trkpt lat="46.030074636817126" lon="11.949167128967003"><ele>312.0</ele><time>2026-04-07T10:34:48Z</time></trkpt><trkpt lat="46.03010857291401" lon="11.949358507224078"><ele>311.25</ele><time>2026-04-07T10:34:49Z</time></trkpt><trkpt lat="46.030146015583455" lon="11.949555488906745"><ele>310.5</ele><time>2026-04-07T10:34:50Z</time></trkpt><trkpt lat="46.03018379667379" lon="11.94975371349356"><ele>309.75</ele><time>2026-04-07T10:34:51Z</time></trkpt><trkpt lat="46.03022423849991" lon="11.94995882641454"><ele>309.0</ele><time>2026-04-07T10:34:52Z</time></trkpt><trkpt lat="46.03026395953963" lon="11.9501672848543"><ele>308.3333333333333</ele><time>2026-04-07T10:34:53Z</time></trkpt><trkpt lat="46.03030208727005" lon="11.950377528846216"><ele>307.66666666666663</ele><time>2026-04-07T10:34:54Z</time></trkpt><trkpt lat="46.030339577742936" lon="11.950592233591143"><ele>307.0</ele><time>2026-04-07T10:34:55Z</time></trkpt><trkpt lat="46.03038014674915" lon="11.95081192311319"><ele>307.0</ele><time>2026-04-07T10:34:56Z</time></trkpt><trkpt lat="46.03042125792535" lon="11.95103277959628"><ele>307.0</ele><time>2026-04-07T10:34:57Z</time></trkpt><trkpt lat="46.03046183678063" lon="11.951247744556282"><ele>307.0</ele><time>2026-04-07T10:34:58Z</time></trkpt><trkpt lat="46.030500350901995" lon="11.951453487994932"><ele>307.0</ele><time>2026-04-07T10:34:59Z</time></trkpt><trkpt lat="46.030533841590746" lon="11.951649636017265"><ele>307.0</ele><time>2026-04-07T10:35:00Z</time></trkpt><trkpt lat="46.0305648839231" lon="11.951848752163343"><ele>307.0</ele><time>2026-04-07T10:35:01Z</time></trkpt><trkpt lat="46.03059562551883" lon="11.952053921286138"><ele>307.0</ele><time>2026-04-07T10:35:02Z</time></trkpt><trkpt lat="46.03062637824797" lon="11.952258944361697"><ele>306.25</ele><time>2026-04-07T10:35:03Z</time></trkpt><trkpt lat="46.030649922659954" lon="11.952449980411421"><ele>305.5</ele><time>2026-04-07T10:35:04Z</time></trkpt><trkpt lat="46.03067090311114" lon="11.9526325323776"><ele>304.75</ele><time>2026-04-07T10:35:05Z</time></trkpt><trkpt lat="46.03069157514357" lon="11.952810853065625"><ele>304.0</ele><time>2026-04-07T10:35:06Z</time></trkpt><trkpt lat="46.03071174010036" lon="11.952983179684342"><ele>303.75</ele><time>2026-04-07T10:35:07Z</time></trkpt><trkpt lat="46.03073121235735" lon="11.953158740431473"><ele>303.5</ele><time>2026-04-07T10:35:08Z</time></trkpt><trkpt lat="46.03074965955296" lon="11.953336770209592"><ele>303.25</ele><time>2026-04-07T10:35:09Z</time></trkpt><trkpt lat="46.030767192689716" lon="11.953515810386255"><ele>303.0</ele><time>2026-04-07T10:35:10Z</time></trkpt><trkpt lat="46.03078422555995" lon="11.953696148125761"><ele>303.0</ele><time>2026-04-07T10:35:11Z</time></trkpt><trkpt lat="46.03080231870983" lon="11.953875581260254"><ele>303.0</ele><time>2026-04-07T10:35:12Z</time></trkpt><trkpt lat="46.03081825438819" lon="11.954030155455866"><ele>303.0</ele><time>2026-04-07T10:35:13Z</time></trkpt><trkpt lat="46.030830358199" lon="11.954149931069937"><ele>303.0</ele><time>2026-04-07T10:35:14Z</time></trkpt><trkpt lat="46.030843161022" lon="11.954261030569464"><ele>303.0</ele><time>2026-04-07T10:35:15Z</time></trkpt><trkpt lat="46.030853345252694" lon="11.95436115758466"><ele>302.0</ele><time>2026-04-07T10:35:16Z</time></trkpt><trkpt lat="46.03086165072306" lon="11.954453079919933"><ele>301.0</ele><time>2026-04-07T10:35:17Z</time></trkpt><trkpt lat="46.03086900327689" lon="11.954552166266756"><ele>300.0</ele><time>2026-04-07T10:35:18Z</time></trkpt><trkpt lat="46.03088279502303" lon="11.954690341840466"><ele>299.0</ele><time>2026-04-07T10:35:19Z</time></trkpt><trkpt lat="46.03090426062981" lon="11.954891793018119"><ele>298.0</ele><time>2026-04-07T10:35:20Z</time></trkpt><trkpt lat="46.0309195433944" lon="11.955080791308886"><ele>297.75</ele><time>2026-04-07T10:35:21Z</time></trkpt><trkpt lat="46.030938222484735" lon="11.955247966521522"><ele>297.5</ele><time>2026-04-07T10:35:22Z</time></trkpt><trkpt lat="46.03095002895542" lon="11.955420330625511"><ele>297.25</ele><time>2026-04-07T10:35:23Z</time></trkpt><trkpt lat="46.030969127263205" lon="11.955625500557247"><ele>297.0</ele><time>2026-04-07T10:35:24Z</time></trkpt><trkpt lat="46.030992038258816" lon="11.955834116717233"><ele>296.6666666666667</ele><time>2026-04-07T10:35:25Z</time></trkpt><trkpt lat="46.031001220066265" lon="11.956074905323032"><ele>296.33333333333337</ele><time>2026-04-07T10:35:26Z</time></trkpt><trkpt lat="46.03102691777558" lon="11.956344646365528"><ele>296.0</ele><time>2026-04-07T10:35:27Z</time></trkpt><trkpt lat="46.03105435356113" lon="11.956632631395307"><ele>295.0</ele><time>2026-04-07T10:35:28Z</time></trkpt><trkpt lat="46.03107892021005" lon="11.956890500015875"><ele>294.0</ele><time>2026-04-07T10:35:29Z</time></trkpt><trkpt lat="46.03110208906207" lon="11.957133696386485"><ele>293.0</ele><time>2026-04-07T10:35:30Z</time></trkpt><trkpt lat="46.031137802645574" lon="11.957346845159993"><ele>293.0</ele><time>2026-04-07T10:35:31Z</time></trkpt><trkpt lat="46.03114908588424" lon="11.957534097576138"><ele>293.0</ele><time>2026-04-07T10:35:32Z</time></trkpt><trkpt lat="46.031164672257766" lon="11.957713835494252"><ele>293.0</ele><time>2026-04-07T10:35:33Z</time></trkpt><trkpt lat="46.03118100069733" lon="11.957882906812792"><ele>293.0</ele><time>2026-04-07T10:35:34Z</time></trkpt><trkpt lat="46.031194081086284" lon="11.95804292444556"><ele>292.5</ele><time>2026-04-07T10:35:35Z</time></trkpt><trkpt lat="46.03121090898545" lon="11.958216878124603"><ele>292.0</ele><time>2026-04-07T10:35:36Z</time></trkpt><trkpt lat="46.031234174560254" lon="11.958416916435926"><ele>291.5</ele><time>2026-04-07T10:35:37Z</time></trkpt><trkpt lat="46.03126097776166" lon="11.95862059065314"><ele>291.0</ele><time>2026-04-07T10:35:38Z</time></trkpt><trkpt lat="46.03127759071429" lon="11.95882719958428"><ele>290.75</ele><time>2026-04-07T10:35:39Z</time></trkpt><trkpt lat="46.03128992063283" lon="11.95902808707297"><ele>290.5</ele><time>2026-04-07T10:35:40Z</time></trkpt><trkpt lat="46.03130456036581" lon="11.959211371229301"><ele>290.25</ele><time>2026-04-07T10:35:41Z</time></trkpt><trkpt lat="46.03132109788511" lon="11.959365029796938"><ele>290.0</ele><time>2026-04-07T10:35:42Z</time></trkpt><trkpt lat="46.0313344465801" lon="11.959477831896505"><ele>289.7142857142857</ele><time>2026-04-07T10:35:43Z</time></trkpt><trkpt lat="46.03134211868101" lon="11.959579794426856"><ele>289.42857142857144</ele><time>2026-04-07T10:35:44Z</time></trkpt><trkpt lat="46.03133948793434" lon="11.959676057034518"><ele>289.14285714285717</ele><time>2026-04-07T10:35:45Z</time></trkpt><trkpt lat="46.03132962390331" lon="11.959767439022166"><ele>288.8571428571429</ele><time>2026-04-07T10:35:46Z</time></trkpt><trkpt lat="46.03130722148631" lon="11.959856942880682"><ele>288.57142857142856</ele><time>2026-04-07T10:35:47Z</time></trkpt><trkpt lat="46.0312816686035" lon="11.959941944827511"><ele>288.28571428571433</ele><time>2026-04-07T10:35:48Z</time></trkpt><trkpt lat="46.03128698604237" lon="11.9600341617574"><ele>288.0</ele><time>2026-04-07T10:35:49Z</time></trkpt><trkpt lat="46.03131551072516" lon="11.960129141328895"><ele>287.8</ele><time>2026-04-07T10:35:50Z</time></trkpt><trkpt lat="46.031361744674484" lon="11.96023495277443"><ele>287.6</ele><time>2026-04-07T10:35:51.001Z</time></trkpt><trkpt lat="46.031400456503015" lon="11.960366722251665"><ele>287.4</ele><time>2026-04-07T10:35:52.001Z</time></trkpt><trkpt lat="46.03141457662478" lon="11.960515841556582"><ele>287.2</ele><time>2026-04-07T10:35:53.001Z</time></trkpt><trkpt lat="46.03143140729993" lon="11.96068869271334"><ele>287.0</ele><time>2026-04-07T10:35:54.001Z</time></trkpt><trkpt lat="46.03145325420319" lon="11.960868221271275"><ele>286.5</ele><time>2026-04-07T10:35:55.001Z</time></trkpt><trkpt lat="46.03147160855485" lon="11.961026857147639"><ele>286.0</ele><time>2026-04-07T10:35:56.001Z</time></trkpt><trkpt lat="46.031486383261324" lon="11.961193342720266"><ele>285.5</ele><time>2026-04-07T10:35:57.001Z</time></trkpt><trkpt lat="46.031498249371786" lon="11.961370791785356"><ele>285.0</ele><time>2026-04-07T10:35:58.001Z</time></trkpt><trkpt lat="46.031516959845035" lon="11.9615574351831"><ele>285.25</ele><time>2026-04-07T10:35:59.001Z</time></trkpt><trkpt lat="46.031540014872526" lon="11.961757631533427"><ele>285.5</ele><time>2026-04-07T10:36:00.001Z</time></trkpt><trkpt lat="46.03157276721559" lon="11.96197550603716"><ele>285.75</ele><time>2026-04-07T10:36:01.001Z</time></trkpt><trkpt lat="46.03161540687748" lon="11.962172453817686"><ele>286.0</ele><time>2026-04-07T10:36:02.001Z</time></trkpt><trkpt lat="46.03166925906391" lon="11.962362156837706"><ele>286.3333333333333</ele><time>2026-04-07T10:36:03.001Z</time></trkpt><trkpt lat="46.0317327125161" lon="11.96255470743737"><ele>286.6666666666667</ele><time>2026-04-07T10:36:04.001Z</time></trkpt><trkpt lat="46.03181416789932" lon="11.962740945274042"><ele>287.0</ele><time>2026-04-07T10:36:05.001Z</time></trkpt><trkpt lat="46.03191234344253" lon="11.96291810012607"><ele>287.0</ele><time>2026-04-07T10:36:06.001Z</time></trkpt><trkpt lat="46.03201405109196" lon="11.963090580005922"><ele>287.0</ele><time>2026-04-07T10:36:07.001Z</time></trkpt><trkpt lat="46.03210627506021" lon="11.963257724980272"><ele>287.0</ele><time>2026-04-07T10:36:08.001Z</time></trkpt><trkpt lat="46.03219380361867" lon="11.96341650940598"><ele>287.0</ele><time>2026-04-07T10:36:09.001Z</time></trkpt><trkpt lat="46.03228101962917" lon="11.963562962415951"><ele>286.25</ele><time>2026-04-07T10:36:10.001Z</time></trkpt><trkpt lat="46.032372178876344" lon="11.963708447029607"><ele>285.5</ele><time>2026-04-07T10:36:11.001Z</time></trkpt><trkpt lat="46.03246434084215" lon="11.9638626763418"><ele>284.75</ele><time>2026-04-07T10:36:12.001Z</time></trkpt><trkpt lat="46.03256038970108" lon="11.964022814257714"><ele>284.0</ele><time>2026-04-07T10:36:13.001Z</time></trkpt><trkpt lat="46.0326563068068" lon="11.964187034016044"><ele>281.0</ele><time>2026-04-07T10:36:14.001Z</time></trkpt><trkpt lat="46.03274932224998" lon="11.964358262339731"><ele>278.0</ele><time>2026-04-07T10:36:15.001Z</time></trkpt><trkpt lat="46.032837692303715" lon="11.96454304705587"><ele>275.0</ele><time>2026-04-07T10:36:16.001Z</time></trkpt><trkpt lat="46.03291626740706" lon="11.964737742150046"><ele>275.0</ele><time>2026-04-07T10:36:17.001Z</time></trkpt><trkpt lat="46.03298046053334" lon="11.964936713631142"><ele>275.0</ele><time>2026-04-07T10:36:18.001Z</time></trkpt><trkpt lat="46.03304093293242" lon="11.965128192274546"><ele>275.0</ele><time>2026-04-07T10:36:19.001Z</time></trkpt><trkpt lat="46.03309967754088" lon="11.965313841750683"><ele>275.0</ele><time>2026-04-07T10:36:20.001Z</time></trkpt><trkpt lat="46.033162103987266" lon="11.965510174659292"><ele>275.0</ele><time>2026-04-07T10:36:21.001Z</time></trkpt><trkpt lat="46.03322931146955" lon="11.965717539487077"><ele>275.0</ele><time>2026-04-07T10:36:22.001Z</time></trkpt><trkpt lat="46.03329933652072" lon="11.965939494977983"><ele>275.0</ele><time>2026-04-07T10:36:23.001Z</time></trkpt><trkpt lat="46.033363803135245" lon="11.9661698752183"><ele>275.0</ele><time>2026-04-07T10:36:24.001Z</time></trkpt><trkpt lat="46.03341632566197" lon="11.966393359386613"><ele>275.0</ele><time>2026-04-07T10:36:25.001Z</time></trkpt><trkpt lat="46.03345579074528" lon="11.966619191046217"><ele>275.0</ele><time>2026-04-07T10:36:26.001Z</time></trkpt><trkpt lat="46.03348627373263" lon="11.966865030767142"><ele>273.6666666666667</ele><time>2026-04-07T10:36:27.001Z</time></trkpt><trkpt lat="46.0335053479054" lon="11.967128403644503"><ele>272.3333333333333</ele><time>2026-04-07T10:36:28.001Z</time></trkpt><trkpt lat="46.033492933950825" lon="11.96741274690292"><ele>271.0</ele><time>2026-04-07T10:36:29.001Z</time></trkpt><trkpt lat="46.03348790646721" lon="11.967721088126817"><ele>269.3333333333333</ele><time>2026-04-07T10:36:30.001Z</time></trkpt><trkpt lat="46.03348155218943" lon="11.96802658210479"><ele>267.6666666666667</ele><time>2026-04-07T10:36:31.001Z</time></trkpt><trkpt lat="46.03348808956644" lon="11.968314575069027"><ele>266.0</ele><time>2026-04-07T10:36:32.001Z</time></trkpt><trkpt lat="46.033474524661806" lon="11.968583295412463"><ele>266.0</ele><time>2026-04-07T10:36:33.001Z</time></trkpt><trkpt lat="46.03346301633202" lon="11.968847989184233"><ele>266.0</ele><time>2026-04-07T10:36:34.001Z</time></trkpt><trkpt lat="46.03345670490974" lon="11.969112980380178"><ele>266.0</ele><time>2026-04-07T10:36:35.001Z</time></trkpt><trkpt lat="46.03346090429044" lon="11.969370722863212"><ele>266.0</ele><time>2026-04-07T10:36:36.001Z</time></trkpt><trkpt lat="46.03348155126114" lon="11.969621178210371"><ele>266.0</ele><time>2026-04-07T10:36:37.001Z</time></trkpt><trkpt lat="46.033519148561794" lon="11.969872919173149"><ele>266.0</ele><time>2026-04-07T10:36:38.001Z</time></trkpt><trkpt lat="46.033576301173674" lon="11.970121522452434"><ele>265.0</ele><time>2026-04-07T10:36:39.001Z</time></trkpt><trkpt lat="46.03365556751329" lon="11.97037895205989"><ele>264.0</ele><time>2026-04-07T10:36:40.001Z</time></trkpt><trkpt lat="46.033734292952204" lon="11.970664514434304"><ele>263.0</ele><time>2026-04-07T10:36:41.001Z</time></trkpt><trkpt lat="46.03384702757164" lon="11.97096966695548"><ele>262.5</ele><time>2026-04-07T10:36:42.001Z</time></trkpt><trkpt lat="46.03396991659873" lon="11.971295027341581"><ele>262.0</ele><time>2026-04-07T10:36:43.001Z</time></trkpt><trkpt lat="46.03409183211875" lon="11.971621324423266"><ele>263.5</ele><time>2026-04-07T10:36:44.001Z</time></trkpt><trkpt lat="46.03422548066045" lon="11.971976438481818"><ele>265.0</ele><time>2026-04-07T10:36:45.001Z</time></trkpt><trkpt lat="46.03435737145967" lon="11.972307419751797"><ele>264.5</ele><time>2026-04-07T10:36:46.001Z</time></trkpt><trkpt lat="46.034469305070964" lon="11.972612013041285"><ele>264.0</ele><time>2026-04-07T10:36:47.001Z</time></trkpt><trkpt lat="46.03457975531798" lon="11.972896701594866"><ele>264.0</ele><time>2026-04-07T10:36:48.001Z</time></trkpt><trkpt lat="46.034688795414155" lon="11.973165255608457"><ele>264.0</ele><time>2026-04-07T10:36:49.001Z</time></trkpt><trkpt lat="46.03479642422762" lon="11.973428363018941"><ele>264.0</ele><time>2026-04-07T10:36:50Z</time></trkpt><trkpt lat="46.03489624640391" lon="11.973674669186002"><ele>264.3333333333333</ele><time>2026-04-07T10:36:51Z</time></trkpt><trkpt lat="46.034991992001004" lon="11.973913450856957"><ele>264.66666666666663</ele><time>2026-04-07T10:36:52Z</time></trkpt><trkpt lat="46.03508666701174" lon="11.974146593534298"><ele>265.0</ele><time>2026-04-07T10:36:53Z</time></trkpt><trkpt lat="46.03517548758273" lon="11.974366002658394"><ele>264.0</ele><time>2026-04-07T10:36:54Z</time></trkpt><trkpt lat="46.035261733458434" lon="11.974578070223965"><ele>263.0</ele><time>2026-04-07T10:36:55Z</time></trkpt><trkpt lat="46.03535118746734" lon="11.974800011076592"><ele>262.0</ele><time>2026-04-07T10:36:56Z</time></trkpt><trkpt lat="46.03544479988283" lon="11.97502999280947"><ele>262.0</ele><time>2026-04-07T10:36:57Z</time></trkpt><trkpt lat="46.03553863792448" lon="11.975258107533325"><ele>262.0</ele><time>2026-04-07T10:36:58Z</time></trkpt><trkpt lat="46.03562491548032" lon="11.975466891583409"><ele>262.0</ele><time>2026-04-07T10:36:59Z</time></trkpt><trkpt lat="46.03570230060348" lon="11.975659624399928"><ele>262.0</ele><time>2026-04-07T10:37:00Z</time></trkpt><trkpt lat="46.03577856185572" lon="11.97584498315102"><ele>262.0</ele><time>2026-04-07T10:37:01Z</time></trkpt><trkpt lat="46.03585190738765" lon="11.976028904079026"><ele>262.0</ele><time>2026-04-07T10:37:02Z</time></trkpt><trkpt lat="46.03592232290501" lon="11.976206920710196"><ele>262.0</ele><time>2026-04-07T10:37:03Z</time></trkpt><trkpt lat="46.03599558038165" lon="11.976385127642322"><ele>261.0</ele><time>2026-04-07T10:37:04Z</time></trkpt><trkpt lat="46.0360708492478" lon="11.976571753930788"><ele>260.0</ele><time>2026-04-07T10:37:05Z</time></trkpt><trkpt lat="46.03614832158691" lon="11.976764412018811"><ele>259.0</ele><time>2026-04-07T10:37:06Z</time></trkpt><trkpt lat="46.03622539013729" lon="11.976954026678001"><ele>259.0</ele><time>2026-04-07T10:37:07Z</time></trkpt><trkpt lat="46.036301645748075" lon="11.97714356064158"><ele>259.0</ele><time>2026-04-07T10:37:08Z</time></trkpt><trkpt lat="46.03637874831239" lon="11.977332505516655"><ele>259.0</ele><time>2026-04-07T10:37:09Z</time></trkpt><trkpt lat="46.03645849619009" lon="11.97752502437528"><ele>258.3333333333333</ele><time>2026-04-07T10:37:10Z</time></trkpt><trkpt lat="46.03653684256567" lon="11.97771763238779"><ele>257.6666666666667</ele><time>2026-04-07T10:37:11Z</time></trkpt><trkpt lat="46.036613913379796" lon="11.977912783433021"><ele>257.0</ele><time>2026-04-07T10:37:12Z</time></trkpt><trkpt lat="46.036693979585955" lon="11.978104617739305"><ele>257.0</ele><time>2026-04-07T10:37:13Z</time></trkpt><trkpt lat="46.036773708484134" lon="11.97829619687435"><ele>257.0</ele><time>2026-04-07T10:37:14Z</time></trkpt><trkpt lat="46.036853588406004" lon="11.978488805874772"><ele>257.0</ele><time>2026-04-07T10:37:15Z</time></trkpt><trkpt lat="46.03693068575442" lon="11.97867711261714"><ele>256.33333333333337</ele><time>2026-04-07T10:37:16Z</time></trkpt><trkpt lat="46.03701313442861" lon="11.978880012971716"><ele>255.66666666666669</ele><time>2026-04-07T10:37:17Z</time></trkpt><trkpt lat="46.03710781981749" lon="11.979101132361743"><ele>255.0</ele><time>2026-04-07T10:37:18Z</time></trkpt><trkpt lat="46.037196447925574" lon="11.97935592969841"><ele>255.0</ele><time>2026-04-07T10:37:19Z</time></trkpt><trkpt lat="46.03731094553484" lon="11.97959147039621"><ele>255.0</ele><time>2026-04-07T10:37:20Z</time></trkpt><trkpt lat="46.037410902360456" lon="11.979847661226101"><ele>255.0</ele><time>2026-04-07T10:37:21Z</time></trkpt><trkpt lat="46.03751226179435" lon="11.980108793022866"><ele>252.33333333333331</ele><time>2026-04-07T10:37:22Z</time></trkpt><trkpt lat="46.03761175101373" lon="11.980365993292267"><ele>249.66666666666666</ele><time>2026-04-07T10:37:23Z</time></trkpt><trkpt lat="46.03770948626961" lon="11.980617974350574"><ele>247.0</ele><time>2026-04-07T10:37:24Z</time></trkpt><trkpt lat="46.03780884671828" lon="11.980860892205367"><ele>247.0</ele><time>2026-04-07T10:37:25Z</time></trkpt><trkpt lat="46.03790062243505" lon="11.981078709582219"><ele>247.0</ele><time>2026-04-07T10:37:26Z</time></trkpt><trkpt lat="46.037978597321384" lon="11.981268408282537"><ele>247.0</ele><time>2026-04-07T10:37:27Z</time></trkpt><trkpt lat="46.03805488670069" lon="11.981454747136487"><ele>247.0</ele><time>2026-04-07T10:37:28Z</time></trkpt><trkpt lat="46.038129123412176" lon="11.98163315338446"><ele>247.0</ele><time>2026-04-07T10:37:29Z</time></trkpt><trkpt lat="46.03819727927753" lon="11.981797461081031"><ele>247.0</ele><time>2026-04-07T10:37:30Z</time></trkpt><trkpt lat="46.03825168684784" lon="11.981930921788289"><ele>247.0</ele><time>2026-04-07T10:37:31Z</time></trkpt><trkpt lat="46.03829537200512" lon="11.982037635075686"><ele>246.8</ele><time>2026-04-07T10:37:32Z</time></trkpt><trkpt lat="46.03833343290598" lon="11.982124123285262"><ele>246.6</ele><time>2026-04-07T10:37:33Z</time></trkpt><trkpt lat="46.03838258154204" lon="11.98222823329726"><ele>246.40000000000003</ele><time>2026-04-07T10:37:35Z</time></trkpt><trkpt lat="46.038422007111556" lon="11.982317790895967"><ele>246.20000000000002</ele><time>2026-04-07T10:37:37Z</time></trkpt><trkpt lat="46.038467387618155" lon="11.982434198864508"><ele>246.0</ele><time>2026-04-07T10:37:39Z</time></trkpt><trkpt lat="46.03852944140361" lon="11.982596092037506"><ele>246.0</ele><time>2026-04-07T10:37:41Z</time></trkpt><trkpt lat="46.038558375886005" lon="11.982776445304903"><ele>246.00000000000003</ele><time>2026-04-07T10:37:43Z</time></trkpt><trkpt lat="46.038550428058045" lon="11.982885936202365"><ele>246.00000000000003</ele><time>2026-04-07T10:37:44Z</time></trkpt><trkpt lat="46.038549159670666" lon="11.982998811310619"><ele>246.0</ele><time>2026-04-07T10:37:45Z</time></trkpt><trkpt lat="46.038574348194615" lon="11.983107099790882"><ele>246.0</ele><time>2026-04-07T10:37:46Z</time></trkpt><trkpt lat="46.03861765264974" lon="11.983219785688489"><ele>246.0</ele><time>2026-04-07T10:37:47Z</time></trkpt><trkpt lat="46.03867238839853" lon="11.983346394643354"><ele>246.00000000000003</ele><time>2026-04-07T10:37:48Z</time></trkpt><trkpt lat="46.03870924911133" lon="11.983482900369284"><ele>246.00000000000003</ele><time>2026-04-07T10:37:49Z</time></trkpt><trkpt lat="46.03873271616264" lon="11.983621165849542"><ele>246.0</ele><time>2026-04-07T10:37:50Z</time></trkpt><trkpt lat="46.03870817481913" lon="11.983787517219712"><ele>246.0</ele><time>2026-04-07T10:37:51Z</time></trkpt><trkpt lat="46.03869484111882" lon="11.983956192905836"><ele>246.0</ele><time>2026-04-07T10:37:52Z</time></trkpt><trkpt lat="46.038660574481305" lon="11.984137264574274"><ele>246.0</ele><time>2026-04-07T10:37:53Z</time></trkpt><trkpt lat="46.038600816785305" lon="11.984347884006592"><ele>246.0</ele><time>2026-04-07T10:37:54Z</time></trkpt><trkpt lat="46.03852967104079" lon="11.98454162484829"><ele>246.0</ele><time>2026-04-07T10:37:55Z</time></trkpt><trkpt lat="46.03845879891362" lon="11.984711405689719"><ele>245.0</ele><time>2026-04-07T10:37:56Z</time></trkpt><trkpt lat="46.03838760620197" lon="11.984888180544738"><ele>244.0</ele><time>2026-04-07T10:37:57Z</time></trkpt><trkpt lat="46.03831775273328" lon="11.98506829017711"><ele>243.0</ele><time>2026-04-07T10:37:58Z</time></trkpt><trkpt lat="46.03824211085263" lon="11.985255386960368"><ele>242.0</ele><time>2026-04-07T10:37:59Z</time></trkpt><trkpt lat="46.03816840397429" lon="11.985442471849924"><ele>242.0</ele><time>2026-04-07T10:38:00Z</time></trkpt><trkpt lat="46.0381028247471" lon="11.985627903389991"><ele>242.0</ele><time>2026-04-07T10:38:01.001Z</time></trkpt><trkpt lat="46.03805420738184" lon="11.98581831602436"><ele>242.0</ele><time>2026-04-07T10:38:02.001Z</time></trkpt><trkpt lat="46.03803045512484" lon="11.986024285875713"><ele>242.0</ele><time>2026-04-07T10:38:03.001Z</time></trkpt><trkpt lat="46.03802287204389" lon="11.986253047902785"><ele>239.0</ele><time>2026-04-07T10:38:04.001Z</time></trkpt><trkpt lat="46.03802679623583" lon="11.986505205641544"><ele>236.0</ele><time>2026-04-07T10:38:05.001Z</time></trkpt><trkpt lat="46.038027085816005" lon="11.98672099450089"><ele>233.0</ele><time>2026-04-07T10:38:06.001Z</time></trkpt><trkpt lat="46.03801866656637" lon="11.986940224231919"><ele>232.66666666666669</ele><time>2026-04-07T10:38:07.001Z</time></trkpt><trkpt lat="46.038011592931106" lon="11.987170783955968"><ele>232.33333333333331</ele><time>2026-04-07T10:38:08.001Z</time></trkpt><trkpt lat="46.03800626680196" lon="11.987396498467776"><ele>232.0</ele><time>2026-04-07T10:38:09.001Z</time></trkpt><trkpt lat="46.03800097485567" lon="11.987625800053781"><ele>232.66666666666666</ele><time>2026-04-07T10:38:10.001Z</time></trkpt><trkpt lat="46.03800054037224" lon="11.987859397221335"><ele>233.33333333333331</ele><time>2026-04-07T10:38:11.001Z</time></trkpt><trkpt lat="46.038013832205735" lon="11.988097982530812"><ele>234.0</ele><time>2026-04-07T10:38:12.001Z</time></trkpt><trkpt lat="46.038038108298196" lon="11.988312614206741"><ele>234.5</ele><time>2026-04-07T10:38:13.001Z</time></trkpt><trkpt lat="46.038070330628216" lon="11.988515534478259"><ele>235.0</ele><time>2026-04-07T10:38:14.001Z</time></trkpt><trkpt lat="46.038104202101636" lon="11.988705933046107"><ele>235.5</ele><time>2026-04-07T10:38:15.001Z</time></trkpt><trkpt lat="46.03813351944697" lon="11.988891040874083"><ele>236.0</ele><time>2026-04-07T10:38:16.001Z</time></trkpt><trkpt lat="46.03815869109173" lon="11.989078665177754"><ele>236.75</ele><time>2026-04-07T10:38:17.001Z</time></trkpt><trkpt lat="46.03818420329795" lon="11.989257499125692"><ele>237.5</ele><time>2026-04-07T10:38:18.001Z</time></trkpt><trkpt lat="46.03821046780831" lon="11.989427271025104"><ele>238.25</ele><time>2026-04-07T10:38:19.001Z</time></trkpt><trkpt lat="46.03823273351965" lon="11.989595293505587"><ele>239.0</ele><time>2026-04-07T10:38:20.001Z</time></trkpt><trkpt lat="46.03824850410405" lon="11.989777477430572"><ele>239.0</ele><time>2026-04-07T10:38:21.001Z</time></trkpt><trkpt lat="46.03825544768434" lon="11.98996285562481"><ele>239.0</ele><time>2026-04-07T10:38:22.001Z</time></trkpt><trkpt lat="46.03825259831445" lon="11.99013858059461"><ele>239.0</ele><time>2026-04-07T10:38:23.001Z</time></trkpt><trkpt lat="46.03824329055568" lon="11.99031187535923"><ele>239.0</ele><time>2026-04-07T10:38:24.001Z</time></trkpt><trkpt lat="46.038221675572075" lon="11.990493109866122"><ele>239.25</ele><time>2026-04-07T10:38:25.001Z</time></trkpt><trkpt lat="46.03820384774857" lon="11.990679583364061"><ele>239.5</ele><time>2026-04-07T10:38:26.001Z</time></trkpt><trkpt lat="46.0381891334535" lon="11.990857048497292"><ele>239.75</ele><time>2026-04-07T10:38:27.001Z</time></trkpt><trkpt lat="46.038170864236264" lon="11.991018956811432"><ele>240.0</ele><time>2026-04-07T10:38:28.001Z</time></trkpt><trkpt lat="46.038148034526756" lon="11.991179542771995"><ele>240.0</ele><time>2026-04-07T10:38:29.001Z</time></trkpt><trkpt lat="46.03812998288365" lon="11.991357605437502"><ele>240.0</ele><time>2026-04-07T10:38:30.001Z</time></trkpt><trkpt lat="46.03811371599051" lon="11.991552772504544"><ele>240.0</ele><time>2026-04-07T10:38:31.001Z</time></trkpt><trkpt lat="46.03809689727449" lon="11.99176056387955"><ele>240.0</ele><time>2026-04-07T10:38:32.001Z</time></trkpt><trkpt lat="46.03808445809167" lon="11.991974390480777"><ele>240.0</ele><time>2026-04-07T10:38:33.001Z</time></trkpt><trkpt lat="46.03806846859138" lon="11.992180939766932"><ele>240.0</ele><time>2026-04-07T10:38:34.001Z</time></trkpt><trkpt lat="46.038049432172265" lon="11.992376498596403"><ele>240.0</ele><time>2026-04-07T10:38:35.001Z</time></trkpt><trkpt lat="46.03802930498355" lon="11.992567525136062"><ele>240.0</ele><time>2026-04-07T10:38:36.001Z</time></trkpt><trkpt lat="46.03800955182311" lon="11.992765313890866"><ele>240.0</ele><time>2026-04-07T10:38:37.001Z</time></trkpt><trkpt lat="46.037989582470765" lon="11.992967219144333"><ele>240.0</ele><time>2026-04-07T10:38:38.001Z</time></trkpt><trkpt lat="46.03796814359696" lon="11.993163190597883"><ele>240.0</ele><time>2026-04-07T10:38:39.001Z</time></trkpt><trkpt lat="46.037946492874006" lon="11.99336443947196"><ele>240.0</ele><time>2026-04-07T10:38:40.001Z</time></trkpt><trkpt lat="46.0379188295259" lon="11.99356547118368"><ele>240.0</ele><time>2026-04-07T10:38:41.001Z</time></trkpt><trkpt lat="46.03789494657843" lon="11.993758854078994"><ele>240.0</ele><time>2026-04-07T10:38:42.001Z</time></trkpt><trkpt lat="46.03787822226674" lon="11.993951291517398"><ele>240.0</ele><time>2026-04-07T10:38:43.001Z</time></trkpt><trkpt lat="46.0378738512322" lon="11.994158198025145"><ele>240.0</ele><time>2026-04-07T10:38:44.001Z</time></trkpt><trkpt lat="46.03786996679264" lon="11.994378479416463"><ele>240.66666666666669</ele><time>2026-04-07T10:38:45.001Z</time></trkpt><trkpt lat="46.03785951587757" lon="11.994637531030941"><ele>241.33333333333334</ele><time>2026-04-07T10:38:46.001Z</time></trkpt><trkpt lat="46.03783998647071" lon="11.994930056698726"><ele>242.0</ele><time>2026-04-07T10:38:47.001Z</time></trkpt><trkpt lat="46.03780758688676" lon="11.995233074303272"><ele>242.0</ele><time>2026-04-07T10:38:48.001Z</time></trkpt><trkpt lat="46.037769353751564" lon="11.995544754464358"><ele>242.0</ele><time>2026-04-07T10:38:49.001Z</time></trkpt><trkpt lat="46.03774557680936" lon="11.995856948525237"><ele>242.0</ele><time>2026-04-07T10:38:50.001Z</time></trkpt><trkpt lat="46.03773618345532" lon="11.996192281303562"><ele>242.0</ele><time>2026-04-07T10:38:51.001Z</time></trkpt><trkpt lat="46.03773213731951" lon="11.996522043203823"><ele>242.0</ele><time>2026-04-07T10:38:52.001Z</time></trkpt><trkpt lat="46.03773160349152" lon="11.996853132769317"><ele>241.5</ele><time>2026-04-07T10:38:53.001Z</time></trkpt><trkpt lat="46.03773561547822" lon="11.997201151747246"><ele>241.0</ele><time>2026-04-07T10:38:54.001Z</time></trkpt><trkpt lat="46.037748041273254" lon="11.997545498095107"><ele>240.0</ele><time>2026-04-07T10:38:55.001Z</time></trkpt><trkpt lat="46.037774178654175" lon="11.997911166613799"><ele>239.0</ele><time>2026-04-07T10:38:56Z</time></trkpt><trkpt lat="46.0378116325198" lon="11.99828458074283"><ele>240.5</ele><time>2026-04-07T10:38:57Z</time></trkpt><trkpt lat="46.03785715924226" lon="11.998654938224634"><ele>242.0</ele><time>2026-04-07T10:38:58Z</time></trkpt><trkpt lat="46.0379007486981" lon="11.99899434415758"><ele>241.5</ele><time>2026-04-07T10:38:59Z</time></trkpt><trkpt lat="46.03795083557557" lon="11.999334536456326"><ele>241.0</ele><time>2026-04-07T10:39:00Z</time></trkpt><trkpt lat="46.03801006050796" lon="11.999673020364616"><ele>241.0</ele><time>2026-04-07T10:39:01Z</time></trkpt><trkpt lat="46.03807990166884" lon="12.00000193340989"><ele>241.0</ele><time>2026-04-07T10:39:02Z</time></trkpt><trkpt lat="46.0381635925363" lon="12.000321233786757"><ele>241.0</ele><time>2026-04-07T10:39:03Z</time></trkpt><trkpt lat="46.03826047593251" lon="12.000633608517616"><ele>241.0</ele><time>2026-04-07T10:39:04Z</time></trkpt><trkpt lat="46.038366976476375" lon="12.000934940980024"><ele>241.66666666666666</ele><time>2026-04-07T10:39:05Z</time></trkpt><trkpt lat="46.03847156969958" lon="12.00120872313181"><ele>242.33333333333331</ele><time>2026-04-07T10:39:06Z</time></trkpt><trkpt lat="46.038574654664636" lon="12.001466911149969"><ele>243.0</ele><time>2026-04-07T10:39:07Z</time></trkpt><trkpt lat="46.038661180527185" lon="12.001737384026638"><ele>243.0</ele><time>2026-04-07T10:39:08Z</time></trkpt><trkpt lat="46.03878907042316" lon="12.001941523186753"><ele>243.0</ele><time>2026-04-07T10:39:09Z</time></trkpt><trkpt lat="46.03890841725945" lon="12.002160366246372"><ele>243.0</ele><time>2026-04-07T10:39:10Z</time></trkpt><trkpt lat="46.03904471045147" lon="12.002390473743844"><ele>243.0</ele><time>2026-04-07T10:39:11Z</time></trkpt><trkpt lat="46.039179916568706" lon="12.002616847946031"><ele>243.0</ele><time>2026-04-07T10:39:12Z</time></trkpt><trkpt lat="46.039314291402434" lon="12.002834125039717"><ele>243.0</ele><time>2026-04-07T10:39:13Z</time></trkpt><trkpt lat="46.03944556314133" lon="12.003050102344307"><ele>243.0</ele><time>2026-04-07T10:39:14Z</time></trkpt><trkpt lat="46.03957422707083" lon="12.003265773501123"><ele>243.0</ele><time>2026-04-07T10:39:15Z</time></trkpt><trkpt lat="46.0396993397077" lon="12.003487139480866"><ele>243.0</ele><time>2026-04-07T10:39:16Z</time></trkpt><trkpt lat="46.039819809916786" lon="12.003714380847013"><ele>243.0</ele><time>2026-04-07T10:39:17Z</time></trkpt><trkpt lat="46.03993610820252" lon="12.003957569954574"><ele>243.0</ele><time>2026-04-07T10:39:18Z</time></trkpt><trkpt lat="46.04005935664187" lon="12.004229454804781"><ele>243.0</ele><time>2026-04-07T10:39:19Z</time></trkpt><trkpt lat="46.0401909361204" lon="12.004516317332014"><ele>244.0</ele><time>2026-04-07T10:39:20Z</time></trkpt><trkpt lat="46.040325397770474" lon="12.004811355458441"><ele>245.0</ele><time>2026-04-07T10:39:21Z</time></trkpt><trkpt lat="46.040457423163225" lon="12.005111156418582"><ele>245.33333333333334</ele><time>2026-04-07T10:39:22Z</time></trkpt><trkpt lat="46.040578675543756" lon="12.00539281503142"><ele>245.66666666666669</ele><time>2026-04-07T10:39:23Z</time></trkpt><trkpt lat="46.04069326010984" lon="12.005659475111718"><ele>246.0</ele><time>2026-04-07T10:39:24Z</time></trkpt><trkpt lat="46.04080496767093" lon="12.005914313097508"><ele>246.0</ele><time>2026-04-07T10:39:25Z</time></trkpt><trkpt lat="46.040921218747606" lon="12.00617614264502"><ele>246.0</ele><time>2026-04-07T10:39:26Z</time></trkpt><trkpt lat="46.04104256965156" lon="12.006452560858552"><ele>246.0</ele><time>2026-04-07T10:39:27Z</time></trkpt><trkpt lat="46.041166457610096" lon="12.006738225296063"><ele>246.5</ele><time>2026-04-07T10:39:28Z</time></trkpt><trkpt lat="46.04129211043078" lon="12.007027736106464"><ele>247.0</ele><time>2026-04-07T10:39:29Z</time></trkpt><trkpt lat="46.041417011643325" lon="12.007315054571205"><ele>247.0</ele><time>2026-04-07T10:39:30Z</time></trkpt><trkpt lat="46.041534462255996" lon="12.0075850436504"><ele>247.0</ele><time>2026-04-07T10:39:31Z</time></trkpt><trkpt lat="46.04164506891176" lon="12.007837573069045"><ele>247.0</ele><time>2026-04-07T10:39:32Z</time></trkpt><trkpt lat="46.041750170778755" lon="12.00807987854561"><ele>247.33333333333331</ele><time>2026-04-07T10:39:33Z</time></trkpt><trkpt lat="46.041847074475406" lon="12.008308991077511"><ele>247.66666666666669</ele><time>2026-04-07T10:39:34Z</time></trkpt><trkpt lat="46.041940307082164" lon="12.008523699528554"><ele>248.0</ele><time>2026-04-07T10:39:35Z</time></trkpt><trkpt lat="46.04203165215425" lon="12.008734377004846"><ele>248.33333333333334</ele><time>2026-04-07T10:39:36Z</time></trkpt><trkpt lat="46.04213489813619" lon="12.008967767321401"><ele>248.66666666666669</ele><time>2026-04-07T10:39:37Z</time></trkpt><trkpt lat="46.04224329820769" lon="12.00921865086724"><ele>249.0</ele><time>2026-04-07T10:39:38Z</time></trkpt><trkpt lat="46.04235351117755" lon="12.009482448735884"><ele>249.0</ele><time>2026-04-07T10:39:39Z</time></trkpt><trkpt lat="46.042449182498736" lon="12.009721055476755"><ele>249.0</ele><time>2026-04-07T10:39:40Z</time></trkpt><trkpt lat="46.04252893917708" lon="12.009926558367631"><ele>249.0</ele><time>2026-04-07T10:39:41Z</time></trkpt><trkpt lat="46.04260060262078" lon="12.010114606462105"><ele>249.0</ele><time>2026-04-07T10:39:42Z</time></trkpt><trkpt lat="46.04266030698718" lon="12.01029246659587"><ele>248.99999999999997</ele><time>2026-04-07T10:39:43Z</time></trkpt><trkpt lat="46.042705515333914" lon="12.010446025499098"><ele>248.99999999999997</ele><time>2026-04-07T10:39:44Z</time></trkpt><trkpt lat="46.042738759327264" lon="12.010565839658101"><ele>249.0</ele><time>2026-04-07T10:39:45Z</time></trkpt><trkpt lat="46.04276399832659" lon="12.010675320428403"><ele>249.0</ele><time>2026-04-07T10:39:46Z</time></trkpt><trkpt lat="46.04277200035777" lon="12.010780979267064"><ele>249.2</ele><time>2026-04-07T10:39:47Z</time></trkpt><trkpt lat="46.04277944155202" lon="12.010882955862767"><ele>249.39999999999998</ele><time>2026-04-07T10:39:48Z</time></trkpt><trkpt lat="46.04280433319115" lon="12.010968645326097"><ele>249.6</ele><time>2026-04-07T10:39:49Z</time></trkpt><trkpt lat="46.04285093642991" lon="12.011036206377232"><ele>249.8</ele><time>2026-04-07T10:39:50Z</time></trkpt><trkpt lat="46.04296914154552" lon="12.011046872087155"><ele>250.0</ele><time>2026-04-07T10:39:52Z</time></trkpt><trkpt lat="46.04304975987734" lon="12.010894922451019"><ele>249.75</ele><time>2026-04-07T10:39:54Z</time></trkpt><trkpt lat="46.043092951850646" lon="12.010768538153313"><ele>249.5</ele><time>2026-04-07T10:39:55Z</time></trkpt><trkpt lat="46.04317439450422" lon="12.010662839846871"><ele>249.25</ele><time>2026-04-07T10:39:56Z</time></trkpt><trkpt lat="46.04326102389095" lon="12.010548596553384"><ele>249.0</ele><time>2026-04-07T10:39:57Z</time></trkpt><trkpt lat="46.04337883537281" lon="12.010436672794368"><ele>248.0</ele><time>2026-04-07T10:39:58Z</time></trkpt><trkpt lat="46.04350650401562" lon="12.010319101980846"><ele>247.0</ele><time>2026-04-07T10:39:59Z</time></trkpt><trkpt lat="46.04362510430958" lon="12.01021065462114"><ele>246.0</ele><time>2026-04-07T10:40:00Z</time></trkpt><trkpt lat="46.04376264580706" lon="12.010082851657268"><ele>245.0</ele><time>2026-04-07T10:40:01Z</time></trkpt><trkpt lat="46.04391682430986" lon="12.009957728715463"><ele>244.0</ele><time>2026-04-07T10:40:02Z</time></trkpt><trkpt lat="46.044073235793576" lon="12.009856951385958"><ele>243.0</ele><time>2026-04-07T10:40:03Z</time></trkpt><trkpt lat="46.04425769826862" lon="12.009771311629843"><ele>242.66666666666669</ele><time>2026-04-07T10:40:04Z</time></trkpt><trkpt lat="46.04445955597526" lon="12.009709538613043"><ele>242.33333333333334</ele><time>2026-04-07T10:40:05Z</time></trkpt><trkpt lat="46.044654169886186" lon="12.009679942638506"><ele>242.0</ele><time>2026-04-07T10:40:06Z</time></trkpt><trkpt lat="46.04483551697676" lon="12.00968122520417"><ele>242.33333333333334</ele><time>2026-04-07T10:40:07Z</time></trkpt><trkpt lat="46.04502014180379" lon="12.00971630638334"><ele>242.66666666666669</ele><time>2026-04-07T10:40:08.001Z</time></trkpt><trkpt lat="46.045209782745694" lon="12.009779107333113"><ele>243.0</ele><time>2026-04-07T10:40:09.001Z</time></trkpt><trkpt lat="46.04539749498441" lon="12.00987404405101"><ele>242.66666666666669</ele><time>2026-04-07T10:40:10.001Z</time></trkpt><trkpt lat="46.04557094189364" lon="12.00999202270602"><ele>242.33333333333334</ele><time>2026-04-07T10:40:11.001Z</time></trkpt><trkpt lat="46.04572830533928" lon="12.01013592187001"><ele>242.0</ele><time>2026-04-07T10:40:12.001Z</time></trkpt><trkpt lat="46.045882749251525" lon="12.010308140920142"><ele>241.66666666666669</ele><time>2026-04-07T10:40:13.001Z</time></trkpt><trkpt lat="46.04602897451542" lon="12.010503568584165"><ele>241.33333333333331</ele><time>2026-04-07T10:40:14.001Z</time></trkpt><trkpt lat="46.04616061350635" lon="12.010723356653374"><ele>241.0</ele><time>2026-04-07T10:40:15.001Z</time></trkpt><trkpt lat="46.0462779429185" lon="12.010964561128457"><ele>242.0</ele><time>2026-04-07T10:40:16.001Z</time></trkpt><trkpt lat="46.0463903958548" lon="12.01123794276001"><ele>243.0</ele><time>2026-04-07T10:40:17.001Z</time></trkpt><trkpt lat="46.04651555965525" lon="12.01155357599019"><ele>243.0</ele><time>2026-04-07T10:40:18.001Z</time></trkpt><trkpt lat="46.04665352069272" lon="12.011886108274922"><ele>243.0</ele><time>2026-04-07T10:40:19.001Z</time></trkpt><trkpt lat="46.04680037130784" lon="12.012235872746095"><ele>243.5</ele><time>2026-04-07T10:40:20.001Z</time></trkpt><trkpt lat="46.046935260977484" lon="12.012553833763251"><ele>244.0</ele><time>2026-04-07T10:40:21.001Z</time></trkpt><trkpt lat="46.047064749384475" lon="12.012865125747357"><ele>244.0</ele><time>2026-04-07T10:40:22.001Z</time></trkpt><trkpt lat="46.04719141078009" lon="12.013171432187129"><ele>244.0</ele><time>2026-04-07T10:40:23.001Z</time></trkpt><trkpt lat="46.04732291247847" lon="12.01349002339691"><ele>243.0</ele><time>2026-04-07T10:40:24.001Z</time></trkpt><trkpt lat="46.04746561108286" lon="12.013834713548356"><ele>242.0</ele><time>2026-04-07T10:40:25.001Z</time></trkpt><trkpt lat="46.047614777969116" lon="12.014195765771435"><ele>244.0</ele><time>2026-04-07T10:40:26.001Z</time></trkpt><trkpt lat="46.04776974004573" lon="12.014575730408497"><ele>246.0</ele><time>2026-04-07T10:40:27.001Z</time></trkpt><trkpt lat="46.04793154140784" lon="12.014971679914714"><ele>248.0</ele><time>2026-04-07T10:40:28.001Z</time></trkpt><trkpt lat="46.04810148213598" lon="12.015379554518777"><ele>250.0</ele><time>2026-04-07T10:40:29.001Z</time></trkpt><trkpt lat="46.048273820874826" lon="12.015792338423863"><ele>246.5</ele><time>2026-04-07T10:40:30.001Z</time></trkpt><trkpt lat="46.048427481784586" lon="12.0161649577369"><ele>243.0</ele><time>2026-04-07T10:40:31.001Z</time></trkpt><trkpt lat="46.04857224980267" lon="12.01651131000336"><ele>245.5</ele><time>2026-04-07T10:40:32.001Z</time></trkpt><trkpt lat="46.048709313229196" lon="12.01684639635504"><ele>248.0</ele><time>2026-04-07T10:40:33.001Z</time></trkpt><trkpt lat="46.04884220768058" lon="12.01719399495525"><ele>248.5</ele><time>2026-04-07T10:40:34.001Z</time></trkpt><trkpt lat="46.04896650048849" lon="12.01755064547115"><ele>249.0</ele><time>2026-04-07T10:40:35.001Z</time></trkpt><trkpt lat="46.04908443104405" lon="12.017927872635262"><ele>248.5</ele><time>2026-04-07T10:40:36.001Z</time></trkpt><trkpt lat="46.04918718312365" lon="12.018314958184746"><ele>248.0</ele><time>2026-04-07T10:40:37.001Z</time></trkpt><trkpt lat="46.049277547081154" lon="12.018712023920529"><ele>248.0</ele><time>2026-04-07T10:40:38.001Z</time></trkpt><trkpt lat="46.049349672917856" lon="12.019087302637251"><ele>248.0</ele><time>2026-04-07T10:40:39.001Z</time></trkpt><trkpt lat="46.04940840003031" lon="12.019470566349794"><ele>247.5</ele><time>2026-04-07T10:40:40.001Z</time></trkpt><trkpt lat="46.04945063930507" lon="12.019869073923639"><ele>247.0</ele><time>2026-04-07T10:40:41.001Z</time></trkpt><trkpt lat="46.04947701295218" lon="12.02026618969279"><ele>249.0</ele><time>2026-04-07T10:40:42.001Z</time></trkpt><trkpt lat="46.049492177868544" lon="12.020670880480592"><ele>251.0</ele><time>2026-04-07T10:40:43.001Z</time></trkpt><trkpt lat="46.04949520995376" lon="12.021088421036664"><ele>251.5</ele><time>2026-04-07T10:40:44.001Z</time></trkpt><trkpt lat="46.049488566901" lon="12.021526125087824"><ele>252.0</ele><time>2026-04-07T10:40:45.001Z</time></trkpt><trkpt lat="46.049473052183785" lon="12.021979329650701"><ele>253.5</ele><time>2026-04-07T10:40:46.001Z</time></trkpt><trkpt lat="46.04945664648655" lon="12.022444275115161"><ele>255.0</ele><time>2026-04-07T10:40:47.001Z</time></trkpt><trkpt lat="46.049440764088786" lon="12.02292157723218"><ele>255.5</ele><time>2026-04-07T10:40:48.001Z</time></trkpt><trkpt lat="46.04942501541364" lon="12.023403972481425"><ele>256.0</ele><time>2026-04-07T10:40:49.001Z</time></trkpt><trkpt lat="46.04941077986794" lon="12.023850793325314"><ele>255.0</ele><time>2026-04-07T10:40:50.001Z</time></trkpt><trkpt lat="46.04939649552094" lon="12.024279121962438"><ele>254.0</ele><time>2026-04-07T10:40:51.001Z</time></trkpt><trkpt lat="46.04938329611351" lon="12.02470050763652"><ele>255.0</ele><time>2026-04-07T10:40:52.001Z</time></trkpt><trkpt lat="46.04937027070671" lon="12.025120336327292"><ele>256.0</ele><time>2026-04-07T10:40:53.001Z</time></trkpt><trkpt lat="46.04935776967915" lon="12.02552348447928"><ele>255.5</ele><time>2026-04-07T10:40:54.001Z</time></trkpt><trkpt lat="46.04934225367406" lon="12.025900323037325"><ele>255.0</ele><time>2026-04-07T10:40:55.001Z</time></trkpt><trkpt lat="46.04932688927125" lon="12.026256985946581"><ele>255.0</ele><time>2026-04-07T10:40:56.001Z</time></trkpt><trkpt lat="46.04931375532017" lon="12.026613415920048"><ele>255.0</ele><time>2026-04-07T10:40:57.001Z</time></trkpt><trkpt lat="46.04929768097234" lon="12.02698940371407"><ele>254.5</ele><time>2026-04-07T10:40:58.001Z</time></trkpt><trkpt lat="46.04928524430366" lon="12.027383440819522"><ele>254.0</ele><time>2026-04-07T10:40:59.001Z</time></trkpt><trkpt lat="46.049279838105356" lon="12.027811280382288"><ele>255.5</ele><time>2026-04-07T10:41:00.001Z</time></trkpt><trkpt lat="46.0492681564752" lon="12.028255177716757"><ele>257.0</ele><time>2026-04-07T10:41:01.001Z</time></trkpt><trkpt lat="46.04925064379543" lon="12.028715493911994"><ele>258.0</ele><time>2026-04-07T10:41:02Z</time></trkpt><trkpt lat="46.04922547397724" lon="12.02919134834085"><ele>259.0</ele><time>2026-04-07T10:41:03Z</time></trkpt><trkpt lat="46.04920247245387" lon="12.029680960349944"><ele>259.0</ele><time>2026-04-07T10:41:04Z</time></trkpt><trkpt lat="46.04918025393987" lon="12.030184679020577"><ele>259.0</ele><time>2026-04-07T10:41:05Z</time></trkpt><trkpt lat="46.049159764254874" lon="12.030703666306477"><ele>258.5</ele><time>2026-04-07T10:41:06Z</time></trkpt><trkpt lat="46.04914137863067" lon="12.031233858358119"><ele>258.0</ele><time>2026-04-07T10:41:07Z</time></trkpt><trkpt lat="46.04912195796841" lon="12.031772360933381"><ele>265.0</ele><time>2026-04-07T10:41:08Z</time></trkpt><trkpt lat="46.049102742129364" lon="12.032318213553364"><ele>272.0</ele><time>2026-04-07T10:41:09Z</time></trkpt><trkpt lat="46.04908077202529" lon="12.032865777925817"><ele>270.5</ele><time>2026-04-07T10:41:10Z</time></trkpt><trkpt lat="46.049059953026436" lon="12.033418138538092"><ele>269.0</ele><time>2026-04-07T10:41:11Z</time></trkpt><trkpt lat="46.0490393558912" lon="12.033940793040344"><ele>270.5</ele><time>2026-04-07T10:41:12Z</time></trkpt><trkpt lat="46.04901996844881" lon="12.034414176235437"><ele>272.0</ele><time>2026-04-07T10:41:13Z</time></trkpt><trkpt lat="46.04900066288413" lon="12.034858673983727"><ele>274.5</ele><time>2026-04-07T10:41:14Z</time></trkpt><trkpt lat="46.04898586199722" lon="12.035277376761156"><ele>277.0</ele><time>2026-04-07T10:41:15Z</time></trkpt><trkpt lat="46.04896962681933" lon="12.035683708403377"><ele>281.0</ele><time>2026-04-07T10:41:16Z</time></trkpt><trkpt lat="46.04895476769879" lon="12.036089173595592"><ele>285.0</ele><time>2026-04-07T10:41:17Z</time></trkpt><trkpt lat="46.048943405268226" lon="12.036492379530797"><ele>286.0</ele><time>2026-04-07T10:41:18Z</time></trkpt><trkpt lat="46.04893241202745" lon="12.036897142157164"><ele>287.0</ele><time>2026-04-07T10:41:19Z</time></trkpt><trkpt lat="46.048919242734215" lon="12.037278422840759"><ele>285.5</ele><time>2026-04-07T10:41:20Z</time></trkpt><trkpt lat="46.0489037041657" lon="12.037635275066233"><ele>284.0</ele><time>2026-04-07T10:41:21Z</time></trkpt><trkpt lat="46.04889346929324" lon="12.037984755411095"><ele>283.0</ele><time>2026-04-07T10:41:22Z</time></trkpt><trkpt lat="46.04888527414357" lon="12.038306912584318"><ele>282.0</ele><time>2026-04-07T10:41:23Z</time></trkpt><trkpt lat="46.04887936628936" lon="12.038566223828767"><ele>281.0</ele><time>2026-04-07T10:41:24Z</time></trkpt><trkpt lat="46.04887240805313" lon="12.038781599842904"><ele>281.0</ele><time>2026-04-07T10:41:25Z</time></trkpt><trkpt lat="46.04886153357744" lon="12.038966005126284"><ele>281.0</ele><time>2026-04-07T10:41:26Z</time></trkpt><trkpt lat="46.04884383567435" lon="12.039134565472542"><ele>281.0</ele><time>2026-04-07T10:41:27Z</time></trkpt><trkpt lat="46.048811089342934" lon="12.039265878822865"><ele>281.0</ele><time>2026-04-07T10:41:28Z</time></trkpt><trkpt lat="46.04876189517847" lon="12.039375128713612"><ele>281.0</ele><time>2026-04-07T10:41:29Z</time></trkpt><trkpt lat="46.04871518411441" lon="12.039468344684408"><ele>281.0</ele><time>2026-04-07T10:41:30Z</time></trkpt><trkpt lat="46.04869865995879" lon="12.03957371165184"><ele>281.0</ele><time>2026-04-07T10:41:31Z</time></trkpt><trkpt lat="46.048713649815795" lon="12.039684678345793"><ele>281.0</ele><time>2026-04-07T10:41:32Z</time></trkpt><trkpt lat="46.048758338346" lon="12.039802631837938"><ele>281.0</ele><time>2026-04-07T10:41:33Z</time></trkpt><trkpt lat="46.0488291264079" lon="12.03995238455231"><ele>281.0</ele><time>2026-04-07T10:41:34Z</time></trkpt><trkpt lat="46.04888948217379" lon="12.04014656293554"><ele>281.0</ele><time>2026-04-07T10:41:35Z</time></trkpt><trkpt lat="46.04893752298256" lon="12.040383296968704"><ele>281.0</ele><time>2026-04-07T10:41:36Z</time></trkpt><trkpt lat="46.04897870112721" lon="12.040611920533548"><ele>281.0</ele><time>2026-04-07T10:41:37Z</time></trkpt><trkpt lat="46.049032553605635" lon="12.04086781090328"><ele>281.0</ele><time>2026-04-07T10:41:38Z</time></trkpt><trkpt lat="46.04911207356133" lon="12.041172720452336"><ele>281.0</ele><time>2026-04-07T10:41:39Z</time></trkpt><trkpt lat="46.04919169556693" lon="12.04149977362033"><ele>283.0</ele><time>2026-04-07T10:41:40Z</time></trkpt><trkpt lat="46.04927531003614" lon="12.041850227218225"><ele>285.0</ele><time>2026-04-07T10:41:41Z</time></trkpt><trkpt lat="46.04935543413356" lon="12.04223320564632"><ele>284.0</ele><time>2026-04-07T10:41:42Z</time></trkpt><trkpt lat="46.049429439864454" lon="12.042584637015011"><ele>283.0</ele><time>2026-04-07T10:41:43Z</time></trkpt><trkpt lat="46.04949491928249" lon="12.042925652091062"><ele>283.0</ele><time>2026-04-07T10:41:44Z</time></trkpt><trkpt lat="46.04953993484256" lon="12.043271207842182"><ele>283.0</ele><time>2026-04-07T10:41:45Z</time></trkpt><trkpt lat="46.04957122378438" lon="12.043637160732164"><ele>283.0</ele><time>2026-04-07T10:41:46Z</time></trkpt><trkpt lat="46.04958800108088" lon="12.044020828080765"><ele>283.0</ele><time>2026-04-07T10:41:47Z</time></trkpt><trkpt lat="46.04960064952806" lon="12.044429804084837"><ele>285.0</ele><time>2026-04-07T10:41:48Z</time></trkpt><trkpt lat="46.049614979049025" lon="12.044811393689878"><ele>287.0</ele><time>2026-04-07T10:41:49Z</time></trkpt><trkpt lat="46.04962885454178" lon="12.045178109610434"><ele>288.0</ele><time>2026-04-07T10:41:50Z</time></trkpt><trkpt lat="46.04963954944896" lon="12.045533622160157"><ele>289.0</ele><time>2026-04-07T10:41:51Z</time></trkpt><trkpt lat="46.049643672399085" lon="12.04588610713894"><ele>290.0</ele><time>2026-04-07T10:41:52Z</time></trkpt><trkpt lat="46.049637928265746" lon="12.046230036659047"><ele>291.0</ele><time>2026-04-07T10:41:53Z</time></trkpt><trkpt lat="46.04961701816035" lon="12.046569607161649"><ele>292.0</ele><time>2026-04-07T10:41:54Z</time></trkpt><trkpt lat="46.049576003693446" lon="12.046913955587119"><ele>293.0</ele><time>2026-04-07T10:41:55Z</time></trkpt><trkpt lat="46.04952073902918" lon="12.047260091559108"><ele>293.5</ele><time>2026-04-07T10:41:56Z</time></trkpt><trkpt lat="46.04944656465716" lon="12.047622296315064"><ele>294.0</ele><time>2026-04-07T10:41:57Z</time></trkpt><trkpt lat="46.04936618249548" lon="12.048001096836535"><ele>295.5</ele><time>2026-04-07T10:41:58Z</time></trkpt><trkpt lat="46.04928220665912" lon="12.048381702286171"><ele>297.0</ele><time>2026-04-07T10:41:59Z</time></trkpt><trkpt lat="46.04920312149549" lon="12.048734917163303"><ele>297.0</ele><time>2026-04-07T10:42:00Z</time></trkpt><trkpt lat="46.04913258812561" lon="12.049080222928938"><ele>297.0</ele><time>2026-04-07T10:42:01Z</time></trkpt><trkpt lat="46.04907378462888" lon="12.049408248889467"><ele>298.0</ele><time>2026-04-07T10:42:02Z</time></trkpt><trkpt lat="46.0490221582056" lon="12.049730812298995"><ele>299.0</ele><time>2026-04-07T10:42:03Z</time></trkpt><trkpt lat="46.04898501024107" lon="12.050064975243615"><ele>301.0</ele><time>2026-04-07T10:42:04Z</time></trkpt><trkpt lat="46.048961198285646" lon="12.05040394742944"><ele>303.0</ele><time>2026-04-07T10:42:05Z</time></trkpt><trkpt lat="46.04894668705707" lon="12.050705807794547"><ele>305.0</ele><time>2026-04-07T10:42:06Z</time></trkpt><trkpt lat="46.04893207366629" lon="12.050966031820844"><ele>305.33333333333337</ele><time>2026-04-07T10:42:07Z</time></trkpt><trkpt lat="46.04890336895946" lon="12.051252828487021"><ele>305.6666666666667</ele><time>2026-04-07T10:42:08Z</time></trkpt><trkpt lat="46.04887412800718" lon="12.051583129637713"><ele>306.0</ele><time>2026-04-07T10:42:09Z</time></trkpt><trkpt lat="46.04885351935926" lon="12.051932530675822"><ele>306.0</ele><time>2026-04-07T10:42:10Z</time></trkpt><trkpt lat="46.04883566514198" lon="12.052247278080443"><ele>306.0</ele><time>2026-04-07T10:42:11Z</time></trkpt><trkpt lat="46.04881717805358" lon="12.052543872663447"><ele>306.0</ele><time>2026-04-07T10:42:12Z</time></trkpt><trkpt lat="46.04879037273054" lon="12.052828438877494"><ele>307.0</ele><time>2026-04-07T10:42:13Z</time></trkpt><trkpt lat="46.04875209290678" lon="12.053121157169139"><ele>308.0</ele><time>2026-04-07T10:42:14Z</time></trkpt><trkpt lat="46.04869569418768" lon="12.053406467575304"><ele>309.0</ele><time>2026-04-07T10:42:15Z</time></trkpt><trkpt lat="46.048621952764805" lon="12.053701498204523"><ele>309.5</ele><time>2026-04-07T10:42:16Z</time></trkpt><trkpt lat="46.04853158040428" lon="12.054027743408348"><ele>310.0</ele><time>2026-04-07T10:42:17Z</time></trkpt><trkpt lat="46.04843181246852" lon="12.054375853709823"><ele>310.0</ele><time>2026-04-07T10:42:18Z</time></trkpt><trkpt lat="46.04834284525947" lon="12.054703953412833"><ele>310.0</ele><time>2026-04-07T10:42:19Z</time></trkpt><trkpt lat="46.04826847150092" lon="12.05501014047815"><ele>310.0</ele><time>2026-04-07T10:42:20Z</time></trkpt><trkpt lat="46.048206919700185" lon="12.055317841119818"><ele>310.0</ele><time>2026-04-07T10:42:21Z</time></trkpt><trkpt lat="46.04815872912209" lon="12.055614163937355"><ele>310.0</ele><time>2026-04-07T10:42:22Z</time></trkpt><trkpt lat="46.04812526728682" lon="12.055893575817535"><ele>310.0</ele><time>2026-04-07T10:42:23Z</time></trkpt><trkpt lat="46.04810085506918" lon="12.0561849068404"><ele>310.0</ele><time>2026-04-07T10:42:24Z</time></trkpt><trkpt lat="46.04808716166625" lon="12.056501545296639"><ele>310.0</ele><time>2026-04-07T10:42:25Z</time></trkpt><trkpt lat="46.04807820218827" lon="12.056858050245584"><ele>310.0</ele><time>2026-04-07T10:42:26Z</time></trkpt><trkpt lat="46.048070548250806" lon="12.057247443747313"><ele>310.0</ele><time>2026-04-07T10:42:27Z</time></trkpt><trkpt lat="46.048057974429724" lon="12.057635699693595"><ele>311.0</ele><time>2026-04-07T10:42:28Z</time></trkpt><trkpt lat="46.04805339526378" lon="12.057983328740933"><ele>312.0</ele><time>2026-04-07T10:42:29Z</time></trkpt><trkpt lat="46.04805070604021" lon="12.058283358633997"><ele>312.3333333333333</ele><time>2026-04-07T10:42:30Z</time></trkpt><trkpt lat="46.048045471976245" lon="12.058545690421438"><ele>312.66666666666663</ele><time>2026-04-07T10:42:31Z</time></trkpt><trkpt lat="46.04804047882927" lon="12.05878042414396"><ele>313.0</ele><time>2026-04-07T10:42:32Z</time></trkpt><trkpt lat="46.04803669514953" lon="12.05899366400127"><ele>313.25</ele><time>2026-04-07T10:42:33Z</time></trkpt><trkpt lat="46.04803209681988" lon="12.059195663678453"><ele>313.5</ele><time>2026-04-07T10:42:34Z</time></trkpt><trkpt lat="46.04802903821423" lon="12.059382634568573"><ele>313.75</ele><time>2026-04-07T10:42:35Z</time></trkpt><trkpt lat="46.04802098344546" lon="12.059564534685366"><ele>314.0</ele><time>2026-04-07T10:42:36Z</time></trkpt><trkpt lat="46.048011830052836" lon="12.05974331174088"><ele>314.0</ele><time>2026-04-07T10:42:37Z</time></trkpt><trkpt lat="46.0480060088736" lon="12.059907703253966"><ele>314.0</ele><time>2026-04-07T10:42:38.001Z</time></trkpt><trkpt lat="46.04799801154772" lon="12.06005975817578"><ele>314.0</ele><time>2026-04-07T10:42:39.001Z</time></trkpt><trkpt lat="46.04799015909732" lon="12.060186681031679"><ele>314.0</ele><time>2026-04-07T10:42:40.001Z</time></trkpt><trkpt lat="46.04798633927626" lon="12.0603340725295"><ele>314.0</ele><time>2026-04-07T10:42:42.001Z</time></trkpt><trkpt lat="46.047967634320656" lon="12.060441970062051"><ele>314.2</ele><time>2026-04-07T10:42:48.001Z</time></trkpt><trkpt lat="46.047921181210306" lon="12.060596937516841"><ele>314.4</ele><time>2026-04-07T10:42:50.001Z</time></trkpt><trkpt lat="46.04791416710748" lon="12.060689170159884"><ele>314.6</ele><time>2026-04-07T10:42:51.001Z</time></trkpt><trkpt lat="46.04793156351529" lon="12.060799632764086"><ele>314.8</ele><time>2026-04-07T10:42:52.001Z</time></trkpt><trkpt lat="46.04797243030663" lon="12.06095888282047"><ele>315.0</ele><time>2026-04-07T10:42:53.001Z</time></trkpt><trkpt lat="46.04799948611504" lon="12.06109759837442"><ele>315.0</ele><time>2026-04-07T10:42:54.001Z</time></trkpt><trkpt lat="46.04800514823775" lon="12.061243989464204"><ele>315.0</ele><time>2026-04-07T10:42:55.001Z</time></trkpt><trkpt lat="46.0480047626919" lon="12.061456405600671"><ele>315.0</ele><time>2026-04-07T10:42:56.001Z</time></trkpt><trkpt lat="46.04800506723342" lon="12.061696348731187"><ele>315.0</ele><time>2026-04-07T10:42:57.001Z</time></trkpt><trkpt lat="46.0480024746057" lon="12.061970117045018"><ele>314.0</ele><time>2026-04-07T10:42:58.001Z</time></trkpt><trkpt lat="46.047989939706106" lon="12.062293087889763"><ele>313.0</ele><time>2026-04-07T10:42:59.001Z</time></trkpt><trkpt lat="46.04798378207437" lon="12.062619695193723"><ele>312.0</ele><time>2026-04-07T10:43:00.001Z</time></trkpt><trkpt lat="46.047983619430816" lon="12.062957483921663"><ele>311.0</ele><time>2026-04-07T10:43:01.001Z</time></trkpt><trkpt lat="46.04798404990408" lon="12.0633231666506"><ele>311.0</ele><time>2026-04-07T10:43:02.001Z</time></trkpt><trkpt lat="46.047985079704624" lon="12.06365154778912"><ele>311.0</ele><time>2026-04-07T10:43:03.001Z</time></trkpt><trkpt lat="46.047984437632635" lon="12.063981685313136"><ele>311.0</ele><time>2026-04-07T10:43:04.001Z</time></trkpt><trkpt lat="46.04798072478217" lon="12.064283637730552"><ele>311.0</ele><time>2026-04-07T10:43:05.001Z</time></trkpt><trkpt lat="46.047983062989424" lon="12.064567311770164"><ele>311.0</ele><time>2026-04-07T10:43:06.001Z</time></trkpt><trkpt lat="46.047991822502524" lon="12.064842048167867"><ele>312.0</ele><time>2026-04-07T10:43:07.001Z</time></trkpt><trkpt lat="46.04800903902834" lon="12.065105370320877"><ele>313.0</ele><time>2026-04-07T10:43:08Z</time></trkpt><trkpt lat="46.048041907331324" lon="12.065368893101287"><ele>314.0</ele><time>2026-04-07T10:43:09Z</time></trkpt><trkpt lat="46.04809061667557" lon="12.065640291167242"><ele>314.0</ele><time>2026-04-07T10:43:10Z</time></trkpt><trkpt lat="46.0481571914215" lon="12.065925318873305"><ele>314.0</ele><time>2026-04-07T10:43:11Z</time></trkpt><trkpt lat="46.04823438878152" lon="12.066212480161862"><ele>314.0</ele><time>2026-04-07T10:43:12Z</time></trkpt><trkpt lat="46.0483265326917" lon="12.066489744597982"><ele>313.33333333333337</ele><time>2026-04-07T10:43:13Z</time></trkpt><trkpt lat="46.04843648069267" lon="12.066755675074647"><ele>312.6666666666667</ele><time>2026-04-07T10:43:14Z</time></trkpt><trkpt lat="46.04855844570557" lon="12.066998236619042"><ele>312.0</ele><time>2026-04-07T10:43:15Z</time></trkpt><trkpt lat="46.04869479950474" lon="12.06722742719191"><ele>311.0</ele><time>2026-04-07T10:43:16Z</time></trkpt><trkpt lat="46.04884816183647" lon="12.06744946327643"><ele>310.0</ele><time>2026-04-07T10:43:17Z</time></trkpt><trkpt lat="46.04901928094296" lon="12.067661982310723"><ele>309.0</ele><time>2026-04-07T10:43:18Z</time></trkpt><trkpt lat="46.04921210087589" lon="12.067872395256538"><ele>310.5</ele><time>2026-04-07T10:43:19Z</time></trkpt><trkpt lat="46.04942492039664" lon="12.068085081917173"><ele>312.0</ele><time>2026-04-07T10:43:20Z</time></trkpt><trkpt lat="46.04965029474826" lon="12.068321312594783"><ele>312.0</ele><time>2026-04-07T10:43:21Z</time></trkpt><trkpt lat="46.049885870625076" lon="12.06857150759866"><ele>312.0</ele><time>2026-04-07T10:43:22Z</time></trkpt><trkpt lat="46.05013158167253" lon="12.06882963807737"><ele>309.5</ele><time>2026-04-07T10:43:23Z</time></trkpt><trkpt lat="46.050386120982054" lon="12.06909213977373"><ele>307.0</ele><time>2026-04-07T10:43:24Z</time></trkpt><trkpt lat="46.05064529730165" lon="12.069364483799742"><ele>310.5</ele><time>2026-04-07T10:43:25Z</time></trkpt><trkpt lat="46.050914219295734" lon="12.06964815794936"><ele>314.0</ele><time>2026-04-07T10:43:26Z</time></trkpt><trkpt lat="46.051179457822165" lon="12.069929289783975"><ele>315.5</ele><time>2026-04-07T10:43:27Z</time></trkpt><trkpt lat="46.05144575980435" lon="12.070213960205825"><ele>317.0</ele><time>2026-04-07T10:43:28Z</time></trkpt><trkpt lat="46.05172004380944" lon="12.070490402700704"><ele>314.5</ele><time>2026-04-07T10:43:29Z</time></trkpt><trkpt lat="46.052000546198634" lon="12.070777300735397"><ele>312.0</ele><time>2026-04-07T10:43:30Z</time></trkpt><trkpt lat="46.05227100418449" lon="12.07105178979792"><ele>309.0</ele><time>2026-04-07T10:43:31Z</time></trkpt><trkpt lat="46.05251719457084" lon="12.071305222303776"><ele>306.0</ele><time>2026-04-07T10:43:32Z</time></trkpt><trkpt lat="46.05274794096879" lon="12.071544618193121"><ele>309.5</ele><time>2026-04-07T10:43:33Z</time></trkpt><trkpt lat="46.05296461255077" lon="12.071769799834582"><ele>313.0</ele><time>2026-04-07T10:43:34Z</time></trkpt><trkpt lat="46.05317503895432" lon="12.071987021603226"><ele>308.5</ele><time>2026-04-07T10:43:35Z</time></trkpt><trkpt lat="46.05338468609589" lon="12.072203254460245"><ele>304.0</ele><time>2026-04-07T10:43:36Z</time></trkpt><trkpt lat="46.05358980350664" lon="12.072420454963595"><ele>306.5</ele><time>2026-04-07T10:43:37Z</time></trkpt><trkpt lat="46.0537879600493" lon="12.07264079047542"><ele>309.0</ele><time>2026-04-07T10:43:38Z</time></trkpt><trkpt lat="46.05398309633446" lon="12.072852984086454"><ele>306.5</ele><time>2026-04-07T10:43:39Z</time></trkpt><trkpt lat="46.05418548070641" lon="12.073052352217768"><ele>304.0</ele><time>2026-04-07T10:43:40Z</time></trkpt><trkpt lat="46.054394743973575" lon="12.0732379271307"><ele>306.5</ele><time>2026-04-07T10:43:41Z</time></trkpt><trkpt lat="46.05461547481352" lon="12.073406703540137"><ele>309.0</ele><time>2026-04-07T10:43:42Z</time></trkpt><trkpt lat="46.05484927288709" lon="12.073561327200576"><ele>306.0</ele><time>2026-04-07T10:43:43Z</time></trkpt><trkpt lat="46.055103299241345" lon="12.073717492436282"><ele>303.0</ele><time>2026-04-07T10:43:44Z</time></trkpt><trkpt lat="46.05534020425517" lon="12.073860461177137"><ele>303.0</ele><time>2026-04-07T10:43:45Z</time></trkpt><trkpt lat="46.05556343550446" lon="12.073988463820147"><ele>303.0</ele><time>2026-04-07T10:43:46Z</time></trkpt><trkpt lat="46.05578970218839" lon="12.074102031129822"><ele>304.3333333333333</ele><time>2026-04-07T10:43:47Z</time></trkpt><trkpt lat="46.05600881377455" lon="12.074201524350997"><ele>305.66666666666663</ele><time>2026-04-07T10:43:48Z</time></trkpt><trkpt lat="46.056218248037574" lon="12.074285232744531"><ele>307.0</ele><time>2026-04-07T10:43:49Z</time></trkpt><trkpt lat="46.05642548362177" lon="12.074353136327813"><ele>307.0</ele><time>2026-04-07T10:43:50Z</time></trkpt><trkpt lat="46.0566169734029" lon="12.074399658398745"><ele>307.0</ele><time>2026-04-07T10:43:51Z</time></trkpt><trkpt lat="46.05680837691383" lon="12.074429055036587"><ele>307.0</ele><time>2026-04-07T10:43:52Z</time></trkpt><trkpt lat="46.05700807709569" lon="12.07445438540566"><ele>307.0</ele><time>2026-04-07T10:43:53Z</time></trkpt><trkpt lat="46.05719827310765" lon="12.074484424990022"><ele>307.0</ele><time>2026-04-07T10:43:54Z</time></trkpt><trkpt lat="46.05737212009103" lon="12.074515763878422"><ele>307.0</ele><time>2026-04-07T10:43:55Z</time></trkpt><trkpt lat="46.05753896023817" lon="12.07455345965884"><ele>306.66666666666663</ele><time>2026-04-07T10:43:56Z</time></trkpt><trkpt lat="46.05770343716596" lon="12.074618538879708"><ele>306.3333333333333</ele><time>2026-04-07T10:43:57Z</time></trkpt><trkpt lat="46.05786141297042" lon="12.074712805247382"><ele>306.0</ele><time>2026-04-07T10:43:58Z</time></trkpt><trkpt lat="46.05801000144661" lon="12.074831253507575"><ele>307.3333333333333</ele><time>2026-04-07T10:43:59Z</time></trkpt><trkpt lat="46.058150051578124" lon="12.074969849492845"><ele>308.66666666666663</ele><time>2026-04-07T10:44:00Z</time></trkpt><trkpt lat="46.0582769386704" lon="12.075133486675771"><ele>310.0</ele><time>2026-04-07T10:44:01Z</time></trkpt><trkpt lat="46.058391685725816" lon="12.07532252903478"><ele>310.3333333333333</ele><time>2026-04-07T10:44:02Z</time></trkpt><trkpt lat="46.058500624323344" lon="12.075528666940395"><ele>310.6666666666667</ele><time>2026-04-07T10:44:03Z</time></trkpt><trkpt lat="46.05860399947706" lon="12.075771695548408"><ele>311.0</ele><time>2026-04-07T10:44:04Z</time></trkpt><trkpt lat="46.05870255348798" lon="12.076040508275321"><ele>311.0</ele><time>2026-04-07T10:44:05Z</time></trkpt><trkpt lat="46.058801226480114" lon="12.076353357243223"><ele>311.0</ele><time>2026-04-07T10:44:06Z</time></trkpt><trkpt lat="46.05890277607518" lon="12.076693606816583"><ele>313.0</ele><time>2026-04-07T10:44:07Z</time></trkpt><trkpt lat="46.05899740791559" lon="12.077009488702661"><ele>315.0</ele><time>2026-04-07T10:44:08Z</time></trkpt><trkpt lat="46.059100680453895" lon="12.077350894280713"><ele>311.0</ele><time>2026-04-07T10:44:09Z</time></trkpt><trkpt lat="46.05921415958931" lon="12.077717648845287"><ele>307.0</ele><time>2026-04-07T10:44:10Z</time></trkpt><trkpt lat="46.05933183959933" lon="12.07810947841609"><ele>306.5</ele><time>2026-04-07T10:44:11Z</time></trkpt><trkpt lat="46.05945226988288" lon="12.078519974346204"><ele>306.0</ele><time>2026-04-07T10:44:12Z</time></trkpt><trkpt lat="46.059578020391854" lon="12.078950647937404"><ele>305.5</ele><time>2026-04-07T10:44:13Z</time></trkpt><trkpt lat="46.05971079048572" lon="12.079398433131601"><ele>305.0</ele><time>2026-04-07T10:44:14Z</time></trkpt><trkpt lat="46.05984463149563" lon="12.07985787329714"><ele>307.5</ele><time>2026-04-07T10:44:15Z</time></trkpt><trkpt lat="46.059982829693375" lon="12.080327040116213"><ele>310.0</ele><time>2026-04-07T10:44:16Z</time></trkpt><trkpt lat="46.060122809666495" lon="12.080807898998001"><ele>310.5</ele><time>2026-04-07T10:44:17Z</time></trkpt><trkpt lat="46.06026719879686" lon="12.081300886773933"><ele>311.0</ele><time>2026-04-07T10:44:18Z</time></trkpt><trkpt lat="46.06040217998497" lon="12.081763858878082"><ele>312.0</ele><time>2026-04-07T10:44:19Z</time></trkpt><trkpt lat="46.06052447824647" lon="12.082186357056221"><ele>313.0</ele><time>2026-04-07T10:44:20Z</time></trkpt><trkpt lat="46.06063430790857" lon="12.082574367649306"><ele>313.5</ele><time>2026-04-07T10:44:21.001Z</time></trkpt><trkpt lat="46.06073598915743" lon="12.082939656047769"><ele>314.0</ele><time>2026-04-07T10:44:22.001Z</time></trkpt><trkpt lat="46.060830857766" lon="12.083267054654845"><ele>314.5</ele><time>2026-04-07T10:44:23.001Z</time></trkpt><trkpt lat="46.060929369224105" lon="12.083583212559683"><ele>315.0</ele><time>2026-04-07T10:44:24.001Z</time></trkpt><trkpt lat="46.06103660311559" lon="12.083877341221188"><ele>314.5</ele><time>2026-04-07T10:44:25.001Z</time></trkpt><trkpt lat="46.06116688651806" lon="12.084154719699319"><ele>314.0</ele><time>2026-04-07T10:44:26.001Z</time></trkpt><trkpt lat="46.06131578685184" lon="12.08442003490308"><ele>314.0</ele><time>2026-04-07T10:44:27.001Z</time></trkpt><trkpt lat="46.06147049318933" lon="12.084647824636718"><ele>314.0</ele><time>2026-04-07T10:44:28.001Z</time></trkpt><trkpt lat="46.06162862917651" lon="12.084847168665673"><ele>314.0</ele><time>2026-04-07T10:44:29.001Z</time></trkpt><trkpt lat="46.06179759606912" lon="12.085026290898233"><ele>315.6666666666667</ele><time>2026-04-07T10:44:30.001Z</time></trkpt><trkpt lat="46.061957452190306" lon="12.085170619304096"><ele>317.3333333333333</ele><time>2026-04-07T10:44:31.001Z</time></trkpt><trkpt lat="46.062106520172264" lon="12.085291457637243"><ele>319.0</ele><time>2026-04-07T10:44:32.001Z</time></trkpt><trkpt lat="46.062239915668975" lon="12.085390303689277"><ele>319.0</ele><time>2026-04-07T10:44:33.001Z</time></trkpt><trkpt lat="46.06237210081827" lon="12.085493274224621"><ele>319.0</ele><time>2026-04-07T10:44:34.001Z</time></trkpt><trkpt lat="46.06249553785481" lon="12.085612072947514"><ele>319.0</ele><time>2026-04-07T10:44:35.001Z</time></trkpt><trkpt lat="46.06260037454311" lon="12.085729742144125"><ele>319.0</ele><time>2026-04-07T10:44:36.001Z</time></trkpt><trkpt lat="46.06269898959766" lon="12.085847940508733"><ele>320.75</ele><time>2026-04-07T10:44:37.001Z</time></trkpt><trkpt lat="46.06279453479276" lon="12.085976687618668"><ele>322.5</ele><time>2026-04-07T10:44:38.001Z</time></trkpt><trkpt lat="46.06287360905965" lon="12.08609992022797"><ele>324.25</ele><time>2026-04-07T10:44:39.001Z</time></trkpt><trkpt lat="46.06294992518613" lon="12.086219062141218"><ele>326.0</ele><time>2026-04-07T10:44:40.001Z</time></trkpt><trkpt lat="46.06303024856637" lon="12.086339058325184"><ele>326.0</ele><time>2026-04-07T10:44:41.001Z</time></trkpt><trkpt lat="46.063121962940315" lon="12.086453492076064"><ele>326.0</ele><time>2026-04-07T10:44:42.001Z</time></trkpt><trkpt lat="46.06320764696375" lon="12.08656732246128"><ele>326.0</ele><time>2026-04-07T10:44:43.001Z</time></trkpt><trkpt lat="46.06329891480386" lon="12.08668855141718"><ele>326.0</ele><time>2026-04-07T10:44:44.001Z</time></trkpt><trkpt lat="46.063382639275595" lon="12.086806318973787"><ele>326.0</ele><time>2026-04-07T10:44:45.001Z</time></trkpt><trkpt lat="46.0634618752926" lon="12.08691280021249"><ele>326.0</ele><time>2026-04-07T10:44:46.001Z</time></trkpt><trkpt lat="46.063527735053015" lon="12.087016753838537"><ele>326.0</ele><time>2026-04-07T10:44:47.001Z</time></trkpt><trkpt lat="46.06358233311166" lon="12.087119458581016"><ele>326.0</ele><time>2026-04-07T10:44:48.001Z</time></trkpt><trkpt lat="46.06362407959147" lon="12.087230431525908"><ele>326.0</ele><time>2026-04-07T10:44:49.001Z</time></trkpt><trkpt lat="46.06365646923721" lon="12.087339185689368"><ele>326.33333333333337</ele><time>2026-04-07T10:44:50.001Z</time></trkpt><trkpt lat="46.06369100392133" lon="12.087447938224399"><ele>326.6666666666667</ele><time>2026-04-07T10:44:51.001Z</time></trkpt><trkpt lat="46.06372703774463" lon="12.087564060724818"><ele>327.0</ele><time>2026-04-07T10:44:52.001Z</time></trkpt><trkpt lat="46.06375332032225" lon="12.087670865051525"><ele>327.3333333333333</ele><time>2026-04-07T10:44:53.001Z</time></trkpt><trkpt lat="46.06377943174959" lon="12.08777922536651"><ele>327.66666666666663</ele><time>2026-04-07T10:44:54.001Z</time></trkpt><trkpt lat="46.063803325071255" lon="12.087901917138623"><ele>328.0</ele><time>2026-04-07T10:44:55.001Z</time></trkpt><trkpt lat="46.06383039726872" lon="12.088051655331052"><ele>328.0</ele><time>2026-04-07T10:44:56.001Z</time></trkpt><trkpt lat="46.06386769874516" lon="12.088206341883533"><ele>328.0</ele><time>2026-04-07T10:44:57.001Z</time></trkpt><trkpt lat="46.06390034936083" lon="12.088348792198603"><ele>328.0</ele><time>2026-04-07T10:44:58.001Z</time></trkpt><trkpt lat="46.06393399271672" lon="12.08851705641333"><ele>328.0</ele><time>2026-04-07T10:44:59.001Z</time></trkpt><trkpt lat="46.06395870183401" lon="12.08871367544003"><ele>327.3333333333333</ele><time>2026-04-07T10:45:00.001Z</time></trkpt><trkpt lat="46.06400545885746" lon="12.08894510142801"><ele>326.6666666666667</ele><time>2026-04-07T10:45:01.001Z</time></trkpt><trkpt lat="46.06405754503737" lon="12.089208069274498"><ele>326.0</ele><time>2026-04-07T10:45:02.001Z</time></trkpt><trkpt lat="46.064136335560804" lon="12.08950209479096"><ele>324.0</ele><time>2026-04-07T10:45:03.001Z</time></trkpt><trkpt lat="46.06418723407335" lon="12.089768686331013"><ele>322.0</ele><time>2026-04-07T10:45:04.001Z</time></trkpt><trkpt lat="46.06423637512279" lon="12.09002317765197"><ele>320.0</ele><time>2026-04-07T10:45:05.001Z</time></trkpt><trkpt lat="46.064281532176366" lon="12.090259921188446"><ele>320.0</ele><time>2026-04-07T10:45:06.001Z</time></trkpt><trkpt lat="46.064327632876456" lon="12.090482642830064"><ele>320.0</ele><time>2026-04-07T10:45:07.001Z</time></trkpt><trkpt lat="46.0643730197642" lon="12.090690772582663"><ele>320.0</ele><time>2026-04-07T10:45:08.001Z</time></trkpt><trkpt lat="46.06440209154742" lon="12.090903959525502"><ele>320.0</ele><time>2026-04-07T10:45:09.001Z</time></trkpt><trkpt lat="46.064450009486755" lon="12.09113765715857"><ele>320.0</ele><time>2026-04-07T10:45:10.001Z</time></trkpt><trkpt lat="46.06450722948172" lon="12.091416818568954"><ele>320.0</ele><time>2026-04-07T10:45:11.001Z</time></trkpt><trkpt lat="46.064568489106435" lon="12.091715569772536"><ele>319.6666666666667</ele><time>2026-04-07T10:45:12.001Z</time></trkpt><trkpt lat="46.064645451370374" lon="12.092001739370742"><ele>319.3333333333333</ele><time>2026-04-07T10:45:13.001Z</time></trkpt><trkpt lat="46.06470178845688" lon="12.092260114277993"><ele>319.0</ele><time>2026-04-07T10:45:14Z</time></trkpt><trkpt lat="46.06474952659956" lon="12.09248943402061"><ele>318.3333333333333</ele><time>2026-04-07T10:45:15Z</time></trkpt><trkpt lat="46.06479108279562" lon="12.092711232204758"><ele>317.6666666666667</ele><time>2026-04-07T10:45:16Z</time></trkpt><trkpt lat="46.06483099205266" lon="12.092918694889104"><ele>317.0</ele><time>2026-04-07T10:45:17Z</time></trkpt><trkpt lat="46.0648690431835" lon="12.093118641572476"><ele>317.0</ele><time>2026-04-07T10:45:18Z</time></trkpt><trkpt lat="46.06491085215711" lon="12.09332298632511"><ele>317.0</ele><time>2026-04-07T10:45:19Z</time></trkpt><trkpt lat="46.06495558629404" lon="12.09353604544165"><ele>317.0</ele><time>2026-04-07T10:45:20Z</time></trkpt><trkpt lat="46.06499967749571" lon="12.09376077862096"><ele>318.33333333333337</ele><time>2026-04-07T10:45:21Z</time></trkpt><trkpt lat="46.065046129657205" lon="12.093991640217615"><ele>319.6666666666667</ele><time>2026-04-07T10:45:22Z</time></trkpt><trkpt lat="46.06509826326292" lon="12.094232692222752"><ele>321.0</ele><time>2026-04-07T10:45:23Z</time></trkpt><trkpt lat="46.06515122085538" lon="12.094475332535916"><ele>321.0</ele><time>2026-04-07T10:45:24Z</time></trkpt><trkpt lat="46.065202932845004" lon="12.09472543348069"><ele>321.0</ele><time>2026-04-07T10:45:25Z</time></trkpt><trkpt lat="46.065261057175036" lon="12.095004384938449"><ele>321.0</ele><time>2026-04-07T10:45:26Z</time></trkpt><trkpt lat="46.06532416148504" lon="12.09530381734194"><ele>321.5</ele><time>2026-04-07T10:45:27Z</time></trkpt><trkpt lat="46.06536957903113" lon="12.09560084572738"><ele>322.0</ele><time>2026-04-07T10:45:28Z</time></trkpt><trkpt lat="46.065438693698745" lon="12.095934966464434"><ele>323.0</ele><time>2026-04-07T10:45:29Z</time></trkpt><trkpt lat="46.065512866280834" lon="12.096292067820231"><ele>324.0</ele><time>2026-04-07T10:45:30Z</time></trkpt><trkpt lat="46.065599318560174" lon="12.096668299919708"><ele>324.0</ele><time>2026-04-07T10:45:31Z</time></trkpt><trkpt lat="46.06566909943425" lon="12.097027273550474"><ele>324.0</ele><time>2026-04-07T10:45:32Z</time></trkpt><trkpt lat="46.06574248508615" lon="12.097388012640227"><ele>323.5</ele><time>2026-04-07T10:45:33Z</time></trkpt><trkpt lat="46.06581292189013" lon="12.09773057086783"><ele>323.0</ele><time>2026-04-07T10:45:34Z</time></trkpt><trkpt lat="46.06587964454901" lon="12.098052265235529"><ele>322.5</ele><time>2026-04-07T10:45:35Z</time></trkpt><trkpt lat="46.06594578234533" lon="12.098353732835"><ele>322.0</ele><time>2026-04-07T10:45:36Z</time></trkpt><trkpt lat="46.066015834579964" lon="12.098678986409434"><ele>322.0</ele><time>2026-04-07T10:45:37Z</time></trkpt><trkpt lat="46.06606971884776" lon="12.09898501322111"><ele>322.0</ele><time>2026-04-07T10:45:38Z</time></trkpt><trkpt lat="46.06613688137606" lon="12.099327735610643"><ele>323.5</ele><time>2026-04-07T10:45:39Z</time></trkpt><trkpt lat="46.0662116994587" lon="12.099683043545706"><ele>325.0</ele><time>2026-04-07T10:45:40Z</time></trkpt><trkpt lat="46.06629836409746" lon="12.100051327529298"><ele>326.0</ele><time>2026-04-07T10:45:41Z</time></trkpt><trkpt lat="46.06639056828715" lon="12.100435140250047"><ele>327.0</ele><time>2026-04-07T10:45:42Z</time></trkpt><trkpt lat="46.06648139336189" lon="12.10081824918963"><ele>327.0</ele><time>2026-04-07T10:45:43Z</time></trkpt><trkpt lat="46.06657206566139" lon="12.101199022562863"><ele>327.0</ele><time>2026-04-07T10:45:44Z</time></trkpt><trkpt lat="46.06666325540284" lon="12.101576558106403"><ele>327.5</ele><time>2026-04-07T10:45:45Z</time></trkpt><trkpt lat="46.0667499386482" lon="12.101929324547463"><ele>328.0</ele><time>2026-04-07T10:45:46Z</time></trkpt><trkpt lat="46.066835737019346" lon="12.102267599889352"><ele>328.5</ele><time>2026-04-07T10:45:47Z</time></trkpt><trkpt lat="46.06692093239734" lon="12.10260493685899"><ele>329.0</ele><time>2026-04-07T10:45:48Z</time></trkpt><trkpt lat="46.06700400050806" lon="12.102936407281325"><ele>329.5</ele><time>2026-04-07T10:45:49Z</time></trkpt><trkpt lat="46.06708790595884" lon="12.103262881869904"><ele>330.0</ele><time>2026-04-07T10:45:50Z</time></trkpt><trkpt lat="46.067168629169885" lon="12.10358910530002"><ele>330.0</ele><time>2026-04-07T10:45:51Z</time></trkpt><trkpt lat="46.06724830116835" lon="12.103908663369776"><ele>330.0</ele><time>2026-04-07T10:45:52Z</time></trkpt><trkpt lat="46.06732667262374" lon="12.104220765149817"><ele>331.0</ele><time>2026-04-07T10:45:53Z</time></trkpt><trkpt lat="46.06740629449153" lon="12.104535302247566"><ele>332.0</ele><time>2026-04-07T10:45:54Z</time></trkpt><trkpt lat="46.06748368372515" lon="12.104851474764668"><ele>332.0</ele><time>2026-04-07T10:45:55Z</time></trkpt><trkpt lat="46.06755729011056" lon="12.105149364292638"><ele>332.0</ele><time>2026-04-07T10:45:56Z</time></trkpt><trkpt lat="46.06763073689627" lon="12.105443543753294"><ele>332.0</ele><time>2026-04-07T10:45:57Z</time></trkpt><trkpt lat="46.06770428739331" lon="12.105731802140228"><ele>332.6666666666667</ele><time>2026-04-07T10:45:58Z</time></trkpt><trkpt lat="46.06777881764071" lon="12.106024755554204"><ele>333.3333333333333</ele><time>2026-04-07T10:45:59Z</time></trkpt><trkpt lat="46.06785500594885" lon="12.106334342446898"><ele>334.0</ele><time>2026-04-07T10:46:00Z</time></trkpt><trkpt lat="46.06793469927131" lon="12.10665581611151"><ele>335.0</ele><time>2026-04-07T10:46:01Z</time></trkpt><trkpt lat="46.068016074157924" lon="12.106987045306195"><ele>336.0</ele><time>2026-04-07T10:46:02Z</time></trkpt><trkpt lat="46.06809897442196" lon="12.107320707210594"><ele>335.5</ele><time>2026-04-07T10:46:03Z</time></trkpt><trkpt lat="46.06818341871549" lon="12.107655358259802"><ele>335.0</ele><time>2026-04-07T10:46:04Z</time></trkpt><trkpt lat="46.06826733698998" lon="12.107984314723792"><ele>335.33333333333337</ele><time>2026-04-07T10:46:05Z</time></trkpt><trkpt lat="46.068345294535234" lon="12.108295240877203"><ele>335.6666666666667</ele><time>2026-04-07T10:46:06Z</time></trkpt><trkpt lat="46.06841757016302" lon="12.108586024272983"><ele>336.0</ele><time>2026-04-07T10:46:07Z</time></trkpt><trkpt lat="46.06848417756603" lon="12.108853781017647"><ele>336.6666666666667</ele><time>2026-04-07T10:46:08Z</time></trkpt><trkpt lat="46.06855042754691" lon="12.109109776723027"><ele>337.33333333333337</ele><time>2026-04-07T10:46:09Z</time></trkpt><trkpt lat="46.068609468341805" lon="12.109359526899627"><ele>338.0</ele><time>2026-04-07T10:46:10Z</time></trkpt><trkpt lat="46.06865138842305" lon="12.109579852633551"><ele>338.0</ele><time>2026-04-07T10:46:11Z</time></trkpt><trkpt lat="46.06868645584464" lon="12.109784264225622"><ele>338.0</ele><time>2026-04-07T10:46:12Z</time></trkpt><trkpt lat="46.06871855132338" lon="12.109976127567903"><ele>338.0</ele><time>2026-04-07T10:46:13Z</time></trkpt><trkpt lat="46.0687451914642" lon="12.11017115999663"><ele>338.0</ele><time>2026-04-07T10:46:14Z</time></trkpt><trkpt lat="46.06876883728843" lon="12.110385475156356"><ele>337.6666666666667</ele><time>2026-04-07T10:46:15Z</time></trkpt><trkpt lat="46.068798870131374" lon="12.110628997358658"><ele>337.3333333333333</ele><time>2026-04-07T10:46:16Z</time></trkpt><trkpt lat="46.06882816587205" lon="12.110921113774367"><ele>337.0</ele><time>2026-04-07T10:46:17Z</time></trkpt><trkpt lat="46.068839382931735" lon="12.111254488005306"><ele>341.5</ele><time>2026-04-07T10:46:18Z</time></trkpt><trkpt lat="46.06885391014926" lon="12.111629438659193"><ele>346.0</ele><time>2026-04-07T10:46:19Z</time></trkpt><trkpt lat="46.06887837806994" lon="12.112024884171316"><ele>348.0</ele><time>2026-04-07T10:46:20Z</time></trkpt><trkpt lat="46.068911855988254" lon="12.112433883633097"><ele>350.0</ele><time>2026-04-07T10:46:21Z</time></trkpt><trkpt lat="46.068949007915535" lon="12.112873835936398"><ele>351.0</ele><time>2026-04-07T10:46:22.001Z</time></trkpt><trkpt lat="46.06898206906614" lon="12.113306955226108"><ele>352.0</ele><time>2026-04-07T10:46:23.001Z</time></trkpt><trkpt lat="46.06901225532859" lon="12.113748175523122"><ele>350.5</ele><time>2026-04-07T10:46:24.001Z</time></trkpt><trkpt lat="46.06904337252671" lon="12.114220814807641"><ele>349.0</ele><time>2026-04-07T10:46:25.001Z</time></trkpt><trkpt lat="46.06907441983343" lon="12.114672828779263"><ele>346.0</ele><time>2026-04-07T10:46:26.001Z</time></trkpt><trkpt lat="46.06910529921881" lon="12.115093617019777"><ele>343.0</ele><time>2026-04-07T10:46:27.001Z</time></trkpt><trkpt lat="46.0691322117141" lon="12.115485361927533"><ele>338.0</ele><time>2026-04-07T10:46:28.001Z</time></trkpt><trkpt lat="46.069163637178704" lon="12.115859601611023"><ele>333.0</ele><time>2026-04-07T10:46:29.001Z</time></trkpt><trkpt lat="46.069206152345046" lon="12.116230070921132"><ele>332.5</ele><time>2026-04-07T10:46:30.001Z</time></trkpt><trkpt lat="46.06925734388436" lon="12.116583145147027"><ele>332.0</ele><time>2026-04-07T10:46:31.001Z</time></trkpt><trkpt lat="46.069319272962936" lon="12.116936624366824"><ele>332.0</ele><time>2026-04-07T10:46:32.001Z</time></trkpt><trkpt lat="46.06939457372354" lon="12.11729109416859"><ele>332.0</ele><time>2026-04-07T10:46:33.001Z</time></trkpt><trkpt lat="46.06947960230079" lon="12.11763610607285"><ele>336.0</ele><time>2026-04-07T10:46:34.001Z</time></trkpt><trkpt lat="46.06957419135413" lon="12.117969598973612"><ele>340.0</ele><time>2026-04-07T10:46:35.001Z</time></trkpt><trkpt lat="46.06967888092939" lon="12.118289224391106"><ele>343.0</ele><time>2026-04-07T10:46:36.001Z</time></trkpt><trkpt lat="46.06979835267227" lon="12.118598878125983"><ele>346.0</ele><time>2026-04-07T10:46:37.001Z</time></trkpt><trkpt lat="46.06992993728715" lon="12.118927863934568"><ele>344.5</ele><time>2026-04-07T10:46:38.001Z</time></trkpt><trkpt lat="46.07007629245672" lon="12.119277340018312"><ele>343.0</ele><time>2026-04-07T10:46:39.001Z</time></trkpt><trkpt lat="46.07022300825586" lon="12.119639154324622"><ele>343.0</ele><time>2026-04-07T10:46:40.001Z</time></trkpt><trkpt lat="46.07035494681629" lon="12.119964418683477"><ele>343.0</ele><time>2026-04-07T10:46:41.001Z</time></trkpt><trkpt lat="46.07048540954813" lon="12.12027534828636"><ele>343.0</ele><time>2026-04-07T10:46:42.001Z</time></trkpt><trkpt lat="46.070614792256" lon="12.120588591841399"><ele>343.0</ele><time>2026-04-07T10:46:43.001Z</time></trkpt><trkpt lat="46.07074588489009" lon="12.120902986475084"><ele>341.5</ele><time>2026-04-07T10:46:44.001Z</time></trkpt><trkpt lat="46.07087977367866" lon="12.121217815897937"><ele>340.0</ele><time>2026-04-07T10:46:45.001Z</time></trkpt><trkpt lat="46.07101000706499" lon="12.121523314572265"><ele>341.0</ele><time>2026-04-07T10:46:46.001Z</time></trkpt><trkpt lat="46.071142406365404" lon="12.121824728130749"><ele>342.0</ele><time>2026-04-07T10:46:47.001Z</time></trkpt><trkpt lat="46.07128028787242" lon="12.12212281552967"><ele>342.0</ele><time>2026-04-07T10:46:48.001Z</time></trkpt><trkpt lat="46.07142630539972" lon="12.12241175631221"><ele>342.0</ele><time>2026-04-07T10:46:49.001Z</time></trkpt><trkpt lat="46.07157794241124" lon="12.122696035568598"><ele>340.0</ele><time>2026-04-07T10:46:50.001Z</time></trkpt><trkpt lat="46.07173874684673" lon="12.12297246140588"><ele>338.0</ele><time>2026-04-07T10:46:51.001Z</time></trkpt><trkpt lat="46.07190529181129" lon="12.12324211234555"><ele>338.0</ele><time>2026-04-07T10:46:52.001Z</time></trkpt><trkpt lat="46.072075971651174" lon="12.12350487242387"><ele>338.0</ele><time>2026-04-07T10:46:53.001Z</time></trkpt><trkpt lat="46.072254560799045" lon="12.123755211111504"><ele>338.0</ele><time>2026-04-07T10:46:54.001Z</time></trkpt><trkpt lat="46.07244040360374" lon="12.123996882162809"><ele>338.0</ele><time>2026-04-07T10:46:55.001Z</time></trkpt><trkpt lat="46.07263158326439" lon="12.124229093448958"><ele>338.0</ele><time>2026-04-07T10:46:56.001Z</time></trkpt><trkpt lat="46.0728313018652" lon="12.12445135124243"><ele>338.0</ele><time>2026-04-07T10:46:57.001Z</time></trkpt><trkpt lat="46.073023288571974" lon="12.124650929078065"><ele>338.0</ele><time>2026-04-07T10:46:58.001Z</time></trkpt><trkpt lat="46.07320361856329" lon="12.124835286734458"><ele>338.0</ele><time>2026-04-07T10:46:59.001Z</time></trkpt><trkpt lat="46.073376210965215" lon="12.125024311490277"><ele>338.0</ele><time>2026-04-07T10:47:00.001Z</time></trkpt><trkpt lat="46.073552177705885" lon="12.125216015273926"><ele>335.5</ele><time>2026-04-07T10:47:01.001Z</time></trkpt><trkpt lat="46.073736191046194" lon="12.125406492206068"><ele>333.0</ele><time>2026-04-07T10:47:02.001Z</time></trkpt><trkpt lat="46.07393467148371" lon="12.125610252538229"><ele>334.5</ele><time>2026-04-07T10:47:03.001Z</time></trkpt><trkpt lat="46.07412287237505" lon="12.12581238161614"><ele>336.0</ele><time>2026-04-07T10:47:04.001Z</time></trkpt><trkpt lat="46.07429493807579" lon="12.12601085311813"><ele>336.0</ele><time>2026-04-07T10:47:05.001Z</time></trkpt><trkpt lat="46.07446716286238" lon="12.126193404460194"><ele>336.0</ele><time>2026-04-07T10:47:06.001Z</time></trkpt><trkpt lat="46.07464093826432" lon="12.126380633086915"><ele>336.0</ele><time>2026-04-07T10:47:07.001Z</time></trkpt><trkpt lat="46.074827985350865" lon="12.126569705081268"><ele>333.5</ele><time>2026-04-07T10:47:08.001Z</time></trkpt><trkpt lat="46.075033384124126" lon="12.126784647911665"><ele>331.0</ele><time>2026-04-07T10:47:09.001Z</time></trkpt><trkpt lat="46.075250186471045" lon="12.127015488939657"><ele>331.0</ele><time>2026-04-07T10:47:10.001Z</time></trkpt><trkpt lat="46.07545656217987" lon="12.127238149674461"><ele>331.0</ele><time>2026-04-07T10:47:11.001Z</time></trkpt><trkpt lat="46.075648445346665" lon="12.127456615045412"><ele>330.0</ele><time>2026-04-07T10:47:12.001Z</time></trkpt><trkpt lat="46.07582926179558" lon="12.12765954448885"><ele>329.0</ele><time>2026-04-07T10:47:13.001Z</time></trkpt><trkpt lat="46.07600811622312" lon="12.127852268515362"><ele>329.0</ele><time>2026-04-07T10:47:14.001Z</time></trkpt><trkpt lat="46.07617827447127" lon="12.128036094624369"><ele>329.0</ele><time>2026-04-07T10:47:15.001Z</time></trkpt><trkpt lat="46.07634302703557" lon="12.128213601779981"><ele>329.0</ele><time>2026-04-07T10:47:16.001Z</time></trkpt><trkpt lat="46.07651908589196" lon="12.128408458623003"><ele>328.6666666666667</ele><time>2026-04-07T10:47:17.001Z</time></trkpt><trkpt lat="46.07669127444376" lon="12.128592708982968"><ele>328.3333333333333</ele><time>2026-04-07T10:47:18.001Z</time></trkpt><trkpt lat="46.07685338233098" lon="12.1287637749916"><ele>328.0</ele><time>2026-04-07T10:47:19.001Z</time></trkpt><trkpt lat="46.07701723299982" lon="12.128941290595069"><ele>327.66666666666663</ele><time>2026-04-07T10:47:20Z</time></trkpt><trkpt lat="46.077186626149185" lon="12.129131387656995"><ele>327.3333333333333</ele><time>2026-04-07T10:47:21Z</time></trkpt><trkpt lat="46.077359452526714" lon="12.12931808493376"><ele>327.0</ele><time>2026-04-07T10:47:22Z</time></trkpt><trkpt lat="46.07752863573407" lon="12.129495017585189"><ele>326.0</ele><time>2026-04-07T10:47:23Z</time></trkpt><trkpt lat="46.07770747818529" lon="12.129685268685545"><ele>325.0</ele><time>2026-04-07T10:47:24Z</time></trkpt><trkpt lat="46.07790993489644" lon="12.129896587874853"><ele>325.0</ele><time>2026-04-07T10:47:25Z</time></trkpt><trkpt lat="46.0781276888081" lon="12.130132024710878"><ele>325.0</ele><time>2026-04-07T10:47:26Z</time></trkpt><trkpt lat="46.078359125445225" lon="12.13038635848711"><ele>324.5</ele><time>2026-04-07T10:47:27Z</time></trkpt><trkpt lat="46.07859599384566" lon="12.130645498889745"><ele>324.0</ele><time>2026-04-07T10:47:28Z</time></trkpt><trkpt lat="46.078818007118265" lon="12.130881588863252"><ele>324.0</ele><time>2026-04-07T10:47:29Z</time></trkpt><trkpt lat="46.07906405448435" lon="12.131140688761393"><ele>324.0</ele><time>2026-04-07T10:47:30Z</time></trkpt><trkpt lat="46.07932196163353" lon="12.131414209774173"><ele>324.5</ele><time>2026-04-07T10:47:31Z</time></trkpt><trkpt lat="46.07958534319081" lon="12.131695771194485"><ele>325.0</ele><time>2026-04-07T10:47:32Z</time></trkpt><trkpt lat="46.07982628741926" lon="12.131950974391874"><ele>323.0</ele><time>2026-04-07T10:47:33Z</time></trkpt><trkpt lat="46.08004909903141" lon="12.132190695665756"><ele>321.0</ele><time>2026-04-07T10:47:34Z</time></trkpt><trkpt lat="46.0802589816669" lon="12.132419263148172"><ele>321.0</ele><time>2026-04-07T10:47:35Z</time></trkpt><trkpt lat="46.080454291101674" lon="12.132632244413323"><ele>321.0</ele><time>2026-04-07T10:47:36Z</time></trkpt><trkpt lat="46.08063747294807" lon="12.132833539864935"><ele>320.0</ele><time>2026-04-07T10:47:37Z</time></trkpt><trkpt lat="46.08081664120812" lon="12.13303444403355"><ele>319.0</ele><time>2026-04-07T10:47:38Z</time></trkpt><trkpt lat="46.08099252562596" lon="12.133226539000791"><ele>318.0</ele><time>2026-04-07T10:47:39Z</time></trkpt><trkpt lat="46.081158393732586" lon="12.133409401196499"><ele>318.0</ele><time>2026-04-07T10:47:40Z</time></trkpt><trkpt lat="46.08132177141495" lon="12.133592498939317"><ele>318.0</ele><time>2026-04-07T10:47:41Z</time></trkpt><trkpt lat="46.081492097765405" lon="12.133799491476795"><ele>318.0</ele><time>2026-04-07T10:47:42Z</time></trkpt><trkpt lat="46.0816589915758" lon="12.13402515969984"><ele>318.3333333333333</ele><time>2026-04-07T10:47:43Z</time></trkpt><trkpt lat="46.0818154217936" lon="12.134260181852891"><ele>318.66666666666663</ele><time>2026-04-07T10:47:44Z</time></trkpt><trkpt lat="46.081955038350536" lon="12.13449715518944"><ele>319.0</ele><time>2026-04-07T10:47:45Z</time></trkpt><trkpt lat="46.08208043893815" lon="12.13473881626414"><ele>319.0</ele><time>2026-04-07T10:47:46Z</time></trkpt><trkpt lat="46.08220666068249" lon="12.134998650819377"><ele>319.0</ele><time>2026-04-07T10:47:47Z</time></trkpt><trkpt lat="46.08232654249028" lon="12.135269865063627"><ele>319.0</ele><time>2026-04-07T10:47:48Z</time></trkpt><trkpt lat="46.08243625055406" lon="12.13554736499963"><ele>321.0</ele><time>2026-04-07T10:47:49Z</time></trkpt><trkpt lat="46.082539989162335" lon="12.135843696247052"><ele>323.0</ele><time>2026-04-07T10:47:50Z</time></trkpt><trkpt lat="46.08263247014377" lon="12.136140537014057"><ele>323.0</ele><time>2026-04-07T10:47:51Z</time></trkpt><trkpt lat="46.08271183700995" lon="12.136435795048673"><ele>323.0</ele><time>2026-04-07T10:47:52Z</time></trkpt><trkpt lat="46.08278122581329" lon="12.136747154569992"><ele>323.0</ele><time>2026-04-07T10:47:53Z</time></trkpt><trkpt lat="46.08284788692491" lon="12.137081576827512"><ele>324.0</ele><time>2026-04-07T10:47:54Z</time></trkpt><trkpt lat="46.08291550300878" lon="12.137426981279445"><ele>325.0</ele><time>2026-04-07T10:47:55Z</time></trkpt><trkpt lat="46.08296919260998" lon="12.13774995145739"><ele>325.0</ele><time>2026-04-07T10:47:56Z</time></trkpt><trkpt lat="46.08302626363041" lon="12.138085540305015"><ele>325.0</ele><time>2026-04-07T10:47:57Z</time></trkpt><trkpt lat="46.08309437978949" lon="12.138449043918682"><ele>326.0</ele><time>2026-04-07T10:47:58Z</time></trkpt><trkpt lat="46.083166268818005" lon="12.138837096316017"><ele>327.0</ele><time>2026-04-07T10:47:59Z</time></trkpt><trkpt lat="46.08323297331485" lon="12.139239001078307"><ele>326.5</ele><time>2026-04-07T10:48:00Z</time></trkpt><trkpt lat="46.08330030250627" lon="12.13966754738929"><ele>326.0</ele><time>2026-04-07T10:48:01Z</time></trkpt><trkpt lat="46.08337292084998" lon="12.140114727845074"><ele>326.0</ele><time>2026-04-07T10:48:02Z</time></trkpt><trkpt lat="46.083453018792646" lon="12.140582970403027"><ele>326.0</ele><time>2026-04-07T10:48:03Z</time></trkpt><trkpt lat="46.083535371113335" lon="12.141063646558372"><ele>328.0</ele><time>2026-04-07T10:48:04Z</time></trkpt><trkpt lat="46.08361887198254" lon="12.141555253601778"><ele>330.0</ele><time>2026-04-07T10:48:05Z</time></trkpt><trkpt lat="46.08370807814996" lon="12.142062539885295"><ele>329.5</ele><time>2026-04-07T10:48:06Z</time></trkpt><trkpt lat="46.08379834188282" lon="12.142581015645796"><ele>329.0</ele><time>2026-04-07T10:48:07Z</time></trkpt><trkpt lat="46.08388557988169" lon="12.143098153943585"><ele>330.0</ele><time>2026-04-07T10:48:08Z</time></trkpt><trkpt lat="46.08396462964169" lon="12.143565494365609"><ele>331.0</ele><time>2026-04-07T10:48:09Z</time></trkpt><trkpt lat="46.08404157599215" lon="12.144003834634024"><ele>329.0</ele><time>2026-04-07T10:48:10Z</time></trkpt><trkpt lat="46.0841199756759" lon="12.144424727413503"><ele>327.0</ele><time>2026-04-07T10:48:11Z</time></trkpt><trkpt lat="46.0841961993989" lon="12.144854686401928"><ele>328.0</ele><time>2026-04-07T10:48:12Z</time></trkpt><trkpt lat="46.084278628996216" lon="12.145277621252855"><ele>329.0</ele><time>2026-04-07T10:48:13Z</time></trkpt><trkpt lat="46.084374162173255" lon="12.145691521087254"><ele>330.0</ele><time>2026-04-07T10:48:14Z</time></trkpt><trkpt lat="46.084478762018136" lon="12.14611150886754"><ele>331.0</ele><time>2026-04-07T10:48:15Z</time></trkpt><trkpt lat="46.08459537424825" lon="12.146527954870168"><ele>331.5</ele><time>2026-04-07T10:48:16Z</time></trkpt><trkpt lat="46.08472311229764" lon="12.146950251211058"><ele>332.0</ele><time>2026-04-07T10:48:17Z</time></trkpt><trkpt lat="46.084866118044054" lon="12.147392970293835"><ele>328.0</ele><time>2026-04-07T10:48:18Z</time></trkpt><trkpt lat="46.08501261227241" lon="12.147843804944287"><ele>324.0</ele><time>2026-04-07T10:48:19Z</time></trkpt><trkpt lat="46.085163849110124" lon="12.148306919732747"><ele>323.5</ele><time>2026-04-07T10:48:20Z</time></trkpt><trkpt lat="46.08531851759907" lon="12.148781271128358"><ele>323.0</ele><time>2026-04-07T10:48:21.001Z</time></trkpt><trkpt lat="46.08547800373492" lon="12.149268247645379"><ele>323.0</ele><time>2026-04-07T10:48:22.001Z</time></trkpt><trkpt lat="46.08563236004065" lon="12.149739314827157"><ele>323.0</ele><time>2026-04-07T10:48:23.001Z</time></trkpt><trkpt lat="46.08577172421795" lon="12.150160269439233"><ele>328.5</ele><time>2026-04-07T10:48:24.001Z</time></trkpt><trkpt lat="46.085904545622846" lon="12.150563156069472"><ele>334.0</ele><time>2026-04-07T10:48:25.001Z</time></trkpt><trkpt lat="46.08602835935108" lon="12.15094412223567"><ele>336.0</ele><time>2026-04-07T10:48:26.001Z</time></trkpt><trkpt lat="46.0861496743222" lon="12.151305448995744"><ele>338.0</ele><time>2026-04-07T10:48:27.001Z</time></trkpt><trkpt lat="46.086272517828114" lon="12.151665683023078"><ele>339.5</ele><time>2026-04-07T10:48:28.001Z</time></trkpt><trkpt lat="46.08640044783727" lon="12.152030880706532"><ele>341.0</ele><time>2026-04-07T10:48:29.001Z</time></trkpt><trkpt lat="46.08652220413958" lon="12.152401791188542"><ele>340.0</ele><time>2026-04-07T10:48:30.001Z</time></trkpt><trkpt lat="46.08664219050498" lon="12.152777157947426"><ele>339.0</ele><time>2026-04-07T10:48:31.001Z</time></trkpt><trkpt lat="46.086764592699474" lon="12.15317275701226"><ele>337.5</ele><time>2026-04-07T10:48:32.001Z</time></trkpt><trkpt lat="46.08689228712697" lon="12.153591372927536"><ele>336.0</ele><time>2026-04-07T10:48:33.001Z</time></trkpt><trkpt lat="46.087023404309505" lon="12.154016333435958"><ele>337.0</ele><time>2026-04-07T10:48:34.001Z</time></trkpt><trkpt lat="46.087147267854995" lon="12.15440481234835"><ele>338.0</ele><time>2026-04-07T10:48:35.001Z</time></trkpt><trkpt lat="46.08727162919542" lon="12.154781549300408"><ele>336.5</ele><time>2026-04-07T10:48:36.001Z</time></trkpt><trkpt lat="46.087398750956396" lon="12.155159969888468"><ele>335.0</ele><time>2026-04-07T10:48:37.001Z</time></trkpt><trkpt lat="46.08752505744193" lon="12.15553838277884"><ele>329.5</ele><time>2026-04-07T10:48:38.001Z</time></trkpt><trkpt lat="46.087652466129654" lon="12.155927621282009"><ele>324.0</ele><time>2026-04-07T10:48:39.001Z</time></trkpt><trkpt lat="46.0877800907518" lon="12.156322434402322"><ele>324.5</ele><time>2026-04-07T10:48:40.001Z</time></trkpt><trkpt lat="46.08790471908368" lon="12.156707266046947"><ele>325.0</ele><time>2026-04-07T10:48:41.001Z</time></trkpt><trkpt lat="46.08802768046038" lon="12.157087921269005"><ele>325.5</ele><time>2026-04-07T10:48:42.001Z</time></trkpt><trkpt lat="46.088150808068505" lon="12.157471784301094"><ele>326.0</ele><time>2026-04-07T10:48:43.001Z</time></trkpt><trkpt lat="46.08827290988492" lon="12.157852447493967"><ele>327.5</ele><time>2026-04-07T10:48:44.001Z</time></trkpt><trkpt lat="46.08839337635804" lon="12.158228987988393"><ele>329.0</ele><time>2026-04-07T10:48:45.001Z</time></trkpt><trkpt lat="46.0885043972164" lon="12.15857948731731"><ele>329.0</ele><time>2026-04-07T10:48:46.001Z</time></trkpt><trkpt lat="46.088610747257455" lon="12.158909719098617"><ele>329.0</ele><time>2026-04-07T10:48:47.001Z</time></trkpt><trkpt lat="46.08871688721956" lon="12.1592316456387"><ele>330.0</ele><time>2026-04-07T10:48:48.001Z</time></trkpt><trkpt lat="46.08882466384142" lon="12.159557860114656"><ele>331.0</ele><time>2026-04-07T10:48:49.001Z</time></trkpt><trkpt lat="46.08893830457534" lon="12.159896525226998"><ele>332.0</ele><time>2026-04-07T10:48:50.001Z</time></trkpt><trkpt lat="46.08906030869123" lon="12.16024316729985"><ele>333.0</ele><time>2026-04-07T10:48:51.001Z</time></trkpt><trkpt lat="46.0891854317272" lon="12.16058056995979"><ele>336.0</ele><time>2026-04-07T10:48:52.001Z</time></trkpt><trkpt lat="46.08930278825789" lon="12.160877418240423"><ele>339.0</ele><time>2026-04-07T10:48:53.001Z</time></trkpt><trkpt lat="46.0894173283041" lon="12.161159826613119"><ele>339.0</ele><time>2026-04-07T10:48:54.001Z</time></trkpt><trkpt lat="46.089524384399" lon="12.16142589317462"><ele>339.0</ele><time>2026-04-07T10:48:55.001Z</time></trkpt><trkpt lat="46.08961786439709" lon="12.161669046386763"><ele>339.0</ele><time>2026-04-07T10:48:56.001Z</time></trkpt><trkpt lat="46.08969937552778" lon="12.161888924676385"><ele>339.25</ele><time>2026-04-07T10:48:57.001Z</time></trkpt><trkpt lat="46.08977415426672" lon="12.162091136283607"><ele>339.5</ele><time>2026-04-07T10:48:58.001Z</time></trkpt><trkpt lat="46.08984201996534" lon="12.16227162076913"><ele>339.75</ele><time>2026-04-07T10:48:59.001Z</time></trkpt><trkpt lat="46.089902559890504" lon="12.162423854317518"><ele>340.0</ele><time>2026-04-07T10:49:00.001Z</time></trkpt><trkpt lat="46.08995536053678" lon="12.162557485344635"><ele>340.0</ele><time>2026-04-07T10:49:01.001Z</time></trkpt><trkpt lat="46.08999629590726" lon="12.162677663294646"><ele>340.0</ele><time>2026-04-07T10:49:02.001Z</time></trkpt><trkpt lat="46.09002650075415" lon="12.162797836328577"><ele>340.0</ele><time>2026-04-07T10:49:03.001Z</time></trkpt><trkpt lat="46.090047126023464" lon="12.162933606483033"><ele>340.0</ele><time>2026-04-07T10:49:04.001Z</time></trkpt><trkpt lat="46.09003674848069" lon="12.163063400095686"><ele>340.0</ele><time>2026-04-07T10:49:05.001Z</time></trkpt><trkpt lat="46.09000597531508" lon="12.163185232510843"><ele>340.0</ele><time>2026-04-07T10:49:06.001Z</time></trkpt><trkpt lat="46.08995619111661" lon="12.163288320382954"><ele>340.0</ele><time>2026-04-07T10:49:07.001Z</time></trkpt><trkpt lat="46.08989080372129" lon="12.163379154161882"><ele>340.0</ele><time>2026-04-07T10:49:08.001Z</time></trkpt><trkpt lat="46.08982055960334" lon="12.163459365965997"><ele>340.0</ele><time>2026-04-07T10:49:09.001Z</time></trkpt><trkpt lat="46.089728048655125" lon="12.163455995536026"><ele>340.0</ele><time>2026-04-07T10:49:10.001Z</time></trkpt><trkpt lat="46.0896384990108" lon="12.163450444555338"><ele>339.2</ele><time>2026-04-07T10:49:11.001Z</time></trkpt><trkpt lat="46.08954363350085" lon="12.163402250147472"><ele>338.4</ele><time>2026-04-07T10:49:12.001Z</time></trkpt><trkpt lat="46.08946452371673" lon="12.16331451827497"><ele>337.6</ele><time>2026-04-07T10:49:13.001Z</time></trkpt><trkpt lat="46.08941445774397" lon="12.163200497997213"><ele>336.8</ele><time>2026-04-07T10:49:14.001Z</time></trkpt><trkpt lat="46.08938684526178" lon="12.163078064422455"><ele>336.0</ele><time>2026-04-07T10:49:15.001Z</time></trkpt><trkpt lat="46.08937992577408" lon="12.162954492141267"><ele>336.0</ele><time>2026-04-07T10:49:16.001Z</time></trkpt><trkpt lat="46.089404069329206" lon="12.16283654543862"><ele>336.0</ele><time>2026-04-07T10:49:17.001Z</time></trkpt><trkpt lat="46.089428514441536" lon="12.162743413849872"><ele>336.0</ele><time>2026-04-07T10:49:18.001Z</time></trkpt><trkpt lat="46.0894773436525" lon="12.16263558471008"><ele>336.0</ele><time>2026-04-07T10:49:20.001Z</time></trkpt><trkpt lat="46.08954622834565" lon="12.162549961743569"><ele>336.0</ele><time>2026-04-07T10:49:22.001Z</time></trkpt><trkpt lat="46.08951207867043" lon="12.162384102157631"><ele>336.20000000000005</ele><time>2026-04-07T10:49:23.001Z</time></trkpt><trkpt lat="46.08949056420455" lon="12.162277468111705"><ele>336.40000000000003</ele><time>2026-04-07T10:49:24.001Z</time></trkpt><trkpt lat="46.08944201515446" lon="12.162119636958177"><ele>336.6</ele><time>2026-04-07T10:49:25.001Z</time></trkpt><trkpt lat="46.08939975438501" lon="12.161952702545294"><ele>336.8</ele><time>2026-04-07T10:49:26Z</time></trkpt><trkpt lat="46.08937649955217" lon="12.161774122709707"><ele>337.0</ele><time>2026-04-07T10:49:27Z</time></trkpt><trkpt lat="46.08935809219304" lon="12.161563274167968"><ele>337.5</ele><time>2026-04-07T10:49:28Z</time></trkpt><trkpt lat="46.08933347300443" lon="12.161387097800931"><ele>338.0</ele><time>2026-04-07T10:49:29Z</time></trkpt><trkpt lat="46.08929374032897" lon="12.16122747056956"><ele>338.5</ele><time>2026-04-07T10:49:30Z</time></trkpt><trkpt lat="46.08925683718263" lon="12.16105956359403"><ele>339.0</ele><time>2026-04-07T10:49:31Z</time></trkpt><trkpt lat="46.089176042641164" lon="12.160930262159505"><ele>339.0</ele><time>2026-04-07T10:49:32Z</time></trkpt><trkpt lat="46.08909627005685" lon="12.160790425040192"><ele>339.0</ele><time>2026-04-07T10:49:33Z</time></trkpt><trkpt lat="46.088995180176795" lon="12.160662983877238"><ele>339.0</ele><time>2026-04-07T10:49:34Z</time></trkpt><trkpt lat="46.088878013997636" lon="12.160554254135366"><ele>339.0</ele><time>2026-04-07T10:49:35Z</time></trkpt><trkpt lat="46.088742098216386" lon="12.16047827928841"><ele>337.0</ele><time>2026-04-07T10:49:36Z</time></trkpt><trkpt lat="46.08859006926666" lon="12.160427894196449"><ele>335.0</ele><time>2026-04-07T10:49:37Z</time></trkpt><trkpt lat="46.08843141582606" lon="12.160388049782759"><ele>333.0</ele><time>2026-04-07T10:49:38Z</time></trkpt><trkpt lat="46.08828523149421" lon="12.160357504918478"><ele>332.75</ele><time>2026-04-07T10:49:39Z</time></trkpt><trkpt lat="46.08814052986565" lon="12.16031972726526"><ele>332.5</ele><time>2026-04-07T10:49:40Z</time></trkpt><trkpt lat="46.08799943760229" lon="12.16027515161872"><ele>332.25</ele><time>2026-04-07T10:49:41Z</time></trkpt><trkpt lat="46.08786690251455" lon="12.160226879477165"><ele>332.0</ele><time>2026-04-07T10:49:42Z</time></trkpt><trkpt lat="46.08773277228596" lon="12.160139078447457"><ele>332.0</ele><time>2026-04-07T10:49:43Z</time></trkpt><trkpt lat="46.08758660023151" lon="12.160014456464879"><ele>332.0</ele><time>2026-04-07T10:49:44Z</time></trkpt><trkpt lat="46.08746189191735" lon="12.159886377363948"><ele>332.0</ele><time>2026-04-07T10:49:45Z</time></trkpt><trkpt lat="46.087354290276956" lon="12.159758195763525"><ele>333.0</ele><time>2026-04-07T10:49:46Z</time></trkpt><trkpt lat="46.08728066450632" lon="12.159652844808576"><ele>334.0</ele><time>2026-04-07T10:49:47Z</time></trkpt><trkpt lat="46.087228107661964" lon="12.159566909316347"><ele>335.0</ele><time>2026-04-07T10:49:48Z</time></trkpt><trkpt lat="46.08718925798402" lon="12.15948867804701"><ele>336.0</ele><time>2026-04-07T10:49:49Z</time></trkpt><trkpt lat="46.087137917428564" lon="12.159356062674954"><ele>337.0</ele><time>2026-04-07T10:49:51Z</time></trkpt><trkpt lat="46.08698554984582" lon="12.159388223454867"><ele>337.0</ele><time>2026-04-07T10:49:53Z</time></trkpt><trkpt lat="46.086919833406576" lon="12.159452814627121"><ele>337.0</ele><time>2026-04-07T10:49:54Z</time></trkpt><trkpt lat="46.08684773470209" lon="12.15953422925867"><ele>337.0</ele><time>2026-04-07T10:49:55Z</time></trkpt><trkpt lat="46.086790097561455" lon="12.159624844895438"><ele>337.0</ele><time>2026-04-07T10:49:56Z</time></trkpt><trkpt lat="46.08675837257727" lon="12.159736816254403"><ele>337.0</ele><time>2026-04-07T10:49:57Z</time></trkpt><trkpt lat="46.08673322595122" lon="12.159883592018996"><ele>337.0</ele><time>2026-04-07T10:49:58Z</time></trkpt><trkpt lat="46.08670178388064" lon="12.160053950732774"><ele>336.8</ele><time>2026-04-07T10:49:59Z</time></trkpt><trkpt lat="46.08666588483482" lon="12.16021575201081"><ele>336.6</ele><time>2026-04-07T10:50:00Z</time></trkpt><trkpt lat="46.0866319685032" lon="12.160353957373303"><ele>336.40000000000003</ele><time>2026-04-07T10:50:01Z</time></trkpt><trkpt lat="46.08658924101062" lon="12.16046743754406"><ele>336.20000000000005</ele><time>2026-04-07T10:50:02Z</time></trkpt><trkpt lat="46.086528171546135" lon="12.160566627694426"><ele>336.0</ele><time>2026-04-07T10:50:03Z</time></trkpt><trkpt lat="46.0864431120653" lon="12.160647365337896"><ele>337.75</ele><time>2026-04-07T10:50:04Z</time></trkpt><trkpt lat="46.086338280325535" lon="12.160720534464078"><ele>339.5</ele><time>2026-04-07T10:50:05Z</time></trkpt><trkpt lat="46.086217508792814" lon="12.160805128174667"><ele>341.25</ele><time>2026-04-07T10:50:06Z</time></trkpt><trkpt lat="46.086112218251564" lon="12.160878013974784"><ele>343.0</ele><time>2026-04-07T10:50:07Z</time></trkpt><trkpt lat="46.08602315509453" lon="12.160921930645218"><ele>343.0</ele><time>2026-04-07T10:50:08Z</time></trkpt><trkpt lat="46.08593437283126" lon="12.160928454091032"><ele>343.0</ele><time>2026-04-07T10:50:09Z</time></trkpt><trkpt lat="46.08584973030597" lon="12.160901468865047"><ele>343.0</ele><time>2026-04-07T10:50:10Z</time></trkpt><trkpt lat="46.08576747611629" lon="12.160834735113845"><ele>343.0</ele><time>2026-04-07T10:50:11Z</time></trkpt><trkpt lat="46.08565038619674" lon="12.160736423574363"><ele>343.0</ele><time>2026-04-07T10:50:12Z</time></trkpt><trkpt lat="46.085503902750254" lon="12.16062480012005"><ele>344.3333333333333</ele><time>2026-04-07T10:50:13Z</time></trkpt><trkpt lat="46.08536726083511" lon="12.160526963629287"><ele>345.6666666666667</ele><time>2026-04-07T10:50:14Z</time></trkpt><trkpt lat="46.08522299549619" lon="12.16041609697552"><ele>347.0</ele><time>2026-04-07T10:50:15Z</time></trkpt><trkpt lat="46.085065680285915" lon="12.160305103695045"><ele>349.0</ele><time>2026-04-07T10:50:16Z</time></trkpt><trkpt lat="46.08490482484628" lon="12.160206657562183"><ele>351.0</ele><time>2026-04-07T10:50:17Z</time></trkpt><trkpt lat="46.084766253057765" lon="12.160122543427201"><ele>353.0</ele><time>2026-04-07T10:50:18Z</time></trkpt><trkpt lat="46.084638691029596" lon="12.160042424295648"><ele>353.0</ele><time>2026-04-07T10:50:19Z</time></trkpt><trkpt lat="46.08451870485612" lon="12.15997405626778"><ele>353.0</ele><time>2026-04-07T10:50:20Z</time></trkpt><trkpt lat="46.08438624030128" lon="12.159899950042371"><ele>353.0</ele><time>2026-04-07T10:50:21Z</time></trkpt><trkpt lat="46.08425303511204" lon="12.159824160921621"><ele>353.0</ele><time>2026-04-07T10:50:22Z</time></trkpt><trkpt lat="46.08414347172645" lon="12.159759010088433"><ele>354.4</ele><time>2026-04-07T10:50:23.001Z</time></trkpt><trkpt lat="46.08405026133557" lon="12.159716107421698"><ele>355.79999999999995</ele><time>2026-04-07T10:50:24.001Z</time></trkpt><trkpt lat="46.08396279077081" lon="12.159704576091135"><ele>357.2</ele><time>2026-04-07T10:50:25.001Z</time></trkpt><trkpt lat="46.08387466044888" lon="12.15973085539526"><ele>358.6</ele><time>2026-04-07T10:50:26.001Z</time></trkpt><trkpt lat="46.083791748287474" lon="12.15978814440706"><ele>360.0</ele><time>2026-04-07T10:50:27.001Z</time></trkpt><trkpt lat="46.08372051492962" lon="12.159870749864558"><ele>360.5</ele><time>2026-04-07T10:50:28.001Z</time></trkpt><trkpt lat="46.08366721023303" lon="12.159980169867104"><ele>361.0</ele><time>2026-04-07T10:50:29.001Z</time></trkpt><trkpt lat="46.083620408152676" lon="12.160115873201027"><ele>361.5</ele><time>2026-04-07T10:50:30.001Z</time></trkpt><trkpt lat="46.08356477884961" lon="12.160281956887369"><ele>362.0</ele><time>2026-04-07T10:50:31.001Z</time></trkpt><trkpt lat="46.08350324263402" lon="12.160439672539614"><ele>362.0</ele><time>2026-04-07T10:50:32.001Z</time></trkpt><trkpt lat="46.08344729355262" lon="12.160556047897272"><ele>362.0</ele><time>2026-04-07T10:50:33.001Z</time></trkpt><trkpt lat="46.08337692979518" lon="12.160640525935293"><ele>362.0</ele><time>2026-04-07T10:50:34.001Z</time></trkpt><trkpt lat="46.08328719680318" lon="12.160715150199284"><ele>362.0</ele><time>2026-04-07T10:50:35.001Z</time></trkpt><trkpt lat="46.08317863567853" lon="12.160790503605206"><ele>362.0</ele><time>2026-04-07T10:50:36.001Z</time></trkpt><trkpt lat="46.083074412602976" lon="12.160849850004274"><ele>362.40000000000003</ele><time>2026-04-07T10:50:37.001Z</time></trkpt><trkpt lat="46.08298093814501" lon="12.160882730072917"><ele>362.8</ele><time>2026-04-07T10:50:38.001Z</time></trkpt><trkpt lat="46.08289621071755" lon="12.160881897387132"><ele>363.2</ele><time>2026-04-07T10:50:39.001Z</time></trkpt><trkpt lat="46.0827980324843" lon="12.160862813938222"><ele>363.6</ele><time>2026-04-07T10:50:40.001Z</time></trkpt><trkpt lat="46.08268049754337" lon="12.160831105001302"><ele>364.0</ele><time>2026-04-07T10:50:41.001Z</time></trkpt><trkpt lat="46.08254525770408" lon="12.160788770258259"><ele>364.0</ele><time>2026-04-07T10:50:42.001Z</time></trkpt><trkpt lat="46.08243552976494" lon="12.16075816638595"><ele>364.0</ele><time>2026-04-07T10:50:43.001Z</time></trkpt><trkpt lat="46.08232718847534" lon="12.160739659250458"><ele>364.0</ele><time>2026-04-07T10:50:44.001Z</time></trkpt><trkpt lat="46.082214251442046" lon="12.160735714738896"><ele>364.0</ele><time>2026-04-07T10:50:45.001Z</time></trkpt><trkpt lat="46.08210903215401" lon="12.160746562960549"><ele>364.0</ele><time>2026-04-07T10:50:46.001Z</time></trkpt><trkpt lat="46.082017853878625" lon="12.160779688781657"><ele>363.25</ele><time>2026-04-07T10:50:47.001Z</time></trkpt><trkpt lat="46.08192859020609" lon="12.160847185545933"><ele>362.5</ele><time>2026-04-07T10:50:48.001Z</time></trkpt><trkpt lat="46.081848836176206" lon="12.16095261728338"><ele>361.75</ele><time>2026-04-07T10:50:49.001Z</time></trkpt><trkpt lat="46.08176355942471" lon="12.161094255249072"><ele>361.0</ele><time>2026-04-07T10:50:50.001Z</time></trkpt><trkpt lat="46.08167824052587" lon="12.161242666472287"><ele>361.0</ele><time>2026-04-07T10:50:51.001Z</time></trkpt><trkpt lat="46.08161368872601" lon="12.161400356366189"><ele>361.0</ele><time>2026-04-07T10:50:52.001Z</time></trkpt><trkpt lat="46.08155396596677" lon="12.161581544911975"><ele>361.0</ele><time>2026-04-07T10:50:53.001Z</time></trkpt><trkpt lat="46.081480795382475" lon="12.161790565980349"><ele>361.0</ele><time>2026-04-07T10:50:54.001Z</time></trkpt><trkpt lat="46.08141737299134" lon="12.161991671617564"><ele>360.66666666666663</ele><time>2026-04-07T10:50:55.001Z</time></trkpt><trkpt lat="46.08136440958997" lon="12.162182773371692"><ele>360.3333333333333</ele><time>2026-04-07T10:50:56.001Z</time></trkpt><trkpt lat="46.08131669366996" lon="12.162386646655136"><ele>360.0</ele><time>2026-04-07T10:50:57.001Z</time></trkpt><trkpt lat="46.081256950371" lon="12.162610639369314"><ele>364.3333333333333</ele><time>2026-04-07T10:50:58.001Z</time></trkpt><trkpt lat="46.081182173071085" lon="12.16284100918536"><ele>368.66666666666663</ele><time>2026-04-07T10:50:59.001Z</time></trkpt><trkpt lat="46.08109373198436" lon="12.16306513230293"><ele>373.0</ele><time>2026-04-07T10:51:00.001Z</time></trkpt><trkpt lat="46.08101103892126" lon="12.163279770487726"><ele>373.66666666666663</ele><time>2026-04-07T10:51:01.001Z</time></trkpt><trkpt lat="46.080942198989035" lon="12.163477686244576"><ele>374.3333333333333</ele><time>2026-04-07T10:51:02.001Z</time></trkpt><trkpt lat="46.08088087079918" lon="12.163688166474701"><ele>375.0</ele><time>2026-04-07T10:51:03.001Z</time></trkpt><trkpt lat="46.08082662387288" lon="12.163920937933018"><ele>375.6666666666667</ele><time>2026-04-07T10:51:04.001Z</time></trkpt><trkpt lat="46.08077683776337" lon="12.16415682464536"><ele>376.33333333333337</ele><time>2026-04-07T10:51:05.001Z</time></trkpt><trkpt lat="46.08072095167565" lon="12.164356491620065"><ele>377.0</ele><time>2026-04-07T10:51:06.001Z</time></trkpt><trkpt lat="46.080658594291876" lon="12.164542693823094"><ele>377.0</ele><time>2026-04-07T10:51:07.001Z</time></trkpt><trkpt lat="46.080604297591925" lon="12.164715697031069"><ele>377.0</ele><time>2026-04-07T10:51:08.001Z</time></trkpt><trkpt lat="46.080579577669546" lon="12.164880821471527"><ele>377.0</ele><time>2026-04-07T10:51:09.001Z</time></trkpt><trkpt lat="46.080578451213924" lon="12.16505398283775"><ele>377.0</ele><time>2026-04-07T10:51:10.001Z</time></trkpt><trkpt lat="46.08059211317182" lon="12.165265218795193"><ele>378.33333333333337</ele><time>2026-04-07T10:51:11.001Z</time></trkpt><trkpt lat="46.08061876240765" lon="12.16550265907571"><ele>379.6666666666667</ele><time>2026-04-07T10:51:12.001Z</time></trkpt><trkpt lat="46.08064113354413" lon="12.165729159394628"><ele>381.0</ele><time>2026-04-07T10:51:13.001Z</time></trkpt><trkpt lat="46.08063338538997" lon="12.165943682026818"><ele>381.5</ele><time>2026-04-07T10:51:14.001Z</time></trkpt><trkpt lat="46.080610621371356" lon="12.166135929752755"><ele>382.0</ele><time>2026-04-07T10:51:15.001Z</time></trkpt><trkpt lat="46.08058118758802" lon="12.16630463807974"><ele>382.5</ele><time>2026-04-07T10:51:16.001Z</time></trkpt><trkpt lat="46.08053621489618" lon="12.166485801931781"><ele>383.0</ele><time>2026-04-07T10:51:17.001Z</time></trkpt><trkpt lat="46.08048124639699" lon="12.166674394858488"><ele>383.33333333333337</ele><time>2026-04-07T10:51:18.001Z</time></trkpt><trkpt lat="46.08041158582425" lon="12.166882158402576"><ele>383.6666666666667</ele><time>2026-04-07T10:51:19.001Z</time></trkpt><trkpt lat="46.08032678176483" lon="12.16711198916146"><ele>384.0</ele><time>2026-04-07T10:51:20.001Z</time></trkpt><trkpt lat="46.08023604683971" lon="12.167364911323686"><ele>384.0</ele><time>2026-04-07T10:51:21.001Z</time></trkpt><trkpt lat="46.08015614821045" lon="12.167598744807869"><ele>384.0</ele><time>2026-04-07T10:51:22.001Z</time></trkpt><trkpt lat="46.080077999465374" lon="12.167854792837145"><ele>384.0</ele><time>2026-04-07T10:51:23.001Z</time></trkpt><trkpt lat="46.08001020901417" lon="12.168098174826717"><ele>385.0</ele><time>2026-04-07T10:51:24.001Z</time></trkpt><trkpt lat="46.07995664249769" lon="12.168336265808632"><ele>386.0</ele><time>2026-04-07T10:51:25.001Z</time></trkpt><trkpt lat="46.07991633114404" lon="12.168582950782714"><ele>387.0</ele><time>2026-04-07T10:51:26.001Z</time></trkpt><trkpt lat="46.07989310473008" lon="12.168827586876516"><ele>388.33333333333337</ele><time>2026-04-07T10:51:27.001Z</time></trkpt><trkpt lat="46.07988275844877" lon="12.169064761591692"><ele>389.6666666666667</ele><time>2026-04-07T10:51:28.001Z</time></trkpt><trkpt lat="46.079884464242866" lon="12.169304828903531"><ele>391.0</ele><time>2026-04-07T10:51:29.001Z</time></trkpt><trkpt lat="46.07990387645816" lon="12.169555815594597"><ele>390.6666666666667</ele><time>2026-04-07T10:51:30.001Z</time></trkpt><trkpt lat="46.07994024910782" lon="12.169812899775113"><ele>390.33333333333337</ele><time>2026-04-07T10:51:31.001Z</time></trkpt><trkpt lat="46.079963855548115" lon="12.170038581719881"><ele>390.0</ele><time>2026-04-07T10:51:32Z</time></trkpt><trkpt lat="46.07996475410541" lon="12.170242940568075"><ele>390.75</ele><time>2026-04-07T10:51:33Z</time></trkpt><trkpt lat="46.079946417140384" lon="12.17042852025662"><ele>391.5</ele><time>2026-04-07T10:51:34Z</time></trkpt><trkpt lat="46.079910369487216" lon="12.170608021216273"><ele>392.25</ele><time>2026-04-07T10:51:35Z</time></trkpt><trkpt lat="46.07985328855696" lon="12.170799543999728"><ele>393.0</ele><time>2026-04-07T10:51:36Z</time></trkpt><trkpt lat="46.07978500215572" lon="12.171008663596186"><ele>395.0</ele><time>2026-04-07T10:51:37Z</time></trkpt><trkpt lat="46.07972943811131" lon="12.171220832980632"><ele>397.0</ele><time>2026-04-07T10:51:38Z</time></trkpt><trkpt lat="46.07969370159174" lon="12.171424690095545"><ele>399.0</ele><time>2026-04-07T10:51:39Z</time></trkpt><trkpt lat="46.079675495462205" lon="12.171644780220937"><ele>399.33333333333337</ele><time>2026-04-07T10:51:40Z</time></trkpt><trkpt lat="46.07966751281913" lon="12.171877950493435"><ele>399.6666666666667</ele><time>2026-04-07T10:51:41Z</time></trkpt><trkpt lat="46.079670591816694" lon="12.172119672814036"><ele>400.0</ele><time>2026-04-07T10:51:42Z</time></trkpt><trkpt lat="46.07969198826695" lon="12.172382628047867"><ele>401.6666666666667</ele><time>2026-04-07T10:51:43Z</time></trkpt><trkpt lat="46.07972051091043" lon="12.172662837616137"><ele>403.33333333333337</ele><time>2026-04-07T10:51:44Z</time></trkpt><trkpt lat="46.07973969645556" lon="12.17290950906735"><ele>405.0</ele><time>2026-04-07T10:51:45Z</time></trkpt><trkpt lat="46.07975240930014" lon="12.173114898601698"><ele>405.8</ele><time>2026-04-07T10:51:46Z</time></trkpt><trkpt lat="46.07976233999893" lon="12.173291798309988"><ele>406.6</ele><time>2026-04-07T10:51:47Z</time></trkpt><trkpt lat="46.07975844836495" lon="12.173442289431545"><ele>407.4</ele><time>2026-04-07T10:51:48Z</time></trkpt><trkpt lat="46.07973299114979" lon="12.173572329257167"><ele>408.2</ele><time>2026-04-07T10:51:49Z</time></trkpt><trkpt lat="46.079677585714514" lon="12.173708519901073"><ele>409.0</ele><time>2026-04-07T10:51:50Z</time></trkpt><trkpt lat="46.07960699450701" lon="12.173867710388423"><ele>411.0</ele><time>2026-04-07T10:51:51Z</time></trkpt><trkpt lat="46.07952937461975" lon="12.174043802038703"><ele>413.0</ele><time>2026-04-07T10:51:52Z</time></trkpt><trkpt lat="46.07944395040495" lon="12.174196322734268"><ele>415.0</ele><time>2026-04-07T10:51:53Z</time></trkpt><trkpt lat="46.07935665031678" lon="12.174334511581819"><ele>417.0</ele><time>2026-04-07T10:51:54Z</time></trkpt><trkpt lat="46.07927267012386" lon="12.174470708259674"><ele>417.0</ele><time>2026-04-07T10:51:55Z</time></trkpt><trkpt lat="46.079189395303885" lon="12.17460225900809"><ele>417.0</ele><time>2026-04-07T10:51:56Z</time></trkpt><trkpt lat="46.07912315909614" lon="12.174709193667576"><ele>417.0</ele><time>2026-04-07T10:51:57Z</time></trkpt><trkpt lat="46.07906526607753" lon="12.174805133559424"><ele>417.0</ele><time>2026-04-07T10:51:58Z</time></trkpt><trkpt lat="46.07902692107113" lon="12.174883985556045"><ele>417.0</ele><time>2026-04-07T10:51:59Z</time></trkpt><trkpt lat="46.07898870267591" lon="12.174985914255434"><ele>415.75</ele><time>2026-04-07T10:52:00Z</time></trkpt><trkpt lat="46.0789597678155" lon="12.175121887579765"><ele>414.5</ele><time>2026-04-07T10:52:01Z</time></trkpt><trkpt lat="46.07894303135158" lon="12.175287854178226"><ele>413.25</ele><time>2026-04-07T10:52:02Z</time></trkpt><trkpt lat="46.07893309841064" lon="12.175484810139888"><ele>412.0</ele><time>2026-04-07T10:52:03Z</time></trkpt><trkpt lat="46.07893381155376" lon="12.175638135477108"><ele>413.1666666666667</ele><time>2026-04-07T10:52:04Z</time></trkpt><trkpt lat="46.078938022294786" lon="12.175777386420359"><ele>414.33333333333337</ele><time>2026-04-07T10:52:05Z</time></trkpt><trkpt lat="46.0789315633915" lon="12.175891954998619"><ele>415.5</ele><time>2026-04-07T10:52:06Z</time></trkpt><trkpt lat="46.07892039725927" lon="12.175992567999996"><ele>416.66666666666663</ele><time>2026-04-07T10:52:07Z</time></trkpt><trkpt lat="46.07891810585354" lon="12.176103506605685"><ele>417.8333333333333</ele><time>2026-04-07T10:52:08Z</time></trkpt><trkpt lat="46.07892785973111" lon="12.176227450883951"><ele>419.0</ele><time>2026-04-07T10:52:09Z</time></trkpt><trkpt lat="46.07894766215833" lon="12.176360082475092"><ele>419.5</ele><time>2026-04-07T10:52:10Z</time></trkpt><trkpt lat="46.07895916917488" lon="12.176530110747102"><ele>420.0</ele><time>2026-04-07T10:52:11Z</time></trkpt><trkpt lat="46.07899688269105" lon="12.176726384692685"><ele>420.5</ele><time>2026-04-07T10:52:12Z</time></trkpt><trkpt lat="46.07900615094505" lon="12.176890288527716"><ele>421.0</ele><time>2026-04-07T10:52:13Z</time></trkpt><trkpt lat="46.07902272167947" lon="12.17703336690512"><ele>421.0</ele><time>2026-04-07T10:52:14Z</time></trkpt><trkpt lat="46.079030789071666" lon="12.177157378865529"><ele>421.0</ele><time>2026-04-07T10:52:15Z</time></trkpt><trkpt lat="46.07904642425985" lon="12.177329445948406"><ele>421.0</ele><time>2026-04-07T10:52:16Z</time></trkpt><trkpt lat="46.079055061615925" lon="12.177551324140502"><ele>421.0</ele><time>2026-04-07T10:52:17Z</time></trkpt><trkpt lat="46.07905679043892" lon="12.177738200351802"><ele>421.75</ele><time>2026-04-07T10:52:18Z</time></trkpt><trkpt lat="46.07905392669438" lon="12.177932708750566"><ele>422.5</ele><time>2026-04-07T10:52:19Z</time></trkpt><trkpt lat="46.07905523363725" lon="12.178147295668577"><ele>423.25</ele><time>2026-04-07T10:52:20Z</time></trkpt><trkpt lat="46.07905243960834" lon="12.178379045000701"><ele>424.0</ele><time>2026-04-07T10:52:21Z</time></trkpt><trkpt lat="46.079043590414685" lon="12.178611658197223"><ele>425.6666666666667</ele><time>2026-04-07T10:52:22Z</time></trkpt><trkpt lat="46.07904107663311" lon="12.178837830138812"><ele>427.33333333333337</ele><time>2026-04-07T10:52:23Z</time></trkpt><trkpt lat="46.07903304574009" lon="12.179051391603183"><ele>429.0</ele><time>2026-04-07T10:52:24Z</time></trkpt><trkpt lat="46.07899828007703" lon="12.179257299688677"><ele>430.66666666666663</ele><time>2026-04-07T10:52:25Z</time></trkpt><trkpt lat="46.07893120633658" lon="12.179476736426816"><ele>432.3333333333333</ele><time>2026-04-07T10:52:26Z</time></trkpt><trkpt lat="46.07884012336531" lon="12.17972237616348"><ele>434.0</ele><time>2026-04-07T10:52:27Z</time></trkpt><trkpt lat="46.07873969245211" lon="12.179958386192208"><ele>434.66666666666663</ele><time>2026-04-07T10:52:28Z</time></trkpt><trkpt lat="46.0786407048467" lon="12.18018028094882"><ele>435.33333333333337</ele><time>2026-04-07T10:52:29Z</time></trkpt><trkpt lat="46.07853462136639" lon="12.180444220959364"><ele>436.0</ele><time>2026-04-07T10:52:30Z</time></trkpt><trkpt lat="46.07843308020055" lon="12.180694796344937"><ele>437.6666666666667</ele><time>2026-04-07T10:52:31Z</time></trkpt><trkpt lat="46.07831137876853" lon="12.180933508246087"><ele>439.33333333333337</ele><time>2026-04-07T10:52:32Z</time></trkpt><trkpt lat="46.07817070229259" lon="12.181191068245187"><ele>441.0</ele><time>2026-04-07T10:52:33Z</time></trkpt><trkpt lat="46.07804144737942" lon="12.18143660705084"><ele>442.66666666666663</ele><time>2026-04-07T10:52:34Z</time></trkpt><trkpt lat="46.07793656628153" lon="12.181675000367706"><ele>444.3333333333333</ele><time>2026-04-07T10:52:35Z</time></trkpt><trkpt lat="46.07784105562655" lon="12.181946674511176"><ele>446.0</ele><time>2026-04-07T10:52:36Z</time></trkpt><trkpt lat="46.0777471236759" lon="12.182203307064404"><ele>446.3333333333333</ele><time>2026-04-07T10:52:37Z</time></trkpt><trkpt lat="46.077644149119244" lon="12.182418881839947"><ele>446.66666666666663</ele><time>2026-04-07T10:52:38Z</time></trkpt><trkpt lat="46.07754138832323" lon="12.182602496650462"><ele>447.0</ele><time>2026-04-07T10:52:39Z</time></trkpt><trkpt lat="46.07744643846415" lon="12.182752227524498"><ele>448.20000000000005</ele><time>2026-04-07T10:52:40Z</time></trkpt><trkpt lat="46.07737261294867" lon="12.18288230739032"><ele>449.40000000000003</ele><time>2026-04-07T10:52:41Z</time></trkpt><trkpt lat="46.07731684847866" lon="12.183010023976792"><ele>450.59999999999997</ele><time>2026-04-07T10:52:42.001Z</time></trkpt><trkpt lat="46.077245429054926" lon="12.183126432874941"><ele>451.79999999999995</ele><time>2026-04-07T10:52:43.001Z</time></trkpt><trkpt lat="46.077159832648334" lon="12.183218533896238"><ele>453.0</ele><time>2026-04-07T10:52:44.001Z</time></trkpt><trkpt lat="46.07707849875457" lon="12.18329809992314"><ele>453.5</ele><time>2026-04-07T10:52:45.001Z</time></trkpt><trkpt lat="46.076997332608066" lon="12.183368620214244"><ele>454.0</ele><time>2026-04-07T10:52:46.001Z</time></trkpt><trkpt lat="46.0768831603994" lon="12.183452396961368"><ele>454.5</ele><time>2026-04-07T10:52:47.001Z</time></trkpt><trkpt lat="46.07675683999237" lon="12.183536424908832"><ele>455.0</ele><time>2026-04-07T10:52:48.001Z</time></trkpt><trkpt lat="46.07662035389755" lon="12.183627530018464"><ele>455.25</ele><time>2026-04-07T10:52:49.001Z</time></trkpt><trkpt lat="46.07648595258686" lon="12.18370508101256"><ele>455.5</ele><time>2026-04-07T10:52:50.001Z</time></trkpt><trkpt lat="46.076351080958986" lon="12.183736620673452"><ele>455.75</ele><time>2026-04-07T10:52:51.001Z</time></trkpt><trkpt lat="46.076203652634" lon="12.183745862740953"><ele>456.0</ele><time>2026-04-07T10:52:52.001Z</time></trkpt><trkpt lat="46.07605153089539" lon="12.183758479787123"><ele>456.0</ele><time>2026-04-07T10:52:53.001Z</time></trkpt><trkpt lat="46.07589905749775" lon="12.183789451461406"><ele>456.0</ele><time>2026-04-07T10:52:54.001Z</time></trkpt><trkpt lat="46.07574002136089" lon="12.183829047071074"><ele>456.0</ele><time>2026-04-07T10:52:55.001Z</time></trkpt><trkpt lat="46.07558150609793" lon="12.18385209488154"><ele>456.5</ele><time>2026-04-07T10:52:56.001Z</time></trkpt><trkpt lat="46.075434799816136" lon="12.18386104182345"><ele>457.0</ele><time>2026-04-07T10:52:57.001Z</time></trkpt><trkpt lat="46.07529637235814" lon="12.183868440488675"><ele>457.5</ele><time>2026-04-07T10:52:58.001Z</time></trkpt><trkpt lat="46.07515855675288" lon="12.183866367344358"><ele>458.0</ele><time>2026-04-07T10:52:59.001Z</time></trkpt><trkpt lat="46.07503038653316" lon="12.183807019766682"><ele>455.0</ele><time>2026-04-07T10:53:00.001Z</time></trkpt><trkpt lat="46.07490268047888" lon="12.183772143491353"><ele>452.0</ele><time>2026-04-07T10:53:01.001Z</time></trkpt><trkpt lat="46.074792302381546" lon="12.18374084062611"><ele>449.0</ele><time>2026-04-07T10:53:02.001Z</time></trkpt><trkpt lat="46.07468182011427" lon="12.183731178753444"><ele>446.0</ele><time>2026-04-07T10:53:03.001Z</time></trkpt><trkpt lat="46.07457791453853" lon="12.18381709309469"><ele>446.0</ele><time>2026-04-07T10:53:04.001Z</time></trkpt><trkpt lat="46.07447605362926" lon="12.183918406136995"><ele>446.0</ele><time>2026-04-07T10:53:05.001Z</time></trkpt><trkpt lat="46.07436918012611" lon="12.184043229469465"><ele>446.0</ele><time>2026-04-07T10:53:06.001Z</time></trkpt><trkpt lat="46.07424123778691" lon="12.184194607598467"><ele>446.0</ele><time>2026-04-07T10:53:07.001Z</time></trkpt><trkpt lat="46.07410414426193" lon="12.184350203299479"><ele>446.5</ele><time>2026-04-07T10:53:08.001Z</time></trkpt><trkpt lat="46.073993481220846" lon="12.184474877098474"><ele>447.0</ele><time>2026-04-07T10:53:09.001Z</time></trkpt><trkpt lat="46.07389595300315" lon="12.184587881176618"><ele>447.5</ele><time>2026-04-07T10:53:10.001Z</time></trkpt><trkpt lat="46.073837285857294" lon="12.184760045017413"><ele>448.0</ele><time>2026-04-07T10:53:11.001Z</time></trkpt><trkpt lat="46.07376940276477" lon="12.184940766557169"><ele>452.0</ele><time>2026-04-07T10:53:12.001Z</time></trkpt><trkpt lat="46.07370032333304" lon="12.185113227547953"><ele>456.0</ele><time>2026-04-07T10:53:13.001Z</time></trkpt><trkpt lat="46.07367775406216" lon="12.185284506850165"><ele>460.0</ele><time>2026-04-07T10:53:14.001Z</time></trkpt><trkpt lat="46.073656409047096" lon="12.18547154184549"><ele>464.0</ele><time>2026-04-07T10:53:15.001Z</time></trkpt><trkpt lat="46.073654921965364" lon="12.185695038650756"><ele>467.3333333333333</ele><time>2026-04-07T10:53:16.001Z</time></trkpt><trkpt lat="46.0736593665112" lon="12.185938639062742"><ele>470.66666666666663</ele><time>2026-04-07T10:53:17.001Z</time></trkpt><trkpt lat="46.07366396952963" lon="12.186202563219782"><ele>474.0</ele><time>2026-04-07T10:53:18.001Z</time></trkpt><trkpt lat="46.073700603187376" lon="12.186461220978925"><ele>475.75</ele><time>2026-04-07T10:53:19.001Z</time></trkpt><trkpt lat="46.07373499061738" lon="12.186676986250124"><ele>477.5</ele><time>2026-04-07T10:53:20.001Z</time></trkpt><trkpt lat="46.073783986892174" lon="12.186887229478106"><ele>479.25</ele><time>2026-04-07T10:53:21.001Z</time></trkpt><trkpt lat="46.073793388675796" lon="12.1870709356224"><ele>481.0</ele><time>2026-04-07T10:53:22.001Z</time></trkpt><trkpt lat="46.073793988620544" lon="12.1872416963935"><ele>483.5</ele><time>2026-04-07T10:53:23.001Z</time></trkpt><trkpt lat="46.07375785850288" lon="12.187422390104643"><ele>486.0</ele><time>2026-04-07T10:53:24.001Z</time></trkpt><trkpt lat="46.073741890932205" lon="12.187631921753288"><ele>488.5</ele><time>2026-04-07T10:53:25.001Z</time></trkpt><trkpt lat="46.073717269799786" lon="12.18784930977482"><ele>491.0</ele><time>2026-04-07T10:53:26.001Z</time></trkpt><trkpt lat="46.07370065759258" lon="12.188023751570386"><ele>494.66666666666663</ele><time>2026-04-07T10:53:27.001Z</time></trkpt><trkpt lat="46.07371551232169" lon="12.188208604580597"><ele>498.33333333333337</ele><time>2026-04-07T10:53:28.001Z</time></trkpt><trkpt lat="46.07375852771172" lon="12.188418387531895"><ele>502.0</ele><time>2026-04-07T10:53:29.001Z</time></trkpt><trkpt lat="46.073825027341435" lon="12.18864292239094"><ele>502.0</ele><time>2026-04-07T10:53:30.001Z</time></trkpt><trkpt lat="46.07385450935122" lon="12.18888201124239"><ele>502.0</ele><time>2026-04-07T10:53:31.001Z</time></trkpt><trkpt lat="46.0738755071723" lon="12.189065451973347"><ele>502.0</ele><time>2026-04-07T10:53:32.001Z</time></trkpt><trkpt lat="46.073898348240554" lon="12.189224681256992"><ele>502.0</ele><time>2026-04-07T10:53:33.001Z</time></trkpt><trkpt lat="46.07392962412209" lon="12.18934510944013"><ele>505.20000000000005</ele><time>2026-04-07T10:53:34.001Z</time></trkpt><trkpt lat="46.073968625992045" lon="12.189467369572077"><ele>508.40000000000003</ele><time>2026-04-07T10:53:35.001Z</time></trkpt><trkpt lat="46.0740453078264" lon="12.18955682394414"><ele>511.59999999999997</ele><time>2026-04-07T10:53:36.001Z</time></trkpt><trkpt lat="46.074148774765" lon="12.189608018977257"><ele>514.8</ele><time>2026-04-07T10:53:37.001Z</time></trkpt><trkpt lat="46.07426105573393" lon="12.189692507995145"><ele>518.0</ele><time>2026-04-07T10:53:38Z</time></trkpt><trkpt lat="46.07435401981656" lon="12.189784968474955"><ele>520.1666666666666</ele><time>2026-04-07T10:53:39Z</time></trkpt><trkpt lat="46.074425102993224" lon="12.189837608204424"><ele>522.3333333333333</ele><time>2026-04-07T10:53:40Z</time></trkpt><trkpt lat="46.074527336130906" lon="12.18991678081718"><ele>524.5</ele><time>2026-04-07T10:53:42Z</time></trkpt><trkpt lat="46.074572609618045" lon="12.190029457165762"><ele>526.6666666666666</ele><time>2026-04-07T10:53:44Z</time></trkpt><trkpt lat="46.07452543423146" lon="12.190092784719118"><ele>528.8333333333334</ele><time>2026-04-07T10:53:45Z</time></trkpt><trkpt lat="46.074477833485886" lon="12.190165864151798"><ele>531.0</ele><time>2026-04-07T10:53:46Z</time></trkpt><trkpt lat="46.07444163741996" lon="12.190258208840378"><ele>533.8</ele><time>2026-04-07T10:53:47Z</time></trkpt><trkpt lat="46.07436828790553" lon="12.19037472410302"><ele>536.6</ele><time>2026-04-07T10:53:49Z</time></trkpt><trkpt lat="46.07434534784867" lon="12.19048458970404"><ele>539.4</ele><time>2026-04-07T10:53:51Z</time></trkpt><trkpt lat="46.07445684298319" lon="12.190550331152428"><ele>542.2</ele><time>2026-04-07T10:53:53Z</time></trkpt><trkpt lat="46.074533745138574" lon="12.190535977815982"><ele>545.0</ele><time>2026-04-07T10:53:54Z</time></trkpt><trkpt lat="46.074603390945654" lon="12.190514351533409"><ele>545.0</ele><time>2026-04-07T10:53:55Z</time></trkpt><trkpt lat="46.07466822002345" lon="12.190529560922958"><ele>545.0</ele><time>2026-04-07T10:53:56Z</time></trkpt><trkpt lat="46.074772272707285" lon="12.190584727308085"><ele>545.0</ele><time>2026-04-07T10:53:58Z</time></trkpt><trkpt lat="46.07485553810432" lon="12.190708850778384"><ele>545.0</ele><time>2026-04-07T10:54:00Z</time></trkpt><trkpt lat="46.074915155112244" lon="12.190859499667242"><ele>545.0</ele><time>2026-04-07T10:54:02Z</time></trkpt><trkpt lat="46.074963100622114" lon="12.19098638531049"><ele>548.6666666666666</ele><time>2026-04-07T10:54:04Z</time></trkpt><trkpt lat="46.074970235305756" lon="12.191079925702981"><ele>552.3333333333333</ele><time>2026-04-07T10:54:14Z</time></trkpt><trkpt lat="46.07489819752865" lon="12.191063174798451"><ele>556.0</ele><time>2026-04-07T10:54:16Z</time></trkpt><trkpt lat="46.07478371101881" lon="12.191077257010875"><ele>559.6666666666666</ele><time>2026-04-07T10:54:18Z</time></trkpt><trkpt lat="46.07471871550375" lon="12.191074144618758"><ele>563.3333333333334</ele><time>2026-04-07T10:54:19Z</time></trkpt><trkpt lat="46.074647371937104" lon="12.191060099874846"><ele>567.0</ele><time>2026-04-07T10:54:20Z</time></trkpt><trkpt lat="46.0745710452182" lon="12.19105861483329"><ele>567.1666666666666</ele><time>2026-04-07T10:54:21Z</time></trkpt><trkpt lat="46.07448878974411" lon="12.191078179299435"><ele>567.3333333333334</ele><time>2026-04-07T10:54:22Z</time></trkpt><trkpt lat="46.07440174112317" lon="12.191080913399558"><ele>567.5</ele><time>2026-04-07T10:54:23Z</time></trkpt><trkpt lat="46.07433385413961" lon="12.191105479824873"><ele>567.6666666666667</ele><time>2026-04-07T10:54:24Z</time></trkpt><trkpt lat="46.07426347689806" lon="12.191142496533214"><ele>567.8333333333334</ele><time>2026-04-07T10:54:25Z</time></trkpt><trkpt lat="46.07418664675299" lon="12.191204271759156"><ele>568.0</ele><time>2026-04-07T10:54:26Z</time></trkpt><trkpt lat="46.074100976760434" lon="12.191261177199815"><ele>568.0</ele><time>2026-04-07T10:54:27Z</time></trkpt><trkpt lat="46.073995068466985" lon="12.191306888691852"><ele>568.0</ele><time>2026-04-07T10:54:28Z</time></trkpt><trkpt lat="46.073885063309426" lon="12.191378271264167"><ele>568.0</ele><time>2026-04-07T10:54:29Z</time></trkpt><trkpt lat="46.07377725789273" lon="12.191498563827937"><ele>568.0</ele><time>2026-04-07T10:54:30Z</time></trkpt><trkpt lat="46.07367897632739" lon="12.191620763058632"><ele>572.1999999999999</ele><time>2026-04-07T10:54:31Z</time></trkpt><trkpt lat="46.07358599969857" lon="12.19172946602479"><ele>576.4</ele><time>2026-04-07T10:54:32Z</time></trkpt><trkpt lat="46.07349523116843" lon="12.19180958448904"><ele>580.5999999999999</ele><time>2026-04-07T10:54:33Z</time></trkpt><trkpt lat="46.073429341743704" lon="12.191879120448839"><ele>584.8</ele><time>2026-04-07T10:54:34Z</time></trkpt><trkpt lat="46.07329824907835" lon="12.191915685561508"><ele>589.0</ele><time>2026-04-07T10:54:36Z</time></trkpt><trkpt lat="46.07320922763947" lon="12.191862184493077"><ele>590.5</ele><time>2026-04-07T10:54:37Z</time></trkpt><trkpt lat="46.07311077359588" lon="12.191813959619084"><ele>592.0</ele><time>2026-04-07T10:54:38Z</time></trkpt><trkpt lat="46.07298666131553" lon="12.191798322369053"><ele>593.5</ele><time>2026-04-07T10:54:39Z</time></trkpt><trkpt lat="46.072826955298254" lon="12.19179073182664"><ele>595.0</ele><time>2026-04-07T10:54:40Z</time></trkpt><trkpt lat="46.072692109930195" lon="12.191778058089437"><ele>595.0</ele><time>2026-04-07T10:54:41Z</time></trkpt><trkpt lat="46.07255319254098" lon="12.191772243522342"><ele>595.0</ele><time>2026-04-07T10:54:42Z</time></trkpt><trkpt lat="46.07240926405623" lon="12.191761686853356"><ele>595.0</ele><time>2026-04-07T10:54:43Z</time></trkpt><trkpt lat="46.07225794828662" lon="12.19178929315427"><ele>595.0</ele><time>2026-04-07T10:54:44Z</time></trkpt><trkpt lat="46.072104798607874" lon="12.19181393558543"><ele>596.25</ele><time>2026-04-07T10:54:45Z</time></trkpt><trkpt lat="46.071960373042565" lon="12.191842767316801"><ele>597.5</ele><time>2026-04-07T10:54:46Z</time></trkpt><trkpt lat="46.07183029278662" lon="12.191869425607488"><ele>598.75</ele><time>2026-04-07T10:54:47Z</time></trkpt><trkpt lat="46.07170513579244" lon="12.191906476498211"><ele>600.0</ele><time>2026-04-07T10:54:48Z</time></trkpt><trkpt lat="46.071582453832725" lon="12.191961498666616"><ele>600.0</ele><time>2026-04-07T10:54:49Z</time></trkpt><trkpt lat="46.07146010739169" lon="12.192034179908674"><ele>600.0</ele><time>2026-04-07T10:54:50.001Z</time></trkpt><trkpt lat="46.07131131227665" lon="12.192125400141661"><ele>600.0</ele><time>2026-04-07T10:54:51.001Z</time></trkpt><trkpt lat="46.07114335441936" lon="12.192218590734022"><ele>600.0</ele><time>2026-04-07T10:54:52.001Z</time></trkpt><trkpt lat="46.07099492823332" lon="12.192297304652039"><ele>600.0</ele><time>2026-04-07T10:54:53.001Z</time></trkpt><trkpt lat="46.07087235048549" lon="12.19237513102745"><ele>600.0</ele><time>2026-04-07T10:54:54.001Z</time></trkpt><trkpt lat="46.070768596145086" lon="12.192430950517236"><ele>600.0</ele><time>2026-04-07T10:54:55.001Z</time></trkpt><trkpt lat="46.07066487899009" lon="12.192472059589091"><ele>602.2</ele><time>2026-04-07T10:54:56.001Z</time></trkpt><trkpt lat="46.0705574671294" lon="12.192503216737123"><ele>604.4</ele><time>2026-04-07T10:54:57.001Z</time></trkpt><trkpt lat="46.070445547160105" lon="12.192539901567422"><ele>606.6</ele><time>2026-04-07T10:54:58.001Z</time></trkpt><trkpt lat="46.07033299182626" lon="12.192585572390998"><ele>608.8</ele><time>2026-04-07T10:54:59.001Z</time></trkpt><trkpt lat="46.07023972356772" lon="12.192637581056658"><ele>611.0</ele><time>2026-04-07T10:55:00.001Z</time></trkpt><trkpt lat="46.070160396444756" lon="12.192691274674335"><ele>611.0</ele><time>2026-04-07T10:55:01.001Z</time></trkpt><trkpt lat="46.07008795546805" lon="12.19273838763445"><ele>611.0</ele><time>2026-04-07T10:55:02.001Z</time></trkpt><trkpt lat="46.07002461384085" lon="12.192810555513663"><ele>611.0</ele><time>2026-04-07T10:55:03.001Z</time></trkpt><trkpt lat="46.069972921552925" lon="12.192904275800963"><ele>611.0</ele><time>2026-04-07T10:55:04.001Z</time></trkpt><trkpt lat="46.06994013071558" lon="12.193034723517256"><ele>611.0</ele><time>2026-04-07T10:55:05.001Z</time></trkpt><trkpt lat="46.06989857508046" lon="12.193165607325628"><ele>611.0</ele><time>2026-04-07T10:55:06.001Z</time></trkpt><trkpt lat="46.069843246963295" lon="12.193315673587373"><ele>610.25</ele><time>2026-04-07T10:55:07.001Z</time></trkpt><trkpt lat="46.06978238219145" lon="12.193489446797006"><ele>609.5</ele><time>2026-04-07T10:55:08.001Z</time></trkpt><trkpt lat="46.0697218783929" lon="12.193631125428052"><ele>608.75</ele><time>2026-04-07T10:55:09.001Z</time></trkpt><trkpt lat="46.06966188727527" lon="12.193750072788891"><ele>608.0</ele><time>2026-04-07T10:55:10.001Z</time></trkpt><trkpt lat="46.06958073225016" lon="12.193869886986052"><ele>608.0</ele><time>2026-04-07T10:55:11.001Z</time></trkpt><trkpt lat="46.06949426953819" lon="12.193980225136729"><ele>608.0</ele><time>2026-04-07T10:55:12.001Z</time></trkpt><trkpt lat="46.06941508915283" lon="12.194079411315139"><ele>608.0</ele><time>2026-04-07T10:55:13.001Z</time></trkpt><trkpt lat="46.069354062284674" lon="12.194177162565671"><ele>608.0</ele><time>2026-04-07T10:55:14.001Z</time></trkpt><trkpt lat="46.06929773313189" lon="12.194264959337243"><ele>608.0</ele><time>2026-04-07T10:55:15.001Z</time></trkpt><trkpt lat="46.0692683512112" lon="12.194386876553077"><ele>609.8333333333333</ele><time>2026-04-07T10:55:16.001Z</time></trkpt><trkpt lat="46.06925376208336" lon="12.194523568244175"><ele>611.6666666666666</ele><time>2026-04-07T10:55:17.001Z</time></trkpt><trkpt lat="46.06925801762923" lon="12.194658366808365"><ele>613.5</ele><time>2026-04-07T10:55:18.001Z</time></trkpt><trkpt lat="46.06928066930893" lon="12.194792143158704"><ele>615.3333333333334</ele><time>2026-04-07T10:55:19.001Z</time></trkpt><trkpt lat="46.06930886118167" lon="12.194910039069063"><ele>617.1666666666667</ele><time>2026-04-07T10:55:20.001Z</time></trkpt><trkpt lat="46.06931248690145" lon="12.195013688175502"><ele>619.0</ele><time>2026-04-07T10:55:21.001Z</time></trkpt><trkpt lat="46.06929142588333" lon="12.195111837853206"><ele>618.0</ele><time>2026-04-07T10:55:22.001Z</time></trkpt><trkpt lat="46.06925284947072" lon="12.195197543043895"><ele>617.0</ele><time>2026-04-07T10:55:23.001Z</time></trkpt><trkpt lat="46.06919873631825" lon="12.195256409227774"><ele>616.0</ele><time>2026-04-07T10:55:24.001Z</time></trkpt><trkpt lat="46.06911560775732" lon="12.19528947321587"><ele>615.0</ele><time>2026-04-07T10:55:25.001Z</time></trkpt><trkpt lat="46.06901103482458" lon="12.195259392227237"><ele>614.0</ele><time>2026-04-07T10:55:26.001Z</time></trkpt><trkpt lat="46.06890964123614" lon="12.195267164653531"><ele>613.0</ele><time>2026-04-07T10:55:27.001Z</time></trkpt><trkpt lat="46.068826297783076" lon="12.195284212083626"><ele>613.0</ele><time>2026-04-07T10:55:28.001Z</time></trkpt><trkpt lat="46.068727756786785" lon="12.19533644157115"><ele>613.0</ele><time>2026-04-07T10:55:29.001Z</time></trkpt><trkpt lat="46.068598414111996" lon="12.195408366162027"><ele>613.0</ele><time>2026-04-07T10:55:30.001Z</time></trkpt><trkpt lat="46.068483662782015" lon="12.19547148966945"><ele>613.0</ele><time>2026-04-07T10:55:31.001Z</time></trkpt><trkpt lat="46.06838899863144" lon="12.195554722081171"><ele>613.0</ele><time>2026-04-07T10:55:32.001Z</time></trkpt><trkpt lat="46.06830544197442" lon="12.195670013490826"><ele>613.0</ele><time>2026-04-07T10:55:33.001Z</time></trkpt><trkpt lat="46.06821575319459" lon="12.195765107163306"><ele>613.0</ele><time>2026-04-07T10:55:34.001Z</time></trkpt><trkpt lat="46.06814849697284" lon="12.195864817123653"><ele>613.0</ele><time>2026-04-07T10:55:35.001Z</time></trkpt><trkpt lat="46.068054946545175" lon="12.195917868752302"><ele>613.0</ele><time>2026-04-07T10:55:36.001Z</time></trkpt><trkpt lat="46.06794238384183" lon="12.195954197568547"><ele>614.0</ele><time>2026-04-07T10:55:37.001Z</time></trkpt><trkpt lat="46.06781065806014" lon="12.195999138231228"><ele>615.0</ele><time>2026-04-07T10:55:38.001Z</time></trkpt><trkpt lat="46.06768549206467" lon="12.196039828858334"><ele>616.0</ele><time>2026-04-07T10:55:39.001Z</time></trkpt><trkpt lat="46.06757137416747" lon="12.196063760437314"><ele>617.0</ele><time>2026-04-07T10:55:40.001Z</time></trkpt><trkpt lat="46.0674615768179" lon="12.196071792820323"><ele>614.8000000000001</ele><time>2026-04-07T10:55:41.001Z</time></trkpt><trkpt lat="46.06735165966907" lon="12.196076993965056"><ele>612.6</ele><time>2026-04-07T10:55:42.001Z</time></trkpt><trkpt lat="46.06724502295005" lon="12.196096916970056"><ele>610.4000000000001</ele><time>2026-04-07T10:55:43.001Z</time></trkpt><trkpt lat="46.06714943434538" lon="12.196130605916972"><ele>608.2</ele><time>2026-04-07T10:55:44Z</time></trkpt><trkpt lat="46.0670651870065" lon="12.19617310557933"><ele>606.0</ele><time>2026-04-07T10:55:45Z</time></trkpt><trkpt lat="46.06699636602727" lon="12.196219227630126"><ele>606.0</ele><time>2026-04-07T10:55:46Z</time></trkpt><trkpt lat="46.06692314939213" lon="12.196349746718461"><ele>606.0</ele><time>2026-04-07T10:55:48Z</time></trkpt><trkpt lat="46.06691891633499" lon="12.19644357152002"><ele>606.0</ele><time>2026-04-07T10:55:49Z</time></trkpt><trkpt lat="46.066926569841755" lon="12.196587014307635"><ele>606.0</ele><time>2026-04-07T10:55:50Z</time></trkpt><trkpt lat="46.066922058843886" lon="12.196730886722014"><ele>606.0</ele><time>2026-04-07T10:55:51Z</time></trkpt><trkpt lat="46.06690334920721" lon="12.196862772198807"><ele>607.6</ele><time>2026-04-07T10:55:52Z</time></trkpt><trkpt lat="46.066870927197805" lon="12.196985104415246"><ele>609.2</ele><time>2026-04-07T10:55:53Z</time></trkpt><trkpt lat="46.06684331058694" lon="12.197108823426158"><ele>610.8</ele><time>2026-04-07T10:55:54Z</time></trkpt><trkpt lat="46.066841907843646" lon="12.197236992104113"><ele>612.4</ele><time>2026-04-07T10:55:55Z</time></trkpt><trkpt lat="46.06684408511293" lon="12.19737184489139"><ele>614.0</ele><time>2026-04-07T10:55:56Z</time></trkpt><trkpt lat="46.06687815491968" lon="12.197504487259188"><ele>615.3333333333333</ele><time>2026-04-07T10:55:57Z</time></trkpt><trkpt lat="46.06686835857279" lon="12.197631163210335"><ele>616.6666666666666</ele><time>2026-04-07T10:55:58Z</time></trkpt><trkpt lat="46.0668323075421" lon="12.197743917934648"><ele>618.0</ele><time>2026-04-07T10:55:59Z</time></trkpt><trkpt lat="46.066766827402446" lon="12.19782234651886"><ele>619.3333333333334</ele><time>2026-04-07T10:56:00Z</time></trkpt><trkpt lat="46.06670980846903" lon="12.197927577644343"><ele>620.6666666666667</ele><time>2026-04-07T10:56:01Z</time></trkpt><trkpt lat="46.066655377884665" lon="12.198031483926274"><ele>622.0</ele><time>2026-04-07T10:56:02Z</time></trkpt><trkpt lat="46.06660947735145" lon="12.198165813313357"><ele>616.5</ele><time>2026-04-07T10:56:03Z</time></trkpt><trkpt lat="46.06657737064417" lon="12.198362870219908"><ele>611.0</ele><time>2026-04-07T10:56:04Z</time></trkpt><trkpt lat="46.06654205449445" lon="12.19854646003486"><ele>605.5</ele><time>2026-04-07T10:56:05Z</time></trkpt><trkpt lat="46.066522065526065" lon="12.19869591526911"><ele>600.0</ele><time>2026-04-07T10:56:06Z</time></trkpt><trkpt lat="46.06647356725727" lon="12.198831953073556"><ele>600.0</ele><time>2026-04-07T10:56:07Z</time></trkpt><trkpt lat="46.066396364463955" lon="12.198984625721554"><ele>600.0</ele><time>2026-04-07T10:56:08Z</time></trkpt><trkpt lat="46.06630094076583" lon="12.199155080356322"><ele>600.0</ele><time>2026-04-07T10:56:09Z</time></trkpt><trkpt lat="46.06621714982782" lon="12.199309192547181"><ele>600.0</ele><time>2026-04-07T10:56:10Z</time></trkpt><trkpt lat="46.0661523505589" lon="12.19944381342752"><ele>605.5</ele><time>2026-04-07T10:56:11Z</time></trkpt><trkpt lat="46.06609561027243" lon="12.199585925477916"><ele>611.0</ele><time>2026-04-07T10:56:12Z</time></trkpt><trkpt lat="46.06603101763686" lon="12.199749687140452"><ele>616.5</ele><time>2026-04-07T10:56:13Z</time></trkpt><trkpt lat="46.06597350624931" lon="12.199926353499055"><ele>622.0</ele><time>2026-04-07T10:56:14Z</time></trkpt><trkpt lat="46.06592862325136" lon="12.200076888171685"><ele>619.25</ele><time>2026-04-07T10:56:15Z</time></trkpt><trkpt lat="46.06588036683697" lon="12.200215207779054"><ele>616.5</ele><time>2026-04-07T10:56:16Z</time></trkpt><trkpt lat="46.065813739492214" lon="12.200354031724915"><ele>613.75</ele><time>2026-04-07T10:56:17Z</time></trkpt><trkpt lat="46.065723994029014" lon="12.200480498657"><ele>611.0</ele><time>2026-04-07T10:56:18Z</time></trkpt><trkpt lat="46.06562190152044" lon="12.200594368168218"><ele>616.0</ele><time>2026-04-07T10:56:19Z</time></trkpt><trkpt lat="46.06551226861305" lon="12.200703084085735"><ele>621.0</ele><time>2026-04-07T10:56:20Z</time></trkpt><trkpt lat="46.065410480123504" lon="12.200815805910239"><ele>626.0</ele><time>2026-04-07T10:56:21Z</time></trkpt><trkpt lat="46.06532368368179" lon="12.200948293208144"><ele>631.0</ele><time>2026-04-07T10:56:22Z</time></trkpt><trkpt lat="46.065238472616805" lon="12.201098280260789"><ele>631.0</ele><time>2026-04-07T10:56:23Z</time></trkpt><trkpt lat="46.06516006868512" lon="12.201242208573452"><ele>631.0</ele><time>2026-04-07T10:56:24Z</time></trkpt><trkpt lat="46.06509840772992" lon="12.201386256055942"><ele>631.0</ele><time>2026-04-07T10:56:25Z</time></trkpt><trkpt lat="46.06505320070923" lon="12.20155256151413"><ele>631.0</ele><time>2026-04-07T10:56:26Z</time></trkpt><trkpt lat="46.06502214588041" lon="12.201754204354208"><ele>634.3333333333334</ele><time>2026-04-07T10:56:27Z</time></trkpt><trkpt lat="46.06499698689116" lon="12.202006483120615"><ele>637.6666666666666</ele><time>2026-04-07T10:56:28Z</time></trkpt><trkpt lat="46.06497257471808" lon="12.20224932547942"><ele>641.0</ele><time>2026-04-07T10:56:29Z</time></trkpt><trkpt lat="46.06494839457704" lon="12.202466447679683"><ele>640.0</ele><time>2026-04-07T10:56:30Z</time></trkpt><trkpt lat="46.06492797839453" lon="12.202684079522184"><ele>639.0</ele><time>2026-04-07T10:56:31Z</time></trkpt><trkpt lat="46.06491111284488" lon="12.202894711390288"><ele>638.0</ele><time>2026-04-07T10:56:32Z</time></trkpt><trkpt lat="46.06488170127594" lon="12.203081400384285"><ele>637.0</ele><time>2026-04-07T10:56:33Z</time></trkpt><trkpt lat="46.06483551830773" lon="12.203246445637127"><ele>637.0</ele><time>2026-04-07T10:56:34Z</time></trkpt><trkpt lat="46.06477295708951" lon="12.203404619605337"><ele>637.0</ele><time>2026-04-07T10:56:35Z</time></trkpt><trkpt lat="46.06472286275356" lon="12.203581567989264"><ele>637.0</ele><time>2026-04-07T10:56:36Z</time></trkpt><trkpt lat="46.064692898686246" lon="12.203747693707715"><ele>637.0</ele><time>2026-04-07T10:56:37Z</time></trkpt><trkpt lat="46.06464707579363" lon="12.203878027736488"><ele>637.0</ele><time>2026-04-07T10:56:38Z</time></trkpt><trkpt lat="46.06458124770623" lon="12.20398772356576"><ele>637.0</ele><time>2026-04-07T10:56:39Z</time></trkpt><trkpt lat="46.064496575741266" lon="12.204092062841301"><ele>637.0</ele><time>2026-04-07T10:56:40Z</time></trkpt><trkpt lat="46.06439187578" lon="12.204187225291491"><ele>637.0</ele><time>2026-04-07T10:56:41Z</time></trkpt><trkpt lat="46.06428493669526" lon="12.204294943266019"><ele>637.6</ele><time>2026-04-07T10:56:42Z</time></trkpt><trkpt lat="46.06419421059692" lon="12.204407664710912"><ele>638.2</ele><time>2026-04-07T10:56:43Z</time></trkpt><trkpt lat="46.06411439331743" lon="12.204489258117865"><ele>638.8</ele><time>2026-04-07T10:56:44Z</time></trkpt><trkpt lat="46.06403527201814" lon="12.204531230008964"><ele>639.4</ele><time>2026-04-07T10:56:45Z</time></trkpt><trkpt lat="46.06395461395599" lon="12.204540793424151"><ele>640.0</ele><time>2026-04-07T10:56:46Z</time></trkpt><trkpt lat="46.063872169581174" lon="12.204528003874039"><ele>640.0</ele><time>2026-04-07T10:56:47Z</time></trkpt><trkpt lat="46.06378862089929" lon="12.204517052974536"><ele>640.0</ele><time>2026-04-07T10:56:48Z</time></trkpt><trkpt lat="46.06370092879091" lon="12.204538769847506"><ele>640.0</ele><time>2026-04-07T10:56:49Z</time></trkpt><trkpt lat="46.06360992091373" lon="12.20460416307432"><ele>640.0</ele><time>2026-04-07T10:56:50Z</time></trkpt><trkpt lat="46.06350381770672" lon="12.204692124226648"><ele>640.0</ele><time>2026-04-07T10:56:51Z</time></trkpt><trkpt lat="46.063400633214655" lon="12.204771933772419"><ele>641.2</ele><time>2026-04-07T10:56:52Z</time></trkpt><trkpt lat="46.06329205687298" lon="12.20484639761068"><ele>642.4</ele><time>2026-04-07T10:56:53Z</time></trkpt><trkpt lat="46.063186200890286" lon="12.204929124285714"><ele>643.5999999999999</ele><time>2026-04-07T10:56:54Z</time></trkpt><trkpt lat="46.06309594366086" lon="12.205022578571247"><ele>644.8</ele><time>2026-04-07T10:56:55Z</time></trkpt><trkpt lat="46.063027504599184" lon="12.205122932175035"><ele>646.0</ele><time>2026-04-07T10:56:56Z</time></trkpt><trkpt lat="46.06298361257327" lon="12.205226847204134"><ele>646.0</ele><time>2026-04-07T10:56:57Z</time></trkpt><trkpt lat="46.06295008483051" lon="12.205343869519016"><ele>646.0</ele><time>2026-04-07T10:56:58Z</time></trkpt><trkpt lat="46.06292133388043" lon="12.205500090414512"><ele>646.0</ele><time>2026-04-07T10:56:59.001Z</time></trkpt><trkpt lat="46.062892071272415" lon="12.205673456150368"><ele>646.0</ele><time>2026-04-07T10:57:00.001Z</time></trkpt><trkpt lat="46.062869066863506" lon="12.205834489714581"><ele>646.0</ele><time>2026-04-07T10:57:01.001Z</time></trkpt><trkpt lat="46.06283931260833" lon="12.20597913745135"><ele>647.4</ele><time>2026-04-07T10:57:02.001Z</time></trkpt><trkpt lat="46.06279566455578" lon="12.206119406442703"><ele>648.8</ele><time>2026-04-07T10:57:03.001Z</time></trkpt><trkpt lat="46.0627291266921" lon="12.206241569518017"><ele>650.1999999999999</ele><time>2026-04-07T10:57:04.001Z</time></trkpt><trkpt lat="46.06264839807061" lon="12.20633681082802"><ele>651.5999999999999</ele><time>2026-04-07T10:57:05.001Z</time></trkpt><trkpt lat="46.06256080351003" lon="12.2064338936152"><ele>653.0</ele><time>2026-04-07T10:57:06.001Z</time></trkpt><trkpt lat="46.06246765442082" lon="12.206532178054266"><ele>650.25</ele><time>2026-04-07T10:57:07.001Z</time></trkpt><trkpt lat="46.06238460677976" lon="12.20662710576696"><ele>647.5</ele><time>2026-04-07T10:57:08.001Z</time></trkpt><trkpt lat="46.062310885270094" lon="12.206727191214734"><ele>644.75</ele><time>2026-04-07T10:57:09.001Z</time></trkpt><trkpt lat="46.06222825265814" lon="12.206858775606145"><ele>642.0</ele><time>2026-04-07T10:57:10.001Z</time></trkpt><trkpt lat="46.06212985275309" lon="12.207010137861706"><ele>642.0</ele><time>2026-04-07T10:57:11.001Z</time></trkpt><trkpt lat="46.062015526641325" lon="12.20714895239394"><ele>642.0</ele><time>2026-04-07T10:57:12.001Z</time></trkpt><trkpt lat="46.06191193225719" lon="12.207280372731956"><ele>642.0</ele><time>2026-04-07T10:57:13.001Z</time></trkpt><trkpt lat="46.0618274593595" lon="12.20741227973099"><ele>642.0</ele><time>2026-04-07T10:57:14.001Z</time></trkpt><trkpt lat="46.06175350299435" lon="12.20755544122556"><ele>641.0</ele><time>2026-04-07T10:57:15.001Z</time></trkpt><trkpt lat="46.061688139535654" lon="12.20772019557088"><ele>640.0</ele><time>2026-04-07T10:57:16.001Z</time></trkpt><trkpt lat="46.06163282305629" lon="12.207926649324403"><ele>639.0</ele><time>2026-04-07T10:57:17.001Z</time></trkpt><trkpt lat="46.061586511084606" lon="12.208170142066457"><ele>639.0</ele><time>2026-04-07T10:57:18.001Z</time></trkpt><trkpt lat="46.06155702893683" lon="12.208411937857507"><ele>639.0</ele><time>2026-04-07T10:57:19.001Z</time></trkpt><trkpt lat="46.06152166538817" lon="12.208640736642442"><ele>639.0</ele><time>2026-04-07T10:57:20.001Z</time></trkpt><trkpt lat="46.0614668791296" lon="12.208897963688537"><ele>641.2</ele><time>2026-04-07T10:57:21.001Z</time></trkpt><trkpt lat="46.06141335819529" lon="12.209096980016826"><ele>643.4</ele><time>2026-04-07T10:57:22.001Z</time></trkpt><trkpt lat="46.0613781455194" lon="12.209231649881994"><ele>645.6</ele><time>2026-04-07T10:57:23.001Z</time></trkpt><trkpt lat="46.06133071998537" lon="12.209352133557314"><ele>647.8</ele><time>2026-04-07T10:57:24.001Z</time></trkpt><trkpt lat="46.061262957548216" lon="12.209451513698157"><ele>650.0</ele><time>2026-04-07T10:57:25.001Z</time></trkpt><trkpt lat="46.06117646614536" lon="12.209554080892568"><ele>650.0</ele><time>2026-04-07T10:57:26.001Z</time></trkpt><trkpt lat="46.061092578019604" lon="12.209678029893066"><ele>650.0</ele><time>2026-04-07T10:57:27.001Z</time></trkpt><trkpt lat="46.06103139446578" lon="12.209823481152261"><ele>650.0</ele><time>2026-04-07T10:57:28.001Z</time></trkpt><trkpt lat="46.060989457449686" lon="12.209980406431281"><ele>650.0</ele><time>2026-04-07T10:57:29.001Z</time></trkpt><trkpt lat="46.06095138565274" lon="12.210146618808634"><ele>652.5</ele><time>2026-04-07T10:57:30.001Z</time></trkpt><trkpt lat="46.06091991911007" lon="12.210319803923557"><ele>655.0</ele><time>2026-04-07T10:57:31.001Z</time></trkpt><trkpt lat="46.06089206851056" lon="12.210512565975478"><ele>657.5</ele><time>2026-04-07T10:57:32.001Z</time></trkpt><trkpt lat="46.060868751170254" lon="12.210738548751046"><ele>660.0</ele><time>2026-04-07T10:57:33.001Z</time></trkpt><trkpt lat="46.06084571718154" lon="12.210959649400722"><ele>659.25</ele><time>2026-04-07T10:57:34.001Z</time></trkpt><trkpt lat="46.06082564043491" lon="12.211154942973407"><ele>658.5</ele><time>2026-04-07T10:57:35.001Z</time></trkpt><trkpt lat="46.06079128463714" lon="12.211342915953232"><ele>657.75</ele><time>2026-04-07T10:57:36.001Z</time></trkpt><trkpt lat="46.06073666340323" lon="12.211515393320477"><ele>657.0</ele><time>2026-04-07T10:57:37.001Z</time></trkpt><trkpt lat="46.06068072405224" lon="12.211651088001082"><ele>657.0</ele><time>2026-04-07T10:57:38.001Z</time></trkpt><trkpt lat="46.06064450424388" lon="12.21176885945453"><ele>657.0</ele><time>2026-04-07T10:57:39.001Z</time></trkpt><trkpt lat="46.06062009531387" lon="12.21189334566946"><ele>657.0</ele><time>2026-04-07T10:57:40.001Z</time></trkpt><trkpt lat="46.06059980729807" lon="12.212025374395518"><ele>657.0</ele><time>2026-04-07T10:57:41.001Z</time></trkpt><trkpt lat="46.06059024049131" lon="12.212126692019146"><ele>657.0</ele><time>2026-04-07T10:57:42.001Z</time></trkpt><trkpt lat="46.06057691171453" lon="12.212232705744244"><ele>657.0</ele><time>2026-04-07T10:57:43.001Z</time></trkpt><trkpt lat="46.06055889508955" lon="12.212348829011178"><ele>659.0</ele><time>2026-04-07T10:57:44.001Z</time></trkpt><trkpt lat="46.060537195084564" lon="12.212472757242146"><ele>661.0</ele><time>2026-04-07T10:57:45.001Z</time></trkpt><trkpt lat="46.060504389273014" lon="12.212582542033664"><ele>663.0</ele><time>2026-04-07T10:57:46.001Z</time></trkpt><trkpt lat="46.06044694940678" lon="12.212661043004802"><ele>665.0</ele><time>2026-04-07T10:57:47.001Z</time></trkpt><trkpt lat="46.06037663608655" lon="12.212707022701547"><ele>667.0</ele><time>2026-04-07T10:57:48.001Z</time></trkpt><trkpt lat="46.06028839371633" lon="12.212719053659939"><ele>669.0</ele><time>2026-04-07T10:57:49.001Z</time></trkpt><trkpt lat="46.060179783965005" lon="12.212719994308866"><ele>669.0</ele><time>2026-04-07T10:57:50Z</time></trkpt><trkpt lat="46.06006353215377" lon="12.212747294432232"><ele>669.0</ele><time>2026-04-07T10:57:51Z</time></trkpt><trkpt lat="46.059935321051675" lon="12.212788450570692"><ele>669.0</ele><time>2026-04-07T10:57:52Z</time></trkpt><trkpt lat="46.05980869004697" lon="12.212875705147502"><ele>669.0</ele><time>2026-04-07T10:57:53Z</time></trkpt><trkpt lat="46.059710631053704" lon="12.212948873005683"><ele>669.5</ele><time>2026-04-07T10:57:54Z</time></trkpt><trkpt lat="46.05959862114896" lon="12.21303477550686"><ele>670.0</ele><time>2026-04-07T10:57:55Z</time></trkpt><trkpt lat="46.05949127614437" lon="12.213136437025096"><ele>670.5</ele><time>2026-04-07T10:57:56Z</time></trkpt><trkpt lat="46.05937185362596" lon="12.213205880080993"><ele>671.0</ele><time>2026-04-07T10:57:57Z</time></trkpt><trkpt lat="46.05925495057086" lon="12.213257217356077"><ele>673.5999999999999</ele><time>2026-04-07T10:57:58Z</time></trkpt><trkpt lat="46.05914844816068" lon="12.213291417771073"><ele>676.2</ele><time>2026-04-07T10:57:59Z</time></trkpt><trkpt lat="46.05905030693591" lon="12.213316881652698"><ele>678.8</ele><time>2026-04-07T10:58:00Z</time></trkpt><trkpt lat="46.05896577261664" lon="12.213361294978707"><ele>681.4000000000001</ele><time>2026-04-07T10:58:01Z</time></trkpt><trkpt lat="46.05888352135932" lon="12.213441156129045"><ele>684.0</ele><time>2026-04-07T10:58:02Z</time></trkpt><trkpt lat="46.058797425705414" lon="12.213549826682367"><ele>684.0</ele><time>2026-04-07T10:58:03Z</time></trkpt><trkpt lat="46.05870234343495" lon="12.213673564952131"><ele>684.0</ele><time>2026-04-07T10:58:04Z</time></trkpt><trkpt lat="46.05861689107094" lon="12.213781544792926"><ele>684.0</ele><time>2026-04-07T10:58:05Z</time></trkpt><trkpt lat="46.058561636393506" lon="12.213864665829384"><ele>684.0</ele><time>2026-04-07T10:58:06Z</time></trkpt><trkpt lat="46.05851835404138" lon="12.213939712106594"><ele>684.0</ele><time>2026-04-07T10:58:07Z</time></trkpt><trkpt lat="46.05847494143159" lon="12.214018286789612"><ele>686.8000000000001</ele><time>2026-04-07T10:58:08Z</time></trkpt><trkpt lat="46.05842968545528" lon="12.2141683574952"><ele>689.6</ele><time>2026-04-07T10:58:10Z</time></trkpt><trkpt lat="46.05840748844864" lon="12.214304636725206"><ele>692.4</ele><time>2026-04-07T10:58:11Z</time></trkpt><trkpt lat="46.05836673741247" lon="12.21444519839368"><ele>695.2</ele><time>2026-04-07T10:58:12Z</time></trkpt><trkpt lat="46.058345218661835" lon="12.214554996594817"><ele>698.0</ele><time>2026-04-07T10:58:13Z</time></trkpt><trkpt lat="46.05829665062507" lon="12.214708166909482"><ele>697.1666666666666</ele><time>2026-04-07T10:58:15Z</time></trkpt><trkpt lat="46.05823143890248" lon="12.21473987058927"><ele>696.3333333333333</ele><time>2026-04-07T10:58:16Z</time></trkpt><trkpt lat="46.058160591541466" lon="12.214738040145132"><ele>695.5</ele><time>2026-04-07T10:58:17Z</time></trkpt><trkpt lat="46.05809360262977" lon="12.214679880104212"><ele>694.6666666666666</ele><time>2026-04-07T10:58:18Z</time></trkpt><trkpt lat="46.05801163085498" lon="12.21462302280842"><ele>693.8333333333334</ele><time>2026-04-07T10:58:19Z</time></trkpt><trkpt lat="46.05792066478582" lon="12.214572536062045"><ele>693.0</ele><time>2026-04-07T10:58:20Z</time></trkpt><trkpt lat="46.05784926286442" lon="12.214523437645507"><ele>693.0</ele><time>2026-04-07T10:58:21Z</time></trkpt><trkpt lat="46.05778260199622" lon="12.214511991850522"><ele>693.0</ele><time>2026-04-07T10:58:22Z</time></trkpt><trkpt lat="46.057711666545366" lon="12.21453196858853"><ele>693.0</ele><time>2026-04-07T10:58:23Z</time></trkpt><trkpt lat="46.05762834139331" lon="12.214585453929761"><ele>693.0</ele><time>2026-04-07T10:58:24Z</time></trkpt><trkpt lat="46.05754431851492" lon="12.21463990471176"><ele>693.0</ele><time>2026-04-07T10:58:25Z</time></trkpt><trkpt lat="46.05748032757883" lon="12.214681214747655"><ele>693.0</ele><time>2026-04-07T10:58:26Z</time></trkpt><trkpt lat="46.05740694806383" lon="12.214718147999411"><ele>693.0</ele><time>2026-04-07T10:58:28Z</time></trkpt><trkpt lat="46.0573913119022" lon="12.21481290151096"><ele>693.0</ele><time>2026-04-07T10:58:30Z</time></trkpt><trkpt lat="46.05747560379351" lon="12.21485613119041"><ele>693.0</ele><time>2026-04-07T10:58:32Z</time></trkpt><trkpt lat="46.057549967953975" lon="12.214800053987346"><ele>693.0</ele><time>2026-04-07T10:58:33Z</time></trkpt><trkpt lat="46.05761906648805" lon="12.214753118550568"><ele>693.0</ele><time>2026-04-07T10:58:34Z</time></trkpt><trkpt lat="46.057681041423436" lon="12.214721468837046"><ele>693.0</ele><time>2026-04-07T10:58:35Z</time></trkpt><trkpt lat="46.05778630402475" lon="12.214758011142445"><ele>698.8</ele><time>2026-04-07T10:58:37Z</time></trkpt><trkpt lat="46.05785690624967" lon="12.214875479611251"><ele>704.5999999999999</ele><time>2026-04-07T10:58:38Z</time></trkpt><trkpt lat="46.057930022485486" lon="12.214965248008502"><ele>710.4000000000001</ele><time>2026-04-07T10:58:39Z</time></trkpt><trkpt lat="46.05800695764639" lon="12.215070374554557"><ele>716.2</ele><time>2026-04-07T10:58:40Z</time></trkpt><trkpt lat="46.0580879107053" lon="12.215207374437263"><ele>722.0</ele><time>2026-04-07T10:58:41Z</time></trkpt><trkpt lat="46.05814638226964" lon="12.215321284739838"><ele>722.0</ele><time>2026-04-07T10:58:42Z</time></trkpt><trkpt lat="46.058201681054335" lon="12.215378467731332"><ele>722.0</ele><time>2026-04-07T10:58:43Z</time></trkpt><trkpt lat="46.05825332668742" lon="12.215490299024722"><ele>722.0</ele><time>2026-04-07T10:58:45Z</time></trkpt><trkpt lat="46.05824223485751" lon="12.215585672386652"><ele>722.0</ele><time>2026-04-07T10:58:47Z</time></trkpt><trkpt lat="46.058153089963994" lon="12.215532615904962"><ele>722.0</ele><time>2026-04-07T10:58:49Z</time></trkpt><trkpt lat="46.05810706719044" lon="12.215458820948628"><ele>722.0</ele><time>2026-04-07T10:58:50Z</time></trkpt><trkpt lat="46.05805979348554" lon="12.215366476210898"><ele>722.0</ele><time>2026-04-07T10:58:51Z</time></trkpt><trkpt lat="46.05799799905716" lon="12.2152802410105"><ele>722.0</ele><time>2026-04-07T10:58:52Z</time></trkpt><trkpt lat="46.05794110011259" lon="12.215218064163075"><ele>722.0</ele><time>2026-04-07T10:58:53Z</time></trkpt><trkpt lat="46.0578886046171" lon="12.215156772813765"><ele>722.0</ele><time>2026-04-07T10:58:54Z</time></trkpt><trkpt lat="46.05780450832601" lon="12.215133640225238"><ele>722.0</ele><time>2026-04-07T10:58:55.001Z</time></trkpt><trkpt lat="46.05770572475974" lon="12.215152766978804"><ele>722.0</ele><time>2026-04-07T10:58:56.001Z</time></trkpt><trkpt lat="46.057609514525545" lon="12.215134273681713"><ele>722.0</ele><time>2026-04-07T10:58:57.001Z</time></trkpt><trkpt lat="46.057480787374516" lon="12.215163055756115"><ele>722.0</ele><time>2026-04-07T10:58:58.001Z</time></trkpt><trkpt lat="46.05738149883502" lon="12.21513966078636"><ele>722.0</ele><time>2026-04-07T10:58:59.001Z</time></trkpt><trkpt lat="46.0572785571581" lon="12.215171229498052"><ele>722.0</ele><time>2026-04-07T10:59:01.001Z</time></trkpt><trkpt lat="46.0572226350201" lon="12.215273781325948"><ele>722.0</ele><time>2026-04-07T10:59:03.001Z</time></trkpt><trkpt lat="46.05730613895361" lon="12.21537608774704"><ele>722.0</ele><time>2026-04-07T10:59:05.001Z</time></trkpt><trkpt lat="46.05738329649355" lon="12.215366302946295"><ele>722.0</ele><time>2026-04-07T10:59:06.001Z</time></trkpt><trkpt lat="46.05745215301539" lon="12.215353408899064"><ele>722.0</ele><time>2026-04-07T10:59:07.001Z</time></trkpt><trkpt lat="46.057536520234" lon="12.215420242097643"><ele>722.0</ele><time>2026-04-07T10:59:09.001Z</time></trkpt><trkpt lat="46.057527208827786" lon="12.21561796088253"><ele>722.0</ele><time>2026-04-07T10:59:11.001Z</time></trkpt><trkpt lat="46.05751533027787" lon="12.215763459180287"><ele>725.2</ele><time>2026-04-07T10:59:12.001Z</time></trkpt><trkpt lat="46.05750294717106" lon="12.215892656214532"><ele>728.4000000000001</ele><time>2026-04-07T10:59:13.001Z</time></trkpt><trkpt lat="46.05748564319969" lon="12.216060563021745"><ele>731.5999999999999</ele><time>2026-04-07T10:59:14.001Z</time></trkpt><trkpt lat="46.057475208529866" lon="12.216223915099224"><ele>734.8</ele><time>2026-04-07T10:59:15.001Z</time></trkpt><trkpt lat="46.05744172615756" lon="12.216361001131062"><ele>738.0</ele><time>2026-04-07T10:59:16.001Z</time></trkpt><trkpt lat="46.05739759083224" lon="12.216488939382407"><ele>741.5</ele><time>2026-04-07T10:59:17.001Z</time></trkpt><trkpt lat="46.057337458647396" lon="12.216616445083487"><ele>745.0</ele><time>2026-04-07T10:59:18.001Z</time></trkpt><trkpt lat="46.05725939865826" lon="12.216773157501565"><ele>748.5</ele><time>2026-04-07T10:59:19.001Z</time></trkpt><trkpt lat="46.05719676431395" lon="12.216905860103612"><ele>752.0</ele><time>2026-04-07T10:59:20.001Z</time></trkpt><trkpt lat="46.05712585579143" lon="12.217030283309068"><ele>752.0</ele><time>2026-04-07T10:59:21.001Z</time></trkpt><trkpt lat="46.057034020488004" lon="12.217148914952066"><ele>752.0</ele><time>2026-04-07T10:59:22.001Z</time></trkpt><trkpt lat="46.05693928887533" lon="12.217270681222816"><ele>752.0</ele><time>2026-04-07T10:59:23.001Z</time></trkpt><trkpt lat="46.05685631064281" lon="12.21740891610562"><ele>752.0</ele><time>2026-04-07T10:59:24.001Z</time></trkpt><trkpt lat="46.056794751735296" lon="12.217568416161205"><ele>753.3333333333333</ele><time>2026-04-07T10:59:25.001Z</time></trkpt><trkpt lat="46.05674748357931" lon="12.21775805029403"><ele>754.6666666666666</ele><time>2026-04-07T10:59:26.001Z</time></trkpt><trkpt lat="46.05669081377112" lon="12.21798850958417"><ele>756.0</ele><time>2026-04-07T10:59:27.001Z</time></trkpt><trkpt lat="46.05664071675592" lon="12.218184614207166"><ele>753.5</ele><time>2026-04-07T10:59:28.001Z</time></trkpt><trkpt lat="46.056610403376325" lon="12.218352168746579"><ele>751.0</ele><time>2026-04-07T10:59:29.001Z</time></trkpt><trkpt lat="46.056599809535456" lon="12.218507140145247"><ele>748.5</ele><time>2026-04-07T10:59:30.001Z</time></trkpt><trkpt lat="46.056603048192635" lon="12.218666531505972"><ele>746.0</ele><time>2026-04-07T10:59:31.001Z</time></trkpt><trkpt lat="46.05661416278433" lon="12.21883777973512"><ele>748.0</ele><time>2026-04-07T10:59:32.001Z</time></trkpt><trkpt lat="46.05662325313659" lon="12.219013932888892"><ele>750.0</ele><time>2026-04-07T10:59:33.001Z</time></trkpt><trkpt lat="46.05661688587656" lon="12.219174174821001"><ele>752.0</ele><time>2026-04-07T10:59:34.001Z</time></trkpt><trkpt lat="46.056600822416726" lon="12.219320112266612"><ele>754.0</ele><time>2026-04-07T10:59:35.001Z</time></trkpt><trkpt lat="46.056557837045176" lon="12.219466557969168"><ele>756.0</ele><time>2026-04-07T10:59:36.001Z</time></trkpt><trkpt lat="46.056497786851345" lon="12.21963040808634"><ele>756.0</ele><time>2026-04-07T10:59:37.001Z</time></trkpt><trkpt lat="46.0564350541491" lon="12.219803401183817"><ele>756.0</ele><time>2026-04-07T10:59:38.001Z</time></trkpt><trkpt lat="46.0563865602807" lon="12.219943919927552"><ele>756.0</ele><time>2026-04-07T10:59:39.001Z</time></trkpt><trkpt lat="46.05633453633042" lon="12.220041565505861"><ele>756.0</ele><time>2026-04-07T10:59:40.001Z</time></trkpt><trkpt lat="46.056271162227965" lon="12.220120672936812"><ele>756.0</ele><time>2026-04-07T10:59:41.001Z</time></trkpt><trkpt lat="46.05618848297936" lon="12.2201899671317"><ele>756.75</ele><time>2026-04-07T10:59:42.001Z</time></trkpt><trkpt lat="46.056087776508974" lon="12.220239922535374"><ele>757.5</ele><time>2026-04-07T10:59:43.001Z</time></trkpt><trkpt lat="46.05596896212072" lon="12.220277861490656"><ele>758.25</ele><time>2026-04-07T10:59:44.001Z</time></trkpt><trkpt lat="46.05585647668179" lon="12.220318855121821"><ele>759.0</ele><time>2026-04-07T10:59:45.001Z</time></trkpt><trkpt lat="46.05574524699853" lon="12.22037807448256"><ele>759.0</ele><time>2026-04-07T10:59:46.001Z</time></trkpt><trkpt lat="46.05563823272242" lon="12.220436383549558"><ele>759.0</ele><time>2026-04-07T10:59:47.001Z</time></trkpt><trkpt lat="46.055533720522696" lon="12.220503980590633"><ele>759.0</ele><time>2026-04-07T10:59:48.001Z</time></trkpt><trkpt lat="46.055427301255065" lon="12.220583490707666"><ele>759.0</ele><time>2026-04-07T10:59:49.001Z</time></trkpt><trkpt lat="46.055312784725096" lon="12.220672723199549"><ele>761.0</ele><time>2026-04-07T10:59:50.001Z</time></trkpt><trkpt lat="46.05519146033686" lon="12.220793064372854"><ele>763.0</ele><time>2026-04-07T10:59:51.001Z</time></trkpt><trkpt lat="46.05504787722139" lon="12.22094943982212"><ele>765.0</ele><time>2026-04-07T10:59:52.001Z</time></trkpt><trkpt lat="46.054915236749544" lon="12.221091200741267"><ele>767.0</ele><time>2026-04-07T10:59:53.001Z</time></trkpt><trkpt lat="46.0547707186619" lon="12.221230850569254"><ele>769.0</ele><time>2026-04-07T10:59:54.001Z</time></trkpt><trkpt lat="46.05462961967996" lon="12.22139519683803"><ele>771.0</ele><time>2026-04-07T10:59:55.001Z</time></trkpt><trkpt lat="46.054477685182945" lon="12.221578859652665"><ele>771.0</ele><time>2026-04-07T10:59:56Z</time></trkpt><trkpt lat="46.05431594497859" lon="12.221775642902449"><ele>771.0</ele><time>2026-04-07T10:59:56.999Z</time></trkpt><trkpt lat="46.05415150742068" lon="12.221963500729856"><ele>771.0</ele><time>2026-04-07T10:59:58Z</time></trkpt><trkpt lat="46.05400531116852" lon="12.22213483620381"><ele>773.0</ele><time>2026-04-07T10:59:59Z</time></trkpt><trkpt lat="46.053859676888216" lon="12.22230298179447"><ele>775.0</ele><time>2026-04-07T11:00:00Z</time></trkpt><trkpt lat="46.053742713501514" lon="12.222443815856609"><ele>777.0</ele><time>2026-04-07T11:00:01Z</time></trkpt><trkpt lat="46.05365061631471" lon="12.222563665169927"><ele>777.0</ele><time>2026-04-07T11:00:02Z</time></trkpt><trkpt lat="46.053567726331316" lon="12.222692552077108"><ele>777.0</ele><time>2026-04-07T11:00:03Z</time></trkpt><trkpt lat="46.053501463646555" lon="12.222834851218854"><ele>777.0</ele><time>2026-04-07T11:00:04Z</time></trkpt><trkpt lat="46.05343894610974" lon="12.223002992095406"><ele>777.0</ele><time>2026-04-07T11:00:05Z</time></trkpt><trkpt lat="46.05337088311562" lon="12.223199152016521"><ele>776.3333333333333</ele><time>2026-04-07T11:00:06Z</time></trkpt><trkpt lat="46.053290381593335" lon="12.223415254718454"><ele>775.6666666666666</ele><time>2026-04-07T11:00:07Z</time></trkpt><trkpt lat="46.05320131794539" lon="12.223622682305464"><ele>775.0</ele><time>2026-04-07T11:00:08Z</time></trkpt><trkpt lat="46.053097976919084" lon="12.223802801210864"><ele>776.5</ele><time>2026-04-07T11:00:09Z</time></trkpt><trkpt lat="46.052985601509455" lon="12.223959386865879"><ele>778.0</ele><time>2026-04-07T11:00:10Z</time></trkpt><trkpt lat="46.05288778427591" lon="12.224100274624426"><ele>779.5</ele><time>2026-04-07T11:00:11Z</time></trkpt><trkpt lat="46.05280590175032" lon="12.22425353923952"><ele>781.0</ele><time>2026-04-07T11:00:12Z</time></trkpt><trkpt lat="46.052746092967894" lon="12.224413306733599"><ele>781.0</ele><time>2026-04-07T11:00:13Z</time></trkpt><trkpt lat="46.05271160886085" lon="12.224567147742853"><ele>781.0</ele><time>2026-04-07T11:00:14Z</time></trkpt><trkpt lat="46.052693754981284" lon="12.224726525194495"><ele>781.0</ele><time>2026-04-07T11:00:15Z</time></trkpt><trkpt lat="46.052690635651224" lon="12.224902535864453"><ele>781.0</ele><time>2026-04-07T11:00:16Z</time></trkpt><trkpt lat="46.05269541357848" lon="12.22509110189422"><ele>781.75</ele><time>2026-04-07T11:00:17Z</time></trkpt><trkpt lat="46.05270856654253" lon="12.22528667484899"><ele>782.5</ele><time>2026-04-07T11:00:18Z</time></trkpt><trkpt lat="46.05272032380331" lon="12.225487846643952"><ele>783.25</ele><time>2026-04-07T11:00:19Z</time></trkpt><trkpt lat="46.052727868619996" lon="12.225659051481689"><ele>784.0</ele><time>2026-04-07T11:00:20Z</time></trkpt><trkpt lat="46.05273605143494" lon="12.225795591373565"><ele>784.4000000000001</ele><time>2026-04-07T11:00:21Z</time></trkpt><trkpt lat="46.052750750327206" lon="12.225916213168475"><ele>784.8</ele><time>2026-04-07T11:00:22Z</time></trkpt><trkpt lat="46.052758853556135" lon="12.226045427425632"><ele>785.2</ele><time>2026-04-07T11:00:23Z</time></trkpt><trkpt lat="46.05278026624743" lon="12.22618448867071"><ele>785.5999999999999</ele><time>2026-04-07T11:00:24Z</time></trkpt><trkpt lat="46.05281699090067" lon="12.226333299664953"><ele>786.0</ele><time>2026-04-07T11:00:25Z</time></trkpt><trkpt lat="46.05287760874452" lon="12.226480634234864"><ele>788.3333333333333</ele><time>2026-04-07T11:00:26Z</time></trkpt><trkpt lat="46.05296655044386" lon="12.226638767236295"><ele>790.6666666666666</ele><time>2026-04-07T11:00:27Z</time></trkpt><trkpt lat="46.05307326287526" lon="12.226801356160017"><ele>793.0</ele><time>2026-04-07T11:00:28Z</time></trkpt><trkpt lat="46.05320764417877" lon="12.226980743094952"><ele>793.0</ele><time>2026-04-07T11:00:29Z</time></trkpt><trkpt lat="46.053319932788455" lon="12.227132395378714"><ele>793.0</ele><time>2026-04-07T11:00:30Z</time></trkpt><trkpt lat="46.05343155685435" lon="12.227294590023448"><ele>793.0</ele><time>2026-04-07T11:00:31Z</time></trkpt><trkpt lat="46.05354919291475" lon="12.227456539172142"><ele>793.0</ele><time>2026-04-07T11:00:32Z</time></trkpt><trkpt lat="46.053669032333254" lon="12.227622817330072"><ele>793.0</ele><time>2026-04-07T11:00:33Z</time></trkpt><trkpt lat="46.05377699647593" lon="12.227771091078909"><ele>793.0</ele><time>2026-04-07T11:00:34Z</time></trkpt><trkpt lat="46.05387422006146" lon="12.22790670165549"><ele>793.0</ele><time>2026-04-07T11:00:35Z</time></trkpt><trkpt lat="46.05396103568299" lon="12.228019177390456"><ele>793.0</ele><time>2026-04-07T11:00:36Z</time></trkpt><trkpt lat="46.05402640871199" lon="12.228079912438982"><ele>793.0</ele><time>2026-04-07T11:00:37Z</time></trkpt><trkpt lat="46.054118140508834" lon="12.228173385434614"><ele>793.0</ele><time>2026-04-07T11:00:39Z</time></trkpt><trkpt lat="46.05417633522787" lon="12.228216594579239"><ele>793.0</ele><time>2026-04-07T11:00:41Z</time></trkpt><trkpt lat="46.0542637932242" lon="12.228260972819985"><ele>793.0000000000001</ele><time>2026-04-07T11:00:49Z</time></trkpt><trkpt lat="46.054324302664526" lon="12.228290028185354"><ele>793.0</ele><time>2026-04-07T11:00:51Z</time></trkpt><trkpt lat="46.05438590124809" lon="12.22831326532553"><ele>793.0</ele><time>2026-04-07T11:08:50Z</time></trkpt><trkpt lat="46.054443801678794" lon="12.228246502612297"><ele>793.0</ele><time>2026-04-07T11:08:53Z</time></trkpt><trkpt lat="46.054421973545494" lon="12.228127930280001"><ele>793.0</ele><time>2026-04-07T11:08:54Z</time></trkpt><trkpt lat="46.05438829456627" lon="12.228032053261895"><ele>793.0000000000001</ele><time>2026-04-07T11:08:56.001Z</time></trkpt><trkpt lat="46.05435803018531" lon="12.227932091773493"><ele>793.0</ele><time>2026-04-07T11:08:58.001Z</time></trkpt><trkpt lat="46.05433556255297" lon="12.227836599737481"><ele>793.0</ele><time>2026-04-07T11:09:00.001Z</time></trkpt><trkpt lat="46.05433556255297" lon="12.227836599737481"><ele>793.0</ele><time>2026-04-07T11:09:00.001Z</time></trkpt></trkseg><trkseg><trkpt lat="46.05427319255145" lon="12.227869649132744"><ele>792.9999999999999</ele><time>2026-04-07T11:20:21.001Z</time></trkpt><trkpt lat="46.05419660480394" lon="12.227905174626946"><ele>793.0</ele><time>2026-04-07T11:20:29.001Z</time></trkpt><trkpt lat="46.05416641210104" lon="12.228006164099664"><ele>793.0</ele><time>2026-04-07T11:20:31.001Z</time></trkpt><trkpt lat="46.05417367402127" lon="12.228129487654716"><ele>793.0</ele><time>2026-04-07T11:20:33.001Z</time></trkpt><trkpt lat="46.05417585170547" lon="12.228259641915729"><ele>792.9999999999999</ele><time>2026-04-07T11:20:35.001Z</time></trkpt><trkpt lat="46.0541600481046" lon="12.228388904507272"><ele>793.0</ele><time>2026-04-07T11:20:38.001Z</time></trkpt><trkpt lat="46.05406754419627" lon="12.22844527123151"><ele>793.8571428571429</ele><time>2026-04-07T11:20:40.001Z</time></trkpt><trkpt lat="46.05398280374377" lon="12.228480217702183"><ele>794.7142857142858</ele><time>2026-04-07T11:20:41.001Z</time></trkpt><trkpt lat="46.053907381407384" lon="12.228515482175709"><ele>795.5714285714287</ele><time>2026-04-07T11:20:42.001Z</time></trkpt><trkpt lat="46.05383684139528" lon="12.228545857629529"><ele>796.4285714285714</ele><time>2026-04-07T11:20:43.001Z</time></trkpt><trkpt lat="46.053771396769456" lon="12.22856866372796"><ele>797.2857142857142</ele><time>2026-04-07T11:20:44.001Z</time></trkpt><trkpt lat="46.053704335878365" lon="12.228585602955818"><ele>798.1428571428572</ele><time>2026-04-07T11:20:45.001Z</time></trkpt><trkpt lat="46.05364086719308" lon="12.228568275380358"><ele>799.0</ele><time>2026-04-07T11:20:46.001Z</time></trkpt><trkpt lat="46.05358163198429" lon="12.22852099628729"><ele>799.0</ele><time>2026-04-07T11:20:47.001Z</time></trkpt><trkpt lat="46.05352253787284" lon="12.228417325867776"><ele>799.0</ele><time>2026-04-07T11:20:48.001Z</time></trkpt><trkpt lat="46.053443605585535" lon="12.228351444413164"><ele>799.0</ele><time>2026-04-07T11:20:49.001Z</time></trkpt><trkpt lat="46.053358785815576" lon="12.228322835606189"><ele>799.0</ele><time>2026-04-07T11:20:50.001Z</time></trkpt><trkpt lat="46.05325248592334" lon="12.228290729080927"><ele>799.0</ele><time>2026-04-07T11:20:51.001Z</time></trkpt><trkpt lat="46.053129330895906" lon="12.228254493287183"><ele>800.3333333333333</ele><time>2026-04-07T11:20:52.001Z</time></trkpt><trkpt lat="46.05301344120268" lon="12.228217112340708"><ele>801.6666666666666</ele><time>2026-04-07T11:20:53.001Z</time></trkpt><trkpt lat="46.05293014841022" lon="12.228188395131722"><ele>803.0</ele><time>2026-04-07T11:20:54.001Z</time></trkpt><trkpt lat="46.05286490991054" lon="12.228171280487437"><ele>804.3333333333333</ele><time>2026-04-07T11:20:55.001Z</time></trkpt><trkpt lat="46.052795530161426" lon="12.228144461625401"><ele>805.6666666666666</ele><time>2026-04-07T11:20:56.001Z</time></trkpt><trkpt lat="46.05269365181977" lon="12.228107583182837"><ele>807.0</ele><time>2026-04-07T11:20:57.001Z</time></trkpt><trkpt lat="46.05256679636866" lon="12.228070765493761"><ele>809.0</ele><time>2026-04-07T11:20:58.001Z</time></trkpt><trkpt lat="46.05243539275093" lon="12.22803672242764"><ele>811.0</ele><time>2026-04-07T11:20:59.001Z</time></trkpt><trkpt lat="46.05232618584467" lon="12.228008757615468"><ele>813.0</ele><time>2026-04-07T11:21:00.001Z</time></trkpt><trkpt lat="46.05221733661036" lon="12.227977357373412"><ele>815.0</ele><time>2026-04-07T11:21:01.001Z</time></trkpt><trkpt lat="46.05210418101264" lon="12.227938210144734"><ele>815.0</ele><time>2026-04-07T11:21:02.002Z</time></trkpt><trkpt lat="46.05199203794098" lon="12.22790432917237"><ele>815.0</ele><time>2026-04-07T11:21:03.002Z</time></trkpt><trkpt lat="46.05188110496356" lon="12.227873951071336"><ele>815.0</ele><time>2026-04-07T11:21:04.002Z</time></trkpt><trkpt lat="46.051772416454305" lon="12.227840392505422"><ele>815.0</ele><time>2026-04-07T11:21:05.002Z</time></trkpt><trkpt lat="46.051665760551295" lon="12.227798090756668"><ele>815.0</ele><time>2026-04-07T11:21:06.002Z</time></trkpt><trkpt lat="46.051572412817855" lon="12.227741572999118"><ele>815.8</ele><time>2026-04-07T11:21:07.002Z</time></trkpt><trkpt lat="46.05147619279343" lon="12.227666701247339"><ele>816.6</ele><time>2026-04-07T11:21:08.002Z</time></trkpt><trkpt lat="46.051384176451016" lon="12.227588400800583"><ele>817.4000000000001</ele><time>2026-04-07T11:21:09.002Z</time></trkpt><trkpt lat="46.05129592954157" lon="12.227491847051647"><ele>818.2</ele><time>2026-04-07T11:21:10.002Z</time></trkpt><trkpt lat="46.05121126449404" lon="12.22738328747034"><ele>819.0</ele><time>2026-04-07T11:21:11.002Z</time></trkpt><trkpt lat="46.05115061420151" lon="12.22724998522261"><ele>819.0</ele><time>2026-04-07T11:21:12.002Z</time></trkpt><trkpt lat="46.05109303484516" lon="12.227118678083519"><ele>819.0</ele><time>2026-04-07T11:21:13.002Z</time></trkpt><trkpt lat="46.05102923976005" lon="12.227005125558554"><ele>819.0</ele><time>2026-04-07T11:21:14.002Z</time></trkpt><trkpt lat="46.05098497432418" lon="12.226889612618402"><ele>819.0</ele><time>2026-04-07T11:21:15.002Z</time></trkpt><trkpt lat="46.05091889458758" lon="12.226774707433895"><ele>819.0</ele><time>2026-04-07T11:21:16.002Z</time></trkpt><trkpt lat="46.05082925377949" lon="12.226681816836424"><ele>820.0</ele><time>2026-04-07T11:21:17.002Z</time></trkpt><trkpt lat="46.05071310778791" lon="12.226589585109584"><ele>821.0</ele><time>2026-04-07T11:21:18.002Z</time></trkpt><trkpt lat="46.050577757179525" lon="12.226476060987562"><ele>822.0</ele><time>2026-04-07T11:21:19.002Z</time></trkpt><trkpt lat="46.0504563329169" lon="12.226352779781402"><ele>823.0</ele><time>2026-04-07T11:21:20.002Z</time></trkpt><trkpt lat="46.050343273753995" lon="12.2262538104563"><ele>823.0</ele><time>2026-04-07T11:21:21.002Z</time></trkpt><trkpt lat="46.0502277130604" lon="12.226139446542993"><ele>823.0</ele><time>2026-04-07T11:21:22.002Z</time></trkpt><trkpt lat="46.050096616471144" lon="12.22602988930626"><ele>823.0</ele><time>2026-04-07T11:21:23.002Z</time></trkpt><trkpt lat="46.049965691624124" lon="12.225915767828045"><ele>823.0</ele><time>2026-04-07T11:21:24.002Z</time></trkpt><trkpt lat="46.049830919704085" lon="12.225792730584898"><ele>822.6666666666666</ele><time>2026-04-07T11:21:25.002Z</time></trkpt><trkpt lat="46.04970090304243" lon="12.225669826436867"><ele>822.3333333333333</ele><time>2026-04-07T11:21:26.002Z</time></trkpt><trkpt lat="46.0495707484707" lon="12.225549634543857"><ele>822.0</ele><time>2026-04-07T11:21:27.002Z</time></trkpt><trkpt lat="46.049438784477516" lon="12.225433695039023"><ele>822.0</ele><time>2026-04-07T11:21:28.002Z</time></trkpt><trkpt lat="46.049320662453695" lon="12.225295514898374"><ele>822.0</ele><time>2026-04-07T11:21:29.002Z</time></trkpt><trkpt lat="46.04920167728854" lon="12.22519529133363"><ele>822.0</ele><time>2026-04-07T11:21:30.002Z</time></trkpt><trkpt lat="46.049101455234435" lon="12.225141418559794"><ele>822.0</ele><time>2026-04-07T11:21:31.002Z</time></trkpt><trkpt lat="46.0490199981363" lon="12.225098807962093"><ele>824.0</ele><time>2026-04-07T11:21:32.002Z</time></trkpt><trkpt lat="46.04892465196119" lon="12.225086655227258"><ele>826.0</ele><time>2026-04-07T11:21:33.002Z</time></trkpt><trkpt lat="46.04881121488099" lon="12.225090217064462"><ele>828.0</ele><time>2026-04-07T11:21:34.002Z</time></trkpt><trkpt lat="46.04868642297387" lon="12.225099580994433"><ele>830.0</ele><time>2026-04-07T11:21:35.002Z</time></trkpt><trkpt lat="46.04856297639604" lon="12.22510042384211"><ele>830.0</ele><time>2026-04-07T11:21:36.002Z</time></trkpt><trkpt lat="46.048440117186274" lon="12.225051355759797"><ele>830.0</ele><time>2026-04-07T11:21:37.002Z</time></trkpt><trkpt lat="46.048318414587726" lon="12.225012404128293"><ele>830.0</ele><time>2026-04-07T11:21:38.002Z</time></trkpt><trkpt lat="46.04819407717069" lon="12.224987253159616"><ele>830.0</ele><time>2026-04-07T11:21:39.002Z</time></trkpt><trkpt lat="46.04807081997562" lon="12.224930081683796"><ele>830.0</ele><time>2026-04-07T11:21:40.002Z</time></trkpt><trkpt lat="46.047950490384565" lon="12.224870219754086"><ele>830.0</ele><time>2026-04-07T11:21:41.002Z</time></trkpt><trkpt lat="46.04783155476326" lon="12.22480264571492"><ele>830.0</ele><time>2026-04-07T11:21:42.002Z</time></trkpt><trkpt lat="46.047717026811924" lon="12.224727075979791"><ele>830.0</ele><time>2026-04-07T11:21:43.002Z</time></trkpt><trkpt lat="46.0476141311154" lon="12.224648856445436"><ele>830.0</ele><time>2026-04-07T11:21:44.002Z</time></trkpt><trkpt lat="46.0475162902715" lon="12.224557002672414"><ele>830.0</ele><time>2026-04-07T11:21:45.002Z</time></trkpt><trkpt lat="46.04743222250868" lon="12.22443020055247"><ele>830.0</ele><time>2026-04-07T11:21:46.002Z</time></trkpt><trkpt lat="46.04733641157013" lon="12.224323419266225"><ele>830.0</ele><time>2026-04-07T11:21:47.002Z</time></trkpt><trkpt lat="46.04723245006852" lon="12.224213205185418"><ele>829.75</ele><time>2026-04-07T11:21:48.002Z</time></trkpt><trkpt lat="46.047119561781756" lon="12.224119971424923"><ele>829.5</ele><time>2026-04-07T11:21:49.002Z</time></trkpt><trkpt lat="46.04701546881866" lon="12.224002968309824"><ele>829.25</ele><time>2026-04-07T11:21:50.002Z</time></trkpt><trkpt lat="46.0469050105864" lon="12.223891539956304"><ele>829.0</ele><time>2026-04-07T11:21:51.003Z</time></trkpt><trkpt lat="46.04680482732525" lon="12.223780575890862"><ele>829.0</ele><time>2026-04-07T11:21:52.003Z</time></trkpt><trkpt lat="46.04671633198241" lon="12.223664510449497"><ele>829.0</ele><time>2026-04-07T11:21:53.003Z</time></trkpt><trkpt lat="46.04664868533221" lon="12.223542041177517"><ele>829.0</ele><time>2026-04-07T11:21:54.003Z</time></trkpt><trkpt lat="46.046597020663555" lon="12.223397509868464"><ele>829.0</ele><time>2026-04-07T11:21:55.003Z</time></trkpt><trkpt lat="46.046583138476244" lon="12.223225474865584"><ele>828.6</ele><time>2026-04-07T11:21:56.003Z</time></trkpt><trkpt lat="46.046542009583824" lon="12.223069803051674"><ele>828.2</ele><time>2026-04-07T11:21:57.003Z</time></trkpt><trkpt lat="46.04650644236955" lon="12.222945210485577"><ele>827.8000000000001</ele><time>2026-04-07T11:21:58.003Z</time></trkpt><trkpt lat="46.04644702938518" lon="12.22286071383217"><ele>827.4000000000001</ele><time>2026-04-07T11:21:59.003Z</time></trkpt><trkpt lat="46.0463601886104" lon="12.222803037532149"><ele>827.0</ele><time>2026-04-07T11:22:00.001Z</time></trkpt><trkpt lat="46.04626053556338" lon="12.222777636127379"><ele>827.0000000000001</ele><time>2026-04-07T11:22:01.001Z</time></trkpt><trkpt lat="46.046173829349804" lon="12.222758368158956"><ele>827.0</ele><time>2026-04-07T11:22:02.001Z</time></trkpt><trkpt lat="46.04610900560047" lon="12.222696937604363"><ele>827.0</ele><time>2026-04-07T11:22:03.001Z</time></trkpt><trkpt lat="46.04609601598305" lon="12.22257592816898"><ele>827.0</ele><time>2026-04-07T11:22:04.001Z</time></trkpt><trkpt lat="46.04609437095341" lon="12.222473651829826"><ele>827.0000000000001</ele><time>2026-04-07T11:22:05.001Z</time></trkpt><trkpt lat="46.04615642578602" lon="12.222394564360373"><ele>827.0</ele><time>2026-04-07T11:22:06.001Z</time></trkpt><trkpt lat="46.04622083970855" lon="12.222280938730417"><ele>826.75</ele><time>2026-04-07T11:22:07.001Z</time></trkpt><trkpt lat="46.04628935633566" lon="12.222109378133846"><ele>826.5</ele><time>2026-04-07T11:22:08.001Z</time></trkpt><trkpt lat="46.04638255967219" lon="12.221940881757783"><ele>826.25</ele><time>2026-04-07T11:22:09.001Z</time></trkpt><trkpt lat="46.046450532827684" lon="12.221803975385786"><ele>826.0</ele><time>2026-04-07T11:22:10.001Z</time></trkpt><trkpt lat="46.04652639838084" lon="12.221702230397302"><ele>826.0</ele><time>2026-04-07T11:22:11.001Z</time></trkpt><trkpt lat="46.04662499893104" lon="12.221632144943051"><ele>826.0</ele><time>2026-04-07T11:22:12.001Z</time></trkpt><trkpt lat="46.04674038844546" lon="12.221599087719108"><ele>826.0</ele><time>2026-04-07T11:22:13.001Z</time></trkpt><trkpt lat="46.04685825126103" lon="12.2215877886988"><ele>826.0</ele><time>2026-04-07T11:22:14.001Z</time></trkpt><trkpt lat="46.04697108355016" lon="12.221577640056537"><ele>825.4</ele><time>2026-04-07T11:22:15.001Z</time></trkpt><trkpt lat="46.04707264606496" lon="12.221537195200204"><ele>824.8</ele><time>2026-04-07T11:22:16.001Z</time></trkpt><trkpt lat="46.047163705297656" lon="12.221459257138438"><ele>824.1999999999999</ele><time>2026-04-07T11:22:17.001Z</time></trkpt><trkpt lat="46.047236224489275" lon="12.221345177349786"><ele>823.5999999999999</ele><time>2026-04-07T11:22:18.001Z</time></trkpt><trkpt lat="46.04728009847417" lon="12.221222656876419"><ele>823.0</ele><time>2026-04-07T11:22:19.001Z</time></trkpt><trkpt lat="46.04729760355592" lon="12.221081772989566"><ele>823.0</ele><time>2026-04-07T11:22:20.001Z</time></trkpt><trkpt lat="46.04728698244726" lon="12.22093370320386"><ele>823.0</ele><time>2026-04-07T11:22:21.001Z</time></trkpt><trkpt lat="46.04725364271341" lon="12.220769637999231"><ele>823.0</ele><time>2026-04-07T11:22:22.001Z</time></trkpt><trkpt lat="46.0472264404335" lon="12.220568898129228"><ele>823.0</ele><time>2026-04-07T11:22:23.001Z</time></trkpt><trkpt lat="46.047189694902954" lon="12.22034618383875"><ele>821.0</ele><time>2026-04-07T11:22:24.001Z</time></trkpt><trkpt lat="46.04715440781516" lon="12.220131405276776"><ele>819.0</ele><time>2026-04-07T11:22:25.001Z</time></trkpt><trkpt lat="46.047116446367326" lon="12.219893856881388"><ele>817.0</ele><time>2026-04-07T11:22:26.001Z</time></trkpt><trkpt lat="46.04705891209136" lon="12.219631706814901"><ele>815.8</ele><time>2026-04-07T11:22:27.001Z</time></trkpt><trkpt lat="46.04703048930568" lon="12.219397228776774"><ele>814.6</ele><time>2026-04-07T11:22:28.001Z</time></trkpt><trkpt lat="46.04699779948867" lon="12.219234815584958"><ele>813.4</ele><time>2026-04-07T11:22:29.001Z</time></trkpt><trkpt lat="46.04697998494663" lon="12.219113259667777"><ele>812.1999999999999</ele><time>2026-04-07T11:22:30.001Z</time></trkpt><trkpt lat="46.04693995835756" lon="12.219025378842806"><ele>811.0</ele><time>2026-04-07T11:22:31.001Z</time></trkpt><trkpt lat="46.046834882989025" lon="12.218959062030569"><ele>811.0</ele><time>2026-04-07T11:22:33.001Z</time></trkpt><trkpt lat="46.04676584585315" lon="12.219025250671042"><ele>811.0</ele><time>2026-04-07T11:22:34.001Z</time></trkpt><trkpt lat="46.046711865665905" lon="12.21909503555745"><ele>811.0</ele><time>2026-04-07T11:22:35.001Z</time></trkpt><trkpt lat="46.046676380370656" lon="12.219208031482982"><ele>811.0</ele><time>2026-04-07T11:22:36.001Z</time></trkpt><trkpt lat="46.04662088589419" lon="12.219352290079962"><ele>811.0</ele><time>2026-04-07T11:22:37.001Z</time></trkpt><trkpt lat="46.04655684699312" lon="12.219480912570788"><ele>808.75</ele><time>2026-04-07T11:22:38.001Z</time></trkpt><trkpt lat="46.04647872875152" lon="12.219613903182195"><ele>806.5</ele><time>2026-04-07T11:22:39.001Z</time></trkpt><trkpt lat="46.04639698483652" lon="12.219758899381999"><ele>804.25</ele><time>2026-04-07T11:22:40.001Z</time></trkpt><trkpt lat="46.0463259194447" lon="12.219913516598035"><ele>802.0</ele><time>2026-04-07T11:22:41.001Z</time></trkpt><trkpt lat="46.04628411074337" lon="12.220077128056115"><ele>802.0</ele><time>2026-04-07T11:22:42.001Z</time></trkpt><trkpt lat="46.046231774678496" lon="12.220225746604497"><ele>802.0</ele><time>2026-04-07T11:22:43.001Z</time></trkpt><trkpt lat="46.046177066682795" lon="12.220341712906077"><ele>802.0</ele><time>2026-04-07T11:22:44.001Z</time></trkpt><trkpt lat="46.04609673799963" lon="12.220424800778147"><ele>802.0</ele><time>2026-04-07T11:22:45.001Z</time></trkpt><trkpt lat="46.04599499775144" lon="12.22045799467043"><ele>802.0</ele><time>2026-04-07T11:22:46.001Z</time></trkpt><trkpt lat="46.045890737652556" lon="12.22043330095892"><ele>806.25</ele><time>2026-04-07T11:22:47.001Z</time></trkpt><trkpt lat="46.0457856141763" lon="12.220384153618324"><ele>810.5</ele><time>2026-04-07T11:22:48.001Z</time></trkpt><trkpt lat="46.045657884900095" lon="12.220338796192367"><ele>814.75</ele><time>2026-04-07T11:22:49.001Z</time></trkpt><trkpt lat="46.045549107001314" lon="12.220274544156657"><ele>819.0</ele><time>2026-04-07T11:22:50.001Z</time></trkpt><trkpt lat="46.045462425040476" lon="12.220215054274654"><ele>819.0</ele><time>2026-04-07T11:22:51.001Z</time></trkpt><trkpt lat="46.04539765551382" lon="12.220121569595044"><ele>819.0</ele><time>2026-04-07T11:22:52.001Z</time></trkpt><trkpt lat="46.04534668974479" lon="12.22001984947613"><ele>819.0</ele><time>2026-04-07T11:22:53.001Z</time></trkpt><trkpt lat="46.045301470941425" lon="12.21991307018578"><ele>819.0</ele><time>2026-04-07T11:22:54.001Z</time></trkpt><trkpt lat="46.04525936287206" lon="12.219827397529048"><ele>819.0</ele><time>2026-04-07T11:22:55.001Z</time></trkpt><trkpt lat="46.04525125840382" lon="12.219723174743594"><ele>819.0</ele><time>2026-04-07T11:22:56.001Z</time></trkpt><trkpt lat="46.0452629654488" lon="12.219616012763929"><ele>819.6</ele><time>2026-04-07T11:22:57.001Z</time></trkpt><trkpt lat="46.04532467988695" lon="12.219527267119648"><ele>820.2</ele><time>2026-04-07T11:22:58.001Z</time></trkpt><trkpt lat="46.04536534497426" lon="12.219410459223075"><ele>820.8000000000001</ele><time>2026-04-07T11:22:59.001Z</time></trkpt><trkpt lat="46.04541865817589" lon="12.219298093361482"><ele>821.4000000000001</ele><time>2026-04-07T11:23:00.001Z</time></trkpt><trkpt lat="46.04544859658693" lon="12.219159488098011"><ele>822.0</ele><time>2026-04-07T11:23:01.001Z</time></trkpt><trkpt lat="46.0454167607219" lon="12.219014396938512"><ele>823.2</ele><time>2026-04-07T11:23:02.001Z</time></trkpt><trkpt lat="46.04541140566126" lon="12.218868937004098"><ele>824.4000000000001</ele><time>2026-04-07T11:23:03.001Z</time></trkpt><trkpt lat="46.04545041119223" lon="12.21872876065351"><ele>825.5999999999999</ele><time>2026-04-07T11:23:04.001Z</time></trkpt><trkpt lat="46.04551497502996" lon="12.21859563643297"><ele>826.8</ele><time>2026-04-07T11:23:05.001Z</time></trkpt><trkpt lat="46.04557329455653" lon="12.218448338956573"><ele>828.0</ele><time>2026-04-07T11:23:06.001Z</time></trkpt><trkpt lat="46.0456235042285" lon="12.218300723362285"><ele>828.0</ele><time>2026-04-07T11:23:07.001Z</time></trkpt><trkpt lat="46.045649226115316" lon="12.218157170628373"><ele>828.0</ele><time>2026-04-07T11:23:08.001Z</time></trkpt><trkpt lat="46.045653756778584" lon="12.217990971073025"><ele>828.0</ele><time>2026-04-07T11:23:09.001Z</time></trkpt><trkpt lat="46.04563525023532" lon="12.217790301604149"><ele>828.0</ele><time>2026-04-07T11:23:10.001Z</time></trkpt><trkpt lat="46.04559737467175" lon="12.217568697938193"><ele>829.0</ele><time>2026-04-07T11:23:11.001Z</time></trkpt><trkpt lat="46.045543665574364" lon="12.217320017622674"><ele>830.0</ele><time>2026-04-07T11:23:12.001Z</time></trkpt><trkpt lat="46.045501773969924" lon="12.21704098032414"><ele>831.0</ele><time>2026-04-07T11:23:13.001Z</time></trkpt><trkpt lat="46.045450234116274" lon="12.21680161382617"><ele>831.0</ele><time>2026-04-07T11:23:14.001Z</time></trkpt><trkpt lat="46.0453797551542" lon="12.216543309577734"><ele>831.0</ele><time>2026-04-07T11:23:15.001Z</time></trkpt><trkpt lat="46.045324023160276" lon="12.216254011071689"><ele>831.0</ele><time>2026-04-07T11:23:16.002Z</time></trkpt><trkpt lat="46.04526542865795" lon="12.215947682512422"><ele>829.3333333333333</ele><time>2026-04-07T11:23:17.002Z</time></trkpt><trkpt lat="46.04519969906221" lon="12.215634361516004"><ele>827.6666666666666</ele><time>2026-04-07T11:23:18.002Z</time></trkpt><trkpt lat="46.045136670825556" lon="12.215341059382059"><ele>826.0</ele><time>2026-04-07T11:23:19.002Z</time></trkpt><trkpt lat="46.04507285353387" lon="12.215025488327635"><ele>826.0</ele><time>2026-04-07T11:23:20.002Z</time></trkpt><trkpt lat="46.04500230070329" lon="12.214683851529431"><ele>826.0</ele><time>2026-04-07T11:23:21.002Z</time></trkpt><trkpt lat="46.04494304257247" lon="12.214332050434102"><ele>833.5</ele><time>2026-04-07T11:23:22.002Z</time></trkpt><trkpt lat="46.04487148187581" lon="12.21398857688416"><ele>841.0</ele><time>2026-04-07T11:23:23.002Z</time></trkpt><trkpt lat="46.04480493594422" lon="12.213674100290465"><ele>841.0</ele><time>2026-04-07T11:23:24.002Z</time></trkpt><trkpt lat="46.04474393729733" lon="12.213378670069512"><ele>841.0</ele><time>2026-04-07T11:23:25.002Z</time></trkpt><trkpt lat="46.04466835138995" lon="12.213086996105181"><ele>841.0</ele><time>2026-04-07T11:23:26.002Z</time></trkpt><trkpt lat="46.044604198064" lon="12.212776112802972"><ele>841.6666666666666</ele><time>2026-04-07T11:23:27.002Z</time></trkpt><trkpt lat="46.04454347702156" lon="12.2124696964089"><ele>842.3333333333333</ele><time>2026-04-07T11:23:28.002Z</time></trkpt><trkpt lat="46.04448883152287" lon="12.21220679387117"><ele>843.0</ele><time>2026-04-07T11:23:29.002Z</time></trkpt><trkpt lat="46.044449427659345" lon="12.212003569490063"><ele>843.0</ele><time>2026-04-07T11:23:30.002Z</time></trkpt><trkpt lat="46.04440658340486" lon="12.211838650124202"><ele>843.0</ele><time>2026-04-07T11:23:31.002Z</time></trkpt><trkpt lat="46.04434266334126" lon="12.211702842229137"><ele>843.0</ele><time>2026-04-07T11:23:32.002Z</time></trkpt><trkpt lat="46.044258388236685" lon="12.211542427433331"><ele>843.0</ele><time>2026-04-07T11:23:33.002Z</time></trkpt><trkpt lat="46.04415763667364" lon="12.211351011975674"><ele>845.0</ele><time>2026-04-07T11:23:34.002Z</time></trkpt><trkpt lat="46.044051007069825" lon="12.211145955336958"><ele>847.0</ele><time>2026-04-07T11:23:35.002Z</time></trkpt><trkpt lat="46.043938096454035" lon="12.210934569243243"><ele>849.0</ele><time>2026-04-07T11:23:36.002Z</time></trkpt><trkpt lat="46.04382921403317" lon="12.210748715355603"><ele>847.5</ele><time>2026-04-07T11:23:37.002Z</time></trkpt><trkpt lat="46.04373723945622" lon="12.210580797842171"><ele>846.0</ele><time>2026-04-07T11:23:38.002Z</time></trkpt><trkpt lat="46.04365805183468" lon="12.210443009005079"><ele>844.5</ele><time>2026-04-07T11:23:39.002Z</time></trkpt><trkpt lat="46.04357659605738" lon="12.210326284405083"><ele>843.0</ele><time>2026-04-07T11:23:40.002Z</time></trkpt><trkpt lat="46.04347408907076" lon="12.210213333610952"><ele>843.0</ele><time>2026-04-07T11:23:41.002Z</time></trkpt><trkpt lat="46.04337511980844" lon="12.210102464022299"><ele>843.0</ele><time>2026-04-07T11:23:42.002Z</time></trkpt><trkpt lat="46.04328568559151" lon="12.209958440617246"><ele>843.0</ele><time>2026-04-07T11:23:43.002Z</time></trkpt><trkpt lat="46.0432149038263" lon="12.209782222680424"><ele>843.0</ele><time>2026-04-07T11:23:44.002Z</time></trkpt><trkpt lat="46.04315651612684" lon="12.209581823955988"><ele>842.0</ele><time>2026-04-07T11:23:45.002Z</time></trkpt><trkpt lat="46.043100476162515" lon="12.209369626934297"><ele>841.0</ele><time>2026-04-07T11:23:46.002Z</time></trkpt><trkpt lat="46.04304247532124" lon="12.209184867775116"><ele>840.0</ele><time>2026-04-07T11:23:47.002Z</time></trkpt><trkpt lat="46.042983921655626" lon="12.209024739874842"><ele>839.0</ele><time>2026-04-07T11:23:48.002Z</time></trkpt><trkpt lat="46.042930977540124" lon="12.208885438560992"><ele>837.5</ele><time>2026-04-07T11:23:49.002Z</time></trkpt><trkpt lat="46.04282808768212" lon="12.208803942339683"><ele>836.0</ele><time>2026-04-07T11:23:50.002Z</time></trkpt><trkpt lat="46.042721999022206" lon="12.208719266109178"><ele>834.5</ele><time>2026-04-07T11:23:51.002Z</time></trkpt><trkpt lat="46.042589409600026" lon="12.208614655012834"><ele>833.0</ele><time>2026-04-07T11:23:52.002Z</time></trkpt><trkpt lat="46.04532467988695" lon="12.219527267119648"><ele>832.0</ele><time>2026-04-07T11:22:58.001Z</time></trkpt><trkpt lat="46.04536534497426" lon="12.219410459223075"><ele>831.0</ele><time>2026-04-07T11:22:59.001Z</time></trkpt><trkpt lat="46.04541865817589" lon="12.219298093361482"><ele>830.0</ele><time>2026-04-07T11:23:00.001Z</time></trkpt><trkpt lat="46.04544859658693" lon="12.219159488098011"><ele>829.0</ele><time>2026-04-07T11:23:01.001Z</time></trkpt><trkpt lat="46.0454167607219" lon="12.219014396938512"><ele>828.0</ele><time>2026-04-07T11:23:02.001Z</time></trkpt><trkpt lat="46.04541140566126" lon="12.218868937004098"><ele>828.0</ele><time>2026-04-07T11:23:03.001Z</time></trkpt><trkpt lat="46.04545041119223" lon="12.21872876065351"><ele>828.0</ele><time>2026-04-07T11:23:04.001Z</time></trkpt><trkpt lat="46.04551497502996" lon="12.21859563643297"><ele>828.0</ele><time>2026-04-07T11:23:05.001Z</time></trkpt><trkpt lat="46.04557329455653" lon="12.218448338956573"><ele>828.0</ele><time>2026-04-07T11:23:06.001Z</time></trkpt><trkpt lat="46.0456235042285" lon="12.218300723362285"><ele>828.0</ele><time>2026-04-07T11:23:07.001Z</time></trkpt><trkpt lat="46.045649226115316" lon="12.218157170628373"><ele>829.0</ele><time>2026-04-07T11:23:08.001Z</time></trkpt><trkpt lat="46.045653756778584" lon="12.217990971073025"><ele>830.0</ele><time>2026-04-07T11:23:09.001Z</time></trkpt><trkpt lat="46.04563525023532" lon="12.217790301604149"><ele>831.0</ele><time>2026-04-07T11:23:10.001Z</time></trkpt><trkpt lat="46.04559737467175" lon="12.217568697938193"><ele>832.0</ele><time>2026-04-07T11:23:11.001Z</time></trkpt><trkpt lat="46.045543665574364" lon="12.217320017622674"><ele>831.6666666666666</ele><time>2026-04-07T11:23:12.001Z</time></trkpt><trkpt lat="46.045501773969924" lon="12.21704098032414"><ele>831.3333333333333</ele><time>2026-04-07T11:23:13.001Z</time></trkpt><trkpt lat="46.045450234116274" lon="12.21680161382617"><ele>831.0</ele><time>2026-04-07T11:23:14.001Z</time></trkpt><trkpt lat="46.0453797551542" lon="12.216543309577734"><ele>830.0</ele><time>2026-04-07T11:23:15.001Z</time></trkpt><trkpt lat="46.045324023160276" lon="12.216254011071689"><ele>829.0</ele><time>2026-04-07T11:23:16.002Z</time></trkpt><trkpt lat="46.04526542865795" lon="12.215947682512422"><ele>828.0</ele><time>2026-04-07T11:23:17.002Z</time></trkpt><trkpt lat="46.04519969906221" lon="12.215634361516004"><ele>827.3333333333333</ele><time>2026-04-07T11:23:18.002Z</time></trkpt><trkpt lat="46.045136670825556" lon="12.215341059382059"><ele>826.6666666666666</ele><time>2026-04-07T11:23:19.002Z</time></trkpt><trkpt lat="46.04507285353387" lon="12.215025488327635"><ele>826.0</ele><time>2026-04-07T11:23:20.002Z</time></trkpt><trkpt lat="46.04500230070329" lon="12.214683851529431"><ele>834.0</ele><time>2026-04-07T11:23:21.002Z</time></trkpt><trkpt lat="46.04494304257247" lon="12.214332050434102"><ele>842.0</ele><time>2026-04-07T11:23:22.002Z</time></trkpt><trkpt lat="46.04487148187581" lon="12.21398857688416"><ele>841.6666666666667</ele><time>2026-04-07T11:23:23.002Z</time></trkpt><trkpt lat="46.04480493594422" lon="12.213674100290465"><ele>841.3333333333333</ele><time>2026-04-07T11:23:24.002Z</time></trkpt><trkpt lat="46.04474393729733" lon="12.213378670069512"><ele>841.0</ele><time>2026-04-07T11:23:25.002Z</time></trkpt><trkpt lat="46.04466835138995" lon="12.213086996105181"><ele>841.6666666666666</ele><time>2026-04-07T11:23:26.002Z</time></trkpt><trkpt lat="46.044604198064" lon="12.212776112802972"><ele>842.3333333333333</ele><time>2026-04-07T11:23:27.002Z</time></trkpt><trkpt lat="46.04454347702156" lon="12.2124696964089"><ele>843.0</ele><time>2026-04-07T11:23:28.002Z</time></trkpt><trkpt lat="46.04448883152287" lon="12.21220679387117"><ele>843.25</ele><time>2026-04-07T11:23:29.002Z</time></trkpt><trkpt lat="46.044449427659345" lon="12.212003569490063"><ele>843.5</ele><time>2026-04-07T11:23:30.002Z</time></trkpt><trkpt lat="46.04440658340486" lon="12.211838650124202"><ele>843.75</ele><time>2026-04-07T11:23:31.002Z</time></trkpt><trkpt lat="46.04434266334126" lon="12.211702842229137"><ele>844.0</ele><time>2026-04-07T11:23:32.002Z</time></trkpt><trkpt lat="46.044258388236685" lon="12.211542427433331"><ele>843.6666666666666</ele><time>2026-04-07T11:23:33.002Z</time></trkpt><trkpt lat="46.04415763667364" lon="12.211351011975674"><ele>843.3333333333333</ele><time>2026-04-07T11:23:34.002Z</time></trkpt><trkpt lat="46.044051007069825" lon="12.211145955336958"><ele>843.0</ele><time>2026-04-07T11:23:35.002Z</time></trkpt><trkpt lat="46.043938096454035" lon="12.210934569243243"><ele>843.0</ele><time>2026-04-07T11:23:36.002Z</time></trkpt><trkpt lat="46.04382921403317" lon="12.210748715355603"><ele>843.0</ele><time>2026-04-07T11:23:37.002Z</time></trkpt><trkpt lat="46.04373723945622" lon="12.210580797842171"><ele>843.0</ele><time>2026-04-07T11:23:38.002Z</time></trkpt><trkpt lat="46.04365805183468" lon="12.210443009005079"><ele>843.0</ele><time>2026-04-07T11:23:39.002Z</time></trkpt><trkpt lat="46.04357659605738" lon="12.210326284405083"><ele>843.0</ele><time>2026-04-07T11:23:40.002Z</time></trkpt><trkpt lat="46.04347408907076" lon="12.210213333610952"><ele>843.0</ele><time>2026-04-07T11:23:41.002Z</time></trkpt><trkpt lat="46.04337511980844" lon="12.210102464022299"><ele>843.0</ele><time>2026-04-07T11:23:42.002Z</time></trkpt><trkpt lat="46.04328568559151" lon="12.209958440617246"><ele>843.0</ele><time>2026-04-07T11:23:43.002Z</time></trkpt><trkpt lat="46.0432149038263" lon="12.209782222680424"><ele>842.0</ele><time>2026-04-07T11:23:44.002Z</time></trkpt><trkpt lat="46.04315651612684" lon="12.209581823955988"><ele>841.0</ele><time>2026-04-07T11:23:45.002Z</time></trkpt><trkpt lat="46.043100476162515" lon="12.209369626934297"><ele>840.0</ele><time>2026-04-07T11:23:46.002Z</time></trkpt><trkpt lat="46.04304247532124" lon="12.209184867775116"><ele>839.0</ele><time>2026-04-07T11:23:47.002Z</time></trkpt><trkpt lat="46.042983921655626" lon="12.209024739874842"><ele>837.5</ele><time>2026-04-07T11:23:48.002Z</time></trkpt><trkpt lat="46.042930977540124" lon="12.208885438560992"><ele>836.0</ele><time>2026-04-07T11:23:49.002Z</time></trkpt><trkpt lat="46.04282808768212" lon="12.208803942339683"><ele>834.5</ele><time>2026-04-07T11:23:50.002Z</time></trkpt><trkpt lat="46.042721999022206" lon="12.208719266109178"><ele>833.0</ele><time>2026-04-07T11:23:51.002Z</time></trkpt><trkpt lat="46.042589409600026" lon="12.208614655012834"><ele>833.3333333333334</ele><time>2026-04-07T11:23:52.002Z</time></trkpt><trkpt lat="46.0424503450165" lon="12.208471714849717"><ele>833.6666666666667</ele><time>2026-04-07T11:23:53.002Z</time></trkpt><trkpt lat="46.04231638053123" lon="12.208310019009964"><ele>834.0</ele><time>2026-04-07T11:23:54.002Z</time></trkpt><trkpt lat="46.04220575145148" lon="12.20813639212974"><ele>834.0</ele><time>2026-04-07T11:23:55.002Z</time></trkpt><trkpt lat="46.04207146959349" lon="12.208014791271891"><ele>834.0</ele><time>2026-04-07T11:23:56.002Z</time></trkpt><trkpt lat="46.041931307274545" lon="12.207924542164298"><ele>834.0</ele><time>2026-04-07T11:23:57.002Z</time></trkpt><trkpt lat="46.04178787263549" lon="12.207857192862278"><ele>834.0</ele><time>2026-04-07T11:23:58.002Z</time></trkpt><trkpt lat="46.04166186692255" lon="12.20778634299774"><ele>834.0</ele><time>2026-04-07T11:23:59.002Z</time></trkpt><trkpt lat="46.04158423831064" lon="12.207678334327518"><ele>834.0</ele><time>2026-04-07T11:24:00.002Z</time></trkpt><trkpt lat="46.04150534212778" lon="12.20754255057116"><ele>834.0</ele><time>2026-04-07T11:24:01.002Z</time></trkpt><trkpt lat="46.041423889436416" lon="12.207370530968323"><ele>835.3333333333333</ele><time>2026-04-07T11:24:02.002Z</time></trkpt><trkpt lat="46.04133334342537" lon="12.207176380781208"><ele>836.6666666666666</ele><time>2026-04-07T11:24:03.002Z</time></trkpt><trkpt lat="46.04124025507514" lon="12.206966864161512"><ele>838.0</ele><time>2026-04-07T11:24:04.002Z</time></trkpt><trkpt lat="46.0411649194138" lon="12.206789647966712"><ele>838.0</ele><time>2026-04-07T11:24:05.002Z</time></trkpt><trkpt lat="46.041104635288626" lon="12.206618018884098"><ele>838.0</ele><time>2026-04-07T11:24:06.001Z</time></trkpt><trkpt lat="46.041021218113926" lon="12.206461324116956"><ele>838.0</ele><time>2026-04-07T11:24:07.001Z</time></trkpt><trkpt lat="46.04093989486223" lon="12.2062940241719"><ele>838.0</ele><time>2026-04-07T11:24:08.001Z</time></trkpt><trkpt lat="46.040836292258746" lon="12.206135369390573"><ele>837.0</ele><time>2026-04-07T11:24:09.001Z</time></trkpt><trkpt lat="46.04071270278718" lon="12.205969606826821"><ele>836.0</ele><time>2026-04-07T11:24:10.001Z</time></trkpt><trkpt lat="46.040589631111025" lon="12.20581144810174"><ele>835.0</ele><time>2026-04-07T11:24:11.001Z</time></trkpt><trkpt lat="46.040461219711446" lon="12.205645782137106"><ele>832.75</ele><time>2026-04-07T11:24:12.001Z</time></trkpt><trkpt lat="46.040342186218766" lon="12.205483564152539"><ele>830.5</ele><time>2026-04-07T11:24:13.001Z</time></trkpt><trkpt lat="46.04024203214576" lon="12.205350415390711"><ele>828.25</ele><time>2026-04-07T11:24:14.001Z</time></trkpt><trkpt lat="46.040142211531744" lon="12.205239032652322"><ele>826.0</ele><time>2026-04-07T11:24:15.001Z</time></trkpt><trkpt lat="46.040035199939645" lon="12.205134739764377"><ele>827.0</ele><time>2026-04-07T11:24:16.001Z</time></trkpt><trkpt lat="46.03992301625916" lon="12.205043159225928"><ele>828.0</ele><time>2026-04-07T11:24:17.001Z</time></trkpt><trkpt lat="46.039812983642655" lon="12.204962664231056"><ele>829.0</ele><time>2026-04-07T11:24:18.001Z</time></trkpt><trkpt lat="46.039730971747545" lon="12.204880214238587"><ele>830.0</ele><time>2026-04-07T11:24:19.001Z</time></trkpt><trkpt lat="46.03966080513003" lon="12.2047766154841"><ele>830.0</ele><time>2026-04-07T11:24:20.001Z</time></trkpt><trkpt lat="46.03960218268518" lon="12.204647218583073"><ele>830.0</ele><time>2026-04-07T11:24:21.001Z</time></trkpt><trkpt lat="46.03955756063541" lon="12.204497592448062"><ele>830.0</ele><time>2026-04-07T11:24:22.001Z</time></trkpt><trkpt lat="46.039527986713814" lon="12.204319352914137"><ele>830.0</ele><time>2026-04-07T11:24:23.001Z</time></trkpt><trkpt lat="46.03952142917716" lon="12.204112806561733"><ele>825.0</ele><time>2026-04-07T11:24:24.001Z</time></trkpt><trkpt lat="46.0395234650971" lon="12.203888827817298"><ele>820.0</ele><time>2026-04-07T11:24:25.001Z</time></trkpt><trkpt lat="46.03951903939881" lon="12.203673997358495"><ele>815.0</ele><time>2026-04-07T11:24:26.001Z</time></trkpt><trkpt lat="46.03951041924227" lon="12.203446532233768"><ele>815.0</ele><time>2026-04-07T11:24:27.001Z</time></trkpt><trkpt lat="46.03951244464609" lon="12.20322881252978"><ele>815.0</ele><time>2026-04-07T11:24:28.001Z</time></trkpt><trkpt lat="46.039512904914744" lon="12.20305322270867"><ele>815.0</ele><time>2026-04-07T11:24:29.001Z</time></trkpt><trkpt lat="46.03950682643111" lon="12.202871157372869"><ele>815.0</ele><time>2026-04-07T11:24:30.001Z</time></trkpt><trkpt lat="46.039486985976716" lon="12.202694213495244"><ele>810.75</ele><time>2026-04-07T11:24:31.001Z</time></trkpt><trkpt lat="46.03944018561861" lon="12.20251176153805"><ele>806.5</ele><time>2026-04-07T11:24:32.001Z</time></trkpt><trkpt lat="46.039359491040955" lon="12.202341563626128"><ele>802.25</ele><time>2026-04-07T11:24:33.001Z</time></trkpt><trkpt lat="46.0392640206294" lon="12.202181531176315"><ele>798.0</ele><time>2026-04-07T11:24:34.001Z</time></trkpt><trkpt lat="46.03915573098278" lon="12.202040698694992"><ele>796.0</ele><time>2026-04-07T11:24:35.001Z</time></trkpt><trkpt lat="46.039076991335456" lon="12.201909065742676"><ele>794.0</ele><time>2026-04-07T11:24:36.001Z</time></trkpt><trkpt lat="46.039004577694975" lon="12.20176558350629"><ele>792.0</ele><time>2026-04-07T11:24:37.001Z</time></trkpt><trkpt lat="46.03894177282543" lon="12.201609591930602"><ele>790.0</ele><time>2026-04-07T11:24:38.001Z</time></trkpt><trkpt lat="46.038923826130045" lon="12.201427669537253"><ele>787.3333333333333</ele><time>2026-04-07T11:24:39.001Z</time></trkpt><trkpt lat="46.038916399538095" lon="12.201235919539636"><ele>784.6666666666667</ele><time>2026-04-07T11:24:40.001Z</time></trkpt><trkpt lat="46.03892633232856" lon="12.201018166275013"><ele>782.0</ele><time>2026-04-07T11:24:41.001Z</time></trkpt><trkpt lat="46.038931477472666" lon="12.200774481472997"><ele>780.5</ele><time>2026-04-07T11:24:42.001Z</time></trkpt><trkpt lat="46.03895723998681" lon="12.200576888952446"><ele>779.0</ele><time>2026-04-07T11:24:43.001Z</time></trkpt><trkpt lat="46.0389795493033" lon="12.20039968624633"><ele>777.5</ele><time>2026-04-07T11:24:44.001Z</time></trkpt><trkpt lat="46.039026990705445" lon="12.200237445084683"><ele>776.0</ele><time>2026-04-07T11:24:45.001Z</time></trkpt><trkpt lat="46.039090280547825" lon="12.200078269088598"><ele>776.5</ele><time>2026-04-07T11:24:46.001Z</time></trkpt><trkpt lat="46.0391673180564" lon="12.199949916259783"><ele>777.0</ele><time>2026-04-07T11:24:47.001Z</time></trkpt><trkpt lat="46.03924941932066" lon="12.199851974732768"><ele>777.5</ele><time>2026-04-07T11:24:48.001Z</time></trkpt><trkpt lat="46.039341801462704" lon="12.199771166141154"><ele>778.0</ele><time>2026-04-07T11:24:49.001Z</time></trkpt><trkpt lat="46.03945690286009" lon="12.199699334933678"><ele>778.0</ele><time>2026-04-07T11:24:50.001Z</time></trkpt><trkpt lat="46.03958817895077" lon="12.199636025107669"><ele>778.0</ele><time>2026-04-07T11:24:51.001Z</time></trkpt><trkpt lat="46.03970942311411" lon="12.19957289066252"><ele>778.0</ele><time>2026-04-07T11:24:52.001Z</time></trkpt><trkpt lat="46.03982632415057" lon="12.199533207829356"><ele>778.0</ele><time>2026-04-07T11:24:53.001Z</time></trkpt><trkpt lat="46.03992095435772" lon="12.199434588158407"><ele>777.2</ele><time>2026-04-07T11:24:54.001Z</time></trkpt><trkpt lat="46.04000916350912" lon="12.199359789798285"><ele>776.4</ele><time>2026-04-07T11:24:55.001Z</time></trkpt><trkpt lat="46.04008246753989" lon="12.199292788267082"><ele>775.6</ele><time>2026-04-07T11:24:56.001Z</time></trkpt><trkpt lat="46.040103020988354" lon="12.199116172334321"><ele>774.8000000000001</ele><time>2026-04-07T11:24:57.001Z</time></trkpt><trkpt lat="46.040117979401984" lon="12.198960957628794"><ele>774.0</ele><time>2026-04-07T11:24:58.001Z</time></trkpt><trkpt lat="46.04011932504435" lon="12.198803570056908"><ele>772.0</ele><time>2026-04-07T11:24:59.001Z</time></trkpt><trkpt lat="46.04009872778014" lon="12.1986628697881"><ele>770.0</ele><time>2026-04-07T11:25:00.001Z</time></trkpt><trkpt lat="46.04005568834381" lon="12.198529246957891"><ele>768.0</ele><time>2026-04-07T11:25:01.001Z</time></trkpt><trkpt lat="46.039989011407336" lon="12.198376682713997"><ele>766.0</ele><time>2026-04-07T11:25:02.001Z</time></trkpt><trkpt lat="46.039909352582" lon="12.198214937022142"><ele>762.1999999999999</ele><time>2026-04-07T11:25:03.001Z</time></trkpt><trkpt lat="46.03984481283007" lon="12.198067182000097"><ele>758.4</ele><time>2026-04-07T11:25:04.001Z</time></trkpt><trkpt lat="46.039790267879816" lon="12.197942434429658"><ele>754.6</ele><time>2026-04-07T11:25:05.001Z</time></trkpt><trkpt lat="46.039753713237516" lon="12.197803636559359"><ele>750.8</ele><time>2026-04-07T11:25:06.001Z</time></trkpt><trkpt lat="46.0397304424611" lon="12.1976371284142"><ele>747.0</ele><time>2026-04-07T11:25:07.001Z</time></trkpt><trkpt lat="46.03970511259527" lon="12.197445695157025"><ele>743.25</ele><time>2026-04-07T11:25:08.001Z</time></trkpt><trkpt lat="46.03967708552244" lon="12.197256083659836"><ele>739.5</ele><time>2026-04-07T11:25:09.001Z</time></trkpt><trkpt lat="46.03964722481846" lon="12.197056085328772"><ele>735.75</ele><time>2026-04-07T11:25:10.001Z</time></trkpt><trkpt lat="46.03962597302687" lon="12.196858943014755"><ele>732.0</ele><time>2026-04-07T11:25:11.001Z</time></trkpt><trkpt lat="46.03962730154297" lon="12.196643972188209"><ele>729.0</ele><time>2026-04-07T11:25:12.001Z</time></trkpt><trkpt lat="46.03963743817456" lon="12.19643697446131"><ele>726.0</ele><time>2026-04-07T11:25:13.001Z</time></trkpt><trkpt lat="46.03965143625769" lon="12.196255805339407"><ele>723.0</ele><time>2026-04-07T11:25:14.001Z</time></trkpt><trkpt lat="46.03968595563379" lon="12.19608192521385"><ele>720.0</ele><time>2026-04-07T11:25:15.001Z</time></trkpt><trkpt lat="46.039749465471694" lon="12.195919748413527"><ele>720.0</ele><time>2026-04-07T11:25:16.001Z</time></trkpt><trkpt lat="46.03984264418325" lon="12.195759026503973"><ele>720.0</ele><time>2026-04-07T11:25:17.001Z</time></trkpt><trkpt lat="46.03992555974501" lon="12.195603794535002"><ele>720.0</ele><time>2026-04-07T11:25:18.001Z</time></trkpt><trkpt lat="46.03996753317704" lon="12.195438649628167"><ele>720.0</ele><time>2026-04-07T11:25:19.001Z</time></trkpt><trkpt lat="46.040006083968294" lon="12.195250279724528"><ele>720.25</ele><time>2026-04-07T11:25:20.001Z</time></trkpt><trkpt lat="46.0400247487484" lon="12.195032184228355"><ele>720.5</ele><time>2026-04-07T11:25:21.001Z</time></trkpt><trkpt lat="46.040028235585744" lon="12.194814140945631"><ele>720.75</ele><time>2026-04-07T11:25:22.001Z</time></trkpt><trkpt lat="46.04003100814999" lon="12.194611662839836"><ele>721.0</ele><time>2026-04-07T11:25:23.001Z</time></trkpt><trkpt lat="46.04004505415563" lon="12.194431637969613"><ele>721.0</ele><time>2026-04-07T11:25:24.001Z</time></trkpt><trkpt lat="46.040053021687356" lon="12.194302820047067"><ele>721.0</ele><time>2026-04-07T11:25:25.001Z</time></trkpt><trkpt lat="46.040056689455454" lon="12.194170711057307"><ele>721.0</ele><time>2026-04-07T11:25:26.001Z</time></trkpt><trkpt lat="46.04004683955655" lon="12.194023454613738"><ele>721.0</ele><time>2026-04-07T11:25:27.001Z</time></trkpt><trkpt lat="46.040017674290034" lon="12.193826409563036"><ele>721.0</ele><time>2026-04-07T11:25:28.001Z</time></trkpt><trkpt lat="46.03998595632449" lon="12.19361939498599"><ele>715.3333333333334</ele><time>2026-04-07T11:25:29.002Z</time></trkpt><trkpt lat="46.03995556210823" lon="12.19337348576083"><ele>709.6666666666666</ele><time>2026-04-07T11:25:30.002Z</time></trkpt><trkpt lat="46.03992071934695" lon="12.193112920981532"><ele>704.0</ele><time>2026-04-07T11:25:31.002Z</time></trkpt><trkpt lat="46.039887916278595" lon="12.192899075807162"><ele>704.0</ele><time>2026-04-07T11:25:32.002Z</time></trkpt><trkpt lat="46.03986357769561" lon="12.192728845205847"><ele>704.0</ele><time>2026-04-07T11:25:33.002Z</time></trkpt><trkpt lat="46.039865791416375" lon="12.192556940271727"><ele>704.0</ele><time>2026-04-07T11:25:34.002Z</time></trkpt><trkpt lat="46.03989362826881" lon="12.19239172553293"><ele>704.0</ele><time>2026-04-07T11:25:35.002Z</time></trkpt><trkpt lat="46.03995078916168" lon="12.1922225049497"><ele>711.6666666666666</ele><time>2026-04-07T11:25:36.002Z</time></trkpt><trkpt lat="46.040037950962684" lon="12.192058250673556"><ele>719.3333333333334</ele><time>2026-04-07T11:25:37.002Z</time></trkpt><trkpt lat="46.04015598625694" lon="12.191894197731816"><ele>727.0</ele><time>2026-04-07T11:25:38.002Z</time></trkpt><trkpt lat="46.04030740694723" lon="12.191707752907766"><ele>727.0</ele><time>2026-04-07T11:25:39.002Z</time></trkpt><trkpt lat="46.04046310024592" lon="12.191517248909268"><ele>727.0</ele><time>2026-04-07T11:25:40.002Z</time></trkpt><trkpt lat="46.04064963621225" lon="12.191292793765028"><ele>727.0</ele><time>2026-04-07T11:25:41.002Z</time></trkpt><trkpt lat="46.040839709476785" lon="12.19106334839306"><ele>727.5</ele><time>2026-04-07T11:25:42.002Z</time></trkpt><trkpt lat="46.04103459150158" lon="12.190814543827548"><ele>728.0</ele><time>2026-04-07T11:25:43.002Z</time></trkpt><trkpt lat="46.04122020763897" lon="12.190581398660884"><ele>730.0</ele><time>2026-04-07T11:25:44.002Z</time></trkpt><trkpt lat="46.04136387906306" lon="12.19040076250381"><ele>732.0</ele><time>2026-04-07T11:25:45.002Z</time></trkpt><trkpt lat="46.04148176319326" lon="12.190249825232282"><ele>734.0</ele><time>2026-04-07T11:25:46.002Z</time></trkpt><trkpt lat="46.04161198579408" lon="12.190103119799664"><ele>734.3333333333333</ele><time>2026-04-07T11:25:47.002Z</time></trkpt><trkpt lat="46.041757377293564" lon="12.189997149660606"><ele>734.6666666666666</ele><time>2026-04-07T11:25:48.002Z</time></trkpt><trkpt lat="46.0419175973498" lon="12.189923483009592"><ele>735.0</ele><time>2026-04-07T11:25:49.002Z</time></trkpt><trkpt lat="46.04205386791263" lon="12.18984880994069"><ele>737.3333333333334</ele><time>2026-04-07T11:25:50.002Z</time></trkpt><trkpt lat="46.0421605147538" lon="12.189730632925807"><ele>739.6666666666667</ele><time>2026-04-07T11:25:51.002Z</time></trkpt><trkpt lat="46.04227821622229" lon="12.18958217033597"><ele>742.0</ele><time>2026-04-07T11:25:52.002Z</time></trkpt><trkpt lat="46.042412239335924" lon="12.189393399214167"><ele>742.0</ele><time>2026-04-07T11:25:53.002Z</time></trkpt><trkpt lat="46.04255399300942" lon="12.189207327784821"><ele>742.0</ele><time>2026-04-07T11:25:54.002Z</time></trkpt><trkpt lat="46.042698244836544" lon="12.189023749352689"><ele>742.0</ele><time>2026-04-07T11:25:55.002Z</time></trkpt><trkpt lat="46.04284152356746" lon="12.188835610341016"><ele>742.0</ele><time>2026-04-07T11:25:56.002Z</time></trkpt><trkpt lat="46.042969453210524" lon="12.188651751564896"><ele>742.0</ele><time>2026-04-07T11:25:57.002Z</time></trkpt><trkpt lat="46.043116343856454" lon="12.18845089528794"><ele>742.0</ele><time>2026-04-07T11:25:58.002Z</time></trkpt><trkpt lat="46.043258986889" lon="12.18827357555755"><ele>742.5</ele><time>2026-04-07T11:25:59.002Z</time></trkpt><trkpt lat="46.04338128420565" lon="12.188119115555907"><ele>743.0</ele><time>2026-04-07T11:26:00.002Z</time></trkpt><trkpt lat="46.04347625047056" lon="12.187988426255114"><ele>743.5</ele><time>2026-04-07T11:26:01.002Z</time></trkpt><trkpt lat="46.043551625732526" lon="12.187860772854975"><ele>744.0</ele><time>2026-04-07T11:26:02.002Z</time></trkpt><trkpt lat="46.04359278371655" lon="12.187727354179971"><ele>744.0</ele><time>2026-04-07T11:26:03.002Z</time></trkpt><trkpt lat="46.043615539495896" lon="12.187583714545397"><ele>744.0</ele><time>2026-04-07T11:26:04.002Z</time></trkpt><trkpt lat="46.043614176358346" lon="12.187427975129706"><ele>744.0</ele><time>2026-04-07T11:26:05.002Z</time></trkpt><trkpt lat="46.043602997544376" lon="12.187246165309183"><ele>744.0</ele><time>2026-04-07T11:26:06.002Z</time></trkpt><trkpt lat="46.04358608663817" lon="12.1870490023051"><ele>743.75</ele><time>2026-04-07T11:26:07.002Z</time></trkpt><trkpt lat="46.04356505385437" lon="12.186854950386337"><ele>743.5</ele><time>2026-04-07T11:26:08.002Z</time></trkpt><trkpt lat="46.04355652265791" lon="12.186675242073841"><ele>743.25</ele><time>2026-04-07T11:26:09.002Z</time></trkpt><trkpt lat="46.04357898190438" lon="12.186531951306211"><ele>743.0</ele><time>2026-04-07T11:26:10.002Z</time></trkpt><trkpt lat="46.043621865425514" lon="12.186402922843858"><ele>743.0</ele><time>2026-04-07T11:26:11.002Z</time></trkpt><trkpt lat="46.04368331991967" lon="12.186295829029236"><ele>743.0</ele><time>2026-04-07T11:26:12Z</time></trkpt><trkpt lat="46.04376997924484" lon="12.186210466317263"><ele>743.0</ele><time>2026-04-07T11:26:13Z</time></trkpt><trkpt lat="46.043872542554524" lon="12.186142238103505"><ele>743.0</ele><time>2026-04-07T11:26:14Z</time></trkpt><trkpt lat="46.04397178607383" lon="12.186067361254516"><ele>743.0</ele><time>2026-04-07T11:26:15Z</time></trkpt><trkpt lat="46.04404627925056" lon="12.185981622285732"><ele>743.0</ele><time>2026-04-07T11:26:16Z</time></trkpt><trkpt lat="46.0440907262465" lon="12.185872579579575"><ele>743.0</ele><time>2026-04-07T11:26:17Z</time></trkpt><trkpt lat="46.04411377512572" lon="12.185739131290203"><ele>743.0</ele><time>2026-04-07T11:26:18Z</time></trkpt><trkpt lat="46.044103857607475" lon="12.185587390597904"><ele>743.0</ele><time>2026-04-07T11:26:19Z</time></trkpt><trkpt lat="46.04406219111908" lon="12.185447551689284"><ele>743.0</ele><time>2026-04-07T11:26:20Z</time></trkpt><trkpt lat="46.04399150891005" lon="12.185326359468748"><ele>745.0</ele><time>2026-04-07T11:26:21Z</time></trkpt><trkpt lat="46.043895010572264" lon="12.185226068873604"><ele>747.0</ele><time>2026-04-07T11:26:22Z</time></trkpt><trkpt lat="46.04376378650682" lon="12.185116900701958"><ele>749.0</ele><time>2026-04-07T11:26:23Z</time></trkpt><trkpt lat="46.0436170951284" lon="12.184986656741142"><ele>751.0</ele><time>2026-04-07T11:26:24Z</time></trkpt><trkpt lat="46.04347769273117" lon="12.184860453485474"><ele>753.0</ele><time>2026-04-07T11:26:25Z</time></trkpt><trkpt lat="46.04333069250589" lon="12.184763719351269"><ele>755.0</ele><time>2026-04-07T11:26:26Z</time></trkpt><trkpt lat="46.04316331781074" lon="12.18469707183616"><ele>757.0</ele><time>2026-04-07T11:26:27Z</time></trkpt><trkpt lat="46.0430106896443" lon="12.184644871935197"><ele>757.0</ele><time>2026-04-07T11:26:28Z</time></trkpt><trkpt lat="46.042877668766515" lon="12.184589127930161"><ele>757.0</ele><time>2026-04-07T11:26:29Z</time></trkpt><trkpt lat="46.04276092713383" lon="12.184525555322496"><ele>757.0</ele><time>2026-04-07T11:26:30Z</time></trkpt><trkpt lat="46.04265468655176" lon="12.184449417812857"><ele>757.0</ele><time>2026-04-07T11:26:31Z</time></trkpt><trkpt lat="46.04255865719171" lon="12.184380079674678"><ele>757.0</ele><time>2026-04-07T11:26:32Z</time></trkpt><trkpt lat="46.04246806826472" lon="12.184295117050718"><ele>757.0</ele><time>2026-04-07T11:26:33Z</time></trkpt><trkpt lat="46.04239668739095" lon="12.184191230908104"><ele>757.0</ele><time>2026-04-07T11:26:34Z</time></trkpt><trkpt lat="46.042353110045944" lon="12.184086678917106"><ele>757.0</ele><time>2026-04-07T11:26:35Z</time></trkpt><trkpt lat="46.04232918872469" lon="12.183953162822707"><ele>757.0</ele><time>2026-04-07T11:26:36Z</time></trkpt><trkpt lat="46.042303774115986" lon="12.183783174325855"><ele>752.3333333333334</ele><time>2026-04-07T11:26:37Z</time></trkpt><trkpt lat="46.042265987742624" lon="12.183571509845281"><ele>747.6666666666666</ele><time>2026-04-07T11:26:38Z</time></trkpt><trkpt lat="46.04222077423383" lon="12.183335840441913"><ele>743.0</ele><time>2026-04-07T11:26:39Z</time></trkpt><trkpt lat="46.042180401281485" lon="12.183116626928738"><ele>742.75</ele><time>2026-04-07T11:26:40Z</time></trkpt><trkpt lat="46.04214392501897" lon="12.182911406516437"><ele>742.5</ele><time>2026-04-07T11:26:41Z</time></trkpt><trkpt lat="46.04211129836714" lon="12.18270193781183"><ele>742.25</ele><time>2026-04-07T11:26:42Z</time></trkpt><trkpt lat="46.04208185157511" lon="12.182500300694421"><ele>742.0</ele><time>2026-04-07T11:26:43Z</time></trkpt><trkpt lat="46.04205180354814" lon="12.182309536265278"><ele>741.0</ele><time>2026-04-07T11:26:44Z</time></trkpt><trkpt lat="46.04203245705163" lon="12.182143647034717"><ele>740.0</ele><time>2026-04-07T11:26:45Z</time></trkpt><trkpt lat="46.04201865014607" lon="12.181986629156496"><ele>739.0</ele><time>2026-04-07T11:26:46Z</time></trkpt><trkpt lat="46.042016488886944" lon="12.181827123611958"><ele>738.0</ele><time>2026-04-07T11:26:47Z</time></trkpt><trkpt lat="46.042034185106836" lon="12.181664949899323"><ele>736.5</ele><time>2026-04-07T11:26:48Z</time></trkpt><trkpt lat="46.04207860562104" lon="12.181491304697067"><ele>735.0</ele><time>2026-04-07T11:26:49Z</time></trkpt><trkpt lat="46.0421375536635" lon="12.181301004447864"><ele>733.5</ele><time>2026-04-07T11:26:50Z</time></trkpt><trkpt lat="46.042194843916185" lon="12.181092485031547"><ele>732.0</ele><time>2026-04-07T11:26:51Z</time></trkpt><trkpt lat="46.04223388194079" lon="12.180864633716716"><ele>728.6666666666666</ele><time>2026-04-07T11:26:52Z</time></trkpt><trkpt lat="46.042269604946426" lon="12.180581740293224"><ele>725.3333333333333</ele><time>2026-04-07T11:26:53Z</time></trkpt><trkpt lat="46.04230781414549" lon="12.180317966721393"><ele>722.0</ele><time>2026-04-07T11:26:54Z</time></trkpt><trkpt lat="46.04233848591506" lon="12.180099422241495"><ele>722.0</ele><time>2026-04-07T11:26:55.001Z</time></trkpt><trkpt lat="46.04237329114237" lon="12.179924936633197"><ele>722.0</ele><time>2026-04-07T11:26:56.001Z</time></trkpt><trkpt lat="46.04242416966144" lon="12.179762701953777"><ele>722.0</ele><time>2026-04-07T11:26:57.001Z</time></trkpt><trkpt lat="46.04250093905132" lon="12.179619031937012"><ele>722.0</ele><time>2026-04-07T11:26:58.001Z</time></trkpt><trkpt lat="46.042603791272036" lon="12.17948819374822"><ele>721.3333333333333</ele><time>2026-04-07T11:26:59.001Z</time></trkpt><trkpt lat="46.0427231437149" lon="12.179348152360472"><ele>720.6666666666666</ele><time>2026-04-07T11:27:00.001Z</time></trkpt><trkpt lat="46.042841569115545" lon="12.179179144950465"><ele>720.0</ele><time>2026-04-07T11:27:01.001Z</time></trkpt><trkpt lat="46.042950768832966" lon="12.179005360652098"><ele>720.0</ele><time>2026-04-07T11:27:02.001Z</time></trkpt><trkpt lat="46.04304854315922" lon="12.178834560953764"><ele>720.0</ele><time>2026-04-07T11:27:03.001Z</time></trkpt><trkpt lat="46.04315177228016" lon="12.17866033179604"><ele>720.0</ele><time>2026-04-07T11:27:04.001Z</time></trkpt><trkpt lat="46.043257830769214" lon="12.178491268284358"><ele>719.6666666666666</ele><time>2026-04-07T11:27:05.001Z</time></trkpt><trkpt lat="46.04336556501145" lon="12.178333843806382"><ele>719.3333333333333</ele><time>2026-04-07T11:27:06.001Z</time></trkpt><trkpt lat="46.04348474151296" lon="12.178185303070237"><ele>719.0</ele><time>2026-04-07T11:27:07.001Z</time></trkpt><trkpt lat="46.043604499020034" lon="12.178026696729198"><ele>719.0</ele><time>2026-04-07T11:27:08.001Z</time></trkpt><trkpt lat="46.04371855494852" lon="12.17782855623181"><ele>719.0</ele><time>2026-04-07T11:27:09.001Z</time></trkpt><trkpt lat="46.043848437738255" lon="12.177579742248973"><ele>719.0</ele><time>2026-04-07T11:27:10.001Z</time></trkpt><trkpt lat="46.04398581392857" lon="12.177313449218255"><ele>718.0</ele><time>2026-04-07T11:27:11.001Z</time></trkpt><trkpt lat="46.04411009976691" lon="12.177068024863486"><ele>717.0</ele><time>2026-04-07T11:27:12.001Z</time></trkpt><trkpt lat="46.044213286180586" lon="12.176848590143608"><ele>716.0</ele><time>2026-04-07T11:27:13.001Z</time></trkpt><trkpt lat="46.04430673027077" lon="12.176663882161048"><ele>714.5</ele><time>2026-04-07T11:27:14.001Z</time></trkpt><trkpt lat="46.04440047331147" lon="12.17650594829624"><ele>713.0</ele><time>2026-04-07T11:27:15.001Z</time></trkpt><trkpt lat="46.04447241143439" lon="12.176365955647027"><ele>711.5</ele><time>2026-04-07T11:27:16.001Z</time></trkpt><trkpt lat="46.044531146611895" lon="12.176247254575271"><ele>710.0</ele><time>2026-04-07T11:27:17.001Z</time></trkpt><trkpt lat="46.04460014387613" lon="12.17614503595759"><ele>710.0</ele><time>2026-04-07T11:27:18.001Z</time></trkpt><trkpt lat="46.0446872106287" lon="12.176058108629338"><ele>710.0</ele><time>2026-04-07T11:27:19.001Z</time></trkpt><trkpt lat="46.044795396724695" lon="12.175975890461247"><ele>710.0</ele><time>2026-04-07T11:27:20.001Z</time></trkpt><trkpt lat="46.044910130401554" lon="12.175887477444887"><ele>710.0</ele><time>2026-04-07T11:27:21.001Z</time></trkpt><trkpt lat="46.045035157219914" lon="12.175786842338686"><ele>707.25</ele><time>2026-04-07T11:27:22.001Z</time></trkpt><trkpt lat="46.0451735692236" lon="12.175680591676283"><ele>704.5</ele><time>2026-04-07T11:27:23.001Z</time></trkpt><trkpt lat="46.04529747920175" lon="12.175577574637032"><ele>701.75</ele><time>2026-04-07T11:27:24.001Z</time></trkpt><trkpt lat="46.04540840487977" lon="12.175474571607841"><ele>699.0</ele><time>2026-04-07T11:27:25.001Z</time></trkpt><trkpt lat="46.04550153132057" lon="12.175345852256962"><ele>699.0</ele><time>2026-04-07T11:27:26.001Z</time></trkpt><trkpt lat="46.04558321655064" lon="12.175205438311977"><ele>699.0</ele><time>2026-04-07T11:27:27.001Z</time></trkpt><trkpt lat="46.045665494424775" lon="12.175056629280702"><ele>699.0</ele><time>2026-04-07T11:27:28.001Z</time></trkpt><trkpt lat="46.04576953377777" lon="12.174920962866214"><ele>699.0</ele><time>2026-04-07T11:27:29.001Z</time></trkpt><trkpt lat="46.04588169832883" lon="12.174814620030476"><ele>696.25</ele><time>2026-04-07T11:27:30.001Z</time></trkpt><trkpt lat="46.04599624436567" lon="12.174719281472337"><ele>693.5</ele><time>2026-04-07T11:27:31.001Z</time></trkpt><trkpt lat="46.04612210504833" lon="12.174646705160953"><ele>690.75</ele><time>2026-04-07T11:27:32.001Z</time></trkpt><trkpt lat="46.04626709412188" lon="12.17456691549383"><ele>688.0</ele><time>2026-04-07T11:27:33.001Z</time></trkpt><trkpt lat="46.046419386440064" lon="12.174482058373297"><ele>688.0</ele><time>2026-04-07T11:27:34.001Z</time></trkpt><trkpt lat="46.04656145956899" lon="12.174366079580379"><ele>688.0</ele><time>2026-04-07T11:27:35.001Z</time></trkpt><trkpt lat="46.04669581957159" lon="12.174231901528003"><ele>688.0</ele><time>2026-04-07T11:27:36.001Z</time></trkpt><trkpt lat="46.04681273967387" lon="12.174094737115865"><ele>685.0</ele><time>2026-04-07T11:27:37.001Z</time></trkpt><trkpt lat="46.04691960090757" lon="12.173941773508684"><ele>682.0</ele><time>2026-04-07T11:27:38.001Z</time></trkpt><trkpt lat="46.04703606273736" lon="12.173763124069268"><ele>679.0</ele><time>2026-04-07T11:27:39.001Z</time></trkpt><trkpt lat="46.04715440355536" lon="12.173575676721393"><ele>679.0</ele><time>2026-04-07T11:27:40.001Z</time></trkpt><trkpt lat="46.047269282510555" lon="12.173401244402841"><ele>679.0</ele><time>2026-04-07T11:27:41.001Z</time></trkpt><trkpt lat="46.04736210939564" lon="12.173262528659793"><ele>679.0</ele><time>2026-04-07T11:27:42.001Z</time></trkpt><trkpt lat="46.0474233860541" lon="12.173166430406324"><ele>679.0</ele><time>2026-04-07T11:27:43.001Z</time></trkpt><trkpt lat="46.04746512353469" lon="12.173083964295847"><ele>678.6</ele><time>2026-04-07T11:27:44.001Z</time></trkpt><trkpt lat="46.04750095328121" lon="12.172966444413246"><ele>678.2</ele><time>2026-04-07T11:27:45.001Z</time></trkpt><trkpt lat="46.04751631416426" lon="12.17282440392595"><ele>677.8000000000001</ele><time>2026-04-07T11:27:46.001Z</time></trkpt><trkpt lat="46.04749854145583" lon="12.172678188882731"><ele>677.4000000000001</ele><time>2026-04-07T11:27:47.001Z</time></trkpt><trkpt lat="46.04745318560821" lon="12.172549126729596"><ele>677.0</ele><time>2026-04-07T11:27:48.001Z</time></trkpt><trkpt lat="46.047387971447485" lon="12.172446413263629"><ele>676.0</ele><time>2026-04-07T11:27:49.001Z</time></trkpt><trkpt lat="46.04730448061348" lon="12.172361830254129"><ele>675.0</ele><time>2026-04-07T11:27:50.001Z</time></trkpt><trkpt lat="46.047195215282905" lon="12.172277441705024"><ele>674.0</ele><time>2026-04-07T11:27:51.001Z</time></trkpt><trkpt lat="46.047055974941365" lon="12.172226050823468"><ele>673.0</ele><time>2026-04-07T11:27:52.001Z</time></trkpt><trkpt lat="46.0469331430901" lon="12.172144866087903"><ele>671.6666666666667</ele><time>2026-04-07T11:27:53.001Z</time></trkpt><trkpt lat="46.04678522075708" lon="12.172044092824612"><ele>670.3333333333334</ele><time>2026-04-07T11:27:54.001Z</time></trkpt><trkpt lat="46.04662583956586" lon="12.171939486281817"><ele>669.0</ele><time>2026-04-07T11:27:55.001Z</time></trkpt><trkpt lat="46.04648208865057" lon="12.17184167069892"><ele>667.6666666666666</ele><time>2026-04-07T11:27:56.001Z</time></trkpt><trkpt lat="46.046331329598154" lon="12.171733966255795"><ele>666.3333333333333</ele><time>2026-04-07T11:27:57.001Z</time></trkpt><trkpt lat="46.04617866979722" lon="12.171627323227154"><ele>665.0</ele><time>2026-04-07T11:27:58.001Z</time></trkpt><trkpt lat="46.04601940099643" lon="12.17152143515985"><ele>665.0</ele><time>2026-04-07T11:27:59.001Z</time></trkpt><trkpt lat="46.045864648611285" lon="12.171416905022735"><ele>665.0</ele><time>2026-04-07T11:28:00.001Z</time></trkpt><trkpt lat="46.045721689781864" lon="12.171313662270684"><ele>665.0</ele><time>2026-04-07T11:28:01.001Z</time></trkpt><trkpt lat="46.045583440214756" lon="12.171205176021157"><ele>663.6666666666666</ele><time>2026-04-07T11:28:02.001Z</time></trkpt><trkpt lat="46.04541291374535" lon="12.171155466386882"><ele>662.3333333333334</ele><time>2026-04-07T11:28:03.001Z</time></trkpt><trkpt lat="46.04524819923197" lon="12.171069675450493"><ele>661.0</ele><time>2026-04-07T11:28:04.002Z</time></trkpt><trkpt lat="46.04508714495157" lon="12.170966080389972"><ele>660.5</ele><time>2026-04-07T11:28:05.002Z</time></trkpt><trkpt lat="46.044952158191855" lon="12.170883866852838"><ele>660.0</ele><time>2026-04-07T11:28:06.002Z</time></trkpt><trkpt lat="46.0448287197248" lon="12.170808559414153"><ele>659.5</ele><time>2026-04-07T11:28:07.002Z</time></trkpt><trkpt lat="46.04471946069827" lon="12.17073002544887"><ele>659.0</ele><time>2026-04-07T11:28:08.002Z</time></trkpt><trkpt lat="46.04462703966462" lon="12.170637217515717"><ele>659.0</ele><time>2026-04-07T11:28:09.002Z</time></trkpt><trkpt lat="46.04455513738684" lon="12.170520726665876"><ele>659.0</ele><time>2026-04-07T11:28:10.002Z</time></trkpt><trkpt lat="46.04447980514692" lon="12.170383343204476"><ele>659.0</ele><time>2026-04-07T11:28:11.002Z</time></trkpt><trkpt lat="46.04439674876349" lon="12.17022183362836"><ele>659.0</ele><time>2026-04-07T11:28:12.002Z</time></trkpt><trkpt lat="46.04431376683472" lon="12.170031287870907"><ele>659.6666666666666</ele><time>2026-04-07T11:28:13.002Z</time></trkpt><trkpt lat="46.04422884953814" lon="12.16982977086319"><ele>660.3333333333334</ele><time>2026-04-07T11:28:14.002Z</time></trkpt><trkpt lat="46.044139824265905" lon="12.169628672597032"><ele>661.0</ele><time>2026-04-07T11:28:15.002Z</time></trkpt><trkpt lat="46.044055360804094" lon="12.169439494306898"><ele>659.3333333333334</ele><time>2026-04-07T11:28:16.002Z</time></trkpt><trkpt lat="46.04397595927698" lon="12.169243336393052"><ele>657.6666666666666</ele><time>2026-04-07T11:28:17.002Z</time></trkpt><trkpt lat="46.04390808345407" lon="12.16902961692973"><ele>656.0</ele><time>2026-04-07T11:28:17.999Z</time></trkpt><trkpt lat="46.04384220215753" lon="12.168807043560657"><ele>656.0</ele><time>2026-04-07T11:28:18.999Z</time></trkpt><trkpt lat="46.043775955136695" lon="12.168589229442524"><ele>656.0</ele><time>2026-04-07T11:28:19.999Z</time></trkpt><trkpt lat="46.04370660265949" lon="12.168395611900516"><ele>656.0</ele><time>2026-04-07T11:28:20.999Z</time></trkpt><trkpt lat="46.043619865045706" lon="12.16820793639162"><ele>656.25</ele><time>2026-04-07T11:28:21.999Z</time></trkpt><trkpt lat="46.04353252500231" lon="12.168041672670102"><ele>656.5</ele><time>2026-04-07T11:28:22.999Z</time></trkpt><trkpt lat="46.04345702428086" lon="12.167891133139333"><ele>656.75</ele><time>2026-04-07T11:28:23.999Z</time></trkpt><trkpt lat="46.04337833056875" lon="12.16774202221164"><ele>657.0</ele><time>2026-04-07T11:28:24.999Z</time></trkpt><trkpt lat="46.04329007022072" lon="12.167573275234114"><ele>653.0</ele><time>2026-04-07T11:28:25.999Z</time></trkpt><trkpt lat="46.04319752327786" lon="12.16738898773521"><ele>649.0</ele><time>2026-04-07T11:28:26.999Z</time></trkpt><trkpt lat="46.04310235950779" lon="12.16720214382326"><ele>645.0</ele><time>2026-04-07T11:28:27.999Z</time></trkpt><trkpt lat="46.043007192883636" lon="12.167024346106361"><ele>644.25</ele><time>2026-04-07T11:28:28.999Z</time></trkpt><trkpt lat="46.042921910253874" lon="12.166850368052682"><ele>643.5</ele><time>2026-04-07T11:28:29.999Z</time></trkpt><trkpt lat="46.04285800059537" lon="12.166667546265044"><ele>642.75</ele><time>2026-04-07T11:28:30.999Z</time></trkpt><trkpt lat="46.04280946780038" lon="12.166480809395331"><ele>642.0</ele><time>2026-04-07T11:28:31.999Z</time></trkpt><trkpt lat="46.04277076552897" lon="12.166308049480715"><ele>641.0</ele><time>2026-04-07T11:28:32.999Z</time></trkpt><trkpt lat="46.04273917184841" lon="12.166154578421873"><ele>640.0</ele><time>2026-04-07T11:28:33.999Z</time></trkpt><trkpt lat="46.04271066223902" lon="12.166019353667007"><ele>639.0</ele><time>2026-04-07T11:28:35Z</time></trkpt><trkpt lat="46.04268823855491" lon="12.165894449812638"><ele>638.0</ele><time>2026-04-07T11:28:36Z</time></trkpt><trkpt lat="46.042675427182935" lon="12.165764440262922"><ele>637.0</ele><time>2026-04-07T11:28:37Z</time></trkpt><trkpt lat="46.0426814841725" lon="12.165619001706682"><ele>634.2</ele><time>2026-04-07T11:28:38Z</time></trkpt><trkpt lat="46.04270444502314" lon="12.165463206080677"><ele>631.4000000000001</ele><time>2026-04-07T11:28:39Z</time></trkpt><trkpt lat="46.04273132916992" lon="12.165309656962917"><ele>628.5999999999999</ele><time>2026-04-07T11:28:40Z</time></trkpt><trkpt lat="46.04276722230424" lon="12.165171845834935"><ele>625.8</ele><time>2026-04-07T11:28:41Z</time></trkpt><trkpt lat="46.04282437516683" lon="12.165040840684027"><ele>623.0</ele><time>2026-04-07T11:28:42Z</time></trkpt><trkpt lat="46.04289465914105" lon="12.16490627134633"><ele>620.8</ele><time>2026-04-07T11:28:43Z</time></trkpt><trkpt lat="46.04296279375229" lon="12.164780728032943"><ele>618.5999999999999</ele><time>2026-04-07T11:28:44Z</time></trkpt><trkpt lat="46.0430347016813" lon="12.164684567898753"><ele>616.4000000000001</ele><time>2026-04-07T11:28:45Z</time></trkpt><trkpt lat="46.04309521357316" lon="12.164617076667026"><ele>614.2</ele><time>2026-04-07T11:28:46Z</time></trkpt><trkpt lat="46.04315885888143" lon="12.164498101426021"><ele>612.0</ele><time>2026-04-07T11:28:48Z</time></trkpt><trkpt lat="46.043131551874716" lon="12.16435745749607"><ele>612.0</ele><time>2026-04-07T11:28:50Z</time></trkpt><trkpt lat="46.043012414612114" lon="12.164326596160334"><ele>612.0</ele><time>2026-04-07T11:28:52Z</time></trkpt><trkpt lat="46.04294244382699" lon="12.164381428071813"><ele>612.0</ele><time>2026-04-07T11:28:53Z</time></trkpt><trkpt lat="46.04284458953929" lon="12.164445870593525"><ele>612.0</ele><time>2026-04-07T11:28:54Z</time></trkpt><trkpt lat="46.04275443805658" lon="12.164521651051235"><ele>612.0</ele><time>2026-04-07T11:28:55Z</time></trkpt><trkpt lat="46.04266512634877" lon="12.164622372211246"><ele>612.0</ele><time>2026-04-07T11:28:56Z</time></trkpt><trkpt lat="46.042552141763" lon="12.164698714107114"><ele>612.0</ele><time>2026-04-07T11:28:57Z</time></trkpt><trkpt lat="46.04243687295286" lon="12.164791253698597"><ele>612.0</ele><time>2026-04-07T11:28:58Z</time></trkpt><trkpt lat="46.04233350254485" lon="12.164889227535916"><ele>612.0</ele><time>2026-04-07T11:28:59Z</time></trkpt><trkpt lat="46.042222053358586" lon="12.164938444300919"><ele>611.4</ele><time>2026-04-07T11:29:00Z</time></trkpt><trkpt lat="46.042122421574746" lon="12.165001040008404"><ele>610.8000000000001</ele><time>2026-04-07T11:29:01Z</time></trkpt><trkpt lat="46.04203718382035" lon="12.165067725921382"><ele>610.2</ele><time>2026-04-07T11:29:02Z</time></trkpt><trkpt lat="46.04196761049063" lon="12.165092348599934"><ele>609.6</ele><time>2026-04-07T11:29:03Z</time></trkpt><trkpt lat="46.04185519925839" lon="12.165121162644784"><ele>609.0</ele><time>2026-04-07T11:29:05Z</time></trkpt><trkpt lat="46.041784454780114" lon="12.165003718817074"><ele>609.0</ele><time>2026-04-07T11:29:07Z</time></trkpt><trkpt lat="46.0417820611284" lon="12.164910464684548"><ele>609.0</ele><time>2026-04-07T11:29:08Z</time></trkpt><trkpt lat="46.04184154142761" lon="12.164809432905976"><ele>609.0</ele><time>2026-04-07T11:29:09Z</time></trkpt><trkpt lat="46.04188328449925" lon="12.164701494546444"><ele>609.0</ele><time>2026-04-07T11:29:10Z</time></trkpt><trkpt lat="46.04193132266109" lon="12.164579624340108"><ele>609.0</ele><time>2026-04-07T11:29:11Z</time></trkpt><trkpt lat="46.04198811431107" lon="12.164431220241712"><ele>606.5</ele><time>2026-04-07T11:29:12Z</time></trkpt><trkpt lat="46.04205222902022" lon="12.164257694207665"><ele>604.0</ele><time>2026-04-07T11:29:13Z</time></trkpt><trkpt lat="46.0421190564786" lon="12.164086855720182"><ele>601.5</ele><time>2026-04-07T11:29:14Z</time></trkpt><trkpt lat="46.04220170792959" lon="12.163911687863697"><ele>599.0</ele><time>2026-04-07T11:29:15Z</time></trkpt><trkpt lat="46.04228194744769" lon="12.163754482419034"><ele>599.4</ele><time>2026-04-07T11:29:16Z</time></trkpt><trkpt lat="46.042361774892186" lon="12.163648178534057"><ele>599.8</ele><time>2026-04-07T11:29:17Z</time></trkpt><trkpt lat="46.042423804789784" lon="12.163562452843085"><ele>600.2</ele><time>2026-04-07T11:29:18Z</time></trkpt><trkpt lat="46.04247233954948" lon="12.163406283280747"><ele>600.6</ele><time>2026-04-07T11:29:20.001Z</time></trkpt><trkpt lat="46.042436577130715" lon="12.163243460265122"><ele>601.0</ele><time>2026-04-07T11:29:22.001Z</time></trkpt><trkpt lat="46.042341529051775" lon="12.163213832497915"><ele>599.2</ele><time>2026-04-07T11:29:23.001Z</time></trkpt><trkpt lat="46.04224735292898" lon="12.163256157643422"><ele>597.4000000000001</ele><time>2026-04-07T11:29:24.001Z</time></trkpt><trkpt lat="46.0421647740102" lon="12.163284373716253"><ele>595.6</ele><time>2026-04-07T11:29:25.001Z</time></trkpt><trkpt lat="46.0420696470943" lon="12.163306905834983"><ele>593.8000000000001</ele><time>2026-04-07T11:29:26.001Z</time></trkpt><trkpt lat="46.0419618719853" lon="12.163336195310109"><ele>592.0</ele><time>2026-04-07T11:29:27.001Z</time></trkpt><trkpt lat="46.0418449007184" lon="12.16337203264345"><ele>592.0</ele><time>2026-04-07T11:29:28.001Z</time></trkpt><trkpt lat="46.04172475313664" lon="12.163403165464029"><ele>592.0</ele><time>2026-04-07T11:29:29.001Z</time></trkpt><trkpt lat="46.04160461156731" lon="12.163430342843384"><ele>592.0</ele><time>2026-04-07T11:29:30.001Z</time></trkpt><trkpt lat="46.04147979367181" lon="12.163463920048615"><ele>592.0</ele><time>2026-04-07T11:29:31.001Z</time></trkpt><trkpt lat="46.041357909949234" lon="12.163493634859558"><ele>589.4</ele><time>2026-04-07T11:29:32.001Z</time></trkpt><trkpt lat="46.041247399733265" lon="12.163533563801447"><ele>586.8000000000001</ele><time>2026-04-07T11:29:33.001Z</time></trkpt><trkpt lat="46.04114750097008" lon="12.163589700305359"><ele>584.2</ele><time>2026-04-07T11:29:34.001Z</time></trkpt><trkpt lat="46.0410588506455" lon="12.163653693212886"><ele>581.6</ele><time>2026-04-07T11:29:35.001Z</time></trkpt><trkpt lat="46.04097341538556" lon="12.163715058107988"><ele>579.0</ele><time>2026-04-07T11:29:36.001Z</time></trkpt><trkpt lat="46.04089930933138" lon="12.16377581620024"><ele>579.0</ele><time>2026-04-07T11:29:37.001Z</time></trkpt><trkpt lat="46.04082410492709" lon="12.163816690282106"><ele>579.0</ele><time>2026-04-07T11:29:38.001Z</time></trkpt><trkpt lat="46.04074599560003" lon="12.163821888257955"><ele>579.0</ele><time>2026-04-07T11:29:39.001Z</time></trkpt><trkpt lat="46.04067119358244" lon="12.163798819296934"><ele>579.0</ele><time>2026-04-07T11:29:40.001Z</time></trkpt><trkpt lat="46.0405930566652" lon="12.163756246870374"><ele>579.0</ele><time>2026-04-07T11:29:41.001Z</time></trkpt><trkpt lat="46.040519639824396" lon="12.163764735821436"><ele>579.0</ele><time>2026-04-07T11:29:42.001Z</time></trkpt><trkpt lat="46.040456523135425" lon="12.163811071308285"><ele>578.6666666666666</ele><time>2026-04-07T11:29:43.001Z</time></trkpt><trkpt lat="46.04039021112182" lon="12.163886985995259"><ele>578.3333333333334</ele><time>2026-04-07T11:29:44.001Z</time></trkpt><trkpt lat="46.040309192919686" lon="12.16397145415954"><ele>578.0</ele><time>2026-04-07T11:29:45.001Z</time></trkpt><trkpt lat="46.040233832316545" lon="12.164040878521591"><ele>577.6666666666667</ele><time>2026-04-07T11:29:46.001Z</time></trkpt><trkpt lat="46.04017053979584" lon="12.164095075615244"><ele>577.3333333333334</ele><time>2026-04-07T11:29:47.001Z</time></trkpt><trkpt lat="46.04011539167962" lon="12.164141881730227"><ele>577.0</ele><time>2026-04-07T11:29:48.001Z</time></trkpt><trkpt lat="46.040007014724836" lon="12.164215955903163"><ele>574.8000000000001</ele><time>2026-04-07T11:29:50.001Z</time></trkpt><trkpt lat="46.039913691643804" lon="12.164234155003488"><ele>572.6</ele><time>2026-04-07T11:29:52.001Z</time></trkpt><trkpt lat="46.039834008000476" lon="12.164208438482055"><ele>570.4000000000001</ele><time>2026-04-07T11:29:55.001Z</time></trkpt><trkpt lat="46.0397948051676" lon="12.164361389758202"><ele>568.2</ele><time>2026-04-07T11:29:58.001Z</time></trkpt><trkpt lat="46.03981557897801" lon="12.164471213923145"><ele>566.0</ele><time>2026-04-07T11:30:09.001Z</time></trkpt><trkpt lat="46.03985813918925" lon="12.164585835794888"><ele>566.0</ele><time>2026-04-07T11:30:12.001Z</time></trkpt><trkpt lat="46.039870568930645" lon="12.164410435936755"><ele>566.0</ele><time>2026-04-07T11:30:18.002Z</time></trkpt><trkpt lat="46.03980493690945" lon="12.164295640192554"><ele>566.0</ele><time>2026-04-07T11:30:20.002Z</time></trkpt><trkpt lat="46.03977770774861" lon="12.16418751818873"><ele>566.0</ele><time>2026-04-07T11:30:21.002Z</time></trkpt><trkpt lat="46.039713667267996" lon="12.164112568282537"><ele>566.0</ele><time>2026-04-07T11:30:22.002Z</time></trkpt><trkpt lat="46.03962809476642" lon="12.164020998568496"><ele>567.0</ele><time>2026-04-07T11:30:23.002Z</time></trkpt><trkpt lat="46.039553636267655" lon="12.16390535788345"><ele>568.0</ele><time>2026-04-07T11:30:24Z</time></trkpt><trkpt lat="46.039472412819414" lon="12.163786824432828"><ele>569.0</ele><time>2026-04-07T11:30:25Z</time></trkpt><trkpt lat="46.03939514925524" lon="12.163644091190708"><ele>570.0</ele><time>2026-04-07T11:30:26Z</time></trkpt><trkpt lat="46.039307821725714" lon="12.163504246007433"><ele>570.0</ele><time>2026-04-07T11:30:27Z</time></trkpt><trkpt lat="46.039226602509416" lon="12.163369636676247"><ele>570.0</ele><time>2026-04-07T11:30:28Z</time></trkpt><trkpt lat="46.039154415417" lon="12.163239222030358"><ele>570.0</ele><time>2026-04-07T11:30:29Z</time></trkpt><trkpt lat="46.039099043102624" lon="12.163087810936581"><ele>570.0</ele><time>2026-04-07T11:30:30Z</time></trkpt><trkpt lat="46.039025604185184" lon="12.16295548429145"><ele>568.4</ele><time>2026-04-07T11:30:31Z</time></trkpt><trkpt lat="46.03895605742145" lon="12.162821316932854"><ele>566.8</ele><time>2026-04-07T11:30:32Z</time></trkpt><trkpt lat="46.03887785452944" lon="12.162700185146292"><ele>565.2</ele><time>2026-04-07T11:30:33Z</time></trkpt><trkpt lat="46.03882400127819" lon="12.162576197293555"><ele>563.6</ele><time>2026-04-07T11:30:34Z</time></trkpt><trkpt lat="46.0387759619818" lon="12.162471406837213"><ele>562.0</ele><time>2026-04-07T11:30:35Z</time></trkpt><trkpt lat="46.03872345536823" lon="12.16233803091789"><ele>562.0</ele><time>2026-04-07T11:30:37Z</time></trkpt><trkpt lat="46.03867876304003" lon="12.16226333743321"><ele>562.0</ele><time>2026-04-07T11:30:43Z</time></trkpt><trkpt lat="46.03859123884442" lon="12.162295957207567"><ele>562.0</ele><time>2026-04-07T11:30:46Z</time></trkpt><trkpt lat="46.038488730939996" lon="12.162443370455044"><ele>562.0</ele><time>2026-04-07T11:30:48Z</time></trkpt><trkpt lat="46.03842751832938" lon="12.162513806792687"><ele>562.0</ele><time>2026-04-07T11:30:49Z</time></trkpt><trkpt lat="46.03836021336168" lon="12.16258498930374"><ele>562.0</ele><time>2026-04-07T11:30:50Z</time></trkpt><trkpt lat="46.03831131769748" lon="12.162672233330774"><ele>562.0</ele><time>2026-04-07T11:30:51Z</time></trkpt><trkpt lat="46.03828218754307" lon="12.16277363956953"><ele>562.0</ele><time>2026-04-07T11:30:52Z</time></trkpt><trkpt lat="46.03827936725657" lon="12.16288993579774"><ele>562.0</ele><time>2026-04-07T11:30:53Z</time></trkpt><trkpt lat="46.03830240165289" lon="12.163009023450316"><ele>562.0</ele><time>2026-04-07T11:30:54Z</time></trkpt><trkpt lat="46.03835207863546" lon="12.16313375472743"><ele>562.0</ele><time>2026-04-07T11:30:55Z</time></trkpt><trkpt lat="46.038426415836874" lon="12.163284011863585"><ele>560.5</ele><time>2026-04-07T11:30:56Z</time></trkpt><trkpt lat="46.03850649714095" lon="12.163436850582025"><ele>559.0</ele><time>2026-04-07T11:30:57Z</time></trkpt><trkpt lat="46.03858999100051" lon="12.163611505896302"><ele>557.5</ele><time>2026-04-07T11:30:58Z</time></trkpt><trkpt lat="46.03868479352887" lon="12.163804403574932"><ele>556.0</ele><time>2026-04-07T11:30:59Z</time></trkpt><trkpt lat="46.0387781276351" lon="12.163985083256517"><ele>552.5</ele><time>2026-04-07T11:31:00Z</time></trkpt><trkpt lat="46.038864905184965" lon="12.164143542036372"><ele>549.0</ele><time>2026-04-07T11:31:01Z</time></trkpt><trkpt lat="46.03894374647788" lon="12.164276171666794"><ele>545.5</ele><time>2026-04-07T11:31:02.001Z</time></trkpt><trkpt lat="46.039001319443685" lon="12.164392007215378"><ele>542.0</ele><time>2026-04-07T11:31:03.001Z</time></trkpt><trkpt lat="46.03903719244214" lon="12.164518506701784"><ele>542.0</ele><time>2026-04-07T11:31:04.001Z</time></trkpt><trkpt lat="46.03904194336757" lon="12.164642119320655"><ele>542.0</ele><time>2026-04-07T11:31:05.001Z</time></trkpt><trkpt lat="46.039021695027444" lon="12.164764688526786"><ele>542.0</ele><time>2026-04-07T11:31:06.001Z</time></trkpt><trkpt lat="46.038981133618734" lon="12.16489365147849"><ele>542.0</ele><time>2026-04-07T11:31:07.001Z</time></trkpt><trkpt lat="46.038918464453715" lon="12.165032341740488"><ele>542.0</ele><time>2026-04-07T11:31:08.001Z</time></trkpt><trkpt lat="46.038855559916236" lon="12.16518994542309"><ele>541.0</ele><time>2026-04-07T11:31:09.001Z</time></trkpt><trkpt lat="46.038789345919376" lon="12.165357302860961"><ele>540.0</ele><time>2026-04-07T11:31:10.001Z</time></trkpt><trkpt lat="46.03873003643061" lon="12.16551491628633"><ele>539.0</ele><time>2026-04-07T11:31:11.001Z</time></trkpt><trkpt lat="46.03867405551665" lon="12.165647638857774"><ele>538.0</ele><time>2026-04-07T11:31:12.001Z</time></trkpt><trkpt lat="46.03864360203529" lon="12.165765963311692"><ele>538.0</ele><time>2026-04-07T11:31:13.001Z</time></trkpt><trkpt lat="46.03863687307317" lon="12.165888295903573"><ele>538.0</ele><time>2026-04-07T11:31:14.001Z</time></trkpt><trkpt lat="46.0386270575855" lon="12.165990585393557"><ele>538.0</ele><time>2026-04-07T11:31:15.001Z</time></trkpt><trkpt lat="46.03860459221715" lon="12.166133634686508"><ele>538.0</ele><time>2026-04-07T11:31:17.001Z</time></trkpt><trkpt lat="46.03849253186436" lon="12.166120244411125"><ele>538.0</ele><time>2026-04-07T11:31:19.001Z</time></trkpt><trkpt lat="46.0384944464529" lon="12.165940358232314"><ele>538.0</ele><time>2026-04-07T11:31:21.001Z</time></trkpt><trkpt lat="46.0385382002189" lon="12.165835518627055"><ele>538.0</ele><time>2026-04-07T11:31:22.001Z</time></trkpt><trkpt lat="46.03856637481791" lon="12.165704601593246"><ele>538.0</ele><time>2026-04-07T11:31:23.001Z</time></trkpt><trkpt lat="46.03860336531088" lon="12.165585099747492"><ele>538.0</ele><time>2026-04-07T11:31:24.001Z</time></trkpt><trkpt lat="46.038645381672616" lon="12.165445382374342"><ele>538.0</ele><time>2026-04-07T11:31:25.001Z</time></trkpt><trkpt lat="46.038679465007945" lon="12.165288712888108"><ele>537.25</ele><time>2026-04-07T11:31:26.001Z</time></trkpt><trkpt lat="46.038691706506164" lon="12.16512701088192"><ele>536.5</ele><time>2026-04-07T11:31:27.001Z</time></trkpt><trkpt lat="46.03867954551325" lon="12.16496439337043"><ele>535.75</ele><time>2026-04-07T11:31:28.001Z</time></trkpt><trkpt lat="46.03865008539812" lon="12.164793695631273"><ele>535.0</ele><time>2026-04-07T11:31:29.001Z</time></trkpt><trkpt lat="46.038626332863885" lon="12.164626068873376"><ele>536.4</ele><time>2026-04-07T11:31:30.001Z</time></trkpt><trkpt lat="46.038594938008984" lon="12.164472828130764"><ele>537.8</ele><time>2026-04-07T11:31:31.001Z</time></trkpt><trkpt lat="46.03855128981341" lon="12.16434356396681"><ele>539.2</ele><time>2026-04-07T11:31:32.001Z</time></trkpt><trkpt lat="46.03850194434989" lon="12.164224758445826"><ele>540.6</ele><time>2026-04-07T11:31:33.001Z</time></trkpt><trkpt lat="46.038426988535605" lon="12.164117938522924"><ele>542.0</ele><time>2026-04-07T11:31:34.001Z</time></trkpt><trkpt lat="46.038323551876914" lon="12.164008999147013"><ele>536.75</ele><time>2026-04-07T11:31:35.001Z</time></trkpt><trkpt lat="46.0382165934853" lon="12.163896941338349"><ele>531.5</ele><time>2026-04-07T11:31:36.001Z</time></trkpt><trkpt lat="46.038130721131495" lon="12.163790703291943"><ele>526.25</ele><time>2026-04-07T11:31:37.001Z</time></trkpt><trkpt lat="46.03807124755022" lon="12.163694875520788"><ele>521.0</ele><time>2026-04-07T11:31:38.001Z</time></trkpt><trkpt lat="46.0379785196095" lon="12.163594839732454"><ele>521.0</ele><time>2026-04-07T11:31:40.001Z</time></trkpt><trkpt lat="46.03786264083068" lon="12.163730513645959"><ele>521.0</ele><time>2026-04-07T11:31:43.001Z</time></trkpt><trkpt lat="46.037938101026036" lon="12.16387459452257"><ele>521.0</ele><time>2026-04-07T11:31:45.001Z</time></trkpt><trkpt lat="46.03800755647899" lon="12.163952541394679"><ele>521.0</ele><time>2026-04-07T11:31:46.001Z</time></trkpt><trkpt lat="46.038060060601055" lon="12.164031509100234"><ele>521.0</ele><time>2026-04-07T11:31:47.001Z</time></trkpt><trkpt lat="46.03813424892777" lon="12.16411945907899"><ele>518.75</ele><time>2026-04-07T11:31:48.001Z</time></trkpt><trkpt lat="46.03818082423237" lon="12.164261341856598"><ele>516.5</ele><time>2026-04-07T11:31:49.001Z</time></trkpt><trkpt lat="46.038197346773366" lon="12.164423303902314"><ele>514.25</ele><time>2026-04-07T11:31:50.001Z</time></trkpt><trkpt lat="46.038179167735024" lon="12.164607321119048"><ele>512.0</ele><time>2026-04-07T11:31:51.001Z</time></trkpt><trkpt lat="46.03815488096955" lon="12.16480234935116"><ele>511.0</ele><time>2026-04-07T11:31:52.001Z</time></trkpt><trkpt lat="46.038132994576095" lon="12.164987645256822"><ele>510.0</ele><time>2026-04-07T11:31:53.001Z</time></trkpt><trkpt lat="46.03812109278382" lon="12.165183726915586"><ele>509.0</ele><time>2026-04-07T11:31:54.001Z</time></trkpt><trkpt lat="46.03810043540869" lon="12.165374604814616"><ele>508.0</ele><time>2026-04-07T11:31:55.001Z</time></trkpt><trkpt lat="46.038058284748686" lon="12.165556111442998"><ele>509.5</ele><time>2026-04-07T11:31:56.001Z</time></trkpt><trkpt lat="46.0379945333321" lon="12.165729245180541"><ele>511.0</ele><time>2026-04-07T11:31:57.001Z</time></trkpt><trkpt lat="46.03791293955171" lon="12.165898269947984"><ele>512.5</ele><time>2026-04-07T11:31:58.001Z</time></trkpt><trkpt lat="46.03781406368675" lon="12.16606804312907"><ele>514.0</ele><time>2026-04-07T11:31:59.001Z</time></trkpt><trkpt lat="46.03770019999349" lon="12.166231750613138"><ele>514.0</ele><time>2026-04-07T11:32:00.001Z</time></trkpt><trkpt lat="46.03756252749966" lon="12.166415626137782"><ele>514.0</ele><time>2026-04-07T11:32:01.002Z</time></trkpt><trkpt lat="46.03742661687804" lon="12.16660633172111"><ele>514.0</ele><time>2026-04-07T11:32:02.002Z</time></trkpt><trkpt lat="46.03730034338937" lon="12.166782115144994"><ele>512.3333333333334</ele><time>2026-04-07T11:32:03.002Z</time></trkpt><trkpt lat="46.037178410213166" lon="12.16694762850307"><ele>510.66666666666663</ele><time>2026-04-07T11:32:04.002Z</time></trkpt><trkpt lat="46.03707067549408" lon="12.16711309064"><ele>509.0</ele><time>2026-04-07T11:32:05.002Z</time></trkpt><trkpt lat="46.03697641106772" lon="12.167273071020018"><ele>509.79999999999995</ele><time>2026-04-07T11:32:06.002Z</time></trkpt><trkpt lat="46.036908139589535" lon="12.167409399895492"><ele>510.59999999999997</ele><time>2026-04-07T11:32:07.002Z</time></trkpt><trkpt lat="46.03684635070665" lon="12.167515862056462"><ele>511.4</ele><time>2026-04-07T11:32:08.002Z</time></trkpt><trkpt lat="46.03677836825773" lon="12.167595222372611"><ele>512.1999999999999</ele><time>2026-04-07T11:32:09.002Z</time></trkpt><trkpt lat="46.03669905633965" lon="12.167645516887172"><ele>513.0</ele><time>2026-04-07T11:32:10.002Z</time></trkpt><trkpt lat="46.03660747471193" lon="12.167653642333223"><ele>513.75</ele><time>2026-04-07T11:32:11.002Z</time></trkpt><trkpt lat="46.03652788132375" lon="12.167646249478043"><ele>514.5</ele><time>2026-04-07T11:32:12.002Z</time></trkpt><trkpt lat="46.03646052443978" lon="12.167673423583253"><ele>515.25</ele><time>2026-04-07T11:32:13.002Z</time></trkpt><trkpt lat="46.03632517891076" lon="12.167397722060416"><ele>516.0</ele><time>2026-04-07T11:32:14.002Z</time></trkpt><trkpt lat="46.03620274765588" lon="12.167262910818627"><ele>518.5</ele><time>2026-04-07T11:32:15.002Z</time></trkpt><trkpt lat="46.036091758438005" lon="12.167152795020248"><ele>521.0</ele><time>2026-04-07T11:32:16.002Z</time></trkpt><trkpt lat="46.03597905969185" lon="12.167044105360144"><ele>523.5</ele><time>2026-04-07T11:32:17.002Z</time></trkpt><trkpt lat="46.03588103280799" lon="12.166956724827207"><ele>526.0</ele><time>2026-04-07T11:32:18.002Z</time></trkpt><trkpt lat="46.035806808486825" lon="12.166898951098231"><ele>533.8</ele><time>2026-04-07T11:32:19.002Z</time></trkpt><trkpt lat="46.03571286390019" lon="12.166864351560836"><ele>541.6</ele><time>2026-04-07T11:32:21.002Z</time></trkpt><trkpt lat="46.03559585034111" lon="12.1669817383812"><ele>549.4</ele><time>2026-04-07T11:32:23.002Z</time></trkpt><trkpt lat="46.03551771896786" lon="12.167075901611215"><ele>557.2</ele><time>2026-04-07T11:32:24.002Z</time></trkpt><trkpt lat="46.03544110072037" lon="12.167168398257429"><ele>565.0</ele><time>2026-04-07T11:32:25.002Z</time></trkpt><trkpt lat="46.03536202128786" lon="12.167262388455883"><ele>565.0</ele><time>2026-04-07T11:32:26.002Z</time></trkpt><trkpt lat="46.035306832546965" lon="12.16734501516056"><ele>565.0</ele><time>2026-04-07T11:32:27.002Z</time></trkpt><trkpt lat="46.03527779626697" lon="12.16744072227384"><ele>565.0</ele><time>2026-04-07T11:32:29.002Z</time></trkpt><trkpt lat="46.03518605089759" lon="12.167400117394136"><ele>565.0</ele><time>2026-04-07T11:32:32.001Z</time></trkpt><trkpt lat="46.03524527491103" lon="12.16724023770639"><ele>565.0</ele><time>2026-04-07T11:32:34.001Z</time></trkpt><trkpt lat="46.035319377264315" lon="12.167133979579638"><ele>565.0</ele><time>2026-04-07T11:32:35.001Z</time></trkpt><trkpt lat="46.03537702881453" lon="12.167022112536872"><ele>565.0</ele><time>2026-04-07T11:32:36.001Z</time></trkpt><trkpt lat="46.03543946401219" lon="12.166908123587861"><ele>565.0</ele><time>2026-04-07T11:32:37.001Z</time></trkpt><trkpt lat="46.03554064721155" lon="12.166737180258483"><ele>565.0</ele><time>2026-04-07T11:32:38.001Z</time></trkpt><trkpt lat="46.03562282244929" lon="12.166590245773671"><ele>566.75</ele><time>2026-04-07T11:32:39.001Z</time></trkpt><trkpt lat="46.03569473587237" lon="12.166456029749853"><ele>568.5</ele><time>2026-04-07T11:32:40.001Z</time></trkpt><trkpt lat="46.03575265970116" lon="12.166308628977944"><ele>570.25</ele><time>2026-04-07T11:32:41.001Z</time></trkpt><trkpt lat="46.035783816091595" lon="12.166154418362309"><ele>572.0</ele><time>2026-04-07T11:32:42.001Z</time></trkpt><trkpt lat="46.03578162385893" lon="12.16598623845782"><ele>572.0</ele><time>2026-04-07T11:32:43.001Z</time></trkpt><trkpt lat="46.035756389060154" lon="12.165794144901515"><ele>572.0</ele><time>2026-04-07T11:32:44.001Z</time></trkpt><trkpt lat="46.03572692062818" lon="12.165581912811565"><ele>572.0</ele><time>2026-04-07T11:32:45.001Z</time></trkpt><trkpt lat="46.035723658270044" lon="12.16538352319978"><ele>572.0</ele><time>2026-04-07T11:32:46.001Z</time></trkpt><trkpt lat="46.035754250159314" lon="12.165199188264564"><ele>566.6</ele><time>2026-04-07T11:32:47.001Z</time></trkpt><trkpt lat="46.035805012427105" lon="12.165043108058395"><ele>561.2</ele><time>2026-04-07T11:32:48.001Z</time></trkpt><trkpt lat="46.035860775806434" lon="12.16489428363951"><ele>555.8</ele><time>2026-04-07T11:32:49.001Z</time></trkpt><trkpt lat="46.03589380392261" lon="12.164751879575608"><ele>550.4</ele><time>2026-04-07T11:32:50.001Z</time></trkpt><trkpt lat="46.03588826228124" lon="12.164607949960502"><ele>545.0</ele><time>2026-04-07T11:32:51.001Z</time></trkpt><trkpt lat="46.03585829270483" lon="12.16446091210504"><ele>551.0</ele><time>2026-04-07T11:32:52.001Z</time></trkpt><trkpt lat="46.03579535967101" lon="12.164303550041938"><ele>557.0</ele><time>2026-04-07T11:32:53.001Z</time></trkpt><trkpt lat="46.03570056408854" lon="12.164113852807265"><ele>563.0</ele><time>2026-04-07T11:32:54.001Z</time></trkpt><trkpt lat="46.03558894502525" lon="12.163882594283121"><ele>563.0</ele><time>2026-04-07T11:32:55.001Z</time></trkpt><trkpt lat="46.035486085408785" lon="12.163640331466176"><ele>563.0</ele><time>2026-04-07T11:32:56.001Z</time></trkpt><trkpt lat="46.03540253119543" lon="12.163432481902543"><ele>563.0</ele><time>2026-04-07T11:32:57.001Z</time></trkpt><trkpt lat="46.03533016676993" lon="12.16327056031911"><ele>561.25</ele><time>2026-04-07T11:32:58.001Z</time></trkpt><trkpt lat="46.03527788636372" lon="12.163123122157971"><ele>559.5</ele><time>2026-04-07T11:32:59.001Z</time></trkpt><trkpt lat="46.03525776787526" lon="12.162950862280974"><ele>557.75</ele><time>2026-04-07T11:33:00.001Z</time></trkpt><trkpt lat="46.03527007672945" lon="12.162764843898914"><ele>556.0</ele><time>2026-04-07T11:33:01.001Z</time></trkpt><trkpt lat="46.03529277416171" lon="12.16259015523742"><ele>556.0</ele><time>2026-04-07T11:33:02.001Z</time></trkpt><trkpt lat="46.03529490683973" lon="12.16244576961539"><ele>556.0</ele><time>2026-04-07T11:33:03.001Z</time></trkpt><trkpt lat="46.03526224957141" lon="12.162314312389253"><ele>556.0</ele><time>2026-04-07T11:33:04.001Z</time></trkpt><trkpt lat="46.03519969836961" lon="12.162192181426635"><ele>556.0</ele><time>2026-04-07T11:33:05.001Z</time></trkpt><trkpt lat="46.03511125066177" lon="12.162109255034478"><ele>556.0</ele><time>2026-04-07T11:33:06.001Z</time></trkpt><trkpt lat="46.034994334157986" lon="12.162064334644388"><ele>551.8</ele><time>2026-04-07T11:33:07.001Z</time></trkpt><trkpt lat="46.03484237228892" lon="12.162015668827532"><ele>547.6</ele><time>2026-04-07T11:33:08.001Z</time></trkpt><trkpt lat="46.034723033528486" lon="12.161967265767794"><ele>543.4</ele><time>2026-04-07T11:33:09.001Z</time></trkpt><trkpt lat="46.034639435471234" lon="12.16193108484491"><ele>539.2</ele><time>2026-04-07T11:33:10.001Z</time></trkpt><trkpt lat="46.0345695204538" lon="12.16193983731436"><ele>535.0</ele><time>2026-04-07T11:33:11.001Z</time></trkpt><trkpt lat="46.03451504004775" lon="12.161990356121175"><ele>535.0</ele><time>2026-04-07T11:33:12.001Z</time></trkpt><trkpt lat="46.03447131906826" lon="12.162082226471934"><ele>535.0</ele><time>2026-04-07T11:33:13.001Z</time></trkpt><trkpt lat="46.0344488732507" lon="12.16221921865637"><ele>535.0</ele><time>2026-04-07T11:33:14.001Z</time></trkpt><trkpt lat="46.03442994413249" lon="12.16239762903797"><ele>535.0</ele><time>2026-04-07T11:33:15.001Z</time></trkpt><trkpt lat="46.034394566702396" lon="12.162582816427165"><ele>535.0</ele><time>2026-04-07T11:33:16.001Z</time></trkpt><trkpt lat="46.034323655091704" lon="12.162709060410425"><ele>536.75</ele><time>2026-04-07T11:33:17.001Z</time></trkpt><trkpt lat="46.034229732880824" lon="12.16279857270905"><ele>538.5</ele><time>2026-04-07T11:33:18.001Z</time></trkpt><trkpt lat="46.03410518837118" lon="12.16286181734253"><ele>540.25</ele><time>2026-04-07T11:33:19.001Z</time></trkpt><trkpt lat="46.03397759065561" lon="12.16289787098768"><ele>542.0</ele><time>2026-04-07T11:33:20.001Z</time></trkpt><trkpt lat="46.033866736267775" lon="12.162936515212538"><ele>542.0</ele><time>2026-04-07T11:33:21.001Z</time></trkpt><trkpt lat="46.03376020401894" lon="12.163045050311167"><ele>542.0</ele><time>2026-04-07T11:33:22.001Z</time></trkpt><trkpt lat="46.03365323549866" lon="12.163210679509604"><ele>542.0</ele><time>2026-04-07T11:33:23.001Z</time></trkpt><trkpt lat="46.0335497441538" lon="12.163369201982912"><ele>542.0</ele><time>2026-04-07T11:33:24.001Z</time></trkpt><trkpt lat="46.03347213965676" lon="12.16347450080763"><ele>544.3333333333333</ele><time>2026-04-07T11:33:25.001Z</time></trkpt><trkpt lat="46.03341313818608" lon="12.16354331608104"><ele>546.6666666666666</ele><time>2026-04-07T11:33:26.001Z</time></trkpt><trkpt lat="46.033347626688716" lon="12.163580231234214"><ele>549.0</ele><time>2026-04-07T11:33:27.001Z</time></trkpt><trkpt lat="46.03327518063757" lon="12.16357143807577"><ele>551.3333333333334</ele><time>2026-04-07T11:33:28.001Z</time></trkpt><trkpt lat="46.03319997108488" lon="12.163521952713372"><ele>553.6666666666667</ele><time>2026-04-07T11:33:29.001Z</time></trkpt><trkpt lat="46.03312761246209" lon="12.163444397051602"><ele>556.0</ele><time>2026-04-07T11:33:30.001Z</time></trkpt><trkpt lat="46.03305325134687" lon="12.163366629222114"><ele>557.6</ele><time>2026-04-07T11:33:31.001Z</time></trkpt><trkpt lat="46.032975554120355" lon="12.163295449817896"><ele>559.2</ele><time>2026-04-07T11:33:32.001Z</time></trkpt><trkpt lat="46.032885025661386" lon="12.163256669271286"><ele>560.8</ele><time>2026-04-07T11:33:33.001Z</time></trkpt><trkpt lat="46.03277962324743" lon="12.163267053950738"><ele>562.4</ele><time>2026-04-07T11:33:34.001Z</time></trkpt><trkpt lat="46.03264656195139" lon="12.163317948696987"><ele>564.0</ele><time>2026-04-07T11:33:35.001Z</time></trkpt><trkpt lat="46.03251832333967" lon="12.163389000885354"><ele>564.5</ele><time>2026-04-07T11:33:36.001Z</time></trkpt><trkpt lat="46.032383642538676" lon="12.163447021165908"><ele>565.0</ele><time>2026-04-07T11:33:37.001Z</time></trkpt><trkpt lat="46.032237795888" lon="12.163474915561089"><ele>565.5</ele><time>2026-04-07T11:33:38.001Z</time></trkpt><trkpt lat="46.03208868002916" lon="12.163495347669153"><ele>566.0</ele><time>2026-04-07T11:33:39.001Z</time></trkpt><trkpt lat="46.03193806886693" lon="12.16352019405375"><ele>566.0</ele><time>2026-04-07T11:33:40.001Z</time></trkpt><trkpt lat="46.0317891419708" lon="12.163541024655746"><ele>566.0</ele><time>2026-04-07T11:33:41.001Z</time></trkpt><trkpt lat="46.03164908191037" lon="12.163550900499065"><ele>566.0</ele><time>2026-04-07T11:33:42.001Z</time></trkpt><trkpt lat="46.0315034198366" lon="12.163549471840636"><ele>566.0</ele><time>2026-04-07T11:33:43.001Z</time></trkpt><trkpt lat="46.03133360961235" lon="12.163533761440943"><ele>566.6666666666666</ele><time>2026-04-07T11:33:44.001Z</time></trkpt><trkpt lat="46.031178547181064" lon="12.163516566075272"><ele>567.3333333333334</ele><time>2026-04-07T11:33:45.001Z</time></trkpt><trkpt lat="46.03101455915924" lon="12.163495770051531"><ele>568.0</ele><time>2026-04-07T11:33:46.001Z</time></trkpt><trkpt lat="46.03082959895299" lon="12.163468420558377"><ele>569.0</ele><time>2026-04-07T11:33:47.001Z</time></trkpt><trkpt lat="46.03064557314088" lon="12.1634257141447"><ele>570.0</ele><time>2026-04-07T11:33:48.001Z</time></trkpt><trkpt lat="46.030469012812155" lon="12.163384689952373"><ele>571.0</ele><time>2026-04-07T11:33:49.001Z</time></trkpt><trkpt lat="46.0302871877846" lon="12.163360025749137"><ele>571.0</ele><time>2026-04-07T11:33:50.001Z</time></trkpt><trkpt lat="46.03009035331604" lon="12.163344128284308"><ele>571.0</ele><time>2026-04-07T11:33:51.001Z</time></trkpt><trkpt lat="46.02989582379868" lon="12.163338756654712"><ele>571.0</ele><time>2026-04-07T11:33:52.001Z</time></trkpt><trkpt lat="46.02969707641048" lon="12.163340136216853"><ele>572.6666666666667</ele><time>2026-04-07T11:33:53.001Z</time></trkpt><trkpt lat="46.029482484637455" lon="12.163313952554669"><ele>574.3333333333334</ele><time>2026-04-07T11:33:54.001Z</time></trkpt><trkpt lat="46.02928044826651" lon="12.163250626043586"><ele>576.0</ele><time>2026-04-07T11:33:55.001Z</time></trkpt><trkpt lat="46.02908511862287" lon="12.163150158332146"><ele>576.0</ele><time>2026-04-07T11:33:56.001Z</time></trkpt><trkpt lat="46.02888527518394" lon="12.163024201772096"><ele>576.0</ele><time>2026-04-07T11:33:57.001Z</time></trkpt><trkpt lat="46.028719560058484" lon="12.162914417329569"><ele>576.0</ele><time>2026-04-07T11:33:58.002Z</time></trkpt><trkpt lat="46.02858475673678" lon="12.162839885041713"><ele>576.0</ele><time>2026-04-07T11:33:59.002Z</time></trkpt><trkpt lat="46.028439887111574" lon="12.162799056332222"><ele>576.0</ele><time>2026-04-07T11:34:00.002Z</time></trkpt><trkpt lat="46.02826700535574" lon="12.162775106632267"><ele>576.0</ele><time>2026-04-07T11:34:01.002Z</time></trkpt><trkpt lat="46.02807109894672" lon="12.162738936489887"><ele>579.6666666666666</ele><time>2026-04-07T11:34:02.002Z</time></trkpt><trkpt lat="46.027868052821574" lon="12.162704051408793"><ele>583.3333333333333</ele><time>2026-04-07T11:34:03.002Z</time></trkpt><trkpt lat="46.02765354053695" lon="12.162694748419838"><ele>587.0</ele><time>2026-04-07T11:34:04.002Z</time></trkpt><trkpt lat="46.027416034791564" lon="12.162689738512222"><ele>589.3333333333333</ele><time>2026-04-07T11:34:05.002Z</time></trkpt><trkpt lat="46.02718428013329" lon="12.162665102410543"><ele>591.6666666666666</ele><time>2026-04-07T11:34:06.002Z</time></trkpt><trkpt lat="46.02699848633332" lon="12.162623798747076"><ele>594.0</ele><time>2026-04-07T11:34:07.002Z</time></trkpt><trkpt lat="46.026842619472085" lon="12.162588390043767"><ele>594.0</ele><time>2026-04-07T11:34:08.002Z</time></trkpt><trkpt lat="46.02669792190225" lon="12.162575057210498"><ele>594.0</ele><time>2026-04-07T11:34:09.002Z</time></trkpt><trkpt lat="46.026543598028006" lon="12.162603227020973"><ele>594.0</ele><time>2026-04-07T11:34:10.002Z</time></trkpt><trkpt lat="46.02639609995544" lon="12.162646391673656"><ele>597.75</ele><time>2026-04-07T11:34:11.002Z</time></trkpt><trkpt lat="46.026276753783044" lon="12.162664434868963"><ele>601.5</ele><time>2026-04-07T11:34:12.002Z</time></trkpt><trkpt lat="46.02616295320629" lon="12.162650463629928"><ele>605.25</ele><time>2026-04-07T11:34:13.002Z</time></trkpt><trkpt lat="46.02603843267619" lon="12.162593946170311"><ele>609.0</ele><time>2026-04-07T11:34:14.002Z</time></trkpt><trkpt lat="46.02590138861006" lon="12.162498299873642"><ele>611.0</ele><time>2026-04-07T11:34:15.002Z</time></trkpt><trkpt lat="46.025753697725676" lon="12.162367344186702"><ele>613.0</ele><time>2026-04-07T11:34:16.002Z</time></trkpt><trkpt lat="46.02561485405196" lon="12.162235825931548"><ele>615.0</ele><time>2026-04-07T11:34:17.002Z</time></trkpt><trkpt lat="46.02549177920288" lon="12.162147186686857"><ele>608.6666666666666</ele><time>2026-04-07T11:34:18.002Z</time></trkpt><trkpt lat="46.02536399619121" lon="12.162097101667257"><ele>602.3333333333333</ele><time>2026-04-07T11:34:19.002Z</time></trkpt><trkpt lat="46.02520851028706" lon="12.162078566483384"><ele>596.0</ele><time>2026-04-07T11:34:20.002Z</time></trkpt><trkpt lat="46.025017072267374" lon="12.162079737589877"><ele>597.3333333333333</ele><time>2026-04-07T11:34:21.002Z</time></trkpt><trkpt lat="46.024820057816015" lon="12.162082038786334"><ele>598.6666666666666</ele><time>2026-04-07T11:34:22.002Z</time></trkpt><trkpt lat="46.02462245412426" lon="12.162071792287746"><ele>600.0</ele><time>2026-04-07T11:34:23.002Z</time></trkpt><trkpt lat="46.02444630553928" lon="12.162051864881372"><ele>600.0</ele><time>2026-04-07T11:34:24.002Z</time></trkpt><trkpt lat="46.02427812839533" lon="12.162064222651274"><ele>600.0</ele><time>2026-04-07T11:34:25.002Z</time></trkpt><trkpt lat="46.02411641859824" lon="12.16211355362375"><ele>600.0</ele><time>2026-04-07T11:34:26.002Z</time></trkpt><trkpt lat="46.023964403789634" lon="12.16220298918602"><ele>604.0</ele><time>2026-04-07T11:34:27.002Z</time></trkpt><trkpt lat="46.02379897762124" lon="12.16232379363376"><ele>608.0</ele><time>2026-04-07T11:34:28.002Z</time></trkpt><trkpt lat="46.023615970101865" lon="12.162458922464525"><ele>612.0</ele><time>2026-04-07T11:34:29.002Z</time></trkpt><trkpt lat="46.02341434606996" lon="12.162583444754736"><ele>615.0</ele><time>2026-04-07T11:34:30.002Z</time></trkpt><trkpt lat="46.02320357906653" lon="12.162691457534644"><ele>618.0</ele><time>2026-04-07T11:34:31.002Z</time></trkpt><trkpt lat="46.0230280021826" lon="12.16277278289078"><ele>621.0</ele><time>2026-04-07T11:34:32.002Z</time></trkpt><trkpt lat="46.022859394692496" lon="12.162846413085207"><ele>621.0</ele><time>2026-04-07T11:34:33.002Z</time></trkpt><trkpt lat="46.02264865418624" lon="12.162911702963587"><ele>621.0</ele><time>2026-04-07T11:34:34.002Z</time></trkpt><trkpt lat="46.02241774634711" lon="12.162969676464343"><ele>620.5</ele><time>2026-04-07T11:34:35.002Z</time></trkpt><trkpt lat="46.02217647779108" lon="12.16304640735751"><ele>620.0</ele><time>2026-04-07T11:34:36.001Z</time></trkpt><trkpt lat="46.021950107128944" lon="12.163141469632127"><ele>623.0</ele><time>2026-04-07T11:34:37.001Z</time></trkpt><trkpt lat="46.02171126036314" lon="12.16325172278212"><ele>626.0</ele><time>2026-04-07T11:34:38.001Z</time></trkpt><trkpt lat="46.02145336166187" lon="12.163349362690436"><ele>628.0</ele><time>2026-04-07T11:34:39.001Z</time></trkpt><trkpt lat="46.021182216555786" lon="12.163437017930343"><ele>630.0</ele><time>2026-04-07T11:34:40.001Z</time></trkpt><trkpt lat="46.02094149231002" lon="12.163508121233459"><ele>634.6666666666666</ele><time>2026-04-07T11:34:41.001Z</time></trkpt><trkpt lat="46.020762820456206" lon="12.163563061551377"><ele>639.3333333333333</ele><time>2026-04-07T11:34:42.001Z</time></trkpt><trkpt lat="46.020623678753125" lon="12.163599178950262"><ele>644.0</ele><time>2026-04-07T11:34:43.001Z</time></trkpt><trkpt lat="46.02049809832346" lon="12.163633310905396"><ele>644.0</ele><time>2026-04-07T11:34:44.001Z</time></trkpt><trkpt lat="46.02038649937552" lon="12.163679611425051"><ele>644.0</ele><time>2026-04-07T11:34:45.001Z</time></trkpt><trkpt lat="46.02029068433725" lon="12.16377201654064"><ele>644.0</ele><time>2026-04-07T11:34:46Z</time></trkpt><trkpt lat="46.02019187453034" lon="12.163909491425805"><ele>644.0</ele><time>2026-04-07T11:34:47Z</time></trkpt><trkpt lat="46.02007622139208" lon="12.164081469971059"><ele>644.3333333333333</ele><time>2026-04-07T11:34:48Z</time></trkpt><trkpt lat="46.019932194989956" lon="12.164259456673355"><ele>644.6666666666666</ele><time>2026-04-07T11:34:49Z</time></trkpt><trkpt lat="46.01976960458255" lon="12.164426314002235"><ele>645.0</ele><time>2026-04-07T11:34:50Z</time></trkpt><trkpt lat="46.01962673945937" lon="12.164572108279263"><ele>645.0</ele><time>2026-04-07T11:34:51Z</time></trkpt><trkpt lat="46.01946466532632" lon="12.164756172704857"><ele>645.0</ele><time>2026-04-07T11:34:52Z</time></trkpt><trkpt lat="46.019290406456385" lon="12.164955330329946"><ele>645.0</ele><time>2026-04-07T11:34:53Z</time></trkpt><trkpt lat="46.01912526856189" lon="12.165125013067975"><ele>648.6666666666666</ele><time>2026-04-07T11:34:54Z</time></trkpt><trkpt lat="46.01894690437648" lon="12.16529194880142"><ele>652.3333333333333</ele><time>2026-04-07T11:34:55Z</time></trkpt><trkpt lat="46.01875415171038" lon="12.165466976758232"><ele>656.0</ele><time>2026-04-07T11:34:56Z</time></trkpt><trkpt lat="46.0185596914531" lon="12.165649614078767"><ele>659.3333333333333</ele><time>2026-04-07T11:34:57Z</time></trkpt><trkpt lat="46.018398554497914" lon="12.1658050645943"><ele>662.6666666666666</ele><time>2026-04-07T11:34:58Z</time></trkpt><trkpt lat="46.018269962790136" lon="12.165925564211896"><ele>666.0</ele><time>2026-04-07T11:34:59Z</time></trkpt><trkpt lat="46.018150722553656" lon="12.166011507899661"><ele>666.0</ele><time>2026-04-07T11:35:00Z</time></trkpt><trkpt lat="46.01803545138866" lon="12.166077471331375"><ele>666.0</ele><time>2026-04-07T11:35:01Z</time></trkpt><trkpt lat="46.01790848159048" lon="12.166123251878806"><ele>666.0</ele><time>2026-04-07T11:35:02Z</time></trkpt><trkpt lat="46.0177721578459" lon="12.166145078109647"><ele>666.0</ele><time>2026-04-07T11:35:03Z</time></trkpt><trkpt lat="46.01763773909472" lon="12.166181918336262"><ele>666.0</ele><time>2026-04-07T11:35:04.001Z</time></trkpt><trkpt lat="46.017511193636814" lon="12.16625862238575"><ele>666.0</ele><time>2026-04-07T11:35:05.001Z</time></trkpt><trkpt lat="46.017392554088424" lon="12.166375495311945"><ele>666.0</ele><time>2026-04-07T11:35:06.001Z</time></trkpt><trkpt lat="46.01726186367491" lon="12.166513090855743"><ele>666.0</ele><time>2026-04-07T11:35:07.001Z</time></trkpt><trkpt lat="46.017119648227606" lon="12.16661851696327"><ele>666.3333333333334</ele><time>2026-04-07T11:35:08.001Z</time></trkpt><trkpt lat="46.0169695384826" lon="12.166689660950427"><ele>666.6666666666667</ele><time>2026-04-07T11:35:09.001Z</time></trkpt><trkpt lat="46.01680754991289" lon="12.166731775511055"><ele>667.0</ele><time>2026-04-07T11:35:10.001Z</time></trkpt><trkpt lat="46.01661701485279" lon="12.166768205954616"><ele>663.0</ele><time>2026-04-07T11:35:11.001Z</time></trkpt><trkpt lat="46.01640289302449" lon="12.166829174266562"><ele>659.0</ele><time>2026-04-07T11:35:12.001Z</time></trkpt><trkpt lat="46.01617037694578" lon="12.166903126250602"><ele>659.0</ele><time>2026-04-07T11:35:13.001Z</time></trkpt><trkpt lat="46.015960649970516" lon="12.166963548310564"><ele>659.0</ele><time>2026-04-07T11:35:14.001Z</time></trkpt><trkpt lat="46.0157456446343" lon="12.167017644850311"><ele>659.0</ele><time>2026-04-07T11:35:15.001Z</time></trkpt><trkpt lat="46.01551172646901" lon="12.167073906088454"><ele>657.6666666666666</ele><time>2026-04-07T11:35:16.001Z</time></trkpt><trkpt lat="46.01528370578611" lon="12.16712563807406"><ele>656.3333333333334</ele><time>2026-04-07T11:35:17.001Z</time></trkpt><trkpt lat="46.0150814636001" lon="12.167159462459601"><ele>655.0</ele><time>2026-04-07T11:35:18.001Z</time></trkpt><trkpt lat="46.01488554586711" lon="12.167172553837649"><ele>655.0</ele><time>2026-04-07T11:35:19.001Z</time></trkpt><trkpt lat="46.01468737255551" lon="12.16713546652137"><ele>655.0</ele><time>2026-04-07T11:35:20.001Z</time></trkpt><trkpt lat="46.01446920867214" lon="12.167169222904601"><ele>655.0</ele><time>2026-04-07T11:35:21.001Z</time></trkpt><trkpt lat="46.01424314569347" lon="12.167191764245544"><ele>653.3333333333334</ele><time>2026-04-07T11:35:22.001Z</time></trkpt><trkpt lat="46.01403797004447" lon="12.167206727543393"><ele>651.6666666666666</ele><time>2026-04-07T11:35:23.001Z</time></trkpt><trkpt lat="46.01384363549319" lon="12.167216279727128"><ele>650.0</ele><time>2026-04-07T11:35:24.001Z</time></trkpt><trkpt lat="46.01364260508132" lon="12.167221408719264"><ele>650.0</ele><time>2026-04-07T11:35:25.001Z</time></trkpt><trkpt lat="46.01342954894826" lon="12.167244853280117"><ele>650.0</ele><time>2026-04-07T11:35:26.001Z</time></trkpt><trkpt lat="46.01319607914401" lon="12.16727054412615"><ele>650.0</ele><time>2026-04-07T11:35:27.001Z</time></trkpt><trkpt lat="46.01296764279932" lon="12.167428022518603"><ele>657.3333333333333</ele><time>2026-04-07T11:35:28.001Z</time></trkpt><trkpt lat="46.0127668485355" lon="12.16748802755653"><ele>664.6666666666666</ele><time>2026-04-07T11:35:29.001Z</time></trkpt><trkpt lat="46.012574617961455" lon="12.167537971341364"><ele>672.0</ele><time>2026-04-07T11:35:30.001Z</time></trkpt><trkpt lat="46.0123848385276" lon="12.167582944633207"><ele>672.0</ele><time>2026-04-07T11:35:31.001Z</time></trkpt><trkpt lat="46.01218778683834" lon="12.167604919786806"><ele>672.0</ele><time>2026-04-07T11:35:32.001Z</time></trkpt><trkpt lat="46.011978427407264" lon="12.167605248593718"><ele>672.0</ele><time>2026-04-07T11:35:33.001Z</time></trkpt><trkpt lat="46.011758365110644" lon="12.16759020990116"><ele>671.3333333333334</ele><time>2026-04-07T11:35:34.001Z</time></trkpt><trkpt lat="46.01156639183153" lon="12.167586774852337"><ele>670.6666666666667</ele><time>2026-04-07T11:35:35.001Z</time></trkpt><trkpt lat="46.01138526489694" lon="12.167611808354104"><ele>670.0</ele><time>2026-04-07T11:35:36.001Z</time></trkpt><trkpt lat="46.011219694237155" lon="12.167665525270019"><ele>670.0</ele><time>2026-04-07T11:35:37.001Z</time></trkpt><trkpt lat="46.01106577055114" lon="12.167744862363664"><ele>670.0</ele><time>2026-04-07T11:35:38.001Z</time></trkpt><trkpt lat="46.010891835153416" lon="12.167853702884386"><ele>670.0</ele><time>2026-04-07T11:35:39.001Z</time></trkpt><trkpt lat="46.01070272133968" lon="12.167966373111614"><ele>670.5</ele><time>2026-04-07T11:35:40.001Z</time></trkpt><trkpt lat="46.010492217394045" lon="12.168076900694684"><ele>671.0</ele><time>2026-04-07T11:35:41.001Z</time></trkpt><trkpt lat="46.01026667362045" lon="12.16816681312402"><ele>674.0</ele><time>2026-04-07T11:35:42.001Z</time></trkpt><trkpt lat="46.010048066274315" lon="12.168234175344788"><ele>677.0</ele><time>2026-04-07T11:35:43.001Z</time></trkpt><trkpt lat="46.00983671621578" lon="12.168297828427143"><ele>680.0</ele><time>2026-04-07T11:35:44.001Z</time></trkpt><trkpt lat="46.00963303743888" lon="12.168369501571533"><ele>680.0</ele><time>2026-04-07T11:35:45.001Z</time></trkpt><trkpt lat="46.009440225361594" lon="12.168440741850954"><ele>680.0</ele><time>2026-04-07T11:35:46.001Z</time></trkpt><trkpt lat="46.00926016489817" lon="12.1685064343559"><ele>680.0</ele><time>2026-04-07T11:35:47.001Z</time></trkpt><trkpt lat="46.00908156750218" lon="12.168572658924504"><ele>681.6666666666666</ele><time>2026-04-07T11:35:48.001Z</time></trkpt><trkpt lat="46.00891065257003" lon="12.16864934358249"><ele>683.3333333333334</ele><time>2026-04-07T11:35:49.001Z</time></trkpt><trkpt lat="46.00873592275152" lon="12.16875366589315"><ele>685.0</ele><time>2026-04-07T11:35:50.001Z</time></trkpt><trkpt lat="46.00854455757158" lon="12.168861992510905"><ele>685.0</ele><time>2026-04-07T11:35:51.001Z</time></trkpt><trkpt lat="46.00835107108639" lon="12.168945689118543"><ele>685.0</ele><time>2026-04-07T11:35:52.001Z</time></trkpt><trkpt lat="46.00814399234025" lon="12.169016224878861"><ele>685.0</ele><time>2026-04-07T11:35:53.001Z</time></trkpt><trkpt lat="46.007921221460805" lon="12.169084734113667"><ele>692.0</ele><time>2026-04-07T11:35:54.001Z</time></trkpt><trkpt lat="46.00768516911561" lon="12.169153949244647"><ele>699.0</ele><time>2026-04-07T11:35:55.001Z</time></trkpt><trkpt lat="46.00745910347157" lon="12.169220063123918"><ele>700.0</ele><time>2026-04-07T11:35:56.001Z</time></trkpt><trkpt lat="46.007251512347764" lon="12.169278166352509"><ele>701.0</ele><time>2026-04-07T11:35:57.001Z</time></trkpt><trkpt lat="46.00703526548286" lon="12.169338137564537"><ele>702.0</ele><time>2026-04-07T11:35:58.001Z</time></trkpt><trkpt lat="46.00680224887489" lon="12.169407391167304"><ele>705.3333333333334</ele><time>2026-04-07T11:35:59.001Z</time></trkpt><trkpt lat="46.00658661197787" lon="12.169476366470363"><ele>708.6666666666667</ele><time>2026-04-07T11:36:00.001Z</time></trkpt><trkpt lat="46.00638992853843" lon="12.169536422211152"><ele>712.0</ele><time>2026-04-07T11:36:01.001Z</time></trkpt><trkpt lat="46.00620511761142" lon="12.1695994663502"><ele>712.0</ele><time>2026-04-07T11:36:02.001Z</time></trkpt><trkpt lat="46.006054543881376" lon="12.169657072984178"><ele>712.0</ele><time>2026-04-07T11:36:03.001Z</time></trkpt><trkpt lat="46.00592221751293" lon="12.169698716246899"><ele>712.0</ele><time>2026-04-07T11:36:04.001Z</time></trkpt><trkpt lat="46.005792571618244" lon="12.169714772851165"><ele>712.0</ele><time>2026-04-07T11:36:05.001Z</time></trkpt><trkpt lat="46.00564126666644" lon="12.16970268373354"><ele>711.75</ele><time>2026-04-07T11:36:06.001Z</time></trkpt><trkpt lat="46.00549025293896" lon="12.169711388611784"><ele>711.5</ele><time>2026-04-07T11:36:07.001Z</time></trkpt><trkpt lat="46.00535564122454" lon="12.16970967157064"><ele>711.25</ele><time>2026-04-07T11:36:08.001Z</time></trkpt><trkpt lat="46.00525261163372" lon="12.169709036993538"><ele>711.0</ele><time>2026-04-07T11:36:09.001Z</time></trkpt><trkpt lat="46.005145890914214" lon="12.16972117237012"><ele>711.0</ele><time>2026-04-07T11:36:10.001Z</time></trkpt><trkpt lat="46.005058167750164" lon="12.169721085610009"><ele>711.0</ele><time>2026-04-07T11:36:11.001Z</time></trkpt><trkpt lat="46.004971640838264" lon="12.169723495599321"><ele>711.0</ele><time>2026-04-07T11:36:12.001Z</time></trkpt><trkpt lat="46.00490075235769" lon="12.169728973622517"><ele>711.0</ele><time>2026-04-07T11:36:13.001Z</time></trkpt><trkpt lat="46.00483618561568" lon="12.169749068439287"><ele>711.0</ele><time>2026-04-07T11:36:17.001Z</time></trkpt><trkpt lat="46.00475950554655" lon="12.16981664721759"><ele>711.0</ele><time>2026-04-07T11:41:24Z</time></trkpt><trkpt lat="46.004691484093115" lon="12.169877001261236"><ele>710.0</ele><time>2026-04-07T11:41:27Z</time></trkpt><trkpt lat="46.004637376647516" lon="12.170035896487239"><ele>709.0</ele><time>2026-04-07T11:41:29Z</time></trkpt><trkpt lat="46.00458988050673" lon="12.170151586217797"><ele>708.0</ele><time>2026-04-07T11:41:31.02Z</time></trkpt><trkpt lat="46.00452959863217" lon="12.170182255756579"><ele>707.0</ele><time>2026-04-07T11:41:33.014Z</time></trkpt><trkpt lat="46.00463961721026" lon="12.169679598894128"><ele>707.0</ele><time>2026-04-07T11:41:41Z</time></trkpt><trkpt lat="46.00465187738732" lon="12.16946088973406"><ele>707.0</ele><time>2026-04-07T11:41:43Z</time></trkpt><trkpt lat="46.004622130937264" lon="12.16936201545106"><ele>707.0</ele><time>2026-04-07T11:41:44.001Z</time></trkpt><trkpt lat="46.00458126531926" lon="12.16927013207294"><ele>707.0</ele><time>2026-04-07T11:41:45.001Z</time></trkpt><trkpt lat="46.00453439923554" lon="12.169208621253905"><ele>707.0</ele><time>2026-04-07T11:41:46.001Z</time></trkpt><trkpt lat="46.0044647981245" lon="12.169165258392779"><ele>707.0</ele><time>2026-04-07T11:41:47.001Z</time></trkpt><trkpt lat="46.00438614282823" lon="12.169136567832052"><ele>707.0</ele><time>2026-04-07T11:41:48.001Z</time></trkpt><trkpt lat="46.004291626082704" lon="12.169106013052994"><ele>707.0</ele><time>2026-04-07T11:41:49.001Z</time></trkpt><trkpt lat="46.00419275739856" lon="12.169049234395352"><ele>707.0</ele><time>2026-04-07T11:41:50.001Z</time></trkpt><trkpt lat="46.00411286376538" lon="12.16898538102255"><ele>707.0</ele><time>2026-04-07T11:41:51.001Z</time></trkpt><trkpt lat="46.004041618491996" lon="12.16893933750677"><ele>707.0</ele><time>2026-04-07T11:41:52.001Z</time></trkpt><trkpt lat="46.003954408798826" lon="12.168873694623683"><ele>707.0</ele><time>2026-04-07T11:41:54.001Z</time></trkpt><trkpt lat="46.003904008388936" lon="12.168930512948016"><ele>707.0</ele><time>2026-04-07T11:41:56.02Z</time></trkpt><trkpt lat="46.00392223193586" lon="12.169017571099129"><ele>707.0</ele><time>2026-04-07T11:41:58.022Z</time></trkpt><trkpt lat="46.00404099541514" lon="12.169008376243578"><ele>707.0</ele><time>2026-04-07T11:42:00.019Z</time></trkpt><trkpt lat="46.00411864879676" lon="12.168989482186943"><ele>707.0</ele><time>2026-04-07T11:42:01.018Z</time></trkpt><trkpt lat="46.00418808408641" lon="12.169204680260428"><ele>707.0</ele><time>2026-04-07T11:42:02.001Z</time></trkpt><trkpt lat="46.004286617485384" lon="12.169207566124502"><ele>707.0</ele><time>2026-04-07T11:42:03.001Z</time></trkpt><trkpt lat="46.004377490900325" lon="12.169250916109439"><ele>707.0</ele><time>2026-04-07T11:42:04.001Z</time></trkpt><trkpt lat="46.00443293694821" lon="12.169358090105591"><ele>707.0</ele><time>2026-04-07T11:42:06.001Z</time></trkpt><trkpt lat="46.00443655117452" lon="12.169478713447194"><ele>707.0</ele><time>2026-04-07T11:42:08.001Z</time></trkpt><trkpt lat="46.00434131382691" lon="12.169517641104562"><ele>707.0</ele><time>2026-04-07T11:42:10.001Z</time></trkpt><trkpt lat="46.00427263987557" lon="12.169458652618047"><ele>707.0</ele><time>2026-04-07T11:42:11.001Z</time></trkpt><trkpt lat="46.00419694002709" lon="12.169392246861934"><ele>707.0</ele><time>2026-04-07T11:42:12.001Z</time></trkpt><trkpt lat="46.00410093705683" lon="12.169356901897812"><ele>707.0</ele><time>2026-04-07T11:42:13.001Z</time></trkpt><trkpt lat="46.0040029148556" lon="12.169315390267977"><ele>707.0</ele><time>2026-04-07T11:42:14.001Z</time></trkpt><trkpt lat="46.003929902148954" lon="12.169267880277323"><ele>714.6666666666666</ele><time>2026-04-07T11:42:15.001Z</time></trkpt><trkpt lat="46.00382129904478" lon="12.169267292098137"><ele>722.3333333333334</ele><time>2026-04-07T11:42:17.022Z</time></trkpt><trkpt lat="46.00378483052879" lon="12.169371655774567"><ele>730.0</ele><time>2026-04-07T11:42:19.015Z</time></trkpt><trkpt lat="46.00409064446204" lon="12.169610615831026"><ele>725.4</ele><time>2026-04-07T11:42:24.001Z</time></trkpt><trkpt lat="46.00416878581887" lon="12.169693552020949"><ele>720.8</ele><time>2026-04-07T11:42:25.001Z</time></trkpt><trkpt lat="46.00425291384094" lon="12.169781162702838"><ele>716.2</ele><time>2026-04-07T11:42:26.001Z</time></trkpt><trkpt lat="46.004315334051185" lon="12.169849142951012"><ele>711.6</ele><time>2026-04-07T11:42:27.001Z</time></trkpt><trkpt lat="46.00436742423232" lon="12.169900855078923"><ele>707.0</ele><time>2026-04-07T11:42:28.001Z</time></trkpt><trkpt lat="46.00443046224491" lon="12.170033390843416"><ele>707.4000000000001</ele><time>2026-04-07T11:42:30.022Z</time></trkpt><trkpt lat="46.00440583956808" lon="12.17013403346719"><ele>707.8000000000001</ele><time>2026-04-07T11:42:32.018Z</time></trkpt><trkpt lat="46.00433088364906" lon="12.170137262464973"><ele>708.2</ele><time>2026-04-07T11:42:34.018Z</time></trkpt><trkpt lat="46.00429093003832" lon="12.169999033223995"><ele>708.6</ele><time>2026-04-07T11:42:35.001Z</time></trkpt><trkpt lat="46.00421664987306" lon="12.169910006503551"><ele>709.0</ele><time>2026-04-07T11:42:36.001Z</time></trkpt><trkpt lat="46.00410161799465" lon="12.169882857100394"><ele>712.5</ele><time>2026-04-07T11:42:37.001Z</time></trkpt><trkpt lat="46.00401529221462" lon="12.169794229450028"><ele>716.0</ele><time>2026-04-07T11:42:38.001Z</time></trkpt><trkpt lat="46.00394457676083" lon="12.169711543199288"><ele>719.5</ele><time>2026-04-07T11:42:39.001Z</time></trkpt><trkpt lat="46.00388017037187" lon="12.169661085690267"><ele>723.0</ele><time>2026-04-07T11:42:40.001Z</time></trkpt><trkpt lat="46.00376835913923" lon="12.169649467007067"><ele>726.5</ele><time>2026-04-07T11:42:42.001Z</time></trkpt><trkpt lat="46.003708637486625" lon="12.169689729112001"><ele>730.0</ele><time>2026-04-07T11:42:43.018Z</time></trkpt><trkpt lat="46.00365477035326" lon="12.169759844934745"><ele>730.0</ele><time>2026-04-07T11:42:44.018Z</time></trkpt><trkpt lat="46.00362420798209" lon="12.169840731066076"><ele>730.0</ele><time>2026-04-07T11:42:45.015Z</time></trkpt><trkpt lat="46.00363884555735" lon="12.16997641509644"><ele>730.0</ele><time>2026-04-07T11:42:47.018Z</time></trkpt><trkpt lat="46.00390670359694" lon="12.16985855252684"><ele>730.0</ele><time>2026-04-07T11:42:50.001Z</time></trkpt><trkpt lat="46.00397138234383" lon="12.169990413763875"><ele>725.8</ele><time>2026-04-07T11:42:51.001Z</time></trkpt><trkpt lat="46.00407443605982" lon="12.170045662907146"><ele>721.6</ele><time>2026-04-07T11:42:52.001Z</time></trkpt><trkpt lat="46.004147378089044" lon="12.170116898412788"><ele>717.4000000000001</ele><time>2026-04-07T11:42:53.001Z</time></trkpt><trkpt lat="46.00422934411702" lon="12.170221384942792"><ele>713.2</ele><time>2026-04-07T11:42:54.001Z</time></trkpt><trkpt lat="46.00430429218656" lon="12.17033619773604"><ele>709.0</ele><time>2026-04-07T11:42:55.001Z</time></trkpt><trkpt lat="46.004378315777416" lon="12.170448390340269"><ele>703.0</ele><time>2026-04-07T11:42:56.001Z</time></trkpt><trkpt lat="46.00444224710278" lon="12.170549458972621"><ele>697.0</ele><time>2026-04-07T11:42:57.001Z</time></trkpt><trkpt lat="46.00451158920039" lon="12.170636206579498"><ele>691.0</ele><time>2026-04-07T11:42:58.001Z</time></trkpt><trkpt lat="46.004592738214" lon="12.170724328464862"><ele>685.0</ele><time>2026-04-07T11:42:59.001Z</time></trkpt><trkpt lat="46.00466439764088" lon="12.17083751681895"><ele>679.0</ele><time>2026-04-07T11:43:00Z</time></trkpt><trkpt lat="46.00472202632245" lon="12.170976999814055"><ele>668.75</ele><time>2026-04-07T11:43:01Z</time></trkpt><trkpt lat="46.00475605651552" lon="12.171126763480894"><ele>658.5</ele><time>2026-04-07T11:43:02Z</time></trkpt><trkpt lat="46.004778069837606" lon="12.171287726313002"><ele>648.25</ele><time>2026-04-07T11:43:03Z</time></trkpt><trkpt lat="46.004787276239384" lon="12.171456140363075"><ele>638.0</ele><time>2026-04-07T11:43:04Z</time></trkpt><trkpt lat="46.00477608373886" lon="12.171617167744913"><ele>638.0</ele><time>2026-04-07T11:43:05Z</time></trkpt><trkpt lat="46.004751987218846" lon="12.171770147462349"><ele>638.0</ele><time>2026-04-07T11:43:06Z</time></trkpt><trkpt lat="46.00471449791775" lon="12.171927686588699"><ele>638.0</ele><time>2026-04-07T11:43:07Z</time></trkpt><trkpt lat="46.004684626209354" lon="12.172069127973554"><ele>638.0</ele><time>2026-04-07T11:43:08Z</time></trkpt><trkpt lat="46.00466780136587" lon="12.172199483939206"><ele>638.0</ele><time>2026-04-07T11:43:09Z</time></trkpt><trkpt lat="46.004662924548676" lon="12.172302097104732"><ele>638.0</ele><time>2026-04-07T11:43:10Z</time></trkpt><trkpt lat="46.00463785537569" lon="12.172445997789556"><ele>638.0</ele><time>2026-04-07T11:43:12Z</time></trkpt><trkpt lat="46.00455020042769" lon="12.172437101077698"><ele>638.0</ele><time>2026-04-07T11:43:14Z</time></trkpt><trkpt lat="46.004535829989635" lon="12.172263868313523"><ele>638.0</ele><time>2026-04-07T11:43:16Z</time></trkpt><trkpt lat="46.004575857722116" lon="12.172128978507635"><ele>638.0</ele><time>2026-04-07T11:43:17Z</time></trkpt><trkpt lat="46.00459167184778" lon="12.171974529256637"><ele>638.0</ele><time>2026-04-07T11:43:18Z</time></trkpt><trkpt lat="46.004599539097086" lon="12.171814949224963"><ele>638.0</ele><time>2026-04-07T11:43:19Z</time></trkpt><trkpt lat="46.004610862701234" lon="12.171638834325366"><ele>638.0</ele><time>2026-04-07T11:43:20Z</time></trkpt><trkpt lat="46.004605183466424" lon="12.171474502079185"><ele>638.0</ele><time>2026-04-07T11:43:21Z</time></trkpt><trkpt lat="46.00458871458371" lon="12.171327748401291"><ele>660.4</ele><time>2026-04-07T11:43:22Z</time></trkpt><trkpt lat="46.0045583913851" lon="12.171188915180489"><ele>682.8</ele><time>2026-04-07T11:43:23Z</time></trkpt><trkpt lat="46.00450514433243" lon="12.171059936696253"><ele>705.2</ele><time>2026-04-07T11:43:24Z</time></trkpt><trkpt lat="46.00442896480953" lon="12.170942260072204"><ele>727.6</ele><time>2026-04-07T11:43:25Z</time></trkpt><trkpt lat="46.00435430763314" lon="12.170852365983105"><ele>750.0</ele><time>2026-04-07T11:43:26Z</time></trkpt><trkpt lat="46.0043003666772" lon="12.170783134861702"><ele>750.0</ele><time>2026-04-07T11:43:27Z</time></trkpt><trkpt lat="46.00425431196485" lon="12.170719375634809"><ele>750.0</ele><time>2026-04-07T11:43:28Z</time></trkpt><trkpt lat="46.0041649328189" lon="12.170648056551693"><ele>750.0</ele><time>2026-04-07T11:43:30Z</time></trkpt><trkpt lat="46.004088248095925" lon="12.17072707812932"><ele>750.0</ele><time>2026-04-07T11:43:32Z</time></trkpt><trkpt lat="46.004144756535545" lon="12.170878886247147"><ele>750.0</ele><time>2026-04-07T11:43:34Z</time></trkpt><trkpt lat="46.00422920066211" lon="12.170939145805233"><ele>750.0</ele><time>2026-04-07T11:43:35Z</time></trkpt><trkpt lat="46.00429595385998" lon="12.171030053564856"><ele>750.0</ele><time>2026-04-07T11:43:36Z</time></trkpt><trkpt lat="46.004346106676664" lon="12.171142985195374"><ele>750.0</ele><time>2026-04-07T11:43:37Z</time></trkpt><trkpt lat="46.00438763407169" lon="12.171285450971771"><ele>750.0</ele><time>2026-04-07T11:43:38Z</time></trkpt><trkpt lat="46.004403272872366" lon="12.171435353116962"><ele>750.0</ele><time>2026-04-07T11:43:39Z</time></trkpt><trkpt lat="46.004379662341286" lon="12.171608277361653"><ele>724.0</ele><time>2026-04-07T11:43:40Z</time></trkpt><trkpt lat="46.00433573619409" lon="12.171797826020061"><ele>698.0</ele><time>2026-04-07T11:43:41Z</time></trkpt><trkpt lat="46.00429009682799" lon="12.171985814796605"><ele>672.0</ele><time>2026-04-07T11:43:42Z</time></trkpt><trkpt lat="46.004240267440956" lon="12.172171970840585"><ele>646.0</ele><time>2026-04-07T11:43:43Z</time></trkpt><trkpt lat="46.00418275466262" lon="12.172368146903503"><ele>646.0</ele><time>2026-04-07T11:43:44Z</time></trkpt><trkpt lat="46.004117372685656" lon="12.172564771493425"><ele>646.0</ele><time>2026-04-07T11:43:45.001Z</time></trkpt><trkpt lat="46.00404243178665" lon="12.172763427421783"><ele>646.0</ele><time>2026-04-07T11:43:46.001Z</time></trkpt><trkpt lat="46.00397464298723" lon="12.172955749636667"><ele>646.0</ele><time>2026-04-07T11:43:47.001Z</time></trkpt><trkpt lat="46.00391631266952" lon="12.173135927089584"><ele>646.0</ele><time>2026-04-07T11:43:48.001Z</time></trkpt><trkpt lat="46.00385006486785" lon="12.173283569194366"><ele>646.0</ele><time>2026-04-07T11:43:49.001Z</time></trkpt><trkpt lat="46.003771783931384" lon="12.173403340731847"><ele>646.0</ele><time>2026-04-07T11:43:50.001Z</time></trkpt><trkpt lat="46.003679951921455" lon="12.173504858332432"><ele>646.0</ele><time>2026-04-07T11:43:51.001Z</time></trkpt><trkpt lat="46.003562195451146" lon="12.173575999294808"><ele>646.0</ele><time>2026-04-07T11:43:52.001Z</time></trkpt><trkpt lat="46.00342711382578" lon="12.173610372552385"><ele>646.0</ele><time>2026-04-07T11:43:53.001Z</time></trkpt><trkpt lat="46.003292864977524" lon="12.1736152546557"><ele>646.0</ele><time>2026-04-07T11:43:54.001Z</time></trkpt><trkpt lat="46.00316917670327" lon="12.173595134227275"><ele>646.0</ele><time>2026-04-07T11:43:55.001Z</time></trkpt><trkpt lat="46.00304898545472" lon="12.173553269606124"><ele>646.0</ele><time>2026-04-07T11:43:56.001Z</time></trkpt><trkpt lat="46.00292962843564" lon="12.173491894393525"><ele>646.0</ele><time>2026-04-07T11:43:57.001Z</time></trkpt><trkpt lat="46.00282452975631" lon="12.173403211908171"><ele>646.0</ele><time>2026-04-07T11:43:58.001Z</time></trkpt><trkpt lat="46.00273359747374" lon="12.173310167269586"><ele>646.0</ele><time>2026-04-07T11:43:59.001Z</time></trkpt><trkpt lat="46.00263707467154" lon="12.17324628079985"><ele>646.0</ele><time>2026-04-07T11:44:00.001Z</time></trkpt><trkpt lat="46.00253573124312" lon="12.173217338931734"><ele>646.0</ele><time>2026-04-07T11:44:01.001Z</time></trkpt><trkpt lat="46.00242667384098" lon="12.173215416936516"><ele>646.0</ele><time>2026-04-07T11:44:02.001Z</time></trkpt><trkpt lat="46.00230842104557" lon="12.173241557800878"><ele>646.0</ele><time>2026-04-07T11:44:03.001Z</time></trkpt><trkpt lat="46.002183101117865" lon="12.17329275542519"><ele>646.0</ele><time>2026-04-07T11:44:04.001Z</time></trkpt><trkpt lat="46.00205435771266" lon="12.173367799128759"><ele>646.0</ele><time>2026-04-07T11:44:05.001Z</time></trkpt><trkpt lat="46.00193194070134" lon="12.173441223970437"><ele>646.0</ele><time>2026-04-07T11:44:06.001Z</time></trkpt><trkpt lat="46.00181311584966" lon="12.173508492075262"><ele>646.0</ele><time>2026-04-07T11:44:07.001Z</time></trkpt><trkpt lat="46.00169775072711" lon="12.173541309037308"><ele>646.0</ele><time>2026-04-07T11:44:08.001Z</time></trkpt><trkpt lat="46.00158694660293" lon="12.173524596923667"><ele>646.0</ele><time>2026-04-07T11:44:09.001Z</time></trkpt><trkpt lat="46.00146666388037" lon="12.173459185785262"><ele>646.0</ele><time>2026-04-07T11:44:10.001Z</time></trkpt><trkpt lat="46.00134013146629" lon="12.173370016157877"><ele>646.0</ele><time>2026-04-07T11:44:11.001Z</time></trkpt><trkpt lat="46.00122427911777" lon="12.173299238736544"><ele>646.0</ele><time>2026-04-07T11:44:12.001Z</time></trkpt><trkpt lat="46.00110260817444" lon="12.173261702840506"><ele>646.0</ele><time>2026-04-07T11:44:13.001Z</time></trkpt><trkpt lat="46.00098750770848" lon="12.173250971785924"><ele>646.0</ele><time>2026-04-07T11:44:14.001Z</time></trkpt><trkpt lat="46.000885001399666" lon="12.173275445515198"><ele>646.0</ele><time>2026-04-07T11:44:15.001Z</time></trkpt><trkpt lat="46.000790767678446" lon="12.173323015655901"><ele>646.0</ele><time>2026-04-07T11:44:16.001Z</time></trkpt><trkpt lat="46.000708134440465" lon="12.173385919323643"><ele>646.0</ele><time>2026-04-07T11:44:17.001Z</time></trkpt><trkpt lat="46.00064166592028" lon="12.173448746986903"><ele>646.0</ele><time>2026-04-07T11:44:18.001Z</time></trkpt><trkpt lat="46.000546024262405" lon="12.17350328209557"><ele>646.0</ele><time>2026-04-07T11:44:20.001Z</time></trkpt><trkpt lat="46.000495297807426" lon="12.1734039585287"><ele>646.0</ele><time>2026-04-07T11:44:22.001Z</time></trkpt><trkpt lat="46.00058944327665" lon="12.173289300312348"><ele>646.0</ele><time>2026-04-07T11:44:24.001Z</time></trkpt><trkpt lat="46.00068936223481" lon="12.173259792958811"><ele>607.5</ele><time>2026-04-07T11:44:25.001Z</time></trkpt><trkpt lat="46.00079621867785" lon="12.17318807215569"><ele>569.0</ele><time>2026-04-07T11:44:26.001Z</time></trkpt><trkpt lat="46.00091323143169" lon="12.173117923954585"><ele>530.5</ele><time>2026-04-07T11:44:27.001Z</time></trkpt><trkpt lat="46.001056470821396" lon="12.173065896605957"><ele>492.0</ele><time>2026-04-07T11:44:28.001Z</time></trkpt><trkpt lat="46.00121117102019" lon="12.173043458491831"><ele>492.0</ele><time>2026-04-07T11:44:29.001Z</time></trkpt><trkpt lat="46.00134287442592" lon="12.173031919016639"><ele>492.0</ele><time>2026-04-07T11:44:30.001Z</time></trkpt><trkpt lat="46.00146189222391" lon="12.1730329692516"><ele>492.0</ele><time>2026-04-07T11:44:31.001Z</time></trkpt><trkpt lat="46.00157250978111" lon="12.173010952106717"><ele>492.0</ele><time>2026-04-07T11:44:32.001Z</time></trkpt><trkpt lat="46.00168760900259" lon="12.172931840024486"><ele>492.0</ele><time>2026-04-07T11:44:33.001Z</time></trkpt><trkpt lat="46.00182076124365" lon="12.172806303858458"><ele>492.0</ele><time>2026-04-07T11:44:34.001Z</time></trkpt><trkpt lat="46.00195662960787" lon="12.172665490091955"><ele>492.0</ele><time>2026-04-07T11:44:35.001Z</time></trkpt><trkpt lat="46.0020669336481" lon="12.172555308880103"><ele>539.0</ele><time>2026-04-07T11:44:36.001Z</time></trkpt><trkpt lat="46.00216582080662" lon="12.172461390698608"><ele>586.0</ele><time>2026-04-07T11:44:37.001Z</time></trkpt><trkpt lat="46.00223165120801" lon="12.172364912295945"><ele>633.0</ele><time>2026-04-07T11:44:38.001Z</time></trkpt><trkpt lat="46.002277545267305" lon="12.172254646679551"><ele>680.0</ele><time>2026-04-07T11:44:39.001Z</time></trkpt><trkpt lat="46.00229151420951" lon="12.172144880404433"><ele>727.0</ele><time>2026-04-07T11:44:40.001Z</time></trkpt><trkpt lat="46.00227559180377" lon="12.172043611907705"><ele>727.0</ele><time>2026-04-07T11:44:41.001Z</time></trkpt><trkpt lat="46.00222457441938" lon="12.171960660584762"><ele>727.0</ele><time>2026-04-07T11:44:42.001Z</time></trkpt><trkpt lat="46.00214507899243" lon="12.171918754127685"><ele>727.0</ele><time>2026-04-07T11:44:43.001Z</time></trkpt><trkpt lat="46.00205821162067" lon="12.171927758496293"><ele>727.0</ele><time>2026-04-07T11:44:44.001Z</time></trkpt><trkpt lat="46.001951026933895" lon="12.17197193726578"><ele>727.0</ele><time>2026-04-07T11:44:45.001Z</time></trkpt><trkpt lat="46.00181751972434" lon="12.172032992586026"><ele>727.0</ele><time>2026-04-07T11:44:46.001Z</time></trkpt><trkpt lat="46.001673858761954" lon="12.1720617667086"><ele>727.0</ele><time>2026-04-07T11:44:47.001Z</time></trkpt><trkpt lat="46.00154718699551" lon="12.1720543367625"><ele>727.0</ele><time>2026-04-07T11:44:48.001Z</time></trkpt><trkpt lat="46.00141471882398" lon="12.172010363346008"><ele>727.0</ele><time>2026-04-07T11:44:49.001Z</time></trkpt><trkpt lat="46.00125351513979" lon="12.171943302719907"><ele>727.0</ele><time>2026-04-07T11:44:50.001Z</time></trkpt><trkpt lat="46.001086966841264" lon="12.17188098178452"><ele>727.0</ele><time>2026-04-07T11:44:51.001Z</time></trkpt><trkpt lat="46.000901977949226" lon="12.171832119324835"><ele>727.0</ele><time>2026-04-07T11:44:52.001Z</time></trkpt><trkpt lat="46.00072684027477" lon="12.17181550666853"><ele>727.0</ele><time>2026-04-07T11:44:53.001Z</time></trkpt><trkpt lat="46.00055454323723" lon="12.171842507789885"><ele>727.0</ele><time>2026-04-07T11:44:54.001Z</time></trkpt><trkpt lat="46.00035569698746" lon="12.171885027614156"><ele>727.0</ele><time>2026-04-07T11:44:55.001Z</time></trkpt><trkpt lat="46.00016815893746" lon="12.171907928984092"><ele>727.0</ele><time>2026-04-07T11:44:56.001Z</time></trkpt><trkpt lat="45.99999676852772" lon="12.171916158255593"><ele>727.0</ele><time>2026-04-07T11:44:57.001Z</time></trkpt><trkpt lat="45.99985077708849" lon="12.17191519894463"><ele>727.0</ele><time>2026-04-07T11:44:58.001Z</time></trkpt><trkpt lat="45.99972146297424" lon="12.171897927277124"><ele>727.0</ele><time>2026-04-07T11:44:59.001Z</time></trkpt><trkpt lat="45.99960889724389" lon="12.171845920912144"><ele>727.0</ele><time>2026-04-07T11:45:00.001Z</time></trkpt><trkpt lat="45.99951429230227" lon="12.171779996325544"><ele>727.0</ele><time>2026-04-07T11:45:01.001Z</time></trkpt><trkpt lat="45.99945297145103" lon="12.17172909168533"><ele>727.0</ele><time>2026-04-07T11:45:02.001Z</time></trkpt><trkpt lat="45.999357537008656" lon="12.171735662879279"><ele>727.0</ele><time>2026-04-07T11:45:04.001Z</time></trkpt><trkpt lat="45.99934622423175" lon="12.171877444217126"><ele>727.0</ele><time>2026-04-07T11:45:06.001Z</time></trkpt><trkpt lat="45.999404807019936" lon="12.171939618424613"><ele>727.0</ele><time>2026-04-07T11:45:07.001Z</time></trkpt><trkpt lat="45.999518668007504" lon="12.171985343483142"><ele>727.0</ele><time>2026-04-07T11:45:08.001Z</time></trkpt><trkpt lat="45.99963170640249" lon="12.172041053916168"><ele>727.0</ele><time>2026-04-07T11:45:09.001Z</time></trkpt><trkpt lat="45.99975703143049" lon="12.172114234643022"><ele>727.0</ele><time>2026-04-07T11:45:10.001Z</time></trkpt><trkpt lat="45.99987883742839" lon="12.17217182924921"><ele>727.0</ele><time>2026-04-07T11:45:11.001Z</time></trkpt><trkpt lat="45.99998018172993" lon="12.172220169078338"><ele>687.8333333333334</ele><time>2026-04-07T11:45:12.001Z</time></trkpt><trkpt lat="46.0000535117902" lon="12.17226264314617"><ele>648.6666666666667</ele><time>2026-04-07T11:45:13.001Z</time></trkpt><trkpt lat="46.00010818859633" lon="12.172330055472596"><ele>609.5</ele><time>2026-04-07T11:45:14.001Z</time></trkpt><trkpt lat="46.00013177863064" lon="12.172422297616194"><ele>570.3333333333334</ele><time>2026-04-07T11:45:15.001Z</time></trkpt><trkpt lat="46.00011918037113" lon="12.172535622049118"><ele>531.1666666666666</ele><time>2026-04-07T11:45:16Z</time></trkpt><trkpt lat="46.0000702256963" lon="12.172646086273742"><ele>492.0</ele><time>2026-04-07T11:45:17Z</time></trkpt><trkpt lat="45.99999622907557" lon="12.17273220472907"><ele>492.0</ele><time>2026-04-07T11:45:18Z</time></trkpt><trkpt lat="45.99988840684305" lon="12.172822985014692"><ele>492.0</ele><time>2026-04-07T11:45:19Z</time></trkpt><trkpt lat="45.99976951479274" lon="12.17290035679652"><ele>492.0</ele><time>2026-04-07T11:45:20Z</time></trkpt><trkpt lat="45.99961116915515" lon="12.173000378756742"><ele>492.0</ele><time>2026-04-07T11:45:21Z</time></trkpt><trkpt lat="45.99945894522834" lon="12.173098092228356"><ele>492.0</ele><time>2026-04-07T11:45:22Z</time></trkpt><trkpt lat="45.99931495012811" lon="12.173197104071212"><ele>492.0</ele><time>2026-04-07T11:45:23Z</time></trkpt><trkpt lat="45.99916861305205" lon="12.17328806785914"><ele>492.0</ele><time>2026-04-07T11:45:24Z</time></trkpt><trkpt lat="45.999006541448146" lon="12.173354408330265"><ele>492.0</ele><time>2026-04-07T11:45:25Z</time></trkpt><trkpt lat="45.99883604040343" lon="12.173379048287156"><ele>492.0</ele><time>2026-04-07T11:45:26Z</time></trkpt><trkpt lat="45.99866692732928" lon="12.17339463380412"><ele>492.0</ele><time>2026-04-07T11:45:27Z</time></trkpt><trkpt lat="45.99848244711969" lon="12.17345666546591"><ele>474.0</ele><time>2026-04-07T11:45:28Z</time></trkpt><trkpt lat="45.998284840386745" lon="12.173544685784304"><ele>456.0</ele><time>2026-04-07T11:45:29Z</time></trkpt><trkpt lat="45.99808903686996" lon="12.173636042979803"><ele>438.0</ele><time>2026-04-07T11:45:30Z</time></trkpt><trkpt lat="45.99790720505475" lon="12.173710934511673"><ele>438.0</ele><time>2026-04-07T11:45:31Z</time></trkpt><trkpt lat="45.99774455918783" lon="12.173772451186483"><ele>438.0</ele><time>2026-04-07T11:45:32Z</time></trkpt><trkpt lat="45.9976122547564" lon="12.173795886157786"><ele>438.0</ele><time>2026-04-07T11:45:33Z</time></trkpt><trkpt lat="45.99749349884072" lon="12.17378400985349"><ele>438.0</ele><time>2026-04-07T11:45:34Z</time></trkpt><trkpt lat="45.997389226596624" lon="12.173726467982389"><ele>440.5</ele><time>2026-04-07T11:45:35Z</time></trkpt><trkpt lat="45.99728628580077" lon="12.173647957149715"><ele>443.0</ele><time>2026-04-07T11:45:36Z</time></trkpt><trkpt lat="45.997178819249925" lon="12.173595992217814"><ele>445.5</ele><time>2026-04-07T11:45:37Z</time></trkpt><trkpt lat="45.99705077108711" lon="12.173581749093568"><ele>448.0</ele><time>2026-04-07T11:45:38Z</time></trkpt><trkpt lat="45.99691648928903" lon="12.173593848149117"><ele>448.0</ele><time>2026-04-07T11:45:39Z</time></trkpt><trkpt lat="45.996793754774366" lon="12.173626767128729"><ele>447.99999999999994</ele><time>2026-04-07T11:45:40.001Z</time></trkpt><trkpt lat="45.9966985303267" lon="12.173670634642253"><ele>447.99999999999994</ele><time>2026-04-07T11:45:41.001Z</time></trkpt><trkpt lat="45.996623226679056" lon="12.173727505286593"><ele>448.0</ele><time>2026-04-07T11:45:42.001Z</time></trkpt><trkpt lat="45.9965607273114" lon="12.17378604539091"><ele>448.0</ele><time>2026-04-07T11:45:43.001Z</time></trkpt><trkpt lat="45.996521648625524" lon="12.173866036754308"><ele>446.2</ele><time>2026-04-07T11:45:44.001Z</time></trkpt><trkpt lat="45.996462299921625" lon="12.174005288554953"><ele>444.4</ele><time>2026-04-07T11:45:46.001Z</time></trkpt><trkpt lat="45.99637295136281" lon="12.173983622845162"><ele>442.59999999999997</ele><time>2026-04-07T11:45:48.001Z</time></trkpt><trkpt lat="45.99638981790397" lon="12.173826548972253"><ele>440.79999999999995</ele><time>2026-04-07T11:45:50.001Z</time></trkpt><trkpt lat="45.99648315072363" lon="12.173732214804156"><ele>439.0</ele><time>2026-04-07T11:45:51.001Z</time></trkpt><trkpt lat="45.9965605956633" lon="12.173624896759604"><ele>439.0</ele><time>2026-04-07T11:45:52.001Z</time></trkpt><trkpt lat="45.996648843086675" lon="12.17350473690676"><ele>439.0</ele><time>2026-04-07T11:45:53.001Z</time></trkpt><trkpt lat="45.99675362234344" lon="12.173403353377802"><ele>439.0</ele><time>2026-04-07T11:45:54.001Z</time></trkpt><trkpt lat="45.99687051266919" lon="12.173326074918066"><ele>439.0</ele><time>2026-04-07T11:45:55.001Z</time></trkpt><trkpt lat="45.99699375337682" lon="12.17325965533562"><ele>437.75</ele><time>2026-04-07T11:45:56.001Z</time></trkpt><trkpt lat="45.99711629094" lon="12.173213161903865"><ele>436.5</ele><time>2026-04-07T11:45:57.001Z</time></trkpt><trkpt lat="45.99724860744782" lon="12.173191299739141"><ele>435.25</ele><time>2026-04-07T11:45:58.001Z</time></trkpt><trkpt lat="45.997392504725326" lon="12.173185896515403"><ele>434.0</ele><time>2026-04-07T11:45:59.001Z</time></trkpt><trkpt lat="45.99752832634208" lon="12.173174791468368"><ele>437.16666666666663</ele><time>2026-04-07T11:46:00.001Z</time></trkpt><trkpt lat="45.9976350423188" lon="12.173177017035263"><ele>440.3333333333333</ele><time>2026-04-07T11:46:01.001Z</time></trkpt><trkpt lat="45.99772572825175" lon="12.173165461022215"><ele>443.5</ele><time>2026-04-07T11:46:02.001Z</time></trkpt><trkpt lat="45.99780484165852" lon="12.17313412841815"><ele>446.66666666666663</ele><time>2026-04-07T11:46:03.001Z</time></trkpt><trkpt lat="45.997865003217775" lon="12.17307151830332"><ele>449.8333333333333</ele><time>2026-04-07T11:46:04.001Z</time></trkpt><trkpt lat="45.99790279942585" lon="12.172980894084889"><ele>453.0</ele><time>2026-04-07T11:46:05.001Z</time></trkpt><trkpt lat="45.99791022931554" lon="12.172881479018528"><ele>453.0</ele><time>2026-04-07T11:46:06.001Z</time></trkpt><trkpt lat="45.99788997502564" lon="12.172769324104062"><ele>452.99999999999994</ele><time>2026-04-07T11:46:07.001Z</time></trkpt><trkpt lat="45.99784493107814" lon="12.172669729009087"><ele>452.99999999999994</ele><time>2026-04-07T11:46:08.001Z</time></trkpt><trkpt lat="45.99776683538803" lon="12.172614128213388"><ele>453.0</ele><time>2026-04-07T11:46:09.001Z</time></trkpt><trkpt lat="45.997656294694536" lon="12.172588563498158"><ele>453.0</ele><time>2026-04-07T11:46:10.001Z</time></trkpt><trkpt lat="45.997512280191934" lon="12.172573063186935"><ele>446.66666666666663</ele><time>2026-04-07T11:46:11.001Z</time></trkpt><trkpt lat="45.99735260687829" lon="12.172540442713917"><ele>440.3333333333333</ele><time>2026-04-07T11:46:12.001Z</time></trkpt><trkpt lat="45.99718788215817" lon="12.172489721517614"><ele>434.0</ele><time>2026-04-07T11:46:13.001Z</time></trkpt><trkpt lat="45.99701311546091" lon="12.172437010803664"><ele>434.0</ele><time>2026-04-07T11:46:14.001Z</time></trkpt><trkpt lat="45.99684090992922" lon="12.172393331311367"><ele>434.0</ele><time>2026-04-07T11:46:15.001Z</time></trkpt><trkpt lat="45.99668116340458" lon="12.172346772518829"><ele>434.0</ele><time>2026-04-07T11:46:16.001Z</time></trkpt><trkpt lat="45.996544782357695" lon="12.172307565936677"><ele>432.5</ele><time>2026-04-07T11:46:17.001Z</time></trkpt><trkpt lat="45.9964178908304" lon="12.172297400587851"><ele>431.0</ele><time>2026-04-07T11:46:18.001Z</time></trkpt><trkpt lat="45.99629125800098" lon="12.172329381039642"><ele>429.5</ele><time>2026-04-07T11:46:19.001Z</time></trkpt><trkpt lat="45.99614453010526" lon="12.172398679465232"><ele>428.0</ele><time>2026-04-07T11:46:20.001Z</time></trkpt><trkpt lat="45.99598120175746" lon="12.172495039672272"><ele>426.3333333333333</ele><time>2026-04-07T11:46:21.001Z</time></trkpt><trkpt lat="45.995809438703176" lon="12.172595532726175"><ele>424.66666666666663</ele><time>2026-04-07T11:46:22.001Z</time></trkpt><trkpt lat="45.99564701328235" lon="12.172679046061756"><ele>423.0</ele><time>2026-04-07T11:46:23.001Z</time></trkpt><trkpt lat="45.99548433122588" lon="12.172755887733945"><ele>423.0</ele><time>2026-04-07T11:46:24.001Z</time></trkpt><trkpt lat="45.99532028498343" lon="12.172843381821176"><ele>423.0</ele><time>2026-04-07T11:46:25.001Z</time></trkpt><trkpt lat="45.99515744711255" lon="12.172929380615361"><ele>423.0</ele><time>2026-04-07T11:46:26.001Z</time></trkpt><trkpt lat="45.995004886385495" lon="12.172989210533505"><ele>421.33333333333337</ele><time>2026-04-07T11:46:27.001Z</time></trkpt><trkpt lat="45.994860974773005" lon="12.173029095460857"><ele>419.6666666666667</ele><time>2026-04-07T11:46:28.001Z</time></trkpt><trkpt lat="45.9947118607732" lon="12.173045996778932"><ele>418.0</ele><time>2026-04-07T11:46:29.001Z</time></trkpt><trkpt lat="45.99454007403645" lon="12.173036795089116"><ele>418.0</ele><time>2026-04-07T11:46:30.001Z</time></trkpt><trkpt lat="45.99435431275579" lon="12.173012805919651"><ele>418.0</ele><time>2026-04-07T11:46:31.001Z</time></trkpt><trkpt lat="45.99418265041413" lon="12.172989389637223"><ele>418.0</ele><time>2026-04-07T11:46:32.001Z</time></trkpt><trkpt lat="45.99402986198183" lon="12.172970580913947"><ele>416.0</ele><time>2026-04-07T11:46:33.001Z</time></trkpt><trkpt lat="45.99388740043436" lon="12.172931309344905"><ele>414.0</ele><time>2026-04-07T11:46:34.001Z</time></trkpt><trkpt lat="45.99374531428977" lon="12.172853304188658"><ele>412.0</ele><time>2026-04-07T11:46:35.001Z</time></trkpt><trkpt lat="45.99362186152508" lon="12.172767574480325"><ele>410.0</ele><time>2026-04-07T11:46:36.001Z</time></trkpt><trkpt lat="45.99351777341915" lon="12.17270663490237"><ele>410.0</ele><time>2026-04-07T11:46:37.001Z</time></trkpt><trkpt lat="45.9934018229583" lon="12.172686450002175"><ele>410.0</ele><time>2026-04-07T11:46:38.001Z</time></trkpt><trkpt lat="45.99327001460686" lon="12.172708810892674"><ele>410.0</ele><time>2026-04-07T11:46:39.001Z</time></trkpt><trkpt lat="45.99312340136194" lon="12.172764354906278"><ele>410.0</ele><time>2026-04-07T11:46:40.001Z</time></trkpt><trkpt lat="45.992995341693344" lon="12.172819227410557"><ele>408.75</ele><time>2026-04-07T11:46:41.001Z</time></trkpt><trkpt lat="45.992875946901755" lon="12.17285739823243"><ele>407.5</ele><time>2026-04-07T11:46:42.001Z</time></trkpt><trkpt lat="45.99275219408141" lon="12.172873219556623"><ele>406.25</ele><time>2026-04-07T11:46:43.001Z</time></trkpt><trkpt lat="45.99262632410419" lon="12.172842975738723"><ele>405.0</ele><time>2026-04-07T11:46:44.001Z</time></trkpt><trkpt lat="45.992499357339504" lon="12.172764105418054"><ele>402.4</ele><time>2026-04-07T11:46:45.001Z</time></trkpt><trkpt lat="45.99236698319341" lon="12.172663863507426"><ele>399.8</ele><time>2026-04-07T11:46:46.001Z</time></trkpt><trkpt lat="45.99225966882235" lon="12.172578296009123"><ele>397.20000000000005</ele><time>2026-04-07T11:46:47.001Z</time></trkpt><trkpt lat="45.99218118254528" lon="12.172509251918651"><ele>394.6</ele><time>2026-04-07T11:46:48.001Z</time></trkpt><trkpt lat="45.99212432979968" lon="12.172463586709888"><ele>392.0</ele><time>2026-04-07T11:46:49.001Z</time></trkpt><trkpt lat="45.99203435004908" lon="12.172471881450683"><ele>392.0</ele><time>2026-04-07T11:46:51.001Z</time></trkpt><trkpt lat="45.99202789295526" lon="12.17260341217018"><ele>392.0</ele><time>2026-04-07T11:46:53.001Z</time></trkpt><trkpt lat="45.99208150204005" lon="12.172677882513456"><ele>392.0</ele><time>2026-04-07T11:46:54.001Z</time></trkpt><trkpt lat="45.99217494262541" lon="12.172731575880656"><ele>392.0</ele><time>2026-04-07T11:46:55.001Z</time></trkpt><trkpt lat="45.99226680764965" lon="12.172800926795396"><ele>392.0</ele><time>2026-04-07T11:46:56.001Z</time></trkpt><trkpt lat="45.992355185223396" lon="12.172881721134925"><ele>392.0</ele><time>2026-04-07T11:46:57.001Z</time></trkpt><trkpt lat="45.99246155535963" lon="12.172985464276715"><ele>392.0</ele><time>2026-04-07T11:46:58.001Z</time></trkpt><trkpt lat="45.992579891492234" lon="12.17310531203645"><ele>392.0</ele><time>2026-04-07T11:46:59.001Z</time></trkpt><trkpt lat="45.99269234200853" lon="12.173227703855147"><ele>392.0</ele><time>2026-04-07T11:47:00.001Z</time></trkpt><trkpt lat="45.99278491976699" lon="12.173345414008226"><ele>390.6</ele><time>2026-04-07T11:47:01.001Z</time></trkpt><trkpt lat="45.99287182933498" lon="12.173455185986942"><ele>389.20000000000005</ele><time>2026-04-07T11:47:02.001Z</time></trkpt><trkpt lat="45.99295934627385" lon="12.173551766304616"><ele>387.8</ele><time>2026-04-07T11:47:03.001Z</time></trkpt><trkpt lat="45.99304570394884" lon="12.173638863251316"><ele>386.4</ele><time>2026-04-07T11:47:04.001Z</time></trkpt><trkpt lat="45.99310866826259" lon="12.173705720928764"><ele>385.0</ele><time>2026-04-07T11:47:05.001Z</time></trkpt><trkpt lat="45.99314598252829" lon="12.173854656131708"><ele>385.0</ele><time>2026-04-07T11:47:07.001Z</time></trkpt><trkpt lat="45.993069085385" lon="12.17394675375011"><ele>385.0</ele><time>2026-04-07T11:47:09.001Z</time></trkpt><trkpt lat="45.99300696917585" lon="12.173916241846767"><ele>385.0</ele><time>2026-04-07T11:47:10.001Z</time></trkpt><trkpt lat="45.99293439546377" lon="12.17382310557767"><ele>385.0</ele><time>2026-04-07T11:47:11.001Z</time></trkpt><trkpt lat="45.99286033674173" lon="12.1737213758535"><ele>385.0</ele><time>2026-04-07T11:47:12Z</time></trkpt><trkpt lat="45.99277563934879" lon="12.1736295652092"><ele>385.0</ele><time>2026-04-07T11:47:13Z</time></trkpt><trkpt lat="45.99269034939719" lon="12.173530152001796"><ele>385.0</ele><time>2026-04-07T11:47:14Z</time></trkpt><trkpt lat="45.99258533480201" lon="12.173412829290832"><ele>385.0</ele><time>2026-04-07T11:47:15Z</time></trkpt><trkpt lat="45.99246771199906" lon="12.173300347274262"><ele>385.0</ele><time>2026-04-07T11:47:16Z</time></trkpt><trkpt lat="45.9923484464641" lon="12.17320288049624"><ele>386.75</ele><time>2026-04-07T11:47:17Z</time></trkpt><trkpt lat="45.992220724045424" lon="12.173113615230948"><ele>388.5</ele><time>2026-04-07T11:47:18Z</time></trkpt><trkpt lat="45.99209463745905" lon="12.17304660863102"><ele>390.25</ele><time>2026-04-07T11:47:19Z</time></trkpt><trkpt lat="45.991970141455425" lon="12.173005161777537"><ele>392.0</ele><time>2026-04-07T11:47:20Z</time></trkpt><trkpt lat="45.991850817414864" lon="12.172963384886994"><ele>392.0</ele><time>2026-04-07T11:47:21Z</time></trkpt><trkpt lat="45.99174300662328" lon="12.17288112402212"><ele>392.0</ele><time>2026-04-07T11:47:22Z</time></trkpt><trkpt lat="45.99164399089922" lon="12.172748975803266"><ele>392.0</ele><time>2026-04-07T11:47:23Z</time></trkpt><trkpt lat="45.99155123741994" lon="12.172597206547685"><ele>392.0</ele><time>2026-04-07T11:47:24Z</time></trkpt><trkpt lat="45.99145898522499" lon="12.172466444949999"><ele>396.25</ele><time>2026-04-07T11:47:25Z</time></trkpt><trkpt lat="45.991360300084324" lon="12.172360386484625"><ele>400.5</ele><time>2026-04-07T11:47:26Z</time></trkpt><trkpt lat="45.99124904491702" lon="12.172289114701917"><ele>404.75</ele><time>2026-04-07T11:47:27Z</time></trkpt><trkpt lat="45.991113962567695" lon="12.172244221983929"><ele>409.0</ele><time>2026-04-07T11:47:28Z</time></trkpt><trkpt lat="45.99097409660371" lon="12.172224265637698"><ele>409.0</ele><time>2026-04-07T11:47:29Z</time></trkpt><trkpt lat="45.990842634846445" lon="12.17219962475681"><ele>409.0</ele><time>2026-04-07T11:47:30Z</time></trkpt><trkpt lat="45.99070469176229" lon="12.172131744344098"><ele>409.0</ele><time>2026-04-07T11:47:31Z</time></trkpt><trkpt lat="45.99057015624743" lon="12.172034976240603"><ele>409.0</ele><time>2026-04-07T11:47:32Z</time></trkpt><trkpt lat="45.9904390582625" lon="12.171971539943302"><ele>404.33333333333337</ele><time>2026-04-07T11:47:33Z</time></trkpt><trkpt lat="45.990291172355995" lon="12.171942500050434"><ele>399.66666666666663</ele><time>2026-04-07T11:47:34Z</time></trkpt><trkpt lat="45.9901283859335" lon="12.171938295701722"><ele>395.0</ele><time>2026-04-07T11:47:35Z</time></trkpt><trkpt lat="45.98996650110293" lon="12.17193652312642"><ele>387.0</ele><time>2026-04-07T11:47:36Z</time></trkpt><trkpt lat="45.989818918630554" lon="12.17190250003331"><ele>379.0</ele><time>2026-04-07T11:47:37Z</time></trkpt><trkpt lat="45.98966818187273" lon="12.171847133744272"><ele>371.0</ele><time>2026-04-07T11:47:38Z</time></trkpt><trkpt lat="45.98951331061449" lon="12.171774037750732"><ele>371.0</ele><time>2026-04-07T11:47:39Z</time></trkpt><trkpt lat="45.98936164294097" lon="12.171689186858869"><ele>371.0</ele><time>2026-04-07T11:47:40Z</time></trkpt><trkpt lat="45.989236498241226" lon="12.17160673610196"><ele>371.0</ele><time>2026-04-07T11:47:41Z</time></trkpt><trkpt lat="45.98913409532336" lon="12.171546321790398"><ele>371.0</ele><time>2026-04-07T11:47:42Z</time></trkpt><trkpt lat="45.989039367375675" lon="12.171505540023663"><ele>373.20000000000005</ele><time>2026-04-07T11:47:43Z</time></trkpt><trkpt lat="45.98895927387582" lon="12.171483533670438"><ele>375.40000000000003</ele><time>2026-04-07T11:47:44Z</time></trkpt><trkpt lat="45.988891597234115" lon="12.171493695339121"><ele>377.6</ele><time>2026-04-07T11:47:45Z</time></trkpt><trkpt lat="45.98881526328925" lon="12.171610970543354"><ele>379.8</ele><time>2026-04-07T11:47:47Z</time></trkpt><trkpt lat="45.98886723702406" lon="12.17177030551979"><ele>382.0</ele><time>2026-04-07T11:47:49Z</time></trkpt><trkpt lat="45.98895194351664" lon="12.171810492103846"><ele>379.25</ele><time>2026-04-07T11:47:50Z</time></trkpt><trkpt lat="45.98905665822667" lon="12.171840055325465"><ele>376.5</ele><time>2026-04-07T11:47:51Z</time></trkpt><trkpt lat="45.989154825112514" lon="12.17187666047624"><ele>373.75</ele><time>2026-04-07T11:47:52Z</time></trkpt><trkpt lat="45.98927393684025" lon="12.171934147873333"><ele>371.0</ele><time>2026-04-07T11:47:53Z</time></trkpt><trkpt lat="45.989400855738" lon="12.171990716836715"><ele>371.0</ele><time>2026-04-07T11:47:54Z</time></trkpt><trkpt lat="45.98953564965779" lon="12.172040712090768"><ele>371.0</ele><time>2026-04-07T11:47:55Z</time></trkpt><trkpt lat="45.989677212396515" lon="12.172101033119338"><ele>371.0</ele><time>2026-04-07T11:47:56Z</time></trkpt><trkpt lat="45.98982620541106" lon="12.172161332695993"><ele>371.0</ele><time>2026-04-07T11:47:57Z</time></trkpt><trkpt lat="45.98995650355324" lon="12.172191028516417"><ele>367.1666666666667</ele><time>2026-04-07T11:47:58Z</time></trkpt><trkpt lat="45.99005976705071" lon="12.172204612347691"><ele>363.33333333333337</ele><time>2026-04-07T11:47:59Z</time></trkpt><trkpt lat="45.99015709635512" lon="12.172221297756021"><ele>359.5</ele><time>2026-04-07T11:48:00Z</time></trkpt><trkpt lat="45.99022517738612" lon="12.172247201529066"><ele>355.6666666666667</ele><time>2026-04-07T11:48:01Z</time></trkpt><trkpt lat="45.99027900167545" lon="12.172297011116259"><ele>351.8333333333333</ele><time>2026-04-07T11:48:02Z</time></trkpt><trkpt lat="45.99028522607103" lon="12.172445733962821"><ele>348.0</ele><time>2026-04-07T11:48:04.001Z</time></trkpt><trkpt lat="45.99023207919857" lon="12.172498239675194"><ele>348.0</ele><time>2026-04-07T11:48:05.001Z</time></trkpt><trkpt lat="45.99015052322293" lon="12.17249140723745"><ele>348.0</ele><time>2026-04-07T11:48:06.001Z</time></trkpt><trkpt lat="45.9900465349394" lon="12.172447956811165"><ele>348.0</ele><time>2026-04-07T11:48:07.001Z</time></trkpt><trkpt lat="45.98993606503167" lon="12.172433857030963"><ele>348.0</ele><time>2026-04-07T11:48:08.001Z</time></trkpt><trkpt lat="45.9898047755603" lon="12.172417063033475"><ele>348.0</ele><time>2026-04-07T11:48:09.001Z</time></trkpt><trkpt lat="45.98965203622283" lon="12.172387118106403"><ele>345.6666666666667</ele><time>2026-04-07T11:48:10.001Z</time></trkpt><trkpt lat="45.98950620288492" lon="12.172360710349572"><ele>343.33333333333337</ele><time>2026-04-07T11:48:11.001Z</time></trkpt><trkpt lat="45.98935380556818" lon="12.172345606659386"><ele>341.0</ele><time>2026-04-07T11:48:12.001Z</time></trkpt><trkpt lat="45.98919032761787" lon="12.172360972400972"><ele>336.6666666666667</ele><time>2026-04-07T11:48:13.001Z</time></trkpt><trkpt lat="45.98901662765086" lon="12.172410376403043"><ele>332.3333333333333</ele><time>2026-04-07T11:48:14.001Z</time></trkpt><trkpt lat="45.988849043013126" lon="12.172450791536056"><ele>328.0</ele><time>2026-04-07T11:48:15.001Z</time></trkpt><trkpt lat="45.98869091001844" lon="12.172470380635918"><ele>328.0</ele><time>2026-04-07T11:48:16.001Z</time></trkpt><trkpt lat="45.988529173478554" lon="12.17247379306384"><ele>328.0</ele><time>2026-04-07T11:48:17.001Z</time></trkpt><trkpt lat="45.988357957999376" lon="12.172475636312436"><ele>328.0</ele><time>2026-04-07T11:48:18.001Z</time></trkpt><trkpt lat="45.98819423516775" lon="12.172471788076125"><ele>330.3333333333333</ele><time>2026-04-07T11:48:19.001Z</time></trkpt><trkpt lat="45.98803422362094" lon="12.172430108151564"><ele>332.6666666666667</ele><time>2026-04-07T11:48:20.001Z</time></trkpt><trkpt lat="45.98786514979572" lon="12.172356681195705"><ele>335.0</ele><time>2026-04-07T11:48:21.001Z</time></trkpt><trkpt lat="45.98769498519318" lon="12.172292293494662"><ele>335.0</ele><time>2026-04-07T11:48:22.001Z</time></trkpt><trkpt lat="45.98751375868141" lon="12.172249385864278"><ele>335.0</ele><time>2026-04-07T11:48:23.001Z</time></trkpt><trkpt lat="45.98732428762414" lon="12.172224495686203"><ele>335.0</ele><time>2026-04-07T11:48:24.001Z</time></trkpt><trkpt lat="45.98712223755881" lon="12.172223519896708"><ele>328.6666666666667</ele><time>2026-04-07T11:48:25.001Z</time></trkpt><trkpt lat="45.98691368454623" lon="12.172238289941772"><ele>322.3333333333333</ele><time>2026-04-07T11:48:26.001Z</time></trkpt><trkpt lat="45.98671356386676" lon="12.172250675585245"><ele>316.0</ele><time>2026-04-07T11:48:27.001Z</time></trkpt><trkpt lat="45.98652917001317" lon="12.172266408310955"><ele>313.0</ele><time>2026-04-07T11:48:28.001Z</time></trkpt><trkpt lat="45.98635272287447" lon="12.172287356823057"><ele>310.0</ele><time>2026-04-07T11:48:29.001Z</time></trkpt><trkpt lat="45.98618202335276" lon="12.172317934528712"><ele>307.0</ele><time>2026-04-07T11:48:30.001Z</time></trkpt><trkpt lat="45.98601996322518" lon="12.17236951180437"><ele>307.0</ele><time>2026-04-07T11:48:31.001Z</time></trkpt><trkpt lat="45.985858214950945" lon="12.172447835499282"><ele>307.0</ele><time>2026-04-07T11:48:32.001Z</time></trkpt><trkpt lat="45.985686196345476" lon="12.172542688700903"><ele>307.0</ele><time>2026-04-07T11:48:33.001Z</time></trkpt><trkpt lat="45.98552384015409" lon="12.172624235939152"><ele>304.66666666666663</ele><time>2026-04-07T11:48:34.001Z</time></trkpt><trkpt lat="45.98534920680618" lon="12.1726861993124"><ele>302.3333333333333</ele><time>2026-04-07T11:48:35.001Z</time></trkpt><trkpt lat="45.98515655424252" lon="12.172737183804431"><ele>300.0</ele><time>2026-04-07T11:48:36.001Z</time></trkpt><trkpt lat="45.98495355246727" lon="12.172792646438909"><ele>297.6666666666667</ele><time>2026-04-07T11:48:37.001Z</time></trkpt><trkpt lat="45.98475162792197" lon="12.172848887721313"><ele>295.33333333333337</ele><time>2026-04-07T11:48:38.001Z</time></trkpt><trkpt lat="45.984553526347256" lon="12.172904378188598"><ele>293.0</ele><time>2026-04-07T11:48:39.001Z</time></trkpt><trkpt lat="45.98436525437034" lon="12.17295881186627"><ele>293.0</ele><time>2026-04-07T11:48:40.001Z</time></trkpt><trkpt lat="45.98418455482023" lon="12.173010740252028"><ele>293.0</ele><time>2026-04-07T11:48:41.001Z</time></trkpt><trkpt lat="45.9840041935591" lon="12.17306286905244"><ele>293.0</ele><time>2026-04-07T11:48:42.001Z</time></trkpt><trkpt lat="45.98383536166511" lon="12.173116981239112"><ele>291.33333333333337</ele><time>2026-04-07T11:48:43.001Z</time></trkpt><trkpt lat="45.98367270969979" lon="12.173177348484893"><ele>289.6666666666667</ele><time>2026-04-07T11:48:44.001Z</time></trkpt><trkpt lat="45.98351628660375" lon="12.173242078992322"><ele>288.0</ele><time>2026-04-07T11:48:45.001Z</time></trkpt><trkpt lat="45.983364765058376" lon="12.173302967103938"><ele>286.0</ele><time>2026-04-07T11:48:46.001Z</time></trkpt><trkpt lat="45.98321328667739" lon="12.173366263563894"><ele>284.0</ele><time>2026-04-07T11:48:47.001Z</time></trkpt><trkpt lat="45.98305928876846" lon="12.173422371652832"><ele>282.0</ele><time>2026-04-07T11:48:48.001Z</time></trkpt><trkpt lat="45.98290496539991" lon="12.17348501866668"><ele>282.0</ele><time>2026-04-07T11:48:49.001Z</time></trkpt><trkpt lat="45.982752816583904" lon="12.173551792511114"><ele>282.0</ele><time>2026-04-07T11:48:50.001Z</time></trkpt><trkpt lat="45.98260662065838" lon="12.173614869607812"><ele>282.0</ele><time>2026-04-07T11:48:51.001Z</time></trkpt><trkpt lat="45.98246755764576" lon="12.173671840570655"><ele>279.75</ele><time>2026-04-07T11:48:52.001Z</time></trkpt><trkpt lat="45.982330755142655" lon="12.17372730090843"><ele>277.5</ele><time>2026-04-07T11:48:53.001Z</time></trkpt><trkpt lat="45.98219851098645" lon="12.173784746218423"><ele>275.25</ele><time>2026-04-07T11:48:54.001Z</time></trkpt><trkpt lat="45.98206912509593" lon="12.173837217553894"><ele>273.0</ele><time>2026-04-07T11:48:55.001Z</time></trkpt><trkpt lat="45.98194285319352" lon="12.17388690691273"><ele>273.0</ele><time>2026-04-07T11:48:56.001Z</time></trkpt><trkpt lat="45.98181873336409" lon="12.173934861475315"><ele>273.0</ele><time>2026-04-07T11:48:57.001Z</time></trkpt><trkpt lat="45.98169737038675" lon="12.173983697792913"><ele>273.0</ele><time>2026-04-07T11:48:58.001Z</time></trkpt><trkpt lat="45.98157686032942" lon="12.174034944886602"><ele>273.0</ele><time>2026-04-07T11:48:59.001Z</time></trkpt><trkpt lat="45.98144669880173" lon="12.174087222510929"><ele>273.25</ele><time>2026-04-07T11:49:00.001Z</time></trkpt><trkpt lat="45.981318292523234" lon="12.174135214139818"><ele>273.5</ele><time>2026-04-07T11:49:01.001Z</time></trkpt><trkpt lat="45.98120161483241" lon="12.17418188167984"><ele>273.75</ele><time>2026-04-07T11:49:02.001Z</time></trkpt><trkpt lat="45.98108711648222" lon="12.17422422824961"><ele>274.0</ele><time>2026-04-07T11:49:03.001Z</time></trkpt><trkpt lat="45.98097399597828" lon="12.174269226136502"><ele>274.0</ele><time>2026-04-07T11:49:04.001Z</time></trkpt><trkpt lat="45.980852888061186" lon="12.174320426835754"><ele>274.0</ele><time>2026-04-07T11:49:05.001Z</time></trkpt><trkpt lat="45.98072208353931" lon="12.17437442497099"><ele>274.0</ele><time>2026-04-07T11:49:06.001Z</time></trkpt><trkpt lat="45.98058723640061" lon="12.174429571904112"><ele>274.0</ele><time>2026-04-07T11:49:07.001Z</time></trkpt><trkpt lat="45.98046213335482" lon="12.17447752216241"><ele>273.2</ele><time>2026-04-07T11:49:08.001Z</time></trkpt><trkpt lat="45.98034995317376" lon="12.174523330033601"><ele>272.4</ele><time>2026-04-07T11:49:09.001Z</time></trkpt><trkpt lat="45.980244375450816" lon="12.174566825225332"><ele>271.6</ele><time>2026-04-07T11:49:10.001Z</time></trkpt><trkpt lat="45.98014822246621" lon="12.174605716888282"><ele>270.8</ele><time>2026-04-07T11:49:11.001Z</time></trkpt><trkpt lat="45.98005750672148" lon="12.174644259319566"><ele>270.0</ele><time>2026-04-07T11:49:12.001Z</time></trkpt><trkpt lat="45.97997090519222" lon="12.174684143750667"><ele>269.2</ele><time>2026-04-07T11:49:13.001Z</time></trkpt><trkpt lat="45.9798847251585" lon="12.174716734404493"><ele>268.4</ele><time>2026-04-07T11:49:14.001Z</time></trkpt><trkpt lat="45.97980247503866" lon="12.174744872882897"><ele>267.6</ele><time>2026-04-07T11:49:15.001Z</time></trkpt><trkpt lat="45.97972216963485" lon="12.174773324900212"><ele>266.8</ele><time>2026-04-07T11:49:16.001Z</time></trkpt><trkpt lat="45.979637905428106" lon="12.174814661110391"><ele>266.0</ele><time>2026-04-07T11:49:17.001Z</time></trkpt><trkpt lat="45.97953136751561" lon="12.17483809012805"><ele>265.8</ele><time>2026-04-07T11:49:18Z</time></trkpt><trkpt lat="45.979424444721325" lon="12.17487449808431"><ele>265.6</ele><time>2026-04-07T11:49:19Z</time></trkpt><trkpt lat="45.979319062493026" lon="12.17490696307131"><ele>265.4</ele><time>2026-04-07T11:49:20Z</time></trkpt><trkpt lat="45.97921376461591" lon="12.174908203960127"><ele>265.2</ele><time>2026-04-07T11:49:21Z</time></trkpt><trkpt lat="45.97910205147839" lon="12.174903111504033"><ele>265.0</ele><time>2026-04-07T11:49:22Z</time></trkpt><trkpt lat="45.97898869010864" lon="12.174896107114767"><ele>264.0</ele><time>2026-04-07T11:49:23Z</time></trkpt><trkpt lat="45.97887728602212" lon="12.174884320062604"><ele>263.0</ele><time>2026-04-07T11:49:24Z</time></trkpt><trkpt lat="45.97876677593955" lon="12.174861960700042"><ele>262.0</ele><time>2026-04-07T11:49:25Z</time></trkpt><trkpt lat="45.978659962371786" lon="12.174834587855921"><ele>261.0</ele><time>2026-04-07T11:49:26Z</time></trkpt><trkpt lat="45.97855754049322" lon="12.174803064715967"><ele>260.0</ele><time>2026-04-07T11:49:27Z</time></trkpt><trkpt lat="45.97845787612107" lon="12.174768326814648"><ele>259.4</ele><time>2026-04-07T11:49:28Z</time></trkpt><trkpt lat="45.978350509432474" lon="12.174735301140553"><ele>258.8</ele><time>2026-04-07T11:49:29Z</time></trkpt><trkpt lat="45.97824300636041" lon="12.174719064686117"><ele>258.2</ele><time>2026-04-07T11:49:30Z</time></trkpt><trkpt lat="45.97813857279194" lon="12.174705201028742"><ele>257.6</ele><time>2026-04-07T11:49:31Z</time></trkpt><trkpt lat="45.97803064532435" lon="12.174691081918066"><ele>257.0</ele><time>2026-04-07T11:49:32Z</time></trkpt><trkpt lat="45.97792247744123" lon="12.17467651234532"><ele>257.0</ele><time>2026-04-07T11:49:33Z</time></trkpt><trkpt lat="45.97781768033111" lon="12.17468190248877"><ele>257.0</ele><time>2026-04-07T11:49:34Z</time></trkpt><trkpt lat="45.977712941341814" lon="12.174696055369342"><ele>257.0</ele><time>2026-04-07T11:49:35Z</time></trkpt><trkpt lat="45.977610284611565" lon="12.174720606311299"><ele>257.0</ele><time>2026-04-07T11:49:36Z</time></trkpt><trkpt lat="45.97751066787442" lon="12.174742414414654"><ele>257.0</ele><time>2026-04-07T11:49:37Z</time></trkpt><trkpt lat="45.977408766218076" lon="12.174760331589235"><ele>256.8</ele><time>2026-04-07T11:49:38Z</time></trkpt><trkpt lat="45.977305985051075" lon="12.174777883098685"><ele>256.6</ele><time>2026-04-07T11:49:39Z</time></trkpt><trkpt lat="45.97720664930383" lon="12.17478762910353"><ele>256.40000000000003</ele><time>2026-04-07T11:49:40Z</time></trkpt><trkpt lat="45.97710480824538" lon="12.174792336022458"><ele>256.2</ele><time>2026-04-07T11:49:41Z</time></trkpt><trkpt lat="45.97699585395369" lon="12.17479940352844"><ele>256.0</ele><time>2026-04-07T11:49:42Z</time></trkpt><trkpt lat="45.97688674593884" lon="12.174812975963142"><ele>256.0</ele><time>2026-04-07T11:49:43Z</time></trkpt><trkpt lat="45.97677854128889" lon="12.174840410604538"><ele>256.0</ele><time>2026-04-07T11:49:44Z</time></trkpt><trkpt lat="45.97667287365334" lon="12.174874820801545"><ele>256.0</ele><time>2026-04-07T11:49:45Z</time></trkpt><trkpt lat="45.97657290518157" lon="12.17492163783485"><ele>256.0</ele><time>2026-04-07T11:49:46Z</time></trkpt><trkpt lat="45.97647265318847" lon="12.174967128431259"><ele>256.0</ele><time>2026-04-07T11:49:47Z</time></trkpt><trkpt lat="45.976370651145714" lon="12.175011567689387"><ele>254.8</ele><time>2026-04-07T11:49:48Z</time></trkpt><trkpt lat="45.976268545428916" lon="12.175064102516352"><ele>253.60000000000002</ele><time>2026-04-07T11:49:49Z</time></trkpt><trkpt lat="45.97617161745059" lon="12.175114425755936"><ele>252.4</ele><time>2026-04-07T11:49:50Z</time></trkpt><trkpt lat="45.97607303770322" lon="12.175159012667796"><ele>251.2</ele><time>2026-04-07T11:49:51Z</time></trkpt><trkpt lat="45.975967508609344" lon="12.175203437877066"><ele>250.0</ele><time>2026-04-07T11:49:52Z</time></trkpt><trkpt lat="45.97585546026781" lon="12.17523489780604"><ele>248.5</ele><time>2026-04-07T11:49:53Z</time></trkpt><trkpt lat="45.975738475877776" lon="12.175261809181492"><ele>247.0</ele><time>2026-04-07T11:49:54Z</time></trkpt><trkpt lat="45.97561802717998" lon="12.17529019885378"><ele>245.5</ele><time>2026-04-07T11:49:55Z</time></trkpt><trkpt lat="45.97549948678048" lon="12.175316039275051"><ele>244.0</ele><time>2026-04-07T11:49:56Z</time></trkpt><trkpt lat="45.9753888415456" lon="12.175338124603334"><ele>244.0</ele><time>2026-04-07T11:49:57Z</time></trkpt><trkpt lat="45.97528219472579" lon="12.175349515721498"><ele>243.99999999999997</ele><time>2026-04-07T11:49:58Z</time></trkpt><trkpt lat="45.975179499260605" lon="12.17536086419128"><ele>243.99999999999997</ele><time>2026-04-07T11:49:59Z</time></trkpt><trkpt lat="45.975080082500845" lon="12.175375822784337"><ele>244.0</ele><time>2026-04-07T11:50:00Z</time></trkpt><trkpt lat="45.974975375244" lon="12.175391228556267"><ele>244.0</ele><time>2026-04-07T11:50:01Z</time></trkpt><trkpt lat="45.974864576470885" lon="12.175408599166667"><ele>243.6</ele><time>2026-04-07T11:50:02Z</time></trkpt><trkpt lat="45.97476904009102" lon="12.175424130376902"><ele>243.2</ele><time>2026-04-07T11:50:03Z</time></trkpt><trkpt lat="45.97467221947429" lon="12.175442951087454"><ele>242.79999999999998</ele><time>2026-04-07T11:50:04Z</time></trkpt><trkpt lat="45.974566990266275" lon="12.17545952461007"><ele>242.39999999999998</ele><time>2026-04-07T11:50:05Z</time></trkpt><trkpt lat="45.97445438544206" lon="12.175475823421191"><ele>242.0</ele><time>2026-04-07T11:50:06Z</time></trkpt><trkpt lat="45.97433614470201" lon="12.175491453261131"><ele>242.00000000000003</ele><time>2026-04-07T11:50:07Z</time></trkpt><trkpt lat="45.9742243398123" lon="12.175506797606825"><ele>242.0</ele><time>2026-04-07T11:50:08Z</time></trkpt><trkpt lat="45.974121439421076" lon="12.175523805763998"><ele>242.0</ele><time>2026-04-07T11:50:09Z</time></trkpt><trkpt lat="45.97402667057207" lon="12.175538046871797"><ele>242.0</ele><time>2026-04-07T11:50:10Z</time></trkpt><trkpt lat="45.97395355495863" lon="12.175545258172178"><ele>242.00000000000003</ele><time>2026-04-07T11:50:11Z</time></trkpt><trkpt lat="45.97388977167048" lon="12.175534315125596"><ele>242.0</ele><time>2026-04-07T11:50:12.001Z</time></trkpt><trkpt lat="45.973789173218506" lon="12.175467396335725"><ele>241.6</ele><time>2026-04-07T11:50:14.001Z</time></trkpt><trkpt lat="45.97373642657447" lon="12.175404375485723"><ele>241.2</ele><time>2026-04-07T11:50:16.001Z</time></trkpt><trkpt lat="45.97369669514785" lon="12.175328042676513"><ele>240.8</ele><time>2026-04-07T11:50:21.001Z</time></trkpt><trkpt lat="45.973652282176175" lon="12.17513712690489"><ele>240.4</ele><time>2026-04-07T11:50:23.001Z</time></trkpt><trkpt lat="45.97363808885266" lon="12.174990133837916"><ele>240.0</ele><time>2026-04-07T11:50:24.001Z</time></trkpt><trkpt lat="45.97361977398787" lon="12.174854902251822"><ele>239.5</ele><time>2026-04-07T11:50:25.001Z</time></trkpt><trkpt lat="45.97360272197226" lon="12.174675160658545"><ele>239.0</ele><time>2026-04-07T11:50:26.001Z</time></trkpt><trkpt lat="45.97356194263875" lon="12.17446330673214"><ele>238.5</ele><time>2026-04-07T11:50:27.001Z</time></trkpt><trkpt lat="45.97352671804016" lon="12.174264706543543"><ele>238.0</ele><time>2026-04-07T11:50:28.001Z</time></trkpt><trkpt lat="45.973484506314946" lon="12.174048536517612"><ele>238.66666666666666</ele><time>2026-04-07T11:50:29.001Z</time></trkpt><trkpt lat="45.97343136129804" lon="12.173820747792256"><ele>239.33333333333331</ele><time>2026-04-07T11:50:30.001Z</time></trkpt><trkpt lat="45.973375446806635" lon="12.173612475028747"><ele>240.0</ele><time>2026-04-07T11:50:31.001Z</time></trkpt><trkpt lat="45.97331599948205" lon="12.173396180831174"><ele>244.0</ele><time>2026-04-07T11:50:32.001Z</time></trkpt><trkpt lat="45.973251413467366" lon="12.173169453183275"><ele>248.0</ele><time>2026-04-07T11:50:33.001Z</time></trkpt><trkpt lat="45.973174537698085" lon="12.172919410408255"><ele>252.0</ele><time>2026-04-07T11:50:34.001Z</time></trkpt><trkpt lat="45.973099722889074" lon="12.172637756869857"><ele>252.0</ele><time>2026-04-07T11:50:35.001Z</time></trkpt><trkpt lat="45.972998254395755" lon="12.172359000248669"><ele>252.0</ele><time>2026-04-07T11:50:36.001Z</time></trkpt><trkpt lat="45.97292173640551" lon="12.172094766351892"><ele>252.0</ele><time>2026-04-07T11:50:37.001Z</time></trkpt><trkpt lat="45.97284822313545" lon="12.171823780290003"><ele>259.6666666666667</ele><time>2026-04-07T11:50:38.001Z</time></trkpt><trkpt lat="45.97276984964773" lon="12.171549491765775"><ele>267.33333333333337</ele><time>2026-04-07T11:50:39.001Z</time></trkpt><trkpt lat="45.97269079158983" lon="12.171263293726428"><ele>275.0</ele><time>2026-04-07T11:50:40.001Z</time></trkpt><trkpt lat="45.97261448443089" lon="12.170970768777147"><ele>261.0</ele><time>2026-04-07T11:50:41.001Z</time></trkpt><trkpt lat="45.972543544220834" lon="12.17067117462732"><ele>247.0</ele><time>2026-04-07T11:50:42.001Z</time></trkpt><trkpt lat="45.972482976072925" lon="12.170349614192695"><ele>247.0</ele><time>2026-04-07T11:50:43.001Z</time></trkpt><trkpt lat="45.97241867619761" lon="12.169983379108656"><ele>247.0</ele><time>2026-04-07T11:50:44.001Z</time></trkpt><trkpt lat="45.97235834011045" lon="12.169641773170707"><ele>250.0</ele><time>2026-04-07T11:50:45.001Z</time></trkpt><trkpt lat="45.972298390822516" lon="12.169328465369103"><ele>253.0</ele><time>2026-04-07T11:50:46.001Z</time></trkpt><trkpt lat="45.97224141602502" lon="12.169031135341982"><ele>256.0</ele><time>2026-04-07T11:50:47.001Z</time></trkpt><trkpt lat="45.97219063175703" lon="12.168749539206708"><ele>258.66666666666663</ele><time>2026-04-07T11:50:48.001Z</time></trkpt><trkpt lat="45.97214228275547" lon="12.168473387339551"><ele>261.3333333333333</ele><time>2026-04-07T11:50:49.001Z</time></trkpt><trkpt lat="45.972094355084764" lon="12.16819531882278"><ele>264.0</ele><time>2026-04-07T11:50:50.001Z</time></trkpt><trkpt lat="45.972048231899464" lon="12.16791972634047"><ele>265.3333333333333</ele><time>2026-04-07T11:50:51.001Z</time></trkpt><trkpt lat="45.97200187607958" lon="12.167636306876393"><ele>266.66666666666663</ele><time>2026-04-07T11:50:52.001Z</time></trkpt><trkpt lat="45.97194928828101" lon="12.167340335891803"><ele>268.0</ele><time>2026-04-07T11:50:53.001Z</time></trkpt><trkpt lat="45.971894428527726" lon="12.167047798850591"><ele>268.66666666666663</ele><time>2026-04-07T11:50:54.001Z</time></trkpt><trkpt lat="45.97185184410793" lon="12.166761700830167"><ele>269.3333333333333</ele><time>2026-04-07T11:50:55.001Z</time></trkpt><trkpt lat="45.97181746971641" lon="12.166464701994396"><ele>270.0</ele><time>2026-04-07T11:50:56.001Z</time></trkpt><trkpt lat="45.971794193296276" lon="12.16616476898632"><ele>268.3333333333333</ele><time>2026-04-07T11:50:57.001Z</time></trkpt><trkpt lat="45.971778937488466" lon="12.16587117709033"><ele>266.66666666666663</ele><time>2026-04-07T11:50:58.001Z</time></trkpt><trkpt lat="45.97176895381865" lon="12.165588975643773"><ele>265.0</ele><time>2026-04-07T11:50:59.001Z</time></trkpt><trkpt lat="45.971762243059935" lon="12.16531244718421"><ele>263.66666666666663</ele><time>2026-04-07T11:51:00.001Z</time></trkpt><trkpt lat="45.97175716071039" lon="12.16503563707337"><ele>262.3333333333333</ele><time>2026-04-07T11:51:01.001Z</time></trkpt><trkpt lat="45.97175167020536" lon="12.164753311131697"><ele>261.0</ele><time>2026-04-07T11:51:02.001Z</time></trkpt><trkpt lat="45.97174304454972" lon="12.164444926053859"><ele>261.0</ele><time>2026-04-07T11:51:03.001Z</time></trkpt><trkpt lat="45.97173702316688" lon="12.164122823919568"><ele>261.0</ele><time>2026-04-07T11:51:04.001Z</time></trkpt><trkpt lat="45.971734023654676" lon="12.163826933863223"><ele>261.0</ele><time>2026-04-07T11:51:05.001Z</time></trkpt><trkpt lat="45.97173005021385" lon="12.163550507398098"><ele>261.0</ele><time>2026-04-07T11:51:06.001Z</time></trkpt><trkpt lat="45.971726458936054" lon="12.163289598333249"><ele>261.0</ele><time>2026-04-07T11:51:07.001Z</time></trkpt><trkpt lat="45.97172324326101" lon="12.163052605702612"><ele>261.0</ele><time>2026-04-07T11:51:08.001Z</time></trkpt><trkpt lat="45.97172549040203" lon="12.162819424177522"><ele>261.0</ele><time>2026-04-07T11:51:09.001Z</time></trkpt><trkpt lat="45.97173584469743" lon="12.162569610343605"><ele>261.0</ele><time>2026-04-07T11:51:10.001Z</time></trkpt><trkpt lat="45.971736228291164" lon="12.162294267212303"><ele>261.0</ele><time>2026-04-07T11:51:11.001Z</time></trkpt><trkpt lat="45.97172489536226" lon="12.162030175197527"><ele>261.0</ele><time>2026-04-07T11:51:12.001Z</time></trkpt><trkpt lat="45.97171260817444" lon="12.161787436647344"><ele>261.0</ele><time>2026-04-07T11:51:13.001Z</time></trkpt><trkpt lat="45.971684513047066" lon="12.161522327492026"><ele>261.0</ele><time>2026-04-07T11:51:14.001Z</time></trkpt><trkpt lat="45.97163398141864" lon="12.161233667691118"><ele>257.0</ele><time>2026-04-07T11:51:15.001Z</time></trkpt><trkpt lat="45.97156974244373" lon="12.160930386250964"><ele>253.0</ele><time>2026-04-07T11:51:16.001Z</time></trkpt><trkpt lat="45.97149141313775" lon="12.16060849582257"><ele>253.0</ele><time>2026-04-07T11:51:17.001Z</time></trkpt><trkpt lat="45.97140048687539" lon="12.160257096846617"><ele>253.0</ele><time>2026-04-07T11:51:18.001Z</time></trkpt><trkpt lat="45.971304411701155" lon="12.159885122984829"><ele>261.0</ele><time>2026-04-07T11:51:19.001Z</time></trkpt><trkpt lat="45.971205424845415" lon="12.159496535957718"><ele>269.0</ele><time>2026-04-07T11:51:20.001Z</time></trkpt><trkpt lat="45.971110321799884" lon="12.159139635838164"><ele>273.5</ele><time>2026-04-07T11:51:21.001Z</time></trkpt><trkpt lat="45.97102153555935" lon="12.158819809633597"><ele>278.0</ele><time>2026-04-07T11:51:22.001Z</time></trkpt><trkpt lat="45.970933875597225" lon="12.15852155676144"><ele>271.0</ele><time>2026-04-07T11:51:23.001Z</time></trkpt><trkpt lat="45.97084658539483" lon="12.158245797975864"><ele>264.0</ele><time>2026-04-07T11:51:24Z</time></trkpt><trkpt lat="45.97075087202707" lon="12.157993695342025"><ele>257.0</ele><time>2026-04-07T11:51:25Z</time></trkpt><trkpt lat="45.97063816739348" lon="12.157750143836504"><ele>257.0</ele><time>2026-04-07T11:51:26Z</time></trkpt><trkpt lat="45.970499213436554" lon="12.157493765902728"><ele>257.0</ele><time>2026-04-07T11:51:27Z</time></trkpt><trkpt lat="45.970350607253245" lon="12.157225038896085"><ele>263.5</ele><time>2026-04-07T11:51:28Z</time></trkpt><trkpt lat="45.97020247225937" lon="12.156947919128308"><ele>270.0</ele><time>2026-04-07T11:51:29Z</time></trkpt><trkpt lat="45.970069605260605" lon="12.156704148541555"><ele>260.5</ele><time>2026-04-07T11:51:30Z</time></trkpt><trkpt lat="45.96993571012917" lon="12.15645763600011"><ele>251.0</ele><time>2026-04-07T11:51:31Z</time></trkpt><trkpt lat="45.969791377310905" lon="12.156189402207634"><ele>251.0</ele><time>2026-04-07T11:51:32Z</time></trkpt><trkpt lat="45.96964032543869" lon="12.155913871114914"><ele>251.0</ele><time>2026-04-07T11:51:33Z</time></trkpt><trkpt lat="45.969487410569855" lon="12.155634291090154"><ele>256.5</ele><time>2026-04-07T11:51:34Z</time></trkpt><trkpt lat="45.96934762480007" lon="12.155373899803752"><ele>262.0</ele><time>2026-04-07T11:51:35Z</time></trkpt><trkpt lat="45.96921074302822" lon="12.15512296531307"><ele>259.66666666666663</ele><time>2026-04-07T11:51:36Z</time></trkpt><trkpt lat="45.96907288484004" lon="12.15487325233686"><ele>257.3333333333333</ele><time>2026-04-07T11:51:37Z</time></trkpt><trkpt lat="45.96894075671795" lon="12.154630909752072"><ele>255.0</ele><time>2026-04-07T11:51:38Z</time></trkpt><trkpt lat="45.96881410638116" lon="12.15439315500188"><ele>255.0</ele><time>2026-04-07T11:51:39Z</time></trkpt><trkpt lat="45.96868975362732" lon="12.154162125372403"><ele>255.0</ele><time>2026-04-07T11:51:40Z</time></trkpt><trkpt lat="45.968573140546525" lon="12.153948232491866"><ele>255.0</ele><time>2026-04-07T11:51:41Z</time></trkpt><trkpt lat="45.968472180644525" lon="12.153756190277143"><ele>254.33333333333331</ele><time>2026-04-07T11:51:42Z</time></trkpt><trkpt lat="45.968382981080914" lon="12.153566982848938"><ele>253.66666666666666</ele><time>2026-04-07T11:51:43Z</time></trkpt><trkpt lat="45.968297656299455" lon="12.153369228533537"><ele>253.0</ele><time>2026-04-07T11:51:44Z</time></trkpt><trkpt lat="45.968215795191" lon="12.153143502890757"><ele>253.0</ele><time>2026-04-07T11:51:45Z</time></trkpt><trkpt lat="45.9681406155574" lon="12.15290319977298"><ele>253.0</ele><time>2026-04-07T11:51:46Z</time></trkpt><trkpt lat="45.96806152410575" lon="12.152649607506785"><ele>253.0</ele><time>2026-04-07T11:51:47Z</time></trkpt><trkpt lat="45.96798406072231" lon="12.152379847921141"><ele>255.66666666666666</ele><time>2026-04-07T11:51:48Z</time></trkpt><trkpt lat="45.967901793556216" lon="12.152097323532345"><ele>258.3333333333333</ele><time>2026-04-07T11:51:49Z</time></trkpt><trkpt lat="45.96781206545955" lon="12.151807083622968"><ele>261.0</ele><time>2026-04-07T11:51:50Z</time></trkpt><trkpt lat="45.96772229407793" lon="12.151517336255951"><ele>261.0</ele><time>2026-04-07T11:51:51Z</time></trkpt><trkpt lat="45.96763028135437" lon="12.151218459819416"><ele>261.0</ele><time>2026-04-07T11:51:52Z</time></trkpt><trkpt lat="45.96753439145787" lon="12.150901090729455"><ele>256.0</ele><time>2026-04-07T11:51:53Z</time></trkpt><trkpt lat="45.96743461499103" lon="12.150569703273904"><ele>251.0</ele><time>2026-04-07T11:51:54Z</time></trkpt><trkpt lat="45.96733092427752" lon="12.150228615453733"><ele>251.0</ele><time>2026-04-07T11:51:55Z</time></trkpt><trkpt lat="45.96722121138334" lon="12.149889097477367"><ele>251.0</ele><time>2026-04-07T11:51:56Z</time></trkpt><trkpt lat="45.967115486668824" lon="12.14957571711142"><ele>251.0</ele><time>2026-04-07T11:51:57Z</time></trkpt><trkpt lat="45.967011438601475" lon="12.149277936501935"><ele>251.0</ele><time>2026-04-07T11:51:58Z</time></trkpt><trkpt lat="45.96691149701103" lon="12.148988840842765"><ele>250.5</ele><time>2026-04-07T11:51:59Z</time></trkpt><trkpt lat="45.96680720888116" lon="12.148694577779361"><ele>250.0</ele><time>2026-04-07T11:52:00Z</time></trkpt><trkpt lat="45.96669249708165" lon="12.148388020887023"><ele>246.5</ele><time>2026-04-07T11:52:01Z</time></trkpt><trkpt lat="45.96656884150293" lon="12.148072579800555"><ele>243.0</ele><time>2026-04-07T11:52:02Z</time></trkpt><trkpt lat="45.966434731496015" lon="12.147750364849077"><ele>243.0</ele><time>2026-04-07T11:52:03Z</time></trkpt><trkpt lat="45.96629737717749" lon="12.147430739957388"><ele>243.0</ele><time>2026-04-07T11:52:04Z</time></trkpt><trkpt lat="45.96617256446461" lon="12.147129390570964"><ele>242.33333333333331</ele><time>2026-04-07T11:52:05Z</time></trkpt><trkpt lat="45.96606091843433" lon="12.146845531999766"><ele>241.66666666666666</ele><time>2026-04-07T11:52:06Z</time></trkpt><trkpt lat="45.965956953054594" lon="12.146562048469063"><ele>241.0</ele><time>2026-04-07T11:52:07Z</time></trkpt><trkpt lat="45.9658578957937" lon="12.146274093361509"><ele>239.66666666666666</ele><time>2026-04-07T11:52:08Z</time></trkpt><trkpt lat="45.96576813897875" lon="12.145977780472352"><ele>238.33333333333331</ele><time>2026-04-07T11:52:09Z</time></trkpt><trkpt lat="45.965691963978706" lon="12.145677801941595"><ele>237.0</ele><time>2026-04-07T11:52:10Z</time></trkpt><trkpt lat="45.96562933804508" lon="12.145369060223306"><ele>237.0</ele><time>2026-04-07T11:52:11Z</time></trkpt><trkpt lat="45.96558061263115" lon="12.145051355335859"><ele>237.0</ele><time>2026-04-07T11:52:12Z</time></trkpt><trkpt lat="45.965546049697664" lon="12.144704326564854"><ele>237.0</ele><time>2026-04-07T11:52:13Z</time></trkpt><trkpt lat="45.96551876528362" lon="12.144369596609163"><ele>237.0</ele><time>2026-04-07T11:52:14Z</time></trkpt><trkpt lat="45.96549621985864" lon="12.144043086942295"><ele>238.0</ele><time>2026-04-07T11:52:15Z</time></trkpt><trkpt lat="45.965478129914025" lon="12.143744142330345"><ele>239.0</ele><time>2026-04-07T11:52:16Z</time></trkpt><trkpt lat="45.96546211727114" lon="12.14348188501481"><ele>240.0</ele><time>2026-04-07T11:52:17Z</time></trkpt><trkpt lat="45.965447353391966" lon="12.143244744070756"><ele>240.25</ele><time>2026-04-07T11:52:18Z</time></trkpt><trkpt lat="45.965435798314935" lon="12.143021739222931"><ele>240.5</ele><time>2026-04-07T11:52:19Z</time></trkpt><trkpt lat="45.96542358302528" lon="12.142809489268977"><ele>240.75</ele><time>2026-04-07T11:52:20Z</time></trkpt><trkpt lat="45.96541460053383" lon="12.14261721596962"><ele>241.0</ele><time>2026-04-07T11:52:21Z</time></trkpt><trkpt lat="45.96541268680003" lon="12.142451663676482"><ele>241.16666666666666</ele><time>2026-04-07T11:52:22Z</time></trkpt><trkpt lat="45.96541784081606" lon="12.142311121553584"><ele>241.33333333333331</ele><time>2026-04-07T11:52:23Z</time></trkpt><trkpt lat="45.96542292485822" lon="12.142186311124533"><ele>241.5</ele><time>2026-04-07T11:52:24Z</time></trkpt><trkpt lat="45.9654346122133" lon="12.142079282928787"><ele>241.66666666666669</ele><time>2026-04-07T11:52:25Z</time></trkpt><trkpt lat="45.965444253855" lon="12.141968237527312"><ele>241.83333333333334</ele><time>2026-04-07T11:52:26Z</time></trkpt><trkpt lat="45.96543984958729" lon="12.141833811669358"><ele>242.0</ele><time>2026-04-07T11:52:27Z</time></trkpt><trkpt lat="45.96541827084904" lon="12.141689218972038"><ele>242.0</ele><time>2026-04-07T11:52:28Z</time></trkpt><trkpt lat="45.96540825305727" lon="12.14150505213156"><ele>242.0</ele><time>2026-04-07T11:52:29Z</time></trkpt><trkpt lat="45.96541197153344" lon="12.141313027451726"><ele>242.0</ele><time>2026-04-07T11:52:30Z</time></trkpt><trkpt lat="45.9654282426527" lon="12.141147158838724"><ele>242.0</ele><time>2026-04-07T11:52:31Z</time></trkpt><trkpt lat="45.96544749571501" lon="12.140936243560512"><ele>241.0</ele><time>2026-04-07T11:52:32Z</time></trkpt><trkpt lat="45.96547518740892" lon="12.140663454213717"><ele>240.0</ele><time>2026-04-07T11:52:33Z</time></trkpt><trkpt lat="45.96550274852243" lon="12.140373181096932"><ele>239.0</ele><time>2026-04-07T11:52:34Z</time></trkpt><trkpt lat="45.96552793560772" lon="12.140112106293495"><ele>239.0</ele><time>2026-04-07T11:52:35Z</time></trkpt><trkpt lat="45.96555788662104" lon="12.139843670926615"><ele>239.0</ele><time>2026-04-07T11:52:36Z</time></trkpt><trkpt lat="45.965597813786765" lon="12.139560611886301"><ele>239.0</ele><time>2026-04-07T11:52:37Z</time></trkpt><trkpt lat="45.96563956208125" lon="12.139295710083575"><ele>239.0</ele><time>2026-04-07T11:52:38Z</time></trkpt><trkpt lat="45.9656706600553" lon="12.139070276848622"><ele>239.0</ele><time>2026-04-07T11:52:39Z</time></trkpt><trkpt lat="45.96569814372311" lon="12.138860879535585"><ele>239.0</ele><time>2026-04-07T11:52:40Z</time></trkpt><trkpt lat="45.96572281593552" lon="12.138652540538002"><ele>239.0</ele><time>2026-04-07T11:52:41Z</time></trkpt><trkpt lat="45.965744682868426" lon="12.138463470106826"><ele>239.0</ele><time>2026-04-07T11:52:42Z</time></trkpt><trkpt lat="45.9657643206307" lon="12.138292638844554"><ele>239.0</ele><time>2026-04-07T11:52:43Z</time></trkpt><trkpt lat="45.96578286189504" lon="12.138148564122163"><ele>239.0</ele><time>2026-04-07T11:52:44Z</time></trkpt><trkpt lat="45.96580548834484" lon="12.138016848591512"><ele>238.66666666666669</ele><time>2026-04-07T11:52:45Z</time></trkpt><trkpt lat="45.965843845308406" lon="12.137887878466438"><ele>238.33333333333334</ele><time>2026-04-07T11:52:46Z</time></trkpt><trkpt lat="45.96588591773086" lon="12.137785783832822"><ele>238.0</ele><time>2026-04-07T11:52:47Z</time></trkpt><trkpt lat="45.965927919175996" lon="12.137676638139675"><ele>237.66666666666669</ele><time>2026-04-07T11:52:48Z</time></trkpt><trkpt lat="45.96593782836431" lon="12.13756590949654"><ele>237.33333333333334</ele><time>2026-04-07T11:52:49Z</time></trkpt><trkpt lat="45.96592397933526" lon="12.137434612273706"><ele>237.0</ele><time>2026-04-07T11:52:50Z</time></trkpt><trkpt lat="45.96589348014339" lon="12.137281853918674"><ele>237.75</ele><time>2026-04-07T11:52:51Z</time></trkpt><trkpt lat="45.965871181564175" lon="12.13714291097024"><ele>238.5</ele><time>2026-04-07T11:52:52Z</time></trkpt><trkpt lat="45.965861290915676" lon="12.137022918015438"><ele>239.25</ele><time>2026-04-07T11:52:53Z</time></trkpt><trkpt lat="45.96587039689992" lon="12.136859723560747"><ele>240.0</ele><time>2026-04-07T11:52:54Z</time></trkpt><trkpt lat="45.96585912248973" lon="12.136621285555433"><ele>240.66666666666669</ele><time>2026-04-07T11:52:55Z</time></trkpt><trkpt lat="45.96584099725373" lon="12.136395217442663"><ele>241.33333333333334</ele><time>2026-04-07T11:52:56Z</time></trkpt><trkpt lat="45.96580241488115" lon="12.136150355006789"><ele>242.0</ele><time>2026-04-07T11:52:57Z</time></trkpt><trkpt lat="45.9657664959788" lon="12.135898900124463"><ele>241.0</ele><time>2026-04-07T11:52:58Z</time></trkpt><trkpt lat="45.965720739694994" lon="12.135675814974265"><ele>240.0</ele><time>2026-04-07T11:52:59.001Z</time></trkpt><trkpt lat="45.96567144618504" lon="12.135469745760508"><ele>239.0</ele><time>2026-04-07T11:53:00.001Z</time></trkpt><trkpt lat="45.96561101611493" lon="12.135271501921915"><ele>239.0</ele><time>2026-04-07T11:53:01.001Z</time></trkpt><trkpt lat="45.965539246564475" lon="12.135075424774593"><ele>239.0</ele><time>2026-04-07T11:53:02.001Z</time></trkpt><trkpt lat="45.9654578468673" lon="12.134885856932645"><ele>239.0</ele><time>2026-04-07T11:53:03.001Z</time></trkpt><trkpt lat="45.96535880907552" lon="12.134696319692345"><ele>237.66666666666669</ele><time>2026-04-07T11:53:04.001Z</time></trkpt><trkpt lat="45.965236215091785" lon="12.134497831026769"><ele>236.33333333333331</ele><time>2026-04-07T11:53:05.001Z</time></trkpt><trkpt lat="45.96511025724309" lon="12.134320453716951"><ele>235.0</ele><time>2026-04-07T11:53:06.001Z</time></trkpt><trkpt lat="45.964956744387365" lon="12.134116448485875"><ele>234.0</ele><time>2026-04-07T11:53:07.001Z</time></trkpt><trkpt lat="45.96480581340963" lon="12.133918431430436"><ele>233.0</ele><time>2026-04-07T11:53:08.001Z</time></trkpt><trkpt lat="45.964659936752504" lon="12.133716906890532"><ele>232.0</ele><time>2026-04-07T11:53:09.001Z</time></trkpt><trkpt lat="45.96450657547064" lon="12.133505604116772"><ele>232.0</ele><time>2026-04-07T11:53:10.001Z</time></trkpt><trkpt lat="45.964349693539035" lon="12.133296360823895"><ele>232.0</ele><time>2026-04-07T11:53:11.001Z</time></trkpt><trkpt lat="45.96418778218579" lon="12.133083368512404"><ele>232.0</ele><time>2026-04-07T11:53:12.001Z</time></trkpt><trkpt lat="45.9640151953432" lon="12.132851296556323"><ele>230.0</ele><time>2026-04-07T11:53:13.001Z</time></trkpt><trkpt lat="45.963851285546234" lon="12.132629802477819"><ele>228.0</ele><time>2026-04-07T11:53:14.001Z</time></trkpt><trkpt lat="45.963686360536975" lon="12.132407086311126"><ele>227.5</ele><time>2026-04-07T11:53:15.001Z</time></trkpt><trkpt lat="45.963508089177395" lon="12.132163254593358"><ele>227.0</ele><time>2026-04-07T11:53:16.001Z</time></trkpt><trkpt lat="45.963338463379934" lon="12.131932482445862"><ele>227.0</ele><time>2026-04-07T11:53:17.001Z</time></trkpt><trkpt lat="45.9631709925857" lon="12.131704840045282"><ele>227.0</ele><time>2026-04-07T11:53:18.001Z</time></trkpt><trkpt lat="45.96300015399813" lon="12.131472141196044"><ele>225.0</ele><time>2026-04-07T11:53:19.001Z</time></trkpt><trkpt lat="45.96282579986754" lon="12.131234199763647"><ele>223.0</ele><time>2026-04-07T11:53:20.001Z</time></trkpt><trkpt lat="45.96264727521827" lon="12.130988296916794"><ele>222.5</ele><time>2026-04-07T11:53:21.001Z</time></trkpt><trkpt lat="45.96246613300676" lon="12.130742684721872"><ele>222.0</ele><time>2026-04-07T11:53:22.001Z</time></trkpt><trkpt lat="45.96229779530813" lon="12.13051492525215"><ele>221.33333333333331</ele><time>2026-04-07T11:53:23.001Z</time></trkpt><trkpt lat="45.96213454993411" lon="12.1302940949476"><ele>220.66666666666666</ele><time>2026-04-07T11:53:24.001Z</time></trkpt><trkpt lat="45.96197331054357" lon="12.130077565618954"><ele>220.0</ele><time>2026-04-07T11:53:25.001Z</time></trkpt><trkpt lat="45.96180619652663" lon="12.129852662776655"><ele>220.33333333333331</ele><time>2026-04-07T11:53:26.001Z</time></trkpt><trkpt lat="45.96163673427458" lon="12.129623454550815"><ele>220.66666666666669</ele><time>2026-04-07T11:53:27.001Z</time></trkpt><trkpt lat="45.96148026291326" lon="12.129411474456662"><ele>221.0</ele><time>2026-04-07T11:53:28.001Z</time></trkpt><trkpt lat="45.961330844397274" lon="12.129208655686254"><ele>219.66666666666669</ele><time>2026-04-07T11:53:29.001Z</time></trkpt><trkpt lat="45.961193167681536" lon="12.12902344035615"><ele>218.33333333333331</ele><time>2026-04-07T11:53:30Z</time></trkpt><trkpt lat="45.96106033254101" lon="12.128846363659703"><ele>217.0</ele><time>2026-04-07T11:53:31Z</time></trkpt><trkpt lat="45.96093500786001" lon="12.128674611959326"><ele>217.33333333333331</ele><time>2026-04-07T11:53:32Z</time></trkpt><trkpt lat="45.96080765908046" lon="12.128500798512354"><ele>217.66666666666669</ele><time>2026-04-07T11:53:33Z</time></trkpt><trkpt lat="45.96066321396056" lon="12.128307148517422"><ele>218.0</ele><time>2026-04-07T11:53:34Z</time></trkpt><trkpt lat="45.96052505131189" lon="12.12810124983432"><ele>218.0</ele><time>2026-04-07T11:53:35Z</time></trkpt><trkpt lat="45.960397823388085" lon="12.127886897589745"><ele>218.0</ele><time>2026-04-07T11:53:36Z</time></trkpt><trkpt lat="45.96027513278098" lon="12.127648813316835"><ele>218.0</ele><time>2026-04-07T11:53:37Z</time></trkpt><trkpt lat="45.96016757849399" lon="12.127410186394583"><ele>217.33333333333334</ele><time>2026-04-07T11:53:38Z</time></trkpt><trkpt lat="45.9600542112734" lon="12.127199706748119"><ele>216.66666666666669</ele><time>2026-04-07T11:53:39Z</time></trkpt><trkpt lat="45.95999109069257" lon="12.126944812357895"><ele>216.0</ele><time>2026-04-07T11:53:40Z</time></trkpt><trkpt lat="45.95991866715148" lon="12.126716599349654"><ele>215.66666666666669</ele><time>2026-04-07T11:53:41Z</time></trkpt><trkpt lat="45.959847497063805" lon="12.126495203357603"><ele>215.33333333333334</ele><time>2026-04-07T11:53:42Z</time></trkpt><trkpt lat="45.95977574983901" lon="12.126284931274924"><ele>215.0</ele><time>2026-04-07T11:53:43Z</time></trkpt><trkpt lat="45.9597076755979" lon="12.126084584290023"><ele>215.0</ele><time>2026-04-07T11:53:44Z</time></trkpt><trkpt lat="45.95963992359474" lon="12.125889006317994"><ele>215.0</ele><time>2026-04-07T11:53:45Z</time></trkpt><trkpt lat="45.959571094654734" lon="12.125697132550796"><ele>215.0</ele><time>2026-04-07T11:53:46Z</time></trkpt><trkpt lat="45.95949487122864" lon="12.125488375098378"><ele>214.66666666666669</ele><time>2026-04-07T11:53:47Z</time></trkpt><trkpt lat="45.95940127956235" lon="12.125270571437373"><ele>214.33333333333331</ele><time>2026-04-07T11:53:48Z</time></trkpt><trkpt lat="45.95930460728084" lon="12.125044549148669"><ele>214.0</ele><time>2026-04-07T11:53:49Z</time></trkpt><trkpt lat="45.95920542010816" lon="12.124828216196677"><ele>213.33333333333331</ele><time>2026-04-07T11:53:50Z</time></trkpt><trkpt lat="45.95910287473156" lon="12.12462949160475"><ele>212.66666666666669</ele><time>2026-04-07T11:53:51Z</time></trkpt><trkpt lat="45.958996226947654" lon="12.124448119202913"><ele>212.0</ele><time>2026-04-07T11:53:52Z</time></trkpt><trkpt lat="45.95888782692692" lon="12.124280991596288"><ele>212.0</ele><time>2026-04-07T11:53:53Z</time></trkpt><trkpt lat="45.95877990441904" lon="12.124126288328233"><ele>212.0</ele><time>2026-04-07T11:53:54Z</time></trkpt><trkpt lat="45.958665614168005" lon="12.123975861092333"><ele>212.0</ele><time>2026-04-07T11:53:55Z</time></trkpt><trkpt lat="45.958544591835164" lon="12.123839106351792"><ele>210.66666666666669</ele><time>2026-04-07T11:53:56Z</time></trkpt><trkpt lat="45.95841635856487" lon="12.123708008763543"><ele>209.33333333333331</ele><time>2026-04-07T11:53:57Z</time></trkpt><trkpt lat="45.958290583906305" lon="12.12358783284591"><ele>208.0</ele><time>2026-04-07T11:53:58Z</time></trkpt><trkpt lat="45.958165234664065" lon="12.123472826812334"><ele>207.66666666666666</ele><time>2026-04-07T11:53:59Z</time></trkpt><trkpt lat="45.95803547433517" lon="12.123353133085033"><ele>207.33333333333331</ele><time>2026-04-07T11:54:00Z</time></trkpt><trkpt lat="45.95790403180812" lon="12.123229493589886"><ele>207.0</ele><time>2026-04-07T11:54:01Z</time></trkpt><trkpt lat="45.95777101636556" lon="12.123099237698915"><ele>206.0</ele><time>2026-04-07T11:54:02Z</time></trkpt><trkpt lat="45.95763538470083" lon="12.122966935264234"><ele>205.0</ele><time>2026-04-07T11:54:03Z</time></trkpt><trkpt lat="45.95749623699789" lon="12.122832384012392"><ele>204.0</ele><time>2026-04-07T11:54:04Z</time></trkpt><trkpt lat="45.95735142340967" lon="12.122699949490347"><ele>203.66666666666669</ele><time>2026-04-07T11:54:05Z</time></trkpt><trkpt lat="45.957208031343384" lon="12.122565500305331"><ele>203.33333333333334</ele><time>2026-04-07T11:54:06Z</time></trkpt><trkpt lat="45.95706717759555" lon="12.122436045904713"><ele>203.0</ele><time>2026-04-07T11:54:07Z</time></trkpt><trkpt lat="45.95692542461452" lon="12.122309821350145"><ele>203.0</ele><time>2026-04-07T11:54:08Z</time></trkpt><trkpt lat="45.956787032623026" lon="12.122182533424029"><ele>203.0</ele><time>2026-04-07T11:54:09Z</time></trkpt><trkpt lat="45.95665137618704" lon="12.122058011121139"><ele>203.0</ele><time>2026-04-07T11:54:10Z</time></trkpt><trkpt lat="45.95652130824925" lon="12.121934129385837"><ele>203.0</ele><time>2026-04-07T11:54:11Z</time></trkpt><trkpt lat="45.95639605371051" lon="12.121816122419661"><ele>203.0</ele><time>2026-04-07T11:54:12Z</time></trkpt><trkpt lat="45.95627124147507" lon="12.121696180193068"><ele>203.0</ele><time>2026-04-07T11:54:13Z</time></trkpt><trkpt lat="45.95615124845435" lon="12.121584197323713"><ele>203.0</ele><time>2026-04-07T11:54:14Z</time></trkpt><trkpt lat="45.95603828932524" lon="12.121478891682806"><ele>203.0</ele><time>2026-04-07T11:54:15Z</time></trkpt><trkpt lat="45.955926957308485" lon="12.121381662391641"><ele>203.0</ele><time>2026-04-07T11:54:16Z</time></trkpt><trkpt lat="45.95582330776681" lon="12.121283698163102"><ele>203.0</ele><time>2026-04-07T11:54:17Z</time></trkpt><trkpt lat="45.955719795349566" lon="12.121185226505686"><ele>203.0</ele><time>2026-04-07T11:54:18Z</time></trkpt><trkpt lat="45.955611340548394" lon="12.121086650955018"><ele>202.25</ele><time>2026-04-07T11:54:19Z</time></trkpt><trkpt lat="45.95550695904255" lon="12.120987263791488"><ele>201.5</ele><time>2026-04-07T11:54:20Z</time></trkpt><trkpt lat="45.95541048597651" lon="12.120892979922562"><ele>200.75</ele><time>2026-04-07T11:54:21Z</time></trkpt><trkpt lat="45.95530727354144" lon="12.120800584181184"><ele>200.0</ele><time>2026-04-07T11:54:22Z</time></trkpt><trkpt lat="45.95518672387762" lon="12.120697750634264"><ele>200.0</ele><time>2026-04-07T11:54:23Z</time></trkpt><trkpt lat="45.955054550863714" lon="12.120566844657025"><ele>200.0</ele><time>2026-04-07T11:54:24Z</time></trkpt><trkpt lat="45.95491245432667" lon="12.120425585406787"><ele>200.0</ele><time>2026-04-07T11:54:25Z</time></trkpt><trkpt lat="45.95478712413212" lon="12.120291731876893"><ele>199.0</ele><time>2026-04-07T11:54:26Z</time></trkpt><trkpt lat="45.95466312248751" lon="12.120152833871217"><ele>198.0</ele><time>2026-04-07T11:54:27Z</time></trkpt><trkpt lat="45.954536549645866" lon="12.120014388343028"><ele>197.0</ele><time>2026-04-07T11:54:28Z</time></trkpt><trkpt lat="45.954403628042016" lon="12.119889042287"><ele>198.0</ele><time>2026-04-07T11:54:29Z</time></trkpt><trkpt lat="45.954273755773926" lon="12.119756307084455"><ele>199.0</ele><time>2026-04-07T11:54:30Z</time></trkpt><trkpt lat="45.954141282185226" lon="12.119621480860566"><ele>200.0</ele><time>2026-04-07T11:54:31Z</time></trkpt><trkpt lat="45.954013996416435" lon="12.119481588055223"><ele>200.0</ele><time>2026-04-07T11:54:32Z</time></trkpt><trkpt lat="45.953893127416954" lon="12.119329095325943"><ele>200.0</ele><time>2026-04-07T11:54:33Z</time></trkpt><trkpt lat="45.953789073900786" lon="12.119170200406073"><ele>200.0</ele><time>2026-04-07T11:54:34Z</time></trkpt><trkpt lat="45.95370036591784" lon="12.119004203971238"><ele>201.25</ele><time>2026-04-07T11:54:35Z</time></trkpt><trkpt lat="45.95361943347351" lon="12.118840823862719"><ele>202.5</ele><time>2026-04-07T11:54:36Z</time></trkpt><trkpt lat="45.95354700493939" lon="12.118682253097887"><ele>203.75</ele><time>2026-04-07T11:54:37Z</time></trkpt><trkpt lat="45.95346698117955" lon="12.118530884490445"><ele>205.0</ele><time>2026-04-07T11:54:38Z</time></trkpt><trkpt lat="45.95337487902654" lon="12.118392421755239"><ele>202.75</ele><time>2026-04-07T11:54:39Z</time></trkpt><trkpt lat="45.95327887572539" lon="12.118265723832671"><ele>200.5</ele><time>2026-04-07T11:54:40Z</time></trkpt><trkpt lat="45.95317260758282" lon="12.118144408311965"><ele>198.25</ele><time>2026-04-07T11:54:41Z</time></trkpt><trkpt lat="45.95307612889368" lon="12.117992424507671"><ele>196.0</ele><time>2026-04-07T11:54:42Z</time></trkpt><trkpt lat="45.952987480773515" lon="12.117795734964266"><ele>195.33333333333331</ele><time>2026-04-07T11:54:43Z</time></trkpt><trkpt lat="45.95286922828467" lon="12.117579415739666"><ele>194.66666666666669</ele><time>2026-04-07T11:54:44Z</time></trkpt><trkpt lat="45.952745216182514" lon="12.117365662169496"><ele>194.0</ele><time>2026-04-07T11:54:45Z</time></trkpt><trkpt lat="45.952642951625755" lon="12.117086144328049"><ele>194.66666666666669</ele><time>2026-04-07T11:54:46Z</time></trkpt><trkpt lat="45.952512162805014" lon="12.116821722016963"><ele>195.33333333333331</ele><time>2026-04-07T11:54:47Z</time></trkpt><trkpt lat="45.95238475574171" lon="12.116601641856297"><ele>196.0</ele><time>2026-04-07T11:54:48Z</time></trkpt><trkpt lat="45.95226888884373" lon="12.11637272629543"><ele>196.0</ele><time>2026-04-07T11:54:49Z</time></trkpt><trkpt lat="45.95216774972142" lon="12.11615135600935"><ele>196.0</ele><time>2026-04-07T11:54:50.001Z</time></trkpt><trkpt lat="45.95208062217093" lon="12.115917964665755"><ele>196.0</ele><time>2026-04-07T11:54:51.001Z</time></trkpt><trkpt lat="45.9520047854841" lon="12.115688788283219"><ele>196.75</ele><time>2026-04-07T11:54:52.001Z</time></trkpt><trkpt lat="45.951942176936775" lon="12.115473027028552"><ele>197.5</ele><time>2026-04-07T11:54:53.001Z</time></trkpt><trkpt lat="45.95189941893419" lon="12.115282676528144"><ele>198.25</ele><time>2026-04-07T11:54:54.001Z</time></trkpt><trkpt lat="45.9518716770144" lon="12.11511659683752"><ele>199.0</ele><time>2026-04-07T11:54:55.001Z</time></trkpt><trkpt lat="45.95185375761133" lon="12.114984925400682"><ele>199.6</ele><time>2026-04-07T11:54:56.001Z</time></trkpt><trkpt lat="45.951840232059375" lon="12.114885410739083"><ele>200.2</ele><time>2026-04-07T11:54:57.001Z</time></trkpt><trkpt lat="45.951830447837914" lon="12.114757671258127"><ele>200.79999999999998</ele><time>2026-04-07T11:54:59.001Z</time></trkpt><trkpt lat="45.951815821282864" lon="12.114593163313305"><ele>201.39999999999998</ele><time>2026-04-07T11:55:02.001Z</time></trkpt><trkpt lat="45.951802622503294" lon="12.114499117930812"><ele>202.0</ele><time>2026-04-07T11:55:03.001Z</time></trkpt><trkpt lat="45.95178269499239" lon="12.114314783351972"><ele>202.0</ele><time>2026-04-07T11:55:05.001Z</time></trkpt><trkpt lat="45.95178358495712" lon="12.11413730432231"><ele>202.0</ele><time>2026-04-07T11:55:06.001Z</time></trkpt><trkpt lat="45.95177367555174" lon="12.113975472165288"><ele>202.0</ele><time>2026-04-07T11:55:07.001Z</time></trkpt><trkpt lat="45.9517591724468" lon="12.113748721445134"><ele>202.0</ele><time>2026-04-07T11:55:08.001Z</time></trkpt><trkpt lat="45.9517334529513" lon="12.113491252520571"><ele>203.33333333333331</ele><time>2026-04-07T11:55:09.001Z</time></trkpt><trkpt lat="45.95172704835294" lon="12.113253012978946"><ele>204.66666666666669</ele><time>2026-04-07T11:55:10.001Z</time></trkpt><trkpt lat="45.95170775303505" lon="12.11296350641806"><ele>206.0</ele><time>2026-04-07T11:55:11.001Z</time></trkpt><trkpt lat="45.95168662094791" lon="12.112701533450569"><ele>206.0</ele><time>2026-04-07T11:55:12.001Z</time></trkpt><trkpt lat="45.951667255919645" lon="12.11242965966111"><ele>206.0</ele><time>2026-04-07T11:55:13.001Z</time></trkpt><trkpt lat="45.95165496371477" lon="12.112164832761659"><ele>206.0</ele><time>2026-04-07T11:55:14.001Z</time></trkpt><trkpt lat="45.95163447354515" lon="12.111924742803126"><ele>207.0</ele><time>2026-04-07T11:55:15.001Z</time></trkpt><trkpt lat="45.951604028198055" lon="12.111704056900146"><ele>208.0</ele><time>2026-04-07T11:55:16.001Z</time></trkpt><trkpt lat="45.95155916733662" lon="12.111488775475008"><ele>209.0</ele><time>2026-04-07T11:55:17.001Z</time></trkpt><trkpt lat="45.951495128858106" lon="12.111265654024951"><ele>210.33333333333334</ele><time>2026-04-07T11:55:18.001Z</time></trkpt><trkpt lat="45.95141122365192" lon="12.111038124709287"><ele>211.66666666666669</ele><time>2026-04-07T11:55:19.001Z</time></trkpt><trkpt lat="45.95130878691141" lon="12.11079448133407"><ele>213.0</ele><time>2026-04-07T11:55:20.001Z</time></trkpt><trkpt lat="45.951193880521686" lon="12.110530821462856"><ele>214.66666666666669</ele><time>2026-04-07T11:55:21.001Z</time></trkpt><trkpt lat="45.95108529757695" lon="12.110285762098153"><ele>216.33333333333334</ele><time>2026-04-07T11:55:22.001Z</time></trkpt><trkpt lat="45.95100077009109" lon="12.110054213650969"><ele>218.0</ele><time>2026-04-07T11:55:23.001Z</time></trkpt><trkpt lat="45.950901164613796" lon="12.109825264754788"><ele>217.0</ele><time>2026-04-07T11:55:24.001Z</time></trkpt><trkpt lat="45.95079417112021" lon="12.109619000569815"><ele>216.0</ele><time>2026-04-07T11:55:25.001Z</time></trkpt><trkpt lat="45.95069758293285" lon="12.109413980184145"><ele>215.0</ele><time>2026-04-07T11:55:26.001Z</time></trkpt><trkpt lat="45.95057605080075" lon="12.109212005732669"><ele>216.0</ele><time>2026-04-07T11:55:27.001Z</time></trkpt><trkpt lat="45.95043315357033" lon="12.10900602140234"><ele>217.0</ele><time>2026-04-07T11:55:28.001Z</time></trkpt><trkpt lat="45.9502715468043" lon="12.108807996929393"><ele>218.0</ele><time>2026-04-07T11:55:29.001Z</time></trkpt><trkpt lat="45.95008897666702" lon="12.108601366898608"><ele>218.0</ele><time>2026-04-07T11:55:30.001Z</time></trkpt><trkpt lat="45.94989252536615" lon="12.108383937815598"><ele>218.0</ele><time>2026-04-07T11:55:31.001Z</time></trkpt><trkpt lat="45.9496862819318" lon="12.10815226115706"><ele>218.0</ele><time>2026-04-07T11:55:32.001Z</time></trkpt><trkpt lat="45.949479345359336" lon="12.10791622220363"><ele>218.0</ele><time>2026-04-07T11:55:33.001Z</time></trkpt><trkpt lat="45.94929385715517" lon="12.10770268106159"><ele>218.0</ele><time>2026-04-07T11:55:34.001Z</time></trkpt><trkpt lat="45.949112466623404" lon="12.107493068294033"><ele>218.0</ele><time>2026-04-07T11:55:35.001Z</time></trkpt><trkpt lat="45.948931399305245" lon="12.107285989638278"><ele>220.33333333333334</ele><time>2026-04-07T11:55:35.999Z</time></trkpt><trkpt lat="45.948755952014764" lon="12.10708569241295"><ele>222.66666666666669</ele><time>2026-04-07T11:55:36.999Z</time></trkpt><trkpt lat="45.94859655205192" lon="12.106900872947019"><ele>225.0</ele><time>2026-04-07T11:55:37.999Z</time></trkpt><trkpt lat="45.94844976658451" lon="12.106715866765295"><ele>226.0</ele><time>2026-04-07T11:55:38.999Z</time></trkpt><trkpt lat="45.94831147592844" lon="12.10651196634624"><ele>227.0</ele><time>2026-04-07T11:55:39.999Z</time></trkpt><trkpt lat="45.94818004346474" lon="12.10629456876514"><ele>228.0</ele><time>2026-04-07T11:55:40.999Z</time></trkpt><trkpt lat="45.94805364673471" lon="12.106057395694458"><ele>228.0</ele><time>2026-04-07T11:55:41.999Z</time></trkpt><trkpt lat="45.94794289124472" lon="12.10583252283863"><ele>228.0</ele><time>2026-04-07T11:55:42.999Z</time></trkpt><trkpt lat="45.94783964588108" lon="12.105630015997782"><ele>228.0</ele><time>2026-04-07T11:55:43.999Z</time></trkpt><trkpt lat="45.94773626243422" lon="12.105429406840694"><ele>229.66666666666669</ele><time>2026-04-07T11:55:44.999Z</time></trkpt><trkpt lat="45.947640134391094" lon="12.105244717710635"><ele>231.33333333333334</ele><time>2026-04-07T11:55:45.999Z</time></trkpt><trkpt lat="45.947554344089795" lon="12.105071784766002"><ele>233.0</ele><time>2026-04-07T11:55:46.999Z</time></trkpt><trkpt lat="45.94747197657834" lon="12.104900293165253"><ele>233.75</ele><time>2026-04-07T11:55:47.999Z</time></trkpt><trkpt lat="45.94738760145059" lon="12.10473011087598"><ele>234.5</ele><time>2026-04-07T11:55:48.999Z</time></trkpt><trkpt lat="45.94730602432875" lon="12.10455853114039"><ele>235.25</ele><time>2026-04-07T11:55:49.999Z</time></trkpt><trkpt lat="45.94723063945074" lon="12.104404311959735"><ele>236.0</ele><time>2026-04-07T11:55:50.999Z</time></trkpt><trkpt lat="45.947159545169775" lon="12.104253018293855"><ele>236.0</ele><time>2026-04-07T11:55:52Z</time></trkpt><trkpt lat="45.94709585997995" lon="12.104093557295908"><ele>236.0</ele><time>2026-04-07T11:55:53Z</time></trkpt><trkpt lat="45.94703403727439" lon="12.103918922607166"><ele>236.0</ele><time>2026-04-07T11:55:54Z</time></trkpt><trkpt lat="45.94697543403188" lon="12.10373272849223"><ele>236.0</ele><time>2026-04-07T11:55:55Z</time></trkpt><trkpt lat="45.94691848481726" lon="12.103537521129532"><ele>237.66666666666669</ele><time>2026-04-07T11:55:56Z</time></trkpt><trkpt lat="45.946851085906104" lon="12.103310948815077"><ele>239.33333333333331</ele><time>2026-04-07T11:55:57Z</time></trkpt><trkpt lat="45.946768260658374" lon="12.103059592679763"><ele>241.0</ele><time>2026-04-07T11:55:58Z</time></trkpt><trkpt lat="45.946697813801066" lon="12.102773623831819"><ele>242.0</ele><time>2026-04-07T11:55:59Z</time></trkpt><trkpt lat="45.946611292833396" lon="12.102473806670748"><ele>243.0</ele><time>2026-04-07T11:56:00Z</time></trkpt><trkpt lat="45.94651483443562" lon="12.102143736174616"><ele>244.5</ele><time>2026-04-07T11:56:01Z</time></trkpt><trkpt lat="45.94641146610196" lon="12.101790020589508"><ele>246.0</ele><time>2026-04-07T11:56:02Z</time></trkpt><trkpt lat="45.94630526156133" lon="12.101471560414137"><ele>248.5</ele><time>2026-04-07T11:56:03Z</time></trkpt><trkpt lat="45.94621569638072" lon="12.10115249717296"><ele>251.0</ele><time>2026-04-07T11:56:04Z</time></trkpt><trkpt lat="45.94611037111343" lon="12.100801650683927"><ele>254.0</ele><time>2026-04-07T11:56:05Z</time></trkpt><trkpt lat="45.946003732500635" lon="12.10045103471994"><ele>257.0</ele><time>2026-04-07T11:56:06Z</time></trkpt><trkpt lat="45.945909017807935" lon="12.100128143046254"><ele>256.0</ele><time>2026-04-07T11:56:07Z</time></trkpt><trkpt lat="45.945813815591464" lon="12.099790425196115"><ele>255.0</ele><time>2026-04-07T11:56:08Z</time></trkpt><trkpt lat="45.94570680035554" lon="12.099425475651463"><ele>257.0</ele><time>2026-04-07T11:56:09Z</time></trkpt><trkpt lat="45.945595231304246" lon="12.099043708411692"><ele>259.0</ele><time>2026-04-07T11:56:10Z</time></trkpt><trkpt lat="45.94547751146926" lon="12.098643376840899"><ele>261.5</ele><time>2026-04-07T11:56:11Z</time></trkpt><trkpt lat="45.9453554991183" lon="12.09823424786702"><ele>264.0</ele><time>2026-04-07T11:56:12Z</time></trkpt><trkpt lat="45.945243226421034" lon="12.097866718031316"><ele>264.0</ele><time>2026-04-07T11:56:13Z</time></trkpt><trkpt lat="45.945141583257254" lon="12.097523605392349"><ele>264.0</ele><time>2026-04-07T11:56:14Z</time></trkpt><trkpt lat="45.945048442678114" lon="12.097204251159992"><ele>263.3333333333333</ele><time>2026-04-07T11:56:15Z</time></trkpt><trkpt lat="45.9449607122758" lon="12.096906171153554"><ele>262.66666666666663</ele><time>2026-04-07T11:56:16Z</time></trkpt><trkpt lat="45.9448714914219" lon="12.096618035320063"><ele>262.0</ele><time>2026-04-07T11:56:17Z</time></trkpt><trkpt lat="45.94478542693216" lon="12.09633025290413"><ele>262.0</ele><time>2026-04-07T11:56:18Z</time></trkpt><trkpt lat="45.944700146613904" lon="12.096039942783689"><ele>262.0</ele><time>2026-04-07T11:56:19Z</time></trkpt><trkpt lat="45.94461911498969" lon="12.095759723069929"><ele>262.0</ele><time>2026-04-07T11:56:20Z</time></trkpt><trkpt lat="45.94454197751196" lon="12.09550568661164"><ele>262.3333333333333</ele><time>2026-04-07T11:56:21Z</time></trkpt><trkpt lat="45.9444748909477" lon="12.095280026130913"><ele>262.6666666666667</ele><time>2026-04-07T11:56:22Z</time></trkpt><trkpt lat="45.944426721579234" lon="12.09507556957506"><ele>263.0</ele><time>2026-04-07T11:56:23Z</time></trkpt><trkpt lat="45.94439287069105" lon="12.094868557134383"><ele>263.0</ele><time>2026-04-07T11:56:24Z</time></trkpt><trkpt lat="45.94437778826316" lon="12.09465483516275"><ele>263.0</ele><time>2026-04-07T11:56:25Z</time></trkpt><trkpt lat="45.94437399679026" lon="12.094430608099266"><ele>263.0</ele><time>2026-04-07T11:56:26Z</time></trkpt><trkpt lat="45.94437651719215" lon="12.094210794438725"><ele>263.2</ele><time>2026-04-07T11:56:27Z</time></trkpt><trkpt lat="45.94437824961946" lon="12.094032042142535"><ele>263.4</ele><time>2026-04-07T11:56:28Z</time></trkpt><trkpt lat="45.94437095500323" lon="12.093886890441716"><ele>263.59999999999997</ele><time>2026-04-07T11:56:29Z</time></trkpt><trkpt lat="45.944343656749034" lon="12.093761943503065"><ele>263.8</ele><time>2026-04-07T11:56:30Z</time></trkpt><trkpt lat="45.94430312333724" lon="12.093651790867737"><ele>264.0</ele><time>2026-04-07T11:56:31Z</time></trkpt><trkpt lat="45.94424409198648" lon="12.093550380948674"><ele>262.75</ele><time>2026-04-07T11:56:32Z</time></trkpt><trkpt lat="45.94415976856519" lon="12.093464200148185"><ele>261.5</ele><time>2026-04-07T11:56:33Z</time></trkpt><trkpt lat="45.94405723544203" lon="12.093371599587837"><ele>260.25</ele><time>2026-04-07T11:56:34Z</time></trkpt><trkpt lat="45.943939148197785" lon="12.093238639373208"><ele>259.0</ele><time>2026-04-07T11:56:35Z</time></trkpt><trkpt lat="45.94383559532547" lon="12.09310240496613"><ele>259.0</ele><time>2026-04-07T11:56:36Z</time></trkpt><trkpt lat="45.943722110489645" lon="12.092921876522386"><ele>259.0</ele><time>2026-04-07T11:56:37Z</time></trkpt><trkpt lat="45.94360147006867" lon="12.09271838833019"><ele>259.0</ele><time>2026-04-07T11:56:38Z</time></trkpt><trkpt lat="45.94348441430197" lon="12.092522255825347"><ele>259.3333333333333</ele><time>2026-04-07T11:56:39Z</time></trkpt><trkpt lat="45.94334996316704" lon="12.092287442713616"><ele>259.6666666666667</ele><time>2026-04-07T11:56:40Z</time></trkpt><trkpt lat="45.94319941144099" lon="12.092045348837747"><ele>260.0</ele><time>2026-04-07T11:56:41Z</time></trkpt><trkpt lat="45.943051840649105" lon="12.091813794074165"><ele>261.0</ele><time>2026-04-07T11:56:42Z</time></trkpt><trkpt lat="45.94288227711668" lon="12.091549550333546"><ele>262.0</ele><time>2026-04-07T11:56:43Z</time></trkpt><trkpt lat="45.9427008237535" lon="12.091264628792864"><ele>261.5</ele><time>2026-04-07T11:56:44Z</time></trkpt><trkpt lat="45.94251006115683" lon="12.090963239090026"><ele>261.0</ele><time>2026-04-07T11:56:45Z</time></trkpt><trkpt lat="45.94234126625827" lon="12.090686574162095"><ele>261.0</ele><time>2026-04-07T11:56:46Z</time></trkpt><trkpt lat="45.94218616150853" lon="12.09043450984389"><ele>261.0</ele><time>2026-04-07T11:56:47Z</time></trkpt><trkpt lat="45.942036652528515" lon="12.09019039631906"><ele>261.0</ele><time>2026-04-07T11:56:48Z</time></trkpt><trkpt lat="45.94190368435217" lon="12.089956067961932"><ele>261.0</ele><time>2026-04-07T11:56:49Z</time></trkpt><trkpt lat="45.941779879405594" lon="12.089725254652565"><ele>261.0</ele><time>2026-04-07T11:56:50Z</time></trkpt><trkpt lat="45.94166492013949" lon="12.08951096501842"><ele>261.6666666666667</ele><time>2026-04-07T11:56:51Z</time></trkpt><trkpt lat="45.94155856619658" lon="12.089314114663726"><ele>262.33333333333337</ele><time>2026-04-07T11:56:52Z</time></trkpt><trkpt lat="45.94144413773899" lon="12.089130267161769"><ele>263.0</ele><time>2026-04-07T11:56:53Z</time></trkpt><trkpt lat="45.941303111317445" lon="12.088935338850618"><ele>264.0</ele><time>2026-04-07T11:56:54Z</time></trkpt><trkpt lat="45.9411465833887" lon="12.088712036759862"><ele>265.0</ele><time>2026-04-07T11:56:55Z</time></trkpt><trkpt lat="45.94102016726299" lon="12.088499058747976"><ele>266.0</ele><time>2026-04-07T11:56:56Z</time></trkpt><trkpt lat="45.940911396392465" lon="12.088295735497162"><ele>265.75</ele><time>2026-04-07T11:56:57Z</time></trkpt><trkpt lat="45.940816257669574" lon="12.088111209245222"><ele>265.5</ele><time>2026-04-07T11:56:58Z</time></trkpt><trkpt lat="45.94073892315039" lon="12.08794656727504"><ele>265.25</ele><time>2026-04-07T11:56:59Z</time></trkpt><trkpt lat="45.94067430088365" lon="12.087796462548564"><ele>265.0</ele><time>2026-04-07T11:57:00.001Z</time></trkpt><trkpt lat="45.94061536434672" lon="12.087657759463493"><ele>265.0</ele><time>2026-04-07T11:57:01.001Z</time></trkpt><trkpt lat="45.9405625693062" lon="12.087528212975508"><ele>265.0</ele><time>2026-04-07T11:57:02.001Z</time></trkpt><trkpt lat="45.94051509592037" lon="12.08740206627163"><ele>265.0</ele><time>2026-04-07T11:57:03.001Z</time></trkpt><trkpt lat="45.94046772476232" lon="12.087243788166894"><ele>265.0</ele><time>2026-04-07T11:57:04.001Z</time></trkpt><trkpt lat="45.940402207710925" lon="12.087077751902198"><ele>265.75</ele><time>2026-04-07T11:57:05.001Z</time></trkpt><trkpt lat="45.940332579271015" lon="12.086900690219124"><ele>266.5</ele><time>2026-04-07T11:57:06.001Z</time></trkpt><trkpt lat="45.940262563969924" lon="12.086728217726064"><ele>267.25</ele><time>2026-04-07T11:57:07.001Z</time></trkpt><trkpt lat="45.9401803396492" lon="12.086581410513617"><ele>268.0</ele><time>2026-04-07T11:57:08.001Z</time></trkpt><trkpt lat="45.94009969533039" lon="12.086450504556463"><ele>268.3333333333333</ele><time>2026-04-07T11:57:09.001Z</time></trkpt><trkpt lat="45.93999676006163" lon="12.08632278334286"><ele>268.6666666666667</ele><time>2026-04-07T11:57:10.001Z</time></trkpt><trkpt lat="45.93987418101421" lon="12.08617489547762"><ele>269.0</ele><time>2026-04-07T11:57:11.001Z</time></trkpt><trkpt lat="45.93970225538992" lon="12.086023734245643"><ele>269.0</ele><time>2026-04-07T11:57:12.001Z</time></trkpt><trkpt lat="45.93948840845987" lon="12.085884596796868"><ele>269.0</ele><time>2026-04-07T11:57:13.001Z</time></trkpt><trkpt lat="45.93929561799355" lon="12.085699788645348"><ele>271.6666666666667</ele><time>2026-04-07T11:57:14.001Z</time></trkpt><trkpt lat="45.939123575514685" lon="12.085543054039933"><ele>274.3333333333333</ele><time>2026-04-07T11:57:15.001Z</time></trkpt><trkpt lat="45.93895854690775" lon="12.08539401461646"><ele>277.0</ele><time>2026-04-07T11:57:16.001Z</time></trkpt><trkpt lat="45.93880341938461" lon="12.0852253056822"><ele>277.0</ele><time>2026-04-07T11:57:17.001Z</time></trkpt><trkpt lat="45.938682322562116" lon="12.085056306960436"><ele>277.0</ele><time>2026-04-07T11:57:18.001Z</time></trkpt><trkpt lat="45.93858329575941" lon="12.084908424242665"><ele>277.0</ele><time>2026-04-07T11:57:19.001Z</time></trkpt><trkpt lat="45.93848856210098" lon="12.084792378238266"><ele>277.0</ele><time>2026-04-07T11:57:20.001Z</time></trkpt><trkpt lat="45.93837660653431" lon="12.084710923084558"><ele>278.75</ele><time>2026-04-07T11:57:21.001Z</time></trkpt><trkpt lat="45.938252598189685" lon="12.084666651492798"><ele>280.5</ele><time>2026-04-07T11:57:22.001Z</time></trkpt><trkpt lat="45.93811373829811" lon="12.084634239202348"><ele>282.25</ele><time>2026-04-07T11:57:23.001Z</time></trkpt><trkpt lat="45.937992440548754" lon="12.084593886202201"><ele>284.0</ele><time>2026-04-07T11:57:24.001Z</time></trkpt><trkpt lat="45.93787261274979" lon="12.084527559380565"><ele>284.0</ele><time>2026-04-07T11:57:25.001Z</time></trkpt><trkpt lat="45.93775820366364" lon="12.084423074230516"><ele>284.0</ele><time>2026-04-07T11:57:26.001Z</time></trkpt><trkpt lat="45.937676865403226" lon="12.084282805063255"><ele>284.0</ele><time>2026-04-07T11:57:27.001Z</time></trkpt><trkpt lat="45.937613723357536" lon="12.084116012360997"><ele>284.0</ele><time>2026-04-07T11:57:28.001Z</time></trkpt><trkpt lat="45.937537158813555" lon="12.083894211538698"><ele>286.0</ele><time>2026-04-07T11:57:29.001Z</time></trkpt><trkpt lat="45.937431558966786" lon="12.083650325320978"><ele>288.0</ele><time>2026-04-07T11:57:30.001Z</time></trkpt><trkpt lat="45.937319021951474" lon="12.083430753003519"><ele>290.0</ele><time>2026-04-07T11:57:31.001Z</time></trkpt><trkpt lat="45.937189815725915" lon="12.083200825094117"><ele>292.0</ele><time>2026-04-07T11:57:32.001Z</time></trkpt><trkpt lat="45.937063240196785" lon="12.082987837987934"><ele>294.0</ele><time>2026-04-07T11:57:33.001Z</time></trkpt><trkpt lat="45.936957278481145" lon="12.082789541457721"><ele>296.0</ele><time>2026-04-07T11:57:34.001Z</time></trkpt><trkpt lat="45.936877892077455" lon="12.082593649963295"><ele>297.6666666666667</ele><time>2026-04-07T11:57:35.001Z</time></trkpt><trkpt lat="45.93681450848167" lon="12.082390206509542"><ele>299.3333333333333</ele><time>2026-04-07T11:57:36.001Z</time></trkpt><trkpt lat="45.93677252799888" lon="12.082163391672097"><ele>301.0</ele><time>2026-04-07T11:57:37.001Z</time></trkpt><trkpt lat="45.936746000364" lon="12.08192121740131"><ele>301.0</ele><time>2026-04-07T11:57:38.001Z</time></trkpt><trkpt lat="45.936735573240355" lon="12.081667640835372"><ele>301.0</ele><time>2026-04-07T11:57:39.001Z</time></trkpt><trkpt lat="45.936737223146814" lon="12.081400026922193"><ele>301.0</ele><time>2026-04-07T11:57:40.001Z</time></trkpt><trkpt lat="45.93673692136902" lon="12.081173627449212"><ele>303.3333333333333</ele><time>2026-04-07T11:57:41.001Z</time></trkpt><trkpt lat="45.936722674150815" lon="12.08096247611019"><ele>305.6666666666667</ele><time>2026-04-07T11:57:42Z</time></trkpt><trkpt lat="45.936684046480366" lon="12.080744352937744"><ele>308.0</ele><time>2026-04-07T11:57:43Z</time></trkpt><trkpt lat="45.936620694818664" lon="12.080523671419323"><ele>309.0</ele><time>2026-04-07T11:57:44Z</time></trkpt><trkpt lat="45.93653850581053" lon="12.080305466779212"><ele>310.0</ele><time>2026-04-07T11:57:45Z</time></trkpt><trkpt lat="45.93642923605851" lon="12.080075960367383"><ele>311.0</ele><time>2026-04-07T11:57:46Z</time></trkpt><trkpt lat="45.93630717780511" lon="12.079794600519385"><ele>320.0</ele><time>2026-04-07T11:57:47Z</time></trkpt><trkpt lat="45.93616168241967" lon="12.07950773486019"><ele>329.0</ele><time>2026-04-07T11:57:48Z</time></trkpt><trkpt lat="45.93600043036976" lon="12.079285118917937"><ele>328.5</ele><time>2026-04-07T11:57:49Z</time></trkpt><trkpt lat="45.93582384013683" lon="12.079033533487843"><ele>328.0</ele><time>2026-04-07T11:57:50Z</time></trkpt><trkpt lat="45.93563592164658" lon="12.07874703185642"><ele>328.0</ele><time>2026-04-07T11:57:51Z</time></trkpt><trkpt lat="45.935425284731856" lon="12.078459372163532"><ele>328.0</ele><time>2026-04-07T11:57:52Z</time></trkpt><trkpt lat="45.93520349327542" lon="12.078155488378968"><ele>328.5</ele><time>2026-04-07T11:57:53Z</time></trkpt><trkpt lat="45.934973155099556" lon="12.0778365990177"><ele>329.0</ele><time>2026-04-07T11:57:54Z</time></trkpt><trkpt lat="45.93475711263772" lon="12.077532441193533"><ele>345.0</ele><time>2026-04-07T11:57:55Z</time></trkpt><trkpt lat="45.9345475684197" lon="12.077239458641746"><ele>361.0</ele><time>2026-04-07T11:57:56Z</time></trkpt><trkpt lat="45.9343180973886" lon="12.076940339862272"><ele>357.0</ele><time>2026-04-07T11:57:57Z</time></trkpt><trkpt lat="45.93407863561717" lon="12.076653968926896"><ele>353.0</ele><time>2026-04-07T11:57:58Z</time></trkpt><trkpt lat="45.93382800492886" lon="12.07636912397234"><ele>353.0</ele><time>2026-04-07T11:57:59Z</time></trkpt><trkpt lat="45.93357146400474" lon="12.07607575031787"><ele>353.0</ele><time>2026-04-07T11:58:00Z</time></trkpt><trkpt lat="45.93330388154033" lon="12.07579792800267"><ele>352.0</ele><time>2026-04-07T11:58:01Z</time></trkpt><trkpt lat="45.93307380059724" lon="12.075530780680094"><ele>351.0</ele><time>2026-04-07T11:58:02Z</time></trkpt><trkpt lat="45.93288239821305" lon="12.075313183265203"><ele>351.0</ele><time>2026-04-07T11:58:03Z</time></trkpt><trkpt lat="45.93272919827278" lon="12.07513671257995"><ele>351.0</ele><time>2026-04-07T11:58:04Z</time></trkpt><trkpt lat="45.932602966382696" lon="12.074982725911335"><ele>351.0</ele><time>2026-04-07T11:58:05Z</time></trkpt><trkpt lat="45.932485118800976" lon="12.074832550949408"><ele>352.0</ele><time>2026-04-07T11:58:06Z</time></trkpt><trkpt lat="45.93238086862307" lon="12.074665890249301"><ele>353.0</ele><time>2026-04-07T11:58:07Z</time></trkpt><trkpt lat="45.932282027051215" lon="12.074458372527959"><ele>354.0</ele><time>2026-04-07T11:58:08Z</time></trkpt><trkpt lat="45.932175682837546" lon="12.074234151569188"><ele>360.0</ele><time>2026-04-07T11:58:09Z</time></trkpt><trkpt lat="45.93207091154569" lon="12.074032395573832"><ele>366.0</ele><time>2026-04-07T11:58:10Z</time></trkpt><trkpt lat="45.93193110989372" lon="12.073902542601074"><ele>372.0</ele><time>2026-04-07T11:58:11Z</time></trkpt><trkpt lat="45.93182474825919" lon="12.073791602127537"><ele>372.0</ele><time>2026-04-07T11:58:12Z</time></trkpt><trkpt lat="45.93173596998895" lon="12.073670645847445"><ele>372.0</ele><time>2026-04-07T11:58:13Z</time></trkpt><trkpt lat="45.93166708640146" lon="12.07351355247311"><ele>372.0</ele><time>2026-04-07T11:58:14Z</time></trkpt><trkpt lat="45.93161356744291" lon="12.073326689305784"><ele>372.0</ele><time>2026-04-07T11:58:15Z</time></trkpt><trkpt lat="45.93157143677828" lon="12.073108099224175"><ele>374.0</ele><time>2026-04-07T11:58:16Z</time></trkpt><trkpt lat="45.9315295515273" lon="12.072889362589672"><ele>376.0</ele><time>2026-04-07T11:58:17Z</time></trkpt><trkpt lat="45.93147325421404" lon="12.072715473719608"><ele>378.0</ele><time>2026-04-07T11:58:18Z</time></trkpt><trkpt lat="45.93138982808007" lon="12.072563041989687"><ele>380.0</ele><time>2026-04-07T11:58:19Z</time></trkpt><trkpt lat="45.93127777496698" lon="12.072420087409043"><ele>382.0</ele><time>2026-04-07T11:58:20Z</time></trkpt><trkpt lat="45.93117395274626" lon="12.07228951081172"><ele>384.0</ele><time>2026-04-07T11:58:21Z</time></trkpt><trkpt lat="45.93108660389261" lon="12.072182358723559"><ele>386.0</ele><time>2026-04-07T11:58:22Z</time></trkpt><trkpt lat="45.93101173550523" lon="12.072052006331013"><ele>388.0</ele><time>2026-04-07T11:58:23Z</time></trkpt><trkpt lat="45.93097861867063" lon="12.071873237395934"><ele>388.0</ele><time>2026-04-07T11:58:24Z</time></trkpt><trkpt lat="45.93097203950632" lon="12.07170039484353"><ele>388.0</ele><time>2026-04-07T11:58:25Z</time></trkpt><trkpt lat="45.93099393819915" lon="12.071508501375341"><ele>388.0</ele><time>2026-04-07T11:58:26Z</time></trkpt><trkpt lat="45.931018621460424" lon="12.071271493026915"><ele>388.0</ele><time>2026-04-07T11:58:27Z</time></trkpt><trkpt lat="45.931036576072124" lon="12.0710359392325"><ele>390.0</ele><time>2026-04-07T11:58:28Z</time></trkpt><trkpt lat="45.93104931869541" lon="12.070876609575048"><ele>392.0</ele><time>2026-04-07T11:58:29Z</time></trkpt><trkpt lat="45.93105917851494" lon="12.070754965559024"><ele>394.0</ele><time>2026-04-07T11:58:30Z</time></trkpt><trkpt lat="45.93105284729346" lon="12.070646663815129"><ele>396.0</ele><time>2026-04-07T11:58:31Z</time></trkpt><trkpt lat="45.930932470381" lon="12.07051256291478"><ele>398.0</ele><time>2026-04-07T11:58:33Z</time></trkpt><trkpt lat="45.93084905109268" lon="12.070526733711946"><ele>398.5</ele><time>2026-04-07T11:58:34Z</time></trkpt><trkpt lat="45.93077306738744" lon="12.070598817145221"><ele>399.0</ele><time>2026-04-07T11:58:35Z</time></trkpt><trkpt lat="45.930719394621434" lon="12.070716004564252"><ele>399.5</ele><time>2026-04-07T11:58:36.001Z</time></trkpt><trkpt lat="45.930662581085286" lon="12.070883652965364"><ele>400.0</ele><time>2026-04-07T11:58:37.001Z</time></trkpt><trkpt lat="45.93058584834109" lon="12.071090314757784"><ele>397.4</ele><time>2026-04-07T11:58:38.001Z</time></trkpt><trkpt lat="45.93051869361934" lon="12.07122821754138"><ele>394.8</ele><time>2026-04-07T11:58:39.001Z</time></trkpt><trkpt lat="45.93044959613959" lon="12.071329627668534"><ele>392.20000000000005</ele><time>2026-04-07T11:58:40.001Z</time></trkpt><trkpt lat="45.93036541111604" lon="12.071373555950055"><ele>389.6</ele><time>2026-04-07T11:58:41.001Z</time></trkpt><trkpt lat="45.93027368092058" lon="12.071388857231957"><ele>387.0</ele><time>2026-04-07T11:58:42.001Z</time></trkpt><trkpt lat="45.93019214640934" lon="12.071372673755905"><ele>387.0</ele><time>2026-04-07T11:58:43.001Z</time></trkpt><trkpt lat="45.93011948534215" lon="12.071325332243385"><ele>387.0</ele><time>2026-04-07T11:58:44.001Z</time></trkpt><trkpt lat="45.93005420983146" lon="12.071249852433146"><ele>387.0</ele><time>2026-04-07T11:58:45.001Z</time></trkpt><trkpt lat="45.92998353717974" lon="12.071143708924092"><ele>387.0</ele><time>2026-04-07T11:58:47.001Z</time></trkpt><trkpt lat="45.92993480695183" lon="12.071037935684377"><ele>387.0</ele><time>2026-04-07T11:58:49.001Z</time></trkpt><trkpt lat="45.92994131477155" lon="12.070944761591988"><ele>387.0</ele><time>2026-04-07T12:00:23Z</time></trkpt><trkpt lat="45.929862750393774" lon="12.070862870923596"><ele>388.6</ele><time>2026-04-07T12:00:29Z</time></trkpt><trkpt lat="45.929829739075835" lon="12.070768588388853"><ele>390.20000000000005</ele><time>2026-04-07T12:00:30Z</time></trkpt><trkpt lat="45.92979206466569" lon="12.070660806191961"><ele>391.8</ele><time>2026-04-07T12:00:31Z</time></trkpt><trkpt lat="45.92975322410718" lon="12.070555614553083"><ele>393.4</ele><time>2026-04-07T12:00:32Z</time></trkpt><trkpt lat="45.92968538061009" lon="12.070389454905648"><ele>395.0</ele><time>2026-04-07T12:00:33Z</time></trkpt><trkpt lat="45.92961639130671" lon="12.070215139584146"><ele>395.0</ele><time>2026-04-07T12:00:34Z</time></trkpt><trkpt lat="45.9295555190236" lon="12.070062385550584"><ele>395.0</ele><time>2026-04-07T12:00:35Z</time></trkpt><trkpt lat="45.929486454131904" lon="12.069904368710565"><ele>395.0</ele><time>2026-04-07T12:00:36Z</time></trkpt><trkpt lat="45.92942219015492" lon="12.06974017667601"><ele>395.0</ele><time>2026-04-07T12:00:37Z</time></trkpt><trkpt lat="45.92934842622336" lon="12.069555345691683"><ele>394.3333333333333</ele><time>2026-04-07T12:00:38Z</time></trkpt><trkpt lat="45.929272312608525" lon="12.069360505684982"><ele>393.66666666666663</ele><time>2026-04-07T12:00:39Z</time></trkpt><trkpt lat="45.92919685851873" lon="12.069178179844283"><ele>393.0</ele><time>2026-04-07T12:00:40Z</time></trkpt><trkpt lat="45.92911288681011" lon="12.068998586895567"><ele>393.0</ele><time>2026-04-07T12:00:41Z</time></trkpt><trkpt lat="45.92903273134896" lon="12.0688056474189"><ele>393.0</ele><time>2026-04-07T12:00:42Z</time></trkpt><trkpt lat="45.92891451465306" lon="12.068646214622186"><ele>393.0</ele><time>2026-04-07T12:00:43Z</time></trkpt><trkpt lat="45.92880946128312" lon="12.068469279659013"><ele>393.0</ele><time>2026-04-07T12:00:44Z</time></trkpt><trkpt lat="45.928706206240875" lon="12.068296463702358"><ele>393.0</ele><time>2026-04-07T12:00:45Z</time></trkpt><trkpt lat="45.92861178554991" lon="12.068137007748232"><ele>393.0</ele><time>2026-04-07T12:00:46Z</time></trkpt><trkpt lat="45.928534008355314" lon="12.068008596557677"><ele>393.0</ele><time>2026-04-07T12:00:47Z</time></trkpt><trkpt lat="45.92845756445419" lon="12.067895671776435"><ele>394.0</ele><time>2026-04-07T12:00:48Z</time></trkpt><trkpt lat="45.9283731739051" lon="12.067818519243595"><ele>395.0</ele><time>2026-04-07T12:00:49Z</time></trkpt><trkpt lat="45.92827440968706" lon="12.067788932449188"><ele>396.0</ele><time>2026-04-07T12:00:50Z</time></trkpt><trkpt lat="45.9281810232036" lon="12.067788016133923"><ele>397.0</ele><time>2026-04-07T12:00:51Z</time></trkpt><trkpt lat="45.92809832684853" lon="12.067817862911022"><ele>398.0</ele><time>2026-04-07T12:00:52Z</time></trkpt><trkpt lat="45.9280081881964" lon="12.067901633712626"><ele>398.0</ele><time>2026-04-07T12:00:53Z</time></trkpt><trkpt lat="45.92791100792921" lon="12.06800286326184"><ele>398.0</ele><time>2026-04-07T12:00:54Z</time></trkpt><trkpt lat="45.927813109900654" lon="12.068065353862714"><ele>398.0</ele><time>2026-04-07T12:00:55Z</time></trkpt><trkpt lat="45.92770648238172" lon="12.068081960413323"><ele>398.0</ele><time>2026-04-07T12:00:56Z</time></trkpt><trkpt lat="45.92758839643144" lon="12.06806564840704"><ele>396.0</ele><time>2026-04-07T12:00:57Z</time></trkpt><trkpt lat="45.92746455675674" lon="12.068021771920044"><ele>394.0</ele><time>2026-04-07T12:00:58Z</time></trkpt><trkpt lat="45.92733425139654" lon="12.067947392981292"><ele>392.0</ele><time>2026-04-07T12:00:59Z</time></trkpt><trkpt lat="45.927223094933154" lon="12.067878539094272"><ele>390.0</ele><time>2026-04-07T12:01:00Z</time></trkpt><trkpt lat="45.92712650255201" lon="12.067811953065045"><ele>390.0</ele><time>2026-04-07T12:01:01.001Z</time></trkpt><trkpt lat="45.92705989569229" lon="12.067712598193273"><ele>390.0</ele><time>2026-04-07T12:01:02.001Z</time></trkpt><trkpt lat="45.92703068263869" lon="12.067590446962978"><ele>390.0</ele><time>2026-04-07T12:01:03.001Z</time></trkpt><trkpt lat="45.92701191800452" lon="12.067473169686359"><ele>390.0</ele><time>2026-04-07T12:01:04.001Z</time></trkpt><trkpt lat="45.92702563012729" lon="12.067345994017238"><ele>390.0</ele><time>2026-04-07T12:01:05.001Z</time></trkpt><trkpt lat="45.92708033697104" lon="12.067220141935161"><ele>390.75</ele><time>2026-04-07T12:01:06.001Z</time></trkpt><trkpt lat="45.92715842519066" lon="12.06711572992167"><ele>391.5</ele><time>2026-04-07T12:01:07.001Z</time></trkpt><trkpt lat="45.927257154745604" lon="12.066989063054166"><ele>392.25</ele><time>2026-04-07T12:01:08.001Z</time></trkpt><trkpt lat="45.92736965356876" lon="12.066846700095637"><ele>393.0</ele><time>2026-04-07T12:01:09.001Z</time></trkpt><trkpt lat="45.92744546018108" lon="12.066709286136375"><ele>396.0</ele><time>2026-04-07T12:01:10.001Z</time></trkpt><trkpt lat="45.92747987577988" lon="12.0665672342618"><ele>399.0</ele><time>2026-04-07T12:01:11.001Z</time></trkpt><trkpt lat="45.927482336637965" lon="12.066413758281746"><ele>402.0</ele><time>2026-04-07T12:01:12.001Z</time></trkpt><trkpt lat="45.92746097990032" lon="12.066255155904388"><ele>405.0</ele><time>2026-04-07T12:01:13.001Z</time></trkpt><trkpt lat="45.927367873922535" lon="12.066133487682995"><ele>405.0</ele><time>2026-04-07T12:01:14.001Z</time></trkpt><trkpt lat="45.92727098639914" lon="12.066020870839623"><ele>405.0</ele><time>2026-04-07T12:01:15.001Z</time></trkpt><trkpt lat="45.92716699128373" lon="12.06590234064099"><ele>405.0</ele><time>2026-04-07T12:01:16.001Z</time></trkpt><trkpt lat="45.92707826758575" lon="12.065781145672094"><ele>405.0</ele><time>2026-04-07T12:01:17.001Z</time></trkpt><trkpt lat="45.92703148340097" lon="12.065633638409954"><ele>403.6</ele><time>2026-04-07T12:01:18.001Z</time></trkpt><trkpt lat="45.926978795487024" lon="12.065514716363205"><ele>402.2</ele><time>2026-04-07T12:01:19.001Z</time></trkpt><trkpt lat="45.92691749101353" lon="12.065401892021244"><ele>400.79999999999995</ele><time>2026-04-07T12:01:20.001Z</time></trkpt><trkpt lat="45.92684140335651" lon="12.06529263099606"><ele>399.4</ele><time>2026-04-07T12:01:21.001Z</time></trkpt><trkpt lat="45.92672793420797" lon="12.065256343801947"><ele>398.0</ele><time>2026-04-07T12:01:22.001Z</time></trkpt><trkpt lat="45.92661491365484" lon="12.065234027428497"><ele>398.0</ele><time>2026-04-07T12:01:23.001Z</time></trkpt><trkpt lat="45.926523490466714" lon="12.065187296233024"><ele>398.0</ele><time>2026-04-07T12:01:24.001Z</time></trkpt><trkpt lat="45.92644120062536" lon="12.065112090106114"><ele>398.0</ele><time>2026-04-07T12:01:25.001Z</time></trkpt><trkpt lat="45.926368224700205" lon="12.065022799866211"><ele>398.0</ele><time>2026-04-07T12:01:26.001Z</time></trkpt><trkpt lat="45.92632860905099" lon="12.064891374113868"><ele>398.0</ele><time>2026-04-07T12:01:27.001Z</time></trkpt><trkpt lat="45.92631340756009" lon="12.064713279990812"><ele>405.66666666666663</ele><time>2026-04-07T12:01:28.001Z</time></trkpt><trkpt lat="45.926293642463904" lon="12.064494690559453"><ele>413.33333333333337</ele><time>2026-04-07T12:01:29.001Z</time></trkpt><trkpt lat="45.92626045902631" lon="12.064252755558636"><ele>421.0</ele><time>2026-04-07T12:01:30.001Z</time></trkpt><trkpt lat="45.92622700776176" lon="12.064015340910686"><ele>423.0</ele><time>2026-04-07T12:01:31.001Z</time></trkpt><trkpt lat="45.92620121793381" lon="12.063817887736215"><ele>425.0</ele><time>2026-04-07T12:01:32.001Z</time></trkpt><trkpt lat="45.92618062776737" lon="12.063639342483675"><ele>427.0</ele><time>2026-04-07T12:01:33.001Z</time></trkpt><trkpt lat="45.92616276682017" lon="12.063475840910744"><ele>429.0</ele><time>2026-04-07T12:01:34.001Z</time></trkpt><trkpt lat="45.92614313572554" lon="12.063329908851237"><ele>429.0</ele><time>2026-04-07T12:01:35.001Z</time></trkpt><trkpt lat="45.92611975889582" lon="12.063211588569795"><ele>429.0</ele><time>2026-04-07T12:01:36.001Z</time></trkpt><trkpt lat="45.92606761298217" lon="12.06311416127281"><ele>429.0</ele><time>2026-04-07T12:01:37.001Z</time></trkpt><trkpt lat="45.92599356622713" lon="12.06307253583933"><ele>429.0</ele><time>2026-04-07T12:01:38.001Z</time></trkpt><trkpt lat="45.9259085110374" lon="12.063047932086908"><ele>429.0</ele><time>2026-04-07T12:01:39.001Z</time></trkpt><trkpt lat="45.92580401370485" lon="12.063100214536833"><ele>429.0</ele><time>2026-04-07T12:01:40.001Z</time></trkpt><trkpt lat="45.9257057737004" lon="12.063139585736335"><ele>429.0</ele><time>2026-04-07T12:01:41.001Z</time></trkpt><trkpt lat="45.92560953595144" lon="12.063153097043854"><ele>429.0</ele><time>2026-04-07T12:01:42.001Z</time></trkpt><trkpt lat="45.92551347690106" lon="12.063092616220402"><ele>429.0</ele><time>2026-04-07T12:01:43.001Z</time></trkpt><trkpt lat="45.925426586459" lon="12.06300686763266"><ele>429.0</ele><time>2026-04-07T12:01:44.001Z</time></trkpt><trkpt lat="45.92533489797663" lon="12.062882042628187"><ele>429.0</ele><time>2026-04-07T12:01:45.001Z</time></trkpt><trkpt lat="45.92523170864076" lon="12.062750376955034"><ele>429.0</ele><time>2026-04-07T12:01:46.001Z</time></trkpt><trkpt lat="45.92513816015645" lon="12.062644111184467"><ele>429.0</ele><time>2026-04-07T12:01:47.001Z</time></trkpt><trkpt lat="45.92504388513309" lon="12.062564750094348"><ele>429.0</ele><time>2026-04-07T12:01:48.001Z</time></trkpt><trkpt lat="45.92494574261923" lon="12.062513817844085"><ele>429.0</ele><time>2026-04-07T12:01:49.001Z</time></trkpt><trkpt lat="45.92484074942085" lon="12.062473940832787"><ele>429.0</ele><time>2026-04-07T12:01:50.001Z</time></trkpt><trkpt lat="45.92472662732996" lon="12.062453840003734"><ele>430.5</ele><time>2026-04-07T12:01:51.001Z</time></trkpt><trkpt lat="45.924624443778335" lon="12.062450209730269"><ele>432.0</ele><time>2026-04-07T12:01:52.001Z</time></trkpt><trkpt lat="45.924540884522436" lon="12.062416578807278"><ele>433.5</ele><time>2026-04-07T12:01:53.001Z</time></trkpt><trkpt lat="45.924464901350404" lon="12.062419214959355"><ele>435.0</ele><time>2026-04-07T12:01:53.999Z</time></trkpt><trkpt lat="45.92439460407666" lon="12.062358182715892"><ele>436.5</ele><time>2026-04-07T12:01:54.999Z</time></trkpt><trkpt lat="45.924340932175326" lon="12.062256551096656"><ele>438.0</ele><time>2026-04-07T12:01:55.999Z</time></trkpt><trkpt lat="45.92430999857849" lon="12.062142248214375"><ele>438.0</ele><time>2026-04-07T12:01:56.999Z</time></trkpt><trkpt lat="45.92430738699524" lon="12.062013736999884"><ele>438.0</ele><time>2026-04-07T12:01:57.999Z</time></trkpt><trkpt lat="45.92431686007142" lon="12.061900328793559"><ele>438.0</ele><time>2026-04-07T12:01:58.999Z</time></trkpt><trkpt lat="45.92432891312117" lon="12.061792320386486"><ele>438.0</ele><time>2026-04-07T12:01:59.999Z</time></trkpt><trkpt lat="45.924345983357505" lon="12.061680101188427"><ele>438.0</ele><time>2026-04-07T12:02:00.999Z</time></trkpt><trkpt lat="45.92437187599407" lon="12.06156334096871"><ele>438.0</ele><time>2026-04-07T12:02:01.999Z</time></trkpt><trkpt lat="45.924399482523825" lon="12.061460331926456"><ele>439.1666666666667</ele><time>2026-04-07T12:02:02.999Z</time></trkpt><trkpt lat="45.92441644475751" lon="12.061367944962278"><ele>440.33333333333337</ele><time>2026-04-07T12:02:03.999Z</time></trkpt><trkpt lat="45.92440656277404" lon="12.0612650432195"><ele>441.5</ele><time>2026-04-07T12:02:04.999Z</time></trkpt><trkpt lat="45.92437548776158" lon="12.061165594267276"><ele>442.6666666666667</ele><time>2026-04-07T12:02:05.999Z</time></trkpt><trkpt lat="45.92430023219193" lon="12.061085430492131"><ele>443.83333333333337</ele><time>2026-04-07T12:02:06.999Z</time></trkpt><trkpt lat="45.924208671758805" lon="12.061038241366692"><ele>445.0</ele><time>2026-04-07T12:02:07.999Z</time></trkpt><trkpt lat="45.924104505243335" lon="12.061042434960667"><ele>441.25</ele><time>2026-04-07T12:02:08.999Z</time></trkpt><trkpt lat="45.924015358622874" lon="12.06114610938822"><ele>437.5</ele><time>2026-04-07T12:02:09.999Z</time></trkpt><trkpt lat="45.92391650272676" lon="12.061232636822227"><ele>433.75</ele><time>2026-04-07T12:02:10.999Z</time></trkpt><trkpt lat="45.92379623089414" lon="12.061376796256875"><ele>430.0</ele><time>2026-04-07T12:02:11.999Z</time></trkpt><trkpt lat="45.92366017406439" lon="12.061541358101046"><ele>431.0</ele><time>2026-04-07T12:02:12.999Z</time></trkpt><trkpt lat="45.923521856500706" lon="12.061701826892879"><ele>432.0</ele><time>2026-04-07T12:02:13.999Z</time></trkpt><trkpt lat="45.92337125639567" lon="12.06189899237478"><ele>433.0</ele><time>2026-04-07T12:02:14.999Z</time></trkpt><trkpt lat="45.92324253950262" lon="12.062050671950386"><ele>433.0</ele><time>2026-04-07T12:02:15.999Z</time></trkpt><trkpt lat="45.923143117978704" lon="12.06214768818377"><ele>433.0</ele><time>2026-04-07T12:02:16.999Z</time></trkpt><trkpt lat="45.923054459550976" lon="12.062216257678223"><ele>433.0</ele><time>2026-04-07T12:02:17.999Z</time></trkpt><trkpt lat="45.92293970482241" lon="12.06227114777244"><ele>433.0</ele><time>2026-04-07T12:02:18.999Z</time></trkpt><trkpt lat="45.92282686700655" lon="12.062314510993321"><ele>433.0</ele><time>2026-04-07T12:02:19.999Z</time></trkpt><trkpt lat="45.922726441459076" lon="12.062420505123987"><ele>433.0</ele><time>2026-04-07T12:02:20.999Z</time></trkpt><trkpt lat="45.92264918336326" lon="12.062584456506928"><ele>433.0</ele><time>2026-04-07T12:02:22Z</time></trkpt><trkpt lat="45.922587736127724" lon="12.062783138621265"><ele>433.0</ele><time>2026-04-07T12:02:23Z</time></trkpt><trkpt lat="45.92255498341108" lon="12.062960869387004"><ele>433.0</ele><time>2026-04-07T12:02:24Z</time></trkpt><trkpt lat="45.92250031631443" lon="12.06310570518298"><ele>433.0</ele><time>2026-04-07T12:02:25Z</time></trkpt><trkpt lat="45.922411085349" lon="12.063222742415574"><ele>433.0</ele><time>2026-04-07T12:02:26Z</time></trkpt><trkpt lat="45.9222871981682" lon="12.063322993378764"><ele>433.0</ele><time>2026-04-07T12:02:27Z</time></trkpt><trkpt lat="45.92216534309882" lon="12.063402275567439"><ele>430.1666666666667</ele><time>2026-04-07T12:02:28Z</time></trkpt><trkpt lat="45.92207354666602" lon="12.063462818550347"><ele>427.33333333333337</ele><time>2026-04-07T12:02:29Z</time></trkpt><trkpt lat="45.92198319909511" lon="12.063497454139004"><ele>424.5</ele><time>2026-04-07T12:02:30Z</time></trkpt><trkpt lat="45.92189753400277" lon="12.063487657973305"><ele>421.66666666666663</ele><time>2026-04-07T12:02:31Z</time></trkpt><trkpt lat="45.921826061056464" lon="12.063440948182738"><ele>418.8333333333333</ele><time>2026-04-07T12:02:32Z</time></trkpt><trkpt lat="45.921766401999086" lon="12.063358150951633"><ele>416.0</ele><time>2026-04-07T12:02:33Z</time></trkpt><trkpt lat="45.92172069653183" lon="12.063240499934839"><ele>416.0</ele><time>2026-04-07T12:02:34Z</time></trkpt><trkpt lat="45.921701189146724" lon="12.063078146461505"><ele>416.0</ele><time>2026-04-07T12:02:35Z</time></trkpt><trkpt lat="45.92165641329543" lon="12.062869436692583"><ele>416.0</ele><time>2026-04-07T12:02:36Z</time></trkpt><trkpt lat="45.92160193586979" lon="12.062681432722623"><ele>416.0</ele><time>2026-04-07T12:02:37Z</time></trkpt><trkpt lat="45.92156256773692" lon="12.062477698719803"><ele>420.0</ele><time>2026-04-07T12:02:38Z</time></trkpt><trkpt lat="45.921521857524304" lon="12.062255260552991"><ele>424.0</ele><time>2026-04-07T12:02:39Z</time></trkpt><trkpt lat="45.921498442051686" lon="12.062053755247392"><ele>428.0</ele><time>2026-04-07T12:02:40Z</time></trkpt><trkpt lat="45.92149735511475" lon="12.061881176220421"><ele>432.0</ele><time>2026-04-07T12:02:41Z</time></trkpt><trkpt lat="45.921495904316664" lon="12.061731038855365"><ele>435.20000000000005</ele><time>2026-04-07T12:02:42Z</time></trkpt><trkpt lat="45.921467955524776" lon="12.061586739356759"><ele>438.40000000000003</ele><time>2026-04-07T12:02:43Z</time></trkpt><trkpt lat="45.921406928404934" lon="12.061453912062474"><ele>441.59999999999997</ele><time>2026-04-07T12:02:44Z</time></trkpt><trkpt lat="45.92132169964661" lon="12.061347589534945"><ele>444.79999999999995</ele><time>2026-04-07T12:02:45Z</time></trkpt><trkpt lat="45.92122949854187" lon="12.061285687346212"><ele>448.0</ele><time>2026-04-07T12:02:46Z</time></trkpt><trkpt lat="45.921134072516644" lon="12.061271757910113"><ele>448.0</ele><time>2026-04-07T12:02:47Z</time></trkpt><trkpt lat="45.92103240690687" lon="12.06131410103325"><ele>448.0</ele><time>2026-04-07T12:02:48Z</time></trkpt><trkpt lat="45.92090363993662" lon="12.06137965677303"><ele>448.0</ele><time>2026-04-07T12:02:49Z</time></trkpt><trkpt lat="45.920774937354544" lon="12.061458777688252"><ele>448.0</ele><time>2026-04-07T12:02:50Z</time></trkpt><trkpt lat="45.92066350661763" lon="12.06152728060313"><ele>439.33333333333337</ele><time>2026-04-07T12:02:51Z</time></trkpt><trkpt lat="45.920620053606385" lon="12.06179561157575"><ele>430.66666666666663</ele><time>2026-04-07T12:02:52Z</time></trkpt><trkpt lat="45.92056497602552" lon="12.061978106947016"><ele>422.0</ele><time>2026-04-07T12:02:53Z</time></trkpt><trkpt lat="45.92051170994709" lon="12.062175865293025"><ele>422.0</ele><time>2026-04-07T12:02:54Z</time></trkpt><trkpt lat="45.92044128491284" lon="12.062350950006188"><ele>422.0</ele><time>2026-04-07T12:02:55Z</time></trkpt><trkpt lat="45.9203479762512" lon="12.06250099046256"><ele>422.0</ele><time>2026-04-07T12:02:56Z</time></trkpt><trkpt lat="45.920232185643144" lon="12.06265470526841"><ele>422.0</ele><time>2026-04-07T12:02:57Z</time></trkpt><trkpt lat="45.92009435826074" lon="12.062801765124624"><ele>423.75</ele><time>2026-04-07T12:02:58Z</time></trkpt><trkpt lat="45.91998023597503" lon="12.06292241513181"><ele>425.5</ele><time>2026-04-07T12:02:59Z</time></trkpt><trkpt lat="45.919887940919075" lon="12.063022022027516"><ele>427.25</ele><time>2026-04-07T12:03:00Z</time></trkpt><trkpt lat="45.91979872877765" lon="12.063095359446265"><ele>429.0</ele><time>2026-04-07T12:03:01Z</time></trkpt><trkpt lat="45.91970401062391" lon="12.063129843496268"><ele>429.0</ele><time>2026-04-07T12:03:02Z</time></trkpt><trkpt lat="45.91960329179956" lon="12.063130304935537"><ele>429.0</ele><time>2026-04-07T12:03:03Z</time></trkpt><trkpt lat="45.91949591463908" lon="12.06307539336893"><ele>429.0</ele><time>2026-04-07T12:03:04Z</time></trkpt><trkpt lat="45.91936128612393" lon="12.062993252372987"><ele>429.0</ele><time>2026-04-07T12:03:05Z</time></trkpt><trkpt lat="45.919226262634574" lon="12.062919535305257"><ele>427.66666666666663</ele><time>2026-04-07T12:03:06Z</time></trkpt><trkpt lat="45.919048720771386" lon="12.062821149539573"><ele>426.3333333333333</ele><time>2026-04-07T12:03:07Z</time></trkpt><trkpt lat="45.91885542562609" lon="12.062708449827015"><ele>425.0</ele><time>2026-04-07T12:03:08Z</time></trkpt><trkpt lat="45.9186668000753" lon="12.062595037430372"><ele>425.0</ele><time>2026-04-07T12:03:09Z</time></trkpt><trkpt lat="45.918472567838066" lon="12.062482845826956"><ele>425.0</ele><time>2026-04-07T12:03:10Z</time></trkpt><trkpt lat="45.91831508195914" lon="12.062381095112112"><ele>425.0</ele><time>2026-04-07T12:03:11Z</time></trkpt><trkpt lat="45.918199541955325" lon="12.062297784449107"><ele>427.5</ele><time>2026-04-07T12:03:12Z</time></trkpt><trkpt lat="45.91809615585657" lon="12.062227884858142"><ele>430.0</ele><time>2026-04-07T12:03:13Z</time></trkpt><trkpt lat="45.91798748630165" lon="12.062193337378398"><ele>432.5</ele><time>2026-04-07T12:03:14Z</time></trkpt><trkpt lat="45.91787707838616" lon="12.06219167216473"><ele>435.0</ele><time>2026-04-07T12:03:15Z</time></trkpt><trkpt lat="45.917769752379535" lon="12.062279793671598"><ele>435.0</ele><time>2026-04-07T12:03:16Z</time></trkpt><trkpt lat="45.91767422779557" lon="12.062384934925396"><ele>435.0</ele><time>2026-04-07T12:03:17Z</time></trkpt><trkpt lat="45.91760177638176" lon="12.062486401357846"><ele>435.0</ele><time>2026-04-07T12:03:18Z</time></trkpt><trkpt lat="45.91751772377063" lon="12.062550941251947"><ele>435.0</ele><time>2026-04-07T12:03:19.001Z</time></trkpt><trkpt lat="45.917423892499485" lon="12.062530004523916"><ele>435.0</ele><time>2026-04-07T12:03:20.001Z</time></trkpt><trkpt lat="45.91731031762426" lon="12.062503243296382"><ele>428.5</ele><time>2026-04-07T12:03:21.001Z</time></trkpt><trkpt lat="45.91717079215429" lon="12.062462995432021"><ele>422.0</ele><time>2026-04-07T12:03:22.001Z</time></trkpt><trkpt lat="45.917049852457964" lon="12.062426100171036"><ele>415.5</ele><time>2026-04-07T12:03:23.001Z</time></trkpt><trkpt lat="45.91695281939759" lon="12.062376160660857"><ele>409.0</ele><time>2026-04-07T12:03:24.001Z</time></trkpt><trkpt lat="45.91687323996736" lon="12.062333073951592"><ele>409.0</ele><time>2026-04-07T12:03:25.001Z</time></trkpt><trkpt lat="45.916828318613334" lon="12.062225958864573"><ele>409.0</ele><time>2026-04-07T12:03:26.001Z</time></trkpt><trkpt lat="45.91680239845565" lon="12.06209646322428"><ele>409.0</ele><time>2026-04-07T12:03:27.001Z</time></trkpt><trkpt lat="45.916797708688236" lon="12.061935309420699"><ele>409.0</ele><time>2026-04-07T12:03:28.001Z</time></trkpt><trkpt lat="45.91681066087546" lon="12.06175275896255"><ele>409.0</ele><time>2026-04-07T12:03:29.001Z</time></trkpt><trkpt lat="45.91681909690579" lon="12.06155735375649"><ele>411.25</ele><time>2026-04-07T12:03:30.001Z</time></trkpt><trkpt lat="45.916828372739644" lon="12.06135014253764"><ele>413.5</ele><time>2026-04-07T12:03:31.001Z</time></trkpt><trkpt lat="45.916836032665636" lon="12.06114940422242"><ele>415.75</ele><time>2026-04-07T12:03:32.001Z</time></trkpt><trkpt lat="45.91684800222294" lon="12.060964587370217"><ele>418.0</ele><time>2026-04-07T12:03:33.001Z</time></trkpt><trkpt lat="45.916861144770145" lon="12.060784797715597"><ele>421.5</ele><time>2026-04-07T12:03:34.001Z</time></trkpt><trkpt lat="45.91686618250038" lon="12.060616258447034"><ele>425.0</ele><time>2026-04-07T12:03:35.001Z</time></trkpt><trkpt lat="45.916845071770695" lon="12.060461635652766"><ele>428.5</ele><time>2026-04-07T12:03:36.001Z</time></trkpt><trkpt lat="45.91679191777193" lon="12.060321994353096"><ele>432.0</ele><time>2026-04-07T12:03:37.001Z</time></trkpt><trkpt lat="45.91671046954024" lon="12.060203361211546"><ele>426.75</ele><time>2026-04-07T12:03:38.001Z</time></trkpt><trkpt lat="45.91660366539582" lon="12.060108810345719"><ele>421.5</ele><time>2026-04-07T12:03:39.001Z</time></trkpt><trkpt lat="45.916481585814395" lon="12.060031188527264"><ele>416.25</ele><time>2026-04-07T12:03:40.001Z</time></trkpt><trkpt lat="45.91633363336017" lon="12.059941134143326"><ele>411.0</ele><time>2026-04-07T12:03:41.001Z</time></trkpt><trkpt lat="45.916178832697575" lon="12.059832614372603"><ele>411.0</ele><time>2026-04-07T12:03:42.001Z</time></trkpt><trkpt lat="45.91603671025971" lon="12.059730390253426"><ele>411.0</ele><time>2026-04-07T12:03:43.001Z</time></trkpt><trkpt lat="45.91588332997601" lon="12.059630088968312"><ele>411.0</ele><time>2026-04-07T12:03:44.001Z</time></trkpt><trkpt lat="45.915739849704764" lon="12.059534516982383"><ele>403.25</ele><time>2026-04-07T12:03:45.001Z</time></trkpt><trkpt lat="45.915618832119435" lon="12.059465188156198"><ele>395.5</ele><time>2026-04-07T12:03:46.001Z</time></trkpt><trkpt lat="45.91549869197505" lon="12.05943757114638"><ele>387.75</ele><time>2026-04-07T12:03:47.001Z</time></trkpt><trkpt lat="45.91537880265746" lon="12.059446359818235"><ele>380.0</ele><time>2026-04-07T12:03:48.001Z</time></trkpt><trkpt lat="45.915263061641205" lon="12.05947626718007"><ele>380.0</ele><time>2026-04-07T12:03:49.001Z</time></trkpt><trkpt lat="45.91515866626957" lon="12.059487276143809"><ele>380.0</ele><time>2026-04-07T12:03:50.001Z</time></trkpt><trkpt lat="45.91506036877615" lon="12.059465188414478"><ele>380.0</ele><time>2026-04-07T12:03:51.001Z</time></trkpt><trkpt lat="45.91496934556387" lon="12.059405917069189"><ele>380.0</ele><time>2026-04-07T12:03:52.001Z</time></trkpt><trkpt lat="45.91489429193105" lon="12.059312310267032"><ele>380.0</ele><time>2026-04-07T12:03:53.001Z</time></trkpt><trkpt lat="45.91483614929719" lon="12.059215777764079"><ele>375.4</ele><time>2026-04-07T12:03:54.001Z</time></trkpt><trkpt lat="45.914805058031135" lon="12.059102831772504"><ele>370.8</ele><time>2026-04-07T12:03:55.001Z</time></trkpt><trkpt lat="45.91480953114637" lon="12.05898011552659"><ele>366.20000000000005</ele><time>2026-04-07T12:03:56.001Z</time></trkpt><trkpt lat="45.9148558696691" lon="12.058876904206867"><ele>361.6</ele><time>2026-04-07T12:03:57.001Z</time></trkpt><trkpt lat="45.91493782657322" lon="12.05878032615554"><ele>357.0</ele><time>2026-04-07T12:03:58.001Z</time></trkpt><trkpt lat="45.915027131287474" lon="12.058662487939415"><ele>363.0</ele><time>2026-04-07T12:03:59.001Z</time></trkpt><trkpt lat="45.915079167878446" lon="12.058514659864755"><ele>369.0</ele><time>2026-04-07T12:04:00Z</time></trkpt><trkpt lat="45.91509819911227" lon="12.058325504982516"><ele>375.0</ele><time>2026-04-07T12:04:01Z</time></trkpt><trkpt lat="45.915106537847976" lon="12.058084465818885"><ele>381.0</ele><time>2026-04-07T12:04:02Z</time></trkpt><trkpt lat="45.915106732274246" lon="12.0578306057582"><ele>381.0</ele><time>2026-04-07T12:04:03Z</time></trkpt><trkpt lat="45.915104635526625" lon="12.057588370670713"><ele>381.0</ele><time>2026-04-07T12:04:04Z</time></trkpt><trkpt lat="45.91510856811889" lon="12.057394707652165"><ele>381.0</ele><time>2026-04-07T12:04:05Z</time></trkpt><trkpt lat="45.91511045244415" lon="12.057235090526419"><ele>381.0</ele><time>2026-04-07T12:04:06Z</time></trkpt><trkpt lat="45.91509812541528" lon="12.057094254682525"><ele>373.75</ele><time>2026-04-07T12:04:07Z</time></trkpt><trkpt lat="45.91505390651349" lon="12.056963078206312"><ele>366.5</ele><time>2026-04-07T12:04:08Z</time></trkpt><trkpt lat="45.91498073860205" lon="12.056840246749566"><ele>359.25</ele><time>2026-04-07T12:04:09Z</time></trkpt><trkpt lat="45.91487612208087" lon="12.056734892745467"><ele>352.0</ele><time>2026-04-07T12:04:10Z</time></trkpt><trkpt lat="45.91475523140244" lon="12.056603219810343"><ele>351.25</ele><time>2026-04-07T12:04:11Z</time></trkpt><trkpt lat="45.91462182944554" lon="12.056471496290662"><ele>350.5</ele><time>2026-04-07T12:04:12Z</time></trkpt><trkpt lat="45.91450586738538" lon="12.05638254331966"><ele>349.75</ele><time>2026-04-07T12:04:13Z</time></trkpt><trkpt lat="45.9144176570728" lon="12.05629307224565"><ele>349.0</ele><time>2026-04-07T12:04:14Z</time></trkpt><trkpt lat="45.91435675137099" lon="12.056202098192184"><ele>349.0</ele><time>2026-04-07T12:04:15Z</time></trkpt><trkpt lat="45.91433125743138" lon="12.056089489873806"><ele>349.0</ele><time>2026-04-07T12:04:16Z</time></trkpt><trkpt lat="45.91434247594149" lon="12.05597002626534"><ele>349.0</ele><time>2026-04-07T12:04:17Z</time></trkpt><trkpt lat="45.914388691225135" lon="12.055871533735052"><ele>349.0</ele><time>2026-04-07T12:04:18Z</time></trkpt><trkpt lat="45.914466602576596" lon="12.055818635487018"><ele>349.0</ele><time>2026-04-07T12:04:19Z</time></trkpt><trkpt lat="45.91457023828849" lon="12.05578924577793"><ele>349.0</ele><time>2026-04-07T12:04:20Z</time></trkpt><trkpt lat="45.91469076886168" lon="12.055780907291766"><ele>347.4</ele><time>2026-04-07T12:04:21Z</time></trkpt><trkpt lat="45.91478786580989" lon="12.055769019081543"><ele>345.79999999999995</ele><time>2026-04-07T12:04:22Z</time></trkpt><trkpt lat="45.91486619685859" lon="12.055711853107079"><ele>344.20000000000005</ele><time>2026-04-07T12:04:23Z</time></trkpt><trkpt lat="45.914924866011546" lon="12.05562155924993"><ele>342.6</ele><time>2026-04-07T12:04:24Z</time></trkpt><trkpt lat="45.91495499473354" lon="12.055500674082236"><ele>341.0</ele><time>2026-04-07T12:04:25Z</time></trkpt><trkpt lat="45.91494924331052" lon="12.055372667535789"><ele>341.0</ele><time>2026-04-07T12:04:26Z</time></trkpt><trkpt lat="45.91491217713055" lon="12.055217919835425"><ele>341.0</ele><time>2026-04-07T12:04:27Z</time></trkpt><trkpt lat="45.914867925834976" lon="12.05502572244462"><ele>341.0</ele><time>2026-04-07T12:04:28Z</time></trkpt><trkpt lat="45.91482372889301" lon="12.054810642435903"><ele>341.0</ele><time>2026-04-07T12:04:29Z</time></trkpt><trkpt lat="45.91478069124826" lon="12.054609083566705"><ele>340.25</ele><time>2026-04-07T12:04:30Z</time></trkpt><trkpt lat="45.914740417296464" lon="12.054419913127898"><ele>339.5</ele><time>2026-04-07T12:04:31Z</time></trkpt><trkpt lat="45.91470478321479" lon="12.054236710532233"><ele>338.75</ele><time>2026-04-07T12:04:32Z</time></trkpt><trkpt lat="45.91466151302706" lon="12.0540730795285"><ele>338.0</ele><time>2026-04-07T12:04:33Z</time></trkpt><trkpt lat="45.91458669745684" lon="12.053903009849545"><ele>340.33333333333337</ele><time>2026-04-07T12:04:34Z</time></trkpt><trkpt lat="45.914481145934204" lon="12.053709505799016"><ele>342.6666666666667</ele><time>2026-04-07T12:04:35Z</time></trkpt><trkpt lat="45.914381217038056" lon="12.053520909470373"><ele>345.0</ele><time>2026-04-07T12:04:36Z</time></trkpt><trkpt lat="45.91427070166791" lon="12.053312204785026"><ele>344.0</ele><time>2026-04-07T12:04:37Z</time></trkpt><trkpt lat="45.91416878829994" lon="12.053123893747879"><ele>343.0</ele><time>2026-04-07T12:04:38Z</time></trkpt><trkpt lat="45.91408522475601" lon="12.052967710693855"><ele>342.0</ele><time>2026-04-07T12:04:39Z</time></trkpt><trkpt lat="45.91401683705788" lon="12.052851880669511"><ele>341.0</ele><time>2026-04-07T12:04:40Z</time></trkpt><trkpt lat="45.91392928473427" lon="12.052764363214198"><ele>341.0</ele><time>2026-04-07T12:04:41Z</time></trkpt><trkpt lat="45.913835999939906" lon="12.05268881715809"><ele>341.0</ele><time>2026-04-07T12:04:42Z</time></trkpt><trkpt lat="45.91371915918415" lon="12.052699822297752"><ele>341.0</ele><time>2026-04-07T12:04:43Z</time></trkpt><trkpt lat="45.91359167792444" lon="12.05272423097708"><ele>341.0</ele><time>2026-04-07T12:04:44Z</time></trkpt><trkpt lat="45.913432988276035" lon="12.052770111464712"><ele>337.33333333333337</ele><time>2026-04-07T12:04:45Z</time></trkpt><trkpt lat="45.91324152897086" lon="12.052807071545088"><ele>333.6666666666667</ele><time>2026-04-07T12:04:46Z</time></trkpt><trkpt lat="45.91306728642687" lon="12.052842021483585"><ele>330.0</ele><time>2026-04-07T12:04:47Z</time></trkpt><trkpt lat="45.912883975324995" lon="12.0528818686167"><ele>330.0</ele><time>2026-04-07T12:04:48Z</time></trkpt><trkpt lat="45.91268901336438" lon="12.052931044977525"><ele>330.0</ele><time>2026-04-07T12:04:49Z</time></trkpt><trkpt lat="45.912506433675716" lon="12.052971737755316"><ele>330.0</ele><time>2026-04-07T12:04:50Z</time></trkpt><trkpt lat="45.91234148887881" lon="12.053002824454678"><ele>329.0</ele><time>2026-04-07T12:04:51Z</time></trkpt><trkpt lat="45.912205042278536" lon="12.053030062456966"><ele>328.0</ele><time>2026-04-07T12:04:52.001Z</time></trkpt><trkpt lat="45.91209107088661" lon="12.05306477688834"><ele>327.0</ele><time>2026-04-07T12:04:53.001Z</time></trkpt><trkpt lat="45.91198590686196" lon="12.053139574723906"><ele>326.0</ele><time>2026-04-07T12:04:54.001Z</time></trkpt><trkpt lat="45.91188921622935" lon="12.053260844932545"><ele>323.5</ele><time>2026-04-07T12:04:55.001Z</time></trkpt><trkpt lat="45.911778371130445" lon="12.053388409890601"><ele>321.0</ele><time>2026-04-07T12:04:56.001Z</time></trkpt><trkpt lat="45.91165046183161" lon="12.053480922789548"><ele>318.5</ele><time>2026-04-07T12:04:57.001Z</time></trkpt><trkpt lat="45.911520209560535" lon="12.053526101025103"><ele>316.0</ele><time>2026-04-07T12:04:58.001Z</time></trkpt><trkpt lat="45.91138320345542" lon="12.053551830226162"><ele>316.0</ele><time>2026-04-07T12:04:59.001Z</time></trkpt><trkpt lat="45.911225243842715" lon="12.053554972877519"><ele>316.0</ele><time>2026-04-07T12:05:00.001Z</time></trkpt><trkpt lat="45.91104817763742" lon="12.053547290817473"><ele>316.0</ele><time>2026-04-07T12:05:01.001Z</time></trkpt><trkpt lat="45.91089344366788" lon="12.053552564824882"><ele>314.0</ele><time>2026-04-07T12:05:02.001Z</time></trkpt><trkpt lat="45.9107630311113" lon="12.053536873319107"><ele>312.0</ele><time>2026-04-07T12:05:03.001Z</time></trkpt><trkpt lat="45.91064219701196" lon="12.053523712048499"><ele>310.0</ele><time>2026-04-07T12:05:04.001Z</time></trkpt><trkpt lat="45.91053946229071" lon="12.053456753277672"><ele>308.0</ele><time>2026-04-07T12:05:05.001Z</time></trkpt><trkpt lat="45.91044565768798" lon="12.053364622426145"><ele>316.33333333333337</ele><time>2026-04-07T12:05:06.001Z</time></trkpt><trkpt lat="45.91035076534611" lon="12.05324212667585"><ele>324.6666666666667</ele><time>2026-04-07T12:05:07.001Z</time></trkpt><trkpt lat="45.91023600417503" lon="12.053090270823242"><ele>333.0</ele><time>2026-04-07T12:05:08.001Z</time></trkpt><trkpt lat="45.91010227137991" lon="12.052914162753819"><ele>332.3333333333333</ele><time>2026-04-07T12:05:09.001Z</time></trkpt><trkpt lat="45.90998667161064" lon="12.052737582560633"><ele>331.66666666666663</ele><time>2026-04-07T12:05:10.001Z</time></trkpt><trkpt lat="45.90988309021477" lon="12.052568133501277"><ele>331.0</ele><time>2026-04-07T12:05:11.001Z</time></trkpt><trkpt lat="45.90978201328565" lon="12.052339533232342"><ele>331.0</ele><time>2026-04-07T12:05:12.001Z</time></trkpt><trkpt lat="45.90966051686931" lon="12.052088927910397"><ele>331.0</ele><time>2026-04-07T12:05:13.001Z</time></trkpt><trkpt lat="45.90954617613533" lon="12.051874718794709"><ele>331.0</ele><time>2026-04-07T12:05:14.001Z</time></trkpt><trkpt lat="45.909418339583205" lon="12.051666978778593"><ele>326.3333333333333</ele><time>2026-04-07T12:05:15.001Z</time></trkpt><trkpt lat="45.90928813591393" lon="12.051478277187346"><ele>321.6666666666667</ele><time>2026-04-07T12:05:16.001Z</time></trkpt><trkpt lat="45.90917573663361" lon="12.051303888938108"><ele>317.0</ele><time>2026-04-07T12:05:17.001Z</time></trkpt><trkpt lat="45.90907885254107" lon="12.051137717363796"><ele>317.0</ele><time>2026-04-07T12:05:18.001Z</time></trkpt><trkpt lat="45.90898124543725" lon="12.050980308024345"><ele>317.0</ele><time>2026-04-07T12:05:19.001Z</time></trkpt><trkpt lat="45.90885154440395" lon="12.05076753250266"><ele>317.0</ele><time>2026-04-07T12:05:20.001Z</time></trkpt><trkpt lat="45.90875463299725" lon="12.050526890499075"><ele>318.5</ele><time>2026-04-07T12:05:21.001Z</time></trkpt><trkpt lat="45.90864265746929" lon="12.050356679105814"><ele>320.0</ele><time>2026-04-07T12:05:22.001Z</time></trkpt><trkpt lat="45.90855467503194" lon="12.050199594184688"><ele>321.5</ele><time>2026-04-07T12:05:23.001Z</time></trkpt><trkpt lat="45.90846624545202" lon="12.050065227266304"><ele>323.0</ele><time>2026-04-07T12:05:24.001Z</time></trkpt><trkpt lat="45.90835156414517" lon="12.049876265569969"><ele>323.0</ele><time>2026-04-07T12:05:25.001Z</time></trkpt><trkpt lat="45.908189697577505" lon="12.049734683562914"><ele>323.0</ele><time>2026-04-07T12:05:26.001Z</time></trkpt><trkpt lat="45.908061084443766" lon="12.049588799902363"><ele>323.0</ele><time>2026-04-07T12:05:27.001Z</time></trkpt><trkpt lat="45.90793701330304" lon="12.049476563851362"><ele>323.0</ele><time>2026-04-07T12:05:28.001Z</time></trkpt><trkpt lat="45.90782452952853" lon="12.049383063952801"><ele>323.0</ele><time>2026-04-07T12:05:29.001Z</time></trkpt><trkpt lat="45.90771885573555" lon="12.049284530369311"><ele>323.0</ele><time>2026-04-07T12:05:30.001Z</time></trkpt><trkpt lat="45.907557598643784" lon="12.049190739235005"><ele>323.0</ele><time>2026-04-07T12:05:31.001Z</time></trkpt><trkpt lat="45.90735654218418" lon="12.049131931363481"><ele>324.33333333333337</ele><time>2026-04-07T12:05:32.001Z</time></trkpt><trkpt lat="45.9071849002772" lon="12.049099253040527"><ele>325.6666666666667</ele><time>2026-04-07T12:05:33.001Z</time></trkpt><trkpt lat="45.907011465130715" lon="12.049045713643784"><ele>327.0</ele><time>2026-04-07T12:05:34.001Z</time></trkpt><trkpt lat="45.90685696809571" lon="12.048995586101933"><ele>323.25</ele><time>2026-04-07T12:05:35.001Z</time></trkpt><trkpt lat="45.906722504595" lon="12.04895790909285"><ele>319.5</ele><time>2026-04-07T12:05:36.001Z</time></trkpt><trkpt lat="45.90660149817034" lon="12.048918109841871"><ele>315.75</ele><time>2026-04-07T12:05:37.001Z</time></trkpt><trkpt lat="45.906491599943664" lon="12.048846272820036"><ele>312.0</ele><time>2026-04-07T12:05:38.001Z</time></trkpt><trkpt lat="45.906408784754255" lon="12.048747766261641"><ele>312.0</ele><time>2026-04-07T12:05:39.001Z</time></trkpt><trkpt lat="45.90633209197011" lon="12.048620132644853"><ele>312.0</ele><time>2026-04-07T12:05:40.001Z</time></trkpt><trkpt lat="45.90626864162313" lon="12.048469875693451"><ele>312.0</ele><time>2026-04-07T12:05:41.001Z</time></trkpt><trkpt lat="45.90622461968046" lon="12.048273206425081"><ele>312.0</ele><time>2026-04-07T12:05:42.001Z</time></trkpt><trkpt lat="45.90619444792098" lon="12.048052014723474"><ele>313.0</ele><time>2026-04-07T12:05:43.001Z</time></trkpt><trkpt lat="45.906171570547684" lon="12.047794088620025"><ele>314.0</ele><time>2026-04-07T12:05:44.001Z</time></trkpt><trkpt lat="45.90614977933854" lon="12.047532791151637"><ele>315.0</ele><time>2026-04-07T12:05:45.001Z</time></trkpt><trkpt lat="45.906123981932375" lon="12.047305453461192"><ele>316.3333333333333</ele><time>2026-04-07T12:05:46.001Z</time></trkpt><trkpt lat="45.90607462471589" lon="12.04708225114212"><ele>317.66666666666663</ele><time>2026-04-07T12:05:47.001Z</time></trkpt><trkpt lat="45.905989608304544" lon="12.046848750419729"><ele>319.0</ele><time>2026-04-07T12:05:48.001Z</time></trkpt><trkpt lat="45.9059049756208" lon="12.046616944292053"><ele>312.3333333333333</ele><time>2026-04-07T12:05:49.001Z</time></trkpt><trkpt lat="45.905847480523676" lon="12.046382931699146"><ele>305.6666666666667</ele><time>2026-04-07T12:05:50.001Z</time></trkpt><trkpt lat="45.905808101279064" lon="12.046130402961694"><ele>299.0</ele><time>2026-04-07T12:05:51.001Z</time></trkpt><trkpt lat="45.90579874870704" lon="12.045896917569259"><ele>301.33333333333337</ele><time>2026-04-07T12:05:52.001Z</time></trkpt><trkpt lat="45.90577983795318" lon="12.045704331992184"><ele>303.6666666666667</ele><time>2026-04-07T12:05:53.001Z</time></trkpt><trkpt lat="45.905730268718955" lon="12.045511486852492"><ele>306.0</ele><time>2026-04-07T12:05:54.001Z</time></trkpt><trkpt lat="45.905645045216176" lon="12.04529540645892"><ele>306.0</ele><time>2026-04-07T12:05:55.001Z</time></trkpt><trkpt lat="45.905546496973415" lon="12.045065770056842"><ele>306.0</ele><time>2026-04-07T12:05:56.001Z</time></trkpt><trkpt lat="45.9054556425671" lon="12.044851465704632"><ele>306.0</ele><time>2026-04-07T12:05:57.001Z</time></trkpt><trkpt lat="45.905375086828926" lon="12.044632639327855"><ele>309.0</ele><time>2026-04-07T12:05:58.001Z</time></trkpt><trkpt lat="45.90531922021655" lon="12.044404041550154"><ele>312.0</ele><time>2026-04-07T12:05:59.001Z</time></trkpt><trkpt lat="45.90528250763406" lon="12.044145779615672"><ele>315.0</ele><time>2026-04-07T12:06:00.002Z</time></trkpt><trkpt lat="45.90523797524083" lon="12.043888395045697"><ele>317.3333333333333</ele><time>2026-04-07T12:06:01.002Z</time></trkpt><trkpt lat="45.905162536938455" lon="12.043654591748489"><ele>319.66666666666663</ele><time>2026-04-07T12:06:02.002Z</time></trkpt><trkpt lat="45.905058903795265" lon="12.043429867054492"><ele>322.0</ele><time>2026-04-07T12:06:03.002Z</time></trkpt><trkpt lat="45.904969867460466" lon="12.043239264655453"><ele>317.0</ele><time>2026-04-07T12:06:04.002Z</time></trkpt><trkpt lat="45.904908942708126" lon="12.04304567698458"><ele>312.0</ele><time>2026-04-07T12:06:05.002Z</time></trkpt><trkpt lat="45.904870495317205" lon="12.042828576069802"><ele>307.0</ele><time>2026-04-07T12:06:06.001Z</time></trkpt><trkpt lat="45.90485078893115" lon="12.04262476302609"><ele>302.0</ele><time>2026-04-07T12:06:07.001Z</time></trkpt><trkpt lat="45.904852216483185" lon="12.042447045565002"><ele>300.5</ele><time>2026-04-07T12:06:08.001Z</time></trkpt><trkpt lat="45.904880492799386" lon="12.0422929688184"><ele>299.0</ele><time>2026-04-07T12:06:09.001Z</time></trkpt><trkpt lat="45.904934381510486" lon="12.042154881190626"><ele>297.5</ele><time>2026-04-07T12:06:10.001Z</time></trkpt><trkpt lat="45.90501562203913" lon="12.042034443324594"><ele>296.0</ele><time>2026-04-07T12:06:11.001Z</time></trkpt><trkpt lat="45.90512128631182" lon="12.041895671897155"><ele>303.75</ele><time>2026-04-07T12:06:12.001Z</time></trkpt><trkpt lat="45.905229538754206" lon="12.041739335665909"><ele>311.5</ele><time>2026-04-07T12:06:13.001Z</time></trkpt><trkpt lat="45.90531865607686" lon="12.041606300530887"><ele>319.25</ele><time>2026-04-07T12:06:14.001Z</time></trkpt><trkpt lat="45.90538625891609" lon="12.041456026831323"><ele>327.0</ele><time>2026-04-07T12:06:15.001Z</time></trkpt><trkpt lat="45.90543202756991" lon="12.041268660490854"><ele>327.0</ele><time>2026-04-07T12:06:16.001Z</time></trkpt><trkpt lat="45.90545132680721" lon="12.04108126944372"><ele>327.0</ele><time>2026-04-07T12:06:17.001Z</time></trkpt><trkpt lat="45.9054425381376" lon="12.04089070135977"><ele>327.0</ele><time>2026-04-07T12:06:18.001Z</time></trkpt><trkpt lat="45.90539872421876" lon="12.040701692986168"><ele>327.0</ele><time>2026-04-07T12:06:19Z</time></trkpt><trkpt lat="45.90533088250832" lon="12.040485387578235"><ele>329.0</ele><time>2026-04-07T12:06:20Z</time></trkpt><trkpt lat="45.90524328670427" lon="12.040226694419612"><ele>331.0</ele><time>2026-04-07T12:06:21Z</time></trkpt><trkpt lat="45.90517116698148" lon="12.040015450030033"><ele>333.0</ele><time>2026-04-07T12:06:22Z</time></trkpt><trkpt lat="45.905112661945154" lon="12.039819716223112"><ele>327.25</ele><time>2026-04-07T12:06:23Z</time></trkpt><trkpt lat="45.90506950324272" lon="12.039632608577676"><ele>321.5</ele><time>2026-04-07T12:06:24.001Z</time></trkpt><trkpt lat="45.90504968043638" lon="12.039450185900908"><ele>315.75</ele><time>2026-04-07T12:06:25.001Z</time></trkpt><trkpt lat="45.905050646398095" lon="12.039239067236508"><ele>310.0</ele><time>2026-04-07T12:06:26.001Z</time></trkpt><trkpt lat="45.905065364941045" lon="12.038991500187821"><ele>316.66666666666663</ele><time>2026-04-07T12:06:27.001Z</time></trkpt><trkpt lat="45.90508466730627" lon="12.038734076630966"><ele>323.3333333333333</ele><time>2026-04-07T12:06:28.001Z</time></trkpt><trkpt lat="45.905112505401945" lon="12.038521032194168"><ele>330.0</ele><time>2026-04-07T12:06:29.001Z</time></trkpt><trkpt lat="45.90515210001424" lon="12.038330359295855"><ele>328.3333333333333</ele><time>2026-04-07T12:06:30.001Z</time></trkpt><trkpt lat="45.905219521000454" lon="12.038123221163401"><ele>326.66666666666663</ele><time>2026-04-07T12:06:31.001Z</time></trkpt><trkpt lat="45.905312445211585" lon="12.037890687779354"><ele>325.0</ele><time>2026-04-07T12:06:32.001Z</time></trkpt><trkpt lat="45.9054247810159" lon="12.037614597900319"><ele>323.66666666666663</ele><time>2026-04-07T12:06:33.001Z</time></trkpt><trkpt lat="45.90553036932144" lon="12.037353796595847"><ele>322.3333333333333</ele><time>2026-04-07T12:06:34.001Z</time></trkpt><trkpt lat="45.90563148867888" lon="12.037116501293388"><ele>321.0</ele><time>2026-04-07T12:06:35.001Z</time></trkpt><trkpt lat="45.905720678817765" lon="12.03690908611271"><ele>321.0</ele><time>2026-04-07T12:06:36.001Z</time></trkpt><trkpt lat="45.905798502961396" lon="12.036703129117024"><ele>321.0</ele><time>2026-04-07T12:06:37.001Z</time></trkpt><trkpt lat="45.905856861725674" lon="12.036470755215358"><ele>321.0</ele><time>2026-04-07T12:06:38.001Z</time></trkpt><trkpt lat="45.90589284604855" lon="12.036217703184278"><ele>320.3333333333333</ele><time>2026-04-07T12:06:39.001Z</time></trkpt><trkpt lat="45.90590498988775" lon="12.035949686110968"><ele>319.66666666666663</ele><time>2026-04-07T12:06:40.001Z</time></trkpt><trkpt lat="45.90589909973791" lon="12.035658482237483"><ele>319.0</ele><time>2026-04-07T12:06:41.001Z</time></trkpt><trkpt lat="45.90587166190786" lon="12.035360932359682"><ele>320.3333333333333</ele><time>2026-04-07T12:06:42.001Z</time></trkpt><trkpt lat="45.90584200185102" lon="12.035098725377093"><ele>321.6666666666667</ele><time>2026-04-07T12:06:43.001Z</time></trkpt><trkpt lat="45.905803671720726" lon="12.034863411784396"><ele>323.0</ele><time>2026-04-07T12:06:44.001Z</time></trkpt><trkpt lat="45.905746012055275" lon="12.034652421821335"><ele>327.25</ele><time>2026-04-07T12:06:45.001Z</time></trkpt><trkpt lat="45.90566224938861" lon="12.034477661874032"><ele>331.5</ele><time>2026-04-07T12:06:46.001Z</time></trkpt><trkpt lat="45.90555847768619" lon="12.034347562885712"><ele>335.75</ele><time>2026-04-07T12:06:47.001Z</time></trkpt><trkpt lat="45.905430572869605" lon="12.034240858412998"><ele>340.0</ele><time>2026-04-07T12:06:48.001Z</time></trkpt><trkpt lat="45.90528381403126" lon="12.034119747269042"><ele>340.0</ele><time>2026-04-07T12:06:49.001Z</time></trkpt><trkpt lat="45.90515492816045" lon="12.033957245973276"><ele>340.0</ele><time>2026-04-07T12:06:50.001Z</time></trkpt><trkpt lat="45.90502373192368" lon="12.033750429683604"><ele>340.0</ele><time>2026-04-07T12:06:51.001Z</time></trkpt><trkpt lat="45.90489366538011" lon="12.033502474781868"><ele>346.66666666666663</ele><time>2026-04-07T12:06:52.001Z</time></trkpt><trkpt lat="45.90477873411569" lon="12.03325558604214"><ele>353.3333333333333</ele><time>2026-04-07T12:06:53.001Z</time></trkpt><trkpt lat="45.90469477313738" lon="12.033032749086207"><ele>360.0</ele><time>2026-04-07T12:06:54.001Z</time></trkpt><trkpt lat="45.90461843798555" lon="12.032769326643987"><ele>370.0</ele><time>2026-04-07T12:06:55.001Z</time></trkpt><trkpt lat="45.904537145552105" lon="12.032468768898863"><ele>380.0</ele><time>2026-04-07T12:06:56.001Z</time></trkpt><trkpt lat="45.90444812854907" lon="12.032125927572626"><ele>380.0</ele><time>2026-04-07T12:06:57.001Z</time></trkpt><trkpt lat="45.90436573774569" lon="12.031795082965074"><ele>380.0</ele><time>2026-04-07T12:06:58.001Z</time></trkpt><trkpt lat="45.90430758934078" lon="12.031554392881166"><ele>380.0</ele><time>2026-04-07T12:06:59.001Z</time></trkpt><trkpt lat="45.9042563424677" lon="12.031372131740723"><ele>373.6666666666667</ele><time>2026-04-07T12:07:00.001Z</time></trkpt><trkpt lat="45.90417968599903" lon="12.031197849544778"><ele>367.3333333333333</ele><time>2026-04-07T12:07:01.001Z</time></trkpt><trkpt lat="45.90406811389438" lon="12.031041900873714"><ele>361.0</ele><time>2026-04-07T12:07:02.001Z</time></trkpt><trkpt lat="45.90391944490243" lon="12.03092174208517"><ele>361.0</ele><time>2026-04-07T12:07:03.001Z</time></trkpt><trkpt lat="45.9037453535541" lon="12.030829545443027"><ele>361.0</ele><time>2026-04-07T12:07:04.001Z</time></trkpt><trkpt lat="45.90358596934292" lon="12.030725866428051"><ele>361.0</ele><time>2026-04-07T12:07:05.001Z</time></trkpt><trkpt lat="45.9034550570821" lon="12.030638234795433"><ele>358.5</ele><time>2026-04-07T12:07:06.001Z</time></trkpt><trkpt lat="45.903338971349825" lon="12.03054948838756"><ele>356.0</ele><time>2026-04-07T12:07:07.001Z</time></trkpt><trkpt lat="45.903243677446724" lon="12.03042325918008"><ele>353.5</ele><time>2026-04-07T12:07:08.001Z</time></trkpt><trkpt lat="45.90315808880348" lon="12.030257437923808"><ele>351.0</ele><time>2026-04-07T12:07:09.001Z</time></trkpt><trkpt lat="45.90309795239885" lon="12.030079183301117"><ele>350.0</ele><time>2026-04-07T12:07:10.001Z</time></trkpt><trkpt lat="45.90305408298894" lon="12.029896746829081"><ele>349.0</ele><time>2026-04-07T12:07:11.001Z</time></trkpt><trkpt lat="45.90304364408906" lon="12.02973095549242"><ele>348.0</ele><time>2026-04-07T12:07:12.001Z</time></trkpt><trkpt lat="45.90306493147637" lon="12.029556736159732"><ele>347.0</ele><time>2026-04-07T12:07:13.001Z</time></trkpt><trkpt lat="45.9031086321924" lon="12.029390647269976"><ele>347.0</ele><time>2026-04-07T12:07:14.001Z</time></trkpt><trkpt lat="45.903171170479574" lon="12.029263072131831"><ele>347.0</ele><time>2026-04-07T12:07:15.001Z</time></trkpt><trkpt lat="45.90327386923777" lon="12.029126149861499"><ele>347.0</ele><time>2026-04-07T12:07:16.001Z</time></trkpt><trkpt lat="45.90339193784849" lon="12.028987589207812"><ele>347.0</ele><time>2026-04-07T12:07:17.001Z</time></trkpt><trkpt lat="45.903475203391146" lon="12.02887093387703"><ele>352.25</ele><time>2026-04-07T12:07:18.001Z</time></trkpt><trkpt lat="45.903519601383934" lon="12.028727458090035"><ele>357.5</ele><time>2026-04-07T12:07:19.001Z</time></trkpt><trkpt lat="45.90353148294803" lon="12.028569304285107"><ele>362.75</ele><time>2026-04-07T12:07:20.001Z</time></trkpt><trkpt lat="45.903505657841535" lon="12.028416449118172"><ele>368.0</ele><time>2026-04-07T12:07:21.001Z</time></trkpt><trkpt lat="45.90344318766658" lon="12.028252401812125"><ele>364.25</ele><time>2026-04-07T12:07:22.001Z</time></trkpt><trkpt lat="45.90335696589249" lon="12.028071730534625"><ele>360.5</ele><time>2026-04-07T12:07:23.001Z</time></trkpt><trkpt lat="45.903284938527925" lon="12.027928569128063"><ele>356.75</ele><time>2026-04-07T12:07:24.001Z</time></trkpt><trkpt lat="45.90325144121878" lon="12.027788488455256"><ele>353.0</ele><time>2026-04-07T12:07:25.001Z</time></trkpt><trkpt lat="45.90321122860782" lon="12.027650522135662"><ele>353.0</ele><time>2026-04-07T12:07:26.001Z</time></trkpt><trkpt lat="45.90321610056824" lon="12.027508709527893"><ele>353.0</ele><time>2026-04-07T12:07:27.001Z</time></trkpt><trkpt lat="45.90323823635132" lon="12.027361004012006"><ele>353.0</ele><time>2026-04-07T12:07:28.001Z</time></trkpt><trkpt lat="45.903268885364376" lon="12.027191703961085"><ele>353.0</ele><time>2026-04-07T12:07:29.001Z</time></trkpt><trkpt lat="45.9033188367933" lon="12.027021081895859"><ele>354.0</ele><time>2026-04-07T12:07:30.001Z</time></trkpt><trkpt lat="45.90339402767342" lon="12.026851035885908"><ele>355.0</ele><time>2026-04-07T12:07:31.001Z</time></trkpt><trkpt lat="45.90348016485959" lon="12.026713470305891"><ele>356.0</ele><time>2026-04-07T12:07:32.001Z</time></trkpt><trkpt lat="45.90357888046331" lon="12.02659407182361"><ele>357.0</ele><time>2026-04-07T12:07:33.001Z</time></trkpt><trkpt lat="45.90369484015" lon="12.02649126825589"><ele>352.3333333333333</ele><time>2026-04-07T12:07:34.001Z</time></trkpt><trkpt lat="45.90382725589631" lon="12.026406837080897"><ele>347.66666666666663</ele><time>2026-04-07T12:07:35.001Z</time></trkpt><trkpt lat="45.903980676733305" lon="12.026342899852668"><ele>343.0</ele><time>2026-04-07T12:07:36.001Z</time></trkpt><trkpt lat="45.90413127358471" lon="12.02629305105323"><ele>346.5</ele><time>2026-04-07T12:07:37.001Z</time></trkpt><trkpt lat="45.90425843451836" lon="12.026236256540264"><ele>350.0</ele><time>2026-04-07T12:07:38.001Z</time></trkpt><trkpt lat="45.90437616880262" lon="12.026141474273315"><ele>353.5</ele><time>2026-04-07T12:07:39.001Z</time></trkpt><trkpt lat="45.90446809891437" lon="12.026028419499916"><ele>357.0</ele><time>2026-04-07T12:07:40.001Z</time></trkpt><trkpt lat="45.9045329944093" lon="12.025897811307084"><ele>356.75</ele><time>2026-04-07T12:07:41.001Z</time></trkpt><trkpt lat="45.904590918378105" lon="12.02574630318764"><ele>356.5</ele><time>2026-04-07T12:07:42.001Z</time></trkpt><trkpt lat="45.90459388896703" lon="12.025541535738691"><ele>356.25</ele><time>2026-04-07T12:07:43.001Z</time></trkpt><trkpt lat="45.90458893155907" lon="12.02537565294086"><ele>356.0</ele><time>2026-04-07T12:07:44.001Z</time></trkpt><trkpt lat="45.90456158036059" lon="12.025243670043015"><ele>356.0</ele><time>2026-04-07T12:07:45.001Z</time></trkpt><trkpt lat="45.904496710580496" lon="12.025133874034413"><ele>356.0</ele><time>2026-04-07T12:07:46.001Z</time></trkpt><trkpt lat="45.9043959393559" lon="12.025030526485999"><ele>356.0</ele><time>2026-04-07T12:07:47.001Z</time></trkpt><trkpt lat="45.904262251811396" lon="12.024937666830418"><ele>356.0</ele><time>2026-04-07T12:07:48.001Z</time></trkpt><trkpt lat="45.90409956921735" lon="12.024830830811714"><ele>355.25</ele><time>2026-04-07T12:07:49.001Z</time></trkpt><trkpt lat="45.90397158877087" lon="12.024716805573219"><ele>354.5</ele><time>2026-04-07T12:07:50.001Z</time></trkpt><trkpt lat="45.90386221530398" lon="12.024635816037488"><ele>353.75</ele><time>2026-04-07T12:07:51.001Z</time></trkpt><trkpt lat="45.90377787733483" lon="12.02451700901404"><ele>353.0</ele><time>2026-04-07T12:07:52.001Z</time></trkpt><trkpt lat="45.903702689116614" lon="12.024368578701509"><ele>353.0</ele><time>2026-04-07T12:07:53.002Z</time></trkpt><trkpt lat="45.90363892635071" lon="12.024189118392972"><ele>353.0</ele><time>2026-04-07T12:07:54.002Z</time></trkpt><trkpt lat="45.903575507076994" lon="12.023964337741994"><ele>353.0</ele><time>2026-04-07T12:07:55.002Z</time></trkpt><trkpt lat="45.90349541220008" lon="12.023696910043919"><ele>351.6666666666667</ele><time>2026-04-07T12:07:56.002Z</time></trkpt><trkpt lat="45.903408925723035" lon="12.023438526919847"><ele>350.3333333333333</ele><time>2026-04-07T12:07:57.002Z</time></trkpt><trkpt lat="45.90333380993667" lon="12.023191233925303"><ele>349.0</ele><time>2026-04-07T12:07:58.002Z</time></trkpt><trkpt lat="45.90328048544322" lon="12.022993858460893"><ele>349.0</ele><time>2026-04-07T12:07:59.002Z</time></trkpt><trkpt lat="45.90322248839502" lon="12.022815345866139"><ele>349.0</ele><time>2026-04-07T12:08:00.002Z</time></trkpt><trkpt lat="45.90314620554201" lon="12.022648257861642"><ele>349.0</ele><time>2026-04-07T12:08:01.002Z</time></trkpt><trkpt lat="45.90304368531516" lon="12.022498450949861"><ele>349.0</ele><time>2026-04-07T12:08:02.002Z</time></trkpt><trkpt lat="45.902912093013185" lon="12.022369116173026"><ele>341.0</ele><time>2026-04-07T12:08:03.002Z</time></trkpt><trkpt lat="45.9033188367933" lon="12.027021081895859"><ele>341.0</ele><time>2026-04-07T12:07:30.001Z</time></trkpt><trkpt lat="45.90339402767342" lon="12.026851035885908"><ele>341.0</ele><time>2026-04-07T12:07:31.001Z</time></trkpt><trkpt lat="45.90348016485959" lon="12.026713470305891"><ele>341.0</ele><time>2026-04-07T12:07:32.001Z</time></trkpt><trkpt lat="45.90357888046331" lon="12.02659407182361"><ele>341.0</ele><time>2026-04-07T12:07:33.001Z</time></trkpt><trkpt lat="45.90369484015" lon="12.02649126825589"><ele>341.6666666666667</ele><time>2026-04-07T12:07:34.001Z</time></trkpt><trkpt lat="45.90382725589631" lon="12.026406837080897"><ele>342.3333333333333</ele><time>2026-04-07T12:07:35.001Z</time></trkpt><trkpt lat="45.903980676733305" lon="12.026342899852668"><ele>343.0</ele><time>2026-04-07T12:07:36.001Z</time></trkpt><trkpt lat="45.90413127358471" lon="12.02629305105323"><ele>346.5</ele><time>2026-04-07T12:07:37.001Z</time></trkpt><trkpt lat="45.90425843451836" lon="12.026236256540264"><ele>350.0</ele><time>2026-04-07T12:07:38.001Z</time></trkpt><trkpt lat="45.90437616880262" lon="12.026141474273315"><ele>353.5</ele><time>2026-04-07T12:07:39.001Z</time></trkpt><trkpt lat="45.90446809891437" lon="12.026028419499916"><ele>357.0</ele><time>2026-04-07T12:07:40.001Z</time></trkpt><trkpt lat="45.9045329944093" lon="12.025897811307084"><ele>356.75</ele><time>2026-04-07T12:07:41.001Z</time></trkpt><trkpt lat="45.904590918378105" lon="12.02574630318764"><ele>356.5</ele><time>2026-04-07T12:07:42.001Z</time></trkpt><trkpt lat="45.90459388896703" lon="12.025541535738691"><ele>356.25</ele><time>2026-04-07T12:07:43.001Z</time></trkpt><trkpt lat="45.90458893155907" lon="12.02537565294086"><ele>356.0</ele><time>2026-04-07T12:07:44.001Z</time></trkpt><trkpt lat="45.90456158036059" lon="12.025243670043015"><ele>356.0</ele><time>2026-04-07T12:07:45.001Z</time></trkpt><trkpt lat="45.904496710580496" lon="12.025133874034413"><ele>356.0</ele><time>2026-04-07T12:07:46.001Z</time></trkpt><trkpt lat="45.9043959393559" lon="12.025030526485999"><ele>356.0</ele><time>2026-04-07T12:07:47.001Z</time></trkpt><trkpt lat="45.904262251811396" lon="12.024937666830418"><ele>356.0</ele><time>2026-04-07T12:07:48.001Z</time></trkpt><trkpt lat="45.90409956921735" lon="12.024830830811714"><ele>355.25</ele><time>2026-04-07T12:07:49.001Z</time></trkpt><trkpt lat="45.90397158877087" lon="12.024716805573219"><ele>354.5</ele><time>2026-04-07T12:07:50.001Z</time></trkpt><trkpt lat="45.90386221530398" lon="12.024635816037488"><ele>353.75</ele><time>2026-04-07T12:07:51.001Z</time></trkpt><trkpt lat="45.90377787733483" lon="12.02451700901404"><ele>353.0</ele><time>2026-04-07T12:07:52.001Z</time></trkpt><trkpt lat="45.903702689116614" lon="12.024368578701509"><ele>353.0</ele><time>2026-04-07T12:07:53.002Z</time></trkpt><trkpt lat="45.90363892635071" lon="12.024189118392972"><ele>353.0</ele><time>2026-04-07T12:07:54.002Z</time></trkpt><trkpt lat="45.903575507076994" lon="12.023964337741994"><ele>353.0</ele><time>2026-04-07T12:07:55.002Z</time></trkpt><trkpt lat="45.90349541220008" lon="12.023696910043919"><ele>351.6666666666667</ele><time>2026-04-07T12:07:56.002Z</time></trkpt><trkpt lat="45.903408925723035" lon="12.023438526919847"><ele>350.3333333333333</ele><time>2026-04-07T12:07:57.002Z</time></trkpt><trkpt lat="45.90333380993667" lon="12.023191233925303"><ele>349.0</ele><time>2026-04-07T12:07:58.002Z</time></trkpt><trkpt lat="45.90328048544322" lon="12.022993858460893"><ele>349.0</ele><time>2026-04-07T12:07:59.002Z</time></trkpt><trkpt lat="45.90322248839502" lon="12.022815345866139"><ele>349.0</ele><time>2026-04-07T12:08:00.002Z</time></trkpt><trkpt lat="45.90314620554201" lon="12.022648257861642"><ele>349.0</ele><time>2026-04-07T12:08:01.002Z</time></trkpt><trkpt lat="45.90304368531516" lon="12.022498450949861"><ele>349.0</ele><time>2026-04-07T12:08:02.002Z</time></trkpt><trkpt lat="45.902912093013185" lon="12.022369116173026"><ele>350.66666666666663</ele><time>2026-04-07T12:08:03.002Z</time></trkpt><trkpt lat="45.90274623905341" lon="12.022244503796895"><ele>352.3333333333333</ele><time>2026-04-07T12:08:04.002Z</time></trkpt><trkpt lat="45.90255013947981" lon="12.022114568302158"><ele>354.0</ele><time>2026-04-07T12:08:05.002Z</time></trkpt><trkpt lat="45.90236866848983" lon="12.021987970447547"><ele>349.6666666666667</ele><time>2026-04-07T12:08:06.002Z</time></trkpt><trkpt lat="45.90219028931154" lon="12.02185460734761"><ele>345.33333333333337</ele><time>2026-04-07T12:08:07.002Z</time></trkpt><trkpt lat="45.90204286349537" lon="12.021749005954396"><ele>341.0</ele><time>2026-04-07T12:08:08.002Z</time></trkpt><trkpt lat="45.90192476094561" lon="12.02167056865182"><ele>342.0</ele><time>2026-04-07T12:08:09.002Z</time></trkpt><trkpt lat="45.90181686426946" lon="12.021593031398593"><ele>343.0</ele><time>2026-04-07T12:08:10.002Z</time></trkpt><trkpt lat="45.90172427180904" lon="12.021497792469715"><ele>344.0</ele><time>2026-04-07T12:08:11.002Z</time></trkpt><trkpt lat="45.90164399800537" lon="12.021366279977595"><ele>345.0</ele><time>2026-04-07T12:08:12.001Z</time></trkpt><trkpt lat="45.901557020913174" lon="12.021195208505477"><ele>342.6666666666667</ele><time>2026-04-07T12:08:13.001Z</time></trkpt><trkpt lat="45.90145556917638" lon="12.020990760307294"><ele>340.33333333333337</ele><time>2026-04-07T12:08:14.001Z</time></trkpt><trkpt lat="45.90133270124848" lon="12.020760448687263"><ele>338.0</ele><time>2026-04-07T12:08:15.001Z</time></trkpt><trkpt lat="45.901359816049826" lon="12.020435374425105"><ele>338.0</ele><time>2026-04-07T12:08:16.001Z</time></trkpt><trkpt lat="45.90125396735349" lon="12.02018039423213"><ele>338.0</ele><time>2026-04-07T12:08:17.001Z</time></trkpt><trkpt lat="45.90109859498117" lon="12.020027597561272"><ele>338.0</ele><time>2026-04-07T12:08:18.001Z</time></trkpt><trkpt lat="45.90101256981623" lon="12.019885326436563"><ele>336.75</ele><time>2026-04-07T12:08:19.001Z</time></trkpt><trkpt lat="45.90094696537632" lon="12.019743379546759"><ele>335.5</ele><time>2026-04-07T12:08:20.001Z</time></trkpt><trkpt lat="45.90088016107443" lon="12.019596950021375"><ele>334.25</ele><time>2026-04-07T12:08:21.001Z</time></trkpt><trkpt lat="45.900815092299204" lon="12.01945432462352"><ele>333.0</ele><time>2026-04-07T12:08:22.001Z</time></trkpt><trkpt lat="45.90074545571197" lon="12.019311094702699"><ele>329.3333333333333</ele><time>2026-04-07T12:08:23.001Z</time></trkpt><trkpt lat="45.90072942571447" lon="12.019099538300846"><ele>325.66666666666663</ele><time>2026-04-07T12:08:24.001Z</time></trkpt><trkpt lat="45.900722384993145" lon="12.018853034873835"><ele>322.0</ele><time>2026-04-07T12:08:25.001Z</time></trkpt><trkpt lat="45.90070878155686" lon="12.018571501501665"><ele>321.3333333333333</ele><time>2026-04-07T12:08:26.001Z</time></trkpt><trkpt lat="45.90068731821653" lon="12.018314849541289"><ele>320.6666666666667</ele><time>2026-04-07T12:08:27.001Z</time></trkpt><trkpt lat="45.900668074767644" lon="12.018074171006438"><ele>320.0</ele><time>2026-04-07T12:08:28.001Z</time></trkpt><trkpt lat="45.900652014588154" lon="12.017844531413274"><ele>320.0</ele><time>2026-04-07T12:08:29.001Z</time></trkpt><trkpt lat="45.900639156073325" lon="12.017618703545699"><ele>320.0</ele><time>2026-04-07T12:08:30.001Z</time></trkpt><trkpt lat="45.90064460599654" lon="12.017399799780803"><ele>320.0</ele><time>2026-04-07T12:08:31.001Z</time></trkpt><trkpt lat="45.900677993552925" lon="12.017156490028142"><ele>318.6666666666667</ele><time>2026-04-07T12:08:32.001Z</time></trkpt><trkpt lat="45.90071503700975" lon="12.016877359659333"><ele>317.3333333333333</ele><time>2026-04-07T12:08:33.001Z</time></trkpt><trkpt lat="45.90074311324373" lon="12.016629646157785"><ele>316.0</ele><time>2026-04-07T12:08:34.001Z</time></trkpt><trkpt lat="45.90076787776895" lon="12.016397411595237"><ele>314.3333333333333</ele><time>2026-04-07T12:08:35.001Z</time></trkpt><trkpt lat="45.90079263732521" lon="12.016176770376257"><ele>312.6666666666667</ele><time>2026-04-07T12:08:36.001Z</time></trkpt><trkpt lat="45.90081850611315" lon="12.015955237708921"><ele>311.0</ele><time>2026-04-07T12:08:37.001Z</time></trkpt><trkpt lat="45.90084843381509" lon="12.01574499834719"><ele>311.25</ele><time>2026-04-07T12:08:38.001Z</time></trkpt><trkpt lat="45.90087490451248" lon="12.015548627242945"><ele>311.5</ele><time>2026-04-07T12:08:39.001Z</time></trkpt><trkpt lat="45.90089823024365" lon="12.015362430059469"><ele>311.75</ele><time>2026-04-07T12:08:40.001Z</time></trkpt><trkpt lat="45.900921829418124" lon="12.015177334518008"><ele>312.0</ele><time>2026-04-07T12:08:41.001Z</time></trkpt><trkpt lat="45.900948538664686" lon="12.01498318989718"><ele>312.0</ele><time>2026-04-07T12:08:42.001Z</time></trkpt><trkpt lat="45.90098563304928" lon="12.014759187144596"><ele>312.0</ele><time>2026-04-07T12:08:43.001Z</time></trkpt><trkpt lat="45.90103507793009" lon="12.01453373830347"><ele>312.0</ele><time>2026-04-07T12:08:44.001Z</time></trkpt><trkpt lat="45.90108704723515" lon="12.014332963785819"><ele>310.75</ele><time>2026-04-07T12:08:45.001Z</time></trkpt><trkpt lat="45.90113789033556" lon="12.014139599902487"><ele>309.5</ele><time>2026-04-07T12:08:46.001Z</time></trkpt><trkpt lat="45.901190193011836" lon="12.013940750388675"><ele>308.25</ele><time>2026-04-07T12:08:47.001Z</time></trkpt><trkpt lat="45.901238991606064" lon="12.01374354420419"><ele>307.0</ele><time>2026-04-07T12:08:48.001Z</time></trkpt><trkpt lat="45.90128559686638" lon="12.013562666111767"><ele>307.0</ele><time>2026-04-07T12:08:49.001Z</time></trkpt><trkpt lat="45.90132997457061" lon="12.013389462066456"><ele>307.0</ele><time>2026-04-07T12:08:50.001Z</time></trkpt><trkpt lat="45.901370329447474" lon="12.0132117336017"><ele>307.0</ele><time>2026-04-07T12:08:51.001Z</time></trkpt><trkpt lat="45.90141099303678" lon="12.013037953544165"><ele>307.0</ele><time>2026-04-07T12:08:52.001Z</time></trkpt><trkpt lat="45.901459027260046" lon="12.012859113453025"><ele>306.5</ele><time>2026-04-07T12:08:53.001Z</time></trkpt><trkpt lat="45.90150590888391" lon="12.012683068677198"><ele>306.0</ele><time>2026-04-07T12:08:54.001Z</time></trkpt><trkpt lat="45.90155213971923" lon="12.01251064285856"><ele>305.5</ele><time>2026-04-07T12:08:55.001Z</time></trkpt><trkpt lat="45.901598710287466" lon="12.012332562035569"><ele>305.0</ele><time>2026-04-07T12:08:56.001Z</time></trkpt><trkpt lat="45.90164828079825" lon="12.012148331264408"><ele>305.0</ele><time>2026-04-07T12:08:57.001Z</time></trkpt><trkpt lat="45.90170008273474" lon="12.011954529272423"><ele>305.0</ele><time>2026-04-07T12:08:58.001Z</time></trkpt><trkpt lat="45.901755985214464" lon="12.011728335719546"><ele>305.0</ele><time>2026-04-07T12:08:59.001Z</time></trkpt><trkpt lat="45.9018103076337" lon="12.011510470519138"><ele>304.25</ele><time>2026-04-07T12:09:00.001Z</time></trkpt><trkpt lat="45.90186141764862" lon="12.011305513823975"><ele>303.5</ele><time>2026-04-07T12:09:01.001Z</time></trkpt><trkpt lat="45.901911223752" lon="12.011107196790764"><ele>302.75</ele><time>2026-04-07T12:09:02.001Z</time></trkpt><trkpt lat="45.90195907694011" lon="12.010918715190911"><ele>302.0</ele><time>2026-04-07T12:09:03.001Z</time></trkpt><trkpt lat="45.9020081631617" lon="12.010732365137924"><ele>301.0</ele><time>2026-04-07T12:09:04.001Z</time></trkpt><trkpt lat="45.90205892229773" lon="12.010548420482841"><ele>300.0</ele><time>2026-04-07T12:09:05.001Z</time></trkpt><trkpt lat="45.902105653192166" lon="12.010370562347122"><ele>299.0</ele><time>2026-04-07T12:09:06.001Z</time></trkpt><trkpt lat="45.902153064381444" lon="12.010195787580498"><ele>298.0</ele><time>2026-04-07T12:09:07.001Z</time></trkpt><trkpt lat="45.902200676042305" lon="12.010019508397637"><ele>296.5</ele><time>2026-04-07T12:09:08.001Z</time></trkpt><trkpt lat="45.902246896749" lon="12.009841532810778"><ele>295.0</ele><time>2026-04-07T12:09:09.001Z</time></trkpt><trkpt lat="45.90229411604623" lon="12.009655985986935"><ele>293.5</ele><time>2026-04-07T12:09:10.001Z</time></trkpt><trkpt lat="45.90234078198316" lon="12.0094672805984"><ele>292.0</ele><time>2026-04-07T12:09:11.001Z</time></trkpt><trkpt lat="45.90238012996858" lon="12.009289401459748"><ele>291.25</ele><time>2026-04-07T12:09:12.001Z</time></trkpt><trkpt lat="45.90240585568058" lon="12.00910333157271"><ele>290.5</ele><time>2026-04-07T12:09:13.001Z</time></trkpt><trkpt lat="45.902413169882784" lon="12.008901170411107"><ele>289.75</ele><time>2026-04-07T12:09:14.001Z</time></trkpt><trkpt lat="45.902398914283836" lon="12.008678950988822"><ele>289.0</ele><time>2026-04-07T12:09:15.001Z</time></trkpt><trkpt lat="45.902378930024454" lon="12.008440964416872"><ele>288.75</ele><time>2026-04-07T12:09:16.001Z</time></trkpt><trkpt lat="45.90236306682645" lon="12.008220439158555"><ele>288.5</ele><time>2026-04-07T12:09:17.001Z</time></trkpt><trkpt lat="45.902345395551976" lon="12.008016562887704"><ele>288.25</ele><time>2026-04-07T12:09:18.001Z</time></trkpt><trkpt lat="45.90232707588045" lon="12.007816893780323"><ele>288.0</ele><time>2026-04-07T12:09:19.001Z</time></trkpt><trkpt lat="45.90231103417724" lon="12.007626785322316"><ele>287.6</ele><time>2026-04-07T12:09:20.001Z</time></trkpt><trkpt lat="45.902295103223715" lon="12.007450861729534"><ele>287.20000000000005</ele><time>2026-04-07T12:09:21.001Z</time></trkpt><trkpt lat="45.90227848228663" lon="12.007292607247972"><ele>286.8</ele><time>2026-04-07T12:09:22.001Z</time></trkpt><trkpt lat="45.90225145983132" lon="12.007145790987233"><ele>286.40000000000003</ele><time>2026-04-07T12:09:23.001Z</time></trkpt><trkpt lat="45.90220902117551" lon="12.007008396819591"><ele>286.0</ele><time>2026-04-07T12:09:24.001Z</time></trkpt><trkpt lat="45.902169946451664" lon="12.006865497542735"><ele>286.0</ele><time>2026-04-07T12:09:25.001Z</time></trkpt><trkpt lat="45.90208729021804" lon="12.006738004490572"><ele>286.0</ele><time>2026-04-07T12:09:26.001Z</time></trkpt><trkpt lat="45.9020259000335" lon="12.006594792250594"><ele>286.0</ele><time>2026-04-07T12:09:27.001Z</time></trkpt><trkpt lat="45.90198492512106" lon="12.006431592382432"><ele>286.0</ele><time>2026-04-07T12:09:28.001Z</time></trkpt><trkpt lat="45.90196094150386" lon="12.00626216331503"><ele>285.25</ele><time>2026-04-07T12:09:29.001Z</time></trkpt><trkpt lat="45.901960730307756" lon="12.0060855225993"><ele>284.5</ele><time>2026-04-07T12:09:30.001Z</time></trkpt><trkpt lat="45.90197889275615" lon="12.005882918105002"><ele>283.75</ele><time>2026-04-07T12:09:31.001Z</time></trkpt><trkpt lat="45.90200874069524" lon="12.00569973523827"><ele>283.0</ele><time>2026-04-07T12:09:32.001Z</time></trkpt><trkpt lat="45.90202700510081" lon="12.005530172680515"><ele>282.25</ele><time>2026-04-07T12:09:33.001Z</time></trkpt><trkpt lat="45.90201719549318" lon="12.005354731524452"><ele>281.5</ele><time>2026-04-07T12:09:34.001Z</time></trkpt><trkpt lat="45.901989404305084" lon="12.00517232546837"><ele>280.75</ele><time>2026-04-07T12:09:35.001Z</time></trkpt><trkpt lat="45.90194215676496" lon="12.005005000968106"><ele>280.0</ele><time>2026-04-07T12:09:36.001Z</time></trkpt><trkpt lat="45.901889762674024" lon="12.004854519851229"><ele>278.2</ele><time>2026-04-07T12:09:37.001Z</time></trkpt><trkpt lat="45.901838398264225" lon="12.004707370511259"><ele>276.4</ele><time>2026-04-07T12:09:38.001Z</time></trkpt><trkpt lat="45.90178805189544" lon="12.004566327850096"><ele>274.6</ele><time>2026-04-07T12:09:39.001Z</time></trkpt><trkpt lat="45.901741028298645" lon="12.004426042933016"><ele>272.8</ele><time>2026-04-07T12:09:40.001Z</time></trkpt><trkpt lat="45.901692519965714" lon="12.004287438906093"><ele>271.0</ele><time>2026-04-07T12:09:41.001Z</time></trkpt><trkpt lat="45.90163995909119" lon="12.004143653311713"><ele>268.25</ele><time>2026-04-07T12:09:42.001Z</time></trkpt><trkpt lat="45.90158110068957" lon="12.003986347234768"><ele>265.5</ele><time>2026-04-07T12:09:43.001Z</time></trkpt><trkpt lat="45.90152318054937" lon="12.003812193794754"><ele>262.75</ele><time>2026-04-07T12:09:44.001Z</time></trkpt><trkpt lat="45.901470713628434" lon="12.003606586805638"><ele>260.0</ele><time>2026-04-07T12:09:45.001Z</time></trkpt><trkpt lat="45.90141291179032" lon="12.003406847172755"><ele>259.25</ele><time>2026-04-07T12:09:46.001Z</time></trkpt><trkpt lat="45.90136025112211" lon="12.003212312151442"><ele>258.5</ele><time>2026-04-07T12:09:47.001Z</time></trkpt><trkpt lat="45.90132471128857" lon="12.003024143133024"><ele>257.75</ele><time>2026-04-07T12:09:48.001Z</time></trkpt><trkpt lat="45.901309162519794" lon="12.002828571683317"><ele>257.0</ele><time>2026-04-07T12:09:49.001Z</time></trkpt><trkpt lat="45.90130291774996" lon="12.00261367245099"><ele>257.25</ele><time>2026-04-07T12:09:50.001Z</time></trkpt><trkpt lat="45.901293651437385" lon="12.002383018085748"><ele>257.5</ele><time>2026-04-07T12:09:51.001Z</time></trkpt><trkpt lat="45.90128262758389" lon="12.002173221793358"><ele>257.75</ele><time>2026-04-07T12:09:52.001Z</time></trkpt><trkpt lat="45.90127155089801" lon="12.00197301932292"><ele>258.0</ele><time>2026-04-07T12:09:53.001Z</time></trkpt><trkpt lat="45.90127366640409" lon="12.001773663163304"><ele>257.6</ele><time>2026-04-07T12:09:54.001Z</time></trkpt><trkpt lat="45.90128796025256" lon="12.001580776824206"><ele>257.20000000000005</ele><time>2026-04-07T12:09:55.001Z</time></trkpt><trkpt lat="45.90130776471861" lon="12.00139325737384"><ele>256.8</ele><time>2026-04-07T12:09:56.001Z</time></trkpt><trkpt lat="45.90132364843406" lon="12.001241327969181"><ele>256.40000000000003</ele><time>2026-04-07T12:09:57.001Z</time></trkpt><trkpt lat="45.901336465987214" lon="12.001135308230998"><ele>256.0</ele><time>2026-04-07T12:09:58.001Z</time></trkpt><trkpt lat="45.90135284400888" lon="12.001019167890398"><ele>256.0</ele><time>2026-04-07T12:09:59.001Z</time></trkpt><trkpt lat="45.90137132364146" lon="12.000866429628774"><ele>256.0</ele><time>2026-04-07T12:10:00.001Z</time></trkpt><trkpt lat="45.90139089286476" lon="12.000672473807777"><ele>256.0</ele><time>2026-04-07T12:10:01.001Z</time></trkpt><trkpt lat="45.90141572754138" lon="12.000461606019469"><ele>256.0</ele><time>2026-04-07T12:10:02.001Z</time></trkpt><trkpt lat="45.90143668092557" lon="12.000272067264167"><ele>255.25</ele><time>2026-04-07T12:10:03.001Z</time></trkpt><trkpt lat="45.90145807039082" lon="12.000066370564548"><ele>254.5</ele><time>2026-04-07T12:10:04.001Z</time></trkpt><trkpt lat="45.901481200948076" lon="11.999859799004259"><ele>253.75</ele><time>2026-04-07T12:10:05.001Z</time></trkpt><trkpt lat="45.901507669762054" lon="11.999665145152536"><ele>253.0</ele><time>2026-04-07T12:10:06.001Z</time></trkpt><trkpt lat="45.90153011372573" lon="11.999487752593554"><ele>253.0</ele><time>2026-04-07T12:10:07.001Z</time></trkpt><trkpt lat="45.90155291720823" lon="11.99932434521159"><ele>253.0</ele><time>2026-04-07T12:10:08.002Z</time></trkpt><trkpt lat="45.90157458406385" lon="11.999156211037391"><ele>253.0</ele><time>2026-04-07T12:10:09.002Z</time></trkpt><trkpt lat="45.901596925541675" lon="11.998980819077795"><ele>253.0</ele><time>2026-04-07T12:10:10.002Z</time></trkpt><trkpt lat="45.90161912382599" lon="11.998799938071796"><ele>253.0</ele><time>2026-04-07T12:10:11.002Z</time></trkpt><trkpt lat="45.90163681249959" lon="11.998618708190303"><ele>253.0</ele><time>2026-04-07T12:10:12.002Z</time></trkpt><trkpt lat="45.901658010818096" lon="11.998452533384768"><ele>253.0</ele><time>2026-04-07T12:10:13.002Z</time></trkpt><trkpt lat="45.901674726980325" lon="11.998293475144822"><ele>253.0</ele><time>2026-04-07T12:10:14.002Z</time></trkpt><trkpt lat="45.90169515799697" lon="11.998147837952775"><ele>252.99999999999997</ele><time>2026-04-07T12:10:15.002Z</time></trkpt><trkpt lat="45.90171288178177" lon="11.998004187499426"><ele>253.0</ele><time>2026-04-07T12:10:16.002Z</time></trkpt><trkpt lat="45.90172787171253" lon="11.997882526070358"><ele>253.0</ele><time>2026-04-07T12:10:17.002Z</time></trkpt><trkpt lat="45.90173816395277" lon="11.997775715439138"><ele>253.0</ele><time>2026-04-07T12:10:18Z</time></trkpt><trkpt lat="45.901745969385956" lon="11.997679148594694"><ele>252.99999999999997</ele><time>2026-04-07T12:10:19Z</time></trkpt><trkpt lat="45.901759576573504" lon="11.99758003908439"><ele>253.0</ele><time>2026-04-07T12:10:20Z</time></trkpt><trkpt lat="45.90177261778057" lon="11.99747273741814"><ele>254.83333333333331</ele><time>2026-04-07T12:10:21Z</time></trkpt><trkpt lat="45.90178877640653" lon="11.99735769421661"><ele>256.66666666666663</ele><time>2026-04-07T12:10:22Z</time></trkpt><trkpt lat="45.901799706052955" lon="11.997240843018439"><ele>258.5</ele><time>2026-04-07T12:10:23Z</time></trkpt><trkpt lat="45.90181092454925" lon="11.997119489766842"><ele>260.3333333333333</ele><time>2026-04-07T12:10:24Z</time></trkpt><trkpt lat="45.90182395381925" lon="11.99699321661632"><ele>262.1666666666667</ele><time>2026-04-07T12:10:25Z</time></trkpt><trkpt lat="45.9018398288068" lon="11.996866885889219"><ele>264.0</ele><time>2026-04-07T12:10:26Z</time></trkpt><trkpt lat="45.90184997968219" lon="11.996737621047599"><ele>264.0</ele><time>2026-04-07T12:10:27Z</time></trkpt><trkpt lat="45.90185120009421" lon="11.996612163209894"><ele>264.0</ele><time>2026-04-07T12:10:28Z</time></trkpt><trkpt lat="45.901854563597176" lon="11.996498827614012"><ele>264.0</ele><time>2026-04-07T12:10:29Z</time></trkpt><trkpt lat="45.90186501581127" lon="11.996394702437852"><ele>264.0</ele><time>2026-04-07T12:10:30Z</time></trkpt><trkpt lat="45.90186967621873" lon="11.996289482463123"><ele>264.0</ele><time>2026-04-07T12:10:31Z</time></trkpt><trkpt lat="45.901867847475195" lon="11.996188626514524"><ele>264.0</ele><time>2026-04-07T12:10:32Z</time></trkpt><trkpt lat="45.90186101002637" lon="11.996086194814078"><ele>264.0</ele><time>2026-04-07T12:10:33Z</time></trkpt><trkpt lat="45.90184823698334" lon="11.99598472915906"><ele>264.0</ele><time>2026-04-07T12:10:34Z</time></trkpt><trkpt lat="45.90183559560928" lon="11.995887518678925"><ele>264.0</ele><time>2026-04-07T12:10:35Z</time></trkpt><trkpt lat="45.901824165636754" lon="11.995723354000994"><ele>264.0</ele><time>2026-04-07T12:10:37Z</time></trkpt><trkpt lat="45.90185579157805" lon="11.995550960195528"><ele>264.0</ele><time>2026-04-07T12:10:39Z</time></trkpt><trkpt lat="45.90189484252749" lon="11.995461054673411"><ele>263.6666666666667</ele><time>2026-04-07T12:10:40Z</time></trkpt><trkpt lat="45.901940832846186" lon="11.995365289542152"><ele>263.3333333333333</ele><time>2026-04-07T12:10:41Z</time></trkpt><trkpt lat="45.90199002622786" lon="11.99528126470273"><ele>263.0</ele><time>2026-04-07T12:10:42Z</time></trkpt><trkpt lat="45.90204206492163" lon="11.99520480191028"><ele>262.66666666666663</ele><time>2026-04-07T12:10:43Z</time></trkpt><trkpt lat="45.902094393818146" lon="11.995131284679406"><ele>262.3333333333333</ele><time>2026-04-07T12:10:44Z</time></trkpt><trkpt lat="45.90214909030764" lon="11.99506038806441"><ele>262.0</ele><time>2026-04-07T12:10:45Z</time></trkpt><trkpt lat="45.902208456239535" lon="11.995001541341745"><ele>262.0</ele><time>2026-04-07T12:10:46Z</time></trkpt><trkpt lat="45.90225760088431" lon="11.99492435371551"><ele>262.0</ele><time>2026-04-07T12:10:47Z</time></trkpt><trkpt lat="45.902307030609904" lon="11.994846450259711"><ele>262.0</ele><time>2026-04-07T12:10:48Z</time></trkpt><trkpt lat="45.90234812966864" lon="11.99477301955072"><ele>262.0</ele><time>2026-04-07T12:10:49Z</time></trkpt><trkpt lat="45.90240356441769" lon="11.994687106993817"><ele>262.0</ele><time>2026-04-07T12:10:51Z</time></trkpt><trkpt lat="45.90245020986394" lon="11.994591427304593"><ele>262.0</ele><time>2026-04-07T12:10:53Z</time></trkpt><trkpt lat="45.90243785517675" lon="11.994450537905323"><ele>262.0</ele><time>2026-04-07T12:10:55Z</time></trkpt><trkpt lat="45.90235022640526" lon="11.994321392764077"><ele>262.0</ele><time>2026-04-07T12:10:57Z</time></trkpt><trkpt lat="45.90223345987055" lon="11.994271826210204"><ele>262.0</ele><time>2026-04-07T12:10:59Z</time></trkpt><trkpt lat="45.90212070140937" lon="11.994302214326629"><ele>262.0</ele><time>2026-04-07T12:11:01Z</time></trkpt><trkpt lat="45.902059745964436" lon="11.994332002975836"><ele>262.0</ele><time>2026-04-07T12:11:02Z</time></trkpt><trkpt lat="45.901992289218285" lon="11.994349018856136"><ele>262.0</ele><time>2026-04-07T12:11:03Z</time></trkpt><trkpt lat="45.9019185823675" lon="11.99436867476356"><ele>262.0</ele><time>2026-04-07T12:11:04Z</time></trkpt><trkpt lat="45.90184941551564" lon="11.994390299607451"><ele>262.0</ele><time>2026-04-07T12:11:05Z</time></trkpt><trkpt lat="45.901787403531536" lon="11.994409846521819"><ele>262.0</ele><time>2026-04-07T12:11:06Z</time></trkpt><trkpt lat="45.9017257561447" lon="11.994432022622476"><ele>262.0</ele><time>2026-04-07T12:11:07Z</time></trkpt><trkpt lat="45.90166227264518" lon="11.994444053382185"><ele>262.0</ele><time>2026-04-07T12:11:08Z</time></trkpt><trkpt lat="45.9015866276284" lon="11.994449141075465"><ele>262.0</ele><time>2026-04-07T12:11:09Z</time></trkpt><trkpt lat="45.90150239921696" lon="11.994457820634272"><ele>261.66666666666663</ele><time>2026-04-07T12:11:10Z</time></trkpt><trkpt lat="45.90141668843944" lon="11.994455020029063"><ele>261.3333333333333</ele><time>2026-04-07T12:11:11Z</time></trkpt><trkpt lat="45.90134452940619" lon="11.994447860664618"><ele>261.0</ele><time>2026-04-07T12:11:12Z</time></trkpt><trkpt lat="45.90125535289303" lon="11.994453352316954"><ele>260.6666666666667</ele><time>2026-04-07T12:11:14.001Z</time></trkpt><trkpt lat="45.90118726427756" lon="11.994453297474468"><ele>260.33333333333337</ele><time>2026-04-07T12:11:16.001Z</time></trkpt><trkpt lat="45.901103540529995" lon="11.994397665472016"><ele>260.0</ele><time>2026-04-07T12:11:18.001Z</time></trkpt><trkpt lat="45.90103924682671" lon="11.994327735757347"><ele>260.0</ele><time>2026-04-07T12:11:19.001Z</time></trkpt><trkpt lat="45.90096231137024" lon="11.994248327376791"><ele>260.0</ele><time>2026-04-07T12:11:20.001Z</time></trkpt><trkpt lat="45.90087686521997" lon="11.994128345978453"><ele>260.0</ele><time>2026-04-07T12:11:21.001Z</time></trkpt><trkpt lat="45.90079554088119" lon="11.994008352366404"><ele>260.0</ele><time>2026-04-07T12:11:22.001Z</time></trkpt><trkpt lat="45.90073043925272" lon="11.993886248034954"><ele>260.0</ele><time>2026-04-07T12:11:23.001Z</time></trkpt><trkpt lat="45.90067201233207" lon="11.99374829718041"><ele>260.25</ele><time>2026-04-07T12:11:24.001Z</time></trkpt><trkpt lat="45.900632884688996" lon="11.99357640544981"><ele>260.5</ele><time>2026-04-07T12:11:25.001Z</time></trkpt><trkpt lat="45.900606500602876" lon="11.993417897366257"><ele>260.75</ele><time>2026-04-07T12:11:26.001Z</time></trkpt><trkpt lat="45.90057215258471" lon="11.993269888889706"><ele>261.0</ele><time>2026-04-07T12:11:27.001Z</time></trkpt><trkpt lat="45.900524894879815" lon="11.993133079789446"><ele>261.75</ele><time>2026-04-07T12:11:28.001Z</time></trkpt><trkpt lat="45.900464658852016" lon="11.992992990334256"><ele>262.5</ele><time>2026-04-07T12:11:29.001Z</time></trkpt><trkpt lat="45.90039086466736" lon="11.992835772992196"><ele>263.25</ele><time>2026-04-07T12:11:30.001Z</time></trkpt><trkpt lat="45.90029973478884" lon="11.992666398828165"><ele>264.0</ele><time>2026-04-07T12:11:31.001Z</time></trkpt><trkpt lat="45.900209698590785" lon="11.992508557603452"><ele>264.25</ele><time>2026-04-07T12:11:32.001Z</time></trkpt><trkpt lat="45.90010275580213" lon="11.992328245277278"><ele>264.5</ele><time>2026-04-07T12:11:33.001Z</time></trkpt><trkpt lat="45.90000442084581" lon="11.992164105098748"><ele>264.75</ele><time>2026-04-07T12:11:34.001Z</time></trkpt><trkpt lat="45.89993990825577" lon="11.99205542723785"><ele>265.0</ele><time>2026-04-07T12:11:35.001Z</time></trkpt><trkpt lat="45.89988660542999" lon="11.991933152730976"><ele>264.5</ele><time>2026-04-07T12:11:37.001Z</time></trkpt><trkpt lat="45.89983847677408" lon="11.991847537854674"><ele>264.0</ele><time>2026-04-07T12:11:39.001Z</time></trkpt><trkpt lat="45.8997492763859" lon="11.991698527950312"><ele>263.5</ele><time>2026-04-07T12:11:41.001Z</time></trkpt><trkpt lat="45.89970265204905" lon="11.991603479856492"><ele>263.0</ele><time>2026-04-07T12:11:42.001Z</time></trkpt><trkpt lat="45.89965966418806" lon="11.9915216467433"><ele>262.5</ele><time>2026-04-07T12:11:43.001Z</time></trkpt><trkpt lat="45.8996127259834" lon="11.991425061204867"><ele>262.0</ele><time>2026-04-07T12:11:44.001Z</time></trkpt><trkpt lat="45.89956862585196" lon="11.991316090044757"><ele>262.0</ele><time>2026-04-07T12:11:45.001Z</time></trkpt><trkpt lat="45.89953000382192" lon="11.991201764202096"><ele>262.0</ele><time>2026-04-07T12:11:46.001Z</time></trkpt><trkpt lat="45.89949348566173" lon="11.991092913277006"><ele>262.0</ele><time>2026-04-07T12:11:47.001Z</time></trkpt><trkpt lat="45.899460270396474" lon="11.990984041073192"><ele>262.0</ele><time>2026-04-07T12:11:48.001Z</time></trkpt><trkpt lat="45.89944334382355" lon="11.99088922593141"><ele>262.0</ele><time>2026-04-07T12:11:49.001Z</time></trkpt><trkpt lat="45.89944395893257" lon="11.990789283252823"><ele>262.0</ele><time>2026-04-07T12:11:51.001Z</time></trkpt><trkpt lat="45.89927992665583" lon="11.990759887819063"><ele>261.2</ele><time>2026-04-07T12:11:54.001Z</time></trkpt><trkpt lat="45.899208174432694" lon="11.990770045907176"><ele>260.4</ele><time>2026-04-07T12:11:55.001Z</time></trkpt><trkpt lat="45.89912318067336" lon="11.990763226158169"><ele>259.6</ele><time>2026-04-07T12:11:56.001Z</time></trkpt><trkpt lat="45.89903372024007" lon="11.990761668507258"><ele>258.8</ele><time>2026-04-07T12:11:57.001Z</time></trkpt><trkpt lat="45.898923424179905" lon="11.990764113512823"><ele>258.0</ele><time>2026-04-07T12:11:58.001Z</time></trkpt><trkpt lat="45.89880064920815" lon="11.99076526022762"><ele>258.0</ele><time>2026-04-07T12:11:59.001Z</time></trkpt><trkpt lat="45.89869529436287" lon="11.9907584597679"><ele>258.0</ele><time>2026-04-07T12:12:00.001Z</time></trkpt><trkpt lat="45.8986059183216" lon="11.990754573644589"><ele>258.0</ele><time>2026-04-07T12:12:01.001Z</time></trkpt><trkpt lat="45.89851723622209" lon="11.99075606865973"><ele>258.0</ele><time>2026-04-07T12:12:02.001Z</time></trkpt><trkpt lat="45.898424998868165" lon="11.990756087973555"><ele>258.0</ele><time>2026-04-07T12:12:03.001Z</time></trkpt><trkpt lat="45.89831519349349" lon="11.990756877778823"><ele>255.60000000000002</ele><time>2026-04-07T12:12:04.001Z</time></trkpt><trkpt lat="45.898197836739676" lon="11.99075394061278"><ele>253.20000000000002</ele><time>2026-04-07T12:12:05.001Z</time></trkpt><trkpt lat="45.89808496265239" lon="11.990754852283743"><ele>250.8</ele><time>2026-04-07T12:12:06.001Z</time></trkpt><trkpt lat="45.89797538347531" lon="11.990754587649482"><ele>248.4</ele><time>2026-04-07T12:12:07.001Z</time></trkpt><trkpt lat="45.89786894347472" lon="11.990750086145384"><ele>246.0</ele><time>2026-04-07T12:12:08.001Z</time></trkpt><trkpt lat="45.89777005287924" lon="11.990750662095676"><ele>246.0</ele><time>2026-04-07T12:12:09.001Z</time></trkpt><trkpt lat="45.897698117641035" lon="11.990754081697904"><ele>246.0</ele><time>2026-04-07T12:12:10.001Z</time></trkpt><trkpt lat="45.89760507758839" lon="11.990741823520931"><ele>246.0</ele><time>2026-04-07T12:12:12.001Z</time></trkpt><trkpt lat="45.897529364777014" lon="11.99074484301441"><ele>246.0</ele><time>2026-04-07T12:12:14.001Z</time></trkpt><trkpt lat="45.89746450553431" lon="11.990715369184421"><ele>246.0</ele><time>2026-04-07T12:12:21.001Z</time></trkpt><trkpt lat="45.89744738586388" lon="11.99057164455571"><ele>246.0</ele><time>2026-04-07T12:12:22.001Z</time></trkpt><trkpt lat="45.897448748245935" lon="11.99045860059757"><ele>245.16666666666666</ele><time>2026-04-07T12:12:23.001Z</time></trkpt><trkpt lat="45.89744474026678" lon="11.990346835806811"><ele>244.33333333333331</ele><time>2026-04-07T12:12:24Z</time></trkpt><trkpt lat="45.897440842107535" lon="11.990239676671052"><ele>243.5</ele><time>2026-04-07T12:12:25Z</time></trkpt><trkpt lat="45.89743672636725" lon="11.990123005491844"><ele>242.66666666666666</ele><time>2026-04-07T12:12:26Z</time></trkpt><trkpt lat="45.897428968937035" lon="11.990000921487933"><ele>241.83333333333331</ele><time>2026-04-07T12:12:27Z</time></trkpt><trkpt lat="45.897419787549296" lon="11.989879678613788"><ele>241.0</ele><time>2026-04-07T12:12:28Z</time></trkpt><trkpt lat="45.89741234806728" lon="11.989761022393898"><ele>240.83333333333331</ele><time>2026-04-07T12:12:29Z</time></trkpt><trkpt lat="45.897410019951195" lon="11.989648262163344"><ele>240.66666666666666</ele><time>2026-04-07T12:12:30Z</time></trkpt><trkpt lat="45.897412382210696" lon="11.989548249724443"><ele>240.5</ele><time>2026-04-07T12:12:31Z</time></trkpt><trkpt lat="45.89743408542533" lon="11.98945669987753"><ele>240.33333333333331</ele><time>2026-04-07T12:12:32Z</time></trkpt><trkpt lat="45.89747146669558" lon="11.98937097333425"><ele>240.16666666666666</ele><time>2026-04-07T12:12:33Z</time></trkpt><trkpt lat="45.89752333294712" lon="11.989274863336849"><ele>240.0</ele><time>2026-04-07T12:12:34Z</time></trkpt><trkpt lat="45.89759112617468" lon="11.989160804563175"><ele>240.0</ele><time>2026-04-07T12:12:35Z</time></trkpt><trkpt lat="45.89766979292414" lon="11.989059244787082"><ele>240.0</ele><time>2026-04-07T12:12:36Z</time></trkpt><trkpt lat="45.897737948934" lon="11.988952504185173"><ele>240.0</ele><time>2026-04-07T12:12:37Z</time></trkpt><trkpt lat="45.89779438879298" lon="11.988832361794111"><ele>240.0</ele><time>2026-04-07T12:12:38Z</time></trkpt><trkpt lat="45.89783561715749" lon="11.988705721939272"><ele>240.0</ele><time>2026-04-07T12:12:39Z</time></trkpt><trkpt lat="45.89786135456559" lon="11.988563464890216"><ele>240.0</ele><time>2026-04-07T12:12:40Z</time></trkpt><trkpt lat="45.89787210930046" lon="11.988419539763793"><ele>240.0</ele><time>2026-04-07T12:12:41Z</time></trkpt><trkpt lat="45.897857572014495" lon="11.988268179525784"><ele>240.0</ele><time>2026-04-07T12:12:42Z</time></trkpt><trkpt lat="45.89782057106216" lon="11.988124094834406"><ele>240.0</ele><time>2026-04-07T12:12:43Z</time></trkpt><trkpt lat="45.89775921674564" lon="11.987973731649083"><ele>240.0</ele><time>2026-04-07T12:12:44Z</time></trkpt><trkpt lat="45.897671248242645" lon="11.98780383006626"><ele>240.33333333333331</ele><time>2026-04-07T12:12:45Z</time></trkpt><trkpt lat="45.89758826024386" lon="11.987652708902697"><ele>240.66666666666666</ele><time>2026-04-07T12:12:46Z</time></trkpt><trkpt lat="45.897497020256075" lon="11.987470135248888"><ele>241.0</ele><time>2026-04-07T12:12:47Z</time></trkpt><trkpt lat="45.89739102029344" lon="11.987267094656186"><ele>242.0</ele><time>2026-04-07T12:12:48Z</time></trkpt><trkpt lat="45.8972963542052" lon="11.987101289649356"><ele>243.0</ele><time>2026-04-07T12:12:49Z</time></trkpt><trkpt lat="45.89721383036949" lon="11.986945564582243"><ele>244.0</ele><time>2026-04-07T12:12:50Z</time></trkpt><trkpt lat="45.89716215380419" lon="11.986793595364329"><ele>245.0</ele><time>2026-04-07T12:12:51Z</time></trkpt><trkpt lat="45.89712631573905" lon="11.986635471813376"><ele>245.0</ele><time>2026-04-07T12:12:52Z</time></trkpt><trkpt lat="45.897103595804026" lon="11.986453812072682"><ele>245.0</ele><time>2026-04-07T12:12:53Z</time></trkpt><trkpt lat="45.89709477002682" lon="11.986262611998262"><ele>245.0</ele><time>2026-04-07T12:12:54Z</time></trkpt><trkpt lat="45.89709425953193" lon="11.986100226660605"><ele>245.0</ele><time>2026-04-07T12:12:55Z</time></trkpt><trkpt lat="45.897103856689924" lon="11.985966583074125"><ele>244.75</ele><time>2026-04-07T12:12:56Z</time></trkpt><trkpt lat="45.89712685108317" lon="11.985828996669657"><ele>244.5</ele><time>2026-04-07T12:12:57Z</time></trkpt><trkpt lat="45.8971730066156" lon="11.985689418966896"><ele>244.25</ele><time>2026-04-07T12:12:58Z</time></trkpt><trkpt lat="45.89724651839738" lon="11.985532370509379"><ele>244.0</ele><time>2026-04-07T12:12:59Z</time></trkpt><trkpt lat="45.89732385509211" lon="11.985386781393867"><ele>244.0</ele><time>2026-04-07T12:13:00Z</time></trkpt><trkpt lat="45.89739975112049" lon="11.985229795292613"><ele>244.0</ele><time>2026-04-07T12:13:01Z</time></trkpt><trkpt lat="45.89745590241369" lon="11.98507681461878"><ele>244.0</ele><time>2026-04-07T12:13:02Z</time></trkpt><trkpt lat="45.89749914446421" lon="11.98492578565414"><ele>244.0</ele><time>2026-04-07T12:13:03Z</time></trkpt><trkpt lat="45.89754564206774" lon="11.984723912000554"><ele>242.66666666666666</ele><time>2026-04-07T12:13:04Z</time></trkpt><trkpt lat="45.89759962930633" lon="11.984499806135874"><ele>241.33333333333331</ele><time>2026-04-07T12:13:05Z</time></trkpt><trkpt lat="45.89766261234849" lon="11.984302049167452"><ele>240.0</ele><time>2026-04-07T12:13:06Z</time></trkpt><trkpt lat="45.89772386771462" lon="11.984130712963147"><ele>239.6</ele><time>2026-04-07T12:13:07.001Z</time></trkpt><trkpt lat="45.89779186164735" lon="11.983976692328799"><ele>239.2</ele><time>2026-04-07T12:13:08.001Z</time></trkpt><trkpt lat="45.89785281164323" lon="11.983841452086267"><ele>238.8</ele><time>2026-04-07T12:13:09.001Z</time></trkpt><trkpt lat="45.89788866498059" lon="11.983713563806958"><ele>238.4</ele><time>2026-04-07T12:13:10.001Z</time></trkpt><trkpt lat="45.89791137934217" lon="11.983588075919274"><ele>238.0</ele><time>2026-04-07T12:13:11.001Z</time></trkpt><trkpt lat="45.897909058153225" lon="11.983438022561065"><ele>238.25</ele><time>2026-04-07T12:13:12.001Z</time></trkpt><trkpt lat="45.89787850076486" lon="11.983278806036608"><ele>238.5</ele><time>2026-04-07T12:13:13.001Z</time></trkpt><trkpt lat="45.89782406250713" lon="11.983089382206899"><ele>238.75</ele><time>2026-04-07T12:13:14.001Z</time></trkpt><trkpt lat="45.897767144498545" lon="11.982889831022485"><ele>239.0</ele><time>2026-04-07T12:13:15.001Z</time></trkpt><trkpt lat="45.897718497036564" lon="11.982690362339058"><ele>239.0</ele><time>2026-04-07T12:13:16.001Z</time></trkpt><trkpt lat="45.897649375653295" lon="11.982456479559405"><ele>239.0</ele><time>2026-04-07T12:13:17.001Z</time></trkpt><trkpt lat="45.89757610202689" lon="11.982213749344048"><ele>239.0</ele><time>2026-04-07T12:13:18.001Z</time></trkpt><trkpt lat="45.89750294497488" lon="11.98197785962889"><ele>236.33333333333334</ele><time>2026-04-07T12:13:19.001Z</time></trkpt><trkpt lat="45.89742388715419" lon="11.981700512225073"><ele>233.66666666666669</ele><time>2026-04-07T12:13:20.001Z</time></trkpt><trkpt lat="45.897342991992566" lon="11.981415358862435"><ele>231.0</ele><time>2026-04-07T12:13:21.001Z</time></trkpt><trkpt lat="45.897267881060245" lon="11.981147472011553"><ele>231.0</ele><time>2026-04-07T12:13:22.001Z</time></trkpt><trkpt lat="45.89718820340271" lon="11.980873216672101"><ele>231.0</ele><time>2026-04-07T12:13:23.001Z</time></trkpt><trkpt lat="45.89710712302942" lon="11.980593801441369"><ele>231.0</ele><time>2026-04-07T12:13:24.001Z</time></trkpt><trkpt lat="45.89702105371837" lon="11.980304054237976"><ele>231.0</ele><time>2026-04-07T12:13:25.001Z</time></trkpt><trkpt lat="45.89693281308564" lon="11.980007846329137"><ele>231.0</ele><time>2026-04-07T12:13:26.001Z</time></trkpt><trkpt lat="45.89684227570774" lon="11.97970285617139"><ele>231.0</ele><time>2026-04-07T12:13:27.001Z</time></trkpt><trkpt lat="45.896753445014966" lon="11.979387546630578"><ele>231.0</ele><time>2026-04-07T12:13:28.001Z</time></trkpt><trkpt lat="45.89666119509414" lon="11.979068166760573"><ele>229.0</ele><time>2026-04-07T12:13:29.001Z</time></trkpt><trkpt lat="45.89657468056326" lon="11.978754501487122"><ele>227.0</ele><time>2026-04-07T12:13:30.001Z</time></trkpt><trkpt lat="45.89649682342112" lon="11.97846931600913"><ele>225.0</ele><time>2026-04-07T12:13:31.001Z</time></trkpt><trkpt lat="45.89642161169886" lon="11.978199975357796"><ele>225.0</ele><time>2026-04-07T12:13:32.001Z</time></trkpt><trkpt lat="45.8963513258904" lon="11.977951596521141"><ele>225.0</ele><time>2026-04-07T12:13:33.001Z</time></trkpt><trkpt lat="45.8962840754867" lon="11.97771718064689"><ele>225.0</ele><time>2026-04-07T12:13:34.001Z</time></trkpt><trkpt lat="45.89622103815277" lon="11.977502076454257"><ele>225.0</ele><time>2026-04-07T12:13:35.001Z</time></trkpt><trkpt lat="45.89616151762975" lon="11.977300815317934"><ele>225.0</ele><time>2026-04-07T12:13:36.001Z</time></trkpt><trkpt lat="45.89610002403319" lon="11.977096167932944"><ele>225.0</ele><time>2026-04-07T12:13:37.001Z</time></trkpt><trkpt lat="45.896030490423854" lon="11.97686663009193"><ele>226.0</ele><time>2026-04-07T12:13:38.001Z</time></trkpt><trkpt lat="45.89595465765859" lon="11.976621140080898"><ele>227.0</ele><time>2026-04-07T12:13:39.001Z</time></trkpt><trkpt lat="45.89588442852263" lon="11.976398897054352"><ele>228.0</ele><time>2026-04-07T12:13:40.001Z</time></trkpt><trkpt lat="45.89581726395901" lon="11.976169333537813"><ele>228.0</ele><time>2026-04-07T12:13:41.001Z</time></trkpt><trkpt lat="45.895756763516374" lon="11.975922483862886"><ele>228.0</ele><time>2026-04-07T12:13:42.001Z</time></trkpt><trkpt lat="45.895688628228655" lon="11.975659077807421"><ele>228.0</ele><time>2026-04-07T12:13:43.001Z</time></trkpt><trkpt lat="45.89561557607681" lon="11.975396138208861"><ele>228.0</ele><time>2026-04-07T12:13:44.001Z</time></trkpt><trkpt lat="45.89555467879213" lon="11.97515365600076"><ele>228.0</ele><time>2026-04-07T12:13:45.001Z</time></trkpt><trkpt lat="45.895513692246105" lon="11.974916552426173"><ele>228.0</ele><time>2026-04-07T12:13:46.001Z</time></trkpt><trkpt lat="45.89549020774457" lon="11.974689444035528"><ele>229.33333333333331</ele><time>2026-04-07T12:13:47.001Z</time></trkpt><trkpt lat="45.895483548130144" lon="11.97446990163014"><ele>230.66666666666666</ele><time>2026-04-07T12:13:48.001Z</time></trkpt><trkpt lat="45.895489806470145" lon="11.974248703379917"><ele>232.0</ele><time>2026-04-07T12:13:49.001Z</time></trkpt><trkpt lat="45.89550462107844" lon="11.974021926163372"><ele>231.66666666666666</ele><time>2026-04-07T12:13:50.001Z</time></trkpt><trkpt lat="45.895538540626795" lon="11.973773865817666"><ele>231.33333333333331</ele><time>2026-04-07T12:13:51.001Z</time></trkpt><trkpt lat="45.89558943172682" lon="11.973501499223039"><ele>231.0</ele><time>2026-04-07T12:13:52.001Z</time></trkpt><trkpt lat="45.89564642221335" lon="11.97320752829605"><ele>231.0</ele><time>2026-04-07T12:13:53.001Z</time></trkpt><trkpt lat="45.895699941875634" lon="11.972907507132147"><ele>231.0</ele><time>2026-04-07T12:13:54.001Z</time></trkpt><trkpt lat="45.89574772915075" lon="11.972628529607418"><ele>231.0</ele><time>2026-04-07T12:13:55.001Z</time></trkpt><trkpt lat="45.89579740876509" lon="11.972337080346975"><ele>229.66666666666669</ele><time>2026-04-07T12:13:56.001Z</time></trkpt><trkpt lat="45.89585135539631" lon="11.972057657292806"><ele>228.33333333333334</ele><time>2026-04-07T12:13:57.001Z</time></trkpt><trkpt lat="45.8958990871003" lon="11.971807017560897"><ele>227.0</ele><time>2026-04-07T12:13:58.001Z</time></trkpt><trkpt lat="45.895943313465786" lon="11.971573924889917"><ele>232.66666666666669</ele><time>2026-04-07T12:13:59.001Z</time></trkpt><trkpt lat="45.89598470065825" lon="11.971351636945576"><ele>238.33333333333331</ele><time>2026-04-07T12:14:00.001Z</time></trkpt><trkpt lat="45.896022766049555" lon="11.971134209034474"><ele>244.0</ele><time>2026-04-07T12:14:01.001Z</time></trkpt><trkpt lat="45.89605543694052" lon="11.970914897872774"><ele>243.33333333333331</ele><time>2026-04-07T12:14:02.001Z</time></trkpt><trkpt lat="45.89608207888415" lon="11.970674237928883"><ele>242.66666666666669</ele><time>2026-04-07T12:14:03.001Z</time></trkpt><trkpt lat="45.89609561307322" lon="11.970422777981803"><ele>242.0</ele><time>2026-04-07T12:14:04.001Z</time></trkpt><trkpt lat="45.8960915476749" lon="11.970157392376434"><ele>242.33333333333334</ele><time>2026-04-07T12:14:05.001Z</time></trkpt><trkpt lat="45.89610458233831" lon="11.969888390730791"><ele>242.66666666666669</ele><time>2026-04-07T12:14:06.001Z</time></trkpt><trkpt lat="45.89613281842661" lon="11.969644747697249"><ele>243.0</ele><time>2026-04-07T12:14:07.001Z</time></trkpt><trkpt lat="45.89615976011543" lon="11.969431340698538"><ele>243.0</ele><time>2026-04-07T12:14:08.001Z</time></trkpt><trkpt lat="45.89617727480626" lon="11.969242507383486"><ele>243.0</ele><time>2026-04-07T12:14:09.001Z</time></trkpt><trkpt lat="45.89618699718512" lon="11.969079150419562"><ele>243.0</ele><time>2026-04-07T12:14:10.001Z</time></trkpt><trkpt lat="45.896195924178606" lon="11.968929198849459"><ele>243.0</ele><time>2026-04-07T12:14:11.001Z</time></trkpt><trkpt lat="45.89620463708642" lon="11.968751733275433"><ele>242.66666666666669</ele><time>2026-04-07T12:14:12.001Z</time></trkpt><trkpt lat="45.896207837247886" lon="11.968542287217343"><ele>242.33333333333334</ele><time>2026-04-07T12:14:13.001Z</time></trkpt><trkpt lat="45.89623076176395" lon="11.968309408511875"><ele>242.0</ele><time>2026-04-07T12:14:14.001Z</time></trkpt><trkpt lat="45.89624379670748" lon="11.968089743544812"><ele>241.33333333333334</ele><time>2026-04-07T12:14:15.001Z</time></trkpt><trkpt lat="45.89625264542612" lon="11.967852000299153"><ele>240.66666666666669</ele><time>2026-04-07T12:14:16.001Z</time></trkpt><trkpt lat="45.89626483872123" lon="11.967597585978877"><ele>240.0</ele><time>2026-04-07T12:14:17.001Z</time></trkpt><trkpt lat="45.89627975314717" lon="11.967341392975827"><ele>239.33333333333331</ele><time>2026-04-07T12:14:18.001Z</time></trkpt><trkpt lat="45.896297380371614" lon="11.967106647984943"><ele>238.66666666666666</ele><time>2026-04-07T12:14:19.001Z</time></trkpt><trkpt lat="45.89631410473725" lon="11.96688790728584"><ele>238.0</ele><time>2026-04-07T12:14:20.001Z</time></trkpt><trkpt lat="45.896330617524036" lon="11.966670695430768"><ele>237.5</ele><time>2026-04-07T12:14:21.001Z</time></trkpt><trkpt lat="45.89634313686527" lon="11.966455824928605"><ele>237.0</ele><time>2026-04-07T12:14:22.001Z</time></trkpt><trkpt lat="45.89634925534472" lon="11.966270028271309"><ele>236.5</ele><time>2026-04-07T12:14:23.001Z</time></trkpt><trkpt lat="45.89635616623295" lon="11.96611542345252"><ele>236.0</ele><time>2026-04-07T12:14:24.001Z</time></trkpt><trkpt lat="45.896356776699854" lon="11.965980287787737"><ele>235.20000000000002</ele><time>2026-04-07T12:14:25.001Z</time></trkpt><trkpt lat="45.89634139233329" lon="11.96585891573089"><ele>234.40000000000003</ele><time>2026-04-07T12:14:26.001Z</time></trkpt><trkpt lat="45.89630009468968" lon="11.965743865908411"><ele>233.6</ele><time>2026-04-07T12:14:27.001Z</time></trkpt><trkpt lat="45.89623210079149" lon="11.965633131434263"><ele>232.8</ele><time>2026-04-07T12:14:28.001Z</time></trkpt><trkpt lat="45.89615322122118" lon="11.96551768369359"><ele>232.0</ele><time>2026-04-07T12:14:29.001Z</time></trkpt><trkpt lat="45.89608980505905" lon="11.965408588539917"><ele>232.0</ele><time>2026-04-07T12:14:30Z</time></trkpt><trkpt lat="45.89604481752082" lon="11.965280843732906"><ele>232.0</ele><time>2026-04-07T12:14:31Z</time></trkpt><trkpt lat="45.89600001893181" lon="11.965108716764776"><ele>232.0</ele><time>2026-04-07T12:14:32Z</time></trkpt><trkpt lat="45.89593453249166" lon="11.964892337631694"><ele>232.0</ele><time>2026-04-07T12:14:33Z</time></trkpt><trkpt lat="45.895867819406234" lon="11.964681142430855"><ele>229.0</ele><time>2026-04-07T12:14:34Z</time></trkpt><trkpt lat="45.89579282837262" lon="11.964420878426266"><ele>226.0</ele><time>2026-04-07T12:14:35Z</time></trkpt><trkpt lat="45.895715868660076" lon="11.964158871761093"><ele>223.0</ele><time>2026-04-07T12:14:36Z</time></trkpt><trkpt lat="45.89564226811229" lon="11.96389977903909"><ele>222.66666666666666</ele><time>2026-04-07T12:14:37Z</time></trkpt><trkpt lat="45.89557231258897" lon="11.963639241159136"><ele>222.33333333333331</ele><time>2026-04-07T12:14:38Z</time></trkpt><trkpt lat="45.895505789389" lon="11.963404614155005"><ele>222.0</ele><time>2026-04-07T12:14:39Z</time></trkpt><trkpt lat="45.895444613970156" lon="11.963189659299905"><ele>222.6</ele><time>2026-04-07T12:14:40Z</time></trkpt><trkpt lat="45.89539473655715" lon="11.963014558324343"><ele>223.2</ele><time>2026-04-07T12:14:41Z</time></trkpt><trkpt lat="45.89535424191938" lon="11.962858261937587"><ele>223.8</ele><time>2026-04-07T12:14:42Z</time></trkpt><trkpt lat="45.895323457760966" lon="11.962716864839571"><ele>224.4</ele><time>2026-04-07T12:14:43Z</time></trkpt><trkpt lat="45.89531713693669" lon="11.962576510159305"><ele>225.0</ele><time>2026-04-07T12:14:44Z</time></trkpt><trkpt lat="45.895341032212635" lon="11.962430938121022"><ele>225.4</ele><time>2026-04-07T12:14:45Z</time></trkpt><trkpt lat="45.89538332671221" lon="11.96227072558352"><ele>225.8</ele><time>2026-04-07T12:14:46Z</time></trkpt><trkpt lat="45.895436990749864" lon="11.962117480448336"><ele>226.2</ele><time>2026-04-07T12:14:47Z</time></trkpt><trkpt lat="45.8954910665152" lon="11.961984205848795"><ele>226.6</ele><time>2026-04-07T12:14:48Z</time></trkpt><trkpt lat="45.89556372128904" lon="11.961887254120239"><ele>227.0</ele><time>2026-04-07T12:14:49Z</time></trkpt><trkpt lat="45.89565851158664" lon="11.961807091173004"><ele>227.0</ele><time>2026-04-07T12:14:50Z</time></trkpt><trkpt lat="45.89576974589347" lon="11.961730716241883"><ele>227.0</ele><time>2026-04-07T12:14:51Z</time></trkpt><trkpt lat="45.895864053080494" lon="11.961653917798044"><ele>227.0</ele><time>2026-04-07T12:14:52Z</time></trkpt><trkpt lat="45.89594677621351" lon="11.961554354686331"><ele>227.0</ele><time>2026-04-07T12:14:53Z</time></trkpt><trkpt lat="45.896015699940875" lon="11.961460250811278"><ele>227.0</ele><time>2026-04-07T12:14:54Z</time></trkpt><trkpt lat="45.89606251327815" lon="11.961360238049927"><ele>227.33333333333334</ele><time>2026-04-07T12:14:55Z</time></trkpt><trkpt lat="45.89607514411985" lon="11.961249468814197"><ele>227.66666666666669</ele><time>2026-04-07T12:14:56Z</time></trkpt><trkpt lat="45.896067167956296" lon="11.961132554434121"><ele>228.0</ele><time>2026-04-07T12:14:57Z</time></trkpt><trkpt lat="45.89602546353492" lon="11.961029317546497"><ele>228.33333333333331</ele><time>2026-04-07T12:14:58Z</time></trkpt><trkpt lat="45.89597608809336" lon="11.960928683896677"><ele>228.66666666666666</ele><time>2026-04-07T12:14:59Z</time></trkpt><trkpt lat="45.895890980656745" lon="11.9608793916276"><ele>229.0</ele><time>2026-04-07T12:15:00Z</time></trkpt><trkpt lat="45.895811146272244" lon="11.960855379127489"><ele>226.83333333333331</ele><time>2026-04-07T12:15:01Z</time></trkpt><trkpt lat="45.895728431313465" lon="11.96086484004878"><ele>224.66666666666666</ele><time>2026-04-07T12:15:02Z</time></trkpt><trkpt lat="45.895649844743645" lon="11.960837201844805"><ele>222.5</ele><time>2026-04-07T12:15:03Z</time></trkpt><trkpt lat="45.89557001197402" lon="11.960833505376735"><ele>220.33333333333331</ele><time>2026-04-07T12:15:04Z</time></trkpt><trkpt lat="45.89549569724077" lon="11.960825230125756"><ele>218.16666666666666</ele><time>2026-04-07T12:15:05Z</time></trkpt><trkpt lat="45.895419200921566" lon="11.960809280371175"><ele>216.0</ele><time>2026-04-07T12:15:06Z</time></trkpt><trkpt lat="45.89533700995562" lon="11.960774382830744"><ele>216.0</ele><time>2026-04-07T12:15:07Z</time></trkpt><trkpt lat="45.895266629994204" lon="11.960715797011362"><ele>216.00000000000003</ele><time>2026-04-07T12:15:08Z</time></trkpt><trkpt lat="45.89521298431691" lon="11.96062505854883"><ele>216.00000000000003</ele><time>2026-04-07T12:15:09Z</time></trkpt><trkpt lat="45.89518716065364" lon="11.960500556186616"><ele>216.0</ele><time>2026-04-07T12:15:10Z</time></trkpt><trkpt lat="45.8951723562789" lon="11.960358596519029"><ele>216.0</ele><time>2026-04-07T12:15:11Z</time></trkpt><trkpt lat="45.895169892660576" lon="11.960216818496901"><ele>216.0</ele><time>2026-04-07T12:15:12Z</time></trkpt><trkpt lat="45.89517708587411" lon="11.960069232257784"><ele>216.00000000000003</ele><time>2026-04-07T12:15:13Z</time></trkpt><trkpt lat="45.89520287314529" lon="11.959921057751615"><ele>216.00000000000003</ele><time>2026-04-07T12:15:14Z</time></trkpt><trkpt lat="45.89524327894534" lon="11.959771202192826"><ele>216.0</ele><time>2026-04-07T12:15:15Z</time></trkpt><trkpt lat="45.89529958408775" lon="11.95962566664503"><ele>216.0</ele><time>2026-04-07T12:15:16Z</time></trkpt><trkpt lat="45.89537368511631" lon="11.959482286114097"><ele>216.75</ele><time>2026-04-07T12:15:17Z</time></trkpt><trkpt lat="45.895462521035" lon="11.959327095779699"><ele>217.5</ele><time>2026-04-07T12:15:18Z</time></trkpt><trkpt lat="45.89554418843218" lon="11.959178312840319"><ele>218.25</ele><time>2026-04-07T12:15:19Z</time></trkpt><trkpt lat="45.89562221347226" lon="11.959031429940348"><ele>219.0</ele><time>2026-04-07T12:15:20Z</time></trkpt><trkpt lat="45.89571329424794" lon="11.958881031575048"><ele>216.25</ele><time>2026-04-07T12:15:21Z</time></trkpt><trkpt lat="45.89580255059408" lon="11.958703995571417"><ele>213.5</ele><time>2026-04-07T12:15:22Z</time></trkpt><trkpt lat="45.89587573714373" lon="11.958529898293486"><ele>210.75</ele><time>2026-04-07T12:15:23Z</time></trkpt><trkpt lat="45.89592074629055" lon="11.958342168833692"><ele>208.0</ele><time>2026-04-07T12:15:24Z</time></trkpt><trkpt lat="45.89594472736033" lon="11.958115969915147"><ele>218.5</ele><time>2026-04-07T12:15:25Z</time></trkpt><trkpt lat="45.89599376027755" lon="11.95782184873314"><ele>229.0</ele><time>2026-04-07T12:15:26Z</time></trkpt><trkpt lat="45.896040122611865" lon="11.957473864271202"><ele>229.0</ele><time>2026-04-07T12:15:27Z</time></trkpt><trkpt lat="45.89607777632147" lon="11.957095809375778"><ele>229.0</ele><time>2026-04-07T12:15:28.001Z</time></trkpt><trkpt lat="45.89613389750626" lon="11.956768421210942"><ele>226.0</ele><time>2026-04-07T12:15:29.001Z</time></trkpt><trkpt lat="45.89618439365086" lon="11.956448377087765"><ele>223.0</ele><time>2026-04-07T12:15:30.001Z</time></trkpt><trkpt lat="45.8962265411544" lon="11.956145672527652"><ele>220.0</ele><time>2026-04-07T12:15:31.001Z</time></trkpt><trkpt lat="45.896265288544946" lon="11.95586679060379"><ele>216.66666666666666</ele><time>2026-04-07T12:15:32.001Z</time></trkpt><trkpt lat="45.89630062022747" lon="11.955615088330347"><ele>213.33333333333331</ele><time>2026-04-07T12:15:33.001Z</time></trkpt><trkpt lat="45.89634081171164" lon="11.955382426855076"><ele>210.0</ele><time>2026-04-07T12:15:34.001Z</time></trkpt><trkpt lat="45.89638654793646" lon="11.955178328994057"><ele>206.75</ele><time>2026-04-07T12:15:35.001Z</time></trkpt><trkpt lat="45.8964384510345" lon="11.954990153428344"><ele>203.5</ele><time>2026-04-07T12:15:36.001Z</time></trkpt><trkpt lat="45.8964968725362" lon="11.95481474514065"><ele>200.25</ele><time>2026-04-07T12:15:37.001Z</time></trkpt><trkpt lat="45.89655953811249" lon="11.954644027664761"><ele>197.0</ele><time>2026-04-07T12:15:38.001Z</time></trkpt><trkpt lat="45.89663012057004" lon="11.954471771421062"><ele>197.0</ele><time>2026-04-07T12:15:39.001Z</time></trkpt><trkpt lat="45.89670902124823" lon="11.954304024967287"><ele>197.0</ele><time>2026-04-07T12:15:40.001Z</time></trkpt><trkpt lat="45.89679370533482" lon="11.95414121535091"><ele>197.0</ele><time>2026-04-07T12:15:41.001Z</time></trkpt><trkpt lat="45.89687777007269" lon="11.953996673259391"><ele>197.0</ele><time>2026-04-07T12:15:42.001Z</time></trkpt><trkpt lat="45.89695711163351" lon="11.953862099307651"><ele>195.8</ele><time>2026-04-07T12:15:43.001Z</time></trkpt><trkpt lat="45.8970302370723" lon="11.953737165831692"><ele>194.6</ele><time>2026-04-07T12:15:44.001Z</time></trkpt><trkpt lat="45.89710041311716" lon="11.953619614038844"><ele>193.4</ele><time>2026-04-07T12:15:45.001Z</time></trkpt><trkpt lat="45.897173449641215" lon="11.95351691278428"><ele>192.20000000000002</ele><time>2026-04-07T12:15:46.001Z</time></trkpt><trkpt lat="45.89724753972374" lon="11.953416027373464"><ele>191.0</ele><time>2026-04-07T12:15:47.001Z</time></trkpt><trkpt lat="45.89733338519469" lon="11.953305866487925"><ele>192.5</ele><time>2026-04-07T12:15:48.001Z</time></trkpt><trkpt lat="45.89743394717287" lon="11.953188699516327"><ele>194.0</ele><time>2026-04-07T12:15:49.001Z</time></trkpt><trkpt lat="45.89755446590362" lon="11.953064902698985"><ele>195.5</ele><time>2026-04-07T12:15:50.001Z</time></trkpt><trkpt lat="45.897699729143184" lon="11.952932817861248"><ele>197.0</ele><time>2026-04-07T12:15:51.001Z</time></trkpt><trkpt lat="45.89785239599291" lon="11.952820028713406"><ele>197.0</ele><time>2026-04-07T12:15:52.001Z</time></trkpt><trkpt lat="45.89800317184208" lon="11.952725046192713"><ele>197.0</ele><time>2026-04-07T12:15:53.001Z</time></trkpt><trkpt lat="45.89817830444666" lon="11.952635584414448"><ele>197.0</ele><time>2026-04-07T12:15:54.001Z</time></trkpt><trkpt lat="45.89838299151628" lon="11.952543729131623"><ele>195.33333333333334</ele><time>2026-04-07T12:15:55.001Z</time></trkpt><trkpt lat="45.898588300322906" lon="11.952441912489324"><ele>193.66666666666669</ele><time>2026-04-07T12:15:56.001Z</time></trkpt><trkpt lat="45.89880081135461" lon="11.952333729759753"><ele>192.0</ele><time>2026-04-07T12:15:57.001Z</time></trkpt><trkpt lat="45.89902850143761" lon="11.952221938119209"><ele>192.0</ele><time>2026-04-07T12:15:58.001Z</time></trkpt><trkpt lat="45.89923445602168" lon="11.952125812753412"><ele>192.0</ele><time>2026-04-07T12:15:59.001Z</time></trkpt><trkpt lat="45.89942842105292" lon="11.952037542812821"><ele>192.0</ele><time>2026-04-07T12:16:00.001Z</time></trkpt><trkpt lat="45.899606119483046" lon="11.951952985046574"><ele>200.0</ele><time>2026-04-07T12:16:01.001Z</time></trkpt><trkpt lat="45.89976142036705" lon="11.95188196808355"><ele>208.0</ele><time>2026-04-07T12:16:02.001Z</time></trkpt><trkpt lat="45.89989042674112" lon="11.951825057489325"><ele>216.0</ele><time>2026-04-07T12:16:03.001Z</time></trkpt><trkpt lat="45.900001110480005" lon="11.951783354916312"><ele>224.0</ele><time>2026-04-07T12:16:04.001Z</time></trkpt><trkpt lat="45.900084321066906" lon="11.95175658496245"><ele>227.00000000000003</ele><time>2026-04-07T12:16:05.001Z</time></trkpt><trkpt lat="45.90015852714088" lon="11.951735306321584"><ele>230.0</ele><time>2026-04-07T12:16:06.001Z</time></trkpt><trkpt lat="45.90022329581583" lon="11.951710245003177"><ele>233.0</ele><time>2026-04-07T12:16:07.001Z</time></trkpt><trkpt lat="45.900315708487" lon="11.95165570574787"><ele>236.0</ele><time>2026-04-07T12:16:09.001Z</time></trkpt><trkpt lat="45.900316509243076" lon="11.9515350970135"><ele>239.00000000000003</ele><time>2026-04-07T12:16:10.001Z</time></trkpt><trkpt lat="45.90030280028619" lon="11.951439101260657"><ele>242.0</ele><time>2026-04-07T12:16:11.001Z</time></trkpt><trkpt lat="45.900265815366865" lon="11.951340563791298"><ele>232.6</ele><time>2026-04-07T12:16:12.001Z</time></trkpt><trkpt lat="45.90023108302348" lon="11.951213293949081"><ele>223.2</ele><time>2026-04-07T12:16:13.001Z</time></trkpt><trkpt lat="45.90022233790252" lon="11.951069374786071"><ele>213.8</ele><time>2026-04-07T12:16:14.001Z</time></trkpt><trkpt lat="45.90021896887592" lon="11.950908582167141"><ele>204.4</ele><time>2026-04-07T12:16:15.001Z</time></trkpt><trkpt lat="45.90020348716238" lon="11.950708194667454"><ele>195.0</ele><time>2026-04-07T12:16:16.001Z</time></trkpt><trkpt lat="45.90018831123394" lon="11.950504990147301"><ele>188.33333333333334</ele><time>2026-04-07T12:16:17.001Z</time></trkpt><trkpt lat="45.9001754336117" lon="11.95029761593454"><ele>181.66666666666669</ele><time>2026-04-07T12:16:18.001Z</time></trkpt><trkpt lat="45.90016082636897" lon="11.950040854988105"><ele>175.0</ele><time>2026-04-07T12:16:19.001Z</time></trkpt><trkpt lat="45.900143665167356" lon="11.949746190953313"><ele>175.0</ele><time>2026-04-07T12:16:20.001Z</time></trkpt><trkpt lat="45.90012598271847" lon="11.94948451661825"><ele>175.0</ele><time>2026-04-07T12:16:21.001Z</time></trkpt><trkpt lat="45.90010796302859" lon="11.949242396521635"><ele>175.0</ele><time>2026-04-07T12:16:22.001Z</time></trkpt><trkpt lat="45.90008850773275" lon="11.948996026473102"><ele>174.0</ele><time>2026-04-07T12:16:23.001Z</time></trkpt><trkpt lat="45.90007090578821" lon="11.948716091945927"><ele>173.0</ele><time>2026-04-07T12:16:24.001Z</time></trkpt><trkpt lat="45.90005785842261" lon="11.948409744981062"><ele>172.0</ele><time>2026-04-07T12:16:25.001Z</time></trkpt><trkpt lat="45.9000411584849" lon="11.948100042548196"><ele>172.0</ele><time>2026-04-07T12:16:26.001Z</time></trkpt><trkpt lat="45.90002000168865" lon="11.947801141425332"><ele>172.0</ele><time>2026-04-07T12:16:27.001Z</time></trkpt><trkpt lat="45.89999847947774" lon="11.94751978279882"><ele>172.0</ele><time>2026-04-07T12:16:28.001Z</time></trkpt><trkpt lat="45.89998270138511" lon="11.947255731547193"><ele>171.66666666666669</ele><time>2026-04-07T12:16:29.001Z</time></trkpt><trkpt lat="45.89996914656216" lon="11.947005317006314"><ele>171.33333333333334</ele><time>2026-04-07T12:16:30.001Z</time></trkpt><trkpt lat="45.899953996409636" lon="11.946766308862724"><ele>171.0</ele><time>2026-04-07T12:16:31.001Z</time></trkpt><trkpt lat="45.899938266733855" lon="11.94653293484781"><ele>172.25</ele><time>2026-04-07T12:16:32.001Z</time></trkpt><trkpt lat="45.89992423975877" lon="11.946317802429554"><ele>173.5</ele><time>2026-04-07T12:16:33.001Z</time></trkpt><trkpt lat="45.89991215106199" lon="11.946118640002277"><ele>174.75</ele><time>2026-04-07T12:16:34.001Z</time></trkpt><trkpt lat="45.899901647954884" lon="11.945923401333577"><ele>176.0</ele><time>2026-04-07T12:16:35.001Z</time></trkpt><trkpt lat="45.89988654810503" lon="11.94572540993916"><ele>176.75</ele><time>2026-04-07T12:16:36Z</time></trkpt><trkpt lat="45.899872706292136" lon="11.945546314514875"><ele>177.5</ele><time>2026-04-07T12:16:37Z</time></trkpt><trkpt lat="45.8998629849153" lon="11.94537939330119"><ele>178.25</ele><time>2026-04-07T12:16:38Z</time></trkpt><trkpt lat="45.89985345673472" lon="11.945209224784092"><ele>179.0</ele><time>2026-04-07T12:16:39Z</time></trkpt><trkpt lat="45.89984479478072" lon="11.945032356053165"><ele>179.0</ele><time>2026-04-07T12:16:40Z</time></trkpt><trkpt lat="45.89983327529093" lon="11.94484988862334"><ele>179.0</ele><time>2026-04-07T12:16:41Z</time></trkpt><trkpt lat="45.899819930289816" lon="11.944672922067907"><ele>179.0</ele><time>2026-04-07T12:16:42Z</time></trkpt><trkpt lat="45.89980938301676" lon="11.944517309660561"><ele>179.0</ele><time>2026-04-07T12:16:43Z</time></trkpt><trkpt lat="45.89980170346837" lon="11.944361241479887"><ele>178.25</ele><time>2026-04-07T12:16:44Z</time></trkpt><trkpt lat="45.89978937532623" lon="11.944193716645707"><ele>177.5</ele><time>2026-04-07T12:16:45Z</time></trkpt><trkpt lat="45.89977765212431" lon="11.94402582250736"><ele>176.75</ele><time>2026-04-07T12:16:46Z</time></trkpt><trkpt lat="45.899770456213545" lon="11.943859533892308"><ele>176.0</ele><time>2026-04-07T12:16:47Z</time></trkpt><trkpt lat="45.89976430814792" lon="11.943711457442452"><ele>176.0</ele><time>2026-04-07T12:16:48Z</time></trkpt><trkpt lat="45.89975562593464" lon="11.943588578316245"><ele>176.0</ele><time>2026-04-07T12:16:49Z</time></trkpt><trkpt lat="45.89974708961886" lon="11.94347174734431"><ele>176.0</ele><time>2026-04-07T12:16:50Z</time></trkpt><trkpt lat="45.899753692092055" lon="11.943350617940062"><ele>176.0</ele><time>2026-04-07T12:16:51Z</time></trkpt><trkpt lat="45.89978381135464" lon="11.943242007051627"><ele>176.0</ele><time>2026-04-07T12:16:52Z</time></trkpt><trkpt lat="45.89981146384452" lon="11.943136989716848"><ele>176.0</ele><time>2026-04-07T12:16:53Z</time></trkpt><trkpt lat="45.89984847914814" lon="11.943048421292692"><ele>177.60000000000002</ele><time>2026-04-07T12:16:54Z</time></trkpt><trkpt lat="45.89994393656161" lon="11.943022895704049"><ele>179.2</ele><time>2026-04-07T12:16:55Z</time></trkpt><trkpt lat="45.90002218015271" lon="11.94299988267023"><ele>180.8</ele><time>2026-04-07T12:16:56Z</time></trkpt><trkpt lat="45.90011275804432" lon="11.942995879985402"><ele>182.39999999999998</ele><time>2026-04-07T12:16:57Z</time></trkpt><trkpt lat="45.900222539418984" lon="11.942991850448479"><ele>184.0</ele><time>2026-04-07T12:16:58Z</time></trkpt><trkpt lat="45.90035649744916" lon="11.942977970229256"><ele>184.25</ele><time>2026-04-07T12:16:59Z</time></trkpt><trkpt lat="45.90047804053466" lon="11.942960002869103"><ele>184.5</ele><time>2026-04-07T12:17:00Z</time></trkpt><trkpt lat="45.90061283117278" lon="11.942943394904313"><ele>184.75</ele><time>2026-04-07T12:17:01Z</time></trkpt><trkpt lat="45.90078568577191" lon="11.942915708296399"><ele>185.0</ele><time>2026-04-07T12:17:02Z</time></trkpt><trkpt lat="45.90098765537101" lon="11.942877512796523"><ele>185.0</ele><time>2026-04-07T12:17:03Z</time></trkpt><trkpt lat="45.90117547843623" lon="11.942841467111933"><ele>185.0</ele><time>2026-04-07T12:17:04Z</time></trkpt><trkpt lat="45.90136980340743" lon="11.94279495697773"><ele>185.0</ele><time>2026-04-07T12:17:05Z</time></trkpt><trkpt lat="45.9015884267202" lon="11.942745213412715"><ele>186.0</ele><time>2026-04-07T12:17:06Z</time></trkpt><trkpt lat="45.9017976976395" lon="11.942699650530587"><ele>187.0</ele><time>2026-04-07T12:17:07Z</time></trkpt><trkpt lat="45.901989829988246" lon="11.942653877364059"><ele>188.0</ele><time>2026-04-07T12:17:08Z</time></trkpt><trkpt lat="45.902177718001326" lon="11.942600721297083"><ele>188.0</ele><time>2026-04-07T12:17:09Z</time></trkpt><trkpt lat="45.902360011512556" lon="11.942548870792681"><ele>188.0</ele><time>2026-04-07T12:17:10Z</time></trkpt><trkpt lat="45.90253054663607" lon="11.942501302407722"><ele>188.0</ele><time>2026-04-07T12:17:11Z</time></trkpt><trkpt lat="45.90270056911662" lon="11.942444144449833"><ele>188.66666666666666</ele><time>2026-04-07T12:17:12Z</time></trkpt><trkpt lat="45.90289286941762" lon="11.94237025657931"><ele>189.33333333333334</ele><time>2026-04-07T12:17:13Z</time></trkpt><trkpt lat="45.90311351066524" lon="11.942299262577594"><ele>190.0</ele><time>2026-04-07T12:17:14Z</time></trkpt><trkpt lat="45.90333307840995" lon="11.942192631076297"><ele>189.66666666666669</ele><time>2026-04-07T12:17:15Z</time></trkpt><trkpt lat="45.90356445305502" lon="11.942116399437905"><ele>189.33333333333334</ele><time>2026-04-07T12:17:16Z</time></trkpt><trkpt lat="45.90376498747482" lon="11.942037186467113"><ele>189.0</ele><time>2026-04-07T12:17:17Z</time></trkpt><trkpt lat="45.90395122489477" lon="11.941956792263975"><ele>189.0</ele><time>2026-04-07T12:17:18Z</time></trkpt><trkpt lat="45.90412554759525" lon="11.94188362143645"><ele>189.0</ele><time>2026-04-07T12:17:19Z</time></trkpt><trkpt lat="45.90428910697497" lon="11.94182071753305"><ele>189.0</ele><time>2026-04-07T12:17:20Z</time></trkpt><trkpt lat="45.90443898436307" lon="11.941755615526434"><ele>189.25</ele><time>2026-04-07T12:17:21Z</time></trkpt><trkpt lat="45.90457160088831" lon="11.941697062495807"><ele>189.5</ele><time>2026-04-07T12:17:22Z</time></trkpt><trkpt lat="45.904687738649066" lon="11.94164814902896"><ele>189.75</ele><time>2026-04-07T12:17:23Z</time></trkpt><trkpt lat="45.90479156342502" lon="11.941596225179087"><ele>190.0</ele><time>2026-04-07T12:17:24Z</time></trkpt><trkpt lat="45.90487568853024" lon="11.941538596870936"><ele>190.0</ele><time>2026-04-07T12:17:25Z</time></trkpt><trkpt lat="45.90495117430095" lon="11.94148918701712"><ele>190.0</ele><time>2026-04-07T12:17:26Z</time></trkpt><trkpt lat="45.90502206657949" lon="11.94145770054104"><ele>190.0</ele><time>2026-04-07T12:17:27Z</time></trkpt><trkpt lat="45.90508756534783" lon="11.941437071061827"><ele>190.0</ele><time>2026-04-07T12:17:28Z</time></trkpt><trkpt lat="45.90515518516715" lon="11.941423794378053"><ele>190.0</ele><time>2026-04-07T12:17:29Z</time></trkpt><trkpt lat="45.90524975816221" lon="11.941405300749672"><ele>190.0</ele><time>2026-04-07T12:17:30Z</time></trkpt><trkpt lat="45.905367696483964" lon="11.941372539421774"><ele>188.25</ele><time>2026-04-07T12:17:31Z</time></trkpt><trkpt lat="45.90550415699717" lon="11.941426644410505"><ele>186.5</ele><time>2026-04-07T12:17:32Z</time></trkpt><trkpt lat="45.90563890314087" lon="11.94141455232098"><ele>184.75</ele><time>2026-04-07T12:17:33Z</time></trkpt><trkpt lat="45.90576681578353" lon="11.94151155767338"><ele>183.0</ele><time>2026-04-07T12:17:34Z</time></trkpt><trkpt lat="45.905914006919566" lon="11.941565839936773"><ele>181.66666666666666</ele><time>2026-04-07T12:17:35Z</time></trkpt><trkpt lat="45.906079839894616" lon="11.941641750608603"><ele>180.33333333333331</ele><time>2026-04-07T12:17:36Z</time></trkpt><trkpt lat="45.90625862143726" lon="11.941726031336092"><ele>179.0</ele><time>2026-04-07T12:17:37Z</time></trkpt><trkpt lat="45.90643110460363" lon="11.941804675934769"><ele>178.66666666666666</ele><time>2026-04-07T12:17:38Z</time></trkpt><trkpt lat="45.90660491295275" lon="11.94188554976601"><ele>178.33333333333334</ele><time>2026-04-07T12:17:39Z</time></trkpt><trkpt lat="45.906797776840186" lon="11.941970961658567"><ele>178.0</ele><time>2026-04-07T12:17:40Z</time></trkpt><trkpt lat="45.90701408306502" lon="11.942062007711428"><ele>178.0</ele><time>2026-04-07T12:17:41Z</time></trkpt><trkpt lat="45.90723395266026" lon="11.942159551158385"><ele>178.0</ele><time>2026-04-07T12:17:42Z</time></trkpt><trkpt lat="45.907434253092106" lon="11.942256006081212"><ele>178.0</ele><time>2026-04-07T12:17:43.001Z</time></trkpt><trkpt lat="45.907622858833584" lon="11.942344790089615"><ele>179.0</ele><time>2026-04-07T12:17:44.001Z</time></trkpt><trkpt lat="45.90781802801434" lon="11.942423666692001"><ele>180.0</ele><time>2026-04-07T12:17:45.001Z</time></trkpt><trkpt lat="45.90801251522131" lon="11.942472064802802"><ele>181.0</ele><time>2026-04-07T12:17:46.001Z</time></trkpt><trkpt lat="45.908205911146354" lon="11.942480488871244"><ele>182.33333333333334</ele><time>2026-04-07T12:17:47.001Z</time></trkpt><trkpt lat="45.908410660928155" lon="11.942452584219343"><ele>183.66666666666666</ele><time>2026-04-07T12:17:48.001Z</time></trkpt><trkpt lat="45.908621755133126" lon="11.942391375358511"><ele>185.0</ele><time>2026-04-07T12:17:49.001Z</time></trkpt><trkpt lat="45.90885484108728" lon="11.942302605090362"><ele>185.0</ele><time>2026-04-07T12:17:50.001Z</time></trkpt><trkpt lat="45.90910702573101" lon="11.942212801424912"><ele>185.0</ele><time>2026-04-07T12:17:51.001Z</time></trkpt><trkpt lat="45.90937757534376" lon="11.94211571812479"><ele>183.0</ele><time>2026-04-07T12:17:52.001Z</time></trkpt><trkpt lat="45.90966537396937" lon="11.942013751890032"><ele>181.0</ele><time>2026-04-07T12:17:53.001Z</time></trkpt><trkpt lat="45.90995756521776" lon="11.941912528682154"><ele>179.5</ele><time>2026-04-07T12:17:54.001Z</time></trkpt><trkpt lat="45.91021903170486" lon="11.941822632088655"><ele>178.0</ele><time>2026-04-07T12:17:55.001Z</time></trkpt><trkpt lat="45.91047600991171" lon="11.941745980949813"><ele>185.0</ele><time>2026-04-07T12:17:56.001Z</time></trkpt><trkpt lat="45.91074518888968" lon="11.941678993986152"><ele>192.0</ele><time>2026-04-07T12:17:57.001Z</time></trkpt><trkpt lat="45.911034069806504" lon="11.94161559080938"><ele>192.0</ele><time>2026-04-07T12:17:58.001Z</time></trkpt><trkpt lat="45.91133871730715" lon="11.941554348871584"><ele>192.0</ele><time>2026-04-07T12:17:59.001Z</time></trkpt><trkpt lat="45.91165279194668" lon="11.941491051912783"><ele>191.0</ele><time>2026-04-07T12:18:00.001Z</time></trkpt><trkpt lat="45.9119543741026" lon="11.941421145384009"><ele>190.0</ele><time>2026-04-07T12:18:01.001Z</time></trkpt><trkpt lat="45.91223685642491" lon="11.94135788598485"><ele>190.0</ele><time>2026-04-07T12:18:02.001Z</time></trkpt><trkpt lat="45.912521891113954" lon="11.941316529438863"><ele>190.0</ele><time>2026-04-07T12:18:03.001Z</time></trkpt><trkpt lat="45.91279825139599" lon="11.941303919806831"><ele>192.5</ele><time>2026-04-07T12:18:04.001Z</time></trkpt><trkpt lat="45.91306559736111" lon="11.941326195865509"><ele>195.0</ele><time>2026-04-07T12:18:05.001Z</time></trkpt><trkpt lat="45.91335346381643" lon="11.941367204363814"><ele>196.5</ele><time>2026-04-07T12:18:06.001Z</time></trkpt><trkpt lat="45.9136544900986" lon="11.941413953817008"><ele>198.0</ele><time>2026-04-07T12:18:07.001Z</time></trkpt><trkpt lat="45.91396874107709" lon="11.941465316395327"><ele>203.0</ele><time>2026-04-07T12:18:08.001Z</time></trkpt><trkpt lat="45.91429414632512" lon="11.941517620017231"><ele>208.0</ele><time>2026-04-07T12:18:09.001Z</time></trkpt><trkpt lat="45.91462989904598" lon="11.941572654211615"><ele>208.0</ele><time>2026-04-07T12:18:10.001Z</time></trkpt><trkpt lat="45.914939711564664" lon="11.941625606417789"><ele>208.0</ele><time>2026-04-07T12:18:11.001Z</time></trkpt><trkpt lat="45.91522377435872" lon="11.941673025080279"><ele>206.5</ele><time>2026-04-07T12:18:12.001Z</time></trkpt><trkpt lat="45.91549519361091" lon="11.941713070291732"><ele>205.0</ele><time>2026-04-07T12:18:13.001Z</time></trkpt><trkpt lat="45.9157482499376" lon="11.941753471961317"><ele>207.5</ele><time>2026-04-07T12:18:14.001Z</time></trkpt><trkpt lat="45.91598336164494" lon="11.941797767276048"><ele>210.0</ele><time>2026-04-07T12:18:15.001Z</time></trkpt><trkpt lat="45.91620086501204" lon="11.941833679762945"><ele>210.0</ele><time>2026-04-07T12:18:16.001Z</time></trkpt><trkpt lat="45.91640490705662" lon="11.941865122872239"><ele>210.0</ele><time>2026-04-07T12:18:17.001Z</time></trkpt><trkpt lat="45.916603326085166" lon="11.941891616985014"><ele>210.0</ele><time>2026-04-07T12:18:18.001Z</time></trkpt><trkpt lat="45.91679399242826" lon="11.941917368403924"><ele>213.0</ele><time>2026-04-07T12:18:19.001Z</time></trkpt><trkpt lat="45.91696648874699" lon="11.941942837324902"><ele>216.0</ele><time>2026-04-07T12:18:20.001Z</time></trkpt><trkpt lat="45.91713379749984" lon="11.941974166002165"><ele>219.0</ele><time>2026-04-07T12:18:21.001Z</time></trkpt><trkpt lat="45.91731231200242" lon="11.942002976921057"><ele>219.0</ele><time>2026-04-07T12:18:22.001Z</time></trkpt><trkpt lat="45.91749208716106" lon="11.942030582301062"><ele>219.0</ele><time>2026-04-07T12:18:23.001Z</time></trkpt><trkpt lat="45.917672384405584" lon="11.942076888810815"><ele>219.0</ele><time>2026-04-07T12:18:24.001Z</time></trkpt><trkpt lat="45.917852253343256" lon="11.942146245318142"><ele>220.0</ele><time>2026-04-07T12:18:25.001Z</time></trkpt><trkpt lat="45.91802396233366" lon="11.942240354953539"><ele>221.0</ele><time>2026-04-07T12:18:26.001Z</time></trkpt><trkpt lat="45.91819027214744" lon="11.94236756002443"><ele>222.0</ele><time>2026-04-07T12:18:27.001Z</time></trkpt><trkpt lat="45.91837863649002" lon="11.942532255969182"><ele>221.0</ele><time>2026-04-07T12:18:28.001Z</time></trkpt><trkpt lat="45.91858698234678" lon="11.942728725053046"><ele>220.0</ele><time>2026-04-07T12:18:29.001Z</time></trkpt><trkpt lat="45.91880804261583" lon="11.94295001362543"><ele>220.0</ele><time>2026-04-07T12:18:30.001Z</time></trkpt><trkpt lat="45.91901527073196" lon="11.943164357312186"><ele>220.0</ele><time>2026-04-07T12:18:31.001Z</time></trkpt><trkpt lat="45.919204221876235" lon="11.943354623825075"><ele>221.66666666666666</ele><time>2026-04-07T12:18:32.001Z</time></trkpt><trkpt lat="45.919388399889144" lon="11.943531810682293"><ele>223.33333333333331</ele><time>2026-04-07T12:18:33.001Z</time></trkpt><trkpt lat="45.91956827200533" lon="11.943700318124737"><ele>225.0</ele><time>2026-04-07T12:18:34.001Z</time></trkpt><trkpt lat="45.919743861958295" lon="11.94386241836068"><ele>225.0</ele><time>2026-04-07T12:18:35.001Z</time></trkpt><trkpt lat="45.91992299476691" lon="11.944024328830839"><ele>225.0</ele><time>2026-04-07T12:18:36.001Z</time></trkpt><trkpt lat="45.920098528994984" lon="11.944189364780913"><ele>225.0</ele><time>2026-04-07T12:18:37.001Z</time></trkpt><trkpt lat="45.920266840642554" lon="11.944358293295268"><ele>225.33333333333331</ele><time>2026-04-07T12:18:38.001Z</time></trkpt><trkpt lat="45.92042531708801" lon="11.944528266102987"><ele>225.66666666666666</ele><time>2026-04-07T12:18:39.001Z</time></trkpt><trkpt lat="45.92057812459364" lon="11.944688256921184"><ele>226.0</ele><time>2026-04-07T12:18:40.001Z</time></trkpt><trkpt lat="45.92072667169612" lon="11.944841561858093"><ele>226.0</ele><time>2026-04-07T12:18:41.001Z</time></trkpt><trkpt lat="45.920867606500885" lon="11.944983014725448"><ele>226.0</ele><time>2026-04-07T12:18:42Z</time></trkpt><trkpt lat="45.921013919751516" lon="11.945122036268705"><ele>226.0</ele><time>2026-04-07T12:18:43Z</time></trkpt><trkpt lat="45.92115918276199" lon="11.945236199209296"><ele>226.0</ele><time>2026-04-07T12:18:44Z</time></trkpt><trkpt lat="45.921311031143745" lon="11.945332246795191"><ele>226.0</ele><time>2026-04-07T12:18:45Z</time></trkpt><trkpt lat="45.92147186161798" lon="11.945410396696225"><ele>226.0</ele><time>2026-04-07T12:18:46Z</time></trkpt><trkpt lat="45.92164375869883" lon="11.945471896438585"><ele>226.33333333333331</ele><time>2026-04-07T12:18:47Z</time></trkpt><trkpt lat="45.92182496693334" lon="11.94551716232324"><ele>226.66666666666669</ele><time>2026-04-07T12:18:48Z</time></trkpt><trkpt lat="45.92200685877501" lon="11.945537876362705"><ele>227.0</ele><time>2026-04-07T12:18:49Z</time></trkpt><trkpt lat="45.92218798688685" lon="11.945541948685538"><ele>227.0</ele><time>2026-04-07T12:18:50Z</time></trkpt><trkpt lat="45.92236507861471" lon="11.945525912775548"><ele>227.0</ele><time>2026-04-07T12:18:51Z</time></trkpt><trkpt lat="45.92253822258904" lon="11.945481905776282"><ele>227.0</ele><time>2026-04-07T12:18:52Z</time></trkpt><trkpt lat="45.92271086951754" lon="11.945413868848267"><ele>225.33333333333334</ele><time>2026-04-07T12:18:53Z</time></trkpt><trkpt lat="45.92287762844818" lon="11.945334030898662"><ele>223.66666666666669</ele><time>2026-04-07T12:18:54Z</time></trkpt><trkpt lat="45.92304031236172" lon="11.94523489049022"><ele>222.0</ele><time>2026-04-07T12:18:55Z</time></trkpt><trkpt lat="45.92319604019003" lon="11.945118320358928"><ele>223.0</ele><time>2026-04-07T12:18:56Z</time></trkpt><trkpt lat="45.92334669638624" lon="11.94498196401431"><ele>224.0</ele><time>2026-04-07T12:18:57Z</time></trkpt><trkpt lat="45.923494010910304" lon="11.944827089512039"><ele>225.0</ele><time>2026-04-07T12:18:58Z</time></trkpt><trkpt lat="45.92364558698474" lon="11.944658722162812"><ele>225.0</ele><time>2026-04-07T12:18:59Z</time></trkpt><trkpt lat="45.92381138299867" lon="11.944465342118436"><ele>225.0</ele><time>2026-04-07T12:19:00Z</time></trkpt><trkpt lat="45.923996411376265" lon="11.944251194066787"><ele>225.5</ele><time>2026-04-07T12:19:01Z</time></trkpt><trkpt lat="45.92419325704699" lon="11.944030054319107"><ele>226.0</ele><time>2026-04-07T12:19:02Z</time></trkpt><trkpt lat="45.92440055722406" lon="11.943811670358553"><ele>226.0</ele><time>2026-04-07T12:19:03Z</time></trkpt><trkpt lat="45.92462960891643" lon="11.943575581723113"><ele>226.0</ele><time>2026-04-07T12:19:04Z</time></trkpt><trkpt lat="45.92484173946927" lon="11.943344725099964"><ele>227.0</ele><time>2026-04-07T12:19:05Z</time></trkpt><trkpt lat="45.925038744773104" lon="11.943125414288392"><ele>228.0</ele><time>2026-04-07T12:19:06Z</time></trkpt><trkpt lat="45.925251692540336" lon="11.942898090347883"><ele>226.5</ele><time>2026-04-07T12:19:07Z</time></trkpt><trkpt lat="45.92546483087056" lon="11.942664654121817"><ele>225.0</ele><time>2026-04-07T12:19:08Z</time></trkpt><trkpt lat="45.925658996860726" lon="11.942443472259521"><ele>225.0</ele><time>2026-04-07T12:19:09Z</time></trkpt><trkpt lat="45.92584522189561" lon="11.942221497698808"><ele>225.0</ele><time>2026-04-07T12:19:10Z</time></trkpt><trkpt lat="45.926025991911054" lon="11.941971766939847"><ele>221.5</ele><time>2026-04-07T12:19:11Z</time></trkpt><trkpt lat="45.92619546999232" lon="11.941692217373257"><ele>218.0</ele><time>2026-04-07T12:19:12Z</time></trkpt><trkpt lat="45.92634729459253" lon="11.941411426514206"><ele>218.0</ele><time>2026-04-07T12:19:13Z</time></trkpt><trkpt lat="45.926497075484924" lon="11.941109115593985"><ele>218.0</ele><time>2026-04-07T12:19:14Z</time></trkpt><trkpt lat="45.92662814249615" lon="11.94081692882412"><ele>213.0</ele><time>2026-04-07T12:19:15Z</time></trkpt><trkpt lat="45.926753221489996" lon="11.940515525202814"><ele>208.0</ele><time>2026-04-07T12:19:16Z</time></trkpt><trkpt lat="45.926880398025204" lon="11.940177973242157"><ele>210.5</ele><time>2026-04-07T12:19:17Z</time></trkpt><trkpt lat="45.92700764728321" lon="11.939834141067765"><ele>213.0</ele><time>2026-04-07T12:19:18Z</time></trkpt><trkpt lat="45.92712997653605" lon="11.93952350278957"><ele>213.0</ele><time>2026-04-07T12:19:19Z</time></trkpt><trkpt lat="45.92724476714109" lon="11.939231079862944"><ele>213.0</ele><time>2026-04-07T12:19:20Z</time></trkpt><trkpt lat="45.92734215191965" lon="11.938967914628062"><ele>213.0</ele><time>2026-04-07T12:19:21Z</time></trkpt><trkpt lat="45.92743183831648" lon="11.93872460187749"><ele>214.0</ele><time>2026-04-07T12:19:22Z</time></trkpt><trkpt lat="45.927524801120704" lon="11.938491827239696"><ele>215.0</ele><time>2026-04-07T12:19:23Z</time></trkpt><trkpt lat="45.92761982348713" lon="11.938263640383267"><ele>216.0</ele><time>2026-04-07T12:19:24Z</time></trkpt><trkpt lat="45.927715404308195" lon="11.938033725101832"><ele>215.66666666666669</ele><time>2026-04-07T12:19:25Z</time></trkpt><trkpt lat="45.92781239094205" lon="11.937811333921362"><ele>215.33333333333334</ele><time>2026-04-07T12:19:26Z</time></trkpt><trkpt lat="45.92791865884613" lon="11.937607970157064"><ele>215.0</ele><time>2026-04-07T12:19:27Z</time></trkpt><trkpt lat="45.92804107430137" lon="11.937414832628708"><ele>215.0</ele><time>2026-04-07T12:19:28Z</time></trkpt><trkpt lat="45.9281739628352" lon="11.937237098604715"><ele>215.0</ele><time>2026-04-07T12:19:29Z</time></trkpt><trkpt lat="45.92831559461323" lon="11.937063893754315"><ele>215.0</ele><time>2026-04-07T12:19:30Z</time></trkpt><trkpt lat="45.928468798607284" lon="11.936889581121886"><ele>215.33333333333334</ele><time>2026-04-07T12:19:31Z</time></trkpt><trkpt lat="45.92863973297734" lon="11.936722864887669"><ele>215.66666666666669</ele><time>2026-04-07T12:19:32Z</time></trkpt><trkpt lat="45.9288258823932" lon="11.936564891459527"><ele>216.0</ele><time>2026-04-07T12:19:33Z</time></trkpt><trkpt lat="45.929026851744965" lon="11.93640168704903"><ele>212.5</ele><time>2026-04-07T12:19:34Z</time></trkpt><trkpt lat="45.92924728208478" lon="11.93622589325737"><ele>209.0</ele><time>2026-04-07T12:19:35.001Z</time></trkpt><trkpt lat="45.92946227017616" lon="11.936065253528259"><ele>209.0</ele><time>2026-04-07T12:19:36.001Z</time></trkpt><trkpt lat="45.92965991872355" lon="11.935921034396749"><ele>209.0</ele><time>2026-04-07T12:19:37.001Z</time></trkpt><trkpt lat="45.929845109129076" lon="11.935782643753015"><ele>209.0</ele><time>2026-04-07T12:19:38.001Z</time></trkpt><trkpt lat="45.93001222595649" lon="11.935634737284344"><ele>211.0</ele><time>2026-04-07T12:19:39.001Z</time></trkpt><trkpt lat="45.93016806886586" lon="11.93547425036676"><ele>213.0</ele><time>2026-04-07T12:19:40.001Z</time></trkpt><trkpt lat="45.93031406472197" lon="11.935297182789672"><ele>215.0</ele><time>2026-04-07T12:19:41.001Z</time></trkpt><trkpt lat="45.93044925309645" lon="11.93511449118169"><ele>215.66666666666669</ele><time>2026-04-07T12:19:42.001Z</time></trkpt><trkpt lat="45.930564333506965" lon="11.934931427613193"><ele>216.33333333333331</ele><time>2026-04-07T12:19:43.001Z</time></trkpt><trkpt lat="45.9306672746845" lon="11.934749977790261"><ele>217.0</ele><time>2026-04-07T12:19:44.001Z</time></trkpt><trkpt lat="45.93075781512505" lon="11.934569988831795"><ele>217.0</ele><time>2026-04-07T12:19:45.001Z</time></trkpt><trkpt lat="45.93085382316099" lon="11.934355587549607"><ele>217.0</ele><time>2026-04-07T12:19:46.001Z</time></trkpt><trkpt lat="45.93093690390186" lon="11.934140776656493"><ele>217.0</ele><time>2026-04-07T12:19:47.001Z</time></trkpt><trkpt lat="45.93101021837394" lon="11.933930252925956"><ele>216.33333333333331</ele><time>2026-04-07T12:19:48.001Z</time></trkpt><trkpt lat="45.93110770631383" lon="11.933673141846265"><ele>215.66666666666669</ele><time>2026-04-07T12:19:49.001Z</time></trkpt><trkpt lat="45.93121876669088" lon="11.93340210533003"><ele>215.0</ele><time>2026-04-07T12:19:50.001Z</time></trkpt><trkpt lat="45.93132100836847" lon="11.933133252589167"><ele>215.0</ele><time>2026-04-07T12:19:51.001Z</time></trkpt><trkpt lat="45.93141932717238" lon="11.932851964164604"><ele>215.0</ele><time>2026-04-07T12:19:52.001Z</time></trkpt><trkpt lat="45.931510435291294" lon="11.932577024677212"><ele>215.0</ele><time>2026-04-07T12:19:53.001Z</time></trkpt><trkpt lat="45.93160257619329" lon="11.932286666641785"><ele>216.0</ele><time>2026-04-07T12:19:54.001Z</time></trkpt><trkpt lat="45.93169385507985" lon="11.931957182888258"><ele>217.0</ele><time>2026-04-07T12:19:55.001Z</time></trkpt><trkpt lat="45.931779200976294" lon="11.931614017702998"><ele>215.0</ele><time>2026-04-07T12:19:56.001Z</time></trkpt><trkpt lat="45.93185909720878" lon="11.93125582365573"><ele>213.0</ele><time>2026-04-07T12:19:57.001Z</time></trkpt><trkpt lat="45.93193851744651" lon="11.930884585077552"><ele>211.0</ele><time>2026-04-07T12:19:58.001Z</time></trkpt><trkpt lat="45.93200879495139" lon="11.930518836637884"><ele>209.0</ele><time>2026-04-07T12:19:59.001Z</time></trkpt><trkpt lat="45.93207010721725" lon="11.93018781439623"><ele>209.33333333333334</ele><time>2026-04-07T12:20:00.001Z</time></trkpt><trkpt lat="45.932129783470025" lon="11.92987629113068"><ele>209.66666666666669</ele><time>2026-04-07T12:20:01.001Z</time></trkpt><trkpt lat="45.93219153094126" lon="11.929579421020122"><ele>210.0</ele><time>2026-04-07T12:20:02.001Z</time></trkpt><trkpt lat="45.932252795458716" lon="11.929276200279757"><ele>210.0</ele><time>2026-04-07T12:20:03.001Z</time></trkpt><trkpt lat="45.93232065044463" lon="11.928948487451388"><ele>210.0</ele><time>2026-04-07T12:20:04.001Z</time></trkpt><trkpt lat="45.932403453643644" lon="11.92862604575298"><ele>211.0</ele><time>2026-04-07T12:20:05.001Z</time></trkpt><trkpt lat="45.93250602772141" lon="11.928313921853269"><ele>212.0</ele><time>2026-04-07T12:20:06.001Z</time></trkpt><trkpt lat="45.93261592711937" lon="11.928007055071111"><ele>203.0</ele><time>2026-04-07T12:20:07.001Z</time></trkpt><trkpt lat="45.93272769325591" lon="11.927713189603525"><ele>194.0</ele><time>2026-04-07T12:20:08.001Z</time></trkpt><trkpt lat="45.9328561226674" lon="11.927420080008238"><ele>194.0</ele><time>2026-04-07T12:20:09.001Z</time></trkpt><trkpt lat="45.93300525443153" lon="11.927115251095355"><ele>194.0</ele><time>2026-04-07T12:20:10.001Z</time></trkpt><trkpt lat="45.93317182915632" lon="11.926809344788904"><ele>189.0</ele><time>2026-04-07T12:20:11.001Z</time></trkpt><trkpt lat="45.933349458916595" lon="11.926480042621492"><ele>184.0</ele><time>2026-04-07T12:20:12.001Z</time></trkpt><trkpt lat="45.93353512124207" lon="11.926126418881934"><ele>188.5</ele><time>2026-04-07T12:20:13.001Z</time></trkpt><trkpt lat="45.93373155026342" lon="11.925754882621469"><ele>193.0</ele><time>2026-04-07T12:20:14.001Z</time></trkpt><trkpt lat="45.93393719737807" lon="11.925365813346481"><ele>189.0</ele><time>2026-04-07T12:20:15.001Z</time></trkpt><trkpt lat="45.934153429747376" lon="11.92496334017016"><ele>185.0</ele><time>2026-04-07T12:20:16.001Z</time></trkpt><trkpt lat="45.934368143177615" lon="11.924562443187872"><ele>188.5</ele><time>2026-04-07T12:20:17.001Z</time></trkpt><trkpt lat="45.934568095613045" lon="11.92419463785463"><ele>192.0</ele><time>2026-04-07T12:20:18.001Z</time></trkpt><trkpt lat="45.934772816113934" lon="11.923820025419365"><ele>192.0</ele><time>2026-04-07T12:20:19.001Z</time></trkpt><trkpt lat="45.93497155934505" lon="11.923468403546119"><ele>192.0</ele><time>2026-04-07T12:20:20.001Z</time></trkpt><trkpt lat="45.9351552017612" lon="11.92313757784253"><ele>194.0</ele><time>2026-04-07T12:20:21.001Z</time></trkpt><trkpt lat="45.935334844498655" lon="11.922821450181752"><ele>196.0</ele><time>2026-04-07T12:20:22.001Z</time></trkpt><trkpt lat="45.93551573027629" lon="11.922496264897525"><ele>196.0</ele><time>2026-04-07T12:20:23.001Z</time></trkpt><trkpt lat="45.93568049943862" lon="11.922186218671799"><ele>196.0</ele><time>2026-04-07T12:20:24.001Z</time></trkpt><trkpt lat="45.93583566197699" lon="11.921909579954006"><ele>193.66666666666666</ele><time>2026-04-07T12:20:25.001Z</time></trkpt><trkpt lat="45.93597822292905" lon="11.92166101639796"><ele>191.33333333333331</ele><time>2026-04-07T12:20:26.001Z</time></trkpt><trkpt lat="45.93610456156094" lon="11.921436179348207"><ele>189.0</ele><time>2026-04-07T12:20:27.001Z</time></trkpt><trkpt lat="45.93623528357933" lon="11.921231602563617"><ele>189.0</ele><time>2026-04-07T12:20:28.001Z</time></trkpt><trkpt lat="45.93638020048096" lon="11.921055650290066"><ele>189.0</ele><time>2026-04-07T12:20:29.001Z</time></trkpt><trkpt lat="45.93655988012467" lon="11.92089796061409"><ele>189.0</ele><time>2026-04-07T12:20:30.001Z</time></trkpt><trkpt lat="45.93676328057419" lon="11.920736663495124"><ele>190.5</ele><time>2026-04-07T12:20:31.001Z</time></trkpt><trkpt lat="45.936977469182146" lon="11.920579435653476"><ele>192.0</ele><time>2026-04-07T12:20:32.001Z</time></trkpt><trkpt lat="45.93718156082659" lon="11.920443402938472"><ele>192.0</ele><time>2026-04-07T12:20:33.001Z</time></trkpt><trkpt lat="45.93739824266815" lon="11.920326980409591"><ele>192.0</ele><time>2026-04-07T12:20:34.001Z</time></trkpt><trkpt lat="45.937642167899654" lon="11.920212045026119"><ele>191.5</ele><time>2026-04-07T12:20:35.001Z</time></trkpt><trkpt lat="45.93787683289078" lon="11.920104641708873"><ele>191.0</ele><time>2026-04-07T12:20:36.001Z</time></trkpt><trkpt lat="45.93809726643744" lon="11.920002824456098"><ele>195.0</ele><time>2026-04-07T12:20:37.001Z</time></trkpt><trkpt lat="45.938322507708115" lon="11.919925969843604"><ele>199.0</ele><time>2026-04-07T12:20:38.001Z</time></trkpt><trkpt lat="45.93857037080629" lon="11.919871908655578"><ele>199.0</ele><time>2026-04-07T12:20:39.001Z</time></trkpt><trkpt lat="45.93883364709569" lon="11.919838183508704"><ele>199.0</ele><time>2026-04-07T12:20:40.001Z</time></trkpt><trkpt lat="45.9391002586958" lon="11.919817636576619"><ele>199.0</ele><time>2026-04-07T12:20:41.001Z</time></trkpt><trkpt lat="45.93934443635028" lon="11.919801279738756"><ele>199.0</ele><time>2026-04-07T12:20:42.001Z</time></trkpt><trkpt lat="45.93957538358648" lon="11.919784937112425"><ele>199.0</ele><time>2026-04-07T12:20:43.001Z</time></trkpt><trkpt lat="45.939795955863524" lon="11.919770537722624"><ele>199.0</ele><time>2026-04-07T12:20:44.001Z</time></trkpt><trkpt lat="45.94000373136182" lon="11.919769851673019"><ele>199.0</ele><time>2026-04-07T12:20:45.001Z</time></trkpt><trkpt lat="45.94020386817875" lon="11.91979760585957"><ele>200.33333333333331</ele><time>2026-04-07T12:20:46.001Z</time></trkpt><trkpt lat="45.940394074312046" lon="11.919849029559499"><ele>201.66666666666669</ele><time>2026-04-07T12:20:47.001Z</time></trkpt><trkpt lat="45.94058144066697" lon="11.919920780359934"><ele>203.0</ele><time>2026-04-07T12:20:48Z</time></trkpt><trkpt lat="45.94075238247706" lon="11.920004346769623"><ele>201.33333333333334</ele><time>2026-04-07T12:20:49Z</time></trkpt><trkpt lat="45.940926730950395" lon="11.920102407060792"><ele>199.66666666666669</ele><time>2026-04-07T12:20:50Z</time></trkpt><trkpt lat="45.94109029638372" lon="11.920210109434567"><ele>198.0</ele><time>2026-04-07T12:20:51Z</time></trkpt><trkpt lat="45.941244661420704" lon="11.920317863847082"><ele>198.0</ele><time>2026-04-07T12:20:52Z</time></trkpt><trkpt lat="45.94139452429632" lon="11.920422755201747"><ele>198.0</ele><time>2026-04-07T12:20:53Z</time></trkpt><trkpt lat="45.94154962965651" lon="11.920528861400458"><ele>198.0</ele><time>2026-04-07T12:20:54Z</time></trkpt><trkpt lat="45.94171937808073" lon="11.920644873129262"><ele>198.66666666666669</ele><time>2026-04-07T12:20:55Z</time></trkpt><trkpt lat="45.941909139536676" lon="11.920769469908063"><ele>199.33333333333334</ele><time>2026-04-07T12:20:56Z</time></trkpt><trkpt lat="45.94212623923241" lon="11.920908186284816"><ele>200.0</ele><time>2026-04-07T12:20:57Z</time></trkpt><trkpt lat="45.94235531496177" lon="11.921070058222286"><ele>205.0</ele><time>2026-04-07T12:20:58Z</time></trkpt><trkpt lat="45.94255547657392" lon="11.92123506706117"><ele>210.0</ele><time>2026-04-07T12:20:59Z</time></trkpt><trkpt lat="45.942736088145494" lon="11.921389883436898"><ele>215.0</ele><time>2026-04-07T12:21:00Z</time></trkpt><trkpt lat="45.94293530007823" lon="11.921531109336891"><ele>215.0</ele><time>2026-04-07T12:21:01Z</time></trkpt><trkpt lat="45.94315657486189" lon="11.92166212987132"><ele>215.0</ele><time>2026-04-07T12:21:02Z</time></trkpt><trkpt lat="45.943380721643706" lon="11.921770078572042"><ele>205.5</ele><time>2026-04-07T12:21:03Z</time></trkpt><trkpt lat="45.943615901456724" lon="11.92185761303749"><ele>196.0</ele><time>2026-04-07T12:21:04Z</time></trkpt><trkpt lat="45.94386886359181" lon="11.921928860390144"><ele>196.0</ele><time>2026-04-07T12:21:05Z</time></trkpt><trkpt lat="45.94413632058336" lon="11.921981222617676"><ele>196.0</ele><time>2026-04-07T12:21:06Z</time></trkpt><trkpt lat="45.944386539743235" lon="11.922025056703525"><ele>202.0</ele><time>2026-04-07T12:21:07Z</time></trkpt><trkpt lat="45.944629226508575" lon="11.922102114431002"><ele>208.0</ele><time>2026-04-07T12:21:08Z</time></trkpt><trkpt lat="45.94488000961834" lon="11.92220702266893"><ele>205.5</ele><time>2026-04-07T12:21:09Z</time></trkpt><trkpt lat="45.94510753080124" lon="11.922308087264764"><ele>203.0</ele><time>2026-04-07T12:21:10Z</time></trkpt><trkpt lat="45.94531795710589" lon="11.922384768804402"><ele>203.0</ele><time>2026-04-07T12:21:11Z</time></trkpt><trkpt lat="45.945509285751854" lon="11.922426066683395"><ele>203.0</ele><time>2026-04-07T12:21:12Z</time></trkpt><trkpt lat="45.94570791383102" lon="11.922434600319903"><ele>203.0</ele><time>2026-04-07T12:21:13Z</time></trkpt><trkpt lat="45.945937355593934" lon="11.922437767625325"><ele>209.0</ele><time>2026-04-07T12:21:14Z</time></trkpt><trkpt lat="45.94615872147323" lon="11.922454563222871"><ele>215.0</ele><time>2026-04-07T12:21:15Z</time></trkpt><trkpt lat="45.94636113986244" lon="11.922487404381213"><ele>221.0</ele><time>2026-04-07T12:21:16Z</time></trkpt><trkpt lat="45.946551648866915" lon="11.922538686392212"><ele>215.33333333333334</ele><time>2026-04-07T12:21:17Z</time></trkpt><trkpt lat="45.946733416769476" lon="11.922605764710314"><ele>209.66666666666669</ele><time>2026-04-07T12:21:18Z</time></trkpt><trkpt lat="45.94692141119699" lon="11.922677515441507"><ele>204.0</ele><time>2026-04-07T12:21:19Z</time></trkpt><trkpt lat="45.947113226289304" lon="11.922753328669922"><ele>204.0</ele><time>2026-04-07T12:21:20Z</time></trkpt><trkpt lat="45.94729521445537" lon="11.922823760811566"><ele>204.0</ele><time>2026-04-07T12:21:21Z</time></trkpt><trkpt lat="45.94746693895211" lon="11.922882748070723"><ele>204.0</ele><time>2026-04-07T12:21:22Z</time></trkpt><trkpt lat="45.947637911379104" lon="11.922946700529236"><ele>208.66666666666669</ele><time>2026-04-07T12:21:23Z</time></trkpt><trkpt lat="45.947812114022085" lon="11.923029722466588"><ele>213.33333333333334</ele><time>2026-04-07T12:21:24Z</time></trkpt><trkpt lat="45.947980895689966" lon="11.923133276708533"><ele>218.0</ele><time>2026-04-07T12:21:25Z</time></trkpt><trkpt lat="45.948142749147934" lon="11.923249503356823"><ele>218.0</ele><time>2026-04-07T12:21:26Z</time></trkpt><trkpt lat="45.948304599088644" lon="11.9233803730761"><ele>218.0</ele><time>2026-04-07T12:21:27Z</time></trkpt><trkpt lat="45.94846201022573" lon="11.923524370879244"><ele>218.0</ele><time>2026-04-07T12:21:28Z</time></trkpt><trkpt lat="45.948610547742476" lon="11.923676822083593"><ele>215.0</ele><time>2026-04-07T12:21:29Z</time></trkpt><trkpt lat="45.948721267817504" lon="11.923811014934016"><ele>212.0</ele><time>2026-04-07T12:21:30Z</time></trkpt><trkpt lat="45.9488456135272" lon="11.923954339985139"><ele>209.0</ele><time>2026-04-07T12:21:31Z</time></trkpt><trkpt lat="45.94899797512927" lon="11.924141862377605"><ele>213.0</ele><time>2026-04-07T12:21:32Z</time></trkpt><trkpt lat="45.94917108487327" lon="11.924356318781172"><ele>217.0</ele><time>2026-04-07T12:21:33Z</time></trkpt><trkpt lat="45.949369272866356" lon="11.924596325665041"><ele>217.0</ele><time>2026-04-07T12:21:34Z</time></trkpt><trkpt lat="45.949586074636706" lon="11.924858026469357"><ele>217.0</ele><time>2026-04-07T12:21:35Z</time></trkpt><trkpt lat="45.94978780368858" lon="11.925111932635282"><ele>217.0</ele><time>2026-04-07T12:21:36.001Z</time></trkpt><trkpt lat="45.94995692359906" lon="11.925339327213644"><ele>217.0</ele><time>2026-04-07T12:21:37.001Z</time></trkpt><trkpt lat="45.950130914614896" lon="11.925543332889488"><ele>217.0</ele><time>2026-04-07T12:21:38.001Z</time></trkpt><trkpt lat="45.95031128916016" lon="11.925726065012455"><ele>217.0</ele><time>2026-04-07T12:21:39.001Z</time></trkpt><trkpt lat="45.95049688737862" lon="11.925895981291623"><ele>217.0</ele><time>2026-04-07T12:21:40.001Z</time></trkpt><trkpt lat="45.9507116708983" lon="11.92607452098792"><ele>212.5</ele><time>2026-04-07T12:21:41.001Z</time></trkpt><trkpt lat="45.95094991898863" lon="11.926253492169378"><ele>208.0</ele><time>2026-04-07T12:21:42.001Z</time></trkpt><trkpt lat="45.95120690840279" lon="11.926442666040247"><ele>208.0</ele><time>2026-04-07T12:21:43.001Z</time></trkpt><trkpt lat="45.95147817645337" lon="11.926652632640359"><ele>208.0</ele><time>2026-04-07T12:21:44.001Z</time></trkpt><trkpt lat="45.9517599256317" lon="11.926877736035916"><ele>207.0</ele><time>2026-04-07T12:21:45.001Z</time></trkpt><trkpt lat="45.95203862308948" lon="11.92710939316022"><ele>206.0</ele><time>2026-04-07T12:21:46.001Z</time></trkpt><trkpt lat="45.95229078359147" lon="11.927334003194032"><ele>208.5</ele><time>2026-04-07T12:21:47.001Z</time></trkpt><trkpt lat="45.952541631249" lon="11.927572765363823"><ele>211.0</ele><time>2026-04-07T12:21:48.001Z</time></trkpt><trkpt lat="45.952792899722546" lon="11.927833149777552"><ele>211.0</ele><time>2026-04-07T12:21:49.001Z</time></trkpt><trkpt lat="45.95301656107414" lon="11.928060857446292"><ele>211.0</ele><time>2026-04-07T12:21:50.001Z</time></trkpt><trkpt lat="45.95324853323613" lon="11.928269232210866"><ele>209.0</ele><time>2026-04-07T12:21:51.001Z</time></trkpt><trkpt lat="45.953499928545924" lon="11.928469735767612"><ele>207.0</ele><time>2026-04-07T12:21:52.001Z</time></trkpt><trkpt lat="45.95376890774715" lon="11.928666467081433"><ele>207.0</ele><time>2026-04-07T12:21:53.001Z</time></trkpt><trkpt lat="45.95403420041412" lon="11.928855341876769"><ele>207.0</ele><time>2026-04-07T12:21:54.001Z</time></trkpt><trkpt lat="45.95425472010075" lon="11.929011539283527"><ele>206.66666666666669</ele><time>2026-04-07T12:21:55.001Z</time></trkpt><trkpt lat="45.95444455516175" lon="11.929150981250606"><ele>206.33333333333334</ele><time>2026-04-07T12:21:56.001Z</time></trkpt><trkpt lat="45.954615851462925" lon="11.929276083416067"><ele>206.0</ele><time>2026-04-07T12:21:57.001Z</time></trkpt><trkpt lat="45.95477933875186" lon="11.92939611648577"><ele>206.0</ele><time>2026-04-07T12:21:58.001Z</time></trkpt><trkpt lat="45.95493907891376" lon="11.929535973425873"><ele>206.0</ele><time>2026-04-07T12:21:59.001Z</time></trkpt><trkpt lat="45.955095120614715" lon="11.929703821845061"><ele>206.0</ele><time>2026-04-07T12:22:00.001Z</time></trkpt><trkpt lat="45.955232391140036" lon="11.929895800772684"><ele>211.0</ele><time>2026-04-07T12:22:01.001Z</time></trkpt><trkpt lat="45.9553591492" lon="11.93011431567081"><ele>216.0</ele><time>2026-04-07T12:22:02.001Z</time></trkpt><trkpt lat="45.955476209846665" lon="11.930374927000623"><ele>221.0</ele><time>2026-04-07T12:22:03.001Z</time></trkpt><trkpt lat="45.955595707736485" lon="11.930670634649283"><ele>216.66666666666669</ele><time>2026-04-07T12:22:04.001Z</time></trkpt><trkpt lat="45.955705673652716" lon="11.93094447765262"><ele>212.33333333333331</ele><time>2026-04-07T12:22:05.001Z</time></trkpt><trkpt lat="45.95582413673874" lon="11.931211599517207"><ele>208.0</ele><time>2026-04-07T12:22:06.001Z</time></trkpt><trkpt lat="45.95595758720557" lon="11.931495041191262"><ele>212.0</ele><time>2026-04-07T12:22:07.001Z</time></trkpt><trkpt lat="45.956102656522525" lon="11.93177466665705"><ele>216.0</ele><time>2026-04-07T12:22:08.001Z</time></trkpt><trkpt lat="45.9562549959" lon="11.932025325141087"><ele>216.0</ele><time>2026-04-07T12:22:09.001Z</time></trkpt><trkpt lat="45.95641831320444" lon="11.932271345479979"><ele>216.0</ele><time>2026-04-07T12:22:10.001Z</time></trkpt><trkpt lat="45.956589113526576" lon="11.93251414157595"><ele>215.5</ele><time>2026-04-07T12:22:11.001Z</time></trkpt><trkpt lat="45.95676759015276" lon="11.932746432464752"><ele>215.0</ele><time>2026-04-07T12:22:12.001Z</time></trkpt><trkpt lat="45.9569446065125" lon="11.932959857004612"><ele>215.0</ele><time>2026-04-07T12:22:13.001Z</time></trkpt><trkpt lat="45.95712273965594" lon="11.93315372755607"><ele>215.0</ele><time>2026-04-07T12:22:14.001Z</time></trkpt><trkpt lat="45.95732098806282" lon="11.933329102553966"><ele>208.5</ele><time>2026-04-07T12:22:15.001Z</time></trkpt><trkpt lat="45.9575502530138" lon="11.933496157717586"><ele>202.0</ele><time>2026-04-07T12:22:16.001Z</time></trkpt><trkpt lat="45.95778836903652" lon="11.933639201607015"><ele>202.0</ele><time>2026-04-07T12:22:17.001Z</time></trkpt><trkpt lat="45.95801189449595" lon="11.93375500061355"><ele>202.0</ele><time>2026-04-07T12:22:18.001Z</time></trkpt><trkpt lat="45.95823849730883" lon="11.933857399263958"><ele>203.5</ele><time>2026-04-07T12:22:19.001Z</time></trkpt><trkpt lat="45.958473397311444" lon="11.933936620121068"><ele>205.0</ele><time>2026-04-07T12:22:20.001Z</time></trkpt><trkpt lat="45.95871331298487" lon="11.933989211245583"><ele>205.0</ele><time>2026-04-07T12:22:21.001Z</time></trkpt><trkpt lat="45.95895652750257" lon="11.934013074269663"><ele>205.0</ele><time>2026-04-07T12:22:22.001Z</time></trkpt><trkpt lat="45.9592003329308" lon="11.934008763416365"><ele>205.5</ele><time>2026-04-07T12:22:23.001Z</time></trkpt><trkpt lat="45.95944248561394" lon="11.933981494174049"><ele>206.0</ele><time>2026-04-07T12:22:24.001Z</time></trkpt><trkpt lat="45.95966791676482" lon="11.933937529692338"><ele>206.0</ele><time>2026-04-07T12:22:25.001Z</time></trkpt><trkpt lat="45.95988745016796" lon="11.933873033463534"><ele>206.0</ele><time>2026-04-07T12:22:26.001Z</time></trkpt><trkpt lat="45.960114466247234" lon="11.933796187980947"><ele>203.0</ele><time>2026-04-07T12:22:27.001Z</time></trkpt><trkpt lat="45.96037575460814" lon="11.933713200815797"><ele>200.0</ele><time>2026-04-07T12:22:28.001Z</time></trkpt><trkpt lat="45.96064916762613" lon="11.933631370816538"><ele>198.0</ele><time>2026-04-07T12:22:29.001Z</time></trkpt><trkpt lat="45.96090088385162" lon="11.933566954539247"><ele>196.0</ele><time>2026-04-07T12:22:30.001Z</time></trkpt><trkpt lat="45.96114600731564" lon="11.933508215211726"><ele>196.0</ele><time>2026-04-07T12:22:31.001Z</time></trkpt><trkpt lat="45.961363656136925" lon="11.933444923953248"><ele>196.0</ele><time>2026-04-07T12:22:32.001Z</time></trkpt><trkpt lat="45.96156996306891" lon="11.933384060925738"><ele>196.0</ele><time>2026-04-07T12:22:33.001Z</time></trkpt><trkpt lat="45.96177227965923" lon="11.933326549096458"><ele>198.33333333333331</ele><time>2026-04-07T12:22:34.001Z</time></trkpt><trkpt lat="45.96196595745096" lon="11.93326959042189"><ele>200.66666666666669</ele><time>2026-04-07T12:22:35.001Z</time></trkpt><trkpt lat="45.9621520216676" lon="11.9332114507323"><ele>203.0</ele><time>2026-04-07T12:22:36.001Z</time></trkpt><trkpt lat="45.96233625969126" lon="11.933153815856187"><ele>203.0</ele><time>2026-04-07T12:22:37.001Z</time></trkpt><trkpt lat="45.96251337436718" lon="11.933095970764468"><ele>203.0</ele><time>2026-04-07T12:22:38.001Z</time></trkpt><trkpt lat="45.96267774628986" lon="11.933032785314351"><ele>203.0</ele><time>2026-04-07T12:22:39.001Z</time></trkpt><trkpt lat="45.962835254036186" lon="11.932966601977345"><ele>200.66666666666669</ele><time>2026-04-07T12:22:40.001Z</time></trkpt><trkpt lat="45.96298379918197" lon="11.932899850773998"><ele>198.33333333333331</ele><time>2026-04-07T12:22:41.001Z</time></trkpt><trkpt lat="45.96313587196702" lon="11.932831157320662"><ele>196.0</ele><time>2026-04-07T12:22:42.001Z</time></trkpt><trkpt lat="45.963292268177" lon="11.932751087836229"><ele>195.66666666666666</ele><time>2026-04-07T12:22:43.001Z</time></trkpt><trkpt lat="45.9634599241593" lon="11.932663201021116"><ele>195.33333333333331</ele><time>2026-04-07T12:22:44.001Z</time></trkpt><trkpt lat="45.96363490567396" lon="11.932567872038817"><ele>195.0</ele><time>2026-04-07T12:22:45.001Z</time></trkpt><trkpt lat="45.96380461622296" lon="11.932474731090737"><ele>196.0</ele><time>2026-04-07T12:22:46.001Z</time></trkpt><trkpt lat="45.963976776805836" lon="11.932387178013354"><ele>197.0</ele><time>2026-04-07T12:22:47.001Z</time></trkpt><trkpt lat="45.96414916493901" lon="11.932289933624315"><ele>198.0</ele><time>2026-04-07T12:22:48.001Z</time></trkpt><trkpt lat="45.964325680554396" lon="11.932183008582781"><ele>198.0</ele><time>2026-04-07T12:22:49.001Z</time></trkpt><trkpt lat="45.964501716028266" lon="11.932084727021264"><ele>198.0</ele><time>2026-04-07T12:22:50.001Z</time></trkpt><trkpt lat="45.964678518689944" lon="11.932001162400708"><ele>198.0</ele><time>2026-04-07T12:22:51.001Z</time></trkpt><trkpt lat="45.964850494926765" lon="11.931960520662942"><ele>198.0</ele><time>2026-04-07T12:22:52.001Z</time></trkpt><trkpt lat="45.96502025651972" lon="11.931957997737259"><ele>198.0</ele><time>2026-04-07T12:22:53.001Z</time></trkpt><trkpt lat="45.96518917115807" lon="11.931978489487417"><ele>198.0</ele><time>2026-04-07T12:22:54Z</time></trkpt><trkpt lat="45.9653630590655" lon="11.932031805981698"><ele>199.0</ele><time>2026-04-07T12:22:55Z</time></trkpt><trkpt lat="45.965546449086986" lon="11.932113302190906"><ele>200.0</ele><time>2026-04-07T12:22:56Z</time></trkpt><trkpt lat="45.96574709594257" lon="11.932233769479819"><ele>201.0</ele><time>2026-04-07T12:22:57Z</time></trkpt><trkpt lat="45.96594063794621" lon="11.932367963138244"><ele>199.66666666666669</ele><time>2026-04-07T12:22:58Z</time></trkpt><trkpt lat="45.96611961157832" lon="11.93248689811363"><ele>198.33333333333334</ele><time>2026-04-07T12:22:59Z</time></trkpt><trkpt lat="45.966303711340565" lon="11.93259854877411"><ele>197.0</ele><time>2026-04-07T12:23:00Z</time></trkpt><trkpt lat="45.96648384677206" lon="11.932703068183125"><ele>197.0</ele><time>2026-04-07T12:23:01Z</time></trkpt><trkpt lat="45.96665818324676" lon="11.93280313897516"><ele>197.0</ele><time>2026-04-07T12:23:02Z</time></trkpt><trkpt lat="45.966830025978844" lon="11.932897640374884"><ele>197.0</ele><time>2026-04-07T12:23:03Z</time></trkpt><trkpt lat="45.96699574180247" lon="11.932983893453914"><ele>199.0</ele><time>2026-04-07T12:23:04Z</time></trkpt><trkpt lat="45.96715058394015" lon="11.93305846178833"><ele>201.0</ele><time>2026-04-07T12:23:05Z</time></trkpt><trkpt lat="45.96729447243542" lon="11.933130572228345"><ele>203.0</ele><time>2026-04-07T12:23:06Z</time></trkpt><trkpt lat="45.96744037222793" lon="11.933201553645532"><ele>206.0</ele><time>2026-04-07T12:23:07Z</time></trkpt><trkpt lat="45.967597798416016" lon="11.933270799315174"><ele>209.0</ele><time>2026-04-07T12:23:08Z</time></trkpt><trkpt lat="45.96775684816183" lon="11.933331172675189"><ele>212.0</ele><time>2026-04-07T12:23:09Z</time></trkpt><trkpt lat="45.967919135769066" lon="11.933377926283828"><ele>207.33333333333334</ele><time>2026-04-07T12:23:10Z</time></trkpt><trkpt lat="45.96808090065868" lon="11.933406572101966"><ele>202.66666666666669</ele><time>2026-04-07T12:23:11Z</time></trkpt><trkpt lat="45.968236579628815" lon="11.933421227792563"><ele>198.0</ele><time>2026-04-07T12:23:12Z</time></trkpt><trkpt lat="45.96838628712508" lon="11.933421231149104"><ele>197.66666666666669</ele><time>2026-04-07T12:23:13Z</time></trkpt><trkpt lat="45.96853936094404" lon="11.933414629460847"><ele>197.33333333333334</ele><time>2026-04-07T12:23:14Z</time></trkpt><trkpt lat="45.96869605825831" lon="11.933404816594747"><ele>197.0</ele><time>2026-04-07T12:23:15Z</time></trkpt><trkpt lat="45.96885336689381" lon="11.93339601200421"><ele>199.33333333333334</ele><time>2026-04-07T12:23:16Z</time></trkpt><trkpt lat="45.969012904922245" lon="11.933387241638563"><ele>201.66666666666669</ele><time>2026-04-07T12:23:17Z</time></trkpt><trkpt lat="45.969172833557366" lon="11.933377065863846"><ele>204.0</ele><time>2026-04-07T12:23:18Z</time></trkpt><trkpt lat="45.96933626549769" lon="11.933366504146141"><ele>204.0</ele><time>2026-04-07T12:23:19Z</time></trkpt><trkpt lat="45.96951590094064" lon="11.933352633371024"><ele>204.0</ele><time>2026-04-07T12:23:20Z</time></trkpt><trkpt lat="45.96971171380556" lon="11.933343145486132"><ele>204.0</ele><time>2026-04-07T12:23:21Z</time></trkpt><trkpt lat="45.96990019031226" lon="11.93335752697387"><ele>202.66666666666669</ele><time>2026-04-07T12:23:22Z</time></trkpt><trkpt lat="45.97007190217669" lon="11.933391284070993"><ele>201.33333333333334</ele><time>2026-04-07T12:23:23Z</time></trkpt><trkpt lat="45.97023064772948" lon="11.933437227811535"><ele>200.0</ele><time>2026-04-07T12:23:24Z</time></trkpt><trkpt lat="45.970396002560754" lon="11.93350560173439"><ele>200.0</ele><time>2026-04-07T12:23:25Z</time></trkpt><trkpt lat="45.9705717519829" lon="11.93359506288095"><ele>200.0</ele><time>2026-04-07T12:23:26Z</time></trkpt><trkpt lat="45.97074260620246" lon="11.933708077637135"><ele>200.0</ele><time>2026-04-07T12:23:27Z</time></trkpt><trkpt lat="45.97090900806327" lon="11.933857379158184"><ele>201.66666666666669</ele><time>2026-04-07T12:23:28Z</time></trkpt><trkpt lat="45.97105515293555" lon="11.934016086199037"><ele>203.33333333333331</ele><time>2026-04-07T12:23:29Z</time></trkpt><trkpt lat="45.971194263326005" lon="11.934168120932679"><ele>205.0</ele><time>2026-04-07T12:23:30Z</time></trkpt><trkpt lat="45.971335419807204" lon="11.934321783607492"><ele>205.0</ele><time>2026-04-07T12:23:31Z</time></trkpt><trkpt lat="45.97147734542293" lon="11.93448501913284"><ele>205.0</ele><time>2026-04-07T12:23:32Z</time></trkpt><trkpt lat="45.97161253969866" lon="11.9346610303534"><ele>205.0</ele><time>2026-04-07T12:23:33Z</time></trkpt><trkpt lat="45.97174259017238" lon="11.934849462744289"><ele>206.66666666666666</ele><time>2026-04-07T12:23:34Z</time></trkpt><trkpt lat="45.971872610157604" lon="11.935040519580053"><ele>208.33333333333331</ele><time>2026-04-07T12:23:35Z</time></trkpt><trkpt lat="45.971997157947015" lon="11.93522523873169"><ele>210.0</ele><time>2026-04-07T12:23:36Z</time></trkpt><trkpt lat="45.97210688951454" lon="11.935393945543202"><ele>210.0</ele><time>2026-04-07T12:23:37Z</time></trkpt><trkpt lat="45.97220347346433" lon="11.935554060326865"><ele>210.0</ele><time>2026-04-07T12:23:38Z</time></trkpt><trkpt lat="45.972290302533295" lon="11.93571302175872"><ele>210.0</ele><time>2026-04-07T12:23:39Z</time></trkpt><trkpt lat="45.97238328326054" lon="11.935876860296498"><ele>210.0</ele><time>2026-04-07T12:23:40Z</time></trkpt><trkpt lat="45.97249168184518" lon="11.936039188227829"><ele>210.66666666666669</ele><time>2026-04-07T12:23:41Z</time></trkpt><trkpt lat="45.97261669460014" lon="11.93619981223657"><ele>211.33333333333334</ele><time>2026-04-07T12:23:42Z</time></trkpt><trkpt lat="45.97274587032419" lon="11.936372207330047"><ele>212.0</ele><time>2026-04-07T12:23:43Z</time></trkpt><trkpt lat="45.972865531599176" lon="11.936533857327754"><ele>212.0</ele><time>2026-04-07T12:23:44Z</time></trkpt><trkpt lat="45.97298706263908" lon="11.936674721274292"><ele>212.0</ele><time>2026-04-07T12:23:45Z</time></trkpt><trkpt lat="45.97313388920314" lon="11.936792507267684"><ele>212.0</ele><time>2026-04-07T12:23:46Z</time></trkpt><trkpt lat="45.97330730394421" lon="11.936897037834145"><ele>210.33333333333334</ele><time>2026-04-07T12:23:47Z</time></trkpt><trkpt lat="45.973502948832696" lon="11.936996217034096"><ele>208.66666666666669</ele><time>2026-04-07T12:23:48Z</time></trkpt><trkpt lat="45.97367383045578" lon="11.937083965472603"><ele>207.0</ele><time>2026-04-07T12:23:49Z</time></trkpt><trkpt lat="45.97383376139866" lon="11.937167204024872"><ele>207.0</ele><time>2026-04-07T12:23:50Z</time></trkpt><trkpt lat="45.97398633672074" lon="11.937244990179169"><ele>207.0</ele><time>2026-04-07T12:23:51.001Z</time></trkpt><trkpt lat="45.97413210233046" lon="11.937321339325802"><ele>207.0</ele><time>2026-04-07T12:23:52.001Z</time></trkpt><trkpt lat="45.974280709636695" lon="11.9373942372171"><ele>207.0</ele><time>2026-04-07T12:23:53.001Z</time></trkpt><trkpt lat="45.97443428888736" lon="11.937464350654427"><ele>207.0</ele><time>2026-04-07T12:23:54.001Z</time></trkpt><trkpt lat="45.97458914078656" lon="11.937539951951596"><ele>207.0</ele><time>2026-04-07T12:23:55.001Z</time></trkpt><trkpt lat="45.97474388687551" lon="11.937621101958161"><ele>207.0</ele><time>2026-04-07T12:23:56.001Z</time></trkpt><trkpt lat="45.97489735489374" lon="11.937702256500165"><ele>207.0</ele><time>2026-04-07T12:23:57.001Z</time></trkpt><trkpt lat="45.97503828487191" lon="11.937774800460517"><ele>207.0</ele><time>2026-04-07T12:23:58.001Z</time></trkpt><trkpt lat="45.97517353802881" lon="11.937848565502986"><ele>210.0</ele><time>2026-04-07T12:23:59.001Z</time></trkpt><trkpt lat="45.975315980582685" lon="11.93794531727978"><ele>213.0</ele><time>2026-04-07T12:24:00.001Z</time></trkpt><trkpt lat="45.97546136500861" lon="11.93808131657865"><ele>216.0</ele><time>2026-04-07T12:24:01.001Z</time></trkpt><trkpt lat="45.975611590489656" lon="11.938248163386119"><ele>213.33333333333331</ele><time>2026-04-07T12:24:02.001Z</time></trkpt><trkpt lat="45.97575797924897" lon="11.938450987107766"><ele>210.66666666666666</ele><time>2026-04-07T12:24:03.001Z</time></trkpt><trkpt lat="45.97589009246343" lon="11.938645514489155"><ele>208.0</ele><time>2026-04-07T12:24:04.001Z</time></trkpt><trkpt lat="45.97603587609135" lon="11.938845600613897"><ele>208.0</ele><time>2026-04-07T12:24:05.001Z</time></trkpt><trkpt lat="45.976203849671414" lon="11.939060971397861"><ele>208.0</ele><time>2026-04-07T12:24:06.001Z</time></trkpt><trkpt lat="45.97639110895794" lon="11.939319285872635"><ele>208.5</ele><time>2026-04-07T12:24:07.001Z</time></trkpt><trkpt lat="45.97659930816779" lon="11.939623151543115"><ele>209.0</ele><time>2026-04-07T12:24:08.001Z</time></trkpt><trkpt lat="45.976821309948676" lon="11.939943068336472"><ele>207.5</ele><time>2026-04-07T12:24:09.001Z</time></trkpt><trkpt lat="45.977043316939174" lon="11.940265356512977"><ele>206.0</ele><time>2026-04-07T12:24:10.001Z</time></trkpt><trkpt lat="45.97728290879293" lon="11.940609446705443"><ele>210.0</ele><time>2026-04-07T12:24:11.001Z</time></trkpt><trkpt lat="45.97752607493446" lon="11.940969251131268"><ele>214.0</ele><time>2026-04-07T12:24:12.001Z</time></trkpt><trkpt lat="45.97774397803091" lon="11.941301935342615"><ele>214.0</ele><time>2026-04-07T12:24:13.001Z</time></trkpt><trkpt lat="45.9779576644296" lon="11.94162979535593"><ele>214.0</ele><time>2026-04-07T12:24:14.001Z</time></trkpt><trkpt lat="45.978192146069546" lon="11.941971003763461"><ele>212.5</ele><time>2026-04-07T12:24:15.001Z</time></trkpt><trkpt lat="45.978422503101754" lon="11.942305652346768"><ele>211.0</ele><time>2026-04-07T12:24:16.001Z</time></trkpt><trkpt lat="45.9786705712052" lon="11.942666595303674"><ele>211.0</ele><time>2026-04-07T12:24:17.001Z</time></trkpt><trkpt lat="45.97892451521199" lon="11.943035988666582"><ele>211.0</ele><time>2026-04-07T12:24:18.001Z</time></trkpt><trkpt lat="45.97915963221006" lon="11.943379764400152"><ele>212.0</ele><time>2026-04-07T12:24:19.001Z</time></trkpt><trkpt lat="45.9793787119428" lon="11.943697842992874"><ele>213.0</ele><time>2026-04-07T12:24:20.001Z</time></trkpt><trkpt lat="45.97958705748611" lon="11.94399739938241"><ele>209.0</ele><time>2026-04-07T12:24:21.001Z</time></trkpt><trkpt lat="45.97978407511789" lon="11.944280421269259"><ele>205.0</ele><time>2026-04-07T12:24:22.001Z</time></trkpt><trkpt lat="45.9799725302321" lon="11.944553482625292"><ele>208.0</ele><time>2026-04-07T12:24:23.001Z</time></trkpt><trkpt lat="45.980161284778696" lon="11.944829829287691"><ele>211.0</ele><time>2026-04-07T12:24:24.001Z</time></trkpt><trkpt lat="45.98035621270582" lon="11.945107923722684"><ele>211.0</ele><time>2026-04-07T12:24:25.001Z</time></trkpt><trkpt lat="45.98054252417914" lon="11.945386766185951"><ele>211.0</ele><time>2026-04-07T12:24:26.001Z</time></trkpt><trkpt lat="45.980718806353906" lon="11.945662428026692"><ele>219.0</ele><time>2026-04-07T12:24:27.001Z</time></trkpt><trkpt lat="45.98087732097552" lon="11.945927154747217"><ele>227.0</ele><time>2026-04-07T12:24:28.001Z</time></trkpt><trkpt lat="45.98102654564777" lon="11.946196982713861"><ele>227.0</ele><time>2026-04-07T12:24:29.001Z</time></trkpt><trkpt lat="45.98116462816994" lon="11.94646338366496"><ele>227.0</ele><time>2026-04-07T12:24:30.001Z</time></trkpt><trkpt lat="45.98129582701494" lon="11.946737281580438"><ele>221.0</ele><time>2026-04-07T12:24:31.001Z</time></trkpt><trkpt lat="45.98142607018716" lon="11.947035885318115"><ele>215.0</ele><time>2026-04-07T12:24:32.001Z</time></trkpt><trkpt lat="45.9815539554921" lon="11.947357272962943"><ele>228.5</ele><time>2026-04-07T12:24:33.001Z</time></trkpt><trkpt lat="45.98168793190113" lon="11.947709386411644"><ele>242.0</ele><time>2026-04-07T12:24:34.001Z</time></trkpt><trkpt lat="45.9818279777739" lon="11.948072985200588"><ele>234.5</ele><time>2026-04-07T12:24:35.001Z</time></trkpt><trkpt lat="45.981952035896505" lon="11.948419825123068"><ele>227.0</ele><time>2026-04-07T12:24:36.001Z</time></trkpt><trkpt lat="45.98206859306841" lon="11.948776845481612"><ele>227.0</ele><time>2026-04-07T12:24:37.001Z</time></trkpt><trkpt lat="45.98217604934117" lon="11.949110427329012"><ele>227.0</ele><time>2026-04-07T12:24:38.001Z</time></trkpt><trkpt lat="45.982281261907175" lon="11.94942296503199"><ele>220.5</ele><time>2026-04-07T12:24:39.001Z</time></trkpt><trkpt lat="45.982382935749435" lon="11.9497278952691"><ele>214.0</ele><time>2026-04-07T12:24:40.001Z</time></trkpt><trkpt lat="45.982490762625176" lon="11.950027691595736"><ele>223.5</ele><time>2026-04-07T12:24:41.001Z</time></trkpt><trkpt lat="45.98261731923016" lon="11.95032293203101"><ele>233.0</ele><time>2026-04-07T12:24:42.001Z</time></trkpt><trkpt lat="45.982762790287595" lon="11.9506108952348"><ele>222.5</ele><time>2026-04-07T12:24:43.001Z</time></trkpt><trkpt lat="45.98292846753765" lon="11.950902380938437"><ele>212.0</ele><time>2026-04-07T12:24:44.001Z</time></trkpt><trkpt lat="45.98309682279428" lon="11.951178655570128"><ele>212.0</ele><time>2026-04-07T12:24:45.001Z</time></trkpt><trkpt lat="45.98327714330435" lon="11.951443684209869"><ele>212.0</ele><time>2026-04-07T12:24:46.001Z</time></trkpt><trkpt lat="45.98347865984998" lon="11.95169775389123"><ele>213.0</ele><time>2026-04-07T12:24:47.001Z</time></trkpt><trkpt lat="45.98366879964168" lon="11.951918267402464"><ele>214.0</ele><time>2026-04-07T12:24:48.001Z</time></trkpt><trkpt lat="45.98383806779088" lon="11.952117491675775"><ele>214.0</ele><time>2026-04-07T12:24:49.001Z</time></trkpt><trkpt lat="45.98399281078434" lon="11.952302302804318"><ele>214.0</ele><time>2026-04-07T12:24:50.001Z</time></trkpt><trkpt lat="45.9841382774377" lon="11.95248412889933"><ele>214.0</ele><time>2026-04-07T12:24:51.001Z</time></trkpt><trkpt lat="45.98427557387126" lon="11.952651670463188"><ele>214.0</ele><time>2026-04-07T12:24:52.001Z</time></trkpt><trkpt lat="45.98440607425647" lon="11.95280819044623"><ele>214.0</ele><time>2026-04-07T12:24:53.001Z</time></trkpt><trkpt lat="45.984535400554" lon="11.95296103273212"><ele>214.0</ele><time>2026-04-07T12:24:54.001Z</time></trkpt><trkpt lat="45.98465810560347" lon="11.953110927440965"><ele>214.0</ele><time>2026-04-07T12:24:55.001Z</time></trkpt><trkpt lat="45.98478346271892" lon="11.953232736930412"><ele>214.0</ele><time>2026-04-07T12:24:56.001Z</time></trkpt><trkpt lat="45.984905488525506" lon="11.953349657719713"><ele>214.0</ele><time>2026-04-07T12:24:57.001Z</time></trkpt><trkpt lat="45.98503182338712" lon="11.953482169150432"><ele>212.0</ele><time>2026-04-07T12:24:58.001Z</time></trkpt><trkpt lat="45.98515333307727" lon="11.953602191895557"><ele>210.0</ele><time>2026-04-07T12:24:59.001Z</time></trkpt><trkpt lat="45.98541700838699" lon="11.95342715461551"><ele>208.0</ele><time>2026-04-07T12:25:00Z</time></trkpt><trkpt lat="45.985596020425994" lon="11.953441801832955"><ele>208.0</ele><time>2026-04-07T12:25:01Z</time></trkpt><trkpt lat="45.9857859628857" lon="11.953459456238171"><ele>208.0</ele><time>2026-04-07T12:25:02Z</time></trkpt><trkpt lat="45.985952455732246" lon="11.953477699920596"><ele>208.0</ele><time>2026-04-07T12:25:03Z</time></trkpt><trkpt lat="45.98611765962092" lon="11.953491471754539"><ele>208.66666666666666</ele><time>2026-04-07T12:25:04Z</time></trkpt><trkpt lat="45.986284857023094" lon="11.953488610016464"><ele>209.33333333333331</ele><time>2026-04-07T12:25:05Z</time></trkpt><trkpt lat="45.98644116266458" lon="11.953477474907402"><ele>210.0</ele><time>2026-04-07T12:25:06Z</time></trkpt><trkpt lat="45.986582992476556" lon="11.953483924028832"><ele>210.33333333333331</ele><time>2026-04-07T12:25:07Z</time></trkpt><trkpt lat="45.986730415255195" lon="11.953515685787755"><ele>210.66666666666666</ele><time>2026-04-07T12:25:08Z</time></trkpt><trkpt lat="45.9868764061735" lon="11.953576342298327"><ele>211.0</ele><time>2026-04-07T12:25:09Z</time></trkpt><trkpt lat="45.987016911862824" lon="11.953664077026401"><ele>211.0</ele><time>2026-04-07T12:25:10Z</time></trkpt><trkpt lat="45.987160642697624" lon="11.953746604078423"><ele>211.0</ele><time>2026-04-07T12:25:11Z</time></trkpt><trkpt lat="45.987304936245266" lon="11.95382690206303"><ele>211.0</ele><time>2026-04-07T12:25:12Z</time></trkpt><trkpt lat="45.98744743480228" lon="11.953897882266325"><ele>212.33333333333331</ele><time>2026-04-07T12:25:13Z</time></trkpt><trkpt lat="45.98758840132538" lon="11.953956990670097"><ele>213.66666666666669</ele><time>2026-04-07T12:25:14Z</time></trkpt><trkpt lat="45.98774226194282" lon="11.953992885520156"><ele>215.0</ele><time>2026-04-07T12:25:15Z</time></trkpt><trkpt lat="45.987905612588804" lon="11.954004311890744"><ele>215.0</ele><time>2026-04-07T12:25:16Z</time></trkpt><trkpt lat="45.98805383767186" lon="11.954002665170604"><ele>215.0</ele><time>2026-04-07T12:25:17Z</time></trkpt><trkpt lat="45.98820029323341" lon="11.953997850690156"><ele>215.0</ele><time>2026-04-07T12:25:18Z</time></trkpt><trkpt lat="45.98833885987353" lon="11.953990609833427"><ele>215.0</ele><time>2026-04-07T12:25:19Z</time></trkpt><trkpt lat="45.98847459923848" lon="11.953978871531492"><ele>214.25</ele><time>2026-04-07T12:25:20Z</time></trkpt><trkpt lat="45.98861099882295" lon="11.953957317160844"><ele>213.5</ele><time>2026-04-07T12:25:21Z</time></trkpt><trkpt lat="45.9887507601639" lon="11.95391954828266"><ele>212.75</ele><time>2026-04-07T12:25:22Z</time></trkpt><trkpt lat="45.988889692140674" lon="11.95385402779262"><ele>212.0</ele><time>2026-04-07T12:25:23Z</time></trkpt><trkpt lat="45.98902499972053" lon="11.95377709199202"><ele>212.0</ele><time>2026-04-07T12:25:24Z</time></trkpt><trkpt lat="45.98915238618563" lon="11.953692459314318"><ele>212.0</ele><time>2026-04-07T12:25:25Z</time></trkpt><trkpt lat="45.9892695678353" lon="11.953616361252267"><ele>212.0</ele><time>2026-04-07T12:25:26Z</time></trkpt><trkpt lat="45.98938676933297" lon="11.953543849305046"><ele>212.0</ele><time>2026-04-07T12:25:27Z</time></trkpt><trkpt lat="45.98952051806396" lon="11.953460378212547"><ele>211.75</ele><time>2026-04-07T12:25:28Z</time></trkpt><trkpt lat="45.98966598950927" lon="11.953383810868928"><ele>211.5</ele><time>2026-04-07T12:25:29Z</time></trkpt><trkpt lat="45.989794275122186" lon="11.953332347773854"><ele>211.25</ele><time>2026-04-07T12:25:30Z</time></trkpt><trkpt lat="45.989916664666886" lon="11.953292525157499"><ele>211.0</ele><time>2026-04-07T12:25:31Z</time></trkpt><trkpt lat="45.99004685486916" lon="11.953256850525275"><ele>212.5</ele><time>2026-04-07T12:25:32Z</time></trkpt><trkpt lat="45.9901884090982" lon="11.953230635850483"><ele>214.0</ele><time>2026-04-07T12:25:33Z</time></trkpt><trkpt lat="45.99032503414852" lon="11.953207248892243"><ele>215.5</ele><time>2026-04-07T12:25:34Z</time></trkpt><trkpt lat="45.990454145262255" lon="11.953188093912445"><ele>217.0</ele><time>2026-04-07T12:25:35Z</time></trkpt><trkpt lat="45.990583389912" lon="11.953164214129565"><ele>217.0</ele><time>2026-04-07T12:25:36Z</time></trkpt><trkpt lat="45.99071405041246" lon="11.953136849076031"><ele>217.0</ele><time>2026-04-07T12:25:37Z</time></trkpt><trkpt lat="45.990850245664504" lon="11.953097628062766"><ele>217.0</ele><time>2026-04-07T12:25:38Z</time></trkpt><trkpt lat="45.99098730254143" lon="11.953036702910866"><ele>217.0</ele><time>2026-04-07T12:25:39Z</time></trkpt><trkpt lat="45.99112110301765" lon="11.952955548715073"><ele>216.25</ele><time>2026-04-07T12:25:40Z</time></trkpt><trkpt lat="45.991253005482115" lon="11.952864408436124"><ele>215.5</ele><time>2026-04-07T12:25:41Z</time></trkpt><trkpt lat="45.991378930116916" lon="11.952779424886907"><ele>214.75</ele><time>2026-04-07T12:25:42Z</time></trkpt><trkpt lat="45.99150504579381" lon="11.952701546694625"><ele>214.0</ele><time>2026-04-07T12:25:43Z</time></trkpt><trkpt lat="45.991624973859146" lon="11.952625825320238"><ele>214.75</ele><time>2026-04-07T12:25:44Z</time></trkpt><trkpt lat="45.99174638125937" lon="11.95254066783734"><ele>215.5</ele><time>2026-04-07T12:25:45Z</time></trkpt><trkpt lat="45.99187226289432" lon="11.952458588096073"><ele>216.25</ele><time>2026-04-07T12:25:46Z</time></trkpt><trkpt lat="45.991997330677336" lon="11.952376052063785"><ele>217.0</ele><time>2026-04-07T12:25:47Z</time></trkpt><trkpt lat="45.9921184087728" lon="11.952273949607141"><ele>217.0</ele><time>2026-04-07T12:25:48Z</time></trkpt><trkpt lat="45.99223203629784" lon="11.95216482180064"><ele>217.0</ele><time>2026-04-07T12:25:49Z</time></trkpt><trkpt lat="45.99233693252398" lon="11.952063833807758"><ele>217.0</ele><time>2026-04-07T12:25:50Z</time></trkpt><trkpt lat="45.992447707174136" lon="11.951954614730369"><ele>217.0</ele><time>2026-04-07T12:25:51Z</time></trkpt><trkpt lat="45.99256471793958" lon="11.951823331162677"><ele>216.66666666666666</ele><time>2026-04-07T12:25:52Z</time></trkpt><trkpt lat="45.99270863893083" lon="11.951654801844187"><ele>216.33333333333331</ele><time>2026-04-07T12:25:53Z</time></trkpt><trkpt lat="45.99289278309508" lon="11.95146578179519"><ele>216.0</ele><time>2026-04-07T12:25:54Z</time></trkpt><trkpt lat="45.99311703503805" lon="11.951256823657548"><ele>216.0</ele><time>2026-04-07T12:25:55Z</time></trkpt><trkpt lat="45.993311539095615" lon="11.951076387931282"><ele>216.0</ele><time>2026-04-07T12:25:56Z</time></trkpt><trkpt lat="45.993482262221995" lon="11.950901944442284"><ele>216.0</ele><time>2026-04-07T12:25:57Z</time></trkpt><trkpt lat="45.99364082613228" lon="11.950721870805694"><ele>216.66666666666669</ele><time>2026-04-07T12:25:58Z</time></trkpt><trkpt lat="45.99378421004405" lon="11.950543440145953"><ele>217.33333333333334</ele><time>2026-04-07T12:25:59Z</time></trkpt><trkpt lat="45.993929380274274" lon="11.950362612909277"><ele>218.0</ele><time>2026-04-07T12:26:00Z</time></trkpt><trkpt lat="45.99406972402399" lon="11.95019145029713"><ele>218.66666666666669</ele><time>2026-04-07T12:26:01Z</time></trkpt><trkpt lat="45.9942028708718" lon="11.950026440190962"><ele>219.33333333333331</ele><time>2026-04-07T12:26:02Z</time></trkpt><trkpt lat="45.99433574278673" lon="11.949866179400281"><ele>220.0</ele><time>2026-04-07T12:26:03Z</time></trkpt><trkpt lat="45.994470422117246" lon="11.949725525885414"><ele>220.0</ele><time>2026-04-07T12:26:04Z</time></trkpt><trkpt lat="45.99460373310568" lon="11.9496156623751"><ele>220.0</ele><time>2026-04-07T12:26:05Z</time></trkpt><trkpt lat="45.99475007320347" lon="11.949494978111385"><ele>220.0</ele><time>2026-04-07T12:26:06Z</time></trkpt><trkpt lat="45.99493207639562" lon="11.949353554660693"><ele>219.66666666666666</ele><time>2026-04-07T12:26:07Z</time></trkpt><trkpt lat="45.99514118351846" lon="11.949241813721374"><ele>219.33333333333331</ele><time>2026-04-07T12:26:08Z</time></trkpt><trkpt lat="45.995330017353176" lon="11.949096209755004"><ele>219.0</ele><time>2026-04-07T12:26:09Z</time></trkpt><trkpt lat="45.99550581406787" lon="11.948996462894685"><ele>219.66666666666669</ele><time>2026-04-07T12:26:10Z</time></trkpt><trkpt lat="45.99566213982719" lon="11.948910273218214"><ele>220.33333333333334</ele><time>2026-04-07T12:26:11Z</time></trkpt><trkpt lat="45.99581781276733" lon="11.948827962475988"><ele>221.0</ele><time>2026-04-07T12:26:12Z</time></trkpt><trkpt lat="45.99597939712662" lon="11.948756173576205"><ele>221.0</ele><time>2026-04-07T12:26:13Z</time></trkpt><trkpt lat="45.99613840532947" lon="11.948700134395757"><ele>221.0</ele><time>2026-04-07T12:26:14Z</time></trkpt><trkpt lat="45.99629406977027" lon="11.948647673562142"><ele>221.0</ele><time>2026-04-07T12:26:15Z</time></trkpt><trkpt lat="45.99644673270909" lon="11.948608605692314"><ele>221.0</ele><time>2026-04-07T12:26:16Z</time></trkpt><trkpt lat="45.99659959669165" lon="11.948577242625722"><ele>221.0</ele><time>2026-04-07T12:26:17Z</time></trkpt><trkpt lat="45.99675469004359" lon="11.948550947042355"><ele>221.0</ele><time>2026-04-07T12:26:18Z</time></trkpt><trkpt lat="45.99692748265974" lon="11.948523008073966"><ele>221.0</ele><time>2026-04-07T12:26:19Z</time></trkpt><trkpt lat="45.99712543108055" lon="11.94848770880542"><ele>221.0</ele><time>2026-04-07T12:26:20Z</time></trkpt><trkpt lat="45.997353582068015" lon="11.948483235514246"><ele>221.0</ele><time>2026-04-07T12:26:21Z</time></trkpt><trkpt lat="45.99759769886582" lon="11.948439865952098"><ele>221.0</ele><time>2026-04-07T12:26:22Z</time></trkpt><trkpt lat="45.99785344429231" lon="11.948426835874493"><ele>221.0</ele><time>2026-04-07T12:26:23Z</time></trkpt><trkpt lat="45.998078418374924" lon="11.948412532175018"><ele>221.0</ele><time>2026-04-07T12:26:24.001Z</time></trkpt><trkpt lat="45.998286974621706" lon="11.948403382437418"><ele>221.0</ele><time>2026-04-07T12:26:25.001Z</time></trkpt><trkpt lat="45.99850127251785" lon="11.94840287511356"><ele>221.0</ele><time>2026-04-07T12:26:26.001Z</time></trkpt><trkpt lat="45.99872094556052" lon="11.948410491713384"><ele>221.33333333333334</ele><time>2026-04-07T12:26:27.001Z</time></trkpt><trkpt lat="45.99892100541167" lon="11.948418178971371"><ele>221.66666666666669</ele><time>2026-04-07T12:26:28.001Z</time></trkpt><trkpt lat="45.99910596374455" lon="11.948414165452865"><ele>222.0</ele><time>2026-04-07T12:26:29.001Z</time></trkpt><trkpt lat="45.999275902777356" lon="11.948400067059536"><ele>223.0</ele><time>2026-04-07T12:26:30.001Z</time></trkpt><trkpt lat="45.99944558351535" lon="11.94836657212744"><ele>224.0</ele><time>2026-04-07T12:26:31.001Z</time></trkpt><trkpt lat="45.99961126509844" lon="11.94830371802056"><ele>225.0</ele><time>2026-04-07T12:26:32.001Z</time></trkpt><trkpt lat="45.999774574407546" lon="11.948220391702712"><ele>225.0</ele><time>2026-04-07T12:26:33.001Z</time></trkpt><trkpt lat="45.99992818638987" lon="11.94812079174699"><ele>225.0</ele><time>2026-04-07T12:26:34.001Z</time></trkpt><trkpt lat="46.0000749169397" lon="11.948001886648408"><ele>225.0</ele><time>2026-04-07T12:26:35.001Z</time></trkpt><trkpt lat="46.00020257023272" lon="11.947855585724126"><ele>225.0</ele><time>2026-04-07T12:26:36.001Z</time></trkpt><trkpt lat="46.00031313368745" lon="11.947671478825612"><ele>225.0</ele><time>2026-04-07T12:26:37.001Z</time></trkpt><trkpt lat="46.00041462253945" lon="11.947450009490975"><ele>225.0</ele><time>2026-04-07T12:26:38.001Z</time></trkpt><trkpt lat="46.0005206663423" lon="11.947184458945646"><ele>225.66666666666669</ele><time>2026-04-07T12:26:39.001Z</time></trkpt><trkpt lat="46.00063013531699" lon="11.946924833626815"><ele>226.33333333333334</ele><time>2026-04-07T12:26:40.001Z</time></trkpt><trkpt lat="46.000728622219015" lon="11.946695838948155"><ele>227.0</ele><time>2026-04-07T12:26:41.001Z</time></trkpt><trkpt lat="46.00082735296303" lon="11.946463528551428"><ele>226.33333333333334</ele><time>2026-04-07T12:26:42.001Z</time></trkpt><trkpt lat="46.000905244238105" lon="11.946233627184583"><ele>225.66666666666669</ele><time>2026-04-07T12:26:43.001Z</time></trkpt><trkpt lat="46.00096139083843" lon="11.945984663904177"><ele>225.0</ele><time>2026-04-07T12:26:44.001Z</time></trkpt><trkpt lat="46.00099593335952" lon="11.94573225981314"><ele>225.0</ele><time>2026-04-07T12:26:45.001Z</time></trkpt><trkpt lat="46.0010216780402" lon="11.94549760065374"><ele>225.0</ele><time>2026-04-07T12:26:46.001Z</time></trkpt><trkpt lat="46.0010462881862" lon="11.945277177366295"><ele>225.0</ele><time>2026-04-07T12:26:47.001Z</time></trkpt><trkpt lat="46.001063189161954" lon="11.94506785389166"><ele>225.0</ele><time>2026-04-07T12:26:48.001Z</time></trkpt><trkpt lat="46.001080447698875" lon="11.944867619558858"><ele>225.0</ele><time>2026-04-07T12:26:49.001Z</time></trkpt><trkpt lat="46.00108792995513" lon="11.944663712747468"><ele>225.0</ele><time>2026-04-07T12:26:50.001Z</time></trkpt><trkpt lat="46.00107031103712" lon="11.944436248939846"><ele>225.0</ele><time>2026-04-07T12:26:51.001Z</time></trkpt><trkpt lat="46.001027326665216" lon="11.944205554310313"><ele>226.33333333333331</ele><time>2026-04-07T12:26:52.001Z</time></trkpt><trkpt lat="46.000963036641544" lon="11.9439703894181"><ele>227.66666666666666</ele><time>2026-04-07T12:26:53.001Z</time></trkpt><trkpt lat="46.0008885618187" lon="11.94376113835994"><ele>229.0</ele><time>2026-04-07T12:26:54.001Z</time></trkpt><trkpt lat="46.00079289797595" lon="11.943561320651915"><ele>228.66666666666666</ele><time>2026-04-07T12:26:55.001Z</time></trkpt><trkpt lat="46.00067204924183" lon="11.94335367868143"><ele>228.33333333333331</ele><time>2026-04-07T12:26:56.001Z</time></trkpt><trkpt lat="46.00054423297012" lon="11.943163369888177"><ele>228.0</ele><time>2026-04-07T12:26:57.001Z</time></trkpt><trkpt lat="46.000426699597185" lon="11.942991794104339"><ele>228.0</ele><time>2026-04-07T12:26:58.001Z</time></trkpt><trkpt lat="46.00031973329981" lon="11.942833930609659"><ele>228.0</ele><time>2026-04-07T12:26:59.001Z</time></trkpt><trkpt lat="46.000218162156976" lon="11.942681716200783"><ele>228.0</ele><time>2026-04-07T12:27:00.001Z</time></trkpt><trkpt lat="46.000115383043834" lon="11.94252141800148"><ele>228.66666666666669</ele><time>2026-04-07T12:27:01.001Z</time></trkpt><trkpt lat="46.00001310691061" lon="11.94234903042543"><ele>229.33333333333334</ele><time>2026-04-07T12:27:02.001Z</time></trkpt><trkpt lat="45.99991433067731" lon="11.942154511369074"><ele>230.0</ele><time>2026-04-07T12:27:03.001Z</time></trkpt><trkpt lat="45.99982935941646" lon="11.941944370846059"><ele>230.0</ele><time>2026-04-07T12:27:04.001Z</time></trkpt><trkpt lat="45.9997744585309" lon="11.941743763482924"><ele>230.0</ele><time>2026-04-07T12:27:05.001Z</time></trkpt><trkpt lat="45.99972813380097" lon="11.94152260829465"><ele>230.0</ele><time>2026-04-07T12:27:06Z</time></trkpt><trkpt lat="45.99970347304254" lon="11.941286712742707"><ele>231.33333333333334</ele><time>2026-04-07T12:27:07Z</time></trkpt><trkpt lat="45.99969940481139" lon="11.941060691357913"><ele>232.66666666666669</ele><time>2026-04-07T12:27:08Z</time></trkpt><trkpt lat="45.99971392771295" lon="11.940834189012017"><ele>234.0</ele><time>2026-04-07T12:27:09Z</time></trkpt><trkpt lat="45.99975461476648" lon="11.940603230497047"><ele>234.33333333333331</ele><time>2026-04-07T12:27:10Z</time></trkpt><trkpt lat="45.99981466104553" lon="11.94037312241337"><ele>234.66666666666666</ele><time>2026-04-07T12:27:11Z</time></trkpt><trkpt lat="45.999894247955304" lon="11.940164068441025"><ele>235.0</ele><time>2026-04-07T12:27:12Z</time></trkpt><trkpt lat="45.999995413304006" lon="11.939974120887449"><ele>233.33333333333331</ele><time>2026-04-07T12:27:13Z</time></trkpt><trkpt lat="46.00010980223301" lon="11.939801606126865"><ele>231.66666666666669</ele><time>2026-04-07T12:27:14Z</time></trkpt><trkpt lat="46.00024430617126" lon="11.939649642796322"><ele>230.0</ele><time>2026-04-07T12:27:15Z</time></trkpt><trkpt lat="46.00039198809818" lon="11.939519451511108"><ele>230.0</ele><time>2026-04-07T12:27:16Z</time></trkpt><trkpt lat="46.000554128311734" lon="11.939394955347774"><ele>230.0</ele><time>2026-04-07T12:27:17Z</time></trkpt><trkpt lat="46.00070683663804" lon="11.939285434790682"><ele>230.0</ele><time>2026-04-07T12:27:18Z</time></trkpt><trkpt lat="46.00086747470322" lon="11.939172143083901"><ele>229.5</ele><time>2026-04-07T12:27:19Z</time></trkpt><trkpt lat="46.001072411865344" lon="11.939072938264559"><ele>229.0</ele><time>2026-04-07T12:27:20Z</time></trkpt><trkpt lat="46.00130717873768" lon="11.93894396158453"><ele>229.0</ele><time>2026-04-07T12:27:21Z</time></trkpt><trkpt lat="46.00156518529819" lon="11.938801110733097"><ele>229.0</ele><time>2026-04-07T12:27:22Z</time></trkpt><trkpt lat="46.00182952767717" lon="11.938654394776881"><ele>229.5</ele><time>2026-04-07T12:27:23Z</time></trkpt><trkpt lat="46.00211473874174" lon="11.93849479176545"><ele>230.0</ele><time>2026-04-07T12:27:24Z</time></trkpt><trkpt lat="46.00240631237253" lon="11.938313451781514"><ele>234.0</ele><time>2026-04-07T12:27:25Z</time></trkpt><trkpt lat="46.0027149826433" lon="11.938165175062183"><ele>238.0</ele><time>2026-04-07T12:27:26Z</time></trkpt><trkpt lat="46.00300849271995" lon="11.938003200164447"><ele>238.0</ele><time>2026-04-07T12:27:27Z</time></trkpt><trkpt lat="46.003269284455676" lon="11.937832749057264"><ele>238.0</ele><time>2026-04-07T12:27:28Z</time></trkpt><trkpt lat="46.00352447589037" lon="11.937693674277254"><ele>235.5</ele><time>2026-04-07T12:27:29Z</time></trkpt><trkpt lat="46.00376043152417" lon="11.937552798505019"><ele>233.0</ele><time>2026-04-07T12:27:30Z</time></trkpt><trkpt lat="46.00397366121228" lon="11.937420642631754"><ele>232.33333333333334</ele><time>2026-04-07T12:27:31Z</time></trkpt><trkpt lat="46.00415996805692" lon="11.937304600650876"><ele>231.66666666666669</ele><time>2026-04-07T12:27:32Z</time></trkpt><trkpt lat="46.004333308728214" lon="11.937196262716792"><ele>231.0</ele><time>2026-04-07T12:27:33Z</time></trkpt><trkpt lat="46.00448744572208" lon="11.937076726853823"><ele>231.0</ele><time>2026-04-07T12:27:34Z</time></trkpt><trkpt lat="46.004619160811394" lon="11.936933142020901"><ele>231.0</ele><time>2026-04-07T12:27:35Z</time></trkpt><trkpt lat="46.00472826958139" lon="11.936766225085732"><ele>231.0</ele><time>2026-04-07T12:27:36Z</time></trkpt><trkpt lat="46.00482999853495" lon="11.936566644220491"><ele>231.0</ele><time>2026-04-07T12:27:37Z</time></trkpt><trkpt lat="46.00492679139545" lon="11.936324002762111"><ele>231.0</ele><time>2026-04-07T12:27:38Z</time></trkpt><trkpt lat="46.00503920819294" lon="11.936055493529476"><ele>231.0</ele><time>2026-04-07T12:27:39Z</time></trkpt><trkpt lat="46.00517730408432" lon="11.935766955150068"><ele>231.0</ele><time>2026-04-07T12:27:40Z</time></trkpt><trkpt lat="46.00533792980268" lon="11.935458578247685"><ele>231.0</ele><time>2026-04-07T12:27:41Z</time></trkpt><trkpt lat="46.005513768932815" lon="11.935135005040639"><ele>232.0</ele><time>2026-04-07T12:27:42Z</time></trkpt><trkpt lat="46.005703961957344" lon="11.934793960913526"><ele>233.0</ele><time>2026-04-07T12:27:43Z</time></trkpt><trkpt lat="46.00590392490687" lon="11.934427894448323"><ele>233.0</ele><time>2026-04-07T12:27:44Z</time></trkpt><trkpt lat="46.00609902973737" lon="11.93406032713835"><ele>233.0</ele><time>2026-04-07T12:27:45Z</time></trkpt><trkpt lat="46.00630042719322" lon="11.9336868573116"><ele>233.0</ele><time>2026-04-07T12:27:46Z</time></trkpt><trkpt lat="46.00651588723224" lon="11.933293412409263"><ele>233.0</ele><time>2026-04-07T12:27:47Z</time></trkpt><trkpt lat="46.0067379421106" lon="11.932886095288334"><ele>233.5</ele><time>2026-04-07T12:27:48Z</time></trkpt><trkpt lat="46.00696451437852" lon="11.932465677961398"><ele>234.0</ele><time>2026-04-07T12:27:49Z</time></trkpt><trkpt lat="46.00718318945136" lon="11.932058233984339"><ele>234.0</ele><time>2026-04-07T12:27:50Z</time></trkpt><trkpt lat="46.00738151670979" lon="11.93168509345339"><ele>234.0</ele><time>2026-04-07T12:27:51Z</time></trkpt><trkpt lat="46.00756811449044" lon="11.931337649553035"><ele>233.5</ele><time>2026-04-07T12:27:52Z</time></trkpt><trkpt lat="46.007744721970504" lon="11.931010711113851"><ele>233.0</ele><time>2026-04-07T12:27:53Z</time></trkpt><trkpt lat="46.007895603028956" lon="11.930734885839266"><ele>233.0</ele><time>2026-04-07T12:27:54Z</time></trkpt><trkpt lat="46.00802110198046" lon="11.930502327698452"><ele>233.0</ele><time>2026-04-07T12:27:55Z</time></trkpt><trkpt lat="46.0081302893041" lon="11.93030166768772"><ele>233.0</ele><time>2026-04-07T12:27:56Z</time></trkpt><trkpt lat="46.00822527321704" lon="11.930124864833694"><ele>233.4</ele><time>2026-04-07T12:27:57Z</time></trkpt><trkpt lat="46.00829819517338" lon="11.929985216771454"><ele>233.8</ele><time>2026-04-07T12:27:58Z</time></trkpt><trkpt lat="46.008365873546495" lon="11.92986009623876"><ele>234.2</ele><time>2026-04-07T12:27:59Z</time></trkpt><trkpt lat="46.00843788947027" lon="11.929766579491188"><ele>234.6</ele><time>2026-04-07T12:28:00Z</time></trkpt><trkpt lat="46.00851498982116" lon="11.92970071411068"><ele>235.0</ele><time>2026-04-07T12:28:01Z</time></trkpt><trkpt lat="46.00859134625742" lon="11.929674290297028"><ele>235.16666666666666</ele><time>2026-04-07T12:28:02Z</time></trkpt><trkpt lat="46.00866830436545" lon="11.929679660666844"><ele>235.33333333333331</ele><time>2026-04-07T12:28:03Z</time></trkpt><trkpt lat="46.00874600896954" lon="11.929727667679165"><ele>235.5</ele><time>2026-04-07T12:28:04Z</time></trkpt><trkpt lat="46.008819247277124" lon="11.929797602596027"><ele>235.66666666666669</ele><time>2026-04-07T12:28:05Z</time></trkpt><trkpt lat="46.0088913339405" lon="11.929853029157698"><ele>235.83333333333334</ele><time>2026-04-07T12:28:06Z</time></trkpt><trkpt lat="46.00896243009057" lon="11.929863887775808"><ele>236.0</ele><time>2026-04-07T12:28:07Z</time></trkpt><trkpt lat="46.009033636966976" lon="11.92984293657117"><ele>236.00000000000003</ele><time>2026-04-07T12:28:08Z</time></trkpt><trkpt lat="46.00910466389829" lon="11.92979703833517"><ele>236.0</ele><time>2026-04-07T12:28:09Z</time></trkpt><trkpt lat="46.00917508669677" lon="11.929723792555857"><ele>236.0</ele><time>2026-04-07T12:28:10Z</time></trkpt><trkpt lat="46.00924334358928" lon="11.929659014483695"><ele>236.0</ele><time>2026-04-07T12:28:11Z</time></trkpt><trkpt lat="46.009306936652926" lon="11.929612261981534"><ele>236.00000000000003</ele><time>2026-04-07T12:28:12Z</time></trkpt><trkpt lat="46.009370100801654" lon="11.92959286289707"><ele>236.0</ele><time>2026-04-07T12:28:13Z</time></trkpt><trkpt lat="46.009435390715254" lon="11.92956385892405"><ele>236.50000000000003</ele><time>2026-04-07T12:28:15Z</time></trkpt><trkpt lat="46.00949381256207" lon="11.929503661438655"><ele>237.0</ele><time>2026-04-07T12:28:35.001Z</time></trkpt><trkpt lat="46.00955335865767" lon="11.929451001893256"><ele>237.5</ele><time>2026-04-07T12:28:36.001Z</time></trkpt><trkpt lat="46.009614306143824" lon="11.929370314392406"><ele>238.0</ele><time>2026-04-07T12:28:37.001Z</time></trkpt><trkpt lat="46.00966794626425" lon="11.929292776637922"><ele>238.50000000000003</ele><time>2026-04-07T12:28:38.001Z</time></trkpt><trkpt lat="46.00974729910019" lon="11.929177355122588"><ele>239.0</ele><time>2026-04-07T12:28:39.001Z</time></trkpt><trkpt lat="46.00983099655281" lon="11.929048193597719"><ele>239.0</ele><time>2026-04-07T12:28:40.001Z</time></trkpt><trkpt lat="46.00990663957484" lon="11.928927302886876"><ele>239.0</ele><time>2026-04-07T12:28:41.001Z</time></trkpt><trkpt lat="46.00998338016118" lon="11.928798362636183"><ele>239.0</ele><time>2026-04-07T12:28:42.001Z</time></trkpt><trkpt lat="46.01005598706967" lon="11.928662647301923"><ele>239.0</ele><time>2026-04-07T12:28:43.001Z</time></trkpt><trkpt lat="46.01013907405176" lon="11.928522300620463"><ele>239.66666666666669</ele><time>2026-04-07T12:28:44.001Z</time></trkpt><trkpt lat="46.01024125632263" lon="11.928338183379916"><ele>240.33333333333331</ele><time>2026-04-07T12:28:45.001Z</time></trkpt><trkpt lat="46.010345542668055" lon="11.928123041253741"><ele>241.0</ele><time>2026-04-07T12:28:46.001Z</time></trkpt><trkpt lat="46.010456941013935" lon="11.927954277326641"><ele>241.0</ele><time>2026-04-07T12:28:47.001Z</time></trkpt><trkpt lat="46.01055523784673" lon="11.927767428932137"><ele>241.0</ele><time>2026-04-07T12:28:48.001Z</time></trkpt><trkpt lat="46.01064584509238" lon="11.927619263674611"><ele>241.0</ele><time>2026-04-07T12:28:49.001Z</time></trkpt><trkpt lat="46.010736030964786" lon="11.927462502423523"><ele>241.0</ele><time>2026-04-07T12:28:50.001Z</time></trkpt><trkpt lat="46.01082333068713" lon="11.927307701357055"><ele>240.75</ele><time>2026-04-07T12:28:51.001Z</time></trkpt><trkpt lat="46.01091370095572" lon="11.927145162345074"><ele>240.5</ele><time>2026-04-07T12:28:52.001Z</time></trkpt><trkpt lat="46.01100239863353" lon="11.926973086046655"><ele>240.25</ele><time>2026-04-07T12:28:53.001Z</time></trkpt><trkpt lat="46.011097030382814" lon="11.92680483091768"><ele>240.0</ele><time>2026-04-07T12:28:54.001Z</time></trkpt><trkpt lat="46.011171130538685" lon="11.926639016696548"><ele>240.5</ele><time>2026-04-07T12:28:55.001Z</time></trkpt><trkpt lat="46.01123757580653" lon="11.926466415996272"><ele>241.0</ele><time>2026-04-07T12:28:56.001Z</time></trkpt><trkpt lat="46.011294325846656" lon="11.9262953510182"><ele>241.5</ele><time>2026-04-07T12:28:57.001Z</time></trkpt><trkpt lat="46.01133498166127" lon="11.926115219610308"><ele>242.0</ele><time>2026-04-07T12:28:58.001Z</time></trkpt><trkpt lat="46.01139315958645" lon="11.925942284390981"><ele>242.0</ele><time>2026-04-07T12:28:59.001Z</time></trkpt><trkpt lat="46.01143655736848" lon="11.925772290285272"><ele>242.0</ele><time>2026-04-07T12:29:00.001Z</time></trkpt><trkpt lat="46.01147174959338" lon="11.925617567626901"><ele>242.0</ele><time>2026-04-07T12:29:01.001Z</time></trkpt><trkpt lat="46.01150435317619" lon="11.925464077024495"><ele>242.0</ele><time>2026-04-07T12:29:02.001Z</time></trkpt><trkpt lat="46.01153154220547" lon="11.925324454802736"><ele>242.0</ele><time>2026-04-07T12:29:03.001Z</time></trkpt><trkpt lat="46.01155442560761" lon="11.925183512993444"><ele>242.0</ele><time>2026-04-07T12:29:04.001Z</time></trkpt><trkpt lat="46.011579289592696" lon="11.92504588170199"><ele>242.0</ele><time>2026-04-07T12:29:05.001Z</time></trkpt><trkpt lat="46.011612847635284" lon="11.924911391624057"><ele>242.0</ele><time>2026-04-07T12:29:06.001Z</time></trkpt><trkpt lat="46.011648861119745" lon="11.924766607639667"><ele>242.0</ele><time>2026-04-07T12:29:07.001Z</time></trkpt><trkpt lat="46.011685085090015" lon="11.92461520431753"><ele>243.0</ele><time>2026-04-07T12:29:08.001Z</time></trkpt><trkpt lat="46.01172277897481" lon="11.924469522154611"><ele>244.0</ele><time>2026-04-07T12:29:09.001Z</time></trkpt><trkpt lat="46.01176615423138" lon="11.924340432145657"><ele>245.0</ele><time>2026-04-07T12:29:10.001Z</time></trkpt><trkpt lat="46.011821724138954" lon="11.924206939556022"><ele>246.0</ele><time>2026-04-07T12:29:11.001Z</time></trkpt><trkpt lat="46.01188953886536" lon="11.924079919496588"><ele>247.0</ele><time>2026-04-07T12:29:12Z</time></trkpt><trkpt lat="46.01197700403602" lon="11.92396359184605"><ele>247.0</ele><time>2026-04-07T12:29:13Z</time></trkpt><trkpt lat="46.012069810995314" lon="11.923859915713352"><ele>247.0</ele><time>2026-04-07T12:29:14Z</time></trkpt><trkpt lat="46.01217185441728" lon="11.923770241263346"><ele>247.0</ele><time>2026-04-07T12:29:15Z</time></trkpt><trkpt lat="46.012271288948845" lon="11.923677241524894"><ele>247.0</ele><time>2026-04-07T12:29:16Z</time></trkpt><trkpt lat="46.01237543615921" lon="11.923584790220701"><ele>247.0</ele><time>2026-04-07T12:29:17Z</time></trkpt><trkpt lat="46.01248217233855" lon="11.923482705899742"><ele>247.0</ele><time>2026-04-07T12:29:18Z</time></trkpt><trkpt lat="46.01258147056145" lon="11.923367941842617"><ele>247.0</ele><time>2026-04-07T12:29:19Z</time></trkpt><trkpt lat="46.012679365905015" lon="11.923250338199118"><ele>247.0</ele><time>2026-04-07T12:29:20Z</time></trkpt><trkpt lat="46.01277284455703" lon="11.923123504164586"><ele>247.25</ele><time>2026-04-07T12:29:21Z</time></trkpt><trkpt lat="46.01286472878236" lon="11.922996656865973"><ele>247.5</ele><time>2026-04-07T12:29:22Z</time></trkpt><trkpt lat="46.012951763890996" lon="11.922850892628896"><ele>247.75</ele><time>2026-04-07T12:29:23Z</time></trkpt><trkpt lat="46.013038102912425" lon="11.922692831358656"><ele>248.0</ele><time>2026-04-07T12:29:24Z</time></trkpt><trkpt lat="46.01311887700057" lon="11.922525571247835"><ele>248.0</ele><time>2026-04-07T12:29:25Z</time></trkpt><trkpt lat="46.013198249635934" lon="11.922365025114184"><ele>248.0</ele><time>2026-04-07T12:29:26Z</time></trkpt><trkpt lat="46.013256839471445" lon="11.922172728395738"><ele>248.0</ele><time>2026-04-07T12:29:27Z</time></trkpt><trkpt lat="46.01332525972994" lon="11.921980858273825"><ele>248.0</ele><time>2026-04-07T12:29:28Z</time></trkpt><trkpt lat="46.01338168483094" lon="11.921799021793266"><ele>249.0</ele><time>2026-04-07T12:29:29Z</time></trkpt><trkpt lat="46.01344637017902" lon="11.921621215197085"><ele>250.0</ele><time>2026-04-07T12:29:30Z</time></trkpt><trkpt lat="46.013494087974536" lon="11.92141216709304"><ele>251.0</ele><time>2026-04-07T12:29:31Z</time></trkpt><trkpt lat="46.01351450626535" lon="11.921197996416774"><ele>252.0</ele><time>2026-04-07T12:29:32Z</time></trkpt><trkpt lat="46.01354450312627" lon="11.920997673410348"><ele>253.0</ele><time>2026-04-07T12:29:33Z</time></trkpt><trkpt lat="46.01356654367464" lon="11.920789109154622"><ele>254.0</ele><time>2026-04-07T12:29:34Z</time></trkpt><trkpt lat="46.013600490863396" lon="11.920576969590396"><ele>255.0</ele><time>2026-04-07T12:29:35Z</time></trkpt><trkpt lat="46.01360234047605" lon="11.9203588873386"><ele>256.0</ele><time>2026-04-07T12:29:36Z</time></trkpt><trkpt lat="46.01361335948108" lon="11.920147870929405"><ele>257.25</ele><time>2026-04-07T12:29:37Z</time></trkpt><trkpt lat="46.013617811248345" lon="11.919953677267157"><ele>258.5</ele><time>2026-04-07T12:29:38Z</time></trkpt><trkpt lat="46.01361966089533" lon="11.919765030290097"><ele>259.75</ele><time>2026-04-07T12:29:39Z</time></trkpt><trkpt lat="46.01362420746634" lon="11.919577753947303"><ele>261.0</ele><time>2026-04-07T12:29:40Z</time></trkpt><trkpt lat="46.01363035134589" lon="11.919386551714672"><ele>260.5</ele><time>2026-04-07T12:29:41Z</time></trkpt><trkpt lat="46.01362733761099" lon="11.919194132231878"><ele>260.0</ele><time>2026-04-07T12:29:42Z</time></trkpt><trkpt lat="46.01361670926127" lon="11.919005773066546"><ele>259.5</ele><time>2026-04-07T12:29:43Z</time></trkpt><trkpt lat="46.01359868189185" lon="11.918823901709597"><ele>259.0</ele><time>2026-04-07T12:29:44Z</time></trkpt><trkpt lat="46.013580766689884" lon="11.918636876375576"><ele>259.0</ele><time>2026-04-07T12:29:45Z</time></trkpt><trkpt lat="46.013561927868786" lon="11.918446958476862"><ele>259.0</ele><time>2026-04-07T12:29:46Z</time></trkpt><trkpt lat="46.01354198365841" lon="11.91825141908399"><ele>259.0</ele><time>2026-04-07T12:29:47Z</time></trkpt><trkpt lat="46.013524609508366" lon="11.91805438414607"><ele>259.0</ele><time>2026-04-07T12:29:48Z</time></trkpt><trkpt lat="46.01351260820848" lon="11.917852763405797"><ele>259.0</ele><time>2026-04-07T12:29:49Z</time></trkpt><trkpt lat="46.01351077303896" lon="11.91764196614497"><ele>259.0</ele><time>2026-04-07T12:29:50Z</time></trkpt><trkpt lat="46.01351584583415" lon="11.9174252496204"><ele>259.0</ele><time>2026-04-07T12:29:51Z</time></trkpt><trkpt lat="46.01352512116773" lon="11.917205527025672"><ele>259.0</ele><time>2026-04-07T12:29:52Z</time></trkpt><trkpt lat="46.0135478504846" lon="11.917002093815093"><ele>259.0</ele><time>2026-04-07T12:29:53Z</time></trkpt><trkpt lat="46.01356955989769" lon="11.916813294285916"><ele>259.0</ele><time>2026-04-07T12:29:54Z</time></trkpt><trkpt lat="46.01359218250032" lon="11.91662916772038"><ele>259.0</ele><time>2026-04-07T12:29:55Z</time></trkpt><trkpt lat="46.01362050585384" lon="11.91644579243767"><ele>258.75</ele><time>2026-04-07T12:29:56Z</time></trkpt><trkpt lat="46.01364984778197" lon="11.916258510596442"><ele>258.5</ele><time>2026-04-07T12:29:57Z</time></trkpt><trkpt lat="46.01367696375708" lon="11.916068091290649"><ele>258.25</ele><time>2026-04-07T12:29:58Z</time></trkpt><trkpt lat="46.01370712224234" lon="11.915873224651715"><ele>258.0</ele><time>2026-04-07T12:29:59Z</time></trkpt><trkpt lat="46.013735896010346" lon="11.91567403901726"><ele>256.5</ele><time>2026-04-07T12:30:00Z</time></trkpt><trkpt lat="46.01376734223129" lon="11.915475488637338"><ele>255.0</ele><time>2026-04-07T12:30:01Z</time></trkpt><trkpt lat="46.013795733211616" lon="11.91529422947993"><ele>253.5</ele><time>2026-04-07T12:30:02Z</time></trkpt><trkpt lat="46.01382040604099" lon="11.915125815020737"><ele>252.0</ele><time>2026-04-07T12:30:03Z</time></trkpt><trkpt lat="46.01384114331009" lon="11.914968304582912"><ele>251.75</ele><time>2026-04-07T12:30:04Z</time></trkpt><trkpt lat="46.01385947643361" lon="11.9148132321535"><ele>251.5</ele><time>2026-04-07T12:30:05Z</time></trkpt><trkpt lat="46.01387508010919" lon="11.914652807738573"><ele>251.25</ele><time>2026-04-07T12:30:06Z</time></trkpt><trkpt lat="46.01388539379582" lon="11.91448554773959"><ele>251.0</ele><time>2026-04-07T12:30:07Z</time></trkpt><trkpt lat="46.013893677761125" lon="11.91431356728526"><ele>251.0</ele><time>2026-04-07T12:30:08Z</time></trkpt><trkpt lat="46.01389545693619" lon="11.914136783648326"><ele>251.0</ele><time>2026-04-07T12:30:09Z</time></trkpt><trkpt lat="46.01389083898908" lon="11.913960950419039"><ele>251.0</ele><time>2026-04-07T12:30:10Z</time></trkpt><trkpt lat="46.01388288759986" lon="11.913800945506438"><ele>251.0</ele><time>2026-04-07T12:30:11Z</time></trkpt><trkpt lat="46.013869683129954" lon="11.913652138148692"><ele>251.00000000000003</ele><time>2026-04-07T12:30:12Z</time></trkpt><trkpt lat="46.013851437165904" lon="11.91351699266605"><ele>251.0</ele><time>2026-04-07T12:30:13Z</time></trkpt><trkpt lat="46.01383313531529" lon="11.913387518625095"><ele>251.0</ele><time>2026-04-07T12:30:14Z</time></trkpt><trkpt lat="46.01381300433506" lon="11.913268911222486"><ele>251.0</ele><time>2026-04-07T12:30:15Z</time></trkpt><trkpt lat="46.01379057642975" lon="11.913166492946958"><ele>251.00000000000003</ele><time>2026-04-07T12:30:16Z</time></trkpt><trkpt lat="46.013775087289275" lon="11.913075227286827"><ele>251.0</ele><time>2026-04-07T12:30:17Z</time></trkpt><trkpt lat="46.013781349738565" lon="11.91292872150197"><ele>251.0</ele><time>2026-04-07T12:30:19Z</time></trkpt><trkpt lat="46.01382006982931" lon="11.912764805473335"><ele>251.00000000000003</ele><time>2026-04-07T12:30:21Z</time></trkpt><trkpt lat="46.01383730399754" lon="11.912670903033977"><ele>251.00000000000003</ele><time>2026-04-07T12:30:22Z</time></trkpt><trkpt lat="46.01383063456203" lon="11.912576493500344"><ele>251.0</ele><time>2026-04-07T12:30:23Z</time></trkpt><trkpt lat="46.013755277347215" lon="11.912432012343814"><ele>251.0</ele><time>2026-04-07T12:30:25Z</time></trkpt><trkpt lat="46.01369094393279" lon="11.91238164695279"><ele>251.33333333333334</ele><time>2026-04-07T12:30:26Z</time></trkpt><trkpt lat="46.01363298799518" lon="11.91231612168849"><ele>251.66666666666669</ele><time>2026-04-07T12:30:27Z</time></trkpt><trkpt lat="46.013582083201676" lon="11.912201694897275"><ele>252.0</ele><time>2026-04-07T12:30:28Z</time></trkpt><trkpt lat="46.013544791313706" lon="11.912095019954814"><ele>252.33333333333331</ele><time>2026-04-07T12:30:29.001Z</time></trkpt><trkpt lat="46.01350615860235" lon="11.911979286636958"><ele>252.66666666666666</ele><time>2026-04-07T12:30:30.001Z</time></trkpt><trkpt lat="46.013468960232096" lon="11.91184492683389"><ele>253.0</ele><time>2026-04-07T12:30:31.001Z</time></trkpt><trkpt lat="46.01342375789669" lon="11.911673152391623"><ele>253.5</ele><time>2026-04-07T12:30:32.001Z</time></trkpt><trkpt lat="46.01338433330928" lon="11.91150567658559"><ele>254.0</ele><time>2026-04-07T12:30:33.001Z</time></trkpt><trkpt lat="46.01334930537134" lon="11.911355613461401"><ele>254.5</ele><time>2026-04-07T12:30:34.001Z</time></trkpt><trkpt lat="46.013317376773394" lon="11.911196113697951"><ele>255.0</ele><time>2026-04-07T12:30:35.001Z</time></trkpt><trkpt lat="46.01328203620669" lon="11.911030565066683"><ele>255.0</ele><time>2026-04-07T12:30:36.001Z</time></trkpt><trkpt lat="46.013234187770344" lon="11.910854762106151"><ele>255.0</ele><time>2026-04-07T12:30:37.001Z</time></trkpt><trkpt lat="46.01319211439777" lon="11.910675231329819"><ele>255.0</ele><time>2026-04-07T12:30:38.001Z</time></trkpt><trkpt lat="46.01315343744989" lon="11.910498355911576"><ele>255.0</ele><time>2026-04-07T12:30:39.001Z</time></trkpt><trkpt lat="46.01311348644475" lon="11.91033433796916"><ele>255.0</ele><time>2026-04-07T12:30:40.001Z</time></trkpt><trkpt lat="46.01307692950379" lon="11.91016618595137"><ele>255.0</ele><time>2026-04-07T12:30:41.001Z</time></trkpt><trkpt lat="46.01304757242984" lon="11.910020824682807"><ele>255.0</ele><time>2026-04-07T12:30:42.001Z</time></trkpt><trkpt lat="46.01301425998297" lon="11.909906012537727"><ele>255.0</ele><time>2026-04-07T12:30:43.001Z</time></trkpt><trkpt lat="46.01298285690084" lon="11.909809378589431"><ele>255.0</ele><time>2026-04-07T12:30:44.001Z</time></trkpt><trkpt lat="46.01297232160628" lon="11.909715275465853"><ele>254.8</ele><time>2026-04-07T12:30:45.001Z</time></trkpt><trkpt lat="46.01297478246547" lon="11.90961313376725"><ele>254.6</ele><time>2026-04-07T12:30:46.001Z</time></trkpt><trkpt lat="46.01297091924733" lon="11.909490645897915"><ele>254.39999999999998</ele><time>2026-04-07T12:30:47.001Z</time></trkpt><trkpt lat="46.012976299528184" lon="11.909357733908738"><ele>254.2</ele><time>2026-04-07T12:30:48.001Z</time></trkpt><trkpt lat="46.013011094252874" lon="11.909215568059292"><ele>254.0</ele><time>2026-04-07T12:30:49.001Z</time></trkpt><trkpt lat="46.0130703908414" lon="11.909063684573004"><ele>254.0</ele><time>2026-04-07T12:30:50.001Z</time></trkpt><trkpt lat="46.01315385930593" lon="11.90891119974594"><ele>254.0</ele><time>2026-04-07T12:30:51.001Z</time></trkpt><trkpt lat="46.013237521199216" lon="11.908784112079484"><ele>254.0</ele><time>2026-04-07T12:30:52.001Z</time></trkpt><trkpt lat="46.0133111653703" lon="11.908676193777783"><ele>254.0</ele><time>2026-04-07T12:30:53.001Z</time></trkpt><trkpt lat="46.01337571246976" lon="11.908585064265603"><ele>254.16666666666669</ele><time>2026-04-07T12:30:54.001Z</time></trkpt><trkpt lat="46.01343153075798" lon="11.908505986912843"><ele>254.33333333333334</ele><time>2026-04-07T12:30:55.001Z</time></trkpt><trkpt lat="46.01348029275999" lon="11.908432423031543"><ele>254.5</ele><time>2026-04-07T12:30:56.001Z</time></trkpt><trkpt lat="46.013539780289236" lon="11.908347804869816"><ele>254.66666666666669</ele><time>2026-04-07T12:30:57.001Z</time></trkpt><trkpt lat="46.013611166856116" lon="11.908247092421702"><ele>254.83333333333334</ele><time>2026-04-07T12:30:58.001Z</time></trkpt><trkpt lat="46.01369440099546" lon="11.908132450956105"><ele>255.0</ele><time>2026-04-07T12:30:59.001Z</time></trkpt><trkpt lat="46.01378358852112" lon="11.908012261047146"><ele>255.16666666666666</ele><time>2026-04-07T12:31:00.001Z</time></trkpt><trkpt lat="46.013854654385106" lon="11.907912253429094"><ele>255.33333333333331</ele><time>2026-04-07T12:31:01.001Z</time></trkpt><trkpt lat="46.013912196637584" lon="11.907827161298702"><ele>255.5</ele><time>2026-04-07T12:31:02.001Z</time></trkpt><trkpt lat="46.013961187497834" lon="11.907753481269284"><ele>255.66666666666666</ele><time>2026-04-07T12:31:03.001Z</time></trkpt><trkpt lat="46.01401016641852" lon="11.907685822939012"><ele>255.83333333333331</ele><time>2026-04-07T12:31:04.001Z</time></trkpt><trkpt lat="46.014074226478876" lon="11.907598298531099"><ele>256.0</ele><time>2026-04-07T12:31:05.001Z</time></trkpt><trkpt lat="46.01414277295104" lon="11.907499104362385"><ele>256.0</ele><time>2026-04-07T12:31:06.001Z</time></trkpt><trkpt lat="46.014200378681174" lon="11.907417588758465"><ele>256.0</ele><time>2026-04-07T12:31:07.001Z</time></trkpt><trkpt lat="46.014250757177045" lon="11.907347786678283"><ele>256.0</ele><time>2026-04-07T12:31:08.001Z</time></trkpt><trkpt lat="46.01434519382952" lon="11.907218388832234"><ele>256.0</ele><time>2026-04-07T12:31:10.001Z</time></trkpt><trkpt lat="46.01440342163475" lon="11.907137752762788"><ele>256.0</ele><time>2026-04-07T12:31:11.001Z</time></trkpt><trkpt lat="46.01446936733966" lon="11.907037929110865"><ele>256.0</ele><time>2026-04-07T12:31:12.001Z</time></trkpt><trkpt lat="46.01455018067867" lon="11.906921018284793"><ele>256.0</ele><time>2026-04-07T12:31:13.001Z</time></trkpt><trkpt lat="46.01464569219615" lon="11.906785231692327"><ele>256.0</ele><time>2026-04-07T12:31:14.001Z</time></trkpt><trkpt lat="46.01474320835663" lon="11.906644563059132"><ele>256.0</ele><time>2026-04-07T12:31:15.001Z</time></trkpt><trkpt lat="46.01482609061483" lon="11.906521397511016"><ele>256.40000000000003</ele><time>2026-04-07T12:31:16.001Z</time></trkpt><trkpt lat="46.014905197489" lon="11.906411873804853"><ele>256.8</ele><time>2026-04-07T12:31:17.001Z</time></trkpt><trkpt lat="46.01497785822353" lon="11.906300982184659"><ele>257.20000000000005</ele><time>2026-04-07T12:31:18Z</time></trkpt><trkpt lat="46.015039267928486" lon="11.90617731305609"><ele>257.6</ele><time>2026-04-07T12:31:19Z</time></trkpt><trkpt lat="46.01508781661977" lon="11.906043770991756"><ele>258.0</ele><time>2026-04-07T12:31:20Z</time></trkpt><trkpt lat="46.01512700429257" lon="11.905900602743143"><ele>259.0</ele><time>2026-04-07T12:31:21Z</time></trkpt><trkpt lat="46.0151588127338" lon="11.905745486860827"><ele>260.0</ele><time>2026-04-07T12:31:22Z</time></trkpt><trkpt lat="46.01518775280898" lon="11.905581125504584"><ele>261.0</ele><time>2026-04-07T12:31:23Z</time></trkpt><trkpt lat="46.01523311710618" lon="11.905415161018496"><ele>262.0</ele><time>2026-04-07T12:31:24Z</time></trkpt><trkpt lat="46.01524410731647" lon="11.905230749443785"><ele>262.25</ele><time>2026-04-07T12:31:25Z</time></trkpt><trkpt lat="46.01527906996689" lon="11.905047702277038"><ele>262.5</ele><time>2026-04-07T12:31:26Z</time></trkpt><trkpt lat="46.015316185350564" lon="11.904863362983274"><ele>262.75</ele><time>2026-04-07T12:31:27Z</time></trkpt><trkpt lat="46.01535000273421" lon="11.904675851634776"><ele>263.0</ele><time>2026-04-07T12:31:28Z</time></trkpt><trkpt lat="46.01537752146263" lon="11.904481934766297"><ele>263.0</ele><time>2026-04-07T12:31:29Z</time></trkpt><trkpt lat="46.015407693829516" lon="11.904294585262187"><ele>263.0</ele><time>2026-04-07T12:31:30Z</time></trkpt><trkpt lat="46.015439142013335" lon="11.90412491251936"><ele>263.0</ele><time>2026-04-07T12:31:31Z</time></trkpt><trkpt lat="46.01547079739835" lon="11.903962036831714"><ele>263.0</ele><time>2026-04-07T12:31:32Z</time></trkpt><trkpt lat="46.01549987382049" lon="11.903799125659395"><ele>263.0</ele><time>2026-04-07T12:31:33Z</time></trkpt><trkpt lat="46.01552848309731" lon="11.903631306806664"><ele>263.0</ele><time>2026-04-07T12:31:34Z</time></trkpt><trkpt lat="46.01555532053316" lon="11.903461013722135"><ele>263.0</ele><time>2026-04-07T12:31:35Z</time></trkpt><trkpt lat="46.015581840301635" lon="11.903288448123078"><ele>263.0</ele><time>2026-04-07T12:31:36Z</time></trkpt><trkpt lat="46.01561000049153" lon="11.903118275078372"><ele>263.0</ele><time>2026-04-07T12:31:37Z</time></trkpt><trkpt lat="46.01563543325393" lon="11.902962382558313"><ele>263.0</ele><time>2026-04-07T12:31:38Z</time></trkpt><trkpt lat="46.015658716856926" lon="11.902820695379788"><ele>263.0</ele><time>2026-04-07T12:31:39Z</time></trkpt><trkpt lat="46.01568169839296" lon="11.902688525953803"><ele>263.0</ele><time>2026-04-07T12:31:40Z</time></trkpt><trkpt lat="46.015702989965945" lon="11.902571574035651"><ele>263.0</ele><time>2026-04-07T12:31:41Z</time></trkpt><trkpt lat="46.015725128050526" lon="11.902451922513704"><ele>263.0</ele><time>2026-04-07T12:31:42Z</time></trkpt><trkpt lat="46.01574475319333" lon="11.902344543189487"><ele>263.0</ele><time>2026-04-07T12:31:43Z</time></trkpt><trkpt lat="46.015754296978464" lon="11.902235256284735"><ele>263.0</ele><time>2026-04-07T12:31:44Z</time></trkpt><trkpt lat="46.015749131047" lon="11.902122130485134"><ele>263.0</ele><time>2026-04-07T12:31:45Z</time></trkpt><trkpt lat="46.01571960205288" lon="11.902008484152061"><ele>263.0</ele><time>2026-04-07T12:31:46Z</time></trkpt><trkpt lat="46.015677829714924" lon="11.901903208671555"><ele>263.0</ele><time>2026-04-07T12:31:47Z</time></trkpt><trkpt lat="46.01561805008448" lon="11.901793085227325"><ele>263.4</ele><time>2026-04-07T12:31:48Z</time></trkpt><trkpt lat="46.015558275478746" lon="11.90168748348817"><ele>263.8</ele><time>2026-04-07T12:31:49Z</time></trkpt><trkpt lat="46.015517118087544" lon="11.901561209583297"><ele>264.2</ele><time>2026-04-07T12:31:50Z</time></trkpt><trkpt lat="46.01545637686588" lon="11.901454127226376"><ele>264.6</ele><time>2026-04-07T12:31:51Z</time></trkpt><trkpt lat="46.01541089135879" lon="11.901324575227612"><ele>265.0</ele><time>2026-04-07T12:31:52Z</time></trkpt><trkpt lat="46.015374171434495" lon="11.901184197784186"><ele>265.0</ele><time>2026-04-07T12:31:53Z</time></trkpt><trkpt lat="46.01533876093042" lon="11.901040667789658"><ele>265.0</ele><time>2026-04-07T12:31:54Z</time></trkpt><trkpt lat="46.01530278908055" lon="11.900896304625226"><ele>265.0</ele><time>2026-04-07T12:31:55Z</time></trkpt><trkpt lat="46.01527098639268" lon="11.90075502917471"><ele>265.0</ele><time>2026-04-07T12:31:56Z</time></trkpt><trkpt lat="46.01524722775577" lon="11.900624650846808"><ele>265.0</ele><time>2026-04-07T12:31:57Z</time></trkpt><trkpt lat="46.01523128821949" lon="11.900505761682503"><ele>264.8333333333333</ele><time>2026-04-07T12:31:58Z</time></trkpt><trkpt lat="46.01521093896433" lon="11.900398240194498"><ele>264.66666666666663</ele><time>2026-04-07T12:31:59Z</time></trkpt><trkpt lat="46.01519279894886" lon="11.900302356293112"><ele>264.5</ele><time>2026-04-07T12:32:00Z</time></trkpt><trkpt lat="46.01520314549836" lon="11.900156051268691"><ele>264.3333333333333</ele><time>2026-04-07T12:32:02Z</time></trkpt><trkpt lat="46.01525777323194" lon="11.900025861180202"><ele>264.1666666666667</ele><time>2026-04-07T12:32:04Z</time></trkpt><trkpt lat="46.01528603287161" lon="11.89993729283039"><ele>264.0</ele><time>2026-04-07T12:32:05Z</time></trkpt><trkpt lat="46.01533030018173" lon="11.899868856587279"><ele>263.6666666666667</ele><time>2026-04-07T12:32:06Z</time></trkpt><trkpt lat="46.01538575697207" lon="11.899822648725094"><ele>263.3333333333333</ele><time>2026-04-07T12:32:07Z</time></trkpt><trkpt lat="46.01545497427319" lon="11.899808309571137"><ele>263.0</ele><time>2026-04-07T12:32:08Z</time></trkpt><trkpt lat="46.01554970440035" lon="11.89981085169337"><ele>262.66666666666663</ele><time>2026-04-07T12:32:09Z</time></trkpt><trkpt lat="46.015654783156606" lon="11.899811682808512"><ele>262.3333333333333</ele><time>2026-04-07T12:32:10Z</time></trkpt><trkpt lat="46.01573386246573" lon="11.899812296720608"><ele>262.0</ele><time>2026-04-07T12:32:11Z</time></trkpt><trkpt lat="46.015812885228705" lon="11.899812924221784"><ele>262.2</ele><time>2026-04-07T12:32:12Z</time></trkpt><trkpt lat="46.01590212131221" lon="11.89981502766541"><ele>262.4</ele><time>2026-04-07T12:32:13Z</time></trkpt><trkpt lat="46.0159984778184" lon="11.899823249294757"><ele>262.6</ele><time>2026-04-07T12:32:14Z</time></trkpt><trkpt lat="46.01610304944089" lon="11.899838218278708"><ele>262.8</ele><time>2026-04-07T12:32:15Z</time></trkpt><trkpt lat="46.01621893282509" lon="11.899853192701093"><ele>263.0</ele><time>2026-04-07T12:32:16Z</time></trkpt><trkpt lat="46.01633883944188" lon="11.899882076217308"><ele>263.0</ele><time>2026-04-07T12:32:17Z</time></trkpt><trkpt lat="46.0164464928969" lon="11.899928958840286"><ele>263.0</ele><time>2026-04-07T12:32:18Z</time></trkpt><trkpt lat="46.01654464105016" lon="11.899984199793236"><ele>263.0</ele><time>2026-04-07T12:32:19Z</time></trkpt><trkpt lat="46.016645295730214" lon="11.900070564023245"><ele>263.0</ele><time>2026-04-07T12:32:20Z</time></trkpt><trkpt lat="46.016745960535" lon="11.900174477349967"><ele>263.75</ele><time>2026-04-07T12:32:21Z</time></trkpt><trkpt lat="46.01685364867002" lon="11.900287060587294"><ele>264.5</ele><time>2026-04-07T12:32:22Z</time></trkpt><trkpt lat="46.01696796512611" lon="11.900371852123577"><ele>265.25</ele><time>2026-04-07T12:32:23Z</time></trkpt><trkpt lat="46.01707914653659" lon="11.900439508665542"><ele>266.0</ele><time>2026-04-07T12:32:24Z</time></trkpt><trkpt lat="46.017181643734254" lon="11.9004956482437"><ele>266.0</ele><time>2026-04-07T12:32:25Z</time></trkpt><trkpt lat="46.0172522924237" lon="11.900546810096364"><ele>266.0</ele><time>2026-04-07T12:32:26Z</time></trkpt><trkpt lat="46.01730044564876" lon="11.900624518645671"><ele>266.0</ele><time>2026-04-07T12:32:27.001Z</time></trkpt><trkpt lat="46.01738466731749" lon="11.90071948465621"><ele>266.0</ele><time>2026-04-07T12:32:29.001Z</time></trkpt><trkpt lat="46.01745707181988" lon="11.900686660624933"><ele>266.0</ele><time>2026-04-07T12:32:30.001Z</time></trkpt><trkpt lat="46.01752563685129" lon="11.90071182588522"><ele>266.0</ele><time>2026-04-07T12:32:31.001Z</time></trkpt><trkpt lat="46.017609274994314" lon="11.900676385221855"><ele>266.33333333333337</ele><time>2026-04-07T12:32:32.001Z</time></trkpt><trkpt lat="46.0176790749868" lon="11.90063488682049"><ele>266.6666666666667</ele><time>2026-04-07T12:32:33.001Z</time></trkpt><trkpt lat="46.017741159576985" lon="11.900583289871907"><ele>267.0</ele><time>2026-04-07T12:32:34.001Z</time></trkpt><trkpt lat="46.01780799420406" lon="11.900512362387074"><ele>267.3333333333333</ele><time>2026-04-07T12:32:35.001Z</time></trkpt><trkpt lat="46.01787677722764" lon="11.90043526645232"><ele>267.66666666666663</ele><time>2026-04-07T12:32:36.001Z</time></trkpt><trkpt lat="46.01794592316283" lon="11.900335090721512"><ele>268.0</ele><time>2026-04-07T12:32:37.001Z</time></trkpt><trkpt lat="46.01800371609916" lon="11.900219430008589"><ele>268.0</ele><time>2026-04-07T12:32:38.001Z</time></trkpt><trkpt lat="46.01805300353393" lon="11.900114063901457"><ele>268.0</ele><time>2026-04-07T12:32:39.001Z</time></trkpt><trkpt lat="46.018080225980434" lon="11.900023069698513"><ele>268.0</ele><time>2026-04-07T12:32:40.001Z</time></trkpt><trkpt lat="46.018138791896654" lon="11.899914655148661"><ele>268.0</ele><time>2026-04-07T12:32:42.001Z</time></trkpt><trkpt lat="46.018073717381064" lon="11.899774024719347"><ele>268.0</ele><time>2026-04-07T12:32:43.001Z</time></trkpt><trkpt lat="46.01804140899158" lon="11.899662414894333"><ele>268.4</ele><time>2026-04-07T12:32:44.001Z</time></trkpt><trkpt lat="46.018015857951966" lon="11.89956261568818"><ele>268.8</ele><time>2026-04-07T12:32:45.001Z</time></trkpt><trkpt lat="46.01799768338347" lon="11.899460582995019"><ele>269.2</ele><time>2026-04-07T12:32:46.001Z</time></trkpt><trkpt lat="46.01798045001353" lon="11.899318150985158"><ele>269.6</ele><time>2026-04-07T12:32:47.001Z</time></trkpt><trkpt lat="46.01795697944667" lon="11.89913872485854"><ele>270.0</ele><time>2026-04-07T12:32:48.001Z</time></trkpt><trkpt lat="46.017948456327865" lon="11.898917491431655"><ele>270.0</ele><time>2026-04-07T12:32:49.001Z</time></trkpt><trkpt lat="46.01792927814334" lon="11.89873289843477"><ele>270.0</ele><time>2026-04-07T12:32:50.001Z</time></trkpt><trkpt lat="46.01790654726492" lon="11.898514110191115"><ele>270.0</ele><time>2026-04-07T12:32:51.001Z</time></trkpt><trkpt lat="46.01788021045889" lon="11.898260614427606"><ele>270.25</ele><time>2026-04-07T12:32:52.001Z</time></trkpt><trkpt lat="46.01785793808304" lon="11.89804054046006"><ele>270.5</ele><time>2026-04-07T12:32:53.001Z</time></trkpt><trkpt lat="46.01783652362213" lon="11.897826248818737"><ele>270.75</ele><time>2026-04-07T12:32:54.001Z</time></trkpt><trkpt lat="46.017805818032265" lon="11.897635992567755"><ele>271.0</ele><time>2026-04-07T12:32:55.001Z</time></trkpt><trkpt lat="46.017793840982016" lon="11.897475443897363"><ele>271.0</ele><time>2026-04-07T12:32:56.001Z</time></trkpt><trkpt lat="46.01777517234112" lon="11.897343157527969"><ele>271.0</ele><time>2026-04-07T12:32:57.001Z</time></trkpt><trkpt lat="46.01776531913748" lon="11.89725342437088"><ele>271.0</ele><time>2026-04-07T12:32:58.001Z</time></trkpt><trkpt lat="46.017731768875606" lon="11.897081322235726"><ele>271.0</ele><time>2026-04-07T12:33:00.001Z</time></trkpt><trkpt lat="46.01771750665567" lon="11.896955514545844"><ele>271.0</ele><time>2026-04-07T12:33:01.001Z</time></trkpt><trkpt lat="46.017685846201665" lon="11.896806598373985"><ele>270.5</ele><time>2026-04-07T12:33:02.001Z</time></trkpt><trkpt lat="46.01764305158607" lon="11.896605312166935"><ele>270.0</ele><time>2026-04-07T12:33:03.001Z</time></trkpt><trkpt lat="46.017572812526595" lon="11.896394991795296"><ele>269.5</ele><time>2026-04-07T12:33:04.001Z</time></trkpt><trkpt lat="46.01754091016018" lon="11.896201110900979"><ele>269.0</ele><time>2026-04-07T12:33:05.001Z</time></trkpt><trkpt lat="46.01750093792858" lon="11.89598618812955"><ele>268.0</ele><time>2026-04-07T12:33:06.001Z</time></trkpt><trkpt lat="46.01745221654946" lon="11.895751163339114"><ele>267.0</ele><time>2026-04-07T12:33:07.001Z</time></trkpt><trkpt lat="46.017391134818396" lon="11.895478221978667"><ele>266.0</ele><time>2026-04-07T12:33:08.001Z</time></trkpt><trkpt lat="46.0173375722002" lon="11.895231181113864"><ele>266.33333333333337</ele><time>2026-04-07T12:33:09.001Z</time></trkpt><trkpt lat="46.017290183669175" lon="11.894916916710441"><ele>266.6666666666667</ele><time>2026-04-07T12:33:10.001Z</time></trkpt><trkpt lat="46.01722664195323" lon="11.894605957661359"><ele>267.0</ele><time>2026-04-07T12:33:11.001Z</time></trkpt><trkpt lat="46.017173682870656" lon="11.89434158319395"><ele>267.0</ele><time>2026-04-07T12:33:12.001Z</time></trkpt><trkpt lat="46.01712249488836" lon="11.894088156940816"><ele>267.0</ele><time>2026-04-07T12:33:13.001Z</time></trkpt><trkpt lat="46.017072794409124" lon="11.893849514225575"><ele>267.0</ele><time>2026-04-07T12:33:14.001Z</time></trkpt><trkpt lat="46.017025219386014" lon="11.893629108816318"><ele>267.0</ele><time>2026-04-07T12:33:15.001Z</time></trkpt><trkpt lat="46.01696904786104" lon="11.893452973356359"><ele>267.0</ele><time>2026-04-07T12:33:16.001Z</time></trkpt><trkpt lat="46.01693699551684" lon="11.893305512411438"><ele>267.0</ele><time>2026-04-07T12:33:17.001Z</time></trkpt><trkpt lat="46.016913658365766" lon="11.8932049365002"><ele>267.0</ele><time>2026-04-07T12:33:18.001Z</time></trkpt><trkpt lat="46.01690960777388" lon="11.893063862018444"><ele>267.0</ele><time>2026-04-07T12:33:20.001Z</time></trkpt><trkpt lat="46.01702158911314" lon="11.893101285858389"><ele>267.1666666666667</ele><time>2026-04-07T12:33:22.001Z</time></trkpt><trkpt lat="46.01706008730853" lon="11.892939462922888"><ele>267.3333333333333</ele><time>2026-04-07T12:33:23.001Z</time></trkpt><trkpt lat="46.017141746627146" lon="11.892899962562348"><ele>267.5</ele><time>2026-04-07T12:33:24Z</time></trkpt><trkpt lat="46.017213281168466" lon="11.892871110830875"><ele>267.66666666666663</ele><time>2026-04-07T12:33:25Z</time></trkpt><trkpt lat="46.01728106817934" lon="11.892843131437068"><ele>267.8333333333333</ele><time>2026-04-07T12:33:26Z</time></trkpt><trkpt lat="46.01735707339604" lon="11.892799420814383"><ele>268.0</ele><time>2026-04-07T12:33:27Z</time></trkpt><trkpt lat="46.017421419283814" lon="11.892762159793271"><ele>268.25</ele><time>2026-04-07T12:33:28Z</time></trkpt><trkpt lat="46.017534921233995" lon="11.892823330856135"><ele>268.5</ele><time>2026-04-07T12:33:30Z</time></trkpt><trkpt lat="46.01747857590367" lon="11.89254690279927"><ele>268.75</ele><time>2026-04-07T12:33:31Z</time></trkpt><trkpt lat="46.017457747553" lon="11.892441295175455"><ele>269.0</ele><time>2026-04-07T12:33:32Z</time></trkpt><trkpt lat="46.01745729841417" lon="11.892301718320759"><ele>269.0</ele><time>2026-04-07T12:33:33Z</time></trkpt><trkpt lat="46.017424936355795" lon="11.89214992894792"><ele>269.0</ele><time>2026-04-07T12:33:34Z</time></trkpt><trkpt lat="46.01740896760441" lon="11.891969303795483"><ele>269.0</ele><time>2026-04-07T12:33:35Z</time></trkpt><trkpt lat="46.01739100361979" lon="11.891792321964537"><ele>269.0</ele><time>2026-04-07T12:33:36Z</time></trkpt><trkpt lat="46.017370198134735" lon="11.891639856688874"><ele>268.8</ele><time>2026-04-07T12:33:37Z</time></trkpt><trkpt lat="46.017366570298584" lon="11.891496118880434"><ele>268.59999999999997</ele><time>2026-04-07T12:33:38Z</time></trkpt><trkpt lat="46.01733861326386" lon="11.891349051768763"><ele>268.4</ele><time>2026-04-07T12:33:39Z</time></trkpt><trkpt lat="46.01732345064644" lon="11.891194391190195"><ele>268.2</ele><time>2026-04-07T12:33:40Z</time></trkpt><trkpt lat="46.01730723532642" lon="11.891046407163833"><ele>268.0</ele><time>2026-04-07T12:33:41Z</time></trkpt><trkpt lat="46.01729350721757" lon="11.89091730197471"><ele>268.0</ele><time>2026-04-07T12:33:42Z</time></trkpt><trkpt lat="46.017284195872776" lon="11.890799688439756"><ele>268.0</ele><time>2026-04-07T12:33:43Z</time></trkpt><trkpt lat="46.0172847759322" lon="11.890692931094302"><ele>268.0</ele><time>2026-04-07T12:33:44Z</time></trkpt><trkpt lat="46.01722318210392" lon="11.890616799978025"><ele>268.0</ele><time>2026-04-07T12:33:45Z</time></trkpt><trkpt lat="46.0171601967996" lon="11.890558244519093"><ele>268.0</ele><time>2026-04-07T12:33:46Z</time></trkpt><trkpt lat="46.017102700190485" lon="11.89047460519498"><ele>268.0</ele><time>2026-04-07T12:33:47Z</time></trkpt><trkpt lat="46.01704081210095" lon="11.890410366935612"><ele>268.0</ele><time>2026-04-07T12:33:48Z</time></trkpt><trkpt lat="46.01697376493723" lon="11.890295580667033"><ele>268.0</ele><time>2026-04-07T12:33:50Z</time></trkpt><trkpt lat="46.01701124236117" lon="11.890120996930046"><ele>268.0</ele><time>2026-04-07T12:33:52Z</time></trkpt><trkpt lat="46.01702340472272" lon="11.890013590058759"><ele>268.0</ele><time>2026-04-07T12:33:53Z</time></trkpt><trkpt lat="46.017043524861535" lon="11.889918915489213"><ele>268.0</ele><time>2026-04-07T12:33:54Z</time></trkpt><trkpt lat="46.01706654747081" lon="11.889802756558899"><ele>268.0</ele><time>2026-04-07T12:33:56Z</time></trkpt><trkpt lat="46.01713435627742" lon="11.889766177594796"><ele>268.0</ele><time>2026-04-07T12:33:58Z</time></trkpt><trkpt lat="46.01720717550098" lon="11.889764677235537"><ele>268.0</ele><time>2026-04-07T12:34:00Z</time></trkpt><trkpt lat="46.017281414231526" lon="11.889735345305526"><ele>268.0</ele><time>2026-04-07T12:34:02Z</time></trkpt><trkpt lat="46.01735239538172" lon="11.889918239686876"><ele>268.0</ele><time>2026-04-07T12:34:05Z</time></trkpt><trkpt lat="46.01737457842559" lon="11.89002299650945"><ele>268.0</ele><time>2026-04-07T12:34:07Z</time></trkpt><trkpt lat="46.01737586915204" lon="11.890148888312963"><ele>268.0</ele><time>2026-04-07T12:34:09Z</time></trkpt><trkpt lat="46.01739843029398" lon="11.890264605305907"><ele>268.0</ele><time>2026-04-07T12:34:11Z</time></trkpt><trkpt lat="46.0173813231315" lon="11.890363552016906"><ele>268.0</ele><time>2026-04-07T12:34:14Z</time></trkpt><trkpt lat="46.01735450749491" lon="11.890453385371599"><ele>268.0</ele><time>2026-04-07T12:34:21Z</time></trkpt></trkseg></trk></gpx>